
Distance (Route):
Temperature : 17.1°C
Humidity : 74.0%
Pressure : 997.0hPa| Receiver | Frames | First received | Last received |
|---|---|---|---|
| KRY50SP-1 | 800 | 2026-09-02 05:09:27 | 2026-09-02 07:57:46 |
| DB0DAN | 464 | 2026-09-02 04:50:55 | 2026-09-02 07:17:10 |
| AA1-15 | 373 | 2026-09-02 05:08:10 | 2026-09-02 06:40:57 |
| SP3BTT-10 | 369 | 2026-09-02 04:50:25 | 2026-09-02 08:16:45 |
| SP6BVK | 234 | 2026-09-02 05:02:04 | 2026-09-02 08:06:12 |
| DL1XH-west | 207 | 2026-09-02 05:24:38 | 2026-09-02 06:13:07 |
| SONDE2-11 | 202 | 2026-09-02 04:45:23 | 2026-09-02 07:40:15 |
| EDDB2-12 | 190 | 2026-09-02 04:45:42 | 2026-09-02 07:46:14 |
| EDDB2-11 | 189 | 2026-09-02 04:46:01 | 2026-09-02 07:46:30 |
| 13BRC | 184 | 2026-09-02 04:50:43 | 2026-09-02 07:30:41 |
| SP3WXH-11 | 167 | 2026-09-02 05:11:28 | 2026-09-02 07:59:32 |
| DM0DOS-11 | 156 | 2026-09-02 05:35:36 | 2026-09-02 06:16:22 |
| DF8AY | 138 | 2026-09-02 05:20:06 | 2026-09-02 06:19:44 |
| DL1XH1-15 | 116 | 2026-09-02 05:35:53 | 2026-09-02 06:07:35 |
| S3001 | 100 | 2026-09-02 04:55:45 | 2026-09-02 06:55:17 |
| DAC517 | 84 | 2026-09-02 04:49:31 | 2026-09-02 06:38:11 |
| DL2RXE-15 | 84 | 2026-09-02 04:53:08 | 2026-09-02 06:56:16 |
| DO2SHX-10 | 63 | 2026-09-02 05:39:57 | 2026-09-02 05:59:39 |
| DB0NH | 51 | 2026-09-02 05:17:33 | 2026-09-02 06:32:27 |
| SONCRA | 45 | 2026-09-02 05:10:17 | 2026-09-02 06:53:47 |
| DO3MHA-11 | 45 | 2026-09-02 05:41:31 | 2026-09-02 06:07:58 |
| DJ2DS-15 | 28 | 2026-09-02 05:41:18 | 2026-09-02 06:04:44 |
| MECKS9 | 19 | 2026-09-02 05:14:01 | 2026-09-02 05:47:29 |
| OE3JTB-15 | 17 | 2026-09-02 05:27:27 | 2026-09-02 06:44:28 |
| NBG1-10 | 12 | 2026-09-02 05:12:44 | 2026-09-02 06:19:42 |
| D01LWL | 4 | 2026-09-02 05:37:19 | 2026-09-02 05:39:23 |
| HSKMA3-T | 3 | 2026-09-02 05:38:20 | 2026-09-02 05:54:57 |
| OK1SLM-15 | 3 | 2026-09-02 05:50:34 | 2026-09-02 05:52:14 |
| DH0BRO-15 | 2 | 2026-09-02 05:13:12 | 2026-09-02 05:17:57 |
| SQ6EMJ | 1 | 2026-09-02 05:57:08 | 2026-09-02 05:57:08 |
| DL1JHR | 1 | 2026-09-02 06:00:12 | 2026-09-02 06:00:12 |
| Receiver | Date | Latitude | Longitude | Direction | Speed | Altitude | Climb | Temperature | Humidity | Pressure | Voltage | Killtimer | Uptime | BKT | XDATA |
|---|---|---|---|---|---|---|---|---|---|---|---|---|---|---|---|
| SP3BTT-10 | 2026-09-02 08:16:45 | 52.04738 | 16.22569 | 56° | 13km/h | 226m | -1.3m/s | 17.1°C | 74.0% | 997.0hPa | 2.9V | 00:00:00 | 00:00:00 | 00:00:00 | |
| SP3BTT-10 | 2026-09-02 08:16:42 | 52.04733 | 16.22557 | 52° | 11km/h | 229m | -1.6m/s | 17.0°C | 73.8% | 996.6hPa | 2.9V | 00:00:00 | 00:00:00 | 00:00:00 | |
| SP3BTT-10 | 2026-09-02 08:16:40 | 52.04730 | 16.22550 | 51° | 11km/h | 232m | -1.4m/s | 17.0°C | 73.8% | 996.2hPa | 2.9V | 00:00:00 | 00:00:00 | 00:00:00 | |
| SP3BTT-10 | 2026-09-02 08:16:38 | 52.04727 | 16.22543 | 45° | 9km/h | 235m | -1.0m/s | 17.1°C | 74.4% | 996.1hPa | 2.9V | 00:00:00 | 00:00:00 | 00:00:00 | |
| SP3BTT-10 | 2026-09-02 08:16:36 | 52.04723 | 16.22537 | 45° | 11km/h | 238m | -1.2m/s | 17.0°C | 74.8% | 995.8hPa | 2.7V | 00:00:00 | 00:00:00 | 00:00:00 | |
| SP3BTT-10 | 2026-09-02 08:16:34 | 52.04719 | 16.22530 | 48° | 11km/h | 241m | -1.3m/s | 16.9°C | 74.5% | 995.4hPa | 2.7V | 00:00:00 | 00:00:00 | 00:00:00 | |
| SP3BTT-10 | 2026-09-02 08:16:32 | 52.04714 | 16.22524 | 46° | 11km/h | 244m | -1.1m/s | 16.9°C | 74.6% | 995.1hPa | 2.7V | 00:00:00 | 00:00:00 | 08:30:00 | |
| SP3BTT-10 | 2026-09-02 08:16:30 | 52.04711 | 16.22518 | 46° | 9km/h | 246m | -1.1m/s | 16.9°C | 74.8% | 994.7hPa | 2.9V | 00:00:00 | 00:00:00 | 00:00:00 | |
| SP3BTT-10 | 2026-09-02 08:16:28 | 52.04706 | 16.22513 | 39° | 13km/h | 248m | -0.9m/s | 16.9°C | 74.9% | 994.4hPa | 2.9V | 00:00:00 | 00:00:00 | 00:00:00 | |
| SP3BTT-10 | 2026-09-02 08:16:26 | 52.04702 | 16.22505 | 49° | 13km/h | 251m | -0.9m/s | 16.9°C | 74.9% | 994.3hPa | 2.9V | 00:00:00 | 00:00:00 | 00:00:00 | |
| SP3BTT-10 | 2026-09-02 08:16:24 | 52.04698 | 16.22499 | 41° | 13km/h | 252m | -0.7m/s | 16.9°C | 74.9% | 994.0hPa | 2.9V | 00:00:00 | 00:00:00 | 00:00:00 | |
| SP3BTT-10 | 2026-09-02 08:16:22 | 52.04694 | 16.22491 | 53° | 11km/h | 254m | -0.9m/s | 16.9°C | 75.1% | 993.9hPa | 2.9V | 00:00:00 | 00:00:00 | 00:00:00 | |
| SP3BTT-10 | 2026-09-02 08:16:20 | 52.04690 | 16.22484 | 54° | 11km/h | 255m | -0.5m/s | 16.8°C | 75.2% | 993.6hPa | 2.9V | 00:00:00 | 00:00:00 | 00:00:00 | |
| SP3BTT-10 | 2026-09-02 08:16:18 | 52.04686 | 16.22476 | 45° | 13km/h | 256m | -0.5m/s | 16.9°C | 75.0% | 993.6hPa | 2.9V | 00:00:00 | 00:00:00 | 00:00:00 | |
| SP3BTT-10 | 2026-09-02 08:16:16 | 52.04682 | 16.22469 | 50° | 15km/h | 258m | -0.5m/s | 16.8°C | 74.9% | 993.3hPa | 2.9V | 00:00:00 | 00:00:00 | 00:00:00 | |
| SP3BTT-10 | 2026-09-02 08:16:13 | 52.04675 | 16.22456 | 51° | 15km/h | 259m | -0.5m/s | 16.8°C | 75.4% | 993.3hPa | 2.9V | 00:00:00 | 00:00:00 | 08:30:00 | |
| SP3BTT-10 | 2026-09-02 08:16:11 | 52.04669 | 16.22448 | 49° | 18km/h | 260m | -0.5m/s | 16.8°C | 75.3% | 993.2hPa | 2.9V | 00:00:00 | 00:00:00 | 00:00:00 | |
| SP3BTT-10 | 2026-09-02 08:16:09 | 52.04663 | 16.22437 | 46° | 18km/h | 262m | -0.9m/s | 16.8°C | 75.3% | 993.0hPa | 2.9V | 00:00:00 | 00:00:00 | 00:00:00 | |
| SP3BTT-10 | 2026-09-02 08:16:07 | 52.04656 | 16.22429 | 40° | 16km/h | 263m | -0.5m/s | 16.7°C | 75.3% | 992.8hPa | 2.9V | 00:00:00 | 00:00:00 | 00:00:00 | |
| SP3BTT-10 | 2026-09-02 08:16:03 | 52.04644 | 16.22415 | 41° | 15km/h | 267m | -1.5m/s | 16.7°C | 75.7% | 992.3hPa | 2.7V | 00:00:00 | 00:00:00 | 00:00:00 | |
| SP3BTT-10 | 2026-09-02 08:16:01 | 52.04639 | 16.22408 | 45° | 13km/h | 269m | -1.1m/s | 16.7°C | 75.9% | 992.0hPa | 2.7V | 00:00:00 | 00:00:00 | 00:00:00 | |
| SP3BTT-10 | 2026-09-02 08:15:59 | 52.04635 | 16.22400 | 44° | 13km/h | 272m | -1.9m/s | 16.6°C | 76.1% | 991.9hPa | 2.7V | 00:00:00 | 00:00:00 | 00:00:00 | |
| SP3BTT-10 | 2026-09-02 08:15:57 | 52.04631 | 16.22393 | 55° | 13km/h | 275m | -1.4m/s | 16.6°C | 76.1% | 991.2hPa | 2.7V | 00:00:00 | 00:00:00 | 00:00:00 | |
| SP3BTT-10 | 2026-09-02 08:15:55 | 52.04626 | 16.22385 | 52° | 13km/h | 279m | -1.4m/s | 16.5°C | 75.5% | 991.0hPa | 2.7V | 00:00:00 | 00:00:00 | 08:30:00 | |
| SP3BTT-10 | 2026-09-02 08:15:53 | 52.04622 | 16.22377 | 43° | 15km/h | 280m | -0.8m/s | 16.5°C | 75.8% | 990.8hPa | 2.7V | 00:00:00 | 00:00:00 | 00:00:00 | |
| SP3BTT-10 | 2026-09-02 08:15:51 | 52.04618 | 16.22369 | 52° | 15km/h | 282m | -0.5m/s | 16.5°C | 75.7% | 990.2hPa | 2.7V | 00:00:00 | 00:00:00 | 00:00:00 | |
| SP3BTT-10 | 2026-09-02 08:15:49 | 52.04613 | 16.22360 | 55° | 15km/h | 283m | -0.6m/s | 16.5°C | 76.0% | 990.5hPa | 2.7V | 00:00:00 | 00:00:00 | 00:00:00 | |
| SP3BTT-10 | 2026-09-02 08:15:47 | 52.04609 | 16.22350 | 59° | 15km/h | 285m | -0.6m/s | 16.5°C | 76.4% | 990.2hPa | 2.9V | 00:00:00 | 00:00:00 | 00:00:00 | |
| SP3BTT-10 | 2026-09-02 08:15:45 | 52.04606 | 16.22340 | 64° | 15km/h | 286m | -1.1m/s | 16.5°C | 76.2% | 990.2hPa | 2.9V | 00:00:00 | 00:00:00 | 00:00:00 | |
| SP3BTT-10 | 2026-09-02 08:15:43 | 52.04602 | 16.22329 | 65° | 15km/h | 288m | -1.0m/s | 16.5°C | 76.3% | 989.9hPa | 2.9V | 00:00:00 | 00:00:00 | 00:00:00 | |
| SP3BTT-10 | 2026-09-02 08:15:41 | 52.04599 | 16.22318 | 65° | 15km/h | 290m | -1.3m/s | 16.5°C | 75.9% | 989.6hPa | 2.7V | 00:00:00 | 00:00:00 | 00:00:00 | |
| SP3BTT-10 | 2026-09-02 08:15:39 | 52.04595 | 16.22307 | 66° | 13km/h | 293m | -1.4m/s | 16.5°C | 76.3% | 989.3hPa | 2.7V | 00:00:00 | 00:00:00 | 00:00:00 | |
| SP3BTT-10 | 2026-09-02 08:15:37 | 52.04592 | 16.22297 | 62° | 13km/h | 296m | -1.5m/s | 16.5°C | 76.6% | 989.0hPa | 2.7V | 00:00:00 | 00:00:00 | 08:30:00 | |
| SP3BTT-10 | 2026-09-02 08:15:33 | 52.04584 | 16.22280 | 39° | 15km/h | 303m | -1.3m/s | 16.4°C | 76.3% | 988.4hPa | 2.7V | 00:00:00 | 00:00:00 | 00:00:00 | |
| SP3BTT-10 | 2026-09-02 08:15:27 | 52.04567 | 16.22258 | 27° | 11km/h | 311m | -1.0m/s | 16.3°C | 76.8% | 987.2hPa | 2.7V | 00:00:00 | 00:00:00 | 00:00:00 | |
| SP3BTT-10 | 2026-09-02 08:15:21 | 52.04552 | 16.22243 | 45° | 11km/h | 316m | -0.8m/s | 16.3°C | 78.0% | 986.6hPa | 2.7V | 00:00:00 | 00:00:00 | 00:00:00 | |
| SP3BTT-10 | 2026-09-02 08:15:15 | 52.04540 | 16.22222 | 46° | 15km/h | 322m | -0.8m/s | 16.2°C | 77.7% | 985.7hPa | 2.7V | 00:00:00 | 00:00:00 | 00:00:00 | |
| SP3BTT-10 | 2026-09-02 08:15:09 | 52.04522 | 16.22201 | 44° | 18km/h | 327m | -0.6m/s | 16.2°C | 78.4% | 985.3hPa | 2.7V | 00:00:00 | 00:00:00 | 00:00:00 | |
| SP3BTT-10 | 2026-09-02 08:14:57 | 52.04490 | 16.22118 | 66° | 15km/h | 340m | -0.4m/s | 16.1°C | 78.9% | 983.9hPa | 2.7V | 00:00:00 | 00:00:00 | 00:00:00 | |
| SP3BTT-10 | 2026-09-02 08:14:44 | 52.04475 | 16.22049 | 80° | 13km/h | 345m | -0.8m/s | 16.0°C | 79.3% | 983.2hPa | 2.7V | 00:00:00 | 00:00:00 | 00:00:00 | |
| SP3BTT-10 | 2026-09-02 08:14:38 | 52.04467 | 16.22019 | 68° | 16km/h | 352m | -1.3m/s | 16.0°C | 79.6% | 982.6hPa | 2.7V | 00:00:00 | 00:00:00 | 08:30:00 | |
| SP3BTT-10 | 2026-09-02 08:14:32 | 52.04460 | 16.21980 | 68° | 16km/h | 361m | -1.1m/s | 15.9°C | 80.1% | 981.6hPa | 2.7V | 00:00:00 | 00:00:00 | 00:00:00 | |
| SP3BTT-10 | 2026-09-02 08:14:26 | 52.04447 | 16.21945 | 70° | 16km/h | 368m | -1.4m/s | 15.9°C | 80.3% | 980.7hPa | 2.7V | 00:00:00 | 00:00:00 | 00:00:00 | |
| SP3BTT-10 | 2026-09-02 08:14:20 | 52.04438 | 16.21910 | 53° | 16km/h | 375m | -0.6m/s | 15.7°C | 80.1% | 979.9hPa | 2.7V | 00:00:00 | 00:00:00 | 00:00:00 | |
| SP3BTT-10 | 2026-09-02 08:14:14 | 52.04426 | 16.21874 | 71° | 15km/h | 380m | -0.7m/s | 15.8°C | 80.7% | 979.2hPa | 2.7V | 00:00:00 | 00:00:00 | 00:00:00 | |
| SP3BTT-10 | 2026-09-02 08:14:08 | 52.04415 | 16.21842 | 54° | 18km/h | 385m | -0.8m/s | 15.7°C | 80.8% | 978.4hPa | 2.7V | 00:00:00 | 00:00:00 | 00:00:00 | |
| SP3BTT-10 | 2026-09-02 08:14:02 | 52.04404 | 16.21804 | 73° | 11km/h | 391m | -1.3m/s | 15.6°C | 81.4% | 977.9hPa | 2.7V | 00:00:00 | 00:00:00 | 00:00:00 | |
| SP3BTT-10 | 2026-09-02 08:13:56 | 52.04397 | 16.21780 | 60° | 15km/h | 398m | -1.1m/s | 15.5°C | 80.8% | 976.9hPa | 2.7V | 00:00:00 | 00:00:00 | 00:00:00 | |
| SP3BTT-10 | 2026-09-02 08:13:50 | 52.04388 | 16.21746 | 80° | 11km/h | 405m | -0.9m/s | 15.5°C | 81.8% | 976.2hPa | 2.7V | 00:00:00 | 00:00:00 | 00:00:00 | |
| SP3BTT-10 | 2026-09-02 08:13:44 | 52.04380 | 16.21722 | 48° | 18km/h | 413m | -1.2m/s | 15.2°C | 80.2% | 975.4hPa | 2.7V | 00:00:00 | 00:00:00 | 08:30:00 | |
| SP3BTT-10 | 2026-09-02 08:13:38 | 52.04367 | 16.21681 | 74° | 13km/h | 420m | -1.5m/s | 15.2°C | 80.5% | 974.7hPa | 2.7V | 00:00:00 | 00:00:00 | 00:00:00 | |
| SP3BTT-10 | 2026-09-02 08:13:32 | 52.04357 | 16.21653 | 46° | 16km/h | 428m | -1.0m/s | 15.1°C | 79.0% | 973.7hPa | 2.7V | 00:00:00 | 00:00:00 | 00:00:00 | |
| SP3BTT-10 | 2026-09-02 08:13:26 | 52.04341 | 16.21620 | 65° | 15km/h | 435m | -0.9m/s | 15.0°C | 81.9% | 972.9hPa | 2.7V | 00:00:00 | 00:00:00 | 00:00:00 | |
| SP3BTT-10 | 2026-09-02 08:13:20 | 52.04330 | 16.21590 | 49° | 16km/h | 440m | -1.0m/s | 14.9°C | 82.2% | 972.4hPa | 2.7V | 00:00:00 | 00:00:00 | 00:00:00 | |
| SP3BTT-10 | 2026-09-02 08:13:14 | 52.04316 | 16.21557 | 64° | 11km/h | 447m | -0.7m/s | 14.9°C | 82.4% | 971.4hPa | 2.7V | 00:00:00 | 00:00:00 | 00:00:00 | |
| SP3BTT-10 | 2026-09-02 08:13:08 | 52.04305 | 16.21534 | 44° | 18km/h | 454m | -0.7m/s | 14.8°C | 83.2% | 970.9hPa | 2.7V | 00:00:00 | 00:00:00 | 00:00:00 | |
| SP3BTT-10 | 2026-09-02 08:13:02 | 52.04291 | 16.21495 | 76° | 13km/h | 458m | -0.5m/s | 14.8°C | 81.2% | 970.7hPa | 2.7V | 00:00:00 | 00:00:00 | 00:00:00 | |
| SP3BTT-10 | 2026-09-02 08:12:56 | 52.04282 | 16.21465 | 52° | 16km/h | 462m | -0.7m/s | 14.8°C | 81.4% | 970.0hPa | 2.7V | 00:00:00 | 00:00:00 | 00:00:00 | |
| SP3BTT-10 | 2026-09-02 08:12:50 | 52.04270 | 16.21430 | 73° | 13km/h | 466m | -0.4m/s | 14.7°C | 83.1% | 969.5hPa | 2.7V | 00:00:00 | 00:00:00 | 08:30:00 | |
| SP3BTT-10 | 2026-09-02 08:12:44 | 52.04257 | 16.21403 | 53° | 18km/h | 471m | -0.6m/s | 14.6°C | 83.1% | 969.0hPa | 2.7V | 00:00:00 | 00:00:00 | 00:00:00 | |
| SP3BTT-10 | 2026-09-02 08:12:38 | 52.04247 | 16.21361 | 84° | 13km/h | 476m | -1.1m/s | 14.6°C | 83.4% | 968.2hPa | 2.7V | 00:00:00 | 00:00:00 | 00:00:00 | |
| SP3BTT-10 | 2026-09-02 08:12:32 | 52.04239 | 16.21333 | 55° | 18km/h | 482m | -1.1m/s | 14.5°C | 83.6% | 967.5hPa | 2.7V | 00:00:00 | 00:00:00 | 00:00:00 | |
| SP3BTT-10 | 2026-09-02 08:12:26 | 52.04230 | 16.21293 | 85° | 11km/h | 489m | -1.1m/s | 14.5°C | 82.9% | 967.0hPa | 2.7V | 00:00:00 | 00:00:00 | 00:00:00 | |
| SP3BTT-10 | 2026-09-02 08:12:20 | 52.04221 | 16.21269 | 49° | 16km/h | 495m | -1.0m/s | 14.5°C | 82.8% | 966.0hPa | 2.7V | 00:00:00 | 00:00:00 | 00:00:00 | |
| SP3BTT-10 | 2026-09-02 08:12:14 | 52.04212 | 16.21233 | 83° | 15km/h | 501m | -1.4m/s | 14.4°C | 83.5% | 965.5hPa | 2.7V | 00:00:00 | 00:00:00 | 00:00:00 | |
| SP3BTT-10 | 2026-09-02 08:12:08 | 52.04203 | 16.21202 | 55° | 16km/h | 510m | -1.2m/s | 14.3°C | 82.8% | 964.5hPa | 2.7V | 00:00:00 | 00:00:00 | 00:00:00 | |
| SP3BTT-10 | 2026-09-02 08:12:02 | 52.04194 | 16.21163 | 78° | 15km/h | 518m | -1.6m/s | 14.3°C | 83.3% | 963.4hPa | 2.7V | 00:00:00 | 00:00:00 | 00:00:00 | |
| SP3BTT-10 | 2026-09-02 08:11:56 | 52.04184 | 16.21130 | 63° | 18km/h | 528m | -1.9m/s | 14.1°C | 84.2% | 962.3hPa | 2.7V | 00:00:00 | 00:00:00 | 08:30:00 | |
| SP3BTT-10 | 2026-09-02 08:11:50 | 52.04177 | 16.21088 | 81° | 16km/h | 539m | -1.5m/s | 14.0°C | 84.5% | 961.2hPa | 2.7V | 00:00:00 | 00:00:00 | 00:00:00 | |
| SP3BTT-10 | 2026-09-02 08:11:44 | 52.04166 | 16.21052 | 62° | 18km/h | 550m | -1.8m/s | 13.9°C | 85.7% | 960.0hPa | 2.7V | 00:00:00 | 00:00:00 | 00:00:00 | |
| SP3BTT-10 | 2026-09-02 08:11:38 | 52.04154 | 16.21012 | 63° | 18km/h | 560m | -1.3m/s | 13.8°C | 84.9% | 958.8hPa | 2.7V | 00:00:00 | 00:00:00 | 00:00:00 | |
| SP3BTT-10 | 2026-09-02 08:11:26 | 52.04133 | 16.20934 | 60° | 18km/h | 573m | -1.2m/s | 13.7°C | 86.3% | 957.2hPa | 2.7V | 00:00:00 | 00:00:00 | 00:00:00 | |
| SP3BTT-10 | 2026-09-02 08:11:20 | 52.04124 | 16.20894 | 82° | 15km/h | 580m | -1.3m/s | 13.7°C | 86.0% | 956.5hPa | 2.7V | 00:00:00 | 00:00:00 | 00:00:00 | |
| SP3BTT-10 | 2026-09-02 08:11:14 | 52.04114 | 16.20862 | 54° | 18km/h | 587m | -1.1m/s | 13.6°C | 86.6% | 955.4hPa | 2.7V | 00:00:00 | 00:00:00 | 00:00:00 | |
| SP3BTT-10 | 2026-09-02 08:11:02 | 52.04095 | 16.20787 | 69° | 20km/h | 598m | -0.9m/s | 13.4°C | 87.4% | 954.0hPa | 2.7V | 00:00:00 | 00:00:00 | 08:30:00 | |
| SP3BTT-10 | 2026-09-02 08:10:56 | 52.04085 | 16.20739 | 64° | 20km/h | 604m | -1.0m/s | 13.3°C | 88.1% | 953.6hPa | 2.7V | 00:00:00 | 00:00:00 | 00:00:00 | |
| SP3BTT-10 | 2026-09-02 08:10:50 | 52.04070 | 16.20697 | 62° | 22km/h | 611m | -1.2m/s | 13.2°C | 90.5% | 952.9hPa | 2.7V | 00:00:00 | 00:00:00 | 00:00:00 | |
| SP3BTT-10 | 2026-09-02 08:10:44 | 52.04061 | 16.20645 | 80° | 22km/h | 618m | -1.6m/s | 13.1°C | 91.2% | 952.1hPa | 2.7V | 00:00:00 | 00:00:00 | 00:00:00 | |
| SP3BTT-10 | 2026-09-02 08:10:38 | 52.04055 | 16.20594 | 86° | 18km/h | 629m | -1.2m/s | 13.1°C | 89.7% | 950.9hPa | 2.7V | 00:00:00 | 00:00:00 | 00:00:00 | |
| SP3BTT-10 | 2026-09-02 08:10:32 | 52.04055 | 16.20550 | 80° | 20km/h | 637m | -1.8m/s | 13.1°C | 88.1% | 950.1hPa | 2.7V | 00:00:00 | 00:00:00 | 00:00:00 | |
| SP3BTT-10 | 2026-09-02 08:10:26 | 52.04051 | 16.20499 | 97° | 18km/h | 647m | -1.3m/s | 12.9°C | 90.6% | 949.0hPa | 2.7V | 00:00:00 | 00:00:00 | 00:00:00 | |
| SP3BTT-10 | 2026-09-02 08:10:20 | 52.04054 | 16.20454 | 88° | 20km/h | 657m | -1.7m/s | 12.8°C | 91.8% | 947.8hPa | 2.7V | 00:00:00 | 00:00:00 | 00:00:00 | |
| SP3BTT-10 | 2026-09-02 08:10:14 | 52.04048 | 16.20404 | 83° | 22km/h | 669m | -1.6m/s | 12.8°C | 90.3% | 946.4hPa | 2.7V | 00:00:00 | 00:00:00 | 00:00:00 | |
| SP3BTT-10 | 2026-09-02 08:10:08 | 52.04050 | 16.20350 | 103° | 18km/h | 679m | -1.6m/s | 12.7°C | 89.1% | 945.2hPa | 2.7V | 00:00:00 | 00:00:00 | 08:30:00 | |
| SP3BTT-10 | 2026-09-02 08:09:56 | 52.04058 | 16.20254 | 103° | 18km/h | 697m | -1.5m/s | 12.7°C | 87.8% | 943.1hPa | 2.7V | 00:00:00 | 00:00:00 | 00:00:00 | |
| SP3BTT-10 | 2026-09-02 08:09:50 | 52.04058 | 16.20208 | 93° | 24km/h | 707m | -1.2m/s | 12.6°C | 88.2% | 942.0hPa | 2.7V | 00:00:00 | 00:00:00 | 00:00:00 | |
| SP3BTT-10 | 2026-09-02 08:09:44 | 52.04063 | 16.20152 | 103° | 20km/h | 715m | -1.5m/s | 12.5°C | 88.8% | 941.1hPa | 2.7V | 00:00:00 | 00:00:00 | 00:00:00 | |
| SP3BTT-10 | 2026-09-02 08:09:38 | 52.04062 | 16.20103 | 85° | 26km/h | 725m | -1.7m/s | 12.5°C | 88.9% | 940.0hPa | 2.7V | 00:00:00 | 00:00:00 | 00:00:00 | |
| SP3BTT-10 | 2026-09-02 08:09:32 | 52.04067 | 16.20044 | 110° | 22km/h | 734m | -1.8m/s | 12.4°C | 88.0% | 939.1hPa | 2.7V | 00:00:00 | 00:00:00 | 00:00:00 | |
| SP3BTT-10 | 2026-09-02 08:09:26 | 52.04073 | 16.19992 | 93° | 27km/h | 744m | -1.6m/s | 12.2°C | 90.3% | 938.0hPa | 2.7V | 00:00:00 | 00:00:00 | 00:00:00 | |
| SP3BTT-10 | 2026-09-02 08:09:20 | 52.04080 | 16.19928 | 113° | 24km/h | 753m | -1.3m/s | 12.3°C | 87.4% | 936.7hPa | 2.7V | 00:00:00 | 00:00:00 | 00:00:00 | |
| SP3BTT-10 | 2026-09-02 08:09:14 | 52.04090 | 16.19872 | 98° | 27km/h | 763m | -1.2m/s | 12.1°C | 85.7% | 935.7hPa | 2.7V | 00:00:00 | 00:00:00 | 08:30:00 | |
| SP3BTT-10 | 2026-09-02 08:09:08 | 52.04099 | 16.19808 | 109° | 22km/h | 772m | -1.6m/s | 11.9°C | 91.3% | 934.6hPa | 2.7V | 00:00:00 | 00:00:00 | 00:00:00 | |
| SP3BTT-10 | 2026-09-02 08:09:02 | 52.04106 | 16.19754 | 97° | 27km/h | 783m | -1.7m/s | 12.1°C | 84.4% | 933.7hPa | 2.7V | 00:00:00 | 00:00:00 | 00:00:00 | |
| SP3BTT-10 | 2026-09-02 08:08:56 | 52.04116 | 16.19688 | 108° | 26km/h | 793m | -1.7m/s | 12.1°C | 81.1% | 932.4hPa | 2.7V | 00:00:00 | 00:00:00 | 00:00:00 | |
| SP3BTT-10 | 2026-09-02 08:08:50 | 52.04122 | 16.19627 | 99° | 27km/h | 803m | -1.2m/s | 11.9°C | 85.6% | 931.3hPa | 2.7V | 00:00:00 | 00:00:00 | 00:00:00 | |
| SP3BTT-10 | 2026-09-02 08:08:44 | 52.04133 | 16.19563 | 108° | 24km/h | 812m | -1.6m/s | 12.1°C | 79.2% | 930.4hPa | 2.7V | 00:00:00 | 00:00:00 | 00:00:00 | |
| SP3BTT-10 | 2026-09-02 08:08:38 | 52.04138 | 16.19503 | 100° | 27km/h | 823m | -1.7m/s | 12.0°C | 80.3% | 929.1hPa | 2.7V | 00:00:00 | 00:00:00 | 00:00:00 | |
| SP3BTT-10 | 2026-09-02 08:08:32 | 52.04150 | 16.19438 | 101° | 27km/h | 834m | -1.6m/s | 11.9°C | 79.8% | 927.8hPa | 2.7V | 00:00:00 | 00:00:00 | 00:00:00 | |
| SP3BTT-10 | 2026-09-02 08:08:26 | 52.04156 | 16.19370 | 106° | 27km/h | 845m | -1.6m/s | 11.8°C | 80.3% | 926.7hPa | 2.7V | 00:00:00 | 00:00:00 | 00:00:00 | |
| SP3BTT-10 | 2026-09-02 08:08:14 | 52.04171 | 16.19232 | 106° | 27km/h | 870m | -2.1m/s | 11.7°C | 78.1% | 924.0hPa | 2.7V | 00:00:00 | 00:00:00 | 00:00:00 | |
| SP3BTT-10 | 2026-09-02 08:08:08 | 52.04182 | 16.19167 | 95° | 31km/h | 882m | -2.1m/s | 11.5°C | 81.2% | 922.6hPa | 2.7V | 00:00:00 | 00:00:00 | 00:00:00 | |
| SP3BTT-10 | 2026-09-02 08:08:02 | 52.04188 | 16.19092 | 107° | 29km/h | 894m | -1.8m/s | 11.4°C | 81.1% | 921.3hPa | 2.7V | 00:00:00 | 00:00:00 | 00:00:00 | |
| SP3BTT-10 | 2026-09-02 08:07:56 | 52.04199 | 16.19024 | 95° | 31km/h | 906m | -1.9m/s | 11.3°C | 82.0% | 919.9hPa | 2.7V | 00:00:00 | 00:00:00 | 00:00:00 | |
| SP3BTT-10 | 2026-09-02 08:07:50 | 52.04205 | 16.18948 | 106° | 29km/h | 917m | -1.7m/s | 11.1°C | 84.4% | 918.7hPa | 2.7V | 00:00:00 | 00:00:00 | 00:00:00 | |
| SP3BTT-10 | 2026-09-02 08:07:44 | 52.04212 | 16.18879 | 93° | 33km/h | 928m | -1.6m/s | 11.0°C | 85.8% | 917.6hPa | 2.7V | 00:00:00 | 00:00:00 | 00:00:00 | |
| SP3BTT-10 | 2026-09-02 08:07:38 | 52.04220 | 16.18799 | 109° | 29km/h | 938m | -1.6m/s | 10.9°C | 85.6% | 916.5hPa | 2.7V | 00:00:00 | 00:00:00 | 00:00:00 | |
| SP3BTT-10 | 2026-09-02 08:07:32 | 52.04227 | 16.18726 | 96° | 35km/h | 948m | -1.6m/s | 10.8°C | 86.0% | 915.3hPa | 2.7V | 00:00:00 | 00:00:00 | 00:00:00 | |
| SP3BTT-10 | 2026-09-02 08:07:26 | 52.04238 | 16.18643 | 108° | 29km/h | 958m | -1.6m/s | 10.7°C | 85.8% | 914.4hPa | 2.7V | 00:00:00 | 00:00:00 | 08:30:00 | |
| SP3BTT-10 | 2026-09-02 08:07:20 | 52.04246 | 16.18572 | 95° | 35km/h | 967m | -1.3m/s | 11.1°C | 75.7% | 913.2hPa | 2.7V | 00:00:00 | 00:00:00 | 00:00:00 | |
| SP3BTT-10 | 2026-09-02 08:07:14 | 52.04258 | 16.18489 | 110° | 31km/h | 977m | -1.7m/s | 11.0°C | 76.4% | 912.4hPa | 2.7V | 00:00:00 | 00:00:00 | 00:00:00 | |
| SP3BTT-10 | 2026-09-02 08:07:08 | 52.04266 | 16.18414 | 95° | 35km/h | 986m | -1.5m/s | 11.0°C | 76.9% | 911.1hPa | 2.7V | 00:00:00 | 00:00:00 | 00:00:00 | |
| SP3BTT-10 | 2026-09-02 08:07:02 | 52.04278 | 16.18330 | 110° | 29km/h | 996m | -1.2m/s | 10.9°C | 79.5% | 910.1hPa | 2.7V | 00:00:00 | 00:00:00 | 00:00:00 | |
| SP3BTT-10 | 2026-09-02 08:06:56 | 52.04285 | 16.18257 | 94° | 35km/h | 1005m | -1.3m/s | 10.8°C | 82.0% | 909.0hPa | 2.7V | 00:00:00 | 00:00:00 | 00:00:00 | |
| SP3BTT-10 | 2026-09-02 08:06:50 | 52.04295 | 16.18174 | 105° | 29km/h | 1014m | -1.3m/s | 10.7°C | 82.5% | 908.1hPa | 2.7V | 00:00:00 | 00:00:00 | 00:00:00 | |
| SP3BTT-10 | 2026-09-02 08:06:44 | 52.04300 | 16.18100 | 93° | 35km/h | 1023m | -1.5m/s | 10.7°C | 81.8% | 907.2hPa | 2.7V | 00:00:00 | 00:00:00 | 00:00:00 | |
| SP3BTT-10 | 2026-09-02 08:06:38 | 52.04310 | 16.18016 | 106° | 31km/h | 1031m | -1.2m/s | 10.6°C | 81.5% | 906.2hPa | 2.7V | 00:00:00 | 00:00:00 | 00:00:00 | |
| SP3BTT-10 | 2026-09-02 08:06:32 | 52.04315 | 16.17941 | 94° | 35km/h | 1040m | -1.3m/s | 10.5°C | 81.2% | 905.4hPa | 2.7V | 00:00:00 | 00:00:00 | 08:30:00 | |
| SP3BTT-10 | 2026-09-02 08:06:26 | 52.04326 | 16.17856 | 105° | 31km/h | 1049m | -1.3m/s | 10.5°C | 81.1% | 904.3hPa | 2.7V | 00:00:00 | 00:00:00 | 00:00:00 | |
| SP3BTT-10 | 2026-09-02 08:06:20 | 52.04332 | 16.17782 | 92° | 37km/h | 1057m | -1.5m/s | 10.4°C | 81.1% | 903.4hPa | 2.7V | 00:00:00 | 00:00:00 | 00:00:00 | |
| SP3BTT-10 | 2026-09-02 08:06:14 | 52.04341 | 16.17695 | 105° | 31km/h | 1064m | -1.2m/s | 10.4°C | 81.7% | 902.6hPa | 2.7V | 00:00:00 | 00:00:00 | 00:00:00 | |
| SP6BVK | 2026-09-02 08:06:12 | 52.04343 | 16.17683 | 103° | 29km/h | 1066m | -1.5m/s | 10.4°C | 82.0% | 902.4hPa | 2.7V | 00:00:00 | 00:00:00 | 00:00:00 | |
| SP3BTT-10 | 2026-09-02 08:06:08 | 52.04346 | 16.17619 | 93° | 35km/h | 1074m | -1.5m/s | 10.3°C | 80.7% | 901.8hPa | 2.7V | 00:00:00 | 00:00:00 | 00:00:00 | |
| SP3BTT-10 | 2026-09-02 08:05:56 | 52.04358 | 16.17456 | 94° | 35km/h | 1091m | -1.3m/s | 10.2°C | 81.1% | 899.8hPa | 2.7V | 00:00:00 | 00:00:00 | 00:00:00 | |
| SP3BTT-10 | 2026-09-02 08:05:50 | 52.04367 | 16.17373 | 97° | 33km/h | 1099m | -1.2m/s | 10.1°C | 81.4% | 899.0hPa | 2.7V | 00:00:00 | 00:00:00 | 00:00:00 | |
| SP3BTT-10 | 2026-09-02 08:05:36 | 52.04377 | 16.17185 | 91° | 35km/h | 1117m | -1.3m/s | 10.1°C | 80.6% | 897.0hPa | 2.7V | 00:00:00 | 00:00:00 | 00:00:00 | |
| SP3BTT-10 | 2026-09-02 08:05:16 | 52.04394 | 16.16908 | 89° | 35km/h | 1142m | -1.1m/s | 9.8°C | 83.7% | 894.3hPa | 2.7V | 00:00:00 | 00:00:00 | 08:30:00 | |
| SP3BTT-10 | 2026-09-02 08:04:56 | 52.04410 | 16.16628 | 94° | 35km/h | 1166m | -1.0m/s | 9.6°C | 84.8% | 891.5hPa | 2.7V | 00:00:00 | 00:00:00 | 00:00:00 | |
| SP3BTT-10 | 2026-09-02 08:04:36 | 52.04428 | 16.16348 | 104° | 35km/h | 1190m | -1.1m/s | 9.4°C | 84.0% | 888.9hPa | 2.7V | 00:00:00 | 00:00:00 | 00:00:00 | |
| SP3BTT-10 | 2026-09-02 08:04:16 | 52.04440 | 16.16064 | 98° | 37km/h | 1216m | -0.8m/s | 9.3°C | 82.7% | 886.5hPa | 2.7V | 00:00:00 | 00:00:00 | 00:00:00 | |
| SP3BTT-10 | 2026-09-02 08:03:56 | 52.04459 | 16.15768 | 90° | 37km/h | 1238m | -1.1m/s | 9.1°C | 82.9% | 884.1hPa | 2.7V | 00:00:00 | 00:00:00 | 00:00:00 | |
| SP3BTT-10 | 2026-09-02 08:03:36 | 52.04481 | 16.15470 | 93° | 37km/h | 1261m | -1.3m/s | 9.1°C | 76.4% | 881.6hPa | 2.7V | 00:00:00 | 00:00:00 | 00:00:00 | |
| SP3BTT-10 | 2026-09-02 08:03:16 | 52.04500 | 16.15175 | 102° | 35km/h | 1283m | -1.3m/s | 9.1°C | 74.6% | 879.3hPa | 2.7V | 00:00:00 | 00:00:00 | 00:00:00 | |
| SP3BTT-10 | 2026-09-02 08:02:56 | 52.04517 | 16.14887 | 97° | 35km/h | 1305m | -1.2m/s | 8.9°C | 74.4% | 877.1hPa | 2.7V | 00:00:00 | 00:00:00 | 00:00:00 | |
| SP6BVK | 2026-09-02 08:02:52 | 52.04521 | 16.14842 | 103° | 35km/h | 1309m | -0.8m/s | 9.0°C | 74.4% | 876.7hPa | 2.7V | 00:00:00 | 00:00:00 | 00:00:00 | |
| SP3BTT-10 | 2026-09-02 08:02:36 | 52.04536 | 16.14606 | 89° | 33km/h | 1326m | -0.9m/s | 9.0°C | 65.4% | 874.7hPa | 2.7V | 00:00:00 | 00:00:00 | 00:00:00 | |
| SP6BVK | 2026-09-02 08:02:31 | 52.04536 | 16.14547 | 100° | 37km/h | 1330m | -1.0m/s | 9.1°C | 65.4% | 874.5hPa | 2.7V | 00:00:00 | 00:00:00 | 00:00:00 | |
| SP3BTT-10 | 2026-09-02 08:02:16 | 52.04559 | 16.14336 | 100° | 35km/h | 1346m | -1.0m/s | 9.0°C | 64.9% | 872.7hPa | 2.7V | 00:00:00 | 00:00:00 | 08:30:00 | |
| SP3BTT-10 | 2026-09-02 08:01:56 | 52.04606 | 16.14068 | 109° | 35km/h | 1365m | -0.5m/s | 9.0°C | 63.8% | 870.8hPa | 2.7V | 00:00:00 | 00:00:00 | 00:00:00 | |
| SP6BVK | 2026-09-02 08:01:54 | 52.04608 | 16.14054 | 114° | 33km/h | 1366m | -0.7m/s | 9.0°C | 64.1% | 870.6hPa | 2.7V | 00:00:00 | 00:00:00 | 00:00:00 | |
| SP3BTT-10 | 2026-09-02 08:01:36 | 52.04655 | 16.13801 | 106° | 35km/h | 1382m | -0.5m/s | 9.6°C | 42.7% | 868.8hPa | 2.7V | 00:00:00 | 00:00:00 | 00:00:00 | |
| SP3BTT-10 | 2026-09-02 08:01:16 | 52.04707 | 16.13535 | 103° | 35km/h | 1401m | -0.7m/s | 10.0°C | 49.1% | 867.0hPa | 2.7V | 00:00:00 | 00:00:00 | 00:00:00 | |
| SP3BTT-10 | 2026-09-02 08:00:56 | 52.04767 | 16.13267 | 106° | 35km/h | 1420m | -1.1m/s | 9.9°C | 49.3% | 864.9hPa | 2.7V | 00:00:00 | 00:00:00 | 00:00:00 | |
| SP6BVK | 2026-09-02 08:00:41 | 52.04809 | 16.13080 | 107° | 37km/h | 1435m | -1.2m/s | 9.8°C | 50.0% | 863.5hPa | 2.7V | 00:00:00 | 00:00:00 | 00:00:00 | |
| SP3BTT-10 | 2026-09-02 08:00:36 | 52.04832 | 16.12996 | 120° | 33km/h | 1443m | -1.2m/s | 9.7°C | 50.0% | 862.6hPa | 2.7V | 00:00:00 | 00:00:00 | 00:00:00 | |
| SP3BTT-10 | 2026-09-02 08:00:16 | 52.04895 | 16.12750 | 115° | 31km/h | 1468m | -1.3m/s | 9.5°C | 50.5% | 859.9hPa | 2.7V | 00:00:00 | 00:00:00 | 00:00:00 | |
| SP6BVK | 2026-09-02 08:00:14 | 52.04899 | 16.12738 | 120° | 35km/h | 1469m | -1.2m/s | 9.5°C | 50.7% | 859.9hPa | 2.7V | 00:00:00 | 00:00:00 | 00:00:00 | |
| SP3BTT-10 | 2026-09-02 07:59:56 | 52.04960 | 16.12518 | 107° | 31km/h | 1492m | -1.4m/s | 9.4°C | 48.8% | 857.4hPa | 2.7V | 00:00:00 | 00:00:00 | 00:00:00 | |
| SP3BTT-10 | 2026-09-02 07:59:36 | 52.05030 | 16.12283 | 107° | 31km/h | 1520m | -1.3m/s | 9.4°C | 49.2% | 854.4hPa | 2.7V | 00:00:00 | 00:00:00 | 00:00:00 | |
| SP6BVK | 2026-09-02 07:59:33 | 52.05034 | 16.12258 | 108° | 35km/h | 1522m | -1.5m/s | 9.4°C | 49.4% | 854.2hPa | 2.7V | 00:00:00 | 00:00:00 | 00:00:00 | |
| SP3WXH-11 | 2026-09-02 07:59:32 | 52.05041 | 16.12231 | 115° | 35km/h | 1525m | -1.3m/s | 9.4°C | 49.3% | 854.0hPa | 2.7V | 00:00:00 | 00:00:00 | 00:00:00 | |
| SP3BTT-10 | 2026-09-02 07:59:16 | 52.05096 | 16.12047 | 113° | 31km/h | 1548m | -1.5m/s | 9.2°C | 48.4% | 851.6hPa | 2.7V | 00:00:00 | 00:00:00 | 08:30:00 | |
| SP6BVK | 2026-09-02 07:59:12 | 52.05103 | 16.12014 | 106° | 31km/h | 1552m | -1.6m/s | 9.2°C | 48.7% | 851.2hPa | 2.7V | 00:00:00 | 00:00:00 | 00:00:00 | |
| SP3WXH-11 | 2026-09-02 07:59:01 | 52.05139 | 16.11873 | 106° | 33km/h | 1569m | -1.0m/s | 9.1°C | 49.5% | 849.7hPa | 2.7V | 00:00:00 | 00:00:00 | 00:00:00 | |
| SP3BTT-10 | 2026-09-02 07:58:56 | 52.05157 | 16.11812 | 125° | 29km/h | 1576m | -1.1m/s | 9.0°C | 49.8% | 848.9hPa | 2.7V | 00:00:00 | 00:00:00 | 00:00:00 | |
| SP6BVK | 2026-09-02 07:58:52 | 52.05167 | 16.11782 | 110° | 27km/h | 1579m | -1.4m/s | 9.0°C | 50.1% | 848.4hPa | 2.7V | 00:00:00 | 00:00:00 | 00:00:00 | |
| SP3BTT-10 | 2026-09-02 07:58:36 | 52.05213 | 16.11587 | 114° | 29km/h | 1602m | -1.3m/s | 8.8°C | 49.8% | 846.3hPa | 2.7V | 00:00:00 | 00:00:00 | 00:00:00 | |
| SP6BVK | 2026-09-02 07:58:31 | 52.05227 | 16.11543 | 115° | 26km/h | 1608m | -1.2m/s | 8.8°C | 49.8% | 845.6hPa | 2.7V | 00:00:00 | 00:00:00 | 00:00:00 | |
| SP3WXH-11 | 2026-09-02 07:58:30 | 52.05231 | 16.11523 | 106° | 26km/h | 1610m | -1.2m/s | 8.8°C | 49.9% | 845.3hPa | 2.7V | 00:00:00 | 00:00:00 | 00:00:00 | |
| SP3BTT-10 | 2026-09-02 07:58:16 | 52.05265 | 16.11360 | 106° | 29km/h | 1630m | -1.0m/s | 8.7°C | 49.3% | 843.5hPa | 2.7V | 00:00:00 | 00:00:00 | 00:00:00 | |
| SP6BVK | 2026-09-02 07:58:11 | 52.05277 | 16.11310 | 119° | 31km/h | 1635m | -1.2m/s | 8.7°C | 49.3% | 842.8hPa | 2.7V | 00:00:00 | 00:00:00 | 00:00:00 | |
| SP3WXH-11 | 2026-09-02 07:57:59 | 52.05314 | 16.11163 | 118° | 24km/h | 1652m | -1.1m/s | 8.6°C | 48.9% | 841.2hPa | 2.7V | 00:00:00 | 00:00:00 | 00:00:00 | |
| SP3BTT-10 | 2026-09-02 07:57:56 | 52.05319 | 16.11133 | 101° | 31km/h | 1656m | -1.4m/s | 8.6°C | 48.7% | 840.6hPa | 2.7V | 00:00:00 | 00:00:00 | 00:00:00 | |
| SP6BVK | 2026-09-02 07:57:50 | 52.05330 | 16.11069 | 114° | 33km/h | 1663m | -1.6m/s | 8.7°C | 48.3% | 839.9hPa | 2.7V | 00:00:00 | 00:00:00 | 00:00:00 | |
| KRY50SP-1 | 2026-09-02 07:57:46 | 52.05344 | 16.11027 | 119° | 24km/h | 1668m | -1.0m/s | 8.6°C | 47.9% | 839.5hPa | 2.7V | 00:00:00 | 00:00:00 | 00:00:00 | |
| KRY50SP-1 | 2026-09-02 07:57:41 | 52.05353 | 16.10972 | 109° | 33km/h | 1676m | -1.0m/s | 8.6°C | 46.8% | 838.7hPa | 2.7V | 00:00:00 | 00:00:00 | 00:00:00 | |
| SP3BTT-10 | 2026-09-02 07:57:36 | 52.05375 | 16.10904 | 119° | 29km/h | 1683m | -1.2m/s | 8.5°C | 46.1% | 837.9hPa | 2.7V | 00:00:00 | 00:00:00 | 00:00:00 | |
| SP6BVK | 2026-09-02 07:57:30 | 52.05385 | 16.10852 | 105° | 31km/h | 1690m | -1.5m/s | 8.5°C | 45.9% | 837.2hPa | 2.7V | 00:00:00 | 00:00:00 | 00:00:00 | |
| KRY50SP-1 | 2026-09-02 07:57:27 | 52.05394 | 16.10814 | 117° | 35km/h | 1694m | -1.3m/s | 8.5°C | 46.5% | 836.9hPa | 2.7V | 00:00:00 | 00:00:00 | 00:00:00 | |
| KRY50SP-1 | 2026-09-02 07:57:21 | 52.05414 | 16.10752 | 110° | 26km/h | 1703m | -1.1m/s | 8.5°C | 46.4% | 835.9hPa | 2.7V | 00:00:00 | 00:00:00 | 00:00:00 | |
| SP3BTT-10 | 2026-09-02 07:57:16 | 52.05429 | 16.10679 | 117° | 29km/h | 1711m | -1.5m/s | 8.4°C | 47.0% | 835.0hPa | 2.7V | 00:00:00 | 00:00:00 | 00:00:00 | |
| SP6BVK | 2026-09-02 07:57:09 | 52.05447 | 16.10618 | 102° | 26km/h | 1719m | -1.6m/s | 8.4°C | 46.9% | 834.2hPa | 2.7V | 00:00:00 | 00:00:00 | 00:00:00 | |
| KRY50SP-1 | 2026-09-02 07:57:08 | 52.05449 | 16.10606 | 103° | 29km/h | 1720m | -1.3m/s | 8.4°C | 46.7% | 834.3hPa | 2.7V | 00:00:00 | 00:00:00 | 00:00:00 | |
| KRY50SP-1 | 2026-09-02 07:57:03 | 52.05463 | 16.10544 | 119° | 31km/h | 1727m | -1.6m/s | 8.3°C | 46.6% | 833.5hPa | 2.7V | 00:00:00 | 00:00:00 | 00:00:00 | |
| SP3WXH-11 | 2026-09-02 07:56:57 | 52.05481 | 16.10471 | 101° | 31km/h | 1737m | -1.4m/s | 8.2°C | 45.6% | 832.5hPa | 2.7V | 00:00:00 | 00:00:00 | 00:00:00 | |
| SP3BTT-10 | 2026-09-02 07:56:56 | 52.05482 | 16.10458 | 103° | 29km/h | 1738m | -1.5m/s | 8.2°C | 45.4% | 832.3hPa | 2.7V | 00:00:00 | 00:00:00 | 00:00:00 | |
| SP6BVK | 2026-09-02 07:56:49 | 52.05502 | 16.10387 | 119° | 26km/h | 1747m | -1.4m/s | 8.2°C | 45.9% | 831.5hPa | 2.7V | 00:00:00 | 00:00:00 | 00:00:00 | |
| KRY50SP-1 | 2026-09-02 07:56:46 | 52.05509 | 16.10358 | 105° | 27km/h | 1751m | -1.3m/s | 8.1°C | 45.7% | 831.1hPa | 2.7V | 00:00:00 | 00:00:00 | 00:00:00 | |
| KRY50SP-1 | 2026-09-02 07:56:38 | 52.05532 | 16.10263 | 120° | 27km/h | 1762m | -1.5m/s | 8.1°C | 45.2% | 829.9hPa | 2.7V | 00:00:00 | 00:00:00 | 00:00:00 | |
| SP3BTT-10 | 2026-09-02 07:56:36 | 52.05540 | 16.10234 | 106° | 29km/h | 1766m | -1.4m/s | 8.0°C | 44.6% | 829.4hPa | 2.7V | 00:00:00 | 00:00:00 | 00:00:00 | |
| SP6BVK | 2026-09-02 07:56:28 | 52.05557 | 16.10147 | 121° | 31km/h | 1776m | -1.3m/s | 7.9°C | 45.7% | 828.6hPa | 2.7V | 00:00:00 | 00:00:00 | 00:00:00 | |
| SP3WXH-11 | 2026-09-02 07:56:26 | 52.05567 | 16.10117 | 117° | 24km/h | 1781m | -1.6m/s | 7.9°C | 46.7% | 828.2hPa | 2.7V | 00:00:00 | 00:00:00 | 00:00:00 | |
| SP3BTT-10 | 2026-09-02 07:56:16 | 52.05591 | 16.10006 | 121° | 27km/h | 1796m | -1.4m/s | 7.8°C | 43.3% | 826.6hPa | 2.7V | 00:00:00 | 00:00:00 | 08:30:00 | |
| KRY50SP-1 | 2026-09-02 07:56:11 | 52.05602 | 16.09969 | 106° | 26km/h | 1802m | -1.3m/s | 7.8°C | 43.2% | 826.1hPa | 2.7V | 00:00:00 | 00:00:00 | 00:00:00 | |
| SP6BVK | 2026-09-02 07:56:08 | 52.05607 | 16.09935 | 109° | 31km/h | 1806m | -1.6m/s | 7.8°C | 42.5% | 825.8hPa | 2.7V | 00:00:00 | 00:00:00 | 00:00:00 | |
| SP3WXH-11 | 2026-09-02 07:55:55 | 52.05643 | 16.09785 | 120° | 27km/h | 1824m | -1.4m/s | 7.7°C | 42.1% | 823.7hPa | 2.7V | 00:00:00 | 00:00:00 | 00:00:00 | |
| KRY50SP-1 | 2026-09-02 07:55:52 | 52.05650 | 16.09766 | 124° | 24km/h | 1827m | -1.4m/s | 7.7°C | 41.4% | 823.4hPa | 2.7V | 00:00:00 | 00:00:00 | 00:00:00 | |
| SP6BVK | 2026-09-02 07:55:47 | 52.05659 | 16.09719 | 103° | 29km/h | 1834m | -1.4m/s | 7.7°C | 41.1% | 822.7hPa | 2.7V | 00:00:00 | 00:00:00 | 00:00:00 | |
| KRY50SP-1 | 2026-09-02 07:55:37 | 52.05686 | 16.09614 | 104° | 24km/h | 1848m | -1.4m/s | 7.6°C | 40.2% | 821.4hPa | 2.7V | 00:00:00 | 00:00:00 | 00:00:00 | |
| SP3BTT-10 | 2026-09-02 07:55:36 | 52.05688 | 16.09593 | 100° | 27km/h | 1850m | -1.6m/s | 7.6°C | 40.2% | 821.0hPa | 2.7V | 00:00:00 | 00:00:00 | 00:00:00 | |
| KRY50SP-1 | 2026-09-02 07:55:28 | 52.05710 | 16.09517 | 123° | 24km/h | 1860m | -1.5m/s | 7.6°C | 40.3% | 820.0hPa | 2.7V | 00:00:00 | 00:00:00 | 00:00:00 | |
| SP6BVK | 2026-09-02 07:55:27 | 52.05713 | 16.09509 | 117° | 22km/h | 1861m | -1.6m/s | 7.6°C | 40.3% | 819.9hPa | 2.7V | 00:00:00 | 00:00:00 | 00:00:00 | |
| SP3WXH-11 | 2026-09-02 07:55:24 | 52.05721 | 16.09471 | 102° | 27km/h | 1867m | -1.7m/s | 7.5°C | 40.4% | 819.4hPa | 2.7V | 00:00:00 | 00:00:00 | 00:00:00 | |
| KRY50SP-1 | 2026-09-02 07:55:21 | 52.05729 | 16.09435 | 115° | 31km/h | 1871m | -1.7m/s | 7.5°C | 40.3% | 819.1hPa | 2.7V | 00:00:00 | 00:00:00 | 00:00:00 | |
| SP3BTT-10 | 2026-09-02 07:55:16 | 52.05747 | 16.09387 | 116° | 27km/h | 1879m | -1.7m/s | 7.4°C | 40.0% | 818.2hPa | 2.7V | 00:00:00 | 00:00:00 | 00:00:00 | |
| KRY50SP-1 | 2026-09-02 07:55:15 | 52.05746 | 16.09387 | 117° | 22km/h | 1879m | -1.8m/s | 7.4°C | 40.1% | 818.3hPa | 2.7V | 00:00:00 | 00:00:00 | 00:00:00 | |
| KRY50SP-1 | 2026-09-02 07:55:08 | 52.05766 | 16.09316 | 124° | 29km/h | 1889m | -1.2m/s | 7.3°C | 40.3% | 817.3hPa | 2.7V | 00:00:00 | 00:00:00 | 00:00:00 | |
| SP6BVK | 2026-09-02 07:55:06 | 52.05774 | 16.09297 | 125° | 27km/h | 1892m | -1.3m/s | 7.3°C | 40.3% | 816.9hPa | 2.7V | 00:00:00 | 00:00:00 | 00:00:00 | |
| KRY50SP-1 | 2026-09-02 07:55:03 | 52.05784 | 16.09271 | 118° | 26km/h | 1896m | -1.3m/s | 7.3°C | 40.6% | 816.6hPa | 2.7V | 00:00:00 | 00:00:00 | 00:00:00 | |
| SP3WXH-11 | 2026-09-02 07:54:53 | 52.05822 | 16.09162 | 112° | 26km/h | 1910m | -1.3m/s | 7.1°C | 41.9% | 815.1hPa | 2.7V | 00:00:00 | 00:00:00 | 00:00:00 | |
| KRY50SP-1 | 2026-09-02 07:54:47 | 52.05836 | 16.09104 | 119° | 33km/h | 1918m | -1.4m/s | 7.1°C | 42.0% | 814.5hPa | 2.7V | 00:00:00 | 00:00:00 | 00:00:00 | |
| SP6BVK | 2026-09-02 07:54:46 | 52.05840 | 16.09093 | 126° | 31km/h | 1919m | -1.4m/s | 7.1°C | 41.9% | 814.3hPa | 2.7V | 00:00:00 | 00:00:00 | 00:00:00 | |
| KRY50SP-1 | 2026-09-02 07:54:42 | 52.05858 | 16.09049 | 115° | 26km/h | 1926m | -1.4m/s | 7.0°C | 43.9% | 813.8hPa | 2.7V | 00:00:00 | 00:00:00 | 00:00:00 | |
| KRY50SP-1 | 2026-09-02 07:54:36 | 52.05872 | 16.08992 | 120° | 35km/h | 1934m | -1.2m/s | 7.0°C | 46.4% | 813.0hPa | 2.7V | 00:00:00 | 00:00:00 | 00:00:00 | |
| SP3BTT-10 | 2026-09-02 07:54:36 | 52.05876 | 16.08980 | 123° | 29km/h | 1935m | -1.3m/s | 6.9°C | 45.7% | 812.9hPa | 2.7V | 00:00:00 | 00:00:00 | 00:00:00 | |
| KRY50SP-1 | 2026-09-02 07:54:30 | 52.05897 | 16.08933 | 116° | 24km/h | 1941m | -1.5m/s | 6.9°C | 49.5% | 812.2hPa | 2.7V | 00:00:00 | 00:00:00 | 00:00:00 | |
| SP6BVK | 2026-09-02 07:54:25 | 52.05911 | 16.08877 | 115° | 35km/h | 1948m | -1.3m/s | 6.8°C | 50.6% | 811.6hPa | 2.7V | 00:00:00 | 00:00:00 | 00:00:00 | |
| KRY50SP-1 | 2026-09-02 07:54:23 | 52.05919 | 16.08853 | 126° | 33km/h | 1951m | -1.1m/s | 6.8°C | 50.1% | 811.2hPa | 2.7V | 00:00:00 | 00:00:00 | 00:00:00 | |
| SP3WXH-11 | 2026-09-02 07:54:22 | 52.05929 | 16.08831 | 129° | 29km/h | 1953m | -1.4m/s | 6.8°C | 51.8% | 811.0hPa | 2.7V | 00:00:00 | 00:00:00 | 00:00:00 | |
| KRY50SP-1 | 2026-09-02 07:54:17 | 52.05943 | 16.08794 | 113° | 26km/h | 1959m | -1.2m/s | 6.7°C | 52.2% | 810.4hPa | 2.7V | 00:00:00 | 00:00:00 | 00:00:00 | |
| SP3BTT-10 | 2026-09-02 07:54:16 | 52.05948 | 16.08772 | 113° | 29km/h | 1961m | -1.0m/s | 6.7°C | 52.3% | 810.2hPa | 2.7V | 00:00:00 | 00:00:00 | 00:00:00 | |
| KRY50SP-1 | 2026-09-02 07:54:11 | 52.05963 | 16.08727 | 125° | 29km/h | 1967m | -1.5m/s | 6.6°C | 52.3% | 809.6hPa | 2.7V | 00:00:00 | 00:00:00 | 00:00:00 | |
| SP6BVK | 2026-09-02 07:54:04 | 52.05985 | 16.08657 | 115° | 31km/h | 1976m | -1.1m/s | 6.6°C | 52.8% | 808.8hPa | 2.7V | 00:00:00 | 00:00:00 | 00:00:00 | |
| KRY50SP-1 | 2026-09-02 07:54:03 | 52.05993 | 16.08632 | 120° | 35km/h | 1978m | -1.4m/s | 6.5°C | 52.7% | 808.5hPa | 2.7V | 00:00:00 | 00:00:00 | 00:00:00 | |
| SP3WXH-11 | 2026-09-02 07:53:51 | 52.06034 | 16.08506 | 124° | 31km/h | 1994m | -1.3m/s | 6.4°C | 52.9% | 806.9hPa | 2.7V | 00:00:00 | 00:00:00 | 00:00:00 | |
| SP6BVK | 2026-09-02 07:53:44 | 52.06057 | 16.08453 | 115° | 26km/h | 2003m | -1.2m/s | 6.3°C | 52.9% | 806.3hPa | 2.7V | 00:00:00 | 00:00:00 | 00:00:00 | |
| SP3BTT-10 | 2026-09-02 07:53:36 | 52.06091 | 16.08353 | 129° | 29km/h | 2015m | -1.2m/s | 6.2°C | 52.6% | 804.9hPa | 2.7V | 00:00:00 | 00:00:00 | 00:00:00 | |
| KRY50SP-1 | 2026-09-02 07:53:34 | 52.06094 | 16.08344 | 121° | 26km/h | 2016m | -1.3m/s | 6.2°C | 52.5% | 805.0hPa | 2.7V | 00:00:00 | 00:00:00 | 00:00:00 | |
| KRY50SP-1 | 2026-09-02 07:53:23 | 52.06133 | 16.08228 | 126° | 26km/h | 2031m | -1.3m/s | 6.1°C | 53.2% | 803.5hPa | 2.7V | 00:00:00 | 00:00:00 | 00:00:00 | |
| SP3WXH-11 | 2026-09-02 07:53:20 | 52.06144 | 16.08190 | 110° | 29km/h | 2036m | -1.3m/s | 6.1°C | 53.4% | 802.9hPa | 2.7V | 00:00:00 | 00:00:00 | 00:00:00 | |
| SP3BTT-10 | 2026-09-02 07:53:16 | 52.06159 | 16.08140 | 123° | 31km/h | 2042m | -1.2m/s | 6.0°C | 54.0% | 802.3hPa | 2.7V | 00:00:00 | 00:00:00 | 08:30:00 | |
| KRY50SP-1 | 2026-09-02 07:53:07 | 52.06188 | 16.08057 | 111° | 33km/h | 2052m | -1.3m/s | 6.0°C | 54.9% | 801.3hPa | 2.7V | 00:00:00 | 00:00:00 | 00:00:00 | |
| SP3WXH-11 | 2026-09-02 07:52:49 | 52.06261 | 16.07841 | 122° | 27km/h | 2077m | -1.2m/s | 5.8°C | 56.3% | 798.9hPa | 2.7V | 00:00:00 | 00:00:00 | 00:00:00 | |
| KRY50SP-1 | 2026-09-02 07:52:48 | 52.06261 | 16.07841 | 123° | 29km/h | 2078m | -1.2m/s | 5.8°C | 56.3% | 798.9hPa | 2.7V | 00:00:00 | 00:00:00 | 00:00:00 | |
| KRY50SP-1 | 2026-09-02 07:52:43 | 52.06277 | 16.07782 | 115° | 37km/h | 2084m | -1.0m/s | 5.8°C | 56.3% | 798.1hPa | 2.7V | 00:00:00 | 00:00:00 | 00:00:00 | |
| KRY50SP-1 | 2026-09-02 07:52:38 | 52.06299 | 16.07725 | 127° | 29km/h | 2090m | -1.3m/s | 5.7°C | 56.1% | 797.6hPa | 2.7V | 00:00:00 | 00:00:00 | 00:00:00 | |
| SP6BVK | 2026-09-02 07:52:37 | 52.06303 | 16.07715 | 122° | 27km/h | 2092m | -1.1m/s | 5.7°C | 56.0% | 797.6hPa | 2.7V | 00:00:00 | 00:00:00 | 00:00:00 | |
| SP3BTT-10 | 2026-09-02 07:52:36 | 52.06309 | 16.07694 | 113° | 33km/h | 2094m | -1.0m/s | 5.7°C | 56.3% | 797.3hPa | 2.7V | 00:00:00 | 00:00:00 | 00:00:00 | |
| KRY50SP-1 | 2026-09-02 07:52:32 | 52.06318 | 16.07657 | 115° | 35km/h | 2097m | -1.5m/s | 5.7°C | 56.0% | 796.8hPa | 2.7V | 00:00:00 | 00:00:00 | 00:00:00 | |
| KRY50SP-1 | 2026-09-02 07:52:26 | 52.06347 | 16.07587 | 127° | 27km/h | 2104m | -1.4m/s | 5.7°C | 53.9% | 796.2hPa | 2.7V | 00:00:00 | 00:00:00 | 00:00:00 | |
| KRY50SP-1 | 2026-09-02 07:52:20 | 52.06366 | 16.07520 | 114° | 35km/h | 2113m | -1.5m/s | 5.7°C | 51.8% | 795.2hPa | 2.7V | 00:00:00 | 00:00:00 | 00:00:00 | |
| SP3WXH-11 | 2026-09-02 07:52:18 | 52.06379 | 16.07482 | 126° | 35km/h | 2117m | -1.3m/s | 5.7°C | 51.8% | 794.9hPa | 2.7V | 00:00:00 | 00:00:00 | 00:00:00 | |
| SP3BTT-10 | 2026-09-02 07:52:16 | 52.06389 | 16.07461 | 128° | 33km/h | 2120m | -1.4m/s | 5.6°C | 51.8% | 794.8hPa | 2.7V | 00:00:00 | 00:00:00 | 00:00:00 | |
| KRY50SP-1 | 2026-09-02 07:52:15 | 52.06389 | 16.07461 | 129° | 31km/h | 2120m | -1.4m/s | 5.6°C | 51.7% | 794.8hPa | 2.7V | 00:00:00 | 00:00:00 | 00:00:00 | |
| KRY50SP-1 | 2026-09-02 07:52:09 | 52.06408 | 16.07395 | 113° | 37km/h | 2128m | -1.2m/s | 5.6°C | 52.5% | 794.0hPa | 2.7V | 00:00:00 | 00:00:00 | 00:00:00 | |
| KRY50SP-1 | 2026-09-02 07:52:03 | 52.06436 | 16.07323 | 126° | 29km/h | 2136m | -1.4m/s | 5.6°C | 53.0% | 793.2hPa | 2.7V | 00:00:00 | 00:00:00 | 00:00:00 | |
| SP3WXH-11 | 2026-09-02 07:51:47 | 52.06496 | 16.07120 | 113° | 37km/h | 2159m | -1.3m/s | 5.4°C | 51.4% | 791.0hPa | 2.7V | 00:00:00 | 00:00:00 | 00:00:00 | |
| KRY50SP-1 | 2026-09-02 07:51:43 | 52.06509 | 16.07080 | 124° | 37km/h | 2163m | -1.3m/s | 5.4°C | 51.8% | 790.6hPa | 2.7V | 00:00:00 | 00:00:00 | 00:00:00 | |
| KRY50SP-1 | 2026-09-02 07:51:38 | 52.06529 | 16.07024 | 113° | 29km/h | 2169m | -1.2m/s | 5.3°C | 51.6% | 789.9hPa | 2.7V | 00:00:00 | 00:00:00 | 00:00:00 | |
| SP3BTT-10 | 2026-09-02 07:51:36 | 52.06537 | 16.06987 | 110° | 33km/h | 2173m | -1.4m/s | 5.3°C | 51.3% | 789.4hPa | 2.7V | 00:00:00 | 00:00:00 | 00:00:00 | |
| KRY50SP-1 | 2026-09-02 07:51:33 | 52.06544 | 16.06960 | 120° | 38km/h | 2176m | -1.1m/s | 5.3°C | 50.9% | 789.3hPa | 2.7V | 00:00:00 | 00:00:00 | 00:00:00 | |
| KRY50SP-1 | 2026-09-02 07:51:28 | 52.06568 | 16.06901 | 119° | 27km/h | 2183m | -1.3m/s | 5.3°C | 51.5% | 788.7hPa | 2.7V | 00:00:00 | 00:00:00 | 00:00:00 | |
| KRY50SP-1 | 2026-09-02 07:51:22 | 52.06586 | 16.06828 | 116° | 38km/h | 2191m | -1.3m/s | 5.2°C | 51.6% | 787.9hPa | 2.7V | 00:00:00 | 00:00:00 | 00:00:00 | |
| KRY50SP-1 | 2026-09-02 07:51:17 | 52.06608 | 16.06770 | 120° | 29km/h | 2197m | -1.3m/s | 5.2°C | 51.4% | 787.3hPa | 2.7V | 00:00:00 | 00:00:00 | 00:00:00 | |
| SP3BTT-10 | 2026-09-02 07:51:16 | 52.06614 | 16.06748 | 110° | 35km/h | 2200m | -1.1m/s | 5.1°C | 51.4% | 786.9hPa | 2.7V | 00:00:00 | 00:00:00 | 00:00:00 | |
| SP6BVK | 2026-09-02 07:51:15 | 52.06614 | 16.06748 | 111° | 31km/h | 2200m | -1.2m/s | 5.1°C | 51.3% | 786.9hPa | 2.7V | 00:00:00 | 00:00:00 | 00:00:00 | |
| KRY50SP-1 | 2026-09-02 07:51:11 | 52.06627 | 16.06695 | 117° | 38km/h | 2205m | -1.0m/s | 5.1°C | 51.6% | 786.5hPa | 2.7V | 00:00:00 | 00:00:00 | 00:00:00 | |
| KRY50SP-1 | 2026-09-02 07:51:06 | 52.06649 | 16.06635 | 117° | 29km/h | 2211m | -1.8m/s | 5.0°C | 51.6% | 785.7hPa | 2.7V | 00:00:00 | 00:00:00 | 00:00:00 | |
| SP3WXH-11 | 2026-09-02 07:50:45 | 52.06736 | 16.06356 | 119° | 29km/h | 2240m | -1.1m/s | 4.8°C | 51.8% | 782.9hPa | 2.7V | 00:00:00 | 00:00:00 | 00:00:00 | |
| KRY50SP-1 | 2026-09-02 07:50:37 | 52.06758 | 16.06265 | 116° | 40km/h | 2249m | -1.2m/s | 4.8°C | 52.2% | 782.0hPa | 2.7V | 00:00:00 | 00:00:00 | 00:00:00 | |
| SP6BVK | 2026-09-02 07:50:33 | 52.06776 | 16.06215 | 122° | 31km/h | 2254m | -1.6m/s | 4.7°C | 52.0% | 781.4hPa | 2.7V | 00:00:00 | 00:00:00 | 00:00:00 | |
| KRY50SP-1 | 2026-09-02 07:50:30 | 52.06785 | 16.06181 | 109° | 33km/h | 2259m | -1.3m/s | 4.7°C | 52.0% | 781.0hPa | 2.7V | 00:00:00 | 00:00:00 | 00:00:00 | |
| KRY50SP-1 | 2026-09-02 07:50:22 | 52.06814 | 16.06072 | 119° | 31km/h | 2270m | -1.4m/s | 4.6°C | 52.1% | 780.0hPa | 2.7V | 00:00:00 | 00:00:00 | 00:00:00 | |
| SP3BTT-10 | 2026-09-02 07:50:16 | 52.06834 | 16.05979 | 113° | 35km/h | 2279m | -1.5m/s | 4.5°C | 52.3% | 778.9hPa | 2.7V | 00:00:00 | 00:00:00 | 08:30:00 | |
| SP3WXH-11 | 2026-09-02 07:50:14 | 52.06843 | 16.05951 | 117° | 35km/h | 2281m | -1.7m/s | 4.5°C | 52.3% | 778.6hPa | 2.7V | 00:00:00 | 00:00:00 | 00:00:00 | |
| SP6BVK | 2026-09-02 07:50:13 | 52.06843 | 16.05951 | 119° | 37km/h | 2282m | -1.7m/s | 4.5°C | 52.3% | 778.6hPa | 2.7V | 00:00:00 | 00:00:00 | 00:00:00 | |
| SP3BTT-10 | 2026-09-02 07:49:56 | 52.06904 | 16.05716 | 105° | 37km/h | 2308m | -1.4m/s | 4.4°C | 51.9% | 776.1hPa | 2.7V | 00:00:00 | 00:00:00 | 00:00:00 | |
| SP6BVK | 2026-09-02 07:49:53 | 52.06909 | 16.05687 | 110° | 40km/h | 2311m | -1.5m/s | 4.5°C | 52.1% | 776.0hPa | 2.7V | 00:00:00 | 00:00:00 | 00:00:00 | |
| KRY50SP-1 | 2026-09-02 07:49:50 | 52.06926 | 16.05629 | 121° | 37km/h | 2317m | -1.5m/s | 4.3°C | 52.6% | 775.3hPa | 2.7V | 00:00:00 | 00:00:00 | 00:00:00 | |
| KRY50SP-1 | 2026-09-02 07:49:44 | 52.06942 | 16.05568 | 105° | 33km/h | 2324m | -1.5m/s | 4.4°C | 52.1% | 774.7hPa | 2.7V | 00:00:00 | 00:00:00 | 00:00:00 | |
| SP3WXH-11 | 2026-09-02 07:49:43 | 52.06946 | 16.05539 | 105° | 38km/h | 2327m | -1.5m/s | 4.4°C | 51.6% | 774.5hPa | 2.7V | 00:00:00 | 00:00:00 | 00:00:00 | |
| KRY50SP-1 | 2026-09-02 07:49:38 | 52.06961 | 16.05479 | 120° | 37km/h | 2333m | -1.3m/s | 4.3°C | 51.5% | 773.9hPa | 2.7V | 00:00:00 | 00:00:00 | 00:00:00 | |
| SP3BTT-10 | 2026-09-02 07:49:36 | 52.06973 | 16.05443 | 115° | 35km/h | 2337m | -1.4m/s | 4.1°C | 52.4% | 773.5hPa | 2.7V | 00:00:00 | 00:00:00 | 00:00:00 | |
| SP6BVK | 2026-09-02 07:49:33 | 52.06978 | 16.05420 | 106° | 31km/h | 2340m | -1.5m/s | 4.3°C | 52.3% | 773.2hPa | 2.7V | 00:00:00 | 00:00:00 | 00:00:00 | |
| KRY50SP-1 | 2026-09-02 07:49:26 | 52.07000 | 16.05320 | 119° | 37km/h | 2350m | -1.4m/s | 4.2°C | 50.4% | 772.1hPa | 2.7V | 00:00:00 | 00:00:00 | 00:00:00 | |
| KRY50SP-1 | 2026-09-02 07:49:19 | 52.07019 | 16.05232 | 104° | 38km/h | 2360m | -1.5m/s | 4.2°C | 48.5% | 771.3hPa | 2.7V | 00:00:00 | 00:00:00 | 00:00:00 | |
| SP3BTT-10 | 2026-09-02 07:49:16 | 52.07032 | 16.05170 | 117° | 35km/h | 2366m | -1.5m/s | 4.1°C | 48.8% | 770.7hPa | 2.7V | 00:00:00 | 00:00:00 | 00:00:00 | |
| SP6BVK | 2026-09-02 07:49:13 | 52.07045 | 16.05132 | 117° | 31km/h | 2370m | -1.6m/s | 4.0°C | 48.5% | 770.2hPa | 2.7V | 00:00:00 | 00:00:00 | 00:00:00 | |
| SP3WXH-11 | 2026-09-02 07:49:12 | 52.07048 | 16.05121 | 111° | 29km/h | 2371m | -1.5m/s | 4.0°C | 48.3% | 770.1hPa | 2.7V | 00:00:00 | 00:00:00 | 00:00:00 | |
| SP3BTT-10 | 2026-09-02 07:48:56 | 52.07089 | 16.04903 | 101° | 37km/h | 2395m | -1.5m/s | 3.9°C | 48.3% | 767.8hPa | 2.7V | 00:00:00 | 00:00:00 | 00:00:00 | |
| SP6BVK | 2026-09-02 07:48:51 | 52.07101 | 16.04840 | 114° | 40km/h | 2401m | -1.4m/s | 3.9°C | 48.7% | 767.4hPa | 2.7V | 00:00:00 | 00:00:00 | 00:00:00 | |
| SP3WXH-11 | 2026-09-02 07:48:41 | 52.07133 | 16.04687 | 110° | 40km/h | 2417m | -1.3m/s | 3.7°C | 49.7% | 765.9hPa | 2.7V | 00:00:00 | 00:00:00 | 00:00:00 | |
| KRY50SP-1 | 2026-09-02 07:48:37 | 52.07146 | 16.04643 | 119° | 37km/h | 2421m | -1.4m/s | 3.6°C | 50.3% | 765.5hPa | 2.7V | 00:00:00 | 00:00:00 | 00:00:00 | |
| SP3BTT-10 | 2026-09-02 07:48:36 | 52.07153 | 16.04618 | 113° | 37km/h | 2424m | -1.6m/s | 3.5°C | 50.5% | 764.9hPa | 2.7V | 00:00:00 | 00:00:00 | 00:00:00 | |
| SP6BVK | 2026-09-02 07:48:31 | 52.07164 | 16.04548 | 104° | 40km/h | 2431m | -1.5m/s | 3.5°C | 50.3% | 764.4hPa | 2.7V | 00:00:00 | 00:00:00 | 00:00:00 | |
| KRY50SP-1 | 2026-09-02 07:48:24 | 52.07184 | 16.04460 | 113° | 35km/h | 2441m | -1.5m/s | 3.5°C | 50.2% | 763.6hPa | 2.7V | 00:00:00 | 00:00:00 | 00:00:00 | |
| SP3BTT-10 | 2026-09-02 07:48:16 | 52.07212 | 16.04326 | 118° | 37km/h | 2454m | -1.7m/s | 3.3°C | 48.9% | 762.2hPa | 2.7V | 00:00:00 | 00:00:00 | 00:00:00 | |
| KRY50SP-1 | 2026-09-02 07:48:13 | 52.07220 | 16.04299 | 117° | 33km/h | 2457m | -1.5m/s | 3.3°C | 48.6% | 762.0hPa | 2.7V | 00:00:00 | 00:00:00 | 00:00:00 | |
| SP3WXH-11 | 2026-09-02 07:48:10 | 52.07233 | 16.04234 | 101° | 37km/h | 2465m | -1.5m/s | 3.3°C | 48.2% | 761.3hPa | 2.7V | 00:00:00 | 00:00:00 | 00:00:00 | |
| KRY50SP-1 | 2026-09-02 07:48:08 | 52.07232 | 16.04234 | 102° | 38km/h | 2465m | -1.5m/s | 3.3°C | 48.2% | 761.3hPa | 2.7V | 00:00:00 | 00:00:00 | 00:00:00 | |
| SP3BTT-10 | 2026-09-02 07:47:56 | 52.07272 | 16.04043 | 106° | 38km/h | 2484m | -1.5m/s | 3.1°C | 48.2% | 759.4hPa | 2.7V | 00:00:00 | 00:00:00 | 00:00:00 | |
| SP6BVK | 2026-09-02 07:47:49 | 52.07292 | 16.03953 | 106° | 35km/h | 2493m | -1.8m/s | 3.1°C | 47.9% | 758.6hPa | 2.7V | 00:00:00 | 00:00:00 | 00:00:00 | |
| KRY50SP-1 | 2026-09-02 07:47:40 | 52.07318 | 16.03809 | 116° | 40km/h | 2506m | -1.7m/s | 3.0°C | 48.0% | 757.5hPa | 2.7V | 00:00:00 | 00:00:00 | 00:00:00 | |
| SP3WXH-11 | 2026-09-02 07:47:39 | 52.07329 | 16.03769 | 107° | 33km/h | 2511m | -1.7m/s | 2.9°C | 47.5% | 757.1hPa | 2.7V | 00:00:00 | 00:00:00 | 00:00:00 | |
| SP3BTT-10 | 2026-09-02 07:47:36 | 52.07334 | 16.03741 | 103° | 40km/h | 2514m | -1.1m/s | 2.9°C | 47.7% | 756.8hPa | 2.7V | 00:00:00 | 00:00:00 | 00:00:00 | |
| KRY50SP-1 | 2026-09-02 07:47:30 | 52.07345 | 16.03658 | 110° | 44km/h | 2520m | -1.6m/s | 2.9°C | 48.1% | 756.0hPa | 2.7V | 00:00:00 | 00:00:00 | 00:00:00 | |
| SP6BVK | 2026-09-02 07:47:29 | 52.07349 | 16.03641 | 113° | 44km/h | 2522m | -1.5m/s | 2.9°C | 48.6% | 755.9hPa | 2.7V | 00:00:00 | 00:00:00 | 00:00:00 | |
| KRY50SP-1 | 2026-09-02 07:47:19 | 52.07376 | 16.03486 | 106° | 44km/h | 2537m | -1.7m/s | 2.7°C | 53.7% | 754.5hPa | 2.7V | 00:00:00 | 00:00:00 | 00:00:00 | |
| SP3BTT-10 | 2026-09-02 07:47:16 | 52.07391 | 16.03422 | 114° | 38km/h | 2543m | -1.2m/s | 2.7°C | 55.0% | 753.9hPa | 2.7V | 00:00:00 | 00:00:00 | 08:30:00 | |
| KRY50SP-1 | 2026-09-02 07:47:13 | 52.07397 | 16.03395 | 107° | 33km/h | 2546m | -1.7m/s | 2.7°C | 55.1% | 753.6hPa | 2.7V | 00:00:00 | 00:00:00 | 00:00:00 | |
| SP3WXH-11 | 2026-09-02 07:47:08 | 52.07409 | 16.03302 | 104° | 42km/h | 2555m | -1.7m/s | 2.6°C | 56.0% | 752.9hPa | 2.7V | 00:00:00 | 00:00:00 | 00:00:00 | |
| KRY50SP-1 | 2026-09-02 07:46:57 | 52.07435 | 16.03146 | 103° | 44km/h | 2570m | -1.3m/s | 2.5°C | 56.2% | 751.4hPa | 2.7V | 00:00:00 | 00:00:00 | 00:00:00 | |
| SP3BTT-10 | 2026-09-02 07:46:56 | 52.07441 | 16.03111 | 109° | 38km/h | 2572m | -1.3m/s | 2.4°C | 56.3% | 751.2hPa | 2.7V | 00:00:00 | 00:00:00 | 00:00:00 | |
| KRY50SP-1 | 2026-09-02 07:46:50 | 52.07460 | 16.03034 | 111° | 35km/h | 2580m | -1.4m/s | 2.4°C | 56.0% | 750.5hPa | 2.7V | 00:00:00 | 00:00:00 | 00:00:00 | |
| SP6BVK | 2026-09-02 07:46:48 | 52.07464 | 16.03006 | 101° | 37km/h | 2582m | -1.8m/s | 2.4°C | 56.1% | 750.2hPa | 2.7V | 00:00:00 | 00:00:00 | 00:00:00 | |
| KRY50SP-1 | 2026-09-02 07:46:45 | 52.07469 | 16.02956 | 101° | 44km/h | 2587m | -1.8m/s | 2.4°C | 56.2% | 749.8hPa | 2.7V | 00:00:00 | 00:00:00 | 00:00:00 | |
| SP3WXH-11 | 2026-09-02 07:46:37 | 52.07496 | 16.02804 | 97° | 37km/h | 2602m | -1.4m/s | 2.3°C | 56.2% | 748.4hPa | 2.7V | 00:00:00 | 00:00:00 | 00:00:00 | |
| SP3BTT-10 | 2026-09-02 07:46:36 | 52.07496 | 16.02804 | 98° | 40km/h | 2603m | -1.3m/s | 2.2°C | 56.4% | 748.3hPa | 2.7V | 00:00:00 | 00:00:00 | 00:00:00 | |
| EDDB2-11 | 2026-09-02 07:46:30 | 52.07514 | 16.02686 | 111° | 38km/h | 2613m | -1.4m/s | 2.3°C | 53.8% | 747.5hPa | 2.7V | 00:00:00 | 00:00:00 | 00:00:00 | |
| KRY50SP-1 | 2026-09-02 07:46:19 | 52.07532 | 16.02552 | 102° | 44km/h | 2626m | -1.5m/s | 2.2°C | 51.5% | 746.3hPa | 2.7V | 00:00:00 | 00:00:00 | 00:00:00 | |
| SP3BTT-10 | 2026-09-02 07:46:16 | 52.07544 | 16.02486 | 113° | 38km/h | 2632m | -1.2m/s | 2.1°C | 52.1% | 745.7hPa | 2.7V | 00:00:00 | 00:00:00 | 00:00:00 | |
| EDDB2-12 | 2026-09-02 07:46:14 | 52.07557 | 16.02402 | 97° | 38km/h | 2640m | -1.3m/s | 2.1°C | 53.3% | 744.8hPa | 2.7V | 00:00:00 | 00:00:00 | 00:00:00 | |
| SP6BVK | 2026-09-02 07:46:07 | 52.07560 | 16.02369 | 103° | 44km/h | 2643m | -1.6m/s | 2.0°C | 54.3% | 744.7hPa | 2.7V | 00:00:00 | 00:00:00 | 00:00:00 | |
| SP3WXH-11 | 2026-09-02 07:46:06 | 52.07566 | 16.02334 | 107° | 40km/h | 2646m | -1.6m/s | 2.0°C | 54.7% | 744.3hPa | 2.7V | 00:00:00 | 00:00:00 | 00:00:00 | |
| KRY50SP-1 | 2026-09-02 07:46:02 | 52.07575 | 16.02289 | 109° | 37km/h | 2651m | -1.4m/s | 2.0°C | 55.0% | 744.0hPa | 2.7V | 00:00:00 | 00:00:00 | 00:00:00 | |
| EDDB2-11 | 2026-09-02 07:45:59 | 52.07584 | 16.02217 | 98° | 40km/h | 2658m | -1.2m/s | 2.0°C | 54.5% | 743.2hPa | 2.7V | 00:00:00 | 00:00:00 | 00:00:00 | |
| KRY50SP-1 | 2026-09-02 07:45:57 | 52.07584 | 16.02217 | 99° | 40km/h | 2658m | -1.2m/s | 2.0°C | 54.5% | 743.2hPa | 2.7V | 00:00:00 | 00:00:00 | 00:00:00 | |
| SP3BTT-10 | 2026-09-02 07:45:56 | 52.07588 | 16.02183 | 104° | 38km/h | 2660m | -1.4m/s | 1.9°C | 54.7% | 742.9hPa | 2.7V | 00:00:00 | 00:00:00 | 00:00:00 | |
| KRY50SP-1 | 2026-09-02 07:45:52 | 52.07598 | 16.02134 | 113° | 38km/h | 2665m | -1.6m/s | 1.9°C | 53.9% | 742.7hPa | 2.7V | 00:00:00 | 00:00:00 | 00:00:00 | |
| SP6BVK | 2026-09-02 07:45:47 | 52.07610 | 16.02065 | 97° | 37km/h | 2672m | -1.4m/s | 1.9°C | 54.1% | 741.9hPa | 2.7V | 00:00:00 | 00:00:00 | 00:00:00 | |
| KRY50SP-1 | 2026-09-02 07:45:41 | 52.07620 | 16.01965 | 110° | 42km/h | 2682m | -1.6m/s | 1.8°C | 54.2% | 741.1hPa | 2.7V | 00:00:00 | 00:00:00 | 00:00:00 | |
| SP3BTT-10 | 2026-09-02 07:45:36 | 52.07636 | 16.01881 | 99° | 40km/h | 2691m | -1.5m/s | 1.7°C | 55.4% | 740.3hPa | 2.7V | 00:00:00 | 00:00:00 | 00:00:00 | |
| SP3WXH-11 | 2026-09-02 07:45:35 | 52.07639 | 16.01851 | 95° | 38km/h | 2694m | -1.5m/s | 1.7°C | 55.6% | 740.1hPa | 2.7V | 00:00:00 | 00:00:00 | 00:00:00 | |
| KRY50SP-1 | 2026-09-02 07:45:30 | 52.07644 | 16.01799 | 106° | 44km/h | 2698m | -1.4m/s | 1.7°C | 55.7% | 739.6hPa | 2.7V | 00:00:00 | 00:00:00 | 00:00:00 | |
| EDDB2-11 | 2026-09-02 07:45:28 | 52.07658 | 16.01736 | 109° | 35km/h | 2704m | -1.5m/s | 1.6°C | 55.1% | 739.1hPa | 2.7V | 00:00:00 | 00:00:00 | 00:00:00 | |
| SP6BVK | 2026-09-02 07:45:26 | 52.07658 | 16.01736 | 110° | 37km/h | 2704m | -1.5m/s | 1.6°C | 55.1% | 739.1hPa | 2.7V | 00:00:00 | 00:00:00 | 00:00:00 | |
| KRY50SP-1 | 2026-09-02 07:45:25 | 52.07660 | 16.01723 | 107° | 35km/h | 2705m | -1.3m/s | 1.6°C | 54.9% | 739.0hPa | 2.7V | 00:00:00 | 00:00:00 | 00:00:00 | |
| KRY50SP-1 | 2026-09-02 07:45:20 | 52.07668 | 16.01648 | 100° | 42km/h | 2712m | -1.6m/s | 1.6°C | 55.5% | 738.3hPa | 2.7V | 00:00:00 | 00:00:00 | 00:00:00 | |
| SP3BTT-10 | 2026-09-02 07:45:16 | 52.07682 | 16.01565 | 113° | 40km/h | 2720m | -1.3m/s | 1.4°C | 56.1% | 737.6hPa | 2.7V | 00:00:00 | 00:00:00 | 00:00:00 | |
| KRY50SP-1 | 2026-09-02 07:45:14 | 52.07686 | 16.01551 | 112° | 37km/h | 2721m | -1.5m/s | 1.5°C | 55.6% | 737.5hPa | 2.7V | 00:00:00 | 00:00:00 | 00:00:00 | |
| KRY50SP-1 | 2026-09-02 07:45:08 | 52.07697 | 16.01461 | 101° | 42km/h | 2730m | -1.4m/s | 1.4°C | 55.6% | 736.7hPa | 2.7V | 00:00:00 | 00:00:00 | 00:00:00 | |
| SP6BVK | 2026-09-02 07:45:05 | 52.07705 | 16.01411 | 111° | 42km/h | 2734m | -1.4m/s | 1.4°C | 55.8% | 736.3hPa | 2.7V | 00:00:00 | 00:00:00 | 00:00:00 | |
| SP3WXH-11 | 2026-09-02 07:45:04 | 52.07716 | 16.01366 | 108° | 37km/h | 2738m | -1.3m/s | 1.4°C | 55.9% | 736.1hPa | 2.7V | 00:00:00 | 00:00:00 | 00:00:00 | |
| EDDB2-11 | 2026-09-02 07:44:57 | 52.07733 | 16.01252 | 110° | 42km/h | 2748m | -1.3m/s | 1.2°C | 57.1% | 735.0hPa | 2.7V | 00:00:00 | 00:00:00 | 00:00:00 | |
| SP3BTT-10 | 2026-09-02 07:44:56 | 52.07733 | 16.01251 | 111° | 40km/h | 2748m | -1.3m/s | 1.2°C | 57.4% | 735.0hPa | 2.7V | 00:00:00 | 00:00:00 | 00:00:00 | |
| KRY50SP-1 | 2026-09-02 07:44:51 | 52.07748 | 16.01192 | 110° | 37km/h | 2754m | -1.6m/s | 1.2°C | 56.5% | 734.6hPa | 2.7V | 00:00:00 | 00:00:00 | 00:00:00 | |
| KRY50SP-1 | 2026-09-02 07:44:46 | 52.07758 | 16.01114 | 102° | 44km/h | 2761m | -1.5m/s | 1.1°C | 56.4% | 733.9hPa | 2.7V | 00:00:00 | 00:00:00 | 00:00:00 | |
| SP6BVK | 2026-09-02 07:44:44 | 52.07763 | 16.01078 | 106° | 46km/h | 2764m | -1.5m/s | 1.1°C | 56.4% | 733.5hPa | 2.7V | 00:00:00 | 00:00:00 | 00:00:00 | |
| KRY50SP-1 | 2026-09-02 07:44:41 | 52.07773 | 16.01028 | 112° | 40km/h | 2768m | -1.2m/s | 1.1°C | 56.6% | 733.2hPa | 2.7V | 00:00:00 | 00:00:00 | 00:00:00 | |
| SP3BTT-10 | 2026-09-02 07:44:36 | 52.07790 | 16.00931 | 104° | 40km/h | 2776m | -1.4m/s | 1.0°C | 57.3% | 732.4hPa | 2.7V | 00:00:00 | 00:00:00 | 00:00:00 | |
| SP3WXH-11 | 2026-09-02 07:44:33 | 52.07804 | 16.00861 | 113° | 42km/h | 2781m | -1.3m/s | 0.9°C | 57.2% | 732.0hPa | 2.7V | 00:00:00 | 00:00:00 | 00:00:00 | |
| KRY50SP-1 | 2026-09-02 07:44:29 | 52.07812 | 16.00832 | 113° | 37km/h | 2784m | -1.5m/s | 0.9°C | 57.3% | 731.8hPa | 2.7V | 00:00:00 | 00:00:00 | 00:00:00 | |
| SP6BVK | 2026-09-02 07:44:24 | 52.07822 | 16.00758 | 98° | 40km/h | 2791m | -1.8m/s | 0.9°C | 58.0% | 731.1hPa | 2.7V | 00:00:00 | 00:00:00 | 00:00:00 | |
| KRY50SP-1 | 2026-09-02 07:44:23 | 52.07823 | 16.00741 | 102° | 44km/h | 2793m | -1.6m/s | 0.8°C | 58.0% | 730.9hPa | 2.7V | 00:00:00 | 00:00:00 | 00:00:00 | |
| KRY50SP-1 | 2026-09-02 07:44:17 | 52.07844 | 16.00641 | 113° | 37km/h | 2801m | -1.7m/s | 0.8°C | 58.6% | 730.2hPa | 2.7V | 00:00:00 | 00:00:00 | 00:00:00 | |
| SP3BTT-10 | 2026-09-02 07:44:16 | 52.07850 | 16.00613 | 105° | 42km/h | 2804m | -1.2m/s | 0.7°C | 59.4% | 729.9hPa | 2.7V | 00:00:00 | 00:00:00 | 08:30:00 | |
| KRY50SP-1 | 2026-09-02 07:44:12 | 52.07856 | 16.00565 | 101° | 44km/h | 2808m | -1.4m/s | 0.7°C | 59.5% | 729.6hPa | 2.7V | 00:00:00 | 00:00:00 | 00:00:00 | |
| KRY50SP-1 | 2026-09-02 07:44:06 | 52.07876 | 16.00461 | 112° | 40km/h | 2816m | -1.3m/s | 0.6°C | 60.3% | 728.8hPa | 2.7V | 00:00:00 | 00:00:00 | 00:00:00 | |
| SP6BVK | 2026-09-02 07:44:03 | 52.07885 | 16.00418 | 105° | 37km/h | 2820m | -1.3m/s | 0.6°C | 60.4% | 728.5hPa | 2.7V | 00:00:00 | 00:00:00 | 00:00:00 | |
| SP3WXH-11 | 2026-09-02 07:44:02 | 52.07890 | 16.00372 | 97° | 40km/h | 2824m | -1.4m/s | 0.5°C | 60.3% | 728.0hPa | 2.7V | 00:00:00 | 00:00:00 | 00:00:00 | |
| EDDB2-11 | 2026-09-02 07:43:55 | 52.07911 | 16.00254 | 110° | 38km/h | 2834m | -1.3m/s | 0.5°C | 59.6% | 727.2hPa | 2.7V | 00:00:00 | 00:00:00 | 00:00:00 | |
| KRY50SP-1 | 2026-09-02 07:43:49 | 52.07919 | 16.00195 | 99° | 40km/h | 2840m | -1.3m/s | 0.5°C | 59.1% | 726.7hPa | 2.7V | 00:00:00 | 00:00:00 | 00:00:00 | |
| KRY50SP-1 | 2026-09-02 07:43:44 | 52.07932 | 16.00106 | 112° | 44km/h | 2846m | -1.4m/s | 0.4°C | 58.8% | 726.0hPa | 2.7V | 00:00:00 | 00:00:00 | 00:00:00 | |
| SP6BVK | 2026-09-02 07:43:43 | 52.07936 | 16.00090 | 112° | 40km/h | 2847m | -1.4m/s | 0.4°C | 58.9% | 725.9hPa | 2.7V | 00:00:00 | 00:00:00 | 00:00:00 | |
| KRY50SP-1 | 2026-09-02 07:43:38 | 52.07950 | 16.00018 | 99° | 38km/h | 2855m | -1.4m/s | 0.3°C | 59.0% | 725.3hPa | 2.7V | 00:00:00 | 00:00:00 | 00:00:00 | |
| SP3BTT-10 | 2026-09-02 07:43:36 | 52.07954 | 15.99968 | 101° | 40km/h | 2859m | -1.6m/s | 0.3°C | 59.4% | 724.8hPa | 2.7V | 00:00:00 | 00:00:00 | 00:00:00 | |
| KRY50SP-1 | 2026-09-02 07:43:33 | 52.07959 | 15.99932 | 106° | 44km/h | 2862m | -1.5m/s | 0.3°C | 59.2% | 724.6hPa | 2.7V | 00:00:00 | 00:00:00 | 00:00:00 | |
| SP3WXH-11 | 2026-09-02 07:43:31 | 52.07973 | 15.99870 | 106° | 35km/h | 2868m | -1.3m/s | 0.3°C | 59.4% | 724.1hPa | 2.7V | 00:00:00 | 00:00:00 | 00:00:00 | |
| KRY50SP-1 | 2026-09-02 07:43:27 | 52.07977 | 15.99841 | 101° | 37km/h | 2871m | -1.7m/s | 0.2°C | 59.4% | 723.8hPa | 2.7V | 00:00:00 | 00:00:00 | 00:00:00 | |
| SP6BVK | 2026-09-02 07:43:23 | 52.07985 | 15.99760 | 105° | 46km/h | 2878m | -1.6m/s | 0.2°C | 59.7% | 723.1hPa | 2.7V | 00:00:00 | 00:00:00 | 00:00:00 | |
| KRY50SP-1 | 2026-09-02 07:43:22 | 52.07985 | 15.99760 | 105° | 46km/h | 2878m | -1.6m/s | 0.2°C | 59.7% | 723.1hPa | 2.7V | 00:00:00 | 00:00:00 | 00:00:00 | |
| SP3BTT-10 | 2026-09-02 07:43:16 | 52.08006 | 15.99649 | 102° | 40km/h | 2887m | -1.2m/s | 0.0°C | 60.3% | 722.4hPa | 2.7V | 00:00:00 | 00:00:00 | 00:00:00 | |
| KRY50SP-1 | 2026-09-02 07:43:10 | 52.08014 | 15.99567 | 103° | 44km/h | 2894m | -1.5m/s | 0.0°C | 60.2% | 721.8hPa | 2.7V | 00:00:00 | 00:00:00 | 00:00:00 | |
| KRY50SP-1 | 2026-09-02 07:43:04 | 52.08032 | 15.99473 | 107° | 35km/h | 2902m | -1.2m/s | -0.0°C | 60.5% | 721.0hPa | 2.7V | 00:00:00 | 00:00:00 | 00:00:00 | |
| SP6BVK | 2026-09-02 07:43:01 | 52.08037 | 15.99429 | 97° | 38km/h | 2906m | -1.6m/s | -0.1°C | 60.6% | 720.6hPa | 2.7V | 00:00:00 | 00:00:00 | 00:00:00 | |
| SP3WXH-11 | 2026-09-02 07:43:00 | 52.08041 | 15.99378 | 99° | 44km/h | 2910m | -1.3m/s | -0.1°C | 60.7% | 720.3hPa | 2.7V | 00:00:00 | 00:00:00 | 00:00:00 | |
| KRY50SP-1 | 2026-09-02 07:42:58 | 52.08041 | 15.99377 | 101° | 46km/h | 2911m | -1.3m/s | -0.1°C | 60.7% | 720.3hPa | 2.7V | 00:00:00 | 00:00:00 | 00:00:00 | |
| SP3BTT-10 | 2026-09-02 07:42:56 | 52.08050 | 15.99325 | 110° | 38km/h | 2914m | -1.4m/s | -0.1°C | 61.2% | 719.9hPa | 2.7V | 00:00:00 | 00:00:00 | 00:00:00 | |
| KRY50SP-1 | 2026-09-02 07:42:52 | 52.08060 | 15.99281 | 110° | 35km/h | 2919m | -1.4m/s | -0.2°C | 61.0% | 719.5hPa | 2.7V | 00:00:00 | 00:00:00 | 00:00:00 | |
| KRY50SP-1 | 2026-09-02 07:42:46 | 52.08069 | 15.99190 | 102° | 44km/h | 2927m | -1.2m/s | -0.3°C | 61.4% | 718.7hPa | 2.7V | 00:00:00 | 00:00:00 | 00:00:00 | |
| SP6BVK | 2026-09-02 07:42:41 | 52.08085 | 15.99107 | 114° | 38km/h | 2934m | -1.2m/s | -0.3°C | 61.6% | 718.2hPa | 2.7V | 00:00:00 | 00:00:00 | 00:00:00 | |
| KRY50SP-1 | 2026-09-02 07:42:40 | 52.08088 | 15.99093 | 109° | 35km/h | 2935m | -1.4m/s | -0.3°C | 61.6% | 718.0hPa | 2.7V | 00:00:00 | 00:00:00 | 00:00:00 | |
| SP3BTT-10 | 2026-09-02 07:42:36 | 52.08096 | 15.99019 | 97° | 40km/h | 2941m | -1.5m/s | -0.4°C | 62.2% | 717.5hPa | 2.7V | 00:00:00 | 00:00:00 | 00:00:00 | |
| KRY50SP-1 | 2026-09-02 07:42:34 | 52.08097 | 15.99001 | 101° | 44km/h | 2943m | -1.3m/s | -0.4°C | 62.0% | 717.4hPa | 2.7V | 00:00:00 | 00:00:00 | 00:00:00 | |
| KRY50SP-1 | 2026-09-02 07:42:28 | 52.08113 | 15.98904 | 107° | 35km/h | 2951m | -1.5m/s | -0.5°C | 62.2% | 716.6hPa | 2.7V | 00:00:00 | 00:00:00 | 00:00:00 | |
| KRY50SP-1 | 2026-09-02 07:42:22 | 52.08121 | 15.98811 | 101° | 44km/h | 2959m | -1.4m/s | -0.6°C | 62.5% | 715.8hPa | 2.7V | 00:00:00 | 00:00:00 | 00:00:00 | |
| SP6BVK | 2026-09-02 07:42:20 | 52.08127 | 15.98776 | 109° | 42km/h | 2961m | -1.3m/s | -0.6°C | 62.5% | 715.5hPa | 2.7V | 00:00:00 | 00:00:00 | 00:00:00 | |
| SP3BTT-10 | 2026-09-02 07:42:16 | 52.08142 | 15.98703 | 102° | 40km/h | 2968m | -1.2m/s | -0.6°C | 63.3% | 715.0hPa | 2.7V | 00:00:00 | 00:00:00 | 00:00:00 | |
| KRY50SP-1 | 2026-09-02 07:42:10 | 52.08148 | 15.98623 | 101° | 44km/h | 2975m | -1.4m/s | -0.7°C | 63.1% | 714.4hPa | 2.7V | 00:00:00 | 00:00:00 | 00:00:00 | |
| KRY50SP-1 | 2026-09-02 07:42:05 | 52.08162 | 15.98541 | 108° | 37km/h | 2982m | -1.1m/s | -0.8°C | 63.4% | 713.7hPa | 2.7V | 00:00:00 | 00:00:00 | 00:00:00 | |
| SP3WXH-11 | 2026-09-02 07:41:58 | 52.08174 | 15.98397 | 104° | 42km/h | 2994m | -1.5m/s | -0.9°C | 63.9% | 712.7hPa | 2.7V | 00:00:00 | 00:00:00 | 00:00:00 | |
| SP3BTT-10 | 2026-09-02 07:41:56 | 52.08177 | 15.98380 | 107° | 38km/h | 2996m | -1.3m/s | -0.9°C | 64.3% | 712.4hPa | 2.7V | 00:00:00 | 00:00:00 | 00:00:00 | |
| KRY50SP-1 | 2026-09-02 07:41:53 | 52.08183 | 15.98349 | 107° | 37km/h | 2998m | -1.6m/s | -0.9°C | 63.9% | 712.3hPa | 2.7V | 00:00:00 | 00:00:00 | 00:00:00 | |
| KRY50SP-1 | 2026-09-02 07:41:48 | 52.08189 | 15.98275 | 93° | 40km/h | 3005m | -1.4m/s | -1.0°C | 64.1% | 711.8hPa | 2.7V | 00:00:00 | 00:00:00 | 00:00:00 | |
| KRY50SP-1 | 2026-09-02 07:41:43 | 52.08197 | 15.98189 | 105° | 40km/h | 3011m | -1.3m/s | -1.0°C | 64.3% | 711.1hPa | 2.7V | 00:00:00 | 00:00:00 | 00:00:00 | |
| SP6BVK | 2026-09-02 07:41:40 | 52.08204 | 15.98143 | 103° | 37km/h | 3015m | -1.5m/s | -1.1°C | 64.5% | 710.7hPa | 2.7V | 00:00:00 | 00:00:00 | 00:00:00 | |
| KRY50SP-1 | 2026-09-02 07:41:37 | 52.08207 | 15.98099 | 94° | 40km/h | 3020m | -1.4m/s | -1.1°C | 64.5% | 710.3hPa | 2.7V | 00:00:00 | 00:00:00 | 00:00:00 | |
| SP3BTT-10 | 2026-09-02 07:41:36 | 52.08209 | 15.98065 | 98° | 38km/h | 3022m | -1.2m/s | -1.1°C | 65.1% | 710.2hPa | 2.7V | 00:00:00 | 00:00:00 | 00:00:00 | |
| KRY50SP-1 | 2026-09-02 07:41:32 | 52.08215 | 15.98012 | 106° | 40km/h | 3026m | -1.3m/s | -1.2°C | 64.9% | 709.7hPa | 2.7V | 00:00:00 | 00:00:00 | 00:00:00 | |
| KRY50SP-1 | 2026-09-02 07:41:27 | 52.08223 | 15.97940 | 93° | 37km/h | 3033m | -1.3m/s | -1.2°C | 64.9% | 709.2hPa | 2.7V | 00:00:00 | 00:00:00 | 00:00:00 | |
| SP3WXH-11 | 2026-09-02 07:41:26 | 52.08223 | 15.97909 | 90° | 38km/h | 3036m | -1.6m/s | -1.2°C | 65.0% | 709.1hPa | 2.7V | 00:00:00 | 00:00:00 | 00:00:00 | |
| KRY50SP-1 | 2026-09-02 07:41:21 | 52.08228 | 15.97839 | 103° | 44km/h | 3042m | -1.4m/s | -1.3°C | 65.1% | 708.6hPa | 2.7V | 00:00:00 | 00:00:00 | 00:00:00 | |
| SP6BVK | 2026-09-02 07:41:19 | 52.08234 | 15.97806 | 108° | 38km/h | 3044m | -1.5m/s | -1.3°C | 65.3% | 708.3hPa | 2.7V | 00:00:00 | 00:00:00 | 00:00:00 | |
| SP3BTT-10 | 2026-09-02 07:41:16 | 52.08241 | 15.97749 | 93° | 40km/h | 3050m | -1.0m/s | -1.3°C | 66.0% | 707.8hPa | 2.7V | 00:00:00 | 00:00:00 | 08:30:00 | |
| KRY50SP-1 | 2026-09-02 07:41:15 | 52.08241 | 15.97749 | 94° | 37km/h | 3050m | -1.0m/s | -1.3°C | 65.5% | 707.8hPa | 2.7V | 00:00:00 | 00:00:00 | 00:00:00 | |
| KRY50SP-1 | 2026-09-02 07:41:09 | 52.08245 | 15.97647 | 104° | 44km/h | 3058m | -1.1m/s | -1.4°C | 65.6% | 707.1hPa | 2.7V | 00:00:00 | 00:00:00 | 00:00:00 | |
| KRY50SP-1 | 2026-09-02 07:41:04 | 52.08257 | 15.97568 | 99° | 35km/h | 3064m | -1.5m/s | -1.4°C | 65.9% | 706.6hPa | 2.7V | 00:00:00 | 00:00:00 | 00:00:00 | |
| SP3WXH-11 | 2026-09-02 07:40:55 | 52.08269 | 15.97400 | 103° | 40km/h | 3077m | -1.1m/s | -1.6°C | 66.2% | 705.4hPa | 2.7V | 00:00:00 | 00:00:00 | 00:00:00 | |
| KRY50SP-1 | 2026-09-02 07:40:50 | 52.08274 | 15.97337 | 91° | 40km/h | 3082m | -1.5m/s | -1.6°C | 66.2% | 704.9hPa | 2.7V | 00:00:00 | 00:00:00 | 00:00:00 | |
| KRY50SP-1 | 2026-09-02 07:40:44 | 52.08279 | 15.97230 | 102° | 44km/h | 3091m | -1.4m/s | -1.6°C | 66.2% | 704.2hPa | 2.7V | 00:00:00 | 00:00:00 | 00:00:00 | |
| SP6BVK | 2026-09-02 07:40:38 | 52.08289 | 15.97130 | 95° | 42km/h | 3099m | -1.2m/s | -1.7°C | 65.9% | 703.5hPa | 2.7V | 00:00:00 | 00:00:00 | 00:00:00 | |
| SP3BTT-10 | 2026-09-02 07:40:36 | 52.08291 | 15.97075 | 97° | 44km/h | 3103m | -1.0m/s | -1.6°C | 66.0% | 703.1hPa | 2.7V | 00:00:00 | 00:00:00 | 00:00:00 | |
| KRY50SP-1 | 2026-09-02 07:40:33 | 52.08295 | 15.97037 | 103° | 44km/h | 3105m | -1.4m/s | -1.7°C | 65.5% | 703.0hPa | 2.7V | 00:00:00 | 00:00:00 | 00:00:00 | |
| KRY50SP-1 | 2026-09-02 07:40:28 | 52.08303 | 15.96956 | 90° | 40km/h | 3112m | -1.1m/s | -1.8°C | 65.5% | 702.4hPa | 2.7V | 00:00:00 | 00:00:00 | 00:00:00 | |
| SP3WXH-11 | 2026-09-02 07:40:24 | 52.08305 | 15.96865 | 96° | 46km/h | 3118m | -1.4m/s | -1.8°C | 65.5% | 701.9hPa | 2.7V | 00:00:00 | 00:00:00 | 00:00:00 | |
| KRY50SP-1 | 2026-09-02 07:40:22 | 52.08307 | 15.96846 | 103° | 47km/h | 3120m | -1.2m/s | -1.8°C | 65.4% | 701.7hPa | 2.7V | 00:00:00 | 00:00:00 | 00:00:00 | |
| EDDB2-11 | 2026-09-02 07:40:17 | 52.08318 | 15.96742 | 89° | 40km/h | 3126m | -1.2m/s | -1.9°C | 65.4% | 701.1hPa | 2.7V | 00:00:00 | 00:00:00 | 00:00:00 | |
| KRY50SP-1 | 2026-09-02 07:40:16 | 52.08318 | 15.96742 | 90° | 40km/h | 3127m | -1.2m/s | -1.9°C | 65.4% | 701.1hPa | 2.7V | 00:00:00 | 00:00:00 | 00:00:00 | |
| SONDE2-11 | 2026-09-02 07:40:15 | 52.08319 | 15.96668 | 93° | 47km/h | 3132m | -1.2m/s | -1.9°C | 65.4% | 700.7hPa | 2.7V | 00:00:00 | 00:00:00 | 00:00:00 | |
| KRY50SP-1 | 2026-09-02 07:40:10 | 52.08322 | 15.96629 | 99° | 47km/h | 3134m | -1.3m/s | -1.9°C | 65.4% | 700.4hPa | 2.7V | 00:00:00 | 00:00:00 | 00:00:00 | |
| SP3BTT-10 | 2026-09-02 07:40:06 | 52.08331 | 15.96538 | 95° | 46km/h | 3140m | -1.1m/s | -1.9°C | 66.0% | 699.9hPa | 2.7V | 00:00:00 | 00:00:00 | 00:00:00 | |
| KRY50SP-1 | 2026-09-02 07:40:05 | 52.08331 | 15.96538 | 95° | 42km/h | 3140m | -1.1m/s | -1.9°C | 65.5% | 700.0hPa | 2.7V | 00:00:00 | 00:00:00 | 00:00:00 | |
| EDDB2-12 | 2026-09-02 07:40:01 | 52.08333 | 15.96445 | 92° | 47km/h | 3146m | -1.1m/s | -2.0°C | 65.4% | 699.3hPa | 2.7V | 00:00:00 | 00:00:00 | 00:00:00 | |
| SP3WXH-11 | 2026-09-02 07:39:53 | 52.08349 | 15.96299 | 91° | 42km/h | 3156m | -1.1m/s | -2.0°C | 65.5% | 698.5hPa | 2.7V | 00:00:00 | 00:00:00 | 00:00:00 | |
| EDDB2-11 | 2026-09-02 07:39:46 | 52.08354 | 15.96163 | 100° | 47km/h | 3164m | -1.2m/s | -2.1°C | 65.4% | 697.7hPa | 2.7V | 00:00:00 | 00:00:00 | 00:00:00 | |
| SONDE2-11 | 2026-09-02 07:39:44 | 52.08359 | 15.96126 | 101° | 42km/h | 3167m | -1.1m/s | -2.1°C | 65.5% | 697.5hPa | 2.7V | 00:00:00 | 00:00:00 | 00:00:00 | |
| KRY50SP-1 | 2026-09-02 07:39:42 | 52.08361 | 15.96109 | 101° | 40km/h | 3168m | -1.3m/s | -2.1°C | 65.5% | 697.3hPa | 2.7V | 00:00:00 | 00:00:00 | 00:00:00 | |
| KRY50SP-1 | 2026-09-02 07:39:37 | 52.08364 | 15.96022 | 92° | 47km/h | 3175m | -1.2m/s | -2.1°C | 65.6% | 696.8hPa | 2.7V | 00:00:00 | 00:00:00 | 00:00:00 | |
| SP3BTT-10 | 2026-09-02 07:39:36 | 52.08366 | 15.95981 | 96° | 47km/h | 3177m | -1.1m/s | -2.1°C | 66.0% | 696.6hPa | 2.7V | 00:00:00 | 00:00:00 | 00:00:00 | |
| KRY50SP-1 | 2026-09-02 07:39:31 | 52.08374 | 15.95903 | 102° | 44km/h | 3182m | -1.4m/s | -2.2°C | 65.7% | 696.2hPa | 2.7V | 00:00:00 | 00:00:00 | 00:00:00 | |
| KRY50SP-1 | 2026-09-02 07:39:26 | 52.08379 | 15.95815 | 91° | 46km/h | 3189m | -1.4m/s | -2.2°C | 65.4% | 695.7hPa | 2.7V | 00:00:00 | 00:00:00 | 00:00:00 | |
| SP3WXH-11 | 2026-09-02 07:39:22 | 52.08383 | 15.95710 | 99° | 51km/h | 3195m | -1.2m/s | -2.2°C | 65.7% | 695.2hPa | 2.7V | 00:00:00 | 00:00:00 | 00:00:00 | |
| KRY50SP-1 | 2026-09-02 07:39:21 | 52.08383 | 15.95710 | 100° | 51km/h | 3195m | -1.2m/s | -2.2°C | 65.7% | 695.2hPa | 2.7V | 00:00:00 | 00:00:00 | 00:00:00 | |
| SP6BVK | 2026-09-02 07:39:16 | 52.08390 | 15.95617 | 93° | 42km/h | 3200m | -1.2m/s | -2.3°C | 65.9% | 694.6hPa | 2.7V | 00:00:00 | 00:00:00 | 00:00:00 | |
| EDDB2-11 | 2026-09-02 07:39:15 | 52.08390 | 15.95581 | 86° | 44km/h | 3203m | -1.4m/s | -2.3°C | 65.6% | 694.5hPa | 2.7V | 00:00:00 | 00:00:00 | 00:00:00 | |
| KRY50SP-1 | 2026-09-02 07:39:14 | 52.08390 | 15.95580 | 88° | 46km/h | 3203m | -1.4m/s | -2.3°C | 65.6% | 694.5hPa | 2.7V | 00:00:00 | 00:00:00 | 00:00:00 | |
| KRY50SP-1 | 2026-09-02 07:39:08 | 52.08395 | 15.95456 | 104° | 51km/h | 3210m | -1.2m/s | -2.4°C | 65.6% | 693.7hPa | 2.7V | 00:00:00 | 00:00:00 | 00:00:00 | |
| SP3BTT-10 | 2026-09-02 07:39:06 | 52.08402 | 15.95400 | 98° | 46km/h | 3213m | -0.9m/s | -2.3°C | 66.1% | 693.6hPa | 2.7V | 00:00:00 | 00:00:00 | 00:00:00 | |
| KRY50SP-1 | 2026-09-02 07:39:03 | 52.08403 | 15.95365 | 91° | 42km/h | 3215m | -1.3m/s | -2.4°C | 65.2% | 693.3hPa | 2.7V | 00:00:00 | 00:00:00 | 00:00:00 | |
| EDDB2-12 | 2026-09-02 07:38:59 | 52.08404 | 15.95267 | 94° | 51km/h | 3221m | -1.0m/s | -2.4°C | 64.8% | 692.7hPa | 2.7V | 00:00:00 | 00:00:00 | 00:00:00 | |
| SP3WXH-11 | 2026-09-02 07:38:51 | 52.08415 | 15.95117 | 88° | 42km/h | 3230m | -1.4m/s | -2.5°C | 64.8% | 691.9hPa | 2.7V | 00:00:00 | 00:00:00 | 00:00:00 | |
| EDDB2-11 | 2026-09-02 07:38:44 | 52.08423 | 15.94975 | 101° | 47km/h | 3239m | -1.1m/s | -2.5°C | 64.7% | 691.1hPa | 2.7V | 00:00:00 | 00:00:00 | 00:00:00 | |
| SONDE2-11 | 2026-09-02 07:38:42 | 52.08429 | 15.94921 | 100° | 40km/h | 3243m | -1.2m/s | -2.6°C | 64.6% | 690.8hPa | 2.7V | 00:00:00 | 00:00:00 | 00:00:00 | |
| SP3BTT-10 | 2026-09-02 07:38:36 | 52.08433 | 15.94831 | 95° | 47km/h | 3249m | -1.1m/s | -2.5°C | 65.3% | 690.4hPa | 2.7V | 00:00:00 | 00:00:00 | 00:00:00 | |
| SP6BVK | 2026-09-02 07:38:35 | 52.08434 | 15.94831 | 95° | 49km/h | 3249m | -1.2m/s | -2.6°C | 64.8% | 690.4hPa | 2.7V | 00:00:00 | 00:00:00 | 00:00:00 | |
| KRY50SP-1 | 2026-09-02 07:38:34 | 52.08435 | 15.94810 | 96° | 51km/h | 3250m | -1.2m/s | -2.6°C | 64.4% | 690.1hPa | 2.7V | 00:00:00 | 00:00:00 | 00:00:00 | |
| EDDB2-12 | 2026-09-02 07:38:28 | 52.08450 | 15.94679 | 94° | 40km/h | 3258m | -1.2m/s | -2.6°C | 62.8% | 689.5hPa | 2.7V | 00:00:00 | 00:00:00 | 00:00:00 | |
| KRY50SP-1 | 2026-09-02 07:38:22 | 52.08451 | 15.94586 | 95° | 53km/h | 3265m | -1.3m/s | -2.6°C | 61.0% | 689.0hPa | 2.7V | 00:00:00 | 00:00:00 | 00:00:00 | |
| SP3WXH-11 | 2026-09-02 07:38:20 | 52.08457 | 15.94524 | 101° | 47km/h | 3268m | -1.2m/s | -2.6°C | 60.3% | 688.6hPa | 2.7V | 00:00:00 | 00:00:00 | 00:00:00 | |
| KRY50SP-1 | 2026-09-02 07:38:16 | 52.08464 | 15.94469 | 107° | 42km/h | 3272m | -1.2m/s | -2.7°C | 60.3% | 688.2hPa | 2.7V | 00:00:00 | 00:00:00 | 00:00:00 | |
| SP6BVK | 2026-09-02 07:38:15 | 52.08467 | 15.94452 | 101° | 42km/h | 3274m | -1.0m/s | -2.7°C | 60.6% | 688.2hPa | 2.7V | 00:00:00 | 00:00:00 | 00:00:00 | |
| EDDB2-11 | 2026-09-02 07:38:13 | 52.08469 | 15.94400 | 89° | 44km/h | 3277m | -1.3m/s | -2.7°C | 60.9% | 688.0hPa | 2.7V | 00:00:00 | 00:00:00 | 00:00:00 | |
| SONDE2-11 | 2026-09-02 07:38:11 | 52.08469 | 15.94361 | 90° | 47km/h | 3279m | -1.2m/s | -2.7°C | 61.2% | 687.7hPa | 2.7V | 00:00:00 | 00:00:00 | 00:00:00 | |
| KRY50SP-1 | 2026-09-02 07:38:10 | 52.08469 | 15.94361 | 92° | 49km/h | 3279m | -1.2m/s | -2.7°C | 61.2% | 687.7hPa | 2.7V | 00:00:00 | 00:00:00 | 00:00:00 | |
| SP3BTT-10 | 2026-09-02 07:38:06 | 52.08478 | 15.94261 | 104° | 46km/h | 3286m | -1.1m/s | -2.7°C | 62.0% | 687.2hPa | 2.7V | 00:00:00 | 00:00:00 | 00:00:00 | |
| KRY50SP-1 | 2026-09-02 07:38:05 | 52.08478 | 15.94261 | 105° | 47km/h | 3286m | -1.1m/s | -2.8°C | 61.5% | 687.2hPa | 2.7V | 00:00:00 | 00:00:00 | 00:00:00 | |
| EDDB2-12 | 2026-09-02 07:37:57 | 52.08492 | 15.94101 | 97° | 51km/h | 3295m | -1.1m/s | -2.9°C | 62.1% | 686.3hPa | 2.7V | 00:00:00 | 00:00:00 | 00:00:00 | |
| SP3WXH-11 | 2026-09-02 07:37:49 | 52.08510 | 15.93958 | 93° | 40km/h | 3304m | -1.2m/s | -2.9°C | 62.6% | 685.4hPa | 2.7V | 00:00:00 | 00:00:00 | 00:00:00 | |
| KRY50SP-1 | 2026-09-02 07:37:48 | 52.08510 | 15.93958 | 95° | 42km/h | 3304m | -1.2m/s | -2.9°C | 62.6% | 685.4hPa | 2.7V | 00:00:00 | 00:00:00 | 00:00:00 | |
| KRY50SP-1 | 2026-09-02 07:37:43 | 52.08515 | 15.93861 | 101° | 49km/h | 3311m | -1.2m/s | -3.0°C | 62.6% | 684.9hPa | 2.7V | 00:00:00 | 00:00:00 | 00:00:00 | |
| EDDB2-11 | 2026-09-02 07:37:42 | 52.08521 | 15.93822 | 107° | 46km/h | 3313m | -1.5m/s | -3.0°C | 62.7% | 684.7hPa | 2.7V | 00:00:00 | 00:00:00 | 00:00:00 | |
| SONDE2-11 | 2026-09-02 07:37:40 | 52.08532 | 15.93753 | 99° | 40km/h | 3318m | -1.1m/s | -3.1°C | 63.0% | 684.2hPa | 2.7V | 00:00:00 | 00:00:00 | 00:00:00 | |
| KRY50SP-1 | 2026-09-02 07:37:37 | 52.08532 | 15.93753 | 101° | 40km/h | 3318m | -1.1m/s | -3.1°C | 63.0% | 684.2hPa | 2.7V | 00:00:00 | 00:00:00 | 00:00:00 | |
| SP3BTT-10 | 2026-09-02 07:37:36 | 52.08534 | 15.93720 | 94° | 44km/h | 3320m | -1.0m/s | -3.0°C | 63.6% | 684.1hPa | 2.7V | 00:00:00 | 00:00:00 | 00:00:00 | |
| SP6BVK | 2026-09-02 07:37:34 | 52.08535 | 15.93702 | 94° | 44km/h | 3321m | -1.2m/s | -3.1°C | 63.1% | 683.9hPa | 2.7V | 00:00:00 | 00:00:00 | 00:00:00 | |
| KRY50SP-1 | 2026-09-02 07:37:32 | 52.08539 | 15.93644 | 101° | 51km/h | 3325m | -1.4m/s | -3.1°C | 63.2% | 683.6hPa | 2.7V | 00:00:00 | 00:00:00 | 00:00:00 | |
| EDDB2-12 | 2026-09-02 07:37:26 | 52.08555 | 15.93536 | 102° | 38km/h | 3333m | -1.3m/s | -3.2°C | 63.2% | 683.0hPa | 2.7V | 00:00:00 | 00:00:00 | 00:00:00 | |
| KRY50SP-1 | 2026-09-02 07:37:20 | 52.08562 | 15.93449 | 97° | 49km/h | 3339m | -1.5m/s | -3.3°C | 63.8% | 682.5hPa | 2.7V | 00:00:00 | 00:00:00 | 00:00:00 | |
| SP3WXH-11 | 2026-09-02 07:37:18 | 52.08569 | 15.93389 | 105° | 49km/h | 3343m | -1.4m/s | -3.3°C | 63.8% | 682.0hPa | 2.7V | 00:00:00 | 00:00:00 | 00:00:00 | |
| KRY50SP-1 | 2026-09-02 07:37:14 | 52.08578 | 15.93334 | 108° | 42km/h | 3347m | -1.6m/s | -3.3°C | 63.8% | 681.7hPa | 2.7V | 00:00:00 | 00:00:00 | 00:00:00 | |
| EDDB2-11 | 2026-09-02 07:37:11 | 52.08587 | 15.93269 | 95° | 40km/h | 3352m | -1.5m/s | -3.4°C | 63.9% | 681.3hPa | 2.7V | 00:00:00 | 00:00:00 | 00:00:00 | |
| SONDE2-11 | 2026-09-02 07:37:09 | 52.08589 | 15.93234 | 94° | 44km/h | 3355m | -1.2m/s | -3.4°C | 64.1% | 681.0hPa | 2.7V | 00:00:00 | 00:00:00 | 00:00:00 | |
| KRY50SP-1 | 2026-09-02 07:37:08 | 52.08589 | 15.93234 | 96° | 46km/h | 3355m | -1.2m/s | -3.4°C | 64.1% | 681.0hPa | 2.7V | 00:00:00 | 00:00:00 | 00:00:00 | |
| SP3BTT-10 | 2026-09-02 07:37:06 | 52.08594 | 15.93178 | 101° | 44km/h | 3359m | -1.2m/s | -3.4°C | 64.8% | 680.6hPa | 2.7V | 00:00:00 | 00:00:00 | 08:30:00 | |
| KRY50SP-1 | 2026-09-02 07:37:02 | 52.08603 | 15.93123 | 106° | 44km/h | 3363m | -1.5m/s | -3.5°C | 64.5% | 680.3hPa | 2.7V | 00:00:00 | 00:00:00 | 00:00:00 | |
| EDDB2-12 | 2026-09-02 07:36:55 | 52.08625 | 15.92975 | 108° | 44km/h | 3374m | -1.3m/s | -3.5°C | 64.7% | 679.4hPa | 2.7V | 00:00:00 | 00:00:00 | 00:00:00 | |
| SP3WXH-11 | 2026-09-02 07:36:47 | 52.08642 | 15.92841 | 100° | 47km/h | 3385m | -1.4m/s | -3.7°C | 65.4% | 678.5hPa | 2.7V | 00:00:00 | 00:00:00 | 00:00:00 | |
| KRY50SP-1 | 2026-09-02 07:36:46 | 52.08642 | 15.92841 | 101° | 47km/h | 3385m | -1.4m/s | -3.7°C | 65.4% | 678.5hPa | 2.7V | 00:00:00 | 00:00:00 | 00:00:00 | |
| EDDB2-11 | 2026-09-02 07:36:40 | 52.08664 | 15.92718 | 104° | 35km/h | 3394m | -1.7m/s | -3.7°C | 65.5% | 677.6hPa | 2.7V | 00:00:00 | 00:00:00 | 00:00:00 | |
| SONDE2-11 | 2026-09-02 07:36:38 | 52.08667 | 15.92687 | 97° | 38km/h | 3397m | -1.3m/s | -3.8°C | 65.9% | 677.4hPa | 2.7V | 00:00:00 | 00:00:00 | 00:00:00 | |
| SP3BTT-10 | 2026-09-02 07:36:36 | 52.08670 | 15.92653 | 97° | 44km/h | 3401m | -1.4m/s | -3.7°C | 66.5% | 677.3hPa | 2.7V | 00:00:00 | 00:00:00 | 00:00:00 | |
| KRY50SP-1 | 2026-09-02 07:36:34 | 52.08671 | 15.92635 | 99° | 47km/h | 3402m | -1.4m/s | -3.8°C | 66.1% | 677.1hPa | 2.7V | 00:00:00 | 00:00:00 | 00:00:00 | |
| SP6BVK | 2026-09-02 07:36:33 | 52.08673 | 15.92616 | 100° | 49km/h | 3403m | -1.3m/s | -3.8°C | 66.0% | 676.9hPa | 2.7V | 00:00:00 | 00:00:00 | 00:00:00 | |
| KRY50SP-1 | 2026-09-02 07:36:29 | 52.08686 | 15.92540 | 110° | 44km/h | 3409m | -1.2m/s | -3.8°C | 66.3% | 676.5hPa | 2.7V | 00:00:00 | 00:00:00 | 00:00:00 | |
| EDDB2-12 | 2026-09-02 07:36:24 | 52.08701 | 15.92445 | 95° | 42km/h | 3417m | -1.3m/s | -3.9°C | 67.0% | 675.8hPa | 2.7V | 00:00:00 | 00:00:00 | 00:00:00 | |
| KRY50SP-1 | 2026-09-02 07:36:18 | 52.08712 | 15.92351 | 108° | 47km/h | 3424m | -1.4m/s | -4.0°C | 67.2% | 675.2hPa | 2.7V | 00:00:00 | 00:00:00 | 00:00:00 | |
| SP3WXH-11 | 2026-09-02 07:36:16 | 52.08724 | 15.92301 | 110° | 40km/h | 3428m | -1.4m/s | -4.0°C | 67.3% | 674.8hPa | 2.7V | 00:00:00 | 00:00:00 | 00:00:00 | |
| EDDB2-11 | 2026-09-02 07:36:09 | 52.08739 | 15.92185 | 103° | 47km/h | 3438m | -1.6m/s | -4.1°C | 67.9% | 673.9hPa | 2.7V | 00:00:00 | 00:00:00 | 00:00:00 | |
| SONDE2-11 | 2026-09-02 07:36:07 | 52.08746 | 15.92147 | 111° | 46km/h | 3441m | -1.5m/s | -4.1°C | 67.9% | 673.7hPa | 2.7V | 00:00:00 | 00:00:00 | 00:00:00 | |
| SP3BTT-10 | 2026-09-02 07:36:06 | 52.08750 | 15.92129 | 109° | 40km/h | 3442m | -1.5m/s | -4.1°C | 68.6% | 673.5hPa | 2.7V | 00:00:00 | 00:00:00 | 00:00:00 | |
| KRY50SP-1 | 2026-09-02 07:36:01 | 52.08764 | 15.92066 | 105° | 37km/h | 3448m | -1.2m/s | -4.2°C | 68.3% | 673.0hPa | 2.7V | 00:00:00 | 00:00:00 | 00:00:00 | |
| EDDB2-12 | 2026-09-02 07:35:53 | 52.08785 | 15.91914 | 109° | 42km/h | 3460m | -1.4m/s | -4.3°C | 69.0% | 672.0hPa | 2.7V | 00:00:00 | 00:00:00 | 00:00:00 | |
| SP3WXH-11 | 2026-09-02 07:35:45 | 52.08804 | 15.91790 | 106° | 44km/h | 3473m | -1.5m/s | -4.5°C | 69.9% | 671.1hPa | 2.7V | 00:00:00 | 00:00:00 | 00:00:00 | |
| KRY50SP-1 | 2026-09-02 07:35:40 | 52.08819 | 15.91722 | 113° | 40km/h | 3479m | -1.2m/s | -4.5°C | 70.2% | 670.5hPa | 2.7V | 00:00:00 | 00:00:00 | 00:00:00 | |
| EDDB2-11 | 2026-09-02 07:35:38 | 52.08828 | 15.91680 | 104° | 33km/h | 3484m | -1.9m/s | -4.6°C | 70.2% | 670.1hPa | 2.7V | 00:00:00 | 00:00:00 | 00:00:00 | |
| SP3BTT-10 | 2026-09-02 07:35:36 | 52.08832 | 15.91652 | 99° | 40km/h | 3487m | -1.6m/s | -4.5°C | 71.3% | 669.8hPa | 2.7V | 00:00:00 | 00:00:00 | 00:00:00 | |
| KRY50SP-1 | 2026-09-02 07:35:35 | 52.08832 | 15.91652 | 100° | 38km/h | 3487m | -1.6m/s | -4.6°C | 70.6% | 669.9hPa | 2.7V | 00:00:00 | 00:00:00 | 00:00:00 | |
| SP6BVK | 2026-09-02 07:35:31 | 52.08840 | 15.91586 | 109° | 44km/h | 3493m | -1.3m/s | -4.6°C | 71.1% | 669.4hPa | 2.7V | 00:00:00 | 00:00:00 | 00:00:00 | |
| KRY50SP-1 | 2026-09-02 07:35:29 | 52.08847 | 15.91553 | 113° | 42km/h | 3496m | -1.5m/s | -4.7°C | 71.4% | 669.0hPa | 2.7V | 00:00:00 | 00:00:00 | 00:00:00 | |
| KRY50SP-1 | 2026-09-02 07:35:23 | 52.08864 | 15.91468 | 99° | 37km/h | 3505m | -1.6m/s | -4.7°C | 71.9% | 668.4hPa | 2.7V | 00:00:00 | 00:00:00 | 00:00:00 | |
| EDDB2-12 | 2026-09-02 07:35:22 | 52.08866 | 15.91436 | 98° | 40km/h | 3508m | -1.5m/s | -4.8°C | 72.6% | 668.1hPa | 2.7V | 00:00:00 | 00:00:00 | 00:00:00 | |
| KRY50SP-1 | 2026-09-02 07:35:17 | 52.08878 | 15.91369 | 113° | 40km/h | 3514m | -1.4m/s | -4.6°C | 71.8% | 667.5hPa | 2.7V | 00:00:00 | 00:00:00 | 00:00:00 | |
| SP3WXH-11 | 2026-09-02 07:35:14 | 52.08891 | 15.91313 | 104° | 33km/h | 3520m | -1.5m/s | -4.9°C | 73.3% | 667.1hPa | 2.7V | 00:00:00 | 00:00:00 | 00:00:00 | |
| KRY50SP-1 | 2026-09-02 07:35:12 | 52.08893 | 15.91300 | 101° | 35km/h | 3521m | -1.5m/s | -4.9°C | 73.3% | 666.9hPa | 2.7V | 00:00:00 | 00:00:00 | 00:00:00 | |
| SP6BVK | 2026-09-02 07:35:10 | 52.08895 | 15.91270 | 97° | 38km/h | 3524m | -1.6m/s | -4.9°C | 73.5% | 666.7hPa | 2.7V | 00:00:00 | 00:00:00 | 00:00:00 | |
| EDDB2-11 | 2026-09-02 07:35:07 | 52.08904 | 15.91201 | 108° | 44km/h | 3530m | -1.5m/s | -5.0°C | 75.0% | 666.2hPa | 2.7V | 00:00:00 | 00:00:00 | 00:00:00 | |
| SP3BTT-10 | 2026-09-02 07:35:06 | 52.08908 | 15.91185 | 111° | 38km/h | 3532m | -1.5m/s | -5.0°C | 75.6% | 666.0hPa | 2.7V | 00:00:00 | 00:00:00 | 00:00:00 | |
| SONDE2-11 | 2026-09-02 07:35:05 | 52.08911 | 15.91169 | 111° | 38km/h | 3534m | -1.5m/s | -5.0°C | 74.9% | 665.9hPa | 2.7V | 00:00:00 | 00:00:00 | 00:00:00 | |
| KRY50SP-1 | 2026-09-02 07:35:01 | 52.08920 | 15.91128 | 105° | 33km/h | 3538m | -1.4m/s | -5.0°C | 75.5% | 665.6hPa | 2.7V | 00:00:00 | 00:00:00 | 00:00:00 | |
| EDDB2-12 | 2026-09-02 07:34:51 | 52.08944 | 15.90959 | 108° | 33km/h | 3555m | -1.4m/s | -5.1°C | 77.1% | 664.0hPa | 2.7V | 00:00:00 | 00:00:00 | 00:00:00 | |
| KRY50SP-1 | 2026-09-02 07:34:50 | 52.08943 | 15.90959 | 109° | 35km/h | 3555m | -1.4m/s | -5.1°C | 77.1% | 664.0hPa | 2.7V | 00:00:00 | 00:00:00 | 00:00:00 | |
| SP6BVK | 2026-09-02 07:34:49 | 52.08946 | 15.90945 | 105° | 35km/h | 3556m | -1.5m/s | -5.2°C | 77.4% | 664.0hPa | 2.7V | 00:00:00 | 00:00:00 | 00:00:00 | |
| KRY50SP-1 | 2026-09-02 07:34:44 | 52.08954 | 15.90870 | 101° | 38km/h | 3564m | -1.6m/s | -5.3°C | 78.2% | 663.4hPa | 2.7V | 00:00:00 | 00:00:00 | 00:00:00 | |
| SP3WXH-11 | 2026-09-02 07:34:43 | 52.08958 | 15.90840 | 101° | 35km/h | 3567m | -1.6m/s | -5.3°C | 78.6% | 663.1hPa | 2.7V | 00:00:00 | 00:00:00 | 00:00:00 | |
| KRY50SP-1 | 2026-09-02 07:34:39 | 52.08962 | 15.90798 | 97° | 35km/h | 3572m | -1.8m/s | -5.3°C | 79.2% | 662.7hPa | 2.7V | 00:00:00 | 00:00:00 | 00:00:00 | |
| SP3BTT-10 | 2026-09-02 07:34:36 | 52.08966 | 15.90734 | 100° | 37km/h | 3578m | -1.4m/s | -5.3°C | 80.2% | 662.1hPa | 2.7V | 00:00:00 | 00:00:00 | 00:00:00 | |
| SONDE2-11 | 2026-09-02 07:34:34 | 52.08971 | 15.90700 | 105° | 40km/h | 3581m | -1.6m/s | -5.4°C | 80.0% | 662.0hPa | 2.7V | 00:00:00 | 00:00:00 | 00:00:00 | |
| KRY50SP-1 | 2026-09-02 07:34:29 | 52.08981 | 15.90643 | 103° | 33km/h | 3587m | -1.6m/s | -5.4°C | 80.3% | 661.2hPa | 2.7V | 00:00:00 | 00:00:00 | 00:00:00 | |
| KRY50SP-1 | 2026-09-02 07:34:23 | 52.08987 | 15.90552 | 99° | 40km/h | 3597m | -1.7m/s | -5.5°C | 80.8% | 660.5hPa | 2.7V | 00:00:00 | 00:00:00 | 00:00:00 | |
| EDDB2-12 | 2026-09-02 07:34:20 | 52.08994 | 15.90494 | 100° | 31km/h | 3603m | -1.5m/s | -5.6°C | 81.1% | 660.0hPa | 2.7V | 00:00:00 | 00:00:00 | 00:00:00 | |
| KRY50SP-1 | 2026-09-02 07:34:17 | 52.08996 | 15.90468 | 94° | 33km/h | 3606m | -1.5m/s | -5.6°C | 81.0% | 659.7hPa | 2.7V | 00:00:00 | 00:00:00 | 00:00:00 | |
| SP3WXH-11 | 2026-09-02 07:34:12 | 52.09001 | 15.90372 | 102° | 38km/h | 3615m | -1.3m/s | -5.6°C | 81.7% | 659.0hPa | 2.7V | 00:00:00 | 00:00:00 | 00:00:00 | |
| SP6BVK | 2026-09-02 07:34:08 | 52.09008 | 15.90329 | 105° | 33km/h | 3619m | -1.6m/s | -5.7°C | 82.0% | 658.6hPa | 2.7V | 00:00:00 | 00:00:00 | 00:00:00 | |
| SP3BTT-10 | 2026-09-02 07:34:06 | 52.09010 | 15.90291 | 92° | 35km/h | 3624m | -1.4m/s | -5.7°C | 82.5% | 658.1hPa | 2.7V | 00:00:00 | 00:00:00 | 00:00:00 | |
| EDDB2-11 | 2026-09-02 07:34:05 | 52.09010 | 15.90277 | 89° | 35km/h | 3626m | -1.5m/s | -5.7°C | 81.7% | 658.1hPa | 2.7V | 00:00:00 | 00:00:00 | 00:00:00 | |
| SONDE2-11 | 2026-09-02 07:34:03 | 52.09010 | 15.90246 | 90° | 38km/h | 3629m | -1.9m/s | -5.8°C | 81.8% | 657.9hPa | 2.7V | 00:00:00 | 00:00:00 | 00:00:00 | |
| EDDB2-12 | 2026-09-02 07:33:49 | 52.09021 | 15.90045 | 99° | 37km/h | 3651m | -1.7m/s | -5.9°C | 82.1% | 656.0hPa | 2.7V | 00:00:00 | 00:00:00 | 00:00:00 | |
| SP6BVK | 2026-09-02 07:33:47 | 52.09023 | 15.90031 | 105° | 35km/h | 3653m | -1.2m/s | -5.9°C | 82.1% | 656.0hPa | 2.7V | 00:00:00 | 00:00:00 | 00:00:00 | |
| KRY50SP-1 | 2026-09-02 07:33:44 | 52.09029 | 15.89992 | 102° | 29km/h | 3657m | -1.4m/s | -5.9°C | 81.8% | 655.6hPa | 2.7V | 00:00:00 | 00:00:00 | 00:00:00 | |
| SP3WXH-11 | 2026-09-02 07:33:41 | 52.09030 | 15.89942 | 88° | 33km/h | 3663m | -1.5m/s | -6.0°C | 81.9% | 655.0hPa | 2.7V | 00:00:00 | 00:00:00 | 00:00:00 | |
| KRY50SP-1 | 2026-09-02 07:33:39 | 52.09030 | 15.89927 | 92° | 37km/h | 3664m | -1.4m/s | -6.0°C | 82.1% | 654.9hPa | 2.7V | 00:00:00 | 00:00:00 | 00:00:00 | |
| SP3BTT-10 | 2026-09-02 07:33:36 | 52.09036 | 15.89868 | 105° | 33km/h | 3670m | -1.3m/s | -5.9°C | 83.1% | 654.3hPa | 2.7V | 00:00:00 | 00:00:00 | 00:00:00 | |
| EDDB2-11 | 2026-09-02 07:33:34 | 52.09041 | 15.89843 | 105° | 29km/h | 3673m | -1.2m/s | -6.0°C | 82.0% | 654.1hPa | 2.7V | 00:00:00 | 00:00:00 | 00:00:00 | |
| SONDE2-11 | 2026-09-02 07:33:32 | 52.09043 | 15.89819 | 93° | 27km/h | 3676m | -1.7m/s | -6.0°C | 81.9% | 653.9hPa | 2.7V | 00:00:00 | 00:00:00 | 00:00:00 | |
| KRY50SP-1 | 2026-09-02 07:33:29 | 52.09043 | 15.89794 | 89° | 33km/h | 3679m | -1.5m/s | -6.0°C | 82.0% | 653.7hPa | 2.7V | 00:00:00 | 00:00:00 | 00:00:00 | |
| SP6BVK | 2026-09-02 07:33:27 | 52.09043 | 15.89765 | 94° | 38km/h | 3682m | -1.3m/s | -6.1°C | 82.2% | 653.5hPa | 2.7V | 00:00:00 | 00:00:00 | 00:00:00 | |
| EDDB2-12 | 2026-09-02 07:33:18 | 52.09057 | 15.89632 | 91° | 31km/h | 3697m | -1.3m/s | -6.1°C | 82.2% | 652.1hPa | 2.7V | 00:00:00 | 00:00:00 | 00:00:00 | |
| KRY50SP-1 | 2026-09-02 07:33:12 | 52.09064 | 15.89561 | 107° | 35km/h | 3705m | -1.3m/s | -6.2°C | 82.8% | 651.5hPa | 2.7V | 00:00:00 | 00:00:00 | 00:00:00 | |
| SP3WXH-11 | 2026-09-02 07:33:10 | 52.09072 | 15.89525 | 105° | 27km/h | 3708m | -1.1m/s | -6.2°C | 83.0% | 651.2hPa | 2.7V | 00:00:00 | 00:00:00 | 00:00:00 | |
| SP6BVK | 2026-09-02 07:33:07 | 52.09074 | 15.89492 | 92° | 29km/h | 3712m | -1.3m/s | -6.2°C | 83.4% | 650.9hPa | 2.7V | 00:00:00 | 00:00:00 | 00:00:00 | |
| SP3BTT-10 | 2026-09-02 07:33:06 | 52.09074 | 15.89479 | 88° | 35km/h | 3714m | -1.6m/s | -6.2°C | 84.5% | 650.7hPa | 2.7V | 00:00:00 | 00:00:00 | 00:00:00 | |
| EDDB2-11 | 2026-09-02 07:33:03 | 52.09076 | 15.89433 | 99° | 38km/h | 3718m | -1.3m/s | -6.3°C | 83.9% | 650.5hPa | 2.7V | 00:00:00 | 00:00:00 | 00:00:00 | |
| SONDE2-11 | 2026-09-02 07:33:01 | 52.09081 | 15.89403 | 104° | 35km/h | 3721m | -1.6m/s | -6.3°C | 84.0% | 650.1hPa | 2.7V | 00:00:00 | 00:00:00 | 00:00:00 | |
| EDDB2-12 | 2026-09-02 07:32:47 | 52.09111 | 15.89221 | 110° | 29km/h | 3741m | -1.4m/s | -6.4°C | 84.5% | 648.5hPa | 2.7V | 00:00:00 | 00:00:00 | 00:00:00 | |
| SP6BVK | 2026-09-02 07:32:46 | 52.09111 | 15.89221 | 112° | 31km/h | 3741m | -1.4m/s | -6.4°C | 84.5% | 648.5hPa | 2.7V | 00:00:00 | 00:00:00 | 00:00:00 | |
| KRY50SP-1 | 2026-09-02 07:32:45 | 52.09114 | 15.89209 | 107° | 29km/h | 3743m | -1.6m/s | -6.4°C | 84.6% | 648.3hPa | 2.7V | 00:00:00 | 00:00:00 | 00:00:00 | |
| SP3WXH-11 | 2026-09-02 07:32:39 | 52.09126 | 15.89111 | 108° | 37km/h | 3752m | -1.2m/s | -6.4°C | 83.6% | 647.4hPa | 2.7V | 00:00:00 | 00:00:00 | 00:00:00 | |
| KRY50SP-1 | 2026-09-02 07:32:34 | 52.09138 | 15.89059 | 110° | 31km/h | 3758m | -1.5m/s | -6.4°C | 83.1% | 647.1hPa | 2.7V | 00:00:00 | 00:00:00 | 00:00:00 | |
| EDDB2-11 | 2026-09-02 07:32:32 | 52.09143 | 15.89021 | 100° | 35km/h | 3762m | -1.2m/s | -6.5°C | 82.9% | 646.8hPa | 2.7V | 00:00:00 | 00:00:00 | 00:00:00 | |
| SONDE2-11 | 2026-09-02 07:32:30 | 52.09148 | 15.88976 | 105° | 38km/h | 3766m | -1.2m/s | -6.5°C | 81.9% | 646.4hPa | 2.7V | 00:00:00 | 00:00:00 | 00:00:00 | |
| KRY50SP-1 | 2026-09-02 07:32:28 | 52.09148 | 15.88976 | 107° | 40km/h | 3766m | -1.2m/s | -6.5°C | 81.9% | 646.4hPa | 2.7V | 00:00:00 | 00:00:00 | 00:00:00 | |
| SP6BVK | 2026-09-02 07:32:25 | 52.09159 | 15.88931 | 117° | 37km/h | 3770m | -1.4m/s | -6.5°C | 81.3% | 646.1hPa | 2.7V | 00:00:00 | 00:00:00 | 00:00:00 | |
| KRY50SP-1 | 2026-09-02 07:32:22 | 52.09168 | 15.88895 | 108° | 29km/h | 3774m | -1.3m/s | -6.5°C | 80.7% | 645.7hPa | 2.7V | 00:00:00 | 00:00:00 | 00:00:00 | |
| EDDB2-12 | 2026-09-02 07:32:16 | 52.09181 | 15.88780 | 109° | 38km/h | 3786m | -1.3m/s | -6.4°C | 74.4% | 644.9hPa | 2.7V | 00:00:00 | 00:00:00 | 00:00:00 | |
| KRY50SP-1 | 2026-09-02 07:32:10 | 52.09192 | 15.88728 | 105° | 29km/h | 3791m | -1.4m/s | -6.4°C | 70.8% | 644.4hPa | 2.7V | 00:00:00 | 00:00:00 | 00:00:00 | |
| SP3WXH-11 | 2026-09-02 07:32:08 | 52.09196 | 15.88690 | 92° | 35km/h | 3795m | -1.3m/s | -6.4°C | 69.1% | 644.2hPa | 2.7V | 00:00:00 | 00:00:00 | 00:00:00 | |
| SP3BTT-10 | 2026-09-02 07:32:06 | 52.09197 | 15.88660 | 97° | 35km/h | 3798m | -1.4m/s | -6.3°C | 68.3% | 643.8hPa | 2.7V | 00:00:00 | 00:00:00 | 00:00:00 | |
| SP6BVK | 2026-09-02 07:32:05 | 52.09197 | 15.88660 | 97° | 40km/h | 3798m | -1.4m/s | -6.4°C | 67.5% | 643.9hPa | 2.7V | 00:00:00 | 00:00:00 | 00:00:00 | |
| KRY50SP-1 | 2026-09-02 07:32:04 | 52.09199 | 15.88643 | 103° | 40km/h | 3799m | -1.3m/s | -6.3°C | 67.0% | 643.8hPa | 2.7V | 00:00:00 | 00:00:00 | 00:00:00 | |
| EDDB2-11 | 2026-09-02 07:32:01 | 52.09213 | 15.88573 | 106° | 29km/h | 3805m | -1.4m/s | -6.4°C | 65.5% | 643.2hPa | 2.7V | 00:00:00 | 00:00:00 | 00:00:00 | |
| SONDE2-11 | 2026-09-02 07:31:59 | 52.09216 | 15.88550 | 99° | 29km/h | 3808m | -1.1m/s | -6.4°C | 64.3% | 643.1hPa | 2.7V | 00:00:00 | 00:00:00 | 00:00:00 | |
| EDDB2-12 | 2026-09-02 07:31:45 | 52.09239 | 15.88377 | 94° | 29km/h | 3825m | -1.6m/s | -6.4°C | 60.1% | 641.7hPa | 2.7V | 00:00:00 | 00:00:00 | 00:00:00 | |
| KRY50SP-1 | 2026-09-02 07:31:42 | 52.09240 | 15.88351 | 95° | 37km/h | 3828m | -1.4m/s | -6.4°C | 59.8% | 641.3hPa | 2.7V | 00:00:00 | 00:00:00 | 00:00:00 | |
| SP3WXH-11 | 2026-09-02 07:31:37 | 52.09255 | 15.88262 | 113° | 33km/h | 3836m | -1.0m/s | -6.4°C | 59.7% | 640.8hPa | 2.7V | 00:00:00 | 00:00:00 | 00:00:00 | |
| SP3BTT-10 | 2026-09-02 07:31:36 | 52.09258 | 15.88251 | 114° | 35km/h | 3837m | -1.4m/s | -6.4°C | 60.6% | 640.6hPa | 2.7V | 00:00:00 | 00:00:00 | 00:00:00 | |
| EDDB2-11 | 2026-09-02 07:31:30 | 52.09268 | 15.88158 | 102° | 38km/h | 3846m | -1.2m/s | -6.5°C | 61.0% | 639.8hPa | 2.7V | 00:00:00 | 00:00:00 | 00:00:00 | |
| SONDE2-11 | 2026-09-02 07:31:28 | 52.09273 | 15.88126 | 110° | 38km/h | 3848m | -1.3m/s | -6.5°C | 61.2% | 639.7hPa | 2.7V | 00:00:00 | 00:00:00 | 00:00:00 | |
| KRY50SP-1 | 2026-09-02 07:31:25 | 52.09277 | 15.88112 | 113° | 37km/h | 3849m | -1.4m/s | -6.5°C | 61.1% | 639.5hPa | 2.7V | 00:00:00 | 00:00:00 | 00:00:00 | |
| SP6BVK | 2026-09-02 07:31:24 | 52.09280 | 15.88098 | 114° | 35km/h | 3851m | -1.3m/s | -6.5°C | 61.2% | 639.4hPa | 2.7V | 00:00:00 | 00:00:00 | 00:00:00 | |
| KRY50SP-1 | 2026-09-02 07:31:20 | 52.09290 | 15.88050 | 104° | 31km/h | 3856m | -1.5m/s | -6.5°C | 61.6% | 639.1hPa | 2.7V | 00:00:00 | 00:00:00 | 00:00:00 | |
| EDDB2-12 | 2026-09-02 07:31:14 | 52.09309 | 15.87950 | 115° | 35km/h | 3865m | -1.0m/s | -6.6°C | 61.8% | 638.5hPa | 2.7V | 00:00:00 | 00:00:00 | 00:00:00 | |
| KRY50SP-1 | 2026-09-02 07:31:09 | 52.09321 | 15.87901 | 106° | 31km/h | 3869m | -1.6m/s | -6.6°C | 61.9% | 638.0hPa | 2.7V | 00:00:00 | 00:00:00 | 00:00:00 | |
| SP3BTT-10 | 2026-09-02 07:31:06 | 52.09332 | 15.87844 | 109° | 38km/h | 3875m | -1.1m/s | -6.5°C | 62.2% | 637.5hPa | 2.7V | 00:00:00 | 00:00:00 | 00:00:00 | |
| SP6BVK | 2026-09-02 07:31:03 | 52.09339 | 15.87813 | 115° | 40km/h | 3877m | -1.0m/s | -6.6°C | 61.0% | 637.3hPa | 2.7V | 00:00:00 | 00:00:00 | 00:00:00 | |
| EDDB2-11 | 2026-09-02 07:30:59 | 52.09360 | 15.87735 | 105° | 35km/h | 3884m | -1.2m/s | -6.6°C | 60.3% | 636.9hPa | 2.7V | 00:00:00 | 00:00:00 | 00:00:00 | |
| SONDE2-11 | 2026-09-02 07:30:57 | 52.09365 | 15.87705 | 105° | 40km/h | 3886m | -1.0m/s | -6.6°C | 59.5% | 636.8hPa | 2.7V | 00:00:00 | 00:00:00 | 00:00:00 | |
| KRY50SP-1 | 2026-09-02 07:30:53 | 52.09371 | 15.87673 | 112° | 42km/h | 3889m | -1.2m/s | -6.6°C | 59.1% | 636.6hPa | 2.7V | 00:00:00 | 00:00:00 | 00:00:00 | |
| KRY50SP-1 | 2026-09-02 07:30:47 | 52.09396 | 15.87589 | 115° | 33km/h | 3896m | -1.0m/s | -6.5°C | 56.6% | 635.8hPa | 2.7V | 00:00:00 | 00:00:00 | 00:00:00 | |
| KRY50SP-1 | 2026-09-02 07:30:42 | 52.09411 | 15.87519 | 111° | 42km/h | 3901m | -1.1m/s | -6.5°C | 55.5% | 635.4hPa | 2.7V | 00:00:00 | 00:00:00 | 00:00:00 | |
| 13BRC | 2026-09-02 07:30:41 | 52.09415 | 15.87503 | 113° | 42km/h | 3903m | -1.2m/s | -6.5°C | 54.8% | 635.3hPa | 2.7V | 00:00:00 | 00:00:00 | 00:00:00 | |
| KRY50SP-1 | 2026-09-02 07:30:37 | 52.09431 | 15.87442 | 117° | 40km/h | 3908m | -1.0m/s | -6.5°C | 53.2% | 635.0hPa | 2.7V | 00:00:00 | 00:00:00 | 00:00:00 | |
| SP3BTT-10 | 2026-09-02 07:30:36 | 52.09440 | 15.87412 | 113° | 40km/h | 3910m | -1.0m/s | -6.5°C | 53.5% | 634.6hPa | 2.7V | 00:00:00 | 00:00:00 | 00:00:00 | |
| SP3WXH-11 | 2026-09-02 07:30:35 | 52.09444 | 15.87396 | 111° | 42km/h | 3911m | -1.1m/s | -6.5°C | 52.9% | 634.6hPa | 2.7V | 00:00:00 | 00:00:00 | 00:00:00 | |
| KRY50SP-1 | 2026-09-02 07:30:32 | 52.09453 | 15.87363 | 117° | 44km/h | 3913m | -1.2m/s | -6.5°C | 52.8% | 634.4hPa | 2.7V | 00:00:00 | 00:00:00 | 00:00:00 | |
| EDDB2-11 | 2026-09-02 07:30:28 | 52.09481 | 15.87283 | 109° | 33km/h | 3920m | -1.2m/s | -6.6°C | 52.6% | 633.8hPa | 2.7V | 00:00:00 | 00:00:00 | 00:00:00 | |
| KRY50SP-1 | 2026-09-02 07:30:26 | 52.09481 | 15.87282 | 110° | 35km/h | 3920m | -1.2m/s | -6.6°C | 52.6% | 633.8hPa | 2.7V | 00:00:00 | 00:00:00 | 00:00:00 | |
| SONDE2-11 | 2026-09-02 07:30:25 | 52.09487 | 15.87254 | 104° | 38km/h | 3922m | -1.1m/s | -6.6°C | 52.4% | 633.7hPa | 2.7V | 00:00:00 | 00:00:00 | 00:00:00 | |
| SP6BVK | 2026-09-02 07:30:22 | 52.09492 | 15.87221 | 110° | 44km/h | 3925m | -1.0m/s | -6.6°C | 51.8% | 633.6hPa | 2.7V | 00:00:00 | 00:00:00 | 00:00:00 | |
| KRY50SP-1 | 2026-09-02 07:30:21 | 52.09496 | 15.87204 | 113° | 46km/h | 3926m | -1.2m/s | -6.6°C | 51.5% | 633.3hPa | 2.7V | 00:00:00 | 00:00:00 | 00:00:00 | |
| KRY50SP-1 | 2026-09-02 07:30:16 | 52.09521 | 15.87128 | 122° | 37km/h | 3932m | -1.0m/s | -6.6°C | 51.5% | 633.0hPa | 2.7V | 00:00:00 | 00:00:00 | 00:00:00 | |
| KRY50SP-1 | 2026-09-02 07:30:11 | 52.09538 | 15.87056 | 108° | 42km/h | 3937m | -1.0m/s | -6.6°C | 51.7% | 632.5hPa | 2.7V | 00:00:00 | 00:00:00 | 00:00:00 | |
| SP3BTT-10 | 2026-09-02 07:30:06 | 52.09566 | 15.86958 | 120° | 40km/h | 3944m | -0.8m/s | -6.5°C | 51.7% | 631.9hPa | 2.7V | 00:00:00 | 00:00:00 | 00:00:00 | |
| KRY50SP-1 | 2026-09-02 07:30:05 | 52.09566 | 15.86958 | 121° | 40km/h | 3944m | -0.9m/s | -6.5°C | 51.1% | 632.0hPa | 2.7V | 00:00:00 | 00:00:00 | 00:00:00 | |
| SP3WXH-11 | 2026-09-02 07:30:04 | 52.09574 | 15.86931 | 112° | 35km/h | 3946m | -0.9m/s | -6.6°C | 51.1% | 631.7hPa | 2.7V | 00:00:00 | 00:00:00 | 00:00:00 | |
| SP6BVK | 2026-09-02 07:30:01 | 52.09580 | 15.86901 | 107° | 38km/h | 3948m | -1.0m/s | -6.5°C | 51.1% | 631.6hPa | 2.7V | 00:00:00 | 00:00:00 | 00:00:00 | |
| EDDB2-11 | 2026-09-02 07:29:57 | 52.09603 | 15.86801 | 117° | 42km/h | 3954m | -1.0m/s | -6.5°C | 51.0% | 631.0hPa | 2.7V | 00:00:00 | 00:00:00 | 00:00:00 | |
| SONDE2-11 | 2026-09-02 07:29:54 | 52.09613 | 15.86772 | 118° | 37km/h | 3956m | -0.9m/s | -6.5°C | 51.1% | 630.8hPa | 2.7V | 00:00:00 | 00:00:00 | 00:00:00 | |
| KRY50SP-1 | 2026-09-02 07:29:50 | 52.09623 | 15.86730 | 108° | 38km/h | 3959m | -1.1m/s | -6.5°C | 50.6% | 630.6hPa | 2.7V | 00:00:00 | 00:00:00 | 00:00:00 | |
| KRY50SP-1 | 2026-09-02 07:29:45 | 52.09638 | 15.86646 | 112° | 44km/h | 3965m | -1.2m/s | -6.5°C | 51.0% | 630.1hPa | 2.7V | 00:00:00 | 00:00:00 | 00:00:00 | |
| EDDB2-12 | 2026-09-02 07:29:41 | 52.09660 | 15.86561 | 103° | 35km/h | 3972m | -1.3m/s | -6.5°C | 50.7% | 629.5hPa | 2.7V | 00:00:00 | 00:00:00 | 00:00:00 | |
| KRY50SP-1 | 2026-09-02 07:29:39 | 52.09660 | 15.86561 | 104° | 35km/h | 3972m | -1.3m/s | -6.5°C | 50.7% | 629.5hPa | 2.7V | 00:00:00 | 00:00:00 | 00:00:00 | |
| 13BRC | 2026-09-02 07:29:38 | 52.09662 | 15.86547 | 104° | 38km/h | 3973m | -1.1m/s | -6.5°C | 50.7% | 629.6hPa | 2.7V | 00:00:00 | 00:00:00 | 00:00:00 | |
| SP3BTT-10 | 2026-09-02 07:29:36 | 52.09671 | 15.86497 | 110° | 40km/h | 3976m | -1.4m/s | -6.5°C | 51.6% | 629.2hPa | 2.7V | 00:00:00 | 00:00:00 | 00:00:00 | |
| SP3WXH-11 | 2026-09-02 07:29:33 | 52.09684 | 15.86449 | 117° | 38km/h | 3979m | -1.2m/s | -6.5°C | 51.2% | 629.0hPa | 2.7V | 00:00:00 | 00:00:00 | 00:00:00 | |
| KRY50SP-1 | 2026-09-02 07:29:27 | 52.09702 | 15.86379 | 106° | 40km/h | 3986m | -1.2m/s | -6.5°C | 50.9% | 628.5hPa | 2.7V | 00:00:00 | 00:00:00 | 00:00:00 | |
| EDDB2-11 | 2026-09-02 07:29:26 | 52.09712 | 15.86328 | 112° | 46km/h | 3989m | -1.0m/s | -6.5°C | 51.0% | 628.2hPa | 2.7V | 00:00:00 | 00:00:00 | 00:00:00 | |
| SONDE2-11 | 2026-09-02 07:29:23 | 52.09722 | 15.86293 | 116° | 44km/h | 3991m | -1.2m/s | -6.5°C | 51.3% | 628.0hPa | 2.7V | 00:00:00 | 00:00:00 | 00:00:00 | |
| KRY50SP-1 | 2026-09-02 07:29:22 | 52.09722 | 15.86293 | 118° | 44km/h | 3991m | -1.2m/s | -6.5°C | 51.3% | 628.0hPa | 2.7V | 00:00:00 | 00:00:00 | 00:00:00 | |
| SP6BVK | 2026-09-02 07:29:20 | 52.09732 | 15.86264 | 121° | 40km/h | 3993m | -1.2m/s | -6.5°C | 51.6% | 627.9hPa | 2.7V | 00:00:00 | 00:00:00 | 00:00:00 | |
| KRY50SP-1 | 2026-09-02 07:29:16 | 52.09747 | 15.86208 | 104° | 38km/h | 3998m | -1.2m/s | -6.6°C | 51.7% | 627.4hPa | 2.7V | 00:00:00 | 00:00:00 | 00:00:00 | |
| 13BRC | 2026-09-02 07:29:12 | 52.09758 | 15.86140 | 111° | 47km/h | 4003m | -1.3m/s | -6.6°C | 51.9% | 627.1hPa | 2.7V | 00:00:00 | 00:00:00 | 00:00:00 | |
| EDDB2-12 | 2026-09-02 07:29:10 | 52.09777 | 15.86075 | 118° | 37km/h | 4008m | -1.4m/s | -6.6°C | 52.1% | 626.7hPa | 2.7V | 00:00:00 | 00:00:00 | 00:00:00 | |
| SP3BTT-10 | 2026-09-02 07:29:06 | 52.09789 | 15.86036 | 109° | 40km/h | 4012m | -1.3m/s | -6.6°C | 52.5% | 626.3hPa | 2.7V | 00:00:00 | 00:00:00 | 00:00:00 | |
| KRY50SP-1 | 2026-09-02 07:29:05 | 52.09789 | 15.86036 | 109° | 33km/h | 4012m | -1.3m/s | -6.6°C | 51.9% | 626.4hPa | 2.7V | 00:00:00 | 00:00:00 | 00:00:00 | |
| SP3WXH-11 | 2026-09-02 07:29:02 | 52.09799 | 15.85977 | 106° | 42km/h | 4017m | -1.1m/s | -6.6°C | 52.4% | 626.1hPa | 2.7V | 00:00:00 | 00:00:00 | 00:00:00 | |
| EDDB2-11 | 2026-09-02 07:28:55 | 52.09835 | 15.85856 | 109° | 35km/h | 4026m | -1.4m/s | -6.7°C | 53.0% | 625.2hPa | 2.7V | 00:00:00 | 00:00:00 | 00:00:00 | |
| SONDE2-11 | 2026-09-02 07:28:52 | 52.09840 | 15.85826 | 103° | 38km/h | 4029m | -1.0m/s | -6.6°C | 52.8% | 625.0hPa | 2.7V | 00:00:00 | 00:00:00 | 00:00:00 | |
| KRY50SP-1 | 2026-09-02 07:28:49 | 52.09845 | 15.85793 | 108° | 44km/h | 4031m | -1.2m/s | -6.6°C | 52.5% | 624.9hPa | 2.7V | 00:00:00 | 00:00:00 | 00:00:00 | |
| KRY50SP-1 | 2026-09-02 07:28:44 | 52.09869 | 15.85713 | 121° | 38km/h | 4037m | -1.0m/s | -6.6°C | 51.9% | 624.3hPa | 2.7V | 00:00:00 | 00:00:00 | 00:00:00 | |
| EDDB2-12 | 2026-09-02 07:28:39 | 52.09894 | 15.85613 | 111° | 44km/h | 4046m | -1.1m/s | -6.6°C | 51.7% | 623.8hPa | 2.7V | 00:00:00 | 00:00:00 | 00:00:00 | |
| SP3BTT-10 | 2026-09-02 07:28:36 | 52.09904 | 15.85579 | 118° | 42km/h | 4048m | -1.3m/s | -6.6°C | 52.3% | 623.4hPa | 2.7V | 00:00:00 | 00:00:00 | 00:00:00 | |
| KRY50SP-1 | 2026-09-02 07:28:33 | 52.09915 | 15.85547 | 124° | 42km/h | 4051m | -1.2m/s | -6.6°C | 51.6% | 623.3hPa | 2.7V | 00:00:00 | 00:00:00 | 00:00:00 | |
| SP3WXH-11 | 2026-09-02 07:28:31 | 52.09934 | 15.85494 | 113° | 37km/h | 4056m | -1.3m/s | -6.7°C | 51.6% | 623.0hPa | 2.7V | 00:00:00 | 00:00:00 | 00:00:00 | |
| KRY50SP-1 | 2026-09-02 07:28:27 | 52.09940 | 15.85464 | 108° | 42km/h | 4059m | -1.4m/s | -6.7°C | 51.5% | 622.6hPa | 2.7V | 00:00:00 | 00:00:00 | 00:00:00 | |
| EDDB2-11 | 2026-09-02 07:28:24 | 52.09963 | 15.85379 | 121° | 44km/h | 4065m | -1.1m/s | -6.7°C | 51.2% | 622.2hPa | 2.7V | 00:00:00 | 00:00:00 | 00:00:00 | |
| KRY50SP-1 | 2026-09-02 07:28:22 | 52.09969 | 15.85364 | 124° | 42km/h | 4066m | -1.4m/s | -6.7°C | 51.0% | 622.0hPa | 2.7V | 00:00:00 | 00:00:00 | 00:00:00 | |
| SONDE2-11 | 2026-09-02 07:28:21 | 52.09974 | 15.85350 | 122° | 37km/h | 4067m | -1.1m/s | -6.7°C | 51.0% | 621.9hPa | 2.7V | 00:00:00 | 00:00:00 | 00:00:00 | |
| SP6BVK | 2026-09-02 07:28:18 | 52.09983 | 15.85324 | 115° | 35km/h | 4070m | -1.6m/s | -6.7°C | 51.0% | 621.7hPa | 2.7V | 00:00:00 | 00:00:00 | 00:00:00 | |
| KRY50SP-1 | 2026-09-02 07:28:15 | 52.09992 | 15.85282 | 111° | 40km/h | 4074m | -1.3m/s | -6.7°C | 51.3% | 621.3hPa | 2.7V | 00:00:00 | 00:00:00 | 00:00:00 | |
| KRY50SP-1 | 2026-09-02 07:28:09 | 52.10022 | 15.85186 | 121° | 42km/h | 4082m | -1.5m/s | -6.8°C | 51.4% | 620.7hPa | 2.7V | 00:00:00 | 00:00:00 | 00:00:00 | |
| EDDB2-12 | 2026-09-02 07:28:08 | 52.10037 | 15.85139 | 115° | 44km/h | 4086m | -1.4m/s | -6.8°C | 51.5% | 620.5hPa | 2.7V | 00:00:00 | 00:00:00 | 00:00:00 | |
| SP3BTT-10 | 2026-09-02 07:28:06 | 52.10041 | 15.85122 | 115° | 44km/h | 4088m | -1.2m/s | -6.8°C | 52.2% | 620.3hPa | 2.7V | 00:00:00 | 00:00:00 | 08:30:00 | |
| SP3WXH-11 | 2026-09-02 07:28:00 | 52.10080 | 15.85011 | 117° | 40km/h | 4099m | -1.3m/s | -6.8°C | 50.9% | 619.6hPa | 2.7V | 00:00:00 | 00:00:00 | 00:00:00 | |
| EDDB2-11 | 2026-09-02 07:27:53 | 52.10114 | 15.84893 | 121° | 47km/h | 4107m | -1.2m/s | -6.8°C | 50.4% | 618.7hPa | 2.7V | 00:00:00 | 00:00:00 | 00:00:00 | |
| SONDE2-11 | 2026-09-02 07:27:50 | 52.10127 | 15.84861 | 123° | 42km/h | 4110m | -1.2m/s | -6.8°C | 50.1% | 618.4hPa | 2.7V | 00:00:00 | 00:00:00 | 00:00:00 | |
| KRY50SP-1 | 2026-09-02 07:27:46 | 52.10142 | 15.84818 | 114° | 40km/h | 4114m | -1.5m/s | -6.8°C | 50.2% | 618.2hPa | 2.7V | 00:00:00 | 00:00:00 | 00:00:00 | |
| KRY50SP-1 | 2026-09-02 07:27:40 | 52.10170 | 15.84714 | 123° | 49km/h | 4123m | -1.5m/s | -6.8°C | 49.8% | 617.4hPa | 2.7V | 00:00:00 | 00:00:00 | 00:00:00 | |
| 13BRC | 2026-09-02 07:27:39 | 52.10177 | 15.84698 | 124° | 46km/h | 4125m | -1.3m/s | -6.8°C | 49.7% | 617.3hPa | 2.7V | 00:00:00 | 00:00:00 | 00:00:00 | |
| SP6BVK | 2026-09-02 07:27:38 | 52.10183 | 15.84683 | 126° | 44km/h | 4126m | -1.4m/s | -6.8°C | 49.8% | 617.2hPa | 2.7V | 00:00:00 | 00:00:00 | 00:00:00 | |
| EDDB2-12 | 2026-09-02 07:27:37 | 52.10198 | 15.84641 | 114° | 38km/h | 4130m | -1.4m/s | -6.8°C | 49.6% | 616.9hPa | 2.7V | 00:00:00 | 00:00:00 | 00:00:00 | |
| SP3BTT-10 | 2026-09-02 07:27:36 | 52.10198 | 15.84640 | 115° | 42km/h | 4130m | -1.4m/s | -6.7°C | 50.3% | 616.9hPa | 2.7V | 00:00:00 | 00:00:00 | 00:00:00 | |
| KRY50SP-1 | 2026-09-02 07:27:35 | 52.10198 | 15.84640 | 116° | 38km/h | 4130m | -1.4m/s | -6.8°C | 49.6% | 616.9hPa | 2.7V | 00:00:00 | 00:00:00 | 00:00:00 | |
| KRY50SP-1 | 2026-09-02 07:27:30 | 52.10219 | 15.84556 | 117° | 49km/h | 4138m | -1.3m/s | -6.7°C | 48.3% | 616.4hPa | 2.7V | 00:00:00 | 00:00:00 | 00:00:00 | |
| SP3WXH-11 | 2026-09-02 07:27:29 | 52.10238 | 15.84507 | 125° | 42km/h | 4143m | -1.4m/s | -6.6°C | 47.0% | 616.0hPa | 2.7V | 00:00:00 | 00:00:00 | 00:00:00 | |
| KRY50SP-1 | 2026-09-02 07:27:24 | 52.10253 | 15.84466 | 119° | 37km/h | 4148m | -1.5m/s | -6.6°C | 46.4% | 615.7hPa | 2.7V | 00:00:00 | 00:00:00 | 00:00:00 | |
| EDDB2-11 | 2026-09-02 07:27:22 | 52.10268 | 15.84405 | 111° | 44km/h | 4153m | -1.5m/s | -6.6°C | 46.0% | 615.1hPa | 2.7V | 00:00:00 | 00:00:00 | 00:00:00 | |
| SONDE2-11 | 2026-09-02 07:27:19 | 52.10278 | 15.84371 | 119° | 46km/h | 4156m | -1.6m/s | -6.7°C | 45.9% | 615.0hPa | 2.7V | 00:00:00 | 00:00:00 | 00:00:00 | |
| 13BRC | 2026-09-02 07:27:16 | 52.10290 | 15.84339 | 125° | 44km/h | 4160m | -1.3m/s | -6.6°C | 45.8% | 614.7hPa | 2.7V | 00:00:00 | 00:00:00 | 00:00:00 | |
| KRY50SP-1 | 2026-09-02 07:27:12 | 52.10312 | 15.84286 | 120° | 37km/h | 4166m | -1.4m/s | -6.7°C | 45.6% | 614.2hPa | 2.7V | 00:00:00 | 00:00:00 | 00:00:00 | |
| EDDB2-12 | 2026-09-02 07:27:06 | 52.10348 | 15.84160 | 123° | 40km/h | 4178m | -1.5m/s | -6.7°C | 45.5% | 613.1hPa | 2.7V | 00:00:00 | 00:00:00 | 00:00:00 | |
| KRY50SP-1 | 2026-09-02 07:27:01 | 52.10364 | 15.84120 | 118° | 37km/h | 4182m | -1.6m/s | -6.8°C | 45.4% | 612.8hPa | 2.7V | 00:00:00 | 00:00:00 | 00:00:00 | |
| SP3WXH-11 | 2026-09-02 07:26:58 | 52.10381 | 15.84045 | 109° | 44km/h | 4190m | -1.8m/s | -6.8°C | 45.3% | 612.2hPa | 2.7V | 00:00:00 | 00:00:00 | 00:00:00 | |
| EDDB2-11 | 2026-09-02 07:26:51 | 52.10417 | 15.83942 | 117° | 33km/h | 4203m | -1.8m/s | -6.8°C | 45.1% | 611.3hPa | 2.7V | 00:00:00 | 00:00:00 | 00:00:00 | |
| SONDE2-11 | 2026-09-02 07:26:48 | 52.10424 | 15.83915 | 111° | 37km/h | 4206m | -1.3m/s | -6.8°C | 45.1% | 611.1hPa | 2.7V | 00:00:00 | 00:00:00 | 00:00:00 | |
| KRY50SP-1 | 2026-09-02 07:26:44 | 52.10435 | 15.83869 | 114° | 42km/h | 4211m | -1.5m/s | -6.8°C | 45.4% | 610.7hPa | 2.7V | 00:00:00 | 00:00:00 | 00:00:00 | |
| KRY50SP-1 | 2026-09-02 07:26:39 | 52.10456 | 15.83795 | 115° | 38km/h | 4219m | -1.8m/s | -6.9°C | 45.8% | 610.1hPa | 2.7V | 00:00:00 | 00:00:00 | 00:00:00 | |
| SP3BTT-10 | 2026-09-02 07:26:36 | 52.10471 | 15.83730 | 112° | 44km/h | 4225m | -1.6m/s | -6.9°C | 46.6% | 609.5hPa | 2.7V | 00:00:00 | 00:00:00 | 00:00:00 | |
| 13BRC | 2026-09-02 07:26:35 | 52.10471 | 15.83730 | 112° | 47km/h | 4225m | -1.7m/s | -7.0°C | 45.9% | 609.5hPa | 2.7V | 00:00:00 | 00:00:00 | 00:00:00 | |
| EDDB2-12 | 2026-09-02 07:26:34 | 52.10481 | 15.83695 | 117° | 47km/h | 4228m | -1.4m/s | -7.0°C | 46.0% | 609.3hPa | 2.7V | 00:00:00 | 00:00:00 | 00:00:00 | |
| KRY50SP-1 | 2026-09-02 07:26:33 | 52.10481 | 15.83695 | 119° | 47km/h | 4228m | -1.4m/s | -7.0°C | 46.0% | 609.3hPa | 2.7V | 00:00:00 | 00:00:00 | 00:00:00 | |
| SP3WXH-11 | 2026-09-02 07:26:27 | 52.10519 | 15.83579 | 106° | 38km/h | 4241m | -1.7m/s | -7.1°C | 46.5% | 608.2hPa | 2.7V | 00:00:00 | 00:00:00 | 00:00:00 | |
| KRY50SP-1 | 2026-09-02 07:26:22 | 52.10530 | 15.83529 | 115° | 47km/h | 4246m | -1.7m/s | -7.1°C | 46.6% | 607.9hPa | 2.7V | 00:00:00 | 00:00:00 | 00:00:00 | |
| EDDB2-11 | 2026-09-02 07:26:20 | 52.10553 | 15.83463 | 122° | 40km/h | 4252m | -1.5m/s | -7.2°C | 46.7% | 607.4hPa | 2.7V | 00:00:00 | 00:00:00 | 00:00:00 | |
| SONDE2-11 | 2026-09-02 07:26:17 | 52.10564 | 15.83435 | 118° | 38km/h | 4255m | -1.8m/s | -7.2°C | 47.1% | 607.2hPa | 2.7V | 00:00:00 | 00:00:00 | 00:00:00 | |
| KRY50SP-1 | 2026-09-02 07:26:16 | 52.10564 | 15.83435 | 120° | 38km/h | 4256m | -1.8m/s | -7.2°C | 47.1% | 607.2hPa | 2.7V | 00:00:00 | 00:00:00 | 00:00:00 | |
| 13BRC | 2026-09-02 07:26:14 | 52.10572 | 15.83405 | 112° | 40km/h | 4259m | -1.6m/s | -7.2°C | 47.0% | 606.9hPa | 2.7V | 00:00:00 | 00:00:00 | 00:00:00 | |
| KRY50SP-1 | 2026-09-02 07:26:11 | 52.10583 | 15.83354 | 111° | 46km/h | 4264m | -1.6m/s | -7.3°C | 46.8% | 606.5hPa | 2.7V | 00:00:00 | 00:00:00 | 00:00:00 | |
| SP3BTT-10 | 2026-09-02 07:26:06 | 52.10617 | 15.83254 | 119° | 46km/h | 4273m | -1.6m/s | -7.2°C | 47.0% | 605.7hPa | 2.7V | 00:00:00 | 00:00:00 | 00:00:00 | |
| KRY50SP-1 | 2026-09-02 07:26:05 | 52.10617 | 15.83254 | 119° | 40km/h | 4273m | -1.6m/s | -7.3°C | 46.3% | 605.8hPa | 2.7V | 00:00:00 | 00:00:00 | 00:00:00 | |
| EDDB2-12 | 2026-09-02 07:26:03 | 52.10629 | 15.83207 | 111° | 42km/h | 4277m | -1.6m/s | -7.3°C | 46.3% | 605.4hPa | 2.7V | 00:00:00 | 00:00:00 | 00:00:00 | |
| SP3WXH-11 | 2026-09-02 07:25:56 | 52.10671 | 15.83067 | 122° | 42km/h | 4289m | -1.8m/s | -7.3°C | 46.2% | 604.4hPa | 2.7V | 00:00:00 | 00:00:00 | 00:00:00 | |
| EDDB2-11 | 2026-09-02 07:25:48 | 52.10700 | 15.82949 | 111° | 51km/h | 4300m | -1.4m/s | -7.4°C | 46.2% | 603.7hPa | 2.7V | 00:00:00 | 00:00:00 | 00:00:00 | |
| SONDE2-11 | 2026-09-02 07:25:46 | 52.10712 | 15.82910 | 119° | 51km/h | 4303m | -1.8m/s | -7.4°C | 46.1% | 603.4hPa | 2.7V | 00:00:00 | 00:00:00 | 00:00:00 | |
| KRY50SP-1 | 2026-09-02 07:25:42 | 52.10731 | 15.82861 | 125° | 42km/h | 4308m | -1.6m/s | -7.4°C | 46.1% | 603.1hPa | 2.7V | 00:00:00 | 00:00:00 | 00:00:00 | |
| SP3BTT-10 | 2026-09-02 07:25:36 | 52.10759 | 15.82745 | 113° | 44km/h | 4319m | -1.4m/s | -7.5°C | 46.5% | 602.2hPa | 2.7V | 00:00:00 | 00:00:00 | 00:00:00 | |
| SP6BVK | 2026-09-02 07:25:35 | 52.10759 | 15.82745 | 113° | 51km/h | 4319m | -1.5m/s | -7.5°C | 45.8% | 602.2hPa | 2.7V | 00:00:00 | 00:00:00 | 00:00:00 | |
| EDDB2-12 | 2026-09-02 07:25:32 | 52.10782 | 15.82675 | 124° | 44km/h | 4325m | -1.3m/s | -7.5°C | 45.2% | 601.7hPa | 2.7V | 00:00:00 | 00:00:00 | 00:00:00 | |
| KRY50SP-1 | 2026-09-02 07:25:30 | 52.10788 | 15.82660 | 123° | 42km/h | 4326m | -1.3m/s | -7.5°C | 45.5% | 601.7hPa | 2.7V | 00:00:00 | 00:00:00 | 00:00:00 | |
| 13BRC | 2026-09-02 07:25:28 | 52.10797 | 15.82631 | 113° | 40km/h | 4329m | -1.2m/s | -7.6°C | 45.2% | 601.5hPa | 2.7V | 00:00:00 | 00:00:00 | 00:00:00 | |
| SP3WXH-11 | 2026-09-02 07:25:25 | 52.10815 | 15.82544 | 111° | 49km/h | 4337m | -1.5m/s | -7.6°C | 43.9% | 600.9hPa | 2.7V | 00:00:00 | 00:00:00 | 00:00:00 | |
| KRY50SP-1 | 2026-09-02 07:25:20 | 52.10833 | 15.82491 | 123° | 47km/h | 4342m | -1.3m/s | -7.6°C | 43.2% | 600.4hPa | 2.7V | 00:00:00 | 00:00:00 | 00:00:00 | |
| EDDB2-11 | 2026-09-02 07:25:17 | 52.10853 | 15.82429 | 111° | 40km/h | 4347m | -1.5m/s | -7.6°C | 42.5% | 600.1hPa | 2.7V | 00:00:00 | 00:00:00 | 00:00:00 | |
| SONDE2-11 | 2026-09-02 07:25:15 | 52.10860 | 15.82396 | 107° | 44km/h | 4350m | -1.6m/s | -7.6°C | 42.3% | 599.8hPa | 2.7V | 00:00:00 | 00:00:00 | 00:00:00 | |
| SP6BVK | 2026-09-02 07:25:14 | 52.10860 | 15.82395 | 108° | 46km/h | 4350m | -1.6m/s | -7.6°C | 42.3% | 599.8hPa | 2.7V | 00:00:00 | 00:00:00 | 00:00:00 | |
| KRY50SP-1 | 2026-09-02 07:25:08 | 52.10886 | 15.82290 | 119° | 40km/h | 4360m | -1.3m/s | -7.7°C | 41.2% | 599.1hPa | 2.7V | 00:00:00 | 00:00:00 | 00:00:00 | |
| SP3BTT-10 | 2026-09-02 07:25:06 | 52.10899 | 15.82247 | 108° | 38km/h | 4364m | -1.6m/s | -7.6°C | 41.3% | 598.7hPa | 2.7V | 00:00:00 | 00:00:00 | 00:00:00 | |
| 13BRC | 2026-09-02 07:25:05 | 52.10899 | 15.82247 | 108° | 37km/h | 4364m | -1.6m/s | -7.7°C | 40.6% | 598.7hPa | 2.7V | 00:00:00 | 00:00:00 | 00:00:00 | |
| KRY50SP-1 | 2026-09-02 07:25:03 | 52.10905 | 15.82217 | 104° | 42km/h | 4367m | -1.4m/s | -7.7°C | 40.3% | 598.4hPa | 2.7V | 00:00:00 | 00:00:00 | 00:00:00 | |
| EDDB2-12 | 2026-09-02 07:25:01 | 52.10913 | 15.82164 | 106° | 46km/h | 4371m | -1.4m/s | -7.7°C | 40.4% | 598.1hPa | 2.7V | 00:00:00 | 00:00:00 | 00:00:00 | |
| SP3WXH-11 | 2026-09-02 07:24:54 | 52.10950 | 15.82043 | 110° | 37km/h | 4384m | -1.4m/s | -7.8°C | 40.0% | 597.1hPa | 2.7V | 00:00:00 | 00:00:00 | 00:00:00 | |
| EDDB2-11 | 2026-09-02 07:24:46 | 52.10972 | 15.81933 | 111° | 40km/h | 4395m | -1.4m/s | -7.8°C | 40.0% | 596.3hPa | 2.7V | 00:00:00 | 00:00:00 | 00:00:00 | |
| SONDE2-11 | 2026-09-02 07:24:44 | 52.10981 | 15.81904 | 116° | 38km/h | 4398m | -1.4m/s | -7.8°C | 39.8% | 596.2hPa | 2.7V | 00:00:00 | 00:00:00 | 00:00:00 | |
| KRY50SP-1 | 2026-09-02 07:24:41 | 52.10988 | 15.81877 | 116° | 35km/h | 4401m | -1.7m/s | -7.8°C | 39.8% | 595.9hPa | 2.7V | 00:00:00 | 00:00:00 | 00:00:00 | |
| 13BRC | 2026-09-02 07:24:38 | 52.10996 | 15.81834 | 105° | 40km/h | 4406m | -1.4m/s | -7.8°C | 39.6% | 595.6hPa | 2.7V | 00:00:00 | 00:00:00 | 00:00:00 | |
| KRY50SP-1 | 2026-09-02 07:24:37 | 52.11001 | 15.81802 | 109° | 40km/h | 4408m | -1.4m/s | -7.8°C | 39.5% | 595.4hPa | 2.7V | 00:00:00 | 00:00:00 | 00:00:00 | |
| SP3BTT-10 | 2026-09-02 07:24:36 | 52.11005 | 15.81786 | 110° | 35km/h | 4410m | -1.2m/s | -7.7°C | 40.1% | 595.4hPa | 2.7V | 00:00:00 | 00:00:00 | 00:00:00 | |
| SP6BVK | 2026-09-02 07:24:33 | 52.11013 | 15.81756 | 120° | 38km/h | 4412m | -1.5m/s | -7.8°C | 39.2% | 595.1hPa | 2.7V | 00:00:00 | 00:00:00 | 00:00:00 | |
| EDDB2-12 | 2026-09-02 07:24:30 | 52.11028 | 15.81704 | 105° | 33km/h | 4418m | -1.0m/s | -7.8°C | 38.3% | 594.6hPa | 2.7V | 00:00:00 | 00:00:00 | 00:00:00 | |
| KRY50SP-1 | 2026-09-02 07:24:24 | 52.11040 | 15.81626 | 112° | 44km/h | 4424m | -1.4m/s | -7.8°C | 38.2% | 594.1hPa | 2.7V | 00:00:00 | 00:00:00 | 00:00:00 | |
| SP3WXH-11 | 2026-09-02 07:24:23 | 52.11053 | 15.81580 | 118° | 37km/h | 4428m | -1.5m/s | -7.8°C | 38.2% | 593.8hPa | 2.7V | 00:00:00 | 00:00:00 | 00:00:00 | |
| KRY50SP-1 | 2026-09-02 07:24:18 | 52.11063 | 15.81540 | 112° | 35km/h | 4433m | -1.3m/s | -7.8°C | 38.2% | 593.3hPa | 2.7V | 00:00:00 | 00:00:00 | 00:00:00 | |
| EDDB2-11 | 2026-09-02 07:24:15 | 52.11073 | 15.81485 | 106° | 37km/h | 4438m | -1.1m/s | -7.8°C | 38.1% | 593.0hPa | 2.7V | 00:00:00 | 00:00:00 | 00:00:00 | |
| SONDE2-11 | 2026-09-02 07:24:13 | 52.11079 | 15.81458 | 115° | 35km/h | 4441m | -1.4m/s | -7.8°C | 38.1% | 592.8hPa | 2.7V | 00:00:00 | 00:00:00 | 00:00:00 | |
| SP6BVK | 2026-09-02 07:24:12 | 52.11079 | 15.81458 | 117° | 35km/h | 4441m | -1.4m/s | -7.8°C | 38.1% | 592.8hPa | 2.7V | 00:00:00 | 00:00:00 | 00:00:00 | |
| SP3BTT-10 | 2026-09-02 07:24:06 | 52.11095 | 15.81367 | 100° | 35km/h | 4451m | -1.2m/s | -7.8°C | 38.8% | 592.0hPa | 2.7V | 00:00:00 | 00:00:00 | 00:00:00 | |
| 13BRC | 2026-09-02 07:24:03 | 52.11099 | 15.81334 | 107° | 40km/h | 4453m | -1.3m/s | -7.9°C | 38.6% | 591.9hPa | 2.7V | 00:00:00 | 00:00:00 | 00:00:00 | |
| KRY50SP-1 | 2026-09-02 07:24:01 | 52.11106 | 15.81304 | 119° | 37km/h | 4456m | -1.4m/s | -7.9°C | 38.7% | 591.7hPa | 2.7V | 00:00:00 | 00:00:00 | 00:00:00 | |
| EDDB2-12 | 2026-09-02 07:23:59 | 52.11118 | 15.81267 | 113° | 29km/h | 4460m | -1.2m/s | -8.0°C | 38.5% | 591.3hPa | 2.7V | 00:00:00 | 00:00:00 | 00:00:00 | |
| SP3WXH-11 | 2026-09-02 07:23:52 | 52.11135 | 15.81155 | 110° | 38km/h | 4471m | -1.4m/s | -8.0°C | 38.8% | 590.6hPa | 2.7V | 00:00:00 | 00:00:00 | 00:00:00 | |
| SP6BVK | 2026-09-02 07:23:51 | 52.11132 | 15.81171 | 107° | 40km/h | 4470m | -1.6m/s | -8.0°C | 38.8% | 590.6hPa | 2.7V | 00:00:00 | 00:00:00 | 00:00:00 | |
| KRY50SP-1 | 2026-09-02 07:23:50 | 52.11135 | 15.81155 | 111° | 40km/h | 4471m | -1.4m/s | -8.0°C | 38.8% | 590.6hPa | 2.7V | 00:00:00 | 00:00:00 | 00:00:00 | |
| KRY50SP-1 | 2026-09-02 07:23:45 | 52.11151 | 15.81092 | 106° | 29km/h | 4478m | -1.2m/s | -8.1°C | 38.6% | 589.9hPa | 2.7V | 00:00:00 | 00:00:00 | 00:00:00 | |
| 13BRC | 2026-09-02 07:23:44 | 52.11154 | 15.81068 | 97° | 31km/h | 4481m | -1.3m/s | -8.1°C | 38.6% | 589.8hPa | 2.7V | 00:00:00 | 00:00:00 | 00:00:00 | |
| SONDE2-11 | 2026-09-02 07:23:42 | 52.11155 | 15.81040 | 96° | 37km/h | 4484m | -1.3m/s | -8.1°C | 38.6% | 589.6hPa | 2.7V | 00:00:00 | 00:00:00 | 00:00:00 | |
| KRY50SP-1 | 2026-09-02 07:23:39 | 52.11159 | 15.81008 | 105° | 40km/h | 4487m | -1.3m/s | -8.1°C | 38.6% | 589.4hPa | 2.7V | 00:00:00 | 00:00:00 | 00:00:00 | |
| SP3BTT-10 | 2026-09-02 07:23:36 | 52.11171 | 15.80951 | 110° | 35km/h | 4492m | -1.0m/s | -8.0°C | 39.1% | 588.9hPa | 2.7V | 00:00:00 | 00:00:00 | 08:30:00 | |
| KRY50SP-1 | 2026-09-02 07:23:34 | 52.11174 | 15.80939 | 111° | 29km/h | 4493m | -1.5m/s | -8.1°C | 38.5% | 588.9hPa | 2.7V | 00:00:00 | 00:00:00 | 00:00:00 | |
| SP6BVK | 2026-09-02 07:23:31 | 52.11178 | 15.80901 | 95° | 35km/h | 4497m | -1.1m/s | -8.1°C | 38.3% | 588.5hPa | 2.7V | 00:00:00 | 00:00:00 | 00:00:00 | |
| KRY50SP-1 | 2026-09-02 07:23:29 | 52.11180 | 15.80871 | 97° | 38km/h | 4499m | -1.2m/s | -8.1°C | 38.1% | 588.3hPa | 2.7V | 00:00:00 | 00:00:00 | 00:00:00 | |
| EDDB2-12 | 2026-09-02 07:23:28 | 52.11184 | 15.80837 | 105° | 42km/h | 4502m | -1.5m/s | -8.1°C | 37.9% | 588.1hPa | 2.7V | 00:00:00 | 00:00:00 | 00:00:00 | |
| KRY50SP-1 | 2026-09-02 07:23:23 | 52.11198 | 15.80782 | 116° | 31km/h | 4508m | -1.3m/s | -8.2°C | 38.0% | 587.8hPa | 2.7V | 00:00:00 | 00:00:00 | 00:00:00 | |
| 13BRC | 2026-09-02 07:23:22 | 52.11201 | 15.80771 | 106° | 29km/h | 4509m | -1.1m/s | -8.2°C | 37.9% | 587.6hPa | 2.7V | 00:00:00 | 00:00:00 | 00:00:00 | |
| SP3WXH-11 | 2026-09-02 07:23:21 | 52.11204 | 15.80736 | 90° | 31km/h | 4513m | -1.6m/s | -8.2°C | 37.9% | 587.2hPa | 2.7V | 00:00:00 | 00:00:00 | 00:00:00 | |
| KRY50SP-1 | 2026-09-02 07:23:17 | 52.11204 | 15.80708 | 91° | 38km/h | 4517m | -1.5m/s | -8.2°C | 37.8% | 587.0hPa | 2.7V | 00:00:00 | 00:00:00 | 00:00:00 | |
| EDDB2-11 | 2026-09-02 07:23:13 | 52.11215 | 15.80627 | 111° | 37km/h | 4524m | -1.3m/s | -8.2°C | 38.0% | 586.6hPa | 2.7V | 00:00:00 | 00:00:00 | 00:00:00 | |
| SONDE2-11 | 2026-09-02 07:23:11 | 52.11222 | 15.80601 | 107° | 29km/h | 4527m | -1.1m/s | -8.2°C | 38.1% | 586.3hPa | 2.7V | 00:00:00 | 00:00:00 | 00:00:00 | |
| SP6BVK | 2026-09-02 07:23:10 | 52.11222 | 15.80601 | 109° | 31km/h | 4527m | -1.1m/s | -8.2°C | 38.1% | 586.3hPa | 2.7V | 00:00:00 | 00:00:00 | 00:00:00 | |
| SP3BTT-10 | 2026-09-02 07:23:09 | 52.11226 | 15.80535 | 92° | 37km/h | 4533m | -1.4m/s | -8.2°C | 38.5% | 585.8hPa | 2.7V | 00:00:00 | 00:00:00 | 00:00:00 | |
| EDDB2-12 | 2026-09-02 07:22:57 | 52.11244 | 15.80400 | 96° | 31km/h | 4545m | -1.2m/s | -8.3°C | 37.8% | 585.0hPa | 2.7V | 00:00:00 | 00:00:00 | 00:00:00 | |
| SP3WXH-11 | 2026-09-02 07:22:50 | 52.11255 | 15.80273 | 110° | 38km/h | 4555m | -1.1m/s | -8.4°C | 37.6% | 584.1hPa | 2.7V | 00:00:00 | 00:00:00 | 00:00:00 | |
| KRY50SP-1 | 2026-09-02 07:22:49 | 52.11252 | 15.80289 | 107° | 42km/h | 4554m | -1.2m/s | -8.4°C | 37.6% | 584.1hPa | 2.7V | 00:00:00 | 00:00:00 | 00:00:00 | |
| KRY50SP-1 | 2026-09-02 07:22:44 | 52.11267 | 15.80221 | 106° | 29km/h | 4560m | -1.3m/s | -8.4°C | 37.6% | 583.6hPa | 2.7V | 00:00:00 | 00:00:00 | 00:00:00 | |
| EDDB2-11 | 2026-09-02 07:22:42 | 52.11271 | 15.80181 | 96° | 37km/h | 4564m | -1.3m/s | -8.4°C | 37.6% | 583.3hPa | 2.7V | 00:00:00 | 00:00:00 | 00:00:00 | |
| SONDE2-11 | 2026-09-02 07:22:40 | 52.11274 | 15.80149 | 100° | 40km/h | 4567m | -1.1m/s | -8.5°C | 37.6% | 583.2hPa | 2.7V | 00:00:00 | 00:00:00 | 00:00:00 | |
| KRY50SP-1 | 2026-09-02 07:22:38 | 52.11275 | 15.80132 | 103° | 42km/h | 4569m | -1.1m/s | -8.5°C | 37.6% | 583.1hPa | 2.7V | 00:00:00 | 00:00:00 | 00:00:00 | |
| SP3BTT-10 | 2026-09-02 07:22:36 | 52.11284 | 15.80086 | 110° | 37km/h | 4572m | -1.3m/s | -8.4°C | 38.3% | 582.7hPa | 2.7V | 00:00:00 | 00:00:00 | 00:00:00 | |
| KRY50SP-1 | 2026-09-02 07:22:32 | 52.11292 | 15.80048 | 106° | 31km/h | 4577m | -1.5m/s | -8.5°C | 37.9% | 582.4hPa | 2.7V | 00:00:00 | 00:00:00 | 00:00:00 | |
| KRY50SP-1 | 2026-09-02 07:22:27 | 52.11300 | 15.79975 | 107° | 40km/h | 4584m | -1.4m/s | -8.6°C | 37.9% | 582.0hPa | 2.7V | 00:00:00 | 00:00:00 | 00:00:00 | |
| EDDB2-12 | 2026-09-02 07:22:26 | 52.11307 | 15.79942 | 112° | 38km/h | 4586m | -1.2m/s | -8.6°C | 37.8% | 581.7hPa | 2.7V | 00:00:00 | 00:00:00 | 00:00:00 | |
| KRY50SP-1 | 2026-09-02 07:22:21 | 52.11321 | 15.79890 | 109° | 29km/h | 4592m | -1.3m/s | -8.6°C | 37.4% | 581.4hPa | 2.7V | 00:00:00 | 00:00:00 | 00:00:00 | |
| SP3WXH-11 | 2026-09-02 07:22:18 | 52.11326 | 15.79836 | 98° | 40km/h | 4597m | -1.3m/s | -8.6°C | 36.8% | 580.9hPa | 2.7V | 00:00:00 | 00:00:00 | 00:00:00 | |
| KRY50SP-1 | 2026-09-02 07:22:15 | 52.11331 | 15.79802 | 106° | 42km/h | 4600m | -1.4m/s | -8.6°C | 36.4% | 580.8hPa | 2.7V | 00:00:00 | 00:00:00 | 00:00:00 | |
| EDDB2-11 | 2026-09-02 07:22:11 | 52.11350 | 15.79732 | 115° | 29km/h | 4607m | -1.4m/s | -8.6°C | 35.8% | 580.3hPa | 2.7V | 00:00:00 | 00:00:00 | 00:00:00 | |
| SONDE2-11 | 2026-09-02 07:22:09 | 52.11355 | 15.79709 | 104° | 29km/h | 4610m | -1.5m/s | -8.6°C | 35.6% | 580.0hPa | 2.7V | 00:00:00 | 00:00:00 | 00:00:00 | |
| SP3BTT-10 | 2026-09-02 07:22:06 | 52.11360 | 15.79667 | 101° | 35km/h | 4615m | -1.2m/s | -8.5°C | 36.1% | 579.7hPa | 2.7V | 00:00:00 | 00:00:00 | 00:00:00 | |
| KRY50SP-1 | 2026-09-02 07:22:04 | 52.11366 | 15.79635 | 109° | 40km/h | 4618m | -1.2m/s | -8.6°C | 35.1% | 579.5hPa | 2.7V | 00:00:00 | 00:00:00 | 00:00:00 | |
| EDDB2-12 | 2026-09-02 07:21:55 | 52.11394 | 15.79518 | 98° | 35km/h | 4631m | -1.5m/s | -8.6°C | 34.2% | 578.6hPa | 2.7V | 00:00:00 | 00:00:00 | 00:00:00 | |
| SP3WXH-11 | 2026-09-02 07:21:47 | 52.11421 | 15.79404 | 118° | 31km/h | 4643m | -1.5m/s | -8.6°C | 32.7% | 577.6hPa | 2.7V | 00:00:00 | 00:00:00 | 00:00:00 | |
| KRY50SP-1 | 2026-09-02 07:21:46 | 52.11421 | 15.79404 | 120° | 31km/h | 4644m | -1.5m/s | -8.6°C | 32.7% | 577.6hPa | 2.7V | 00:00:00 | 00:00:00 | 00:00:00 | |
| EDDB2-11 | 2026-09-02 07:21:40 | 52.11437 | 15.79309 | 110° | 42km/h | 4653m | -1.5m/s | -8.7°C | 32.3% | 576.9hPa | 2.7V | 00:00:00 | 00:00:00 | 00:00:00 | |
| SONDE2-11 | 2026-09-02 07:21:38 | 52.11445 | 15.79278 | 116° | 38km/h | 4656m | -1.7m/s | -8.7°C | 31.8% | 576.6hPa | 2.7V | 00:00:00 | 00:00:00 | 00:00:00 | |
| SP3BTT-10 | 2026-09-02 07:21:35 | 52.11458 | 15.79241 | 119° | 33km/h | 4661m | -1.5m/s | -8.7°C | 31.5% | 576.3hPa | 2.7V | 00:00:00 | 00:00:00 | 00:00:00 | |
| KRY50SP-1 | 2026-09-02 07:21:29 | 52.11467 | 15.79179 | 98° | 38km/h | 4669m | -1.6m/s | -8.7°C | 28.5% | 575.6hPa | 2.7V | 00:00:00 | 00:00:00 | 00:00:00 | |
| SP6BVK | 2026-09-02 07:21:28 | 52.11468 | 15.79162 | 104° | 40km/h | 4670m | -1.4m/s | -8.7°C | 28.4% | 575.5hPa | 2.7V | 00:00:00 | 00:00:00 | 00:00:00 | |
| EDDB2-12 | 2026-09-02 07:21:24 | 52.11487 | 15.79089 | 120° | 33km/h | 4678m | -1.5m/s | -8.7°C | 28.6% | 574.9hPa | 2.7V | 00:00:00 | 00:00:00 | 00:00:00 | |
| KRY50SP-1 | 2026-09-02 07:21:18 | 52.11499 | 15.79032 | 101° | 33km/h | 4687m | -1.8m/s | -8.7°C | 28.6% | 574.3hPa | 2.7V | 00:00:00 | 00:00:00 | 00:00:00 | |
| KRY50SP-1 | 2026-09-02 07:21:13 | 52.11515 | 15.78962 | 120° | 35km/h | 4695m | -1.3m/s | -8.7°C | 28.3% | 573.7hPa | 2.7V | 00:00:00 | 00:00:00 | 00:00:00 | |
| EDDB2-11 | 2026-09-02 07:21:09 | 52.11531 | 15.78908 | 102° | 27km/h | 4702m | -1.2m/s | -8.8°C | 27.6% | 573.1hPa | 2.7V | 00:00:00 | 00:00:00 | 00:00:00 | |
| SP6BVK | 2026-09-02 07:21:08 | 52.11531 | 15.78908 | 104° | 29km/h | 4702m | -1.2m/s | -8.8°C | 27.6% | 573.1hPa | 2.7V | 00:00:00 | 00:00:00 | 00:00:00 | |
| SONDE2-11 | 2026-09-02 07:21:07 | 52.11535 | 15.78882 | 104° | 35km/h | 4705m | -1.5m/s | -8.8°C | 27.7% | 573.0hPa | 2.7V | 00:00:00 | 00:00:00 | 00:00:00 | |
| SP3BTT-10 | 2026-09-02 07:21:05 | 52.11541 | 15.78853 | 110° | 33km/h | 4708m | -1.4m/s | -8.8°C | 28.1% | 572.7hPa | 2.7V | 00:00:00 | 00:00:00 | 00:00:00 | |
| KRY50SP-1 | 2026-09-02 07:21:02 | 52.11550 | 15.78825 | 120° | 38km/h | 4711m | -1.6m/s | -8.8°C | 27.5% | 572.5hPa | 2.7V | 00:00:00 | 00:00:00 | 00:00:00 | |
| EDDB2-12 | 2026-09-02 07:20:53 | 52.11584 | 15.78710 | 116° | 37km/h | 4727m | -1.5m/s | -8.9°C | 27.0% | 571.2hPa | 2.7V | 00:00:00 | 00:00:00 | 00:00:00 | |
| SP3WXH-11 | 2026-09-02 07:20:46 | 52.11615 | 15.78621 | 107° | 29km/h | 4740m | -1.6m/s | -8.9°C | 25.2% | 570.3hPa | 2.7V | 00:00:00 | 00:00:00 | 00:00:00 | |
| EDDB2-11 | 2026-09-02 07:20:38 | 52.11644 | 15.78530 | 127° | 29km/h | 4751m | -1.6m/s | -8.9°C | 22.9% | 569.4hPa | 2.7V | 00:00:00 | 00:00:00 | 00:00:00 | |
| SONDE2-11 | 2026-09-02 07:20:36 | 52.11657 | 15.78502 | 122° | 24km/h | 4756m | -1.9m/s | -8.9°C | 22.4% | 569.0hPa | 2.7V | 00:00:00 | 00:00:00 | 00:00:00 | |
| SP3BTT-10 | 2026-09-02 07:20:35 | 52.11657 | 15.78502 | 123° | 33km/h | 4756m | -1.9m/s | -8.8°C | 22.9% | 568.9hPa | 2.7V | 00:00:00 | 00:00:00 | 00:00:00 | |
| KRY50SP-1 | 2026-09-02 07:20:32 | 52.11663 | 15.78482 | 112° | 31km/h | 4760m | -1.8m/s | -8.9°C | 22.6% | 568.8hPa | 2.6V | 00:00:00 | 00:00:00 | 00:00:00 | |
| KRY50SP-1 | 2026-09-02 07:20:27 | 52.11684 | 15.78418 | 131° | 38km/h | 4768m | -1.8m/s | -8.9°C | 21.8% | 568.2hPa | 2.6V | 00:00:00 | 00:00:00 | 00:00:00 | |
| EDDB2-12 | 2026-09-02 07:20:22 | 52.11710 | 15.78359 | 112° | 26km/h | 4778m | -1.8m/s | -9.0°C | 21.8% | 567.4hPa | 2.6V | 00:00:00 | 00:00:00 | 00:00:00 | |
| KRY50SP-1 | 2026-09-02 07:20:17 | 52.11727 | 15.78294 | 124° | 38km/h | 4787m | -1.8m/s | -9.1°C | 22.1% | 566.9hPa | 2.6V | 00:00:00 | 00:00:00 | 00:00:00 | |
| SP3WXH-11 | 2026-09-02 07:20:14 | 52.11744 | 15.78258 | 128° | 31km/h | 4792m | -1.6m/s | -9.1°C | 22.3% | 566.4hPa | 2.6V | 00:00:00 | 00:00:00 | 00:00:00 | |
| KRY50SP-1 | 2026-09-02 07:20:11 | 52.11753 | 15.78238 | 128° | 27km/h | 4795m | -1.7m/s | -9.1°C | 22.6% | 566.1hPa | 2.6V | 00:00:00 | 00:00:00 | 00:00:00 | |
| EDDB2-11 | 2026-09-02 07:20:07 | 52.11770 | 15.78180 | 115° | 38km/h | 4803m | -1.9m/s | -9.2°C | 23.0% | 565.6hPa | 2.6V | 00:00:00 | 00:00:00 | 00:00:00 | |
| KRY50SP-1 | 2026-09-02 07:20:06 | 52.11770 | 15.78180 | 117° | 38km/h | 4803m | -1.9m/s | -9.2°C | 23.0% | 565.6hPa | 2.6V | 00:00:00 | 00:00:00 | 00:00:00 | |
| SONDE2-11 | 2026-09-02 07:20:05 | 52.11786 | 15.78139 | 127° | 37km/h | 4809m | -1.8m/s | -9.2°C | 23.1% | 565.2hPa | 2.6V | 00:00:00 | 00:00:00 | 00:00:00 | |
| EDDB2-12 | 2026-09-02 07:19:51 | 52.11842 | 15.77987 | 131° | 37km/h | 4831m | -1.8m/s | -9.4°C | 25.1% | 563.5hPa | 2.6V | 00:00:00 | 00:00:00 | 00:00:00 | |
| KRY50SP-1 | 2026-09-02 07:19:49 | 52.11848 | 15.77976 | 131° | 31km/h | 4833m | -1.6m/s | -9.4°C | 25.2% | 563.5hPa | 2.6V | 00:00:00 | 00:00:00 | 00:00:00 | |
| SP6BVK | 2026-09-02 07:19:45 | 52.11862 | 15.77936 | 114° | 31km/h | 4840m | -1.7m/s | -9.4°C | 25.4% | 563.0hPa | 2.6V | 00:00:00 | 00:00:00 | 00:00:00 | |
| KRY50SP-1 | 2026-09-02 07:19:44 | 52.11865 | 15.77923 | 109° | 35km/h | 4842m | -1.7m/s | -9.4°C | 25.4% | 562.8hPa | 2.6V | 00:00:00 | 00:00:00 | 00:00:00 | |
| SP3WXH-11 | 2026-09-02 07:19:43 | 52.11871 | 15.77895 | 114° | 38km/h | 4845m | -1.6m/s | -9.5°C | 25.6% | 562.6hPa | 2.6V | 00:00:00 | 00:00:00 | 00:00:00 | |
| KRY50SP-1 | 2026-09-02 07:19:38 | 52.11892 | 15.77842 | 134° | 35km/h | 4852m | -1.7m/s | -9.5°C | 26.0% | 562.1hPa | 2.6V | 00:00:00 | 00:00:00 | 00:00:00 | |
| EDDB2-11 | 2026-09-02 07:19:36 | 52.11905 | 15.77814 | 121° | 27km/h | 4857m | -1.8m/s | -9.6°C | 27.2% | 561.7hPa | 2.6V | 00:00:00 | 00:00:00 | 00:00:00 | |
| SP3BTT-10 | 2026-09-02 07:19:35 | 52.11908 | 15.77803 | 112° | 35km/h | 4859m | -1.4m/s | -9.5°C | 27.6% | 561.5hPa | 2.6V | 00:00:00 | 00:00:00 | 00:00:00 | |
| KRY50SP-1 | 2026-09-02 07:19:33 | 52.11910 | 15.77792 | 106° | 29km/h | 4861m | -1.9m/s | -9.6°C | 26.2% | 561.5hPa | 2.6V | 00:00:00 | 00:00:00 | 00:00:00 | |
| KRY50SP-1 | 2026-09-02 07:19:28 | 52.11929 | 15.77724 | 123° | 40km/h | 4870m | -1.7m/s | -9.7°C | 27.1% | 560.9hPa | 2.6V | 00:00:00 | 00:00:00 | 00:00:00 | |
| SP6BVK | 2026-09-02 07:19:24 | 52.11949 | 15.77680 | 128° | 29km/h | 4877m | -1.8m/s | -9.7°C | 27.5% | 560.3hPa | 2.6V | 00:00:00 | 00:00:00 | 00:00:00 | |
| KRY50SP-1 | 2026-09-02 07:19:23 | 52.11953 | 15.77671 | 118° | 27km/h | 4879m | -1.8m/s | -9.7°C | 27.3% | 560.2hPa | 2.6V | 00:00:00 | 00:00:00 | 00:00:00 | |
| EDDB2-12 | 2026-09-02 07:19:20 | 52.11963 | 15.77624 | 106° | 35km/h | 4886m | -1.9m/s | -9.8°C | 26.3% | 559.6hPa | 2.6V | 00:00:00 | 00:00:00 | 00:00:00 | |
| KRY50SP-1 | 2026-09-02 07:19:17 | 52.11971 | 15.77594 | 118° | 40km/h | 4890m | -1.6m/s | -9.8°C | 25.7% | 559.3hPa | 2.6V | 00:00:00 | 00:00:00 | 00:00:00 | |
| SP3WXH-11 | 2026-09-02 07:19:12 | 52.12000 | 15.77526 | 117° | 27km/h | 4900m | -1.8m/s | -9.9°C | 26.2% | 558.6hPa | 2.6V | 00:00:00 | 00:00:00 | 00:00:00 | |
| KRY50SP-1 | 2026-09-02 07:19:06 | 52.12015 | 15.77461 | 115° | 38km/h | 4908m | -1.5m/s | -10.0°C | 26.3% | 558.0hPa | 2.6V | 00:00:00 | 00:00:00 | 00:00:00 | |
| SP3BTT-10 | 2026-09-02 07:19:05 | 52.12025 | 15.77432 | 122° | 35km/h | 4912m | -1.4m/s | -9.9°C | 27.1% | 557.7hPa | 2.6V | 00:00:00 | 00:00:00 | 08:30:00 | |
| SP6BVK | 2026-09-02 07:19:04 | 52.12025 | 15.77432 | 123° | 37km/h | 4912m | -1.4m/s | -10.0°C | 26.5% | 557.8hPa | 2.7V | 00:00:00 | 00:00:00 | 00:00:00 | |
| SONDE2-11 | 2026-09-02 07:19:03 | 52.12040 | 15.77399 | 120° | 27km/h | 4917m | -1.6m/s | -10.0°C | 27.2% | 557.4hPa | 2.7V | 00:00:00 | 00:00:00 | 00:00:00 | |
| KRY50SP-1 | 2026-09-02 07:19:01 | 52.12040 | 15.77399 | 122° | 27km/h | 4917m | -1.6m/s | -10.0°C | 27.2% | 557.4hPa | 2.7V | 00:00:00 | 00:00:00 | 00:00:00 | |
| EDDB2-12 | 2026-09-02 07:18:49 | 52.12089 | 15.77240 | 112° | 26km/h | 4939m | -1.7m/s | -10.2°C | 27.9% | 555.8hPa | 2.7V | 00:00:00 | 00:00:00 | 00:00:00 | |
| 13BRC | 2026-09-02 07:18:45 | 52.12096 | 15.77205 | 107° | 35km/h | 4945m | -1.7m/s | -10.3°C | 27.6% | 555.3hPa | 2.7V | 00:00:00 | 00:00:00 | 00:00:00 | |
| KRY50SP-1 | 2026-09-02 07:18:44 | 52.12099 | 15.77191 | 107° | 38km/h | 4947m | -1.6m/s | -10.3°C | 27.6% | 555.3hPa | 2.7V | 00:00:00 | 00:00:00 | 00:00:00 | |
| SP6BVK | 2026-09-02 07:18:43 | 52.12102 | 15.77175 | 109° | 38km/h | 4948m | -1.7m/s | -10.3°C | 27.5% | 555.2hPa | 2.7V | 00:00:00 | 00:00:00 | 00:00:00 | |
| SP3WXH-11 | 2026-09-02 07:18:41 | 52.12115 | 15.77131 | 123° | 38km/h | 4954m | -1.9m/s | -10.3°C | 28.0% | 554.8hPa | 2.7V | 00:00:00 | 00:00:00 | 00:00:00 | |
| KRY50SP-1 | 2026-09-02 07:18:38 | 52.12125 | 15.77107 | 127° | 33km/h | 4957m | -1.7m/s | -10.4°C | 28.4% | 554.4hPa | 2.7V | 00:00:00 | 00:00:00 | 00:00:00 | |
| SP3BTT-10 | 2026-09-02 07:18:35 | 52.12136 | 15.77062 | 107° | 35km/h | 4964m | -1.6m/s | -10.4°C | 29.5% | 553.8hPa | 2.7V | 00:00:00 | 00:00:00 | 00:00:00 | |
| EDDB2-11 | 2026-09-02 07:18:34 | 52.12139 | 15.77048 | 103° | 37km/h | 4965m | -1.7m/s | -10.4°C | 28.9% | 553.9hPa | 2.7V | 00:00:00 | 00:00:00 | 00:00:00 | |
| SONDE2-11 | 2026-09-02 07:18:32 | 52.12148 | 15.77003 | 114° | 40km/h | 4971m | -1.7m/s | -10.5°C | 29.4% | 553.5hPa | 2.7V | 00:00:00 | 00:00:00 | 00:00:00 | |
| KRY50SP-1 | 2026-09-02 07:18:26 | 52.12167 | 15.76953 | 123° | 31km/h | 4977m | -1.8m/s | -10.5°C | 29.6% | 553.1hPa | 2.7V | 00:00:00 | 00:00:00 | 00:00:00 | |
| 13BRC | 2026-09-02 07:18:24 | 52.12173 | 15.76930 | 107° | 31km/h | 4981m | -1.3m/s | -10.6°C | 29.7% | 552.8hPa | 2.7V | 00:00:00 | 00:00:00 | 00:00:00 | |
| SP6BVK | 2026-09-02 07:18:23 | 52.12175 | 15.76917 | 103° | 33km/h | 4982m | -1.5m/s | -10.6°C | 29.7% | 552.7hPa | 2.7V | 00:00:00 | 00:00:00 | 00:00:00 | |
| KRY50SP-1 | 2026-09-02 07:18:20 | 52.12182 | 15.76872 | 113° | 42km/h | 4987m | -1.5m/s | -10.6°C | 29.6% | 552.2hPa | 2.7V | 00:00:00 | 00:00:00 | 00:00:00 | |
| EDDB2-12 | 2026-09-02 07:18:18 | 52.12196 | 15.76828 | 123° | 37km/h | 4991m | -1.7m/s | -10.7°C | 29.8% | 552.0hPa | 2.7V | 00:00:00 | 00:00:00 | 00:00:00 | |
| KRY50SP-1 | 2026-09-02 07:18:14 | 52.12207 | 15.76794 | 116° | 27km/h | 4996m | -1.8m/s | -10.7°C | 29.7% | 551.6hPa | 2.7V | 00:00:00 | 00:00:00 | 00:00:00 | |
| KRY50SP-1 | 2026-09-02 07:18:10 | 52.12219 | 15.76727 | 107° | 42km/h | 5005m | -1.6m/s | -10.8°C | 30.4% | 551.0hPa | 2.7V | 00:00:00 | 00:00:00 | 00:00:00 | |
| EDDB2-11 | 2026-09-02 07:18:03 | 52.12248 | 15.76633 | 112° | 29km/h | 5015m | -1.8m/s | -10.9°C | 32.2% | 550.2hPa | 2.7V | 00:00:00 | 00:00:00 | 00:00:00 | |
| 13BRC | 2026-09-02 07:18:02 | 52.12248 | 15.76633 | 114° | 29km/h | 5015m | -1.8m/s | -10.9°C | 32.2% | 550.2hPa | 2.7V | 00:00:00 | 00:00:00 | 00:00:00 | |
| SONDE2-11 | 2026-09-02 07:18:01 | 52.12255 | 15.76594 | 102° | 37km/h | 5021m | -1.6m/s | -10.9°C | 33.5% | 549.8hPa | 2.7V | 00:00:00 | 00:00:00 | 00:00:00 | |
| KRY50SP-1 | 2026-09-02 07:17:57 | 52.12260 | 15.76563 | 111° | 42km/h | 5024m | -1.7m/s | -11.0°C | 33.0% | 549.6hPa | 2.7V | 00:00:00 | 00:00:00 | 00:00:00 | |
| KRY50SP-1 | 2026-09-02 07:17:52 | 52.12283 | 15.76493 | 117° | 29km/h | 5033m | -1.4m/s | -11.0°C | 31.4% | 548.9hPa | 2.7V | 00:00:00 | 00:00:00 | 00:00:00 | |
| KRY50SP-1 | 2026-09-02 07:17:47 | 52.12295 | 15.76412 | 108° | 44km/h | 5042m | -1.7m/s | -11.1°C | 31.4% | 548.3hPa | 2.7V | 00:00:00 | 00:00:00 | 00:00:00 | |
| SP6BVK | 2026-09-02 07:17:42 | 52.12313 | 15.76350 | 122° | 38km/h | 5049m | -1.9m/s | -11.2°C | 32.0% | 547.8hPa | 2.7V | 00:00:00 | 00:00:00 | 00:00:00 | |
| KRY50SP-1 | 2026-09-02 07:17:41 | 52.12318 | 15.76338 | 121° | 35km/h | 5051m | -1.8m/s | -11.2°C | 31.9% | 547.7hPa | 2.7V | 00:00:00 | 00:00:00 | 00:00:00 | |
| SP3WXH-11 | 2026-09-02 07:17:39 | 52.12328 | 15.76302 | 105° | 29km/h | 5056m | -1.6m/s | -11.2°C | 31.9% | 547.4hPa | 2.7V | 00:00:00 | 00:00:00 | 00:00:00 | |
| SP3BTT-10 | 2026-09-02 07:17:35 | 52.12335 | 15.76242 | 108° | 38km/h | 5064m | -1.9m/s | -11.2°C | 33.2% | 546.7hPa | 2.7V | 00:00:00 | 00:00:00 | 00:00:00 | |
| EDDB2-11 | 2026-09-02 07:17:32 | 52.12349 | 15.76194 | 123° | 40km/h | 5069m | -1.8m/s | -11.3°C | 32.2% | 546.4hPa | 2.7V | 00:00:00 | 00:00:00 | 00:00:00 | |
| KRY50SP-1 | 2026-09-02 07:17:29 | 52.12360 | 15.76169 | 125° | 33km/h | 5073m | -1.8m/s | -11.4°C | 32.1% | 546.2hPa | 2.7V | 00:00:00 | 00:00:00 | 00:00:00 | |
| KRY50SP-1 | 2026-09-02 07:17:24 | 52.12371 | 15.76106 | 105° | 38km/h | 5082m | -1.8m/s | -11.4°C | 32.6% | 545.6hPa | 2.7V | 00:00:00 | 00:00:00 | 00:00:00 | |
| SP6BVK | 2026-09-02 07:17:21 | 52.12380 | 15.76058 | 112° | 44km/h | 5087m | -1.6m/s | -11.5°C | 32.3% | 545.2hPa | 2.7V | 00:00:00 | 00:00:00 | 00:00:00 | |
| KRY50SP-1 | 2026-09-02 07:17:18 | 52.12396 | 15.76013 | 126° | 37km/h | 5092m | -1.7m/s | -11.5°C | 31.5% | 544.8hPa | 2.7V | 00:00:00 | 00:00:00 | 00:00:00 | |
| EDDB2-12 | 2026-09-02 07:17:16 | 52.12409 | 15.75966 | 102° | 33km/h | 5099m | -1.7m/s | -11.6°C | 33.0% | 544.4hPa | 2.7V | 00:00:00 | 00:00:00 | 00:00:00 | |
| KRY50SP-1 | 2026-09-02 07:17:12 | 52.12412 | 15.75936 | 103° | 38km/h | 5103m | -1.5m/s | -11.6°C | 33.5% | 544.2hPa | 2.7V | 00:00:00 | 00:00:00 | 00:00:00 | |
| DB0DAN | 2026-09-02 07:17:10 | 52.12422 | 15.75885 | 115° | 44km/h | 5108m | -1.8m/s | -11.7°C | 32.8% | 543.85hPa | 2.7V | 00:00:00 | 00:00:00 | 00:00:00 | |
| SP3WXH-11 | 2026-09-02 07:17:08 | 52.12433 | 15.75855 | 122° | 38km/h | 5111m | -1.4m/s | -11.7°C | 32.7% | 543.6hPa | 2.7V | 00:00:00 | 00:00:00 | 00:00:00 | |
| KRY50SP-1 | 2026-09-02 07:17:06 | 52.12438 | 15.75842 | 121° | 35km/h | 5113m | -1.3m/s | -11.7°C | 32.7% | 543.5hPa | 2.7V | 00:00:00 | 00:00:00 | 00:00:00 | |
| SP3BTT-10 | 2026-09-02 07:17:05 | 52.12445 | 15.75819 | 110° | 38km/h | 5115m | -1.3m/s | -11.7°C | 33.5% | 543.2hPa | 2.7V | 00:00:00 | 00:00:00 | 00:00:00 | |
| 13BRC | 2026-09-02 07:17:03 | 52.12447 | 15.75806 | 107° | 33km/h | 5117m | -1.5m/s | -11.7°C | 0% | 543.1hPa | 2.7V | 00:00:00 | 00:00:00 | 00:00:00 | |
| EDDB2-11 | 2026-09-02 07:17:01 | 52.12454 | 15.75763 | 101° | 38km/h | 5122m | -1.4m/s | -11.8°C | 33.2% | 542.8hPa | 2.7V | 00:00:00 | 00:00:00 | 00:00:00 | |
| SONDE2-11 | 2026-09-02 07:16:58 | 52.12463 | 15.75712 | 111° | 44km/h | 5126m | -1.4m/s | -11.8°C | 33.4% | 542.4hPa | 2.7V | 00:00:00 | 00:00:00 | 00:00:00 | |
| EDDB2-12 | 2026-09-02 07:16:45 | 52.12514 | 15.75502 | 120° | 37km/h | 5148m | -1.5m/s | -12.0°C | 35.4% | 540.8hPa | 2.7V | 00:00:00 | 00:00:00 | 00:00:00 | |
| KRY50SP-1 | 2026-09-02 07:16:44 | 52.12509 | 15.75516 | 120° | 42km/h | 5146m | -2.0m/s | -12.0°C | 34.8% | 541.0hPa | 2.7V | 00:00:00 | 00:00:00 | 00:00:00 | |
| SP6BVK | 2026-09-02 07:16:41 | 52.12523 | 15.75477 | 119° | 33km/h | 5151m | -1.3m/s | -12.1°C | 36.0% | 540.6hPa | 2.7V | 00:00:00 | 00:00:00 | 00:00:00 | |
| KRY50SP-1 | 2026-09-02 07:16:39 | 52.12529 | 15.75453 | 105° | 31km/h | 5154m | -1.7m/s | -12.1°C | 36.1% | 540.3hPa | 2.7V | 00:00:00 | 00:00:00 | 00:00:00 | |
| SP3WXH-11 | 2026-09-02 07:16:37 | 52.12534 | 15.75409 | 101° | 42km/h | 5159m | -1.7m/s | -12.1°C | 35.0% | 540.0hPa | 2.7V | 00:00:00 | 00:00:00 | 00:00:00 | |
| SP3BTT-10 | 2026-09-02 07:16:35 | 52.12540 | 15.75373 | 110° | 40km/h | 5162m | -1.5m/s | -12.0°C | 35.7% | 539.8hPa | 2.7V | 00:00:00 | 00:00:00 | 00:00:00 | |
| KRY50SP-1 | 2026-09-02 07:16:33 | 52.12544 | 15.75356 | 114° | 46km/h | 5163m | -1.5m/s | -12.2°C | 35.4% | 539.7hPa | 2.7V | 00:00:00 | 00:00:00 | 00:00:00 | |
| EDDB2-11 | 2026-09-02 07:16:30 | 52.12563 | 15.75299 | 117° | 33km/h | 5170m | -1.7m/s | -12.2°C | 35.6% | 539.2hPa | 2.7V | 00:00:00 | 00:00:00 | 00:00:00 | |
| SONDE2-11 | 2026-09-02 07:16:27 | 52.12571 | 15.75261 | 102° | 33km/h | 5174m | -1.5m/s | -12.2°C | 35.9% | 538.9hPa | 2.7V | 00:00:00 | 00:00:00 | 00:00:00 | |
| KRY50SP-1 | 2026-09-02 07:16:22 | 52.12581 | 15.75196 | 110° | 44km/h | 5181m | -1.7m/s | -12.3°C | 36.0% | 538.4hPa | 2.7V | 00:00:00 | 00:00:00 | 00:00:00 | |
| SP6BVK | 2026-09-02 07:16:20 | 52.12590 | 15.75163 | 117° | 42km/h | 5183m | -1.3m/s | -12.3°C | 36.1% | 538.2hPa | 2.7V | 00:00:00 | 00:00:00 | 00:00:00 | |
| KRY50SP-1 | 2026-09-02 07:16:16 | 52.12606 | 15.75110 | 113° | 33km/h | 5189m | -1.4m/s | -12.4°C | 36.3% | 537.8hPa | 2.7V | 00:00:00 | 00:00:00 | 00:00:00 | |
| EDDB2-12 | 2026-09-02 07:16:14 | 52.12615 | 15.75051 | 103° | 42km/h | 5195m | -1.5m/s | -12.5°C | 35.4% | 537.4hPa | 2.7V | 00:00:00 | 00:00:00 | 00:00:00 | |
| KRY50SP-1 | 2026-09-02 07:16:10 | 52.12621 | 15.75016 | 111° | 46km/h | 5198m | -1.4m/s | -12.5°C | 35.4% | 537.2hPa | 2.7V | 00:00:00 | 00:00:00 | 00:00:00 | |
| SP3WXH-11 | 2026-09-02 07:16:06 | 52.12645 | 15.74941 | 115° | 33km/h | 5205m | -1.5m/s | -12.5°C | 35.3% | 536.7hPa | 2.7V | 00:00:00 | 00:00:00 | 00:00:00 | |
| SP3BTT-10 | 2026-09-02 07:16:05 | 52.12648 | 15.74928 | 112° | 38km/h | 5207m | -1.8m/s | -12.5°C | 36.3% | 536.4hPa | 2.7V | 00:00:00 | 00:00:00 | 00:00:00 | |
| KRY50SP-1 | 2026-09-02 07:16:04 | 52.12648 | 15.74928 | 112° | 33km/h | 5207m | -1.8m/s | -12.5°C | 35.5% | 536.4hPa | 2.7V | 00:00:00 | 00:00:00 | 00:00:00 | |
| EDDB2-11 | 2026-09-02 07:15:59 | 52.12661 | 15.74835 | 109° | 46km/h | 5217m | -1.9m/s | -12.6°C | 36.5% | 535.9hPa | 2.7V | 00:00:00 | 00:00:00 | 00:00:00 | |
| SONDE2-11 | 2026-09-02 07:15:56 | 52.12675 | 15.74786 | 121° | 40km/h | 5222m | -1.8m/s | -12.7°C | 37.2% | 535.6hPa | 2.7V | 00:00:00 | 00:00:00 | 00:00:00 | |
| KRY50SP-1 | 2026-09-02 07:15:52 | 52.12689 | 15.74747 | 117° | 33km/h | 5227m | -1.7m/s | -12.7°C | 37.5% | 535.2hPa | 2.7V | 00:00:00 | 00:00:00 | 00:00:00 | |
| KRY50SP-1 | 2026-09-02 07:15:46 | 52.12703 | 15.74656 | 107° | 46km/h | 5236m | -1.6m/s | -12.7°C | 37.2% | 534.6hPa | 2.7V | 00:00:00 | 00:00:00 | 00:00:00 | |
| EDDB2-12 | 2026-09-02 07:15:43 | 52.12726 | 15.74575 | 121° | 37km/h | 5243m | -1.9m/s | -12.8°C | 37.3% | 534.0hPa | 2.7V | 00:00:00 | 00:00:00 | 00:00:00 | |
| KRY50SP-1 | 2026-09-02 07:15:41 | 52.12726 | 15.74575 | 122° | 38km/h | 5243m | -1.9m/s | -12.8°C | 37.3% | 534.0hPa | 2.7V | 00:00:00 | 00:00:00 | 00:00:00 | |
| SP6BVK | 2026-09-02 07:15:40 | 52.12731 | 15.74562 | 117° | 35km/h | 5245m | -1.6m/s | -12.8°C | 37.3% | 533.9hPa | 2.7V | 00:00:00 | 00:00:00 | 00:00:00 | |
| KRY50SP-1 | 2026-09-02 07:15:36 | 52.12741 | 15.74507 | 101° | 38km/h | 5250m | -1.6m/s | -12.9°C | 37.5% | 533.5hPa | 2.7V | 00:00:00 | 00:00:00 | 00:00:00 | |
| SP3BTT-10 | 2026-09-02 07:15:35 | 52.12745 | 15.74473 | 105° | 42km/h | 5253m | -1.3m/s | -12.8°C | 38.6% | 533.2hPa | 2.7V | 00:00:00 | 00:00:00 | 00:00:00 | |
| EDDB2-11 | 2026-09-02 07:15:28 | 52.12776 | 15.74367 | 112° | 33km/h | 5264m | -1.3m/s | -13.0°C | 37.6% | 532.6hPa | 2.7V | 00:00:00 | 00:00:00 | 00:00:00 | |
| SONDE2-11 | 2026-09-02 07:15:25 | 52.12783 | 15.74326 | 101° | 38km/h | 5268m | -1.4m/s | -13.0°C | 37.3% | 532.3hPa | 2.7V | 00:00:00 | 00:00:00 | 00:00:00 | |
| KRY50SP-1 | 2026-09-02 07:15:20 | 52.12799 | 15.74238 | 116° | 46km/h | 5276m | -1.6m/s | -13.1°C | 37.1% | 531.8hPa | 2.7V | 00:00:00 | 00:00:00 | 00:00:00 | |
| SP6BVK | 2026-09-02 07:15:19 | 52.12799 | 15.74238 | 116° | 46km/h | 5276m | -1.6m/s | -13.1°C | 37.1% | 531.8hPa | 2.7V | 00:00:00 | 00:00:00 | 00:00:00 | |
| 13BRC | 2026-09-02 07:15:18 | 52.12803 | 15.74222 | 119° | 44km/h | 5277m | -1.5m/s | -13.1°C | 0% | 531.6hPa | 2.7V | 00:00:00 | 00:00:00 | 00:00:00 | |
| KRY50SP-1 | 2026-09-02 07:15:13 | 52.12823 | 15.74154 | 104° | 35km/h | 5284m | -1.1m/s | -13.2°C | 37.3% | 531.2hPa | 2.7V | 00:00:00 | 00:00:00 | 00:00:00 | |
| EDDB2-12 | 2026-09-02 07:15:12 | 52.12829 | 15.74106 | 101° | 44km/h | 5288m | -1.3m/s | -13.2°C | 37.2% | 530.9hPa | 2.7V | 00:00:00 | 00:00:00 | 00:00:00 | |
| KRY50SP-1 | 2026-09-02 07:15:07 | 52.12840 | 15.74051 | 114° | 47km/h | 5292m | -1.5m/s | -13.2°C | 37.1% | 530.5hPa | 2.7V | 00:00:00 | 00:00:00 | 00:00:00 | |
| SP3BTT-10 | 2026-09-02 07:15:05 | 52.12856 | 15.74004 | 123° | 40km/h | 5297m | -1.5m/s | -13.2°C | 37.9% | 530.3hPa | 2.7V | 00:00:00 | 00:00:00 | 00:00:00 | |
| SP3WXH-11 | 2026-09-02 07:15:04 | 52.12861 | 15.73991 | 117° | 35km/h | 5298m | -1.3m/s | -13.3°C | 36.9% | 530.2hPa | 2.7V | 00:00:00 | 00:00:00 | 00:00:00 | |
| EDDB2-11 | 2026-09-02 07:14:57 | 52.12877 | 15.73884 | 106° | 46km/h | 5308m | -1.4m/s | -13.4°C | 36.7% | 529.4hPa | 2.7V | 00:00:00 | 00:00:00 | 00:00:00 | |
| DB0DAN | 2026-09-02 07:14:55 | 52.12886 | 15.73847 | 114° | 46km/h | 5311m | -1.5m/s | -13.4°C | 36.8% | 529.22hPa | 2.7V | 00:00:00 | 00:00:00 | 00:00:00 | |
| SONDE2-11 | 2026-09-02 07:14:54 | 52.12891 | 15.73830 | 117° | 44km/h | 5312m | -1.5m/s | -13.4°C | 36.8% | 529.1hPa | 2.7V | 00:00:00 | 00:00:00 | 00:00:00 | |
| KRY50SP-1 | 2026-09-02 07:14:52 | 52.12896 | 15.73815 | 121° | 42km/h | 5314m | -1.6m/s | -13.4°C | 36.9% | 529.1hPa | 2.7V | 00:00:00 | 00:00:00 | 00:00:00 | |
| KRY50SP-1 | 2026-09-02 07:14:46 | 52.12914 | 15.73730 | 102° | 42km/h | 5322m | -1.6m/s | -13.5°C | 36.8% | 528.5hPa | 2.7V | 00:00:00 | 00:00:00 | 00:00:00 | |
| KRY50SP-1 | 2026-09-02 07:14:41 | 52.12932 | 15.73641 | 118° | 46km/h | 5330m | -1.4m/s | -13.5°C | 36.8% | 527.9hPa | 2.7V | 00:00:00 | 00:00:00 | 00:00:00 | |
| DB0DAN | 2026-09-02 07:14:40 | 52.12942 | 15.73611 | 119° | 38km/h | 5333m | -1.2m/s | -13.5°C | 36.8% | 527.72hPa | 2.7V | 00:00:00 | 00:00:00 | 00:00:00 | |
| SP6BVK | 2026-09-02 07:14:38 | 52.12947 | 15.73597 | 118° | 37km/h | 5334m | -1.5m/s | -13.6°C | 36.8% | 527.7hPa | 2.7V | 00:00:00 | 00:00:00 | 00:00:00 | |
| SP3BTT-10 | 2026-09-02 07:14:35 | 52.12957 | 15.73539 | 101° | 42km/h | 5340m | -1.4m/s | -13.6°C | 37.7% | 527.2hPa | 2.7V | 00:00:00 | 00:00:00 | 08:30:00 | |
| SP3WXH-11 | 2026-09-02 07:14:33 | 52.12961 | 15.73504 | 102° | 46km/h | 5342m | -1.2m/s | -13.6°C | 36.9% | 527.1hPa | 2.6V | 00:00:00 | 00:00:00 | 00:00:00 | |
| KRY50SP-1 | 2026-09-02 07:14:30 | 52.12968 | 15.73466 | 112° | 47km/h | 5345m | -1.3m/s | -13.7°C | 36.9% | 526.9hPa | 2.6V | 00:00:00 | 00:00:00 | 00:00:00 | |
| DB0DAN | 2026-09-02 07:14:25 | 52.12995 | 15.73376 | 108° | 31km/h | 5354m | -1.7m/s | -13.7°C | 36.9% | 526.29hPa | 2.6V | 00:00:00 | 00:00:00 | 00:00:00 | |
| KRY50SP-1 | 2026-09-02 07:14:24 | 52.12995 | 15.73376 | 109° | 33km/h | 5354m | -1.7m/s | -13.7°C | 36.9% | 526.3hPa | 2.7V | 00:00:00 | 00:00:00 | 00:00:00 | |
| SONDE2-11 | 2026-09-02 07:14:23 | 52.12999 | 15.73347 | 101° | 38km/h | 5357m | -1.6m/s | -13.7°C | 36.9% | 526.2hPa | 2.7V | 00:00:00 | 00:00:00 | 00:00:00 | |
| KRY50SP-1 | 2026-09-02 07:14:18 | 52.13010 | 15.73277 | 112° | 47km/h | 5362m | -1.4m/s | -13.8°C | 37.1% | 525.7hPa | 2.7V | 00:00:00 | 00:00:00 | 00:00:00 | |
| SP6BVK | 2026-09-02 07:14:17 | 52.13014 | 15.73260 | 118° | 47km/h | 5364m | -1.6m/s | -13.8°C | 37.0% | 525.7hPa | 2.7V | 00:00:00 | 00:00:00 | 00:00:00 | |
| 13BRC | 2026-09-02 07:14:14 | 52.13030 | 15.73214 | 121° | 38km/h | 5368m | -1.6m/s | 0°C | 0% | 0hPa | 2.7V | 00:00:00 | 00:00:00 | 00:00:00 | |
| KRY50SP-1 | 2026-09-02 07:14:13 | 52.13035 | 15.73201 | 115° | 35km/h | 5370m | -1.4m/s | -13.8°C | 36.7% | 525.3hPa | 2.7V | 00:00:00 | 00:00:00 | 00:00:00 | |
| DB0DAN | 2026-09-02 07:14:10 | 52.13044 | 15.73143 | 100° | 38km/h | 5375m | -1.5m/s | -13.9°C | 36.8% | 524.9hPa | 2.7V | 00:00:00 | 00:00:00 | 00:00:00 | |
| EDDB2-12 | 2026-09-02 07:14:10 | 52.13045 | 15.73126 | 100° | 44km/h | 5376m | -1.7m/s | -13.9°C | 36.8% | 524.8hPa | 2.7V | 00:00:00 | 00:00:00 | 00:00:00 | |
| KRY50SP-1 | 2026-09-02 07:14:07 | 52.13048 | 15.73108 | 106° | 46km/h | 5378m | -1.6m/s | -13.9°C | 36.8% | 524.7hPa | 2.7V | 00:00:00 | 00:00:00 | 00:00:00 | |
| SP3BTT-10 | 2026-09-02 07:14:04 | 52.13066 | 15.73038 | 119° | 38km/h | 5384m | -1.2m/s | -13.9°C | 38.1% | 524.3hPa | 2.7V | 00:00:00 | 00:00:00 | 00:00:00 | |
| SP3WXH-11 | 2026-09-02 07:14:02 | 52.13076 | 15.73011 | 119° | 35km/h | 5386m | -1.4m/s | -14.0°C | 37.6% | 524.1hPa | 2.7V | 00:00:00 | 00:00:00 | 00:00:00 | |
| EDDB2-11 | 2026-09-02 07:13:55 | 52.13092 | 15.72889 | 106° | 47km/h | 5398m | -1.7m/s | -14.1°C | 38.8% | 523.4hPa | 2.7V | 00:00:00 | 00:00:00 | 00:00:00 | |
| SONDE2-11 | 2026-09-02 07:13:52 | 52.13100 | 15.72853 | 112° | 44km/h | 5401m | -1.2m/s | -14.1°C | 40.4% | 523.2hPa | 2.7V | 00:00:00 | 00:00:00 | 00:00:00 | |
| KRY50SP-1 | 2026-09-02 07:13:51 | 52.13100 | 15.72853 | 114° | 46km/h | 5401m | -1.2m/s | -14.1°C | 40.4% | 523.2hPa | 2.7V | 00:00:00 | 00:00:00 | 00:00:00 | |
| KRY50SP-1 | 2026-09-02 07:13:46 | 52.13119 | 15.72782 | 105° | 33km/h | 5408m | -1.3m/s | -14.2°C | 41.2% | 522.7hPa | 2.7V | 00:00:00 | 00:00:00 | 00:00:00 | |
| KRY50SP-1 | 2026-09-02 07:13:40 | 52.13129 | 15.72686 | 108° | 46km/h | 5416m | -1.2m/s | -14.3°C | 41.7% | 522.1hPa | 2.7V | 00:00:00 | 00:00:00 | 00:00:00 | |
| EDDB2-12 | 2026-09-02 07:13:39 | 52.13142 | 15.72636 | 115° | 38km/h | 5419m | -1.1m/s | -14.3°C | 41.9% | 521.9hPa | 2.7V | 00:00:00 | 00:00:00 | 00:00:00 | |
| SP6BVK | 2026-09-02 07:13:37 | 52.13142 | 15.72636 | 117° | 38km/h | 5419m | -1.1m/s | -14.3°C | 41.9% | 521.9hPa | 2.7V | 00:00:00 | 00:00:00 | 00:00:00 | |
| SP3BTT-10 | 2026-09-02 07:13:34 | 52.13155 | 15.72584 | 102° | 40km/h | 5425m | -1.5m/s | -14.3°C | 43.2% | 521.4hPa | 2.7V | 00:00:00 | 00:00:00 | 00:00:00 | |
| SP3WXH-11 | 2026-09-02 07:13:31 | 52.13159 | 15.72540 | 96° | 40km/h | 5429m | -1.6m/s | -14.4°C | 42.1% | 521.1hPa | 2.7V | 00:00:00 | 00:00:00 | 00:00:00 | |
| KRY50SP-1 | 2026-09-02 07:13:28 | 52.13162 | 15.72504 | 107° | 46km/h | 5432m | -1.4m/s | -14.4°C | 42.3% | 520.9hPa | 2.7V | 00:00:00 | 00:00:00 | 00:00:00 | |
| DB0DAN | 2026-09-02 07:13:25 | 52.13178 | 15.72438 | 115° | 37km/h | 5437m | -1.6m/s | -14.4°C | 41.9% | 520.63hPa | 2.7V | 00:00:00 | 00:00:00 | 00:00:00 | |
| EDDB2-11 | 2026-09-02 07:13:24 | 52.13185 | 15.72411 | 108° | 31km/h | 5440m | -1.3m/s | -14.4°C | 41.5% | 520.4hPa | 2.7V | 00:00:00 | 00:00:00 | 00:00:00 | |
| KRY50SP-1 | 2026-09-02 07:13:22 | 52.13185 | 15.72411 | 109° | 33km/h | 5440m | -1.3m/s | -14.4°C | 41.5% | 520.4hPa | 2.7V | 00:00:00 | 00:00:00 | 00:00:00 | |
| SONDE2-11 | 2026-09-02 07:13:21 | 52.13188 | 15.72385 | 98° | 33km/h | 5443m | -1.4m/s | -14.5°C | 41.3% | 520.2hPa | 2.7V | 00:00:00 | 00:00:00 | 00:00:00 | |
| KRY50SP-1 | 2026-09-02 07:13:16 | 52.13194 | 15.72320 | 105° | 46km/h | 5447m | -1.0m/s | -14.5°C | 40.5% | 519.9hPa | 2.7V | 00:00:00 | 00:00:00 | 00:00:00 | |
| DB0DAN | 2026-09-02 07:13:10 | 52.13221 | 15.72212 | 104° | 31km/h | 5457m | -1.2m/s | -14.5°C | 40.1% | 0hPa | 2.7V | 00:00:00 | 00:00:00 | 00:00:00 | |
| EDDB2-12 | 2026-09-02 07:13:07 | 52.13226 | 15.72169 | 96° | 38km/h | 5460m | -1.5m/s | -14.6°C | 40.1% | 519.0hPa | 2.7V | 00:00:00 | 00:00:00 | 00:00:00 | |
| KRY50SP-1 | 2026-09-02 07:13:04 | 52.13229 | 15.72134 | 101° | 46km/h | 5464m | -1.3m/s | -14.6°C | 40.0% | 518.6hPa | 2.7V | 00:00:00 | 00:00:00 | 00:00:00 | |
| SP3BTT-10 | 2026-09-02 07:13:03 | 52.13234 | 15.72098 | 110° | 38km/h | 5466m | -1.2m/s | -14.5°C | 41.1% | 518.4hPa | 2.7V | 00:00:00 | 00:00:00 | 00:00:00 | |
| SP3WXH-11 | 2026-09-02 07:13:00 | 52.13248 | 15.72050 | 115° | 37km/h | 5470m | -1.3m/s | -14.7°C | 40.2% | 518.2hPa | 2.6V | 00:00:00 | 00:00:00 | 00:00:00 | |
| KRY50SP-1 | 2026-09-02 07:12:59 | 52.13248 | 15.72050 | 116° | 37km/h | 5470m | -1.3m/s | -14.7°C | 40.2% | 518.2hPa | 2.6V | 00:00:00 | 00:00:00 | 00:00:00 | |
| SP6BVK | 2026-09-02 07:12:56 | 52.13256 | 15.72012 | 101° | 31km/h | 5474m | -1.6m/s | -14.7°C | 40.1% | 517.9hPa | 2.6V | 00:00:00 | 00:00:00 | 00:00:00 | |
| DB0DAN | 2026-09-02 07:12:55 | 52.13258 | 15.71986 | 92° | 33km/h | 5477m | -1.7m/s | -14.7°C | 40% | 0hPa | 2.6V | 00:00:00 | 00:00:00 | 00:00:00 | |
| EDDB2-11 | 2026-09-02 07:12:53 | 52.13261 | 15.71936 | 100° | 44km/h | 5481m | -1.6m/s | -14.8°C | 40.0% | 517.5hPa | 2.7V | 00:00:00 | 00:00:00 | 00:00:00 | |
| SONDE2-11 | 2026-09-02 07:12:50 | 52.13267 | 15.71901 | 111° | 44km/h | 5484m | -1.4m/s | -14.8°C | 39.8% | 517.3hPa | 2.7V | 00:00:00 | 00:00:00 | 00:00:00 | |
| KRY50SP-1 | 2026-09-02 07:12:48 | 52.13271 | 15.71884 | 115° | 42km/h | 5485m | -1.3m/s | -14.8°C | 39.8% | 517.2hPa | 2.7V | 00:00:00 | 00:00:00 | 00:00:00 | |
| KRY50SP-1 | 2026-09-02 07:12:43 | 52.13286 | 15.71803 | 94° | 35km/h | 5494m | -1.5m/s | -14.9°C | 39.9% | 516.7hPa | 2.7V | 00:00:00 | 00:00:00 | 00:00:00 | |
| DB0DAN | 2026-09-02 07:12:40 | 52.13288 | 15.71755 | 97° | 42km/h | 5498m | -1.5m/s | -14.9°C | 39.9% | 0hPa | 2.7V | 00:00:00 | 00:00:00 | 00:00:00 | |
| KRY50SP-1 | 2026-09-02 07:12:36 | 52.13296 | 15.71702 | 110° | 44km/h | 5503m | -1.3m/s | -14.9°C | 39.9% | 516.1hPa | 2.7V | 00:00:00 | 00:00:00 | 00:00:00 | |
| SP6BVK | 2026-09-02 07:12:35 | 52.13299 | 15.71686 | 112° | 40km/h | 5504m | -1.4m/s | -14.9°C | 39.7% | 516.1hPa | 2.7V | 00:00:00 | 00:00:00 | 00:00:00 | |
| SP3BTT-10 | 2026-09-02 07:12:33 | 52.13308 | 15.71643 | 103° | 38km/h | 5508m | -1.1m/s | -14.9°C | 39.3% | 515.7hPa | 2.7V | 00:00:00 | 00:00:00 | 00:00:00 | |
| KRY50SP-1 | 2026-09-02 07:12:30 | 52.13311 | 15.71616 | 96° | 37km/h | 5510m | -1.2m/s | -14.9°C | 37.9% | 515.6hPa | 2.7V | 00:00:00 | 00:00:00 | 00:00:00 | |
| SP3WXH-11 | 2026-09-02 07:12:29 | 52.13312 | 15.71584 | 92° | 40km/h | 5513m | -1.3m/s | -15.0°C | 37.9% | 515.3hPa | 2.7V | 00:00:00 | 00:00:00 | 00:00:00 | |
| DB0DAN | 2026-09-02 07:12:25 | 52.13320 | 15.71513 | 109° | 42km/h | 5518m | -1.5m/s | -15°C | 0% | 0hPa | 2.7V | 00:00:00 | 00:00:00 | 00:00:00 | |
| KRY50SP-1 | 2026-09-02 07:12:24 | 52.13320 | 15.71513 | 110° | 44km/h | 5518m | -1.5m/s | -15.0°C | 38.0% | 515.0hPa | 2.7V | 00:00:00 | 00:00:00 | 00:00:00 | |
| EDDB2-11 | 2026-09-02 07:12:22 | 52.13331 | 15.71455 | 99° | 29km/h | 5523m | -1.1m/s | -15.0°C | 37.3% | 514.7hPa | 2.7V | 00:00:00 | 00:00:00 | 00:00:00 | |
| KRY50SP-1 | 2026-09-02 07:12:20 | 52.13332 | 15.71442 | 97° | 33km/h | 5525m | -1.3m/s | -15.0°C | 37.1% | 514.6hPa | 2.7V | 00:00:00 | 00:00:00 | 00:00:00 | |
| SONDE2-11 | 2026-09-02 07:12:19 | 52.13333 | 15.71429 | 95° | 33km/h | 5526m | -1.7m/s | -15.0°C | 36.8% | 514.4hPa | 2.7V | 00:00:00 | 00:00:00 | 00:00:00 | |
| SP6BVK | 2026-09-02 07:12:14 | 52.13334 | 15.71364 | 97° | 44km/h | 5532m | -1.1m/s | -15.1°C | 36.2% | 514.0hPa | 2.7V | 00:00:00 | 00:00:00 | 00:00:00 | |
| KRY50SP-1 | 2026-09-02 07:12:13 | 52.13336 | 15.71346 | 103° | 46km/h | 5533m | -1.3m/s | -15.1°C | 36.0% | 514.1hPa | 2.7V | 00:00:00 | 00:00:00 | 00:00:00 | |
| DB0DAN | 2026-09-02 07:12:10 | 52.13349 | 15.71281 | 110° | 33km/h | 5539m | -1.5m/s | -15.1°C | 0% | 0hPa | 2.7V | 00:00:00 | 00:00:00 | 00:00:00 | |
| KRY50SP-1 | 2026-09-02 07:12:08 | 52.13351 | 15.71268 | 104° | 31km/h | 5540m | -1.6m/s | -15.1°C | 35.6% | 513.6hPa | 2.7V | 00:00:00 | 00:00:00 | 00:00:00 | |
| EDDB2-12 | 2026-09-02 07:12:06 | 52.13354 | 15.71215 | 89° | 37km/h | 5546m | -1.5m/s | -15.1°C | 35.1% | 513.1hPa | 2.7V | 00:00:00 | 00:00:00 | 00:00:00 | |
| SP3BTT-10 | 2026-09-02 07:12:03 | 52.13354 | 15.71182 | 95° | 40km/h | 5549m | -1.5m/s | -15.1°C | 35.8% | 512.8hPa | 2.7V | 00:00:00 | 00:00:00 | 00:00:00 | |
| SP3WXH-11 | 2026-09-02 07:11:58 | 52.13366 | 15.71095 | 110° | 37km/h | 5556m | -1.6m/s | -15.1°C | 33.6% | 512.5hPa | 2.7V | 00:00:00 | 00:00:00 | 00:00:00 | |
| KRY50SP-1 | 2026-09-02 07:11:57 | 52.13366 | 15.71095 | 111° | 38km/h | 5556m | -1.6m/s | -15.1°C | 33.6% | 512.5hPa | 2.7V | 00:00:00 | 00:00:00 | 00:00:00 | |
| DB0DAN | 2026-09-02 07:11:55 | 52.13373 | 15.71056 | 98° | 29km/h | 5560m | -1.3m/s | 0°C | 0% | 0hPa | 2.7V | 00:00:00 | 00:00:00 | 00:00:00 | |
| EDDB2-11 | 2026-09-02 07:11:51 | 52.13373 | 15.70981 | 92° | 44km/h | 5568m | -1.2m/s | -15.1°C | 30.5% | 511.7hPa | 2.7V | 00:00:00 | 00:00:00 | 00:00:00 | |
| SONDE2-11 | 2026-09-02 07:11:48 | 52.13375 | 15.70944 | 99° | 46km/h | 5571m | -1.6m/s | -15.1°C | 30.0% | 511.5hPa | 2.7V | 00:00:00 | 00:00:00 | 00:00:00 | |
| KRY50SP-1 | 2026-09-02 07:11:45 | 52.13380 | 15.70908 | 109° | 42km/h | 5574m | -1.3m/s | -15.1°C | 29.4% | 511.3hPa | 2.7V | 00:00:00 | 00:00:00 | 00:00:00 | |
| KRY50SP-1 | 2026-09-02 07:11:39 | 52.13392 | 15.70824 | 89° | 35km/h | 5583m | -1.4m/s | -15.2°C | 27.3% | 510.7hPa | 2.7V | 00:00:00 | 00:00:00 | 00:00:00 | |
| EDDB2-12 | 2026-09-02 07:11:34 | 52.13398 | 15.70721 | 105° | 42km/h | 5591m | -1.3m/s | -15.2°C | 25.6% | 510.2hPa | 2.7V | 00:00:00 | 00:00:00 | 00:00:00 | |
| SP3BTT-10 | 2026-09-02 07:11:33 | 52.13401 | 15.70704 | 109° | 38km/h | 5592m | -1.5m/s | -15.1°C | 26.2% | 510.0hPa | 2.7V | 00:00:00 | 00:00:00 | 00:00:00 | |
| SP6BVK | 2026-09-02 07:11:32 | 52.13401 | 15.70704 | 110° | 40km/h | 5592m | -1.6m/s | -15.2°C | 25.4% | 510.1hPa | 2.7V | 00:00:00 | 00:00:00 | 00:00:00 | |
| KRY50SP-1 | 2026-09-02 07:11:28 | 52.13408 | 15.70647 | 91° | 33km/h | 5597m | -1.4m/s | -15.2°C | 24.7% | 509.7hPa | 2.7V | 00:00:00 | 00:00:00 | 00:00:00 | |
| SP3WXH-11 | 2026-09-02 07:11:27 | 52.13408 | 15.70618 | 89° | 38km/h | 5600m | -1.4m/s | -15.2°C | 24.5% | 509.5hPa | 2.7V | 00:00:00 | 00:00:00 | 00:00:00 | |
| KRY50SP-1 | 2026-09-02 07:11:23 | 52.13408 | 15.70564 | 97° | 47km/h | 5604m | -1.7m/s | -15.3°C | 24.0% | 509.2hPa | 2.7V | 00:00:00 | 00:00:00 | 00:00:00 | |
| EDDB2-11 | 2026-09-02 07:11:20 | 52.13421 | 15.70479 | 106° | 33km/h | 5611m | -1.4m/s | -15.3°C | 22.6% | 508.8hPa | 2.7V | 00:00:00 | 00:00:00 | 00:00:00 | |
| SONDE2-11 | 2026-09-02 07:11:17 | 52.13424 | 15.70452 | 101° | 31km/h | 5614m | -1.5m/s | -15.3°C | 23.4% | 508.6hPa | 2.7V | 00:00:00 | 00:00:00 | 00:00:00 | |
| SP6BVK | 2026-09-02 07:11:12 | 52.13424 | 15.70395 | 89° | 42km/h | 5620m | -1.4m/s | -15.3°C | 24.4% | 508.2hPa | 2.7V | 00:00:00 | 00:00:00 | 00:00:00 | |
| KRY50SP-1 | 2026-09-02 07:11:11 | 52.13423 | 15.70378 | 88° | 44km/h | 5621m | -1.1m/s | -15.4°C | 24.5% | 508.1hPa | 2.7V | 00:00:00 | 00:00:00 | 00:00:00 | |
| KRY50SP-1 | 2026-09-02 07:11:06 | 52.13431 | 15.70290 | 107° | 37km/h | 5628m | -1.4m/s | -15.4°C | 24.8% | 507.6hPa | 2.7V | 00:00:00 | 00:00:00 | 00:00:00 | |
| SP3BTT-10 | 2026-09-02 07:11:03 | 52.13437 | 15.70235 | 93° | 38km/h | 5634m | -1.5m/s | -15.4°C | 25.6% | 507.1hPa | 2.7V | 00:00:00 | 00:00:00 | 00:00:00 | |
| SP3WXH-11 | 2026-09-02 07:10:56 | 52.13438 | 15.70115 | 101° | 42km/h | 5644m | -1.1m/s | -15.6°C | 24.9% | 506.5hPa | 2.7V | 00:00:00 | 00:00:00 | 00:00:00 | |
| EDDB2-11 | 2026-09-02 07:10:49 | 52.13448 | 15.69999 | 88° | 38km/h | 5656m | -1.5m/s | -15.6°C | 24.7% | 505.7hPa | 2.7V | 00:00:00 | 00:00:00 | 00:00:00 | |
| SONDE2-11 | 2026-09-02 07:10:46 | 52.13447 | 15.69965 | 92° | 44km/h | 5658m | -1.2m/s | -15.6°C | 24.7% | 505.6hPa | 2.7V | 00:00:00 | 00:00:00 | 00:00:00 | |
| KRY50SP-1 | 2026-09-02 07:10:43 | 52.13449 | 15.69928 | 102° | 44km/h | 5661m | -1.3m/s | -15.6°C | 24.7% | 505.3hPa | 2.7V | 00:00:00 | 00:00:00 | 00:00:00 | |
| KRY50SP-1 | 2026-09-02 07:10:37 | 52.13462 | 15.69839 | 93° | 31km/h | 5670m | -1.6m/s | -15.7°C | 25.2% | 504.8hPa | 2.7V | 00:00:00 | 00:00:00 | 00:00:00 | |
| KRY50SP-1 | 2026-09-02 07:10:33 | 52.13461 | 15.69764 | 96° | 44km/h | 5678m | -1.4m/s | -15.7°C | 25.3% | 504.3hPa | 2.7V | 00:00:00 | 00:00:00 | 00:00:00 | |
| EDDB2-12 | 2026-09-02 07:10:32 | 52.13462 | 15.69746 | 98° | 42km/h | 5680m | -1.2m/s | -15.7°C | 25.4% | 504.2hPa | 2.7V | 00:00:00 | 00:00:00 | 00:00:00 | |
| SP6BVK | 2026-09-02 07:10:30 | 52.13464 | 15.69728 | 103° | 42km/h | 5681m | -1.1m/s | -15.7°C | 25.4% | 504.0hPa | 2.7V | 00:00:00 | 00:00:00 | 00:00:00 | |
| KRY50SP-1 | 2026-09-02 07:10:26 | 52.13475 | 15.69668 | 111° | 33km/h | 5687m | -1.6m/s | -15.8°C | 25.4% | 503.7hPa | 2.7V | 00:00:00 | 00:00:00 | 00:00:00 | |
| SP3WXH-11 | 2026-09-02 07:10:25 | 52.13478 | 15.69643 | 90° | 29km/h | 5690m | -1.7m/s | -15.8°C | 25.3% | 503.4hPa | 2.7V | 00:00:00 | 00:00:00 | 00:00:00 | |
| KRY50SP-1 | 2026-09-02 07:10:20 | 52.13476 | 15.69584 | 89° | 44km/h | 5696m | -1.3m/s | -15.8°C | 25.3% | 503.0hPa | 2.7V | 00:00:00 | 00:00:00 | 00:00:00 | |
| EDDB2-11 | 2026-09-02 07:10:18 | 52.13480 | 15.69512 | 102° | 42km/h | 5701m | -1.6m/s | -15.9°C | 24.9% | 502.7hPa | 2.7V | 00:00:00 | 00:00:00 | 00:00:00 | |
| SONDE2-11 | 2026-09-02 07:10:15 | 52.13485 | 15.69481 | 106° | 37km/h | 5705m | -1.8m/s | -15.9°C | 24.8% | 502.5hPa | 2.7V | 00:00:00 | 00:00:00 | 00:00:00 | |
| KRY50SP-1 | 2026-09-02 07:10:14 | 52.13485 | 15.69480 | 107° | 37km/h | 5705m | -1.8m/s | -15.9°C | 24.8% | 502.5hPa | 2.7V | 00:00:00 | 00:00:00 | 00:00:00 | |
| SP6BVK | 2026-09-02 07:10:10 | 52.13491 | 15.69416 | 83° | 35km/h | 5713m | -1.5m/s | -16.0°C | 24.8% | 502.0hPa | 2.7V | 00:00:00 | 00:00:00 | 00:00:00 | |
| KRY50SP-1 | 2026-09-02 07:10:09 | 52.13491 | 15.69416 | 83° | 35km/h | 5713m | -1.5m/s | -16.0°C | 24.8% | 502.0hPa | 2.7V | 00:00:00 | 00:00:00 | 00:00:00 | |
| SP3BTT-10 | 2026-09-02 07:10:03 | 52.13495 | 15.69296 | 109° | 40km/h | 5723m | -1.4m/s | -16.0°C | 26.0% | 501.1hPa | 2.7V | 00:00:00 | 00:00:00 | 08:30:00 | |
| EDDB2-12 | 2026-09-02 07:10:01 | 52.13500 | 15.69267 | 106° | 33km/h | 5725m | -1.4m/s | -16.0°C | 25.3% | 501.1hPa | 2.6V | 00:00:00 | 00:00:00 | 00:00:00 | |
| SP3WXH-11 | 2026-09-02 07:09:54 | 52.13502 | 15.69163 | 93° | 46km/h | 5736m | -1.7m/s | -16.1°C | 26.7% | 500.4hPa | 2.6V | 00:00:00 | 00:00:00 | 00:00:00 | |
| EDDB2-11 | 2026-09-02 07:09:47 | 52.13515 | 15.69036 | 87° | 31km/h | 5748m | -1.5m/s | -16.2°C | 25.9% | 499.6hPa | 2.6V | 00:00:00 | 00:00:00 | 00:00:00 | |
| SONDE2-11 | 2026-09-02 07:09:44 | 52.13515 | 15.69007 | 85° | 38km/h | 5751m | -1.5m/s | -16.3°C | 25.7% | 499.4hPa | 2.6V | 00:00:00 | 00:00:00 | 00:00:00 | |
| KRY50SP-1 | 2026-09-02 07:09:40 | 52.13514 | 15.68955 | 94° | 46km/h | 5756m | -1.7m/s | -16.3°C | 25.9% | 499.1hPa | 2.6V | 00:00:00 | 00:00:00 | 00:00:00 | |
| KRY50SP-1 | 2026-09-02 07:09:35 | 52.13523 | 15.68870 | 102° | 37km/h | 5763m | -1.5m/s | -16.4°C | 26.6% | 498.5hPa | 2.6V | 00:00:00 | 00:00:00 | 00:00:00 | |
| SP3BTT-10 | 2026-09-02 07:09:33 | 52.13525 | 15.68825 | 88° | 42km/h | 5767m | -1.5m/s | -16.4°C | 28.0% | 498.3hPa | 2.6V | 00:00:00 | 00:00:00 | 00:00:00 | |
| KRY50SP-1 | 2026-09-02 07:09:31 | 52.13523 | 15.68789 | 90° | 46km/h | 5770m | -1.6m/s | -16.5°C | 26.8% | 498.1hPa | 2.6V | 00:00:00 | 00:00:00 | 00:00:00 | |
| EDDB2-12 | 2026-09-02 07:09:30 | 52.13524 | 15.68770 | 93° | 46km/h | 5772m | -1.7m/s | -16.5°C | 26.7% | 498.0hPa | 2.6V | 00:00:00 | 00:00:00 | 00:00:00 | |
| SP6BVK | 2026-09-02 07:09:27 | 52.13527 | 15.68732 | 102° | 47km/h | 5775m | -1.5m/s | -16.5°C | 26.8% | 497.9hPa | 2.6V | 00:00:00 | 00:00:00 | 00:00:00 | |
| KRY50SP-1 | 2026-09-02 07:09:25 | 52.13532 | 15.68696 | 106° | 40km/h | 5778m | -2.0m/s | -16.5°C | 26.9% | 497.7hPa | 2.6V | 00:00:00 | 00:00:00 | 00:00:00 | |
| SP3WXH-11 | 2026-09-02 07:09:23 | 52.13537 | 15.68640 | 87° | 33km/h | 5784m | -1.5m/s | -16.6°C | 27.3% | 497.3hPa | 2.6V | 00:00:00 | 00:00:00 | 00:00:00 | |
| KRY50SP-1 | 2026-09-02 07:09:20 | 52.13536 | 15.68625 | 86° | 37km/h | 5786m | -1.3m/s | -16.6°C | 27.3% | 497.1hPa | 2.6V | 00:00:00 | 00:00:00 | 00:00:00 | |
| EDDB2-11 | 2026-09-02 07:09:15 | 52.13536 | 15.68516 | 100° | 47km/h | 5795m | -1.7m/s | -16.6°C | 27.3% | 496.5hPa | 2.6V | 00:00:00 | 00:00:00 | 00:00:00 | |
| KRY50SP-1 | 2026-09-02 07:09:14 | 52.13536 | 15.68516 | 101° | 47km/h | 5795m | -1.7m/s | -16.6°C | 27.3% | 496.5hPa | 2.6V | 00:00:00 | 00:00:00 | 00:00:00 | |
| SONDE2-11 | 2026-09-02 07:09:13 | 52.13541 | 15.68480 | 105° | 40km/h | 5798m | -1.5m/s | -16.7°C | 27.9% | 496.2hPa | 2.6V | 00:00:00 | 00:00:00 | 00:00:00 | |
| KRY50SP-1 | 2026-09-02 07:09:09 | 52.13547 | 15.68435 | 94° | 35km/h | 5803m | -1.7m/s | -16.7°C | 27.8% | 495.9hPa | 2.6V | 00:00:00 | 00:00:00 | 00:00:00 | |
| SP6BVK | 2026-09-02 07:09:07 | 52.13546 | 15.68404 | 87° | 40km/h | 5806m | -1.6m/s | -16.6°C | 27.5% | 495.8hPa | 2.6V | 00:00:00 | 00:00:00 | 00:00:00 | |
| KRY50SP-1 | 2026-09-02 07:09:04 | 52.13545 | 15.68350 | 93° | 47km/h | 5812m | -1.8m/s | -16.6°C | 27.4% | 495.5hPa | 2.6V | 00:00:00 | 00:00:00 | 00:00:00 | |
| SP3BTT-10 | 2026-09-02 07:09:03 | 52.13548 | 15.68311 | 100° | 42km/h | 5815m | -1.7m/s | -16.6°C | 28.6% | 495.2hPa | 2.6V | 00:00:00 | 00:00:00 | 00:00:00 | |
| EDDB2-12 | 2026-09-02 07:08:59 | 52.13557 | 15.68242 | 99° | 37km/h | 5821m | -1.5m/s | -16.8°C | 27.8% | 494.8hPa | 2.6V | 00:00:00 | 00:00:00 | 00:00:00 | |
| SP3WXH-11 | 2026-09-02 07:08:52 | 52.13561 | 15.68098 | 100° | 47km/h | 5833m | -1.7m/s | -16.8°C | 27.7% | 493.9hPa | 2.6V | 00:00:00 | 00:00:00 | 00:00:00 | |
| EDDB2-11 | 2026-09-02 07:08:44 | 52.13570 | 15.67984 | 85° | 40km/h | 5844m | -1.6m/s | -16.8°C | 0% | 493.2hPa | 2.6V | 00:00:00 | 00:00:00 | 00:00:00 | |
| KRY50SP-1 | 2026-09-02 07:08:41 | 52.13569 | 15.67947 | 89° | 47km/h | 5848m | -1.6m/s | -16.9°C | 27.1% | 493.0hPa | 2.6V | 00:00:00 | 00:00:00 | 00:00:00 | |
| KRY50SP-1 | 2026-09-02 07:08:36 | 52.13576 | 15.67848 | 105° | 42km/h | 5856m | -1.7m/s | -17.0°C | 27.8% | 492.5hPa | 2.6V | 00:00:00 | 00:00:00 | 00:00:00 | |
| SP3BTT-10 | 2026-09-02 07:08:33 | 52.13581 | 15.67787 | 89° | 46km/h | 5863m | -1.5m/s | -17.1°C | 29.0% | 492.0hPa | 2.6V | 00:00:00 | 00:00:00 | 00:00:00 | |
| KRY50SP-1 | 2026-09-02 07:08:30 | 52.13580 | 15.67754 | 87° | 44km/h | 5866m | -1.7m/s | -17.1°C | 27.9% | 491.9hPa | 2.6V | 00:00:00 | 00:00:00 | 00:00:00 | |
| EDDB2-12 | 2026-09-02 07:08:28 | 52.13580 | 15.67694 | 94° | 49km/h | 5871m | -2.0m/s | -17.2°C | 27.9% | 491.4hPa | 2.6V | 00:00:00 | 00:00:00 | 00:00:00 | |
| KRY50SP-1 | 2026-09-02 07:08:25 | 52.13583 | 15.67654 | 103° | 47km/h | 5875m | -1.8m/s | -17.2°C | 28.0% | 491.2hPa | 2.6V | 00:00:00 | 00:00:00 | 00:00:00 | |
| SP3WXH-11 | 2026-09-02 07:08:21 | 52.13593 | 15.67557 | 87° | 38km/h | 5885m | -1.7m/s | -17.4°C | 28.1% | 490.5hPa | 2.6V | 00:00:00 | 00:00:00 | 00:00:00 | |
| KRY50SP-1 | 2026-09-02 07:08:19 | 52.13593 | 15.67556 | 88° | 40km/h | 5886m | -1.7m/s | -17.4°C | 28.1% | 490.5hPa | 2.6V | 00:00:00 | 00:00:00 | 00:00:00 | |
| KRY50SP-1 | 2026-09-02 07:08:13 | 52.13594 | 15.67440 | 102° | 49km/h | 5896m | -1.7m/s | -17.4°C | 28.0% | 489.9hPa | 2.6V | 00:00:00 | 00:00:00 | 00:00:00 | |
| SONDE2-11 | 2026-09-02 07:08:11 | 52.13605 | 15.67369 | 99° | 38km/h | 5903m | -1.6m/s | -17.6°C | 28.2% | 489.3hPa | 2.6V | 00:00:00 | 00:00:00 | 00:00:00 | |
| KRY50SP-1 | 2026-09-02 07:08:08 | 52.13606 | 15.67354 | 95° | 38km/h | 5905m | -1.6m/s | -17.6°C | 28.4% | 489.3hPa | 2.6V | 00:00:00 | 00:00:00 | 00:00:00 | |
| SP6BVK | 2026-09-02 07:08:04 | 52.13604 | 15.67284 | 88° | 49km/h | 5911m | -1.5m/s | -17.5°C | 28.2% | 488.8hPa | 2.6V | 00:00:00 | 00:00:00 | 00:00:00 | |
| SP3BTT-10 | 2026-09-02 07:08:03 | 52.13605 | 15.67243 | 96° | 44km/h | 5915m | -2.0m/s | -17.5°C | 29.4% | 488.6hPa | 2.6V | 00:00:00 | 00:00:00 | 00:00:00 | |
| EDDB2-12 | 2026-09-02 07:07:57 | 52.13618 | 15.67136 | 96° | 37km/h | 5926m | -1.9m/s | -17.8°C | 28.8% | 487.9hPa | 2.6V | 00:00:00 | 00:00:00 | 00:00:00 | |
| SP3WXH-11 | 2026-09-02 07:07:50 | 52.13620 | 15.66986 | 101° | 47km/h | 5939m | -1.8m/s | -17.7°C | 28.5% | 487.1hPa | 2.6V | 00:00:00 | 00:00:00 | 00:00:00 | |
| KRY50SP-1 | 2026-09-02 07:07:46 | 52.13626 | 15.66950 | 105° | 42km/h | 5943m | -1.8m/s | -17.9°C | 28.7% | 486.8hPa | 2.6V | 00:00:00 | 00:00:00 | 00:00:00 | |
| SP6BVK | 2026-09-02 07:07:43 | 52.13630 | 15.66903 | 91° | 38km/h | 5948m | -1.7m/s | -18.0°C | 29.0% | 486.4hPa | 2.6V | 00:00:00 | 00:00:00 | 00:00:00 | |
| EDDB2-11 | 2026-09-02 07:07:42 | 52.13629 | 15.66870 | 86° | 44km/h | 5952m | -1.9m/s | -18.0°C | 28.8% | 486.3hPa | 2.6V | 00:00:00 | 00:00:00 | 00:00:00 | |
| SONDE2-11 | 2026-09-02 07:07:40 | 52.13628 | 15.66810 | 93° | 51km/h | 5957m | -1.8m/s | -18.0°C | 29.0% | 485.9hPa | 2.6V | 00:00:00 | 00:00:00 | 00:00:00 | |
| KRY50SP-1 | 2026-09-02 07:07:34 | 52.13636 | 15.66732 | 104° | 42km/h | 5965m | -1.7m/s | -18.1°C | 29.2% | 485.4hPa | 2.6V | 00:00:00 | 00:00:00 | 00:00:00 | |
| SP3BTT-10 | 2026-09-02 07:07:33 | 52.13640 | 15.66701 | 97° | 44km/h | 5968m | -1.7m/s | -18.1°C | 30.4% | 485.1hPa | 2.6V | 00:00:00 | 00:00:00 | 00:00:00 | |
| KRY50SP-1 | 2026-09-02 07:07:29 | 52.13640 | 15.66652 | 86° | 44km/h | 5973m | -1.9m/s | -18.2°C | 29.3% | 484.8hPa | 2.6V | 00:00:00 | 00:00:00 | 00:00:00 | |
| EDDB2-12 | 2026-09-02 07:07:26 | 52.13640 | 15.66572 | 96° | 51km/h | 5981m | -2.0m/s | -18.2°C | 29.5% | 484.3hPa | 2.6V | 00:00:00 | 00:00:00 | 00:00:00 | |
| KRY50SP-1 | 2026-09-02 07:07:24 | 52.13642 | 15.66552 | 102° | 49km/h | 5983m | -2.0m/s | -18.2°C | 29.4% | 484.1hPa | 2.6V | 00:00:00 | 00:00:00 | 00:00:00 | |
| SP6BVK | 2026-09-02 07:07:22 | 52.13647 | 15.66514 | 105° | 44km/h | 5987m | -1.8m/s | -18.3°C | 29.5% | 483.9hPa | 2.6V | 00:00:00 | 00:00:00 | 00:00:00 | |
| KRY50SP-1 | 2026-09-02 07:07:18 | 52.13652 | 15.66451 | 89° | 38km/h | 5995m | -1.7m/s | -18.4°C | 29.6% | 483.4hPa | 2.6V | 00:00:00 | 00:00:00 | 00:00:00 | |
| KRY50SP-1 | 2026-09-02 07:07:13 | 52.13652 | 15.66356 | 97° | 51km/h | 6004m | -1.8m/s | -18.4°C | 30.2% | 482.9hPa | 2.6V | 00:00:00 | 00:00:00 | 00:00:00 | |
| EDDB2-11 | 2026-09-02 07:07:11 | 52.13659 | 15.66298 | 104° | 42km/h | 6009m | -2.0m/s | -18.5°C | 30.1% | 482.5hPa | 2.6V | 00:00:00 | 00:00:00 | 00:00:00 | |
| SONDE2-11 | 2026-09-02 07:07:09 | 52.13665 | 15.66251 | 94° | 35km/h | 6015m | -1.9m/s | -18.6°C | 30.2% | 482.1hPa | 2.6V | 00:00:00 | 00:00:00 | 00:00:00 | |
| KRY50SP-1 | 2026-09-02 07:07:07 | 52.13665 | 15.66251 | 95° | 37km/h | 6015m | -1.9m/s | -18.6°C | 30.2% | 482.1hPa | 2.6V | 00:00:00 | 00:00:00 | 00:00:00 | |
| SP3BTT-10 | 2026-09-02 07:07:03 | 52.13662 | 15.66164 | 89° | 44km/h | 6025m | -1.7m/s | -18.5°C | 31.4% | 481.4hPa | 2.6V | 00:00:00 | 00:00:00 | 00:00:00 | |
| SP6BVK | 2026-09-02 07:07:02 | 52.13662 | 15.66164 | 90° | 49km/h | 6025m | -1.8m/s | -18.6°C | 30.2% | 481.5hPa | 2.7V | 00:00:00 | 00:00:00 | 00:00:00 | |
| KRY50SP-1 | 2026-09-02 07:07:01 | 52.13663 | 15.66143 | 94° | 51km/h | 6027m | -1.9m/s | -18.6°C | 30.4% | 481.3hPa | 2.7V | 00:00:00 | 00:00:00 | 00:00:00 | |
| EDDB2-12 | 2026-09-02 07:06:55 | 52.13678 | 15.66017 | 95° | 35km/h | 6040m | -2.0m/s | -18.8°C | 30.4% | 480.5hPa | 2.7V | 00:00:00 | 00:00:00 | 00:00:00 | |
| SP3WXH-11 | 2026-09-02 07:06:48 | 52.13680 | 15.65868 | 101° | 47km/h | 6056m | -1.9m/s | -18.8°C | 30.8% | 479.5hPa | 2.7V | 00:00:00 | 00:00:00 | 00:00:00 | |
| KRY50SP-1 | 2026-09-02 07:06:45 | 52.13683 | 15.65849 | 106° | 46km/h | 6058m | -1.9m/s | -18.9°C | 30.9% | 479.3hPa | 2.7V | 00:00:00 | 00:00:00 | 00:00:00 | |
| SP6BVK | 2026-09-02 07:06:41 | 52.13692 | 15.65786 | 97° | 37km/h | 6066m | -2.2m/s | -19.0°C | 30.7% | 478.8hPa | 2.7V | 00:00:00 | 00:00:00 | 00:00:00 | |
| EDDB2-11 | 2026-09-02 07:06:40 | 52.13693 | 15.65755 | 87° | 38km/h | 6070m | -1.9m/s | -19.0°C | 30.6% | 478.5hPa | 2.7V | 00:00:00 | 00:00:00 | 00:00:00 | |
| KRY50SP-1 | 2026-09-02 07:06:39 | 52.13693 | 15.65755 | 88° | 40km/h | 6070m | -1.9m/s | -19.0°C | 30.6% | 478.5hPa | 2.7V | 00:00:00 | 00:00:00 | 00:00:00 | |
| SONDE2-11 | 2026-09-02 07:06:38 | 52.13691 | 15.65700 | 91° | 47km/h | 6076m | -1.9m/s | -19.0°C | 31.1% | 478.3hPa | 2.7V | 00:00:00 | 00:00:00 | 00:00:00 | |
| KRY50SP-1 | 2026-09-02 07:06:34 | 52.13693 | 15.65659 | 100° | 49km/h | 6079m | -1.9m/s | -19.1°C | 31.2% | 478.0hPa | 2.7V | 00:00:00 | 00:00:00 | 00:00:00 | |
| KRY50SP-1 | 2026-09-02 07:06:28 | 52.13708 | 15.65559 | 96° | 35km/h | 6091m | -2.1m/s | -19.3°C | 31.3% | 477.1hPa | 2.7V | 00:00:00 | 00:00:00 | 00:00:00 | |
| 13BRC | 2026-09-02 07:06:26 | 52.13708 | 15.65528 | 87° | 40km/h | 6095m | -1.9m/s | -19.3°C | 31.3% | 477.0hPa | 2.7V | 00:00:00 | 00:00:00 | 00:00:00 | |
| EDDB2-12 | 2026-09-02 07:06:24 | 52.13707 | 15.65472 | 92° | 47km/h | 6101m | -1.9m/s | -19.3°C | 31.6% | 476.6hPa | 2.7V | 00:00:00 | 00:00:00 | 00:00:00 | |
| KRY50SP-1 | 2026-09-02 07:06:23 | 52.13707 | 15.65472 | 93° | 49km/h | 6101m | -1.9m/s | -19.3°C | 31.6% | 476.6hPa | 2.7V | 00:00:00 | 00:00:00 | 00:00:00 | |
| SP6BVK | 2026-09-02 07:06:21 | 52.13710 | 15.65432 | 102° | 49km/h | 6105m | -2.1m/s | -19.3°C | 31.6% | 476.3hPa | 2.7V | 00:00:00 | 00:00:00 | 00:00:00 | |
| SP3WXH-11 | 2026-09-02 07:06:17 | 52.13723 | 15.65335 | 91° | 35km/h | 6117m | -1.8m/s | -19.5°C | 31.5% | 475.5hPa | 2.7V | 00:00:00 | 00:00:00 | 00:00:00 | |
| KRY50SP-1 | 2026-09-02 07:06:11 | 52.13721 | 15.65264 | 92° | 49km/h | 6125m | -1.7m/s | -19.4°C | 31.7% | 475.1hPa | 2.7V | 00:00:00 | 00:00:00 | 00:00:00 | |
| EDDB2-11 | 2026-09-02 07:06:10 | 52.13726 | 15.65204 | 103° | 47km/h | 6131m | -2.1m/s | -19.5°C | 32.4% | 474.6hPa | 2.7V | 00:00:00 | 00:00:00 | 00:00:00 | |
| SONDE2-11 | 2026-09-02 07:06:07 | 52.13735 | 15.65153 | 104° | 37km/h | 6137m | -2.0m/s | -19.6°C | 32.6% | 474.3hPa | 2.7V | 00:00:00 | 00:00:00 | 00:00:00 | |
| KRY50SP-1 | 2026-09-02 07:06:06 | 52.13735 | 15.65153 | 106° | 38km/h | 6137m | -2.0m/s | -19.6°C | 32.6% | 474.3hPa | 2.7V | 00:00:00 | 00:00:00 | 00:00:00 | |
| 13BRC | 2026-09-02 07:06:05 | 52.13735 | 15.65153 | 106° | 38km/h | 6137m | -2.0m/s | -19.6°C | 32.6% | 474.3hPa | 2.7V | 00:00:00 | 00:00:00 | 00:00:00 | |
| SP3BTT-10 | 2026-09-02 07:06:03 | 52.13738 | 15.65108 | 90° | 44km/h | 6143m | -2.0m/s | -19.6°C | 33.9% | 473.8hPa | 2.7V | 00:00:00 | 00:00:00 | 00:00:00 | |
| EDDB2-12 | 2026-09-02 07:05:53 | 52.13750 | 15.64922 | 102° | 37km/h | 6163m | -1.9m/s | -19.7°C | 29.1% | 472.6hPa | 2.7V | 00:00:00 | 00:00:00 | 00:00:00 | |
| SP3WXH-11 | 2026-09-02 07:05:46 | 52.13753 | 15.64785 | 97° | 47km/h | 6180m | -1.9m/s | -19.7°C | 28.8% | 471.6hPa | 2.7V | 00:00:00 | 00:00:00 | 00:00:00 | |
| 13BRC | 2026-09-02 07:05:44 | 52.13752 | 15.64785 | 98° | 49km/h | 6180m | -1.9m/s | -19.7°C | 28.8% | 471.6hPa | 2.7V | 00:00:00 | 00:00:00 | 00:00:00 | |
| KRY50SP-1 | 2026-09-02 07:05:43 | 52.13755 | 15.64766 | 103° | 47km/h | 6182m | -1.9m/s | -19.7°C | 28.9% | 471.4hPa | 2.7V | 00:00:00 | 00:00:00 | 00:00:00 | |
| SP6BVK | 2026-09-02 07:05:41 | 52.13762 | 15.64714 | 105° | 38km/h | 6187m | -1.9m/s | -19.8°C | 28.7% | 471.1hPa | 2.7V | 00:00:00 | 00:00:00 | 00:00:00 | |
| EDDB2-11 | 2026-09-02 07:05:38 | 52.13766 | 15.64669 | 88° | 38km/h | 6193m | -2.0m/s | -19.9°C | 28.6% | 470.7hPa | 2.7V | 00:00:00 | 00:00:00 | 00:00:00 | |
| SONDE2-11 | 2026-09-02 07:05:35 | 52.13764 | 15.64615 | 88° | 47km/h | 6199m | -2.1m/s | -19.9°C | 28.6% | 470.3hPa | 2.7V | 00:00:00 | 00:00:00 | 00:00:00 | |
| SP3BTT-10 | 2026-09-02 07:05:33 | 52.13765 | 15.64573 | 96° | 44km/h | 6203m | -1.9m/s | -19.8°C | 29.8% | 470.1hPa | 2.7V | 00:00:00 | 00:00:00 | 08:30:00 | |
| KRY50SP-1 | 2026-09-02 07:05:28 | 52.13775 | 15.64497 | 106° | 42km/h | 6212m | -1.9m/s | -20.0°C | 28.7% | 469.6hPa | 2.6V | 00:00:00 | 00:00:00 | 00:00:00 | |
| DB0DAN | 2026-09-02 07:05:25 | 52.13780 | 15.64435 | 88° | 37km/h | 6219m | -2m/s | -20°C | 28.6% | 469.1hPa | 2.6V | 00:00:00 | 00:00:00 | 00:00:00 | |
| 13BRC | 2026-09-02 07:05:23 | 52.13779 | 15.64418 | 88° | 42km/h | 6222m | -2.2m/s | -20.1°C | 28.7% | 469.0hPa | 2.6V | 00:00:00 | 00:00:00 | 00:00:00 | |
| EDDB2-12 | 2026-09-02 07:05:22 | 52.13779 | 15.64381 | 91° | 47km/h | 6226m | -2.0m/s | -20.1°C | 28.9% | 468.8hPa | 2.6V | 00:00:00 | 00:00:00 | 00:00:00 | |
| SP6BVK | 2026-09-02 07:05:19 | 52.13781 | 15.64341 | 100° | 49km/h | 6230m | -2.0m/s | -20.1°C | 28.9% | 468.5hPa | 2.6V | 00:00:00 | 00:00:00 | 00:00:00 | |
| KRY50SP-1 | 2026-09-02 07:05:17 | 52.13786 | 15.64304 | 105° | 44km/h | 6233m | -1.9m/s | -20.1°C | 28.7% | 468.2hPa | 2.6V | 00:00:00 | 00:00:00 | 00:00:00 | |
| SP3WXH-11 | 2026-09-02 07:05:15 | 52.13793 | 15.64241 | 90° | 37km/h | 6241m | -1.9m/s | -20.2°C | 27.7% | 467.6hPa | 2.6V | 00:00:00 | 00:00:00 | 00:00:00 | |
| KRY50SP-1 | 2026-09-02 07:05:12 | 52.13793 | 15.64225 | 88° | 40km/h | 6243m | -1.8m/s | -20.2°C | 27.7% | 467.5hPa | 2.6V | 00:00:00 | 00:00:00 | 00:00:00 | |
| DB0DAN | 2026-09-02 07:05:10 | 52.13792 | 15.64170 | 92° | 46km/h | 6249m | -2.2m/s | -20.3°C | 28.2% | 467.19hPa | 2.6V | 00:00:00 | 00:00:00 | 00:00:00 | |
| EDDB2-11 | 2026-09-02 07:05:07 | 52.13797 | 15.64112 | 103° | 44km/h | 6254m | -1.9m/s | -20.2°C | 28.2% | 466.8hPa | 2.7V | 00:00:00 | 00:00:00 | 00:00:00 | |
| KRY50SP-1 | 2026-09-02 07:05:06 | 52.13797 | 15.64112 | 104° | 46km/h | 6255m | -1.9m/s | -20.2°C | 28.2% | 466.8hPa | 2.7V | 00:00:00 | 00:00:00 | 00:00:00 | |
| SONDE2-11 | 2026-09-02 07:05:04 | 52.13804 | 15.64063 | 99° | 35km/h | 6260m | -2.0m/s | -20.4°C | 27.4% | 466.4hPa | 2.7V | 00:00:00 | 00:00:00 | 00:00:00 | |
| SP3BTT-10 | 2026-09-02 07:05:03 | 52.13805 | 15.64048 | 95° | 40km/h | 6262m | -1.8m/s | -20.3°C | 28.4% | 466.3hPa | 2.7V | 00:00:00 | 00:00:00 | 00:00:00 | |
| 13BRC | 2026-09-02 07:05:02 | 52.13805 | 15.64048 | 95° | 37km/h | 6262m | -1.9m/s | -20.4°C | 27.2% | 466.3hPa | 2.7V | 00:00:00 | 00:00:00 | 00:00:00 | |
| KRY50SP-1 | 2026-09-02 07:05:01 | 52.13805 | 15.64033 | 90° | 38km/h | 6264m | -1.9m/s | -20.3°C | 27.0% | 466.2hPa | 2.7V | 00:00:00 | 00:00:00 | 00:00:00 | |
| SP6BVK | 2026-09-02 07:04:58 | 52.13804 | 15.63981 | 91° | 47km/h | 6270m | -2.1m/s | -20.3°C | 26.9% | 465.8hPa | 2.7V | 00:00:00 | 00:00:00 | 00:00:00 | |
| KRY50SP-1 | 2026-09-02 07:04:56 | 52.13805 | 15.63941 | 99° | 49km/h | 6274m | -2.0m/s | -20.4°C | 27.1% | 465.6hPa | 2.7V | 00:00:00 | 00:00:00 | 00:00:00 | |
| DB0DAN | 2026-09-02 07:04:55 | 52.13810 | 15.63902 | 104° | 44km/h | 6278m | -1.9m/s | -20.4°C | 26.9% | 465.32hPa | 2.7V | 00:00:00 | 00:00:00 | 00:00:00 | |
| EDDB2-12 | 2026-09-02 07:04:51 | 52.13819 | 15.63840 | 94° | 35km/h | 6286m | -2.0m/s | -20.6°C | 26.9% | 464.9hPa | 2.7V | 00:00:00 | 00:00:00 | 00:00:00 | |
| SP3WXH-11 | 2026-09-02 07:04:46 | 52.13823 | 15.63697 | 104° | 46km/h | 6301m | -2.1m/s | -20.6°C | 27.2% | 463.9hPa | 2.7V | 00:00:00 | 00:00:00 | 00:00:00 | |
| 13BRC | 2026-09-02 07:04:41 | 52.13825 | 15.63679 | 107° | 44km/h | 6304m | -1.9m/s | -20.6°C | 27.0% | 463.8hPa | 2.7V | 00:00:00 | 00:00:00 | 00:00:00 | |
| DB0DAN | 2026-09-02 07:04:40 | 52.13831 | 15.63647 | 105° | 35km/h | 6308m | -2m/s | -20.8°C | 26.9% | 463.48hPa | 2.7V | 00:00:00 | 00:00:00 | 00:00:00 | |
| SP6BVK | 2026-09-02 07:04:38 | 52.13833 | 15.63633 | 101° | 35km/h | 6309m | -1.8m/s | -20.8°C | 27.0% | 463.3hPa | 2.7V | 00:00:00 | 00:00:00 | 00:00:00 | |
| EDDB2-11 | 2026-09-02 07:04:36 | 52.13834 | 15.63589 | 87° | 40km/h | 6315m | -1.9m/s | -20.7°C | 26.9% | 463.0hPa | 2.7V | 00:00:00 | 00:00:00 | 00:00:00 | |
| SP3BTT-10 | 2026-09-02 07:04:33 | 52.13835 | 15.63533 | 98° | 42km/h | 6321m | -1.8m/s | -20.8°C | 28.3% | 462.6hPa | 2.7V | 00:00:00 | 00:00:00 | 00:00:00 | |
| KRY50SP-1 | 2026-09-02 07:04:29 | 52.13843 | 15.63477 | 109° | 44km/h | 6327m | -1.9m/s | -20.8°C | 26.8% | 462.3hPa | 2.7V | 00:00:00 | 00:00:00 | 00:00:00 | |
| DB0DAN | 2026-09-02 07:04:25 | 52.13853 | 15.63404 | 91° | 35km/h | 6337m | -1.9m/s | -21°C | 26.5% | 461.71hPa | 2.7V | 00:00:00 | 00:00:00 | 00:00:00 | |
| KRY50SP-1 | 2026-09-02 07:04:23 | 52.13853 | 15.63388 | 89° | 38km/h | 6339m | -2.1m/s | -20.9°C | 26.2% | 461.6hPa | 2.7V | 00:00:00 | 00:00:00 | 00:00:00 | |
| 13BRC | 2026-09-02 07:04:21 | 52.13853 | 15.63353 | 91° | 46km/h | 6343m | -1.9m/s | -20.9°C | 26.5% | 461.3hPa | 2.7V | 00:00:00 | 00:00:00 | 00:00:00 | |
| EDDB2-12 | 2026-09-02 07:04:20 | 52.13855 | 15.63315 | 99° | 47km/h | 6347m | -2.1m/s | -21.0°C | 26.5% | 461.1hPa | 2.7V | 00:00:00 | 00:00:00 | 00:00:00 | |
| SP6BVK | 2026-09-02 07:04:19 | 52.13857 | 15.63295 | 105° | 47km/h | 6349m | -2.0m/s | -21.0°C | 26.5% | 460.9hPa | 2.7V | 00:00:00 | 00:00:00 | 00:00:00 | |
| KRY50SP-1 | 2026-09-02 07:04:17 | 52.13860 | 15.63277 | 108° | 44km/h | 6351m | -2.0m/s | -20.9°C | 26.1% | 460.8hPa | 2.7V | 00:00:00 | 00:00:00 | 00:00:00 | |
| KRY50SP-1 | 2026-09-02 07:04:12 | 52.13872 | 15.63204 | 94° | 33km/h | 6361m | -2.2m/s | -21.1°C | 25.0% | 460.2hPa | 2.7V | 00:00:00 | 00:00:00 | 00:00:00 | |
| DB0DAN | 2026-09-02 07:04:10 | 52.13871 | 15.63157 | 88° | 42km/h | 6367m | -2m/s | -21.1°C | 24.1% | 459.76hPa | 2.7V | 00:00:00 | 00:00:00 | 00:00:00 | |
| KRY50SP-1 | 2026-09-02 07:04:06 | 52.13874 | 15.63100 | 101° | 47km/h | 6373m | -2.0m/s | -21.1°C | 23.9% | 459.4hPa | 2.6V | 00:00:00 | 00:00:00 | 00:00:00 | |
| EDDB2-11 | 2026-09-02 07:04:05 | 52.13880 | 15.63063 | 107° | 42km/h | 6377m | -2.1m/s | -21.1°C | 23.4% | 459.1hPa | 2.6V | 00:00:00 | 00:00:00 | 00:00:00 | |
| SP3BTT-10 | 2026-09-02 07:04:03 | 52.13886 | 15.63032 | 109° | 38km/h | 6381m | -2.0m/s | -21.1°C | 23.9% | 458.9hPa | 2.6V | 00:00:00 | 00:00:00 | 00:00:00 | |
| SONDE2-11 | 2026-09-02 07:04:02 | 52.13888 | 15.63019 | 103° | 31km/h | 6383m | -1.9m/s | -21.2°C | 22.6% | 458.8hPa | 2.6V | 00:00:00 | 00:00:00 | 00:00:00 | |
| 13BRC | 2026-09-02 07:04:01 | 52.13888 | 15.63019 | 105° | 33km/h | 6383m | -1.9m/s | -21.2°C | 22.6% | 458.7hPa | 2.6V | 00:00:00 | 00:00:00 | 00:00:00 | |
| SP6BVK | 2026-09-02 07:03:58 | 52.13891 | 15.62979 | 89° | 35km/h | 6389m | -2.1m/s | -21.2°C | 22.6% | 458.4hPa | 2.6V | 00:00:00 | 00:00:00 | 00:00:00 | |
| DB0DAN | 2026-09-02 07:03:55 | 52.13892 | 15.62911 | 98° | 44km/h | 6397m | -1.8m/s | -21.2°C | 22.9% | 457.94hPa | 2.6V | 00:00:00 | 00:00:00 | 00:00:00 | |
| EDDB2-12 | 2026-09-02 07:03:49 | 52.13908 | 15.62816 | 102° | 31km/h | 6408m | -2.1m/s | -21.4°C | 22.4% | 457.2hPa | 2.7V | 00:00:00 | 00:00:00 | 00:00:00 | |
| KRY50SP-1 | 2026-09-02 07:03:43 | 52.13910 | 15.62742 | 94° | 44km/h | 6419m | -1.8m/s | -21.4°C | 22.7% | 456.6hPa | 2.7V | 00:00:00 | 00:00:00 | 00:00:00 | |
| DB0DAN | 2026-09-02 07:03:40 | 52.13919 | 15.62669 | 109° | 40km/h | 6426m | -1.8m/s | -21.4°C | 22.9% | 456.12hPa | 2.7V | 00:00:00 | 00:00:00 | 00:00:00 | |
| KRY50SP-1 | 2026-09-02 07:03:37 | 52.13925 | 15.62638 | 110° | 37km/h | 6430m | -1.8m/s | -21.5°C | 23.7% | 455.9hPa | 2.7V | 00:00:00 | 00:00:00 | 00:00:00 | |
| EDDB2-11 | 2026-09-02 07:03:34 | 52.13931 | 15.62585 | 88° | 35km/h | 6438m | -2.2m/s | -21.5°C | 24.3% | 455.3hPa | 2.7V | 00:00:00 | 00:00:00 | 00:00:00 | |
| SP3BTT-10 | 2026-09-02 07:03:33 | 52.13930 | 15.62570 | 87° | 40km/h | 6440m | -1.9m/s | -21.5°C | 25.7% | 455.2hPa | 2.7V | 00:00:00 | 00:00:00 | 00:00:00 | |
| SONDE2-11 | 2026-09-02 07:03:31 | 52.13930 | 15.62536 | 91° | 44km/h | 6444m | -2.1m/s | -21.6°C | 24.8% | 455.0hPa | 2.7V | 00:00:00 | 00:00:00 | 00:00:00 | |
| DB0DAN | 2026-09-02 07:03:25 | 52.13943 | 15.62432 | 108° | 33km/h | 6456m | -1.8m/s | -21.7°C | 25.5% | 454.34hPa | 2.7V | 00:00:00 | 00:00:00 | 00:00:00 | |
| KRY50SP-1 | 2026-09-02 07:03:20 | 52.13948 | 15.62379 | 89° | 35km/h | 6464m | -2.2m/s | -21.8°C | 26.0% | 453.8hPa | 2.6V | 00:00:00 | 00:00:00 | 00:00:00 | |
| EDDB2-12 | 2026-09-02 07:03:18 | 52.13947 | 15.62328 | 91° | 44km/h | 6469m | -2.1m/s | -21.8°C | 26.1% | 453.4hPa | 2.6V | 00:00:00 | 00:00:00 | 00:00:00 | |
| SP6BVK | 2026-09-02 07:03:16 | 52.13948 | 15.62310 | 97° | 47km/h | 6472m | -2.0m/s | -21.8°C | 26.3% | 453.2hPa | 2.6V | 00:00:00 | 00:00:00 | 00:00:00 | |
| KRY50SP-1 | 2026-09-02 07:03:14 | 52.13953 | 15.62272 | 107° | 44km/h | 6475m | -2.0m/s | -21.9°C | 26.7% | 453.1hPa | 2.6V | 00:00:00 | 00:00:00 | 00:00:00 | |
| DB0DAN | 2026-09-02 07:03:10 | 52.13966 | 15.62199 | 97° | 31km/h | 6485m | -1.9m/s | -22°C | 26.8% | 452.47hPa | 2.6V | 00:00:00 | 00:00:00 | 00:00:00 | |
| KRY50SP-1 | 2026-09-02 07:03:09 | 52.13967 | 15.62186 | 92° | 33km/h | 6487m | -2.0m/s | -22.1°C | 26.9% | 452.3hPa | 2.7V | 00:00:00 | 00:00:00 | 00:00:00 | |
| SP3BTT-10 | 2026-09-02 07:03:03 | 52.13970 | 15.62084 | 104° | 42km/h | 6499m | -1.7m/s | -22.0°C | 28.7% | 451.6hPa | 2.7V | 00:00:00 | 00:00:00 | 00:00:00 | |
| SONDE2-11 | 2026-09-02 07:03:00 | 52.13980 | 15.62036 | 109° | 35km/h | 6504m | -1.8m/s | -22.2°C | 27.3% | 451.3hPa | 2.7V | 00:00:00 | 00:00:00 | 00:00:00 | |
| KRY50SP-1 | 2026-09-02 07:02:58 | 52.13984 | 15.62009 | 101° | 33km/h | 6508m | -1.9m/s | -22.3°C | 27.6% | 451.1hPa | 2.7V | 00:00:00 | 00:00:00 | 00:00:00 | |
| SP6BVK | 2026-09-02 07:02:56 | 52.13985 | 15.61996 | 95° | 33km/h | 6510m | -2.0m/s | -22.3°C | 27.7% | 451.0hPa | 2.7V | 00:00:00 | 00:00:00 | 00:00:00 | |
| DB0DAN | 2026-09-02 07:02:55 | 52.13985 | 15.61966 | 88° | 38km/h | 6514m | -1.9m/s | -22.2°C | 27.6% | 450.66hPa | 2.7V | 00:00:00 | 00:00:00 | 00:00:00 | |
| EDDB2-12 | 2026-09-02 07:02:47 | 52.14001 | 15.61824 | 109° | 35km/h | 6529m | -1.9m/s | -22.5°C | 27.8% | 449.8hPa | 2.7V | 00:00:00 | 00:00:00 | 00:00:00 | |
| KRY50SP-1 | 2026-09-02 07:02:45 | 52.14003 | 15.61811 | 106° | 33km/h | 6531m | -1.8m/s | -22.5°C | 28.1% | 449.7hPa | 2.7V | 00:00:00 | 00:00:00 | 00:00:00 | |
| DB0DAN | 2026-09-02 07:02:40 | 52.14005 | 15.61717 | 92° | 44km/h | 6542m | -2m/s | -22.4°C | 27.9% | 449.04hPa | 2.7V | 00:00:00 | 00:00:00 | 00:00:00 | |
| SP6BVK | 2026-09-02 07:02:36 | 52.14010 | 15.61660 | 106° | 46km/h | 6548m | -1.8m/s | -22.5°C | 28.1% | 448.6hPa | 2.7V | 00:00:00 | 00:00:00 | 00:00:00 | |
| KRY50SP-1 | 2026-09-02 07:02:35 | 52.14013 | 15.61643 | 109° | 42km/h | 6550m | -1.8m/s | -22.5°C | 28.1% | 448.6hPa | 2.7V | 00:00:00 | 00:00:00 | 00:00:00 | |
| SP3BTT-10 | 2026-09-02 07:02:33 | 52.14022 | 15.61599 | 102° | 40km/h | 6555m | -1.7m/s | -22.7°C | 29.7% | 448.2hPa | 2.7V | 00:00:00 | 00:00:00 | 00:00:00 | |
| EDDB2-11 | 2026-09-02 07:02:32 | 52.14023 | 15.61586 | 94° | 33km/h | 6557m | -2.0m/s | -22.7°C | 28.5% | 448.1hPa | 2.7V | 00:00:00 | 00:00:00 | 00:00:00 | |
| KRY50SP-1 | 2026-09-02 07:02:30 | 52.14023 | 15.61571 | 91° | 37km/h | 6559m | -1.9m/s | -22.7°C | 28.4% | 447.9hPa | 2.7V | 00:00:00 | 00:00:00 | 00:00:00 | |
| SONDE2-11 | 2026-09-02 07:02:29 | 52.14022 | 15.61539 | 87° | 42km/h | 6562m | -1.8m/s | -22.7°C | 28.2% | 447.7hPa | 2.7V | 00:00:00 | 00:00:00 | 00:00:00 | |
| DB0DAN | 2026-09-02 07:02:25 | 52.14026 | 15.61463 | 102° | 46km/h | 6570m | -1.8m/s | -22.7°C | 28.6% | 447.22hPa | 2.7V | 00:00:00 | 00:00:00 | 00:00:00 | |
| KRY50SP-1 | 2026-09-02 07:02:24 | 52.14025 | 15.61463 | 103° | 47km/h | 6570m | -1.8m/s | -22.7°C | 28.6% | 447.2hPa | 2.7V | 00:00:00 | 00:00:00 | 00:00:00 | |
| KRY50SP-1 | 2026-09-02 07:02:19 | 52.14040 | 15.61384 | 101° | 33km/h | 6579m | -1.7m/s | -23.0°C | 28.7% | 446.7hPa | 2.7V | 00:00:00 | 00:00:00 | 00:00:00 | |
| EDDB2-12 | 2026-09-02 07:02:16 | 52.14040 | 15.61323 | 87° | 42km/h | 6586m | -2.0m/s | -22.9°C | 28.4% | 446.3hPa | 2.7V | 00:00:00 | 00:00:00 | 00:00:00 | |
| SP6BVK | 2026-09-02 07:02:15 | 52.14040 | 15.61323 | 89° | 44km/h | 6586m | -2.0m/s | -22.9°C | 28.4% | 446.3hPa | 2.7V | 00:00:00 | 00:00:00 | 00:00:00 | |
| KRY50SP-1 | 2026-09-02 07:02:14 | 52.14040 | 15.61305 | 91° | 47km/h | 6588m | -2.0m/s | -22.9°C | 28.5% | 446.1hPa | 2.7V | 00:00:00 | 00:00:00 | 00:00:00 | |
| DB0DAN | 2026-09-02 07:02:10 | 52.14050 | 15.61210 | 109° | 40km/h | 6598m | -1.8m/s | -23°C | 28.6% | 445.56hPa | 2.7V | 00:00:00 | 00:00:00 | 00:00:00 | |
| KRY50SP-1 | 2026-09-02 07:02:09 | 52.14050 | 15.61209 | 110° | 42km/h | 6598m | -1.8m/s | -23.0°C | 28.6% | 445.6hPa | 2.7V | 00:00:00 | 00:00:00 | 00:00:00 | |
| 13BRC | 2026-09-02 07:02:08 | 52.14054 | 15.61193 | 110° | 38km/h | 6600m | -1.8m/s | -23.1°C | 28.6% | 445.5hPa | 2.7V | 00:00:00 | 00:00:00 | 00:00:00 | |
| KRY50SP-1 | 2026-09-02 07:02:04 | 52.14059 | 15.61136 | 90° | 37km/h | 6607m | -1.8m/s | -23.2°C | 28.2% | 444.9hPa | 2.7V | 00:00:00 | 00:00:00 | 00:00:00 | |
| SP3BTT-10 | 2026-09-02 07:02:03 | 52.14058 | 15.61103 | 89° | 42km/h | 6611m | -1.7m/s | -23.1°C | 29.2% | 444.7hPa | 2.7V | 00:00:00 | 00:00:00 | 00:00:00 | |
| EDDB2-11 | 2026-09-02 07:02:01 | 52.14059 | 15.61065 | 94° | 47km/h | 6614m | -1.8m/s | -23.1°C | 28.0% | 444.6hPa | 2.7V | 00:00:00 | 00:00:00 | 00:00:00 | |
| SONDE2-11 | 2026-09-02 07:01:58 | 52.14066 | 15.61008 | 107° | 44km/h | 6619m | -1.7m/s | -23.2°C | 28.2% | 444.3hPa | 2.7V | 00:00:00 | 00:00:00 | 00:00:00 | |
| SP6BVK | 2026-09-02 07:01:55 | 52.14072 | 15.60976 | 108° | 37km/h | 6623m | -1.6m/s | -23.4°C | 28.5% | 444.0hPa | 2.7V | 00:00:00 | 00:00:00 | 00:00:00 | |
| KRY50SP-1 | 2026-09-02 07:01:52 | 52.14076 | 15.60934 | 91° | 35km/h | 6628m | -1.8m/s | -23.4°C | 28.3% | 443.7hPa | 2.7V | 00:00:00 | 00:00:00 | 00:00:00 | |
| KRY50SP-1 | 2026-09-02 07:01:47 | 52.14075 | 15.60845 | 98° | 49km/h | 6637m | -1.8m/s | -23.3°C | 28.2% | 443.1hPa | 2.7V | 00:00:00 | 00:00:00 | 00:00:00 | |
| 13BRC | 2026-09-02 07:01:42 | 52.14092 | 15.60742 | 102° | 35km/h | 6647m | -1.9m/s | -23.5°C | 28.4% | 442.5hPa | 2.7V | 00:00:00 | 00:00:00 | 00:00:00 | |
| KRY50SP-1 | 2026-09-02 07:01:41 | 52.14092 | 15.60742 | 102° | 35km/h | 6647m | -1.9m/s | -23.5°C | 28.4% | 442.5hPa | 2.7V | 00:00:00 | 00:00:00 | 00:00:00 | |
| KRY50SP-1 | 2026-09-02 07:01:35 | 52.14093 | 15.60641 | 94° | 49km/h | 6658m | -1.5m/s | -23.5°C | 28.5% | 441.9hPa | 2.7V | 00:00:00 | 00:00:00 | 00:00:00 | |
| SP6BVK | 2026-09-02 07:01:34 | 52.14094 | 15.60621 | 98° | 51km/h | 6659m | -1.6m/s | -23.5°C | 28.7% | 441.8hPa | 2.7V | 00:00:00 | 00:00:00 | 00:00:00 | |
| SP3BTT-10 | 2026-09-02 07:01:33 | 52.14099 | 15.60581 | 106° | 44km/h | 6663m | -1.6m/s | -23.5°C | 30.5% | 441.6hPa | 2.7V | 00:00:00 | 00:00:00 | 00:00:00 | |
| EDDB2-11 | 2026-09-02 07:01:30 | 52.14108 | 15.60532 | 103° | 35km/h | 6668m | -2.0m/s | -23.7°C | 29.3% | 441.3hPa | 2.7V | 00:00:00 | 00:00:00 | 00:00:00 | |
| KRY50SP-1 | 2026-09-02 07:01:29 | 52.14108 | 15.60532 | 104° | 37km/h | 6668m | -2.0m/s | -23.7°C | 29.3% | 441.3hPa | 2.7V | 00:00:00 | 00:00:00 | 00:00:00 | |
| SONDE2-11 | 2026-09-02 07:01:27 | 52.14110 | 15.60489 | 87° | 37km/h | 6673m | -1.9m/s | -23.7°C | 29.1% | 440.9hPa | 2.7V | 00:00:00 | 00:00:00 | 00:00:00 | |
| KRY50SP-1 | 2026-09-02 07:01:23 | 52.14108 | 15.60437 | 90° | 47km/h | 6678m | -1.8m/s | -23.6°C | 29.4% | 440.6hPa | 2.7V | 00:00:00 | 00:00:00 | 00:00:00 | |
| 13BRC | 2026-09-02 07:01:20 | 52.14111 | 15.60376 | 102° | 49km/h | 6684m | -1.8m/s | -23.7°C | 28.9% | 440.3hPa | 2.7V | 00:00:00 | 00:00:00 | 00:00:00 | |
| KRY50SP-1 | 2026-09-02 07:01:17 | 52.14119 | 15.60323 | 104° | 40km/h | 6689m | -1.7m/s | -23.9°C | 28.6% | 440.0hPa | 2.7V | 00:00:00 | 00:00:00 | 00:00:00 | |
| EDDB2-12 | 2026-09-02 07:01:14 | 52.14121 | 15.60259 | 86° | 42km/h | 6695m | -1.6m/s | -23.8°C | 28.3% | 439.6hPa | 2.7V | 00:00:00 | 00:00:00 | 00:00:00 | |
| KRY50SP-1 | 2026-09-02 07:01:11 | 52.14120 | 15.60222 | 91° | 49km/h | 6699m | -1.5m/s | -23.8°C | 28.5% | 439.4hPa | 2.7V | 00:00:00 | 00:00:00 | 00:00:00 | |
| KRY50SP-1 | 2026-09-02 07:01:06 | 52.14130 | 15.60125 | 107° | 40km/h | 6707m | -1.6m/s | -23.9°C | 27.4% | 438.9hPa | 2.7V | 00:00:00 | 00:00:00 | 00:00:00 | |
| SP3BTT-10 | 2026-09-02 07:01:03 | 52.14135 | 15.60067 | 87° | 44km/h | 6714m | -1.8m/s | -24.0°C | 27.9% | 438.4hPa | 2.7V | 00:00:00 | 00:00:00 | 08:30:00 | |
| EDDB2-11 | 2026-09-02 07:00:59 | 52.14132 | 15.59996 | 89° | 49km/h | 6721m | -1.7m/s | -24.0°C | 26.7% | 438.1hPa | 2.6V | 00:00:00 | 00:00:00 | 00:00:00 | |
| SONDE2-11 | 2026-09-02 07:00:56 | 52.14135 | 15.59934 | 101° | 47km/h | 6726m | -1.8m/s | -24.0°C | 27.0% | 437.8hPa | 2.6V | 00:00:00 | 00:00:00 | 00:00:00 | |
| KRY50SP-1 | 2026-09-02 07:00:55 | 52.14135 | 15.59934 | 103° | 49km/h | 6726m | -1.8m/s | -24.0°C | 27.0% | 437.7hPa | 2.6V | 00:00:00 | 00:00:00 | 00:00:00 | |
| SP6BVK | 2026-09-02 07:00:53 | 52.14141 | 15.59898 | 104° | 42km/h | 6730m | -1.7m/s | -24.2°C | 27.2% | 437.6hPa | 2.6V | 00:00:00 | 00:00:00 | 00:00:00 | |
| KRY50SP-1 | 2026-09-02 07:00:49 | 52.14144 | 15.59836 | 86° | 40km/h | 6736m | -1.6m/s | -24.2°C | 26.9% | 437.2hPa | 2.6V | 00:00:00 | 00:00:00 | 00:00:00 | |
| EDDB2-12 | 2026-09-02 07:00:43 | 52.14147 | 15.59680 | 102° | 42km/h | 6749m | -1.8m/s | -24.4°C | 27.8% | 436.3hPa | 2.6V | 00:00:00 | 00:00:00 | 00:00:00 | |
| 13BRC | 2026-09-02 07:00:39 | 52.14151 | 15.59648 | 95° | 37km/h | 6753m | -1.6m/s | -24.5°C | 29.0% | 436.1hPa | 2.6V | 00:00:00 | 00:00:00 | 00:00:00 | |
| KRY50SP-1 | 2026-09-02 07:00:38 | 52.14151 | 15.59632 | 89° | 38km/h | 6754m | -1.7m/s | -24.5°C | 29.4% | 436.1hPa | 2.6V | 00:00:00 | 00:00:00 | 00:00:00 | |
| KRY50SP-1 | 2026-09-02 07:00:33 | 52.14145 | 15.59542 | 88° | 51km/h | 6763m | -1.8m/s | -24.4°C | 30.2% | 435.5hPa | 2.6V | 00:00:00 | 00:00:00 | 00:00:00 | |
| EDDB2-11 | 2026-09-02 07:00:28 | 52.14152 | 15.59424 | 95° | 40km/h | 6773m | -1.6m/s | -24.7°C | 31.9% | 434.9hPa | 2.6V | 00:00:00 | 00:00:00 | 00:00:00 | |
| KRY50SP-1 | 2026-09-02 07:00:27 | 52.14152 | 15.59424 | 96° | 40km/h | 6774m | -1.6m/s | -24.7°C | 31.9% | 434.9hPa | 2.6V | 00:00:00 | 00:00:00 | 00:00:00 | |
| SONDE2-11 | 2026-09-02 07:00:25 | 52.14151 | 15.59374 | 82° | 42km/h | 6778m | -1.7m/s | -24.6°C | 31.6% | 434.7hPa | 2.6V | 00:00:00 | 00:00:00 | 00:00:00 | |
| KRY50SP-1 | 2026-09-02 07:00:21 | 52.14147 | 15.59314 | 87° | 53km/h | 6783m | -1.7m/s | -24.6°C | 31.2% | 434.3hPa | 2.6V | 00:00:00 | 00:00:00 | 00:00:00 | |
| 13BRC | 2026-09-02 07:00:18 | 52.14148 | 15.59249 | 99° | 51km/h | 6788m | -1.8m/s | -24.6°C | 30.4% | 434.0hPa | 2.6V | 00:00:00 | 00:00:00 | 00:00:00 | |
| KRY50SP-1 | 2026-09-02 07:00:16 | 52.14152 | 15.59210 | 101° | 44km/h | 6792m | -1.7m/s | -24.7°C | 30.5% | 433.9hPa | 2.6V | 00:00:00 | 00:00:00 | 00:00:00 | |
| SP6BVK | 2026-09-02 07:00:13 | 52.14154 | 15.59144 | 83° | 42km/h | 6799m | -1.7m/s | -24.7°C | 30.1% | 433.5hPa | 2.6V | 00:00:00 | 00:00:00 | 00:00:00 | |
| KRY50SP-1 | 2026-09-02 07:00:11 | 52.14152 | 15.59127 | 82° | 46km/h | 6800m | -1.8m/s | -24.6°C | 29.9% | 433.4hPa | 2.6V | 00:00:00 | 00:00:00 | 00:00:00 | |
| KRY50SP-1 | 2026-09-02 07:00:05 | 52.14149 | 15.59001 | 100° | 49km/h | 6811m | -1.8m/s | -24.6°C | 29.7% | 432.7hPa | 2.6V | 00:00:00 | 00:00:00 | 00:00:00 | |
| SP3BTT-10 | 2026-09-02 07:00:03 | 52.14155 | 15.58946 | 97° | 46km/h | 6816m | -1.6m/s | -24.7°C | 30.8% | 432.3hPa | 2.6V | 00:00:00 | 00:00:00 | 00:00:00 | |
| EDDB2-11 | 2026-09-02 06:59:57 | 52.14149 | 15.58840 | 83° | 51km/h | 6826m | -1.6m/s | -24.7°C | 28.6% | 431.8hPa | 2.6V | 00:00:00 | 00:00:00 | 00:00:00 | |
| SONDE2-11 | 2026-09-02 06:59:54 | 52.14148 | 15.58773 | 94° | 53km/h | 6831m | -1.8m/s | -24.8°C | 28.8% | 431.5hPa | 2.6V | 00:00:00 | 00:00:00 | 00:00:00 | |
| SP6BVK | 2026-09-02 06:59:53 | 52.14149 | 15.58752 | 99° | 51km/h | 6833m | -1.7m/s | -24.8°C | 28.8% | 431.4hPa | 2.6V | 00:00:00 | 00:00:00 | 00:00:00 | |
| KRY50SP-1 | 2026-09-02 06:59:50 | 52.14155 | 15.58697 | 97° | 40km/h | 6838m | -1.7m/s | -24.9°C | 28.6% | 431.1hPa | 2.6V | 00:00:00 | 00:00:00 | 00:00:00 | |
| KRY50SP-1 | 2026-09-02 06:59:44 | 52.14149 | 15.58587 | 86° | 53km/h | 6848m | -1.7m/s | -24.8°C | 27.4% | 430.5hPa | 2.6V | 00:00:00 | 00:00:00 | 00:00:00 | |
| DB0DAN | 2026-09-02 06:59:40 | 52.14151 | 15.58501 | 100° | 47km/h | 6855m | -1.8m/s | -24.9°C | 27.3% | 430.08hPa | 2.6V | 00:00:00 | 00:00:00 | 00:00:00 | |
| KRY50SP-1 | 2026-09-02 06:59:38 | 52.14154 | 15.58481 | 102° | 46km/h | 6856m | -1.6m/s | -24.9°C | 27.0% | 430.0hPa | 2.6V | 00:00:00 | 00:00:00 | 00:00:00 | |
| 13BRC | 2026-09-02 06:59:37 | 52.14156 | 15.58464 | 100° | 42km/h | 6858m | -1.6m/s | -25.0°C | 27.1% | 429.9hPa | 2.6V | 00:00:00 | 00:00:00 | 00:00:00 | |
| SP3BTT-10 | 2026-09-02 06:59:33 | 52.14153 | 15.58378 | 83° | 47km/h | 6867m | -1.6m/s | -24.9°C | 28.7% | 429.3hPa | 2.6V | 00:00:00 | 00:00:00 | 00:00:00 | |
| SP6BVK | 2026-09-02 06:59:32 | 52.14152 | 15.58358 | 85° | 53km/h | 6868m | -1.6m/s | -25.0°C | 27.2% | 429.3hPa | 2.6V | 00:00:00 | 00:00:00 | 00:00:00 | |
| KRY50SP-1 | 2026-09-02 06:59:26 | 52.14156 | 15.58249 | 102° | 47km/h | 6878m | -1.9m/s | -25.1°C | 27.1% | 428.8hPa | 2.6V | 00:00:00 | 00:00:00 | 00:00:00 | |
| DB0DAN | 2026-09-02 06:59:25 | 52.14159 | 15.58214 | 97° | 38km/h | 6881m | -1.8m/s | -25.1°C | 27% | 428.58hPa | 2.6V | 00:00:00 | 00:00:00 | 00:00:00 | |
| SONDE2-11 | 2026-09-02 06:59:23 | 52.14160 | 15.58182 | 85° | 38km/h | 6884m | -1.7m/s | -25.2°C | 27.1% | 428.4hPa | 2.7V | 00:00:00 | 00:00:00 | 00:00:00 | |
| KRY50SP-1 | 2026-09-02 06:59:22 | 52.14159 | 15.58166 | 83° | 42km/h | 6886m | -1.6m/s | -25.2°C | 26.9% | 428.3hPa | 2.7V | 00:00:00 | 00:00:00 | 00:00:00 | |
| 13BRC | 2026-09-02 06:59:17 | 52.14153 | 15.58064 | 93° | 55km/h | 6895m | -1.8m/s | -25.2°C | 27.4% | 427.8hPa | 2.7V | 00:00:00 | 00:00:00 | 00:00:00 | |
| KRY50SP-1 | 2026-09-02 06:59:15 | 52.14153 | 15.58042 | 97° | 53km/h | 6897m | -1.7m/s | -25.2°C | 27.3% | 427.6hPa | 2.7V | 00:00:00 | 00:00:00 | 00:00:00 | |
| SP6BVK | 2026-09-02 06:59:11 | 52.14161 | 15.57966 | 99° | 40km/h | 6904m | -1.8m/s | -25.3°C | 27.0% | 427.2hPa | 2.7V | 00:00:00 | 00:00:00 | 00:00:00 | |
| DB0DAN | 2026-09-02 06:59:10 | 52.14162 | 15.57934 | 87° | 37km/h | 6907m | -1.8m/s | -25.4°C | 26.8% | 426.97hPa | 2.7V | 00:00:00 | 00:00:00 | 00:00:00 | |
| EDDB2-12 | 2026-09-02 06:59:10 | 52.14161 | 15.57917 | 82° | 40km/h | 6909m | -1.8m/s | -25.4°C | 26.7% | 426.8hPa | 2.6V | 00:00:00 | 00:00:00 | 00:00:00 | |
| KRY50SP-1 | 2026-09-02 06:59:04 | 52.14154 | 15.57839 | 87° | 55km/h | 6916m | -1.7m/s | -25.3°C | 26.5% | 426.5hPa | 2.6V | 00:00:00 | 00:00:00 | 00:00:00 | |
| SP3BTT-10 | 2026-09-02 06:59:03 | 52.14155 | 15.57794 | 96° | 49km/h | 6920m | -1.7m/s | -25.3°C | 28.0% | 426.2hPa | 2.6V | 00:00:00 | 00:00:00 | 00:00:00 | |
| KRY50SP-1 | 2026-09-02 06:58:58 | 52.14162 | 15.57717 | 99° | 42km/h | 6927m | -1.9m/s | -25.5°C | 26.6% | 425.8hPa | 2.6V | 00:00:00 | 00:00:00 | 00:00:00 | |
| 13BRC | 2026-09-02 06:58:56 | 52.14164 | 15.57684 | 89° | 40km/h | 6930m | -1.7m/s | -25.6°C | 26.9% | 425.6hPa | 2.6V | 00:00:00 | 00:00:00 | 00:00:00 | |
| DB0DAN | 2026-09-02 06:58:55 | 52.14162 | 15.57648 | 84° | 44km/h | 6934m | -1.7m/s | -25.5°C | 26.8% | 425.44hPa | 2.6V | 00:00:00 | 00:00:00 | 00:00:00 | |
| EDDB2-11 | 2026-09-02 06:58:55 | 52.14162 | 15.57648 | 83° | 46km/h | 6934m | -1.7m/s | -25.5°C | 26.8% | 425.4hPa | 2.6V | 00:00:00 | 00:00:00 | 00:00:00 | |
| SONDE2-11 | 2026-09-02 06:58:52 | 52.14159 | 15.57585 | 89° | 53km/h | 6938m | -1.7m/s | -25.5°C | 26.7% | 425.1hPa | 2.6V | 00:00:00 | 00:00:00 | 00:00:00 | |
| SP6BVK | 2026-09-02 06:58:51 | 52.14159 | 15.57585 | 91° | 55km/h | 6939m | -1.7m/s | -25.5°C | 26.7% | 425.1hPa | 2.6V | 00:00:00 | 00:00:00 | 00:00:00 | |
| KRY50SP-1 | 2026-09-02 06:58:47 | 52.14165 | 15.57501 | 102° | 46km/h | 6945m | -1.8m/s | -25.6°C | 26.2% | 424.8hPa | 2.6V | 00:00:00 | 00:00:00 | 00:00:00 | |
| KRY50SP-1 | 2026-09-02 06:58:42 | 52.14167 | 15.57416 | 84° | 46km/h | 6954m | -1.8m/s | -25.7°C | 26.1% | 424.2hPa | 2.6V | 00:00:00 | 00:00:00 | 00:00:00 | |
| DB0DAN | 2026-09-02 06:58:40 | 52.14164 | 15.57354 | 89° | 51km/h | 6959m | -1.7m/s | -25.7°C | 26.2% | 423.92hPa | 2.6V | 00:00:00 | 00:00:00 | 00:00:00 | |
| EDDB2-12 | 2026-09-02 06:58:39 | 52.14165 | 15.57309 | 96° | 55km/h | 6963m | -1.4m/s | -25.8°C | 26.0% | 423.7hPa | 2.6V | 00:00:00 | 00:00:00 | 00:00:00 | |
| KRY50SP-1 | 2026-09-02 06:58:37 | 52.14165 | 15.57309 | 98° | 55km/h | 6963m | -1.4m/s | -25.8°C | 26.0% | 423.7hPa | 2.6V | 00:00:00 | 00:00:00 | 00:00:00 | |
| 13BRC | 2026-09-02 06:58:35 | 52.14170 | 15.57266 | 103° | 49km/h | 6966m | -1.7m/s | -25.8°C | 24.9% | 423.5hPa | 2.6V | 00:00:00 | 00:00:00 | 00:00:00 | |
| SP3BTT-10 | 2026-09-02 06:58:33 | 52.14175 | 15.57212 | 95° | 46km/h | 6971m | -1.8m/s | -25.7°C | 24.8% | 423.1hPa | 2.6V | 00:00:00 | 00:00:00 | 00:00:00 | |
| KRY50SP-1 | 2026-09-02 06:58:32 | 52.14175 | 15.57212 | 95° | 40km/h | 6971m | -1.8m/s | -25.8°C | 23.3% | 423.2hPa | 2.6V | 00:00:00 | 00:00:00 | 00:00:00 | |
| SP6BVK | 2026-09-02 06:58:30 | 52.14175 | 15.57179 | 84° | 42km/h | 6975m | -1.8m/s | -25.7°C | 22.5% | 423.0hPa | 2.6V | 00:00:00 | 00:00:00 | 00:00:00 | |
| KRY50SP-1 | 2026-09-02 06:58:26 | 52.14169 | 15.57098 | 89° | 55km/h | 6982m | -1.8m/s | -25.6°C | 21.0% | 422.6hPa | 2.6V | 00:00:00 | 00:00:00 | 00:00:00 | |
| DB0DAN | 2026-09-02 06:58:25 | 52.14170 | 15.57053 | 95° | 51km/h | 6986m | -1.7m/s | -25.5°C | 19.5% | 422.42hPa | 2.6V | 00:00:00 | 00:00:00 | 00:00:00 | |
| EDDB2-11 | 2026-09-02 06:58:24 | 52.14173 | 15.57011 | 98° | 47km/h | 6989m | -1.7m/s | -25.4°C | 17.5% | 422.1hPa | 2.6V | 00:00:00 | 00:00:00 | 00:00:00 | |
| SONDE2-11 | 2026-09-02 06:58:21 | 52.14176 | 15.56975 | 94° | 40km/h | 6992m | -1.6m/s | -25.6°C | 16.9% | 422.0hPa | 2.6V | 00:00:00 | 00:00:00 | 00:00:00 | |
| 13BRC | 2026-09-02 06:58:15 | 52.14171 | 15.56860 | 89° | 55km/h | 7002m | -1.6m/s | -25.4°C | 15.3% | 421.4hPa | 2.6V | 00:00:00 | 00:00:00 | 00:00:00 | |
| DB0DAN | 2026-09-02 06:58:10 | 52.14178 | 15.56755 | 101° | 42km/h | 7011m | -1.7m/s | -25.5°C | 14.8% | 420.83hPa | 2.6V | 00:00:00 | 00:00:00 | 00:00:00 | |
| EDDB2-12 | 2026-09-02 06:58:08 | 52.14181 | 15.56704 | 87° | 40km/h | 7016m | -1.8m/s | -25.6°C | 14.8% | 420.6hPa | 2.6V | 00:00:00 | 00:00:00 | 00:00:00 | |
| KRY50SP-1 | 2026-09-02 06:58:04 | 52.14179 | 15.56669 | 82° | 46km/h | 7020m | -1.8m/s | -25.5°C | 14.4% | 420.3hPa | 2.6V | 00:00:00 | 00:00:00 | 00:00:00 | |
| SP3BTT-10 | 2026-09-02 06:58:03 | 52.14175 | 15.56629 | 85° | 46km/h | 7023m | -1.8m/s | -25.4°C | 15.7% | 420.1hPa | 2.6V | 00:00:00 | 00:00:00 | 00:00:00 | |
| KRY50SP-1 | 2026-09-02 06:57:58 | 52.14177 | 15.56542 | 99° | 47km/h | 7031m | -1.7m/s | -25.6°C | 15.0% | 419.8hPa | 2.6V | 00:00:00 | 00:00:00 | 00:00:00 | |
| DB0DAN | 2026-09-02 06:57:55 | 52.14181 | 15.56474 | 87° | 37km/h | 7037m | -1.8m/s | -25.7°C | 15.4% | 419.4hPa | 2.6V | 00:00:00 | 00:00:00 | 00:00:00 | |
| EDDB2-11 | 2026-09-02 06:57:53 | 52.14177 | 15.56422 | 80° | 47km/h | 7042m | -2.1m/s | -25.6°C | 15.3% | 419.1hPa | 2.6V | 00:00:00 | 00:00:00 | 00:00:00 | |
| SP6BVK | 2026-09-02 06:57:50 | 52.14173 | 15.56380 | 87° | 53km/h | 7046m | -1.8m/s | -25.6°C | 15.4% | 418.9hPa | 2.6V | 00:00:00 | 00:00:00 | 00:00:00 | |
| KRY50SP-1 | 2026-09-02 06:57:48 | 52.14173 | 15.56359 | 90° | 53km/h | 7048m | -1.7m/s | -25.8°C | 15.7% | 418.8hPa | 2.6V | 00:00:00 | 00:00:00 | 00:00:00 | |
| KRY50SP-1 | 2026-09-02 06:57:43 | 52.14178 | 15.56264 | 95° | 38km/h | 7056m | -1.7m/s | -25.9°C | 15.9% | 418.3hPa | 2.6V | 00:00:00 | 00:00:00 | 00:00:00 | |
| DB0DAN | 2026-09-02 06:57:40 | 52.14174 | 15.56201 | 78° | 42km/h | 7064m | -1.8m/s | -25.9°C | 16.1% | 417.79hPa | 2.6V | 00:00:00 | 00:00:00 | 00:00:00 | |
| KRY50SP-1 | 2026-09-02 06:57:37 | 52.14170 | 15.56162 | 82° | 51km/h | 7067m | -1.9m/s | -25.8°C | 16.2% | 417.6hPa | 2.6V | 00:00:00 | 00:00:00 | 00:00:00 | |
| EDDB2-12 | 2026-09-02 06:57:36 | 52.14167 | 15.56120 | 88° | 51km/h | 7071m | -1.9m/s | -25.9°C | 16.6% | 417.4hPa | 2.6V | 00:00:00 | 00:00:00 | 00:00:00 | |
| 13BRC | 2026-09-02 06:57:34 | 52.14167 | 15.56098 | 93° | 51km/h | 7073m | -1.6m/s | -26.0°C | 16.7% | 417.3hPa | 2.6V | 00:00:00 | 00:00:00 | 00:00:00 | |
| KRY50SP-1 | 2026-09-02 06:57:33 | 52.14169 | 15.56060 | 95° | 44km/h | 7076m | -1.8m/s | -26.1°C | 16.5% | 417.0hPa | 2.6V | 00:00:00 | 00:00:00 | 00:00:00 | |
| SP6BVK | 2026-09-02 06:57:29 | 52.14169 | 15.56010 | 85° | 40km/h | 7081m | -1.7m/s | -26.0°C | 16.3% | 416.8hPa | 2.6V | 00:00:00 | 00:00:00 | 00:00:00 | |
| KRY50SP-1 | 2026-09-02 06:57:26 | 52.14163 | 15.55957 | 79° | 47km/h | 7087m | -1.7m/s | -26.0°C | 16.3% | 416.6hPa | 2.6V | 00:00:00 | 00:00:00 | 00:00:00 | |
| DB0DAN | 2026-09-02 06:57:25 | 52.14159 | 15.55916 | 85° | 51km/h | 7090m | -1.6m/s | -25.9°C | 16.5% | 416.3hPa | 2.6V | 00:00:00 | 00:00:00 | 00:00:00 | |
| KRY50SP-1 | 2026-09-02 06:57:21 | 52.14160 | 15.55853 | 97° | 47km/h | 7095m | -1.6m/s | -26.1°C | 16.6% | 416.1hPa | 2.6V | 00:00:00 | 00:00:00 | 00:00:00 | |
| SONDE2-11 | 2026-09-02 06:57:19 | 52.14161 | 15.55787 | 82° | 37km/h | 7102m | -1.9m/s | -26.2°C | 16.3% | 415.6hPa | 2.6V | 00:00:00 | 00:00:00 | 00:00:00 | |
| KRY50SP-1 | 2026-09-02 06:57:16 | 52.14159 | 15.55771 | 78° | 40km/h | 7104m | -1.7m/s | -26.2°C | 16.2% | 415.6hPa | 2.6V | 00:00:00 | 00:00:00 | 00:00:00 | |
| 13BRC | 2026-09-02 06:57:13 | 52.14150 | 15.55718 | 77° | 51km/h | 7109m | -1.7m/s | -26.2°C | 15.6% | 415.2hPa | 2.6V | 00:00:00 | 00:00:00 | 00:00:00 | |
| KRY50SP-1 | 2026-09-02 06:57:11 | 52.14145 | 15.55674 | 85° | 55km/h | 7113m | -1.7m/s | -26.2°C | 15.4% | 415.1hPa | 2.6V | 00:00:00 | 00:00:00 | 00:00:00 | |
| DB0DAN | 2026-09-02 06:57:10 | 52.14145 | 15.55630 | 92° | 49km/h | 7116m | -1.9m/s | -26.1°C | 15.2% | 414.81hPa | 2.6V | 00:00:00 | 00:00:00 | 00:00:00 | |
| SP6BVK | 2026-09-02 06:57:08 | 52.14145 | 15.55610 | 96° | 47km/h | 7118m | -1.9m/s | -26.1°C | 15.2% | 414.7hPa | 2.6V | 00:00:00 | 00:00:00 | 00:00:00 | |
| KRY50SP-1 | 2026-09-02 06:57:05 | 52.14147 | 15.55558 | 90° | 37km/h | 7124m | -1.9m/s | -26.3°C | 14.7% | 414.4hPa | 2.6V | 00:00:00 | 00:00:00 | 00:00:00 | |
| SP3BTT-10 | 2026-09-02 06:57:03 | 52.14143 | 15.55511 | 77° | 44km/h | 7130m | -1.9m/s | -26.2°C | 15.7% | 414.0hPa | 2.6V | 00:00:00 | 00:00:00 | 00:00:00 | |
| KRY50SP-1 | 2026-09-02 06:57:00 | 52.14138 | 15.55474 | 80° | 51km/h | 7133m | -1.9m/s | -26.2°C | 14.5% | 413.9hPa | 2.6V | 00:00:00 | 00:00:00 | 00:00:00 | |
| DB0DAN | 2026-09-02 06:56:55 | 52.14136 | 15.55348 | 96° | 42km/h | 7145m | -2m/s | -26.2°C | 13.7% | 413.17hPa | 2.6V | 00:00:00 | 00:00:00 | 00:00:00 | |
| EDDB2-11 | 2026-09-02 06:56:51 | 52.14134 | 15.55266 | 78° | 42km/h | 7154m | -1.8m/s | -26.5°C | 13.9% | 412.6hPa | 2.6V | 00:00:00 | 00:00:00 | 00:00:00 | |
| SONDE2-11 | 2026-09-02 06:56:48 | 52.14128 | 15.55208 | 86° | 51km/h | 7159m | -1.8m/s | -26.4°C | 14.0% | 412.4hPa | 2.6V | 00:00:00 | 00:00:00 | 00:00:00 | |
| KRY50SP-1 | 2026-09-02 06:56:43 | 52.14131 | 15.55124 | 99° | 46km/h | 7167m | -1.9m/s | -26.5°C | 13.5% | 411.9hPa | 2.6V | 00:00:00 | 00:00:00 | 00:00:00 | |
| DB0DAN | 2026-09-02 06:56:40 | 52.14135 | 15.55075 | 90° | 35km/h | 7173m | -2m/s | -26.6°C | 13% | 411.55hPa | 2.6V | 00:00:00 | 00:00:00 | 00:00:00 | |
| KRY50SP-1 | 2026-09-02 06:56:37 | 52.14133 | 15.55045 | 80° | 38km/h | 7177m | -2.1m/s | -26.6°C | 12.6% | 411.4hPa | 2.6V | 00:00:00 | 00:00:00 | 00:00:00 | |
| EDDB2-12 | 2026-09-02 06:56:34 | 52.14126 | 15.54971 | 87° | 51km/h | 7184m | -2.0m/s | -26.5°C | 12.4% | 410.9hPa | 2.6V | 00:00:00 | 00:00:00 | 00:00:00 | |
| SP3BTT-10 | 2026-09-02 06:56:33 | 52.14126 | 15.54950 | 92° | 44km/h | 7186m | -1.7m/s | -26.3°C | 13.2% | 410.8hPa | 2.6V | 00:00:00 | 00:00:00 | 08:30:00 | |
| KRY50SP-1 | 2026-09-02 06:56:31 | 52.14127 | 15.54929 | 96° | 51km/h | 7188m | -1.8m/s | -26.4°C | 12.0% | 410.7hPa | 2.6V | 00:00:00 | 00:00:00 | 00:00:00 | |
| SP6BVK | 2026-09-02 06:56:28 | 52.14132 | 15.54872 | 102° | 42km/h | 7194m | -2.1m/s | -26.5°C | 11.5% | 410.4hPa | 2.6V | 00:00:00 | 00:00:00 | 00:00:00 | |
| KRY50SP-1 | 2026-09-02 06:56:26 | 52.14136 | 15.54841 | 98° | 35km/h | 7198m | -2.3m/s | -26.6°C | 11.3% | 410.1hPa | 2.6V | 00:00:00 | 00:00:00 | 00:00:00 | |
| DB0DAN | 2026-09-02 06:56:25 | 52.14136 | 15.54813 | 85° | 33km/h | 7202m | -2.2m/s | -26.6°C | 11.1% | 409.86hPa | 2.6V | 00:00:00 | 00:00:00 | 00:00:00 | |
| EDDB2-11 | 2026-09-02 06:56:20 | 52.14126 | 15.54706 | 89° | 51km/h | 7214m | -2.0m/s | -26.5°C | 10.4% | 409.3hPa | 2.6V | 00:00:00 | 00:00:00 | 00:00:00 | |
| DL2RXE-15 | 2026-09-02 06:56:16 | 52.14128 | 15.54664 | 97° | 47km/h | 7218m | -1.8m/s | -26.4°C | 9.7% | 409.0hPa | 2.6V | 00:00:00 | 00:00:00 | 00:00:00 | |
| KRY50SP-1 | 2026-09-02 06:56:14 | 52.14130 | 15.54628 | 99° | 40km/h | 7222m | -2.0m/s | -26.4°C | 9.5% | 408.7hPa | 2.6V | 00:00:00 | 00:00:00 | 00:00:00 | |
| 13BRC | 2026-09-02 06:56:11 | 52.14131 | 15.54582 | 84° | 37km/h | 7227m | -1.8m/s | -26.6°C | 9.6% | 408.5hPa | 2.6V | 00:00:00 | 00:00:00 | 00:00:00 | |
| DB0DAN | 2026-09-02 06:56:10 | 52.14128 | 15.54549 | 78° | 42km/h | 7231m | -1.9m/s | -26.5°C | 9.5% | 408.18hPa | 2.6V | 00:00:00 | 00:00:00 | 00:00:00 | |
| KRY50SP-1 | 2026-09-02 06:56:08 | 52.14125 | 15.54531 | 80° | 47km/h | 7233m | -1.9m/s | -26.5°C | 9.6% | 408.1hPa | 2.6V | 00:00:00 | 00:00:00 | 00:00:00 | |
| SP6BVK | 2026-09-02 06:56:07 | 52.14123 | 15.54511 | 84° | 49km/h | 7235m | -1.9m/s | -26.5°C | 9.7% | 408.0hPa | 2.6V | 00:00:00 | 00:00:00 | 00:00:00 | |
| KRY50SP-1 | 2026-09-02 06:56:03 | 52.14125 | 15.54431 | 100° | 46km/h | 7243m | -1.9m/s | -26.6°C | 9.7% | 407.6hPa | 2.6V | 00:00:00 | 00:00:00 | 00:00:00 | |
| SP3BTT-10 | 2026-09-02 06:56:02 | 52.14128 | 15.54398 | 99° | 42km/h | 7247m | -1.9m/s | -26.6°C | 10.8% | 407.4hPa | 2.6V | 00:00:00 | 00:00:00 | 00:00:00 | |
| KRY50SP-1 | 2026-09-02 06:55:57 | 52.14126 | 15.54339 | 79° | 40km/h | 7254m | -1.9m/s | -26.7°C | 9.7% | 406.9hPa | 2.6V | 00:00:00 | 00:00:00 | 00:00:00 | |
| DB0DAN | 2026-09-02 06:55:55 | 52.14120 | 15.54284 | 83° | 47km/h | 7260m | -2.1m/s | -26.7°C | 9.5% | 406.53hPa | 2.6V | 00:00:00 | 00:00:00 | 00:00:00 | |
| EDDB2-11 | 2026-09-02 06:55:49 | 52.14125 | 15.54156 | 91° | 35km/h | 7275m | -1.9m/s | -26.8°C | 9.1% | 405.8hPa | 2.6V | 00:00:00 | 00:00:00 | 00:00:00 | |
| SONDE2-11 | 2026-09-02 06:55:46 | 52.14122 | 15.54111 | 78° | 40km/h | 7281m | -2.0m/s | -26.7°C | 9.0% | 405.4hPa | 2.6V | 00:00:00 | 00:00:00 | 00:00:00 | |
| KRY50SP-1 | 2026-09-02 06:55:45 | 52.14124 | 15.54127 | 81° | 38km/h | 7279m | -2.1m/s | -26.8°C | 9.1% | 405.5hPa | 2.6V | 00:00:00 | 00:00:00 | 00:00:00 | |
| DB0DAN | 2026-09-02 06:55:40 | 52.14117 | 15.54012 | 95° | 47km/h | 7291m | -1.8m/s | -26.7°C | 9.2% | 404.78hPa | 2.6V | 00:00:00 | 00:00:00 | 00:00:00 | |
| KRY50SP-1 | 2026-09-02 06:55:39 | 52.14117 | 15.54012 | 96° | 51km/h | 7291m | -1.8m/s | -26.7°C | 9.2% | 404.8hPa | 2.6V | 00:00:00 | 00:00:00 | 00:00:00 | |
| KRY50SP-1 | 2026-09-02 06:55:33 | 52.14123 | 15.53913 | 84° | 37km/h | 7303m | -2.0m/s | -26.9°C | 9.4% | 404.2hPa | 2.6V | 00:00:00 | 00:00:00 | 00:00:00 | |
| SP3BTT-10 | 2026-09-02 06:55:32 | 52.14119 | 15.53882 | 77° | 46km/h | 7307m | -2.0m/s | -26.8°C | 10.4% | 403.9hPa | 2.6V | 00:00:00 | 00:00:00 | 00:00:00 | |
| 13BRC | 2026-09-02 06:55:30 | 52.14116 | 15.53864 | 79° | 46km/h | 7309m | -2.1m/s | -26.9°C | 9.4% | 403.8hPa | 2.6V | 00:00:00 | 00:00:00 | 00:00:00 | |
| SP6BVK | 2026-09-02 06:55:28 | 52.14112 | 15.53803 | 90° | 53km/h | 7316m | -2.2m/s | -26.9°C | 9.4% | 403.4hPa | 2.6V | 00:00:00 | 00:00:00 | 00:00:00 | |
| KRY50SP-1 | 2026-09-02 06:55:27 | 52.14112 | 15.53803 | 90° | 53km/h | 7316m | -2.2m/s | -26.9°C | 9.4% | 403.4hPa | 2.6V | 00:00:00 | 00:00:00 | 00:00:00 | |
| DB0DAN | 2026-09-02 06:55:25 | 52.14115 | 15.53742 | 100° | 42km/h | 7322m | -2.2m/s | -27°C | 9.3% | 403.1hPa | 2.6V | 00:00:00 | 00:00:00 | 00:00:00 | |
| KRY50SP-1 | 2026-09-02 06:55:22 | 52.14119 | 15.53694 | 92° | 35km/h | 7328m | -2.1m/s | -27.1°C | 9.6% | 402.8hPa | 2.6V | 00:00:00 | 00:00:00 | 00:00:00 | |
| EDDB2-11 | 2026-09-02 06:55:18 | 52.14113 | 15.53611 | 83° | 47km/h | 7339m | -2.1m/s | -27.0°C | 11.2% | 402.2hPa | 2.6V | 00:00:00 | 00:00:00 | 00:00:00 | |
| S3001 | 2026-09-02 06:55:17 | 52.14113 | 15.53611 | 83° | 47km/h | 7339m | -2.1m/s | -27.0°C | 11.2% | 402.2hPa | 2.6V | 00:00:00 | 00:00:00 | 00:00:00 | |
| DL2RXE-15 | 2026-09-02 06:55:16 | 52.14112 | 15.53610 | 85° | 49km/h | 7339m | -2.1m/s | -27.0°C | 11.2% | 402.2hPa | 2.6V | 00:00:00 | 00:00:00 | 00:00:00 | |
| SONDE2-11 | 2026-09-02 06:55:15 | 52.14112 | 15.53548 | 95° | 49km/h | 7345m | -1.9m/s | -27.1°C | 11.3% | 401.8hPa | 2.6V | 00:00:00 | 00:00:00 | 00:00:00 | |
| KRY50SP-1 | 2026-09-02 06:55:11 | 52.14116 | 15.53510 | 102° | 44km/h | 7349m | -2.0m/s | -27.2°C | 11.4% | 401.7hPa | 2.6V | 00:00:00 | 00:00:00 | 00:00:00 | |
| DB0DAN | 2026-09-02 06:55:10 | 52.14119 | 15.53477 | 94° | 35km/h | 7352m | -2m/s | -27.3°C | 12% | 401.42hPa | 2.6V | 00:00:00 | 00:00:00 | 00:00:00 | |
| 13BRC | 2026-09-02 06:55:09 | 52.14119 | 15.53477 | 95° | 37km/h | 7353m | -2.0m/s | -27.3°C | 12.0% | 401.4hPa | 2.5V | 00:00:00 | 00:00:00 | 00:00:00 | |
| SP6BVK | 2026-09-02 06:55:07 | 52.14117 | 15.53430 | 80° | 42km/h | 7359m | -2.1m/s | -27.3°C | 12.6% | 401.0hPa | 2.5V | 00:00:00 | 00:00:00 | 00:00:00 | |
| KRY50SP-1 | 2026-09-02 06:55:06 | 52.14117 | 15.53430 | 80° | 42km/h | 7359m | -2.1m/s | -27.3°C | 12.6% | 401.0hPa | 2.5V | 00:00:00 | 00:00:00 | 00:00:00 | |
| SP3BTT-10 | 2026-09-02 06:55:02 | 52.14110 | 15.53329 | 93° | 46km/h | 7369m | -2.0m/s | -27.3°C | 14.4% | 400.4hPa | 2.5V | 00:00:00 | 00:00:00 | 00:00:00 | |
| EDDB2-12 | 2026-09-02 06:55:01 | 52.14112 | 15.53308 | 96° | 49km/h | 7371m | -2.0m/s | -27.4°C | 13.4% | 400.4hPa | 2.6V | 00:00:00 | 00:00:00 | 00:00:00 | |
| KRY50SP-1 | 2026-09-02 06:55:00 | 52.14112 | 15.53308 | 98° | 51km/h | 7372m | -2.0m/s | -27.4°C | 13.4% | 400.4hPa | 2.6V | 00:00:00 | 00:00:00 | 00:00:00 | |
| DB0DAN | 2026-09-02 06:54:55 | 52.14117 | 15.53207 | 82° | 38km/h | 7383m | -2.2m/s | -27.6°C | 14.3% | 399.7hPa | 2.6V | 00:00:00 | 00:00:00 | 00:00:00 | |
| EDDB2-11 | 2026-09-02 06:54:47 | 52.14117 | 15.53034 | 98° | 38km/h | 7403m | -2.0m/s | -27.8°C | 14.5% | 398.6hPa | 2.5V | 00:00:00 | 00:00:00 | 00:00:00 | |
| SP6BVK | 2026-09-02 06:54:46 | 52.14115 | 15.53051 | 101° | 44km/h | 7401m | -1.9m/s | -27.7°C | 14.5% | 398.7hPa | 2.5V | 00:00:00 | 00:00:00 | 00:00:00 | |
| KRY50SP-1 | 2026-09-02 06:54:44 | 52.14118 | 15.53018 | 96° | 37km/h | 7405m | -2.0m/s | -27.8°C | 14.6% | 398.5hPa | 2.5V | 00:00:00 | 00:00:00 | 00:00:00 | |
| DB0DAN | 2026-09-02 06:54:40 | 52.14112 | 15.52934 | 82° | 47km/h | 7415m | -2.3m/s | -27.8°C | 15% | 397.95hPa | 2.5V | 00:00:00 | 00:00:00 | 00:00:00 | |
| KRY50SP-1 | 2026-09-02 06:54:38 | 52.14110 | 15.52913 | 87° | 53km/h | 7418m | -2.1m/s | -27.7°C | 15.1% | 397.8hPa | 2.6V | 00:00:00 | 00:00:00 | 00:00:00 | |
| KRY50SP-1 | 2026-09-02 06:54:33 | 52.14116 | 15.52812 | 102° | 42km/h | 7429m | -2.0m/s | -27.9°C | 15.2% | 397.2hPa | 2.6V | 00:00:00 | 00:00:00 | 00:00:00 | |
| SP3BTT-10 | 2026-09-02 06:54:32 | 52.14119 | 15.52780 | 94° | 44km/h | 7433m | -2.0m/s | -28.0°C | 16.4% | 396.9hPa | 2.6V | 00:00:00 | 00:00:00 | 00:00:00 | |
| EDDB2-12 | 2026-09-02 06:54:30 | 52.14118 | 15.52750 | 82° | 38km/h | 7437m | -2.2m/s | -28.0°C | 15.0% | 396.7hPa | 2.6V | 00:00:00 | 00:00:00 | 00:00:00 | |
| 13BRC | 2026-09-02 06:54:28 | 52.14116 | 15.52733 | 80° | 44km/h | 7439m | -2.2m/s | -28.0°C | 15.2% | 396.6hPa | 2.6V | 00:00:00 | 00:00:00 | 00:00:00 | |
| KRY50SP-1 | 2026-09-02 06:54:27 | 52.14114 | 15.52715 | 81° | 47km/h | 7441m | -2.2m/s | -28.0°C | 15.1% | 396.5hPa | 2.6V | 00:00:00 | 00:00:00 | 00:00:00 | |
| SP6BVK | 2026-09-02 06:54:26 | 52.14112 | 15.52695 | 84° | 51km/h | 7444m | -2.3m/s | -28.0°C | 15.2% | 396.4hPa | 2.6V | 00:00:00 | 00:00:00 | 00:00:00 | |
| DB0DAN | 2026-09-02 06:54:25 | 52.14111 | 15.52651 | 91° | 51km/h | 7448m | -2.2m/s | -28°C | 15.5% | 396.05hPa | 2.6V | 00:00:00 | 00:00:00 | 00:00:00 | |
| KRY50SP-1 | 2026-09-02 06:54:22 | 52.14113 | 15.52609 | 100° | 49km/h | 7453m | -2.2m/s | -28.0°C | 15.5% | 395.8hPa | 2.6V | 00:00:00 | 00:00:00 | 00:00:00 | |
| EDDB2-11 | 2026-09-02 06:54:16 | 52.14115 | 15.52476 | 80° | 47km/h | 7470m | -2.4m/s | -28.3°C | 15.4% | 394.9hPa | 2.6V | 00:00:00 | 00:00:00 | 00:00:00 | |
| SONDE2-11 | 2026-09-02 06:54:13 | 52.14112 | 15.52413 | 91° | 53km/h | 7477m | -2.1m/s | -28.3°C | 15.9% | 394.5hPa | 2.6V | 00:00:00 | 00:00:00 | 00:00:00 | |
| DB0DAN | 2026-09-02 06:54:10 | 52.14114 | 15.52370 | 99° | 47km/h | 7481m | -2.2m/s | -28.3°C | 15.9% | 394.24hPa | 2.6V | 00:00:00 | 00:00:00 | 00:00:00 | |
| 13BRC | 2026-09-02 06:54:09 | 52.14116 | 15.52351 | 103° | 46km/h | 7484m | -2.3m/s | -28.4°C | 16.0% | 394.1hPa | 2.5V | 00:00:00 | 00:00:00 | 00:00:00 | |
| DL2RXE-15 | 2026-09-02 06:54:08 | 52.14119 | 15.52333 | 103° | 42km/h | 7486m | -2.3m/s | -28.5°C | 16.0% | 394.0hPa | 2.5V | 00:00:00 | 00:00:00 | 00:00:00 | |
| SP6BVK | 2026-09-02 06:54:07 | 52.14121 | 15.52317 | 101° | 38km/h | 7488m | -2.3m/s | -28.5°C | 16.1% | 393.9hPa | 2.5V | 00:00:00 | 00:00:00 | 00:00:00 | |
| KRY50SP-1 | 2026-09-02 06:54:05 | 52.14122 | 15.52287 | 90° | 37km/h | 7493m | -2.3m/s | -28.6°C | 16.1% | 393.7hPa | 2.5V | 00:00:00 | 00:00:00 | 00:00:00 | |
| SP3BTT-10 | 2026-09-02 06:54:02 | 52.14118 | 15.52238 | 80° | 44km/h | 7500m | -2.3m/s | -28.5°C | 17.5% | 393.2hPa | 2.5V | 00:00:00 | 00:00:00 | 00:00:00 | |
| EDDB2-12 | 2026-09-02 06:53:59 | 52.14114 | 15.52176 | 89° | 53km/h | 7507m | -2.3m/s | -28.6°C | 16.6% | 392.9hPa | 2.5V | 00:00:00 | 00:00:00 | 00:00:00 | |
| KRY50SP-1 | 2026-09-02 06:53:58 | 52.14114 | 15.52176 | 91° | 53km/h | 7507m | -2.3m/s | -28.6°C | 16.6% | 392.9hPa | 2.5V | 00:00:00 | 00:00:00 | 00:00:00 | |
| DB0DAN | 2026-09-02 06:53:55 | 52.14120 | 15.52095 | 100° | 40km/h | 7515m | -2.1m/s | -28.7°C | 16.6% | 392.38hPa | 2.5V | 00:00:00 | 00:00:00 | 00:00:00 | |
| SONCRA | 2026-09-02 06:53:47 | 52.14117 | 15.51958 | 88° | 51km/h | 7533m | -2.2m/s | 0°C | -1.0% | -1.0hPa | 2.5V | 00:00:00 | 00:00:00 | 00:00:00 | |
| EDDB2-11 | 2026-09-02 06:53:45 | 52.14120 | 15.51897 | 100° | 46km/h | 7539m | -2.1m/s | -28.8°C | 17.0% | 391.2hPa | 2.5V | 00:00:00 | 00:00:00 | 00:00:00 | |
| KRY50SP-1 | 2026-09-02 06:53:42 | 52.14122 | 15.51879 | 103° | 42km/h | 7542m | -2.1m/s | -28.9°C | 17.0% | 391.0hPa | 2.5V | 00:00:00 | 00:00:00 | 00:00:00 | |
| DB0DAN | 2026-09-02 06:53:40 | 52.14126 | 15.51833 | 89° | 33km/h | 7548m | -2.2m/s | -29.1°C | 17.2% | 390.64hPa | 2.5V | 00:00:00 | 00:00:00 | 00:00:00 | |
| KRY50SP-1 | 2026-09-02 06:53:36 | 52.14121 | 15.51786 | 81° | 44km/h | 7555m | -2.2m/s | -29.0°C | 17.3% | 390.3hPa | 2.6V | 00:00:00 | 00:00:00 | 00:00:00 | |
| SP3BTT-10 | 2026-09-02 06:53:32 | 52.14120 | 15.51683 | 99° | 46km/h | 7566m | -2.2m/s | -29.1°C | 19.2% | 389.6hPa | 2.6V | 00:00:00 | 00:00:00 | 00:00:00 | |
| KRY50SP-1 | 2026-09-02 06:53:31 | 52.14120 | 15.51683 | 100° | 49km/h | 7566m | -2.2m/s | -29.1°C | 17.7% | 389.6hPa | 2.6V | 00:00:00 | 00:00:00 | 00:00:00 | |
| EDDB2-12 | 2026-09-02 06:53:28 | 52.14128 | 15.51615 | 94° | 35km/h | 7575m | -2.3m/s | -29.4°C | 17.6% | 389.1hPa | 2.6V | 00:00:00 | 00:00:00 | 00:00:00 | |
| 13BRC | 2026-09-02 06:53:27 | 52.14128 | 15.51614 | 96° | 35km/h | 7575m | -2.3m/s | -29.4°C | 17.6% | 389.1hPa | 2.6V | 00:00:00 | 00:00:00 | 00:00:00 | |
| DB0DAN | 2026-09-02 06:53:25 | 52.14125 | 15.51571 | 78° | 37km/h | 7582m | -2.3m/s | -29.4°C | 17.8% | 388.76hPa | 2.6V | 00:00:00 | 00:00:00 | 00:00:00 | |
| SP6BVK | 2026-09-02 06:53:24 | 52.14125 | 15.51571 | 79° | 40km/h | 7582m | -2.3m/s | -29.4°C | 17.8% | 388.8hPa | 2.6V | 00:00:00 | 00:00:00 | 00:00:00 | |
| KRY50SP-1 | 2026-09-02 06:53:19 | 52.14120 | 15.51473 | 95° | 53km/h | 7593m | -2.1m/s | -29.4°C | 18.5% | 388.2hPa | 2.6V | 00:00:00 | 00:00:00 | 00:00:00 | |
| KRY50SP-1 | 2026-09-02 06:53:13 | 52.14131 | 15.51367 | 92° | 35km/h | 7606m | -2.2m/s | -29.6°C | 18.7% | 387.4hPa | 2.6V | 00:00:00 | 00:00:00 | 00:00:00 | |
| DB0DAN | 2026-09-02 06:53:10 | 52.14125 | 15.51301 | 81° | 46km/h | 7615m | -2.2m/s | -29.6°C | 18.7% | 386.95hPa | 2.6V | 00:00:00 | 00:00:00 | 00:00:00 | |
| KRY50SP-1 | 2026-09-02 06:53:07 | 52.14123 | 15.51260 | 90° | 51km/h | 7619m | -2.2m/s | -29.7°C | 19.0% | 386.8hPa | 2.6V | 00:00:00 | 00:00:00 | 00:00:00 | |
| SP6BVK | 2026-09-02 06:53:03 | 52.14130 | 15.51182 | 105° | 44km/h | 7628m | -2.1m/s | -29.8°C | 18.7% | 386.3hPa | 2.6V | 00:00:00 | 00:00:00 | 00:00:00 | |
| KRY50SP-1 | 2026-09-02 06:53:02 | 52.14134 | 15.51150 | 101° | 37km/h | 7632m | -2.2m/s | -29.9°C | 18.7% | 386.0hPa | 2.6V | 00:00:00 | 00:00:00 | 00:00:00 | |
| EDDB2-12 | 2026-09-02 06:52:57 | 52.14132 | 15.51069 | 83° | 47km/h | 7643m | -2.1m/s | -29.8°C | 18.7% | 385.4hPa | 2.6V | 00:00:00 | 00:00:00 | 00:00:00 | |
| KRY50SP-1 | 2026-09-02 06:52:55 | 52.14131 | 15.51049 | 88° | 51km/h | 7645m | -2.0m/s | -29.8°C | 18.6% | 385.3hPa | 2.6V | 00:00:00 | 00:00:00 | 00:00:00 | |
| KRY50SP-1 | 2026-09-02 06:52:49 | 52.14140 | 15.50934 | 104° | 37km/h | 7658m | -2.1m/s | -30.1°C | 18.2% | 384.6hPa | 2.6V | 00:00:00 | 00:00:00 | 00:00:00 | |
| 13BRC | 2026-09-02 06:52:47 | 52.14142 | 15.50906 | 92° | 33km/h | 7662m | -2.1m/s | -30.1°C | 18.1% | 384.4hPa | 2.6V | 00:00:00 | 00:00:00 | 00:00:00 | |
| KRY50SP-1 | 2026-09-02 06:52:44 | 52.14140 | 15.50860 | 83° | 44km/h | 7669m | -2.2m/s | -30.1°C | 18.3% | 384.0hPa | 2.6V | 00:00:00 | 00:00:00 | 00:00:00 | |
| SP6BVK | 2026-09-02 06:52:43 | 52.14139 | 15.50842 | 86° | 47km/h | 7671m | -2.4m/s | -30.1°C | 18.4% | 383.9hPa | 2.6V | 00:00:00 | 00:00:00 | 00:00:00 | |
| EDDB2-11 | 2026-09-02 06:52:42 | 52.14138 | 15.50801 | 93° | 49km/h | 7675m | -2.2m/s | -30.1°C | 18.4% | 383.6hPa | 2.6V | 00:00:00 | 00:00:00 | 00:00:00 | |
| SONDE2-11 | 2026-09-02 06:52:39 | 52.14144 | 15.50743 | 104° | 42km/h | 7682m | -2.3m/s | -30.2°C | 18.1% | 383.4hPa | 2.6V | 00:00:00 | 00:00:00 | 00:00:00 | |
| KRY50SP-1 | 2026-09-02 06:52:38 | 52.14144 | 15.50743 | 105° | 44km/h | 7682m | -2.3m/s | -30.2°C | 18.1% | 383.3hPa | 2.6V | 00:00:00 | 00:00:00 | 00:00:00 | |
| KRY50SP-1 | 2026-09-02 06:52:33 | 52.14151 | 15.50671 | 86° | 35km/h | 7693m | -2.1m/s | -30.4°C | 18.4% | 382.7hPa | 2.6V | 00:00:00 | 00:00:00 | 00:00:00 | |
| SP3BTT-10 | 2026-09-02 06:52:32 | 52.14148 | 15.50639 | 84° | 40km/h | 7697m | -2.1m/s | -30.2°C | 20.0% | 382.5hPa | 2.6V | 00:00:00 | 00:00:00 | 00:00:00 | |
| KRY50SP-1 | 2026-09-02 06:52:27 | 52.14150 | 15.50562 | 102° | 47km/h | 7706m | -2.2m/s | -30.3°C | 19.3% | 382.1hPa | 2.6V | 00:00:00 | 00:00:00 | 00:00:00 | |
| EDDB2-12 | 2026-09-02 06:52:26 | 52.14155 | 15.50525 | 106° | 42km/h | 7710m | -2.3m/s | -30.4°C | 19.2% | 381.8hPa | 2.6V | 00:00:00 | 00:00:00 | 00:00:00 | |
| SP6BVK | 2026-09-02 06:52:23 | 52.14161 | 15.50494 | 105° | 35km/h | 7714m | -2.2m/s | -30.6°C | 18.9% | 381.5hPa | 2.6V | 00:00:00 | 00:00:00 | 00:00:00 | |
| KRY50SP-1 | 2026-09-02 06:52:22 | 52.14162 | 15.50481 | 100° | 31km/h | 7717m | -2.3m/s | -30.7°C | 18.9% | 381.4hPa | 2.6V | 00:00:00 | 00:00:00 | 00:00:00 | |
| KRY50SP-1 | 2026-09-02 06:52:16 | 52.14158 | 15.50392 | 88° | 46km/h | 7731m | -2.3m/s | -30.5°C | 18.7% | 380.7hPa | 2.6V | 00:00:00 | 00:00:00 | 00:00:00 | |
| EDDB2-11 | 2026-09-02 06:52:11 | 52.14168 | 15.50290 | 102° | 31km/h | 7743m | -2.2m/s | -30.8°C | 17.8% | 380.1hPa | 2.6V | 00:00:00 | 00:00:00 | 00:00:00 | |
| KRY50SP-1 | 2026-09-02 06:52:10 | 52.14168 | 15.50290 | 103° | 33km/h | 7744m | -2.2m/s | -30.8°C | 17.8% | 380.1hPa | 2.6V | 00:00:00 | 00:00:00 | 00:00:00 | |
| SONDE2-11 | 2026-09-02 06:52:08 | 52.14169 | 15.50253 | 83° | 31km/h | 7750m | -2.1m/s | -30.8°C | 17.5% | 379.6hPa | 2.6V | 00:00:00 | 00:00:00 | 00:00:00 | |
| 13BRC | 2026-09-02 06:52:05 | 52.14166 | 15.50224 | 80° | 38km/h | 7754m | -2.0m/s | -30.8°C | 17.3% | 379.4hPa | 2.6V | 00:00:00 | 00:00:00 | 00:00:00 | |
| KRY50SP-1 | 2026-09-02 06:52:04 | 52.14164 | 15.50208 | 83° | 42km/h | 7756m | -2.1m/s | -30.7°C | 17.2% | 379.3hPa | 2.6V | 00:00:00 | 00:00:00 | 00:00:00 | |
| SP3BTT-10 | 2026-09-02 06:52:02 | 52.14164 | 15.50151 | 98° | 38km/h | 7763m | -2.1m/s | -30.8°C | 18.7% | 379.0hPa | 2.6V | 00:00:00 | 00:00:00 | 08:30:00 | |
| EDDB2-12 | 2026-09-02 06:51:55 | 52.14175 | 15.50052 | 83° | 29km/h | 7778m | -2.2m/s | -30.9°C | 14.9% | 378.2hPa | 2.5V | 00:00:00 | 00:00:00 | 00:00:00 | |
| KRY50SP-1 | 2026-09-02 06:51:52 | 52.14171 | 15.50024 | 82° | 38km/h | 7783m | -2.2m/s | -30.8°C | 14.7% | 378.0hPa | 2.5V | 00:00:00 | 00:00:00 | 00:00:00 | |
| KRY50SP-1 | 2026-09-02 06:51:46 | 52.14175 | 15.49918 | 106° | 40km/h | 7795m | -2.0m/s | -30.9°C | 14.7% | 377.3hPa | 2.5V | 00:00:00 | 00:00:00 | 00:00:00 | |
| 13BRC | 2026-09-02 06:51:44 | 52.14180 | 15.49890 | 102° | 31km/h | 7799m | -2.0m/s | -31.1°C | 14.4% | 377.0hPa | 2.5V | 00:00:00 | 00:00:00 | 00:00:00 | |
| SP6BVK | 2026-09-02 06:51:42 | 52.14180 | 15.49866 | 86° | 29km/h | 7803m | -2.1m/s | -31.1°C | 14.1% | 376.8hPa | 2.5V | 00:00:00 | 00:00:00 | 00:00:00 | |
| KRY50SP-1 | 2026-09-02 06:51:41 | 52.14179 | 15.49854 | 80° | 31km/h | 7806m | -2.2m/s | -31.1°C | 13.9% | 376.7hPa | 2.5V | 00:00:00 | 00:00:00 | 00:00:00 | |
| DB0DAN | 2026-09-02 06:51:40 | 52.14176 | 15.49826 | 78° | 37km/h | 7811m | -2.4m/s | -31°C | 13.6% | 376.43hPa | 2.5V | 00:00:00 | 00:00:00 | 00:00:00 | |
| SONDE2-11 | 2026-09-02 06:51:37 | 52.14172 | 15.49773 | 89° | 44km/h | 7817m | -2.1m/s | -31.0°C | 13.2% | 376.1hPa | 2.5V | 00:00:00 | 00:00:00 | 00:00:00 | |
| SP3BTT-10 | 2026-09-02 06:51:32 | 52.14178 | 15.49693 | 98° | 37km/h | 7828m | -1.8m/s | -31.1°C | 14.2% | 375.6hPa | 2.5V | 00:00:00 | 00:00:00 | 00:00:00 | |
| KRY50SP-1 | 2026-09-02 06:51:30 | 52.14179 | 15.49680 | 91° | 29km/h | 7829m | -2.0m/s | -31.2°C | 12.7% | 375.5hPa | 2.5V | 00:00:00 | 00:00:00 | 00:00:00 | |
| DB0DAN | 2026-09-02 06:51:25 | 52.14170 | 15.49590 | 87° | 44km/h | 7842m | -2.1m/s | -31.1°C | 12.6% | 374.85hPa | 2.5V | 00:00:00 | 00:00:00 | 00:00:00 | |
| 13BRC | 2026-09-02 06:51:24 | 52.14170 | 15.49571 | 94° | 46km/h | 7844m | -2.2m/s | -31.1°C | 12.7% | 374.6hPa | 2.5V | 00:00:00 | 00:00:00 | 00:00:00 | |
| SP6BVK | 2026-09-02 06:51:21 | 52.14173 | 15.49534 | 103° | 42km/h | 7848m | -2.0m/s | -31.1°C | 12.6% | 374.5hPa | 2.5V | 00:00:00 | 00:00:00 | 00:00:00 | |
| KRY50SP-1 | 2026-09-02 06:51:20 | 52.14175 | 15.49519 | 104° | 38km/h | 7850m | -2.1m/s | -31.2°C | 12.5% | 374.4hPa | 2.5V | 00:00:00 | 00:00:00 | 00:00:00 | |
| KRY50SP-1 | 2026-09-02 06:51:14 | 52.14173 | 15.49440 | 75° | 37km/h | 7863m | -2.1m/s | -31.4°C | 12.4% | 373.7hPa | 2.5V | 00:00:00 | 00:00:00 | 00:00:00 | |
| DB0DAN | 2026-09-02 06:51:10 | 52.14167 | 15.49352 | 95° | 42km/h | 7873m | -1.9m/s | -31.4°C | 12.8% | 373.16hPa | 2.5V | 00:00:00 | 00:00:00 | 00:00:00 | |
| EDDB2-11 | 2026-09-02 06:51:09 | 52.14168 | 15.49335 | 99° | 40km/h | 7875m | -1.8m/s | -31.5°C | 12.7% | 373.1hPa | 2.6V | 00:00:00 | 00:00:00 | 00:00:00 | |
| KRY50SP-1 | 2026-09-02 06:51:08 | 52.14168 | 15.49335 | 100° | 40km/h | 7875m | -1.8m/s | -31.5°C | 12.7% | 373.1hPa | 2.6V | 00:00:00 | 00:00:00 | 00:00:00 | |
| SONDE2-11 | 2026-09-02 06:51:06 | 52.14172 | 15.49293 | 94° | 27km/h | 7881m | -2.1m/s | -31.6°C | 12.4% | 372.7hPa | 2.6V | 00:00:00 | 00:00:00 | 00:00:00 | |
| KRY50SP-1 | 2026-09-02 06:51:03 | 52.14171 | 15.49270 | 81° | 29km/h | 7885m | -2.0m/s | -31.6°C | 12.4% | 372.5hPa | 2.6V | 00:00:00 | 00:00:00 | 00:00:00 | |
| SP3BTT-10 | 2026-09-02 06:51:02 | 52.14167 | 15.49243 | 76° | 38km/h | 7889m | -2.0m/s | -31.5°C | 13.7% | 372.2hPa | 2.6V | 00:00:00 | 00:00:00 | 00:00:00 | |
| SP6BVK | 2026-09-02 06:51:01 | 52.14167 | 15.49243 | 77° | 37km/h | 7889m | -2.0m/s | -31.6°C | 12.3% | 372.2hPa | 2.6V | 00:00:00 | 00:00:00 | 00:00:00 | |
| KRY50SP-1 | 2026-09-02 06:50:57 | 52.14162 | 15.49172 | 93° | 46km/h | 7897m | -1.8m/s | -31.6°C | 12.7% | 371.9hPa | 2.6V | 00:00:00 | 00:00:00 | 00:00:00 | |
| DB0DAN | 2026-09-02 06:50:55 | 52.14166 | 15.49121 | 102° | 35km/h | 7903m | -1.9m/s | -31.7°C | 12.4% | 371.58hPa | 2.6V | 00:00:00 | 00:00:00 | 00:00:00 | |
| EDDB2-12 | 2026-09-02 06:50:53 | 52.14169 | 15.49095 | 93° | 27km/h | 7907m | -2.1m/s | -31.8°C | 12.4% | 371.4hPa | 2.5V | 00:00:00 | 00:00:00 | 00:00:00 | |
| KRY50SP-1 | 2026-09-02 06:50:52 | 52.14169 | 15.49095 | 94° | 29km/h | 7907m | -2.1m/s | -31.8°C | 12.4% | 371.4hPa | 2.5V | 00:00:00 | 00:00:00 | 00:00:00 | |
| KRY50SP-1 | 2026-09-02 06:50:46 | 52.14157 | 15.49010 | 81° | 46km/h | 7919m | -2.1m/s | -31.8°C | 12.3% | 370.7hPa | 2.5V | 00:00:00 | 00:00:00 | 00:00:00 | |
| 13BRC | 2026-09-02 06:50:41 | 52.14159 | 15.48919 | 102° | 37km/h | 7930m | -2.0m/s | -32.0°C | 12.1% | 370.2hPa | 2.5V | 00:00:00 | 00:00:00 | 00:00:00 | |
| DB0DAN | 2026-09-02 06:50:40 | 52.14162 | 15.48893 | 94° | 29km/h | 7934m | -2.1m/s | -32.1°C | 12% | 369.96hPa | 2.5V | 00:00:00 | 00:00:00 | 00:00:00 | |
| EDDB2-11 | 2026-09-02 06:50:38 | 52.14161 | 15.48868 | 78° | 29km/h | 7938m | -2.0m/s | -32.0°C | 12.0% | 369.7hPa | 2.6V | 00:00:00 | 00:00:00 | 00:00:00 | |
| SONDE2-11 | 2026-09-02 06:50:35 | 52.14153 | 15.48825 | 75° | 42km/h | 7944m | -1.9m/s | -31.9°C | 11.8% | 369.4hPa | 2.6V | 00:00:00 | 00:00:00 | 00:00:00 | |
| SP3BTT-10 | 2026-09-02 06:50:32 | 52.14148 | 15.48769 | 89° | 40km/h | 7950m | -1.9m/s | -32.0°C | 13.4% | 369.1hPa | 2.6V | 00:00:00 | 00:00:00 | 00:00:00 | |
| KRY50SP-1 | 2026-09-02 06:50:29 | 52.14149 | 15.48732 | 98° | 42km/h | 7954m | -2.0m/s | -32.1°C | 12.0% | 368.9hPa | 2.6V | 00:00:00 | 00:00:00 | 00:00:00 | |
| DB0DAN | 2026-09-02 06:50:25 | 52.14152 | 15.48663 | 78° | 29km/h | 7963m | -2.1m/s | -32.2°C | 11.9% | 368.41hPa | 2.6V | 00:00:00 | 00:00:00 | 00:00:00 | |
| KRY50SP-1 | 2026-09-02 06:50:23 | 52.14150 | 15.48650 | 74° | 35km/h | 7965m | -2.1m/s | -32.2°C | 11.9% | 368.3hPa | 2.5V | 00:00:00 | 00:00:00 | 00:00:00 | |
| EDDB2-12 | 2026-09-02 06:50:22 | 52.14144 | 15.48619 | 74° | 42km/h | 7969m | -2.1m/s | -32.2°C | 12.0% | 368.0hPa | 2.5V | 00:00:00 | 00:00:00 | 00:00:00 | |
| 13BRC | 2026-09-02 06:50:21 | 52.14144 | 15.48619 | 76° | 44km/h | 7970m | -2.1m/s | -32.2°C | 12.0% | 368.0hPa | 2.5V | 00:00:00 | 00:00:00 | 00:00:00 | |
| SP6BVK | 2026-09-02 06:50:20 | 52.14142 | 15.48601 | 80° | 46km/h | 7972m | -2.2m/s | -32.2°C | 12.0% | 368.0hPa | 2.5V | 00:00:00 | 00:00:00 | 00:00:00 | |
| KRY50SP-1 | 2026-09-02 06:50:17 | 52.14139 | 15.48543 | 94° | 46km/h | 7978m | -2.1m/s | -32.2°C | 12.1% | 367.7hPa | 2.5V | 00:00:00 | 00:00:00 | 00:00:00 | |
| KRY50SP-1 | 2026-09-02 06:50:12 | 52.14145 | 15.48467 | 92° | 29km/h | 7988m | -1.9m/s | -32.4°C | 11.8% | 367.1hPa | 2.5V | 00:00:00 | 00:00:00 | 00:00:00 | |
| DB0DAN | 2026-09-02 06:50:10 | 52.14141 | 15.48430 | 73° | 33km/h | 7994m | -1.9m/s | -32.4°C | 11.8% | 366.79hPa | 2.5V | 00:00:00 | 00:00:00 | 00:00:00 | |
| EDDB2-11 | 2026-09-02 06:50:07 | 52.14134 | 15.48381 | 82° | 44km/h | 7999m | -1.8m/s | -32.3°C | 12.1% | 366.5hPa | 2.6V | 00:00:00 | 00:00:00 | 00:00:00 | |
| KRY50SP-1 | 2026-09-02 06:50:06 | 52.14133 | 15.48380 | 84° | 46km/h | 7999m | -1.8m/s | -32.3°C | 12.1% | 366.5hPa | 2.6V | 00:00:00 | 00:00:00 | 00:00:00 | |
| SONDE2-11 | 2026-09-02 06:50:04 | 52.14134 | 15.48325 | 98° | 42km/h | 8004m | -1.8m/s | -32.4°C | 12.0% | 366.2hPa | 2.6V | 00:00:00 | 00:00:00 | 00:00:00 | |
| SP3BTT-10 | 2026-09-02 06:50:02 | 52.14137 | 15.48293 | 100° | 38km/h | 8008m | -1.9m/s | -32.4°C | 13.3% | 366.0hPa | 2.6V | 00:00:00 | 00:00:00 | 00:00:00 | |
| 13BRC | 2026-09-02 06:50:01 | 52.14137 | 15.48293 | 100° | 35km/h | 8008m | -1.9m/s | -32.5°C | 11.9% | 366.0hPa | 2.6V | 00:00:00 | 00:00:00 | 00:00:00 | |
| KRY50SP-1 | 2026-09-02 06:50:00 | 52.14138 | 15.48279 | 95° | 33km/h | 8010m | -2.0m/s | -32.5°C | 11.9% | 366.0hPa | 2.6V | 00:00:00 | 00:00:00 | 00:00:00 | |
| SP6BVK | 2026-09-02 06:49:59 | 52.14138 | 15.48267 | 87° | 31km/h | 8012m | -1.9m/s | -32.6°C | 11.9% | 365.9hPa | 2.6V | 00:00:00 | 00:00:00 | 00:00:00 | |
| DB0DAN | 2026-09-02 06:49:55 | 52.14126 | 15.48195 | 75° | 42km/h | 8021m | -1.8m/s | -32.5°C | 11.9% | 365.35hPa | 2.6V | 00:00:00 | 00:00:00 | 00:00:00 | |
| EDDB2-12 | 2026-09-02 06:49:51 | 52.14122 | 15.48122 | 95° | 40km/h | 8028m | -1.7m/s | -32.6°C | 12.0% | 365.0hPa | 2.6V | 00:00:00 | 00:00:00 | 00:00:00 | |
| KRY50SP-1 | 2026-09-02 06:49:49 | 52.14123 | 15.48106 | 99° | 37km/h | 8030m | -1.6m/s | -32.6°C | 11.8% | 364.9hPa | 2.6V | 00:00:00 | 00:00:00 | 00:00:00 | |
| KRY50SP-1 | 2026-09-02 06:49:43 | 52.14119 | 15.48028 | 72° | 38km/h | 8042m | -1.6m/s | -32.8°C | 11.9% | 364.3hPa | 2.6V | 00:00:00 | 00:00:00 | 00:00:00 | |
| 13BRC | 2026-09-02 06:49:40 | 52.14111 | 15.47976 | 82° | 47km/h | 8047m | -1.7m/s | -32.8°C | 11.9% | 364.0hPa | 2.6V | 00:00:00 | 00:00:00 | 00:00:00 | |
| SP6BVK | 2026-09-02 06:49:39 | 52.14110 | 15.47957 | 87° | 47km/h | 8049m | -1.9m/s | -32.7°C | 11.8% | 363.9hPa | 2.6V | 00:00:00 | 00:00:00 | 00:00:00 | |
| EDDB2-11 | 2026-09-02 06:49:37 | 52.14112 | 15.47887 | 96° | 35km/h | 8056m | -1.6m/s | -32.8°C | 11.7% | 363.6hPa | 2.6V | 00:00:00 | 00:00:00 | 00:00:00 | |
| SONDE2-11 | 2026-09-02 06:49:33 | 52.14112 | 15.47849 | 77° | 29km/h | 8061m | -1.8m/s | -33.0°C | 11.7% | 363.3hPa | 2.6V | 00:00:00 | 00:00:00 | 00:00:00 | |
| SP3BTT-10 | 2026-09-02 06:49:32 | 52.14110 | 15.47836 | 72° | 37km/h | 8063m | -1.6m/s | -32.9°C | 13.2% | 363.2hPa | 2.6V | 00:00:00 | 00:00:00 | 00:00:00 | |
| KRY50SP-1 | 2026-09-02 06:49:28 | 52.14097 | 15.47772 | 80° | 46km/h | 8070m | -1.8m/s | -33.0°C | 11.9% | 362.9hPa | 2.6V | 00:00:00 | 00:00:00 | 00:00:00 | |
| SP6BVK | 2026-09-02 06:49:23 | 52.14097 | 15.47651 | 77° | 29km/h | 8085m | -1.9m/s | -33.2°C | 11.6% | 362.1hPa | 2.6V | 00:00:00 | 00:00:00 | 00:00:00 | |
| KRY50SP-1 | 2026-09-02 06:49:19 | 52.14088 | 15.47611 | 70° | 40km/h | 8090m | -1.8m/s | -33.1°C | 11.6% | 361.8hPa | 2.6V | 00:00:00 | 00:00:00 | 00:00:00 | |
| KRY50SP-1 | 2026-09-02 06:49:11 | 52.14079 | 15.47521 | 94° | 44km/h | 8099m | -1.9m/s | -33.2°C | 11.8% | 361.4hPa | 2.6V | 00:00:00 | 00:00:00 | 00:00:00 | |
| KRY50SP-1 | 2026-09-02 06:49:07 | 52.14082 | 15.47450 | 82° | 29km/h | 8109m | -1.8m/s | -33.4°C | 11.5% | 360.8hPa | 2.6V | 00:00:00 | 00:00:00 | 00:00:00 | |
| SONDE2-11 | 2026-09-02 06:49:04 | 52.14068 | 15.47380 | 76° | 44km/h | 8118m | -1.7m/s | -33.3°C | 11.4% | 360.4hPa | 2.6V | 00:00:00 | 00:00:00 | 00:00:00 | |
| EDDB2-12 | 2026-09-02 06:48:51 | 52.14052 | 15.47182 | 81° | 44km/h | 8139m | -1.8m/s | -33.5°C | 11.2% | 359.3hPa | 2.6V | 00:00:00 | 00:00:00 | 00:00:00 | |
| KRY50SP-1 | 2026-09-02 06:48:50 | 52.14054 | 15.47200 | 77° | 44km/h | 8138m | -1.8m/s | -33.4°C | 11.1% | 359.4hPa | 2.6V | 00:00:00 | 00:00:00 | 00:00:00 | |
| KRY50SP-1 | 2026-09-02 06:48:44 | 52.14053 | 15.47111 | 100° | 38km/h | 8146m | -1.8m/s | -33.6°C | 11.0% | 358.9hPa | 2.6V | 00:00:00 | 00:00:00 | 00:00:00 | |
| KRY50SP-1 | 2026-09-02 06:48:39 | 52.14053 | 15.47048 | 73° | 31km/h | 8156m | -1.8m/s | -33.7°C | 11.2% | 358.5hPa | 2.6V | 00:00:00 | 00:00:00 | 00:00:00 | |
| SP6BVK | 2026-09-02 06:48:38 | 52.14050 | 15.47035 | 72° | 37km/h | 8157m | -1.8m/s | -33.7°C | 11.2% | 358.4hPa | 2.6V | 00:00:00 | 00:00:00 | 00:00:00 | |
| KRY50SP-1 | 2026-09-02 06:48:34 | 52.14040 | 15.46947 | 91° | 46km/h | 8166m | -1.7m/s | -33.7°C | 11.2% | 357.9hPa | 2.6V | 00:00:00 | 00:00:00 | 00:00:00 | |
| SP3BTT-10 | 2026-09-02 06:48:31 | 52.14043 | 15.46897 | 101° | 38km/h | 8172m | -1.8m/s | -33.7°C | 12.3% | 357.6hPa | 2.6V | 00:00:00 | 00:00:00 | 00:00:00 | |
| KRY50SP-1 | 2026-09-02 06:48:28 | 52.14045 | 15.46860 | 86° | 29km/h | 8177m | -1.8m/s | -33.8°C | 11.1% | 357.4hPa | 2.6V | 00:00:00 | 00:00:00 | 00:00:00 | |
| S3001 | 2026-09-02 06:48:03 | 52.14039 | 15.46469 | 93° | 29km/h | 8221m | -1.7m/s | -34.3°C | 11.4% | 355.1hPa | 2.6V | 00:00:00 | 00:00:00 | 00:00:00 | |
| SONDE2-11 | 2026-09-02 06:48:00 | 52.14036 | 15.46430 | 76° | 37km/h | 8226m | -1.8m/s | -34.2°C | 11.5% | 354.9hPa | 2.6V | 00:00:00 | 00:00:00 | 00:00:00 | |
| 13BRC | 2026-09-02 06:47:57 | 52.14031 | 15.46397 | 82° | 44km/h | 8230m | -1.7m/s | -34.2°C | 11.5% | 354.6hPa | 2.6V | 00:00:00 | 00:00:00 | 00:00:00 | |
| SP6BVK | 2026-09-02 06:47:56 | 52.14030 | 15.46379 | 87° | 46km/h | 8231m | -1.8m/s | -34.2°C | 11.5% | 354.6hPa | 2.6V | 00:00:00 | 00:00:00 | 00:00:00 | |
| DB0DAN | 2026-09-02 06:47:55 | 52.14030 | 15.46341 | 95° | 44km/h | 8235m | -1.8m/s | -34.2°C | 11.5% | 354.38hPa | 2.6V | 00:00:00 | 00:00:00 | 00:00:00 | |
| EDDB2-12 | 2026-09-02 06:47:47 | 52.14035 | 15.46223 | 76° | 37km/h | 8249m | -1.5m/s | -34.3°C | 11.3% | 353.7hPa | 2.5V | 00:00:00 | 00:00:00 | 00:00:00 | |
| DB0DAN | 2026-09-02 06:47:40 | 52.14036 | 15.46101 | 105° | 37km/h | 8261m | -1.9m/s | -34.5°C | 11.3% | 353.07hPa | 2.5V | 00:00:00 | 00:00:00 | 00:00:00 | |
| SP3WXH-11 | 2026-09-02 06:47:40 | 52.14038 | 15.46087 | 104° | 33km/h | 8263m | -1.9m/s | -34.5°C | 11.1% | 353.1hPa | 2.6V | 00:00:00 | 00:00:00 | 00:00:00 | |
| KRY50SP-1 | 2026-09-02 06:47:38 | 52.14038 | 15.46087 | 106° | 33km/h | 8263m | -1.9m/s | -34.5°C | 11.1% | 353.0hPa | 2.6V | 00:00:00 | 00:00:00 | 00:00:00 | |
| 13BRC | 2026-09-02 06:47:37 | 52.14040 | 15.46074 | 102° | 29km/h | 8264m | -1.8m/s | -34.5°C | 11.2% | 352.9hPa | 2.6V | 00:00:00 | 00:00:00 | 00:00:00 | |
| SP6BVK | 2026-09-02 06:47:35 | 52.14041 | 15.46051 | 85° | 27km/h | 8268m | -1.8m/s | -34.6°C | 11.4% | 352.7hPa | 2.6V | 00:00:00 | 00:00:00 | 00:00:00 | |
| S3001 | 2026-09-02 06:47:32 | 52.14033 | 15.45994 | 80° | 42km/h | 8275m | -1.7m/s | -34.5°C | 11.9% | 352.4hPa | 2.6V | 00:00:00 | 00:00:00 | 00:00:00 | |
| SP3BTT-10 | 2026-09-02 06:47:31 | 52.14032 | 15.45976 | 86° | 38km/h | 8277m | -1.7m/s | -34.5°C | 13.7% | 352.2hPa | 2.6V | 00:00:00 | 00:00:00 | 08:30:00 | |
| SONDE2-11 | 2026-09-02 06:47:29 | 52.14032 | 15.45940 | 97° | 44km/h | 8280m | -1.6m/s | -34.6°C | 12.1% | 352.1hPa | 2.6V | 00:00:00 | 00:00:00 | 00:00:00 | |
| KRY50SP-1 | 2026-09-02 06:47:26 | 52.14036 | 15.45906 | 107° | 38km/h | 8284m | -1.7m/s | -34.6°C | 12.0% | 351.8hPa | 2.6V | 00:00:00 | 00:00:00 | 00:00:00 | |
| DB0DAN | 2026-09-02 06:47:25 | 52.14041 | 15.45879 | 103° | 29km/h | 8287m | -2m/s | -34.7°C | 11.8% | 351.75hPa | 2.6V | 00:00:00 | 00:00:00 | 00:00:00 | |
| KRY50SP-1 | 2026-09-02 06:47:20 | 52.14040 | 15.45831 | 77° | 35km/h | 8295m | -1.5m/s | -34.6°C | 11.1% | 351.4hPa | 2.6V | 00:00:00 | 00:00:00 | 00:00:00 | |
| 13BRC | 2026-09-02 06:47:17 | 52.14034 | 15.45782 | 85° | 46km/h | 8300m | -1.7m/s | -34.6°C | 11.1% | 351.2hPa | 2.6V | 00:00:00 | 00:00:00 | 00:00:00 | |
| EDDB2-12 | 2026-09-02 06:47:16 | 52.14035 | 15.45726 | 99° | 42km/h | 8305m | -1.7m/s | -34.7°C | 11.3% | 350.8hPa | 2.6V | 00:00:00 | 00:00:00 | 00:00:00 | |
| KRY50SP-1 | 2026-09-02 06:47:15 | 52.14035 | 15.45725 | 100° | 44km/h | 8305m | -1.7m/s | -34.7°C | 11.3% | 350.8hPa | 2.6V | 00:00:00 | 00:00:00 | 00:00:00 | |
| DB0DAN | 2026-09-02 06:47:10 | 52.14043 | 15.45658 | 86° | 26km/h | 8314m | -1.9m/s | -34.8°C | 11.7% | 350.41hPa | 2.6V | 00:00:00 | 00:00:00 | 00:00:00 | |
| KRY50SP-1 | 2026-09-02 06:47:08 | 52.14042 | 15.45646 | 80° | 29km/h | 8316m | -1.8m/s | -34.8°C | 11.6% | 350.3hPa | 2.6V | 00:00:00 | 00:00:00 | 00:00:00 | |
| KRY50SP-1 | 2026-09-02 06:47:03 | 52.14034 | 15.45566 | 90° | 46km/h | 8325m | -1.7m/s | -34.8°C | 12.0% | 349.8hPa | 2.6V | 00:00:00 | 00:00:00 | 00:00:00 | |
| S3001 | 2026-09-02 06:47:01 | 52.14038 | 15.45513 | 102° | 38km/h | 8330m | -1.7m/s | -34.9°C | 11.8% | 349.6hPa | 2.6V | 00:00:00 | 00:00:00 | 00:00:00 | |
| SONDE2-11 | 2026-09-02 06:46:58 | 52.14042 | 15.45461 | 84° | 27km/h | 8337m | -1.8m/s | -35.0°C | 11.8% | 349.2hPa | 2.6V | 00:00:00 | 00:00:00 | 00:00:00 | |
| KRY50SP-1 | 2026-09-02 06:46:57 | 52.14042 | 15.45472 | 94° | 27km/h | 8336m | -1.7m/s | -35.0°C | 11.7% | 349.4hPa | 2.6V | 00:00:00 | 00:00:00 | 00:00:00 | |
| 13BRC | 2026-09-02 06:46:56 | 52.14042 | 15.45461 | 86° | 29km/h | 8337m | -1.8m/s | -35.0°C | 11.8% | 349.2hPa | 2.6V | 00:00:00 | 00:00:00 | 00:00:00 | |
| DB0DAN | 2026-09-02 06:46:55 | 52.14040 | 15.45435 | 78° | 35km/h | 8341m | -1.6m/s | -35°C | 12% | 349.12hPa | 2.6V | 00:00:00 | 00:00:00 | 00:00:00 | |
| EDDB2-12 | 2026-09-02 06:46:45 | 52.14047 | 15.45274 | 92° | 27km/h | 8359m | -1.7m/s | -35.2°C | 12.0% | 348.2hPa | 2.6V | 00:00:00 | 00:00:00 | 00:00:00 | |
| KRY50SP-1 | 2026-09-02 06:46:40 | 52.14042 | 15.45220 | 82° | 40km/h | 8366m | -1.7m/s | -35.2°C | 12.5% | 347.8hPa | 2.6V | 00:00:00 | 00:00:00 | 00:00:00 | |
| 13BRC | 2026-09-02 06:46:37 | 52.14043 | 15.45147 | 103° | 46km/h | 8373m | -1.6m/s | -35.3°C | 13.0% | 347.4hPa | 2.6V | 00:00:00 | 00:00:00 | 00:00:00 | |
| KRY50SP-1 | 2026-09-02 06:46:36 | 52.14046 | 15.45130 | 107° | 42km/h | 8375m | -1.8m/s | -35.3°C | 12.8% | 347.4hPa | 2.6V | 00:00:00 | 00:00:00 | 00:00:00 | |
| SP6BVK | 2026-09-02 06:46:33 | 52.14052 | 15.45099 | 110° | 35km/h | 8379m | -1.8m/s | -35.4°C | 12.7% | 347.1hPa | 2.6V | 00:00:00 | 00:00:00 | 00:00:00 | |
| KRY50SP-1 | 2026-09-02 06:46:30 | 52.14056 | 15.45051 | 82° | 31km/h | 8387m | -1.9m/s | -35.4°C | 12.5% | 346.8hPa | 2.6V | 00:00:00 | 00:00:00 | 00:00:00 | |
| KRY50SP-1 | 2026-09-02 06:46:23 | 52.14051 | 15.44950 | 99° | 46km/h | 8398m | -1.9m/s | -35.4°C | 12.4% | 346.2hPa | 2.6V | 00:00:00 | 00:00:00 | 00:00:00 | |
| KRY50SP-1 | 2026-09-02 06:46:18 | 52.14064 | 15.44863 | 93° | 29km/h | 8409m | -1.8m/s | -35.6°C | 12.0% | 345.6hPa | 2.6V | 00:00:00 | 00:00:00 | 00:00:00 | |
| 13BRC | 2026-09-02 06:46:16 | 52.14063 | 15.44851 | 86° | 33km/h | 8410m | -1.8m/s | -35.7°C | 12.2% | 345.6hPa | 2.6V | 00:00:00 | 00:00:00 | 00:00:00 | |
| EDDB2-12 | 2026-09-02 06:46:14 | 52.14061 | 15.44785 | 92° | 46km/h | 8417m | -1.7m/s | -35.6°C | 12.2% | 345.2hPa | 2.6V | 00:00:00 | 00:00:00 | 00:00:00 | |
| KRY50SP-1 | 2026-09-02 06:46:13 | 52.14060 | 15.44785 | 93° | 47km/h | 8417m | -1.7m/s | -35.6°C | 12.2% | 345.2hPa | 2.6V | 00:00:00 | 00:00:00 | 00:00:00 | |
| SP6BVK | 2026-09-02 06:46:12 | 52.14060 | 15.44785 | 93° | 47km/h | 8417m | -1.7m/s | -35.6°C | 12.2% | 345.2hPa | 2.6V | 00:00:00 | 00:00:00 | 00:00:00 | |
| KRY50SP-1 | 2026-09-02 06:46:07 | 52.14072 | 15.44698 | 107° | 35km/h | 8426m | -1.9m/s | -35.7°C | 12.4% | 344.8hPa | 2.6V | 00:00:00 | 00:00:00 | 00:00:00 | |
| SP3WXH-11 | 2026-09-02 06:46:06 | 52.14075 | 15.44672 | 92° | 29km/h | 8430m | -1.6m/s | -35.9°C | 12.7% | 344.6hPa | 2.6V | 00:00:00 | 00:00:00 | 00:00:00 | |
| KRY50SP-1 | 2026-09-02 06:46:03 | 52.14071 | 15.44632 | 81° | 38km/h | 8435m | -1.8m/s | -35.8°C | 13.0% | 344.4hPa | 2.6V | 00:00:00 | 00:00:00 | 00:00:00 | |
| S3001 | 2026-09-02 06:45:59 | 52.14070 | 15.44559 | 98° | 46km/h | 8442m | -1.8m/s | -35.8°C | 13.6% | 344.1hPa | 2.6V | 00:00:00 | 00:00:00 | 00:00:00 | |
| SONDE2-11 | 2026-09-02 06:45:56 | 52.14082 | 15.44494 | 109° | 33km/h | 8449m | -1.8m/s | -36.0°C | 13.6% | 343.6hPa | 2.6V | 00:00:00 | 00:00:00 | 00:00:00 | |
| 13BRC | 2026-09-02 06:45:55 | 52.14079 | 15.44508 | 112° | 38km/h | 8448m | -1.7m/s | -35.9°C | 13.6% | 343.7hPa | 2.6V | 00:00:00 | 00:00:00 | 00:00:00 | |
| SP6BVK | 2026-09-02 06:45:51 | 52.14086 | 15.44458 | 88° | 29km/h | 8455m | -2.0m/s | -36.0°C | 13.8% | 343.4hPa | 2.6V | 00:00:00 | 00:00:00 | 00:00:00 | |
| KRY50SP-1 | 2026-09-02 06:45:45 | 52.14080 | 15.44361 | 94° | 47km/h | 8467m | -2.0m/s | -36.1°C | 14.0% | 342.8hPa | 2.6V | 00:00:00 | 00:00:00 | 00:00:00 | |
| EDDB2-12 | 2026-09-02 06:45:43 | 52.14090 | 15.44290 | 109° | 37km/h | 8475m | -1.8m/s | -36.2°C | 13.7% | 342.4hPa | 2.6V | 00:00:00 | 00:00:00 | 00:00:00 | |
| KRY50SP-1 | 2026-09-02 06:45:39 | 52.14095 | 15.44263 | 104° | 29km/h | 8478m | -1.8m/s | -36.3°C | 13.5% | 342.2hPa | 2.6V | 00:00:00 | 00:00:00 | 00:00:00 | |
| SP3WXH-11 | 2026-09-02 06:45:35 | 52.14092 | 15.44197 | 84° | 40km/h | 8488m | -2.0m/s | -36.2°C | 14.1% | 341.8hPa | 2.6V | 00:00:00 | 00:00:00 | 00:00:00 | |
| 13BRC | 2026-09-02 06:45:34 | 52.14092 | 15.44197 | 85° | 42km/h | 8488m | -2.0m/s | -36.2°C | 14.1% | 341.8hPa | 2.6V | 00:00:00 | 00:00:00 | 00:00:00 | |
| KRY50SP-1 | 2026-09-02 06:45:33 | 52.14092 | 15.44179 | 90° | 46km/h | 8490m | -1.8m/s | -36.2°C | 14.2% | 341.6hPa | 2.6V | 00:00:00 | 00:00:00 | 00:00:00 | |
| SP6BVK | 2026-09-02 06:45:32 | 52.14093 | 15.44141 | 101° | 47km/h | 8494m | -1.8m/s | -36.3°C | 14.4% | 341.5hPa | 2.6V | 00:00:00 | 00:00:00 | 00:00:00 | |
| S3001 | 2026-09-02 06:45:28 | 52.14106 | 15.44075 | 111° | 35km/h | 8501m | -2.0m/s | -36.4°C | 14.2% | 341.1hPa | 2.6V | 00:00:00 | 00:00:00 | 00:00:00 | |
| KRY50SP-1 | 2026-09-02 06:45:27 | 52.14106 | 15.44075 | 112° | 35km/h | 8501m | -2.0m/s | -36.4°C | 14.2% | 341.1hPa | 2.6V | 00:00:00 | 00:00:00 | 00:00:00 | |
| DB0DAN | 2026-09-02 06:45:25 | 52.14112 | 15.44038 | 92° | 27km/h | 8507m | -1.9m/s | -36.5°C | 14.5% | 340.8hPa | 2.6V | 00:00:00 | 00:00:00 | 00:00:00 | |
| SONDE2-11 | 2026-09-02 06:45:25 | 52.14111 | 15.44026 | 85° | 31km/h | 8509m | -2.0m/s | -36.5°C | 14.4% | 340.7hPa | 2.6V | 00:00:00 | 00:00:00 | 00:00:00 | |
| KRY50SP-1 | 2026-09-02 06:45:22 | 52.14110 | 15.44011 | 85° | 37km/h | 8511m | -2.0m/s | -36.5°C | 14.7% | 340.5hPa | 2.6V | 00:00:00 | 00:00:00 | 00:00:00 | |
| KRY50SP-1 | 2026-09-02 06:45:16 | 52.14117 | 15.43905 | 108° | 42km/h | 8522m | -1.9m/s | -36.5°C | 14.7% | 340.1hPa | 2.6V | 00:00:00 | 00:00:00 | 00:00:00 | |
| SP3BTT-10 | 2026-09-02 06:45:15 | 52.14123 | 15.43875 | 107° | 37km/h | 8525m | -1.7m/s | -36.6°C | 16.9% | 339.8hPa | 2.6V | 00:00:00 | 00:00:00 | 00:00:00 | |
| 13BRC | 2026-09-02 06:45:14 | 52.14122 | 15.43875 | 107° | 35km/h | 8525m | -1.8m/s | -36.6°C | 15.0% | 339.9hPa | 2.6V | 00:00:00 | 00:00:00 | 00:00:00 | |
| KRY50SP-1 | 2026-09-02 06:45:11 | 52.14126 | 15.43835 | 92° | 35km/h | 8531m | -1.8m/s | -36.8°C | 16.2% | 339.6hPa | 2.6V | 00:00:00 | 00:00:00 | 00:00:00 | |
| DB0DAN | 2026-09-02 06:45:10 | 52.14126 | 15.43803 | 91° | 40km/h | 8534m | -1.6m/s | -36.8°C | 16.6% | 339.47hPa | 2.6V | 00:00:00 | 00:00:00 | 00:00:00 | |
| KRY50SP-1 | 2026-09-02 06:45:06 | 52.14131 | 15.43748 | 106° | 46km/h | 8539m | -1.7m/s | -36.7°C | 16.4% | 339.2hPa | 2.6V | 00:00:00 | 00:00:00 | 00:00:00 | |
| SP3WXH-11 | 2026-09-02 06:45:04 | 52.14141 | 15.43701 | 113° | 35km/h | 8544m | -2.1m/s | -36.9°C | 16.2% | 339.0hPa | 2.6V | 00:00:00 | 00:00:00 | 00:00:00 | |
| S3001 | 2026-09-02 06:44:57 | 52.14146 | 15.43589 | 92° | 44km/h | 8560m | -1.7m/s | -36.9°C | 17.7% | 338.1hPa | 2.6V | 00:00:00 | 00:00:00 | 00:00:00 | |
| DB0DAN | 2026-09-02 06:44:55 | 52.14147 | 15.43571 | 98° | 44km/h | 8562m | -1.8m/s | -36.9°C | 17.8% | 338.09hPa | 2.6V | 00:00:00 | 00:00:00 | 00:00:00 | |
| SONDE2-11 | 2026-09-02 06:44:54 | 52.14152 | 15.43536 | 107° | 40km/h | 8565m | -1.8m/s | -37.0°C | 17.6% | 338.0hPa | 2.6V | 00:00:00 | 00:00:00 | 00:00:00 | |
| 13BRC | 2026-09-02 06:44:53 | 52.14149 | 15.43553 | 104° | 44km/h | 8564m | -1.6m/s | -37.0°C | 17.7% | 338.0hPa | 2.6V | 00:00:00 | 00:00:00 | 00:00:00 | |
| KRY50SP-1 | 2026-09-02 06:44:49 | 52.14161 | 15.43494 | 108° | 31km/h | 8570m | -1.8m/s | -37.1°C | 17.2% | 337.7hPa | 2.6V | 00:00:00 | 00:00:00 | 00:00:00 | |
| SP3BTT-10 | 2026-09-02 06:44:45 | 52.14163 | 15.43428 | 88° | 33km/h | 8580m | -1.8m/s | -37.1°C | 19.4% | 337.2hPa | 2.6V | 00:00:00 | 00:00:00 | 00:00:00 | |
| KRY50SP-1 | 2026-09-02 06:44:43 | 52.14163 | 15.43411 | 91° | 42km/h | 8582m | -2.0m/s | -37.2°C | 17.4% | 337.2hPa | 2.6V | 00:00:00 | 00:00:00 | 00:00:00 | |
| DB0DAN | 2026-09-02 06:44:40 | 52.14166 | 15.43340 | 98° | 42km/h | 8590m | -2.4m/s | -37.3°C | 17.6% | 336.7hPa | 2.6V | 00:00:00 | 00:00:00 | 00:00:00 | |
| KRY50SP-1 | 2026-09-02 06:44:37 | 52.14170 | 15.43303 | 100° | 46km/h | 8595m | -2.3m/s | -37.4°C | 17.8% | 336.5hPa | 2.5V | 00:00:00 | 00:00:00 | 00:00:00 | |
| SP3WXH-11 | 2026-09-02 06:44:33 | 52.14182 | 15.43214 | 106° | 44km/h | 8607m | -2.4m/s | -37.4°C | 18.4% | 335.9hPa | 2.5V | 00:00:00 | 00:00:00 | 00:00:00 | |
| 13BRC | 2026-09-02 06:44:32 | 52.14182 | 15.43214 | 107° | 44km/h | 8607m | -2.4m/s | -37.4°C | 18.4% | 335.9hPa | 2.5V | 00:00:00 | 00:00:00 | 00:00:00 | |
| KRY50SP-1 | 2026-09-02 06:44:31 | 52.14185 | 15.43197 | 109° | 44km/h | 8609m | -2.3m/s | -37.5°C | 18.4% | 335.7hPa | 2.5V | 00:00:00 | 00:00:00 | 00:00:00 | |
| SP6BVK | 2026-09-02 06:44:29 | 52.14195 | 15.43149 | 112° | 40km/h | 8616m | -2.3m/s | -37.5°C | 18.6% | 335.4hPa | 2.5V | 00:00:00 | 00:00:00 | 00:00:00 | |
| OE3JTB-15 | 2026-09-02 06:44:28 | 52.14199 | 15.43134 | 113° | 38km/h | 8619m | -2.3m/s | -37.5°C | 20.9% | 335.3hPa | 2.5V | 00:00:00 | 02:41:18 | 00:00:00 | |
| KRY50SP-1 | 2026-09-02 06:44:26 | 52.14203 | 15.43119 | 114° | 37km/h | 8621m | -2.5m/s | -37.6°C | 18.6% | 335.2hPa | 2.5V | 00:00:00 | 00:00:00 | 00:00:00 | |
| DB0DAN | 2026-09-02 06:44:25 | 52.14210 | 15.43093 | 114° | 33km/h | 8626m | -2.6m/s | -37.7°C | 18.7% | 334.94hPa | 2.5V | 00:00:00 | 00:00:00 | 00:00:00 | |
| SONDE2-11 | 2026-09-02 06:44:23 | 52.14220 | 15.43057 | 109° | 29km/h | 8633m | -2.4m/s | -37.8°C | 18.9% | 334.6hPa | 2.5V | 00:00:00 | 00:00:00 | 00:00:00 | |
| KRY50SP-1 | 2026-09-02 06:44:20 | 52.14222 | 15.43045 | 106° | 29km/h | 8636m | -2.6m/s | -37.8°C | 19.1% | 334.5hPa | 2.5V | 00:00:00 | 00:00:00 | 00:00:00 | |
| SP3BTT-10 | 2026-09-02 06:44:15 | 52.14225 | 15.42967 | 91° | 38km/h | 8651m | -2.3m/s | -38.0°C | 21.4% | 333.7hPa | 2.5V | 00:00:00 | 00:00:00 | 00:00:00 | |
| DL2RXE-15 | 2026-09-02 06:44:13 | 52.14226 | 15.42951 | 93° | 40km/h | 8653m | -2.2m/s | -38.0°C | 19.1% | 333.8hPa | 2.5V | 00:00:00 | 00:00:00 | 00:00:00 | |
| 13BRC | 2026-09-02 06:44:11 | 52.14227 | 15.42917 | 96° | 42km/h | 8658m | -2.2m/s | -38.0°C | 19.2% | 333.5hPa | 2.5V | 00:00:00 | 00:00:00 | 00:00:00 | |
| DB0DAN | 2026-09-02 06:44:10 | 52.14230 | 15.42881 | 99° | 42km/h | 8662m | -2.3m/s | -38°C | 19.5% | 333.29hPa | 2.5V | 00:00:00 | 00:00:00 | 00:00:00 | |
| EDDB2-12 | 2026-09-02 06:44:10 | 52.14232 | 15.42863 | 100° | 44km/h | 8664m | -2.5m/s | -38.0°C | 19.6% | 333.1hPa | 2.5V | 00:00:00 | 00:00:00 | 00:00:00 | |
| SP6BVK | 2026-09-02 06:44:08 | 52.14232 | 15.42863 | 102° | 46km/h | 8665m | -2.5m/s | -38.0°C | 19.6% | 333.1hPa | 2.5V | 00:00:00 | 00:00:00 | 00:00:00 | |
| KRY50SP-1 | 2026-09-02 06:44:04 | 52.14244 | 15.42790 | 110° | 46km/h | 8674m | -2.6m/s | -38.0°C | 19.8% | 332.6hPa | 2.5V | 00:00:00 | 00:00:00 | 00:00:00 | |
| SP3WXH-11 | 2026-09-02 06:44:02 | 52.14257 | 15.42741 | 116° | 40km/h | 8682m | -2.7m/s | -38.1°C | 19.4% | 332.3hPa | 2.5V | 00:00:00 | 00:00:00 | 00:00:00 | |
| KRY50SP-1 | 2026-09-02 06:43:58 | 52.14270 | 15.42699 | 119° | 35km/h | 8690m | -2.5m/s | -38.2°C | 19.5% | 331.8hPa | 2.5V | 00:00:00 | 00:00:00 | 00:00:00 | |
| DB0DAN | 2026-09-02 06:43:55 | 52.14279 | 15.42652 | 94° | 27km/h | 8700m | -2.5m/s | -38.4°C | 19.2% | 331.42hPa | 2.5V | 00:00:00 | 00:00:00 | 00:00:00 | |
| S3001 | 2026-09-02 06:43:55 | 52.14279 | 15.42640 | 89° | 31km/h | 8702m | -2.6m/s | -38.4°C | 19.3% | 331.2hPa | 2.6V | 00:00:00 | 00:00:00 | 00:00:00 | |
| SONDE2-11 | 2026-09-02 06:43:52 | 52.14278 | 15.42596 | 88° | 40km/h | 8710m | -2.8m/s | -38.4°C | 19.3% | 330.9hPa | 2.6V | 00:00:00 | 00:00:00 | 00:00:00 | |
| 13BRC | 2026-09-02 06:43:51 | 52.14279 | 15.42612 | 88° | 38km/h | 8708m | -2.7m/s | -38.4°C | 19.3% | 331.0hPa | 2.6V | 00:00:00 | 00:00:00 | 00:00:00 | |
| SP6BVK | 2026-09-02 06:43:48 | 52.14279 | 15.42560 | 97° | 46km/h | 8716m | -2.7m/s | -38.4°C | 19.8% | 330.6hPa | 2.6V | 00:00:00 | 00:00:00 | 00:00:00 | |
| KRY50SP-1 | 2026-09-02 06:43:47 | 52.14281 | 15.42541 | 101° | 46km/h | 8718m | -2.8m/s | -38.4°C | 20.1% | 330.5hPa | 2.6V | 00:00:00 | 00:00:00 | 00:00:00 | |
| KRY50SP-1 | 2026-09-02 06:43:41 | 52.14302 | 15.42445 | 114° | 33km/h | 8734m | -2.6m/s | -38.8°C | 20.2% | 329.7hPa | 2.6V | 00:00:00 | 00:00:00 | 00:00:00 | |
| DB0DAN | 2026-09-02 06:43:40 | 52.14307 | 15.42422 | 102° | 27km/h | 8739m | -2.7m/s | -38.8°C | 20% | 329.48hPa | 2.6V | 00:00:00 | 00:00:00 | 00:00:00 | |
| EDDB2-12 | 2026-09-02 06:43:39 | 52.14308 | 15.42398 | 91° | 29km/h | 8745m | -2.7m/s | -38.7°C | 19.7% | 329.2hPa | 2.6V | 00:00:00 | 00:00:00 | 00:00:00 | |
| KRY50SP-1 | 2026-09-02 06:43:36 | 52.14308 | 15.42385 | 88° | 33km/h | 8747m | -2.6m/s | -38.7°C | 19.5% | 329.1hPa | 2.6V | 00:00:00 | 00:00:00 | 00:00:00 | |
| SP3WXH-11 | 2026-09-02 06:43:31 | 52.14309 | 15.42283 | 99° | 46km/h | 8763m | -2.6m/s | -38.7°C | 20.2% | 328.3hPa | 2.6V | 00:00:00 | 00:00:00 | 00:00:00 | |
| KRY50SP-1 | 2026-09-02 06:43:30 | 52.14309 | 15.42283 | 100° | 47km/h | 8763m | -2.6m/s | -38.7°C | 20.2% | 328.3hPa | 2.6V | 00:00:00 | 00:00:00 | 00:00:00 | |
| SP3BTT-10 | 2026-09-02 06:43:29 | 52.14314 | 15.42245 | 108° | 37km/h | 8769m | -2.6m/s | -38.7°C | 22.6% | 328.0hPa | 2.6V | 00:00:00 | 00:00:00 | 00:00:00 | |
| SP6BVK | 2026-09-02 06:43:27 | 52.14318 | 15.42227 | 112° | 46km/h | 8771m | -2.7m/s | -38.8°C | 20.2% | 328.0hPa | 2.6V | 00:00:00 | 00:00:00 | 00:00:00 | |
| DB0DAN | 2026-09-02 06:43:25 | 52.14331 | 15.42181 | 115° | 35km/h | 8779m | -2.7m/s | -38.9°C | 20% | 327.54hPa | 2.6V | 00:00:00 | 00:00:00 | 00:00:00 | |
| S3001 | 2026-09-02 06:43:24 | 52.14338 | 15.42155 | 108° | 31km/h | 8785m | -2.4m/s | -39.1°C | 20.2% | 327.3hPa | 2.5V | 00:00:00 | 00:00:00 | 00:00:00 | |
| SONDE2-11 | 2026-09-02 06:43:21 | 52.14342 | 15.42118 | 91° | 31km/h | 8792m | -2.7m/s | -39.1°C | 20.1% | 327.0hPa | 2.5V | 00:00:00 | 00:00:00 | 00:00:00 | |
| KRY50SP-1 | 2026-09-02 06:43:18 | 52.14342 | 15.42105 | 89° | 35km/h | 8795m | -2.6m/s | -39.0°C | 20.0% | 326.8hPa | 2.5V | 00:00:00 | 00:00:00 | 00:00:00 | |
| DL2RXE-15 | 2026-09-02 06:43:15 | 52.14341 | 15.42058 | 91° | 44km/h | 8803m | -2.7m/s | -39.1°C | 20.4% | 326.5hPa | 2.5V | 00:00:00 | 00:00:00 | 00:00:00 | |
| KRY50SP-1 | 2026-09-02 06:43:12 | 52.14344 | 15.42001 | 103° | 47km/h | 8811m | -2.6m/s | -39.1°C | 20.9% | 326.0hPa | 2.5V | 00:00:00 | 00:00:00 | 00:00:00 | |
| 13BRC | 2026-09-02 06:43:11 | 52.14347 | 15.41983 | 107° | 46km/h | 8814m | -2.7m/s | -39.1°C | 21.0% | 325.9hPa | 2.5V | 00:00:00 | 00:00:00 | 00:00:00 | |
| SP6BVK | 2026-09-02 06:43:07 | 52.14363 | 15.41920 | 117° | 37km/h | 8825m | -2.9m/s | -39.3°C | 20.2% | 325.4hPa | 2.5V | 00:00:00 | 00:00:00 | 00:00:00 | |
| KRY50SP-1 | 2026-09-02 06:43:06 | 52.14367 | 15.41907 | 116° | 33km/h | 8828m | -2.9m/s | -39.2°C | 19.9% | 325.3hPa | 2.5V | 00:00:00 | 00:00:00 | 00:00:00 | |
| KRY50SP-1 | 2026-09-02 06:43:01 | 52.14376 | 15.41846 | 90° | 33km/h | 8842m | -2.9m/s | -39.2°C | 19.2% | 324.6hPa | 2.5V | 00:00:00 | 00:00:00 | 00:00:00 | |
| SP3WXH-11 | 2026-09-02 06:43:00 | 52.14375 | 15.41815 | 89° | 40km/h | 8848m | -2.9m/s | -39.3°C | 19.6% | 324.3hPa | 2.5V | 00:00:00 | 00:00:00 | 00:00:00 | |
| S3001 | 2026-09-02 06:42:53 | 52.14396 | 15.41677 | 112° | 35km/h | 8870m | -2.9m/s | -39.5°C | 18.3% | 323.3hPa | 2.5V | 00:00:00 | 00:00:00 | 00:00:00 | |
| 13BRC | 2026-09-02 06:42:50 | 52.14399 | 15.41664 | 110° | 33km/h | 8873m | -2.8m/s | -39.4°C | 18.2% | 323.2hPa | 2.5V | 00:00:00 | 00:00:00 | 00:00:00 | |
| KRY50SP-1 | 2026-09-02 06:42:49 | 52.14401 | 15.41652 | 105° | 29km/h | 8875m | -2.7m/s | -39.5°C | 18.0% | 323.0hPa | 2.5V | 00:00:00 | 00:00:00 | 00:00:00 | |
| SP6BVK | 2026-09-02 06:42:46 | 52.14403 | 15.41614 | 88° | 35km/h | 8884m | -2.9m/s | -39.5°C | 17.8% | 322.7hPa | 2.5V | 00:00:00 | 00:00:00 | 00:00:00 | |
| KRY50SP-1 | 2026-09-02 06:42:44 | 52.14402 | 15.41583 | 89° | 40km/h | 8889m | -3.0m/s | -39.5°C | 18.1% | 322.3hPa | 2.5V | 00:00:00 | 00:00:00 | 00:00:00 | |
| KRY50SP-1 | 2026-09-02 06:42:38 | 52.14413 | 15.41472 | 111° | 46km/h | 8907m | -2.9m/s | -39.6°C | 18.3% | 321.5hPa | 2.5V | 00:00:00 | 00:00:00 | 00:00:00 | |
| EDDB2-12 | 2026-09-02 06:42:37 | 52.14425 | 15.41425 | 112° | 35km/h | 8915m | -2.9m/s | -39.8°C | 17.9% | 321.1hPa | 2.5V | 00:00:00 | 00:00:00 | 00:00:00 | |
| KRY50SP-1 | 2026-09-02 06:42:33 | 52.14429 | 15.41399 | 101° | 31km/h | 8921m | -2.7m/s | -39.9°C | 17.7% | 320.9hPa | 2.5V | 00:00:00 | 00:00:00 | 00:00:00 | |
| 13BRC | 2026-09-02 06:42:30 | 52.14430 | 15.41357 | 88° | 38km/h | 8929m | -2.8m/s | -39.9°C | 17.6% | 320.5hPa | 2.5V | 00:00:00 | 00:00:00 | 00:00:00 | |
| SP3BTT-10 | 2026-09-02 06:42:29 | 52.14429 | 15.41323 | 89° | 42km/h | 8935m | -2.9m/s | -39.8°C | 20.2% | 320.2hPa | 2.5V | 00:00:00 | 00:00:00 | 00:00:00 | |
| KRY50SP-1 | 2026-09-02 06:42:28 | 52.14429 | 15.41323 | 90° | 44km/h | 8935m | -2.9m/s | -39.8°C | 17.8% | 320.2hPa | 2.5V | 00:00:00 | 00:00:00 | 00:00:00 | |
| SP6BVK | 2026-09-02 06:42:26 | 52.14429 | 15.41285 | 96° | 47km/h | 8941m | -3.1m/s | -39.9°C | 18.1% | 319.9hPa | 2.5V | 00:00:00 | 00:00:00 | 00:00:00 | |
| OE3JTB-15 | 2026-09-02 06:42:25 | 52.14433 | 15.41246 | 104° | 40km/h | 8946m | -2.7m/s | -39.9°C | 20.6% | 319.5hPa | 2.5V | 00:00:00 | 00:00:00 | 00:00:00 | |
| KRY50SP-1 | 2026-09-02 06:42:23 | 52.14437 | 15.41227 | 109° | 46km/h | 8950m | -2.9m/s | -39.9°C | 18.1% | 319.5hPa | 2.6V | 00:00:00 | 00:00:00 | 00:00:00 | |
| EDDB2-11 | 2026-09-02 06:42:22 | 52.14445 | 15.41195 | 114° | 38km/h | 8955m | -2.8m/s | -40.0°C | 17.7% | 319.2hPa | 2.6V | 00:00:00 | 00:00:00 | 00:00:00 | |
| S3001 | 2026-09-02 06:42:21 | 52.14448 | 15.41180 | 114° | 35km/h | 8957m | -2.8m/s | -40.1°C | 17.6% | 319.1hPa | 2.6V | 00:00:00 | 00:00:00 | 00:00:00 | |
| SONDE2-11 | 2026-09-02 06:42:18 | 52.14456 | 15.41142 | 99° | 31km/h | 8966m | -2.9m/s | -40.2°C | 17.3% | 318.7hPa | 2.6V | 00:00:00 | 00:00:00 | 00:00:00 | |
| KRY50SP-1 | 2026-09-02 06:42:17 | 52.14456 | 15.41142 | 101° | 31km/h | 8966m | -2.9m/s | -40.2°C | 17.3% | 318.7hPa | 2.6V | 00:00:00 | 00:00:00 | 00:00:00 | |
| KRY50SP-1 | 2026-09-02 06:42:11 | 52.14456 | 15.41049 | 93° | 47km/h | 8984m | -2.8m/s | -40.1°C | 17.3% | 317.8hPa | 2.6V | 00:00:00 | 00:00:00 | 00:00:00 | |
| 13BRC | 2026-09-02 06:42:09 | 52.14459 | 15.41010 | 101° | 49km/h | 8989m | -2.9m/s | -40.3°C | 17.7% | 317.7hPa | 2.6V | 00:00:00 | 00:00:00 | 00:00:00 | |
| SP6BVK | 2026-09-02 06:42:06 | 52.14473 | 15.40937 | 115° | 42km/h | 9001m | -3.0m/s | -40.3°C | 17.3% | 317.1hPa | 2.6V | 00:00:00 | 00:00:00 | 00:00:00 | |
| DL2RXE-15 | 2026-09-02 06:42:01 | 52.14487 | 15.40880 | 104° | 33km/h | 9013m | -2.7m/s | -40.5°C | 17.4% | 316.6hPa | 2.6V | 00:00:00 | 00:00:00 | 00:00:00 | |
| SP3WXH-11 | 2026-09-02 06:41:58 | 52.14488 | 15.40824 | 86° | 38km/h | 9024m | -3.0m/s | -40.5°C | 17.2% | 316.0hPa | 2.6V | 00:00:00 | 00:00:00 | 00:00:00 | |
| EDDB2-11 | 2026-09-02 06:41:51 | 52.14498 | 15.40669 | 108° | 46km/h | 9047m | -2.9m/s | -40.8°C | 18.1% | 314.9hPa | 2.6V | 00:00:00 | 00:00:00 | 00:00:00 | |
| S3001 | 2026-09-02 06:41:50 | 52.14498 | 15.40669 | 108° | 46km/h | 9047m | -2.9m/s | -40.8°C | 18.1% | 314.9hPa | 2.6V | 00:00:00 | 00:00:00 | 00:00:00 | |
| SONDE2-11 | 2026-09-02 06:41:47 | 52.14508 | 15.40622 | 105° | 35km/h | 9056m | -2.8m/s | -41.1°C | 17.7% | 314.5hPa | 2.6V | 00:00:00 | 00:00:00 | 00:00:00 | |
| SP3BTT-10 | 2026-09-02 06:41:45 | 52.14511 | 15.40595 | 94° | 44km/h | 9062m | -2.9m/s | -41.0°C | 19.8% | 314.2hPa | 2.6V | 00:00:00 | 00:00:00 | 08:30:00 | |
| KRY50SP-1 | 2026-09-02 06:41:44 | 52.14511 | 15.40595 | 95° | 33km/h | 9062m | -2.9m/s | -41.0°C | 17.3% | 314.3hPa | 2.5V | 00:00:00 | 00:00:00 | 00:00:00 | |
| DB0DAN | 2026-09-02 06:41:40 | 52.14508 | 15.40514 | 86° | 44km/h | 9077m | -3.2m/s | -41°C | 17.7% | 313.62hPa | 2.5V | 00:00:00 | 00:00:00 | 00:00:00 | |
| KRY50SP-1 | 2026-09-02 06:41:39 | 52.14508 | 15.40514 | 87° | 46km/h | 9078m | -3.2m/s | -41.0°C | 17.7% | 313.6hPa | 2.6V | 00:00:00 | 00:00:00 | 00:00:00 | |
| EDDB2-12 | 2026-09-02 06:41:35 | 52.14518 | 15.40396 | 107° | 42km/h | 9095m | -2.8m/s | -41.3°C | 17.8% | 312.8hPa | 2.6V | 00:00:00 | 00:00:00 | 00:00:00 | |
| KRY50SP-1 | 2026-09-02 06:41:34 | 52.14518 | 15.40396 | 108° | 44km/h | 9095m | -2.8m/s | -41.3°C | 17.8% | 312.8hPa | 2.6V | 00:00:00 | 00:00:00 | 00:00:00 | |
| 13BRC | 2026-09-02 06:41:28 | 52.14527 | 15.40325 | 91° | 35km/h | 9110m | -3.1m/s | -41.3°C | 16.8% | 312.1hPa | 2.6V | 00:00:00 | 00:00:00 | 00:00:00 | |
| OE3JTB-15 | 2026-09-02 06:41:27 | 52.14526 | 15.40295 | 85° | 42km/h | 9117m | -3.0m/s | -41.2°C | 19.1% | 311.7hPa | 2.6V | 00:00:00 | 02:38:17 | 00:00:00 | |
| DB0DAN | 2026-09-02 06:41:25 | 52.14524 | 15.40260 | 86° | 44km/h | 9123m | -3.1m/s | -41.3°C | 17% | 311.49hPa | 2.6V | 00:00:00 | 00:00:00 | 00:00:00 | |
| KRY50SP-1 | 2026-09-02 06:41:22 | 52.14524 | 15.40219 | 94° | 51km/h | 9129m | -3.0m/s | -41.3°C | 17.5% | 311.2hPa | 2.5V | 00:00:00 | 00:00:00 | 00:00:00 | |
| EDDB2-11 | 2026-09-02 06:41:20 | 52.14533 | 15.40139 | 105° | 44km/h | 9141m | -3.0m/s | -41.5°C | 17.2% | 310.6hPa | 2.5V | 00:00:00 | 00:00:00 | 00:00:00 | |
| S3001 | 2026-09-02 06:41:19 | 52.14533 | 15.40139 | 105° | 44km/h | 9141m | -3.0m/s | -41.5°C | 17.2% | 310.6hPa | 2.5V | 00:00:00 | 00:00:00 | 00:00:00 | |
| KRY50SP-1 | 2026-09-02 06:41:17 | 52.14536 | 15.40122 | 108° | 42km/h | 9144m | -2.9m/s | -41.4°C | 17.1% | 310.5hPa | 2.5V | 00:00:00 | 00:00:00 | 00:00:00 | |
| SONDE2-11 | 2026-09-02 06:41:16 | 52.14541 | 15.40092 | 101° | 33km/h | 9149m | -3.2m/s | -41.6°C | 17.0% | 310.2hPa | 2.5V | 00:00:00 | 00:00:00 | 00:00:00 | |
| SP3BTT-10 | 2026-09-02 06:41:15 | 52.14542 | 15.40079 | 97° | 44km/h | 9153m | -3.0m/s | -41.5°C | 19.5% | 310.1hPa | 2.5V | 00:00:00 | 00:00:00 | 00:00:00 | |
| DL2RXE-15 | 2026-09-02 06:41:13 | 52.14542 | 15.40052 | 86° | 35km/h | 9159m | -3.0m/s | -41.6°C | 17.2% | 309.9hPa | 2.5V | 00:00:00 | 00:00:00 | 00:00:00 | |
| KRY50SP-1 | 2026-09-02 06:41:12 | 52.14542 | 15.40052 | 86° | 35km/h | 9159m | -3.0m/s | -41.6°C | 17.2% | 309.9hPa | 2.5V | 00:00:00 | 00:00:00 | 00:00:00 | |
| DB0DAN | 2026-09-02 06:41:10 | 52.14538 | 15.40005 | 81° | 42km/h | 9168m | -3.1m/s | -41.6°C | 17.6% | 309.39hPa | 2.5V | 00:00:00 | 00:00:00 | 00:00:00 | |
| AA1-15 | 2026-09-02 06:40:57 | 52.14550 | 15.39782 | 82° | 38km/h | 9207m | -3.1m/s | -42.1°C | 23.6% | 307.6hPa | 2.5V | 18:12:15 | 02:37:47 | 00:00:00 | |
| SP3WXH-11 | 2026-09-02 06:40:56 | 52.14549 | 15.39766 | 80° | 40km/h | 9210m | -3.1m/s | -42.1°C | 18.5% | 307.5hPa | 2.6V | 00:00:00 | 00:00:00 | 00:00:00 | |
| DB0DAN | 2026-09-02 06:40:55 | 52.14547 | 15.39748 | 82° | 44km/h | 9213m | -2.8m/s | -42°C | 18.6% | 307.31hPa | 2.6V | 00:00:00 | 00:00:00 | 00:00:00 | |
| EDDB2-11 | 2026-09-02 06:40:49 | 52.14552 | 15.39609 | 104° | 42km/h | 9235m | -3.1m/s | -42.3°C | 18.0% | 306.4hPa | 2.6V | 00:00:00 | 00:00:00 | 00:00:00 | |
| S3001 | 2026-09-02 06:40:48 | 52.14552 | 15.39609 | 104° | 42km/h | 9235m | -3.1m/s | -42.3°C | 18.0% | 306.4hPa | 2.6V | 00:00:00 | 00:00:00 | 00:00:00 | |
| 13BRC | 2026-09-02 06:40:47 | 52.14552 | 15.39609 | 105° | 42km/h | 9235m | -3.1m/s | -42.3°C | 18.0% | 306.4hPa | 2.6V | 00:00:00 | 00:00:00 | 00:00:00 | |
| SP3BTT-10 | 2026-09-02 06:40:45 | 52.14558 | 15.39564 | 94° | 44km/h | 9244m | -3.0m/s | -42.5°C | 20.1% | 305.9hPa | 2.6V | 00:00:00 | 00:00:00 | 00:00:00 | |
| SP6BVK | 2026-09-02 06:40:44 | 52.14558 | 15.39564 | 94° | 35km/h | 9244m | -3.0m/s | -42.5°C | 17.5% | 306.0hPa | 2.6V | 00:00:00 | 00:00:00 | 00:00:00 | |
| DB0DAN | 2026-09-02 06:40:40 | 52.14552 | 15.39483 | 83° | 46km/h | 9259m | -3m/s | -42.4°C | 17.3% | 305.24hPa | 2.6V | 00:00:00 | 00:00:00 | 00:00:00 | |
| KRY50SP-1 | 2026-09-02 06:40:39 | 52.14552 | 15.39483 | 84° | 47km/h | 9259m | -3.0m/s | -42.4°C | 17.3% | 305.2hPa | 2.6V | 00:00:00 | 00:00:00 | 00:00:00 | |
| KRY50SP-1 | 2026-09-02 06:40:33 | 52.14557 | 15.39360 | 104° | 47km/h | 9276m | -2.6m/s | -42.5°C | 17.0% | 304.4hPa | 2.6V | 00:00:00 | 00:00:00 | 00:00:00 | |
| EDDB2-12 | 2026-09-02 06:40:32 | 52.14563 | 15.39325 | 105° | 40km/h | 9282m | -3.1m/s | -42.6°C | 16.6% | 304.2hPa | 2.6V | 00:00:00 | 00:00:00 | 00:00:00 | |
| DL2RXE-15 | 2026-09-02 06:40:31 | 52.14562 | 15.39325 | 106° | 42km/h | 9282m | -3.1m/s | -42.6°C | 16.6% | 304.2hPa | 2.6V | 00:00:00 | 00:00:00 | 00:00:00 | |
| OE3JTB-15 | 2026-09-02 06:40:29 | 52.14569 | 15.39279 | 97° | 44km/h | 9292m | -3.0m/s | -42.7°C | 18.7% | 303.7hPa | 2.6V | 00:00:00 | 00:00:00 | 00:00:00 | |
| 13BRC | 2026-09-02 06:40:27 | 52.14569 | 15.39265 | 92° | 35km/h | 9295m | -3.0m/s | -42.8°C | 15.9% | 303.7hPa | 2.6V | 00:00:00 | 00:00:00 | 00:00:00 | |
| DB0DAN | 2026-09-02 06:40:25 | 52.14566 | 15.39221 | 78° | 38km/h | 9304m | -3.2m/s | -42.8°C | 15.6% | 303.29hPa | 2.6V | 00:00:00 | 00:00:00 | 00:00:00 | |
| SP6BVK | 2026-09-02 06:40:23 | 52.14564 | 15.39204 | 79° | 44km/h | 9307m | -3.2m/s | -42.8°C | 15.6% | 303.1hPa | 2.5V | 00:00:00 | 00:00:00 | 00:00:00 | |
| KRY50SP-1 | 2026-09-02 06:40:21 | 52.14560 | 15.39167 | 83° | 49km/h | 9313m | -3.2m/s | -42.7°C | 16.0% | 302.8hPa | 2.5V | 00:00:00 | 00:00:00 | 00:00:00 | |
| EDDB2-11 | 2026-09-02 06:40:18 | 52.14561 | 15.39063 | 101° | 47km/h | 9328m | -3.2m/s | -42.9°C | 16.4% | 302.1hPa | 2.5V | 00:00:00 | 00:00:00 | 00:00:00 | |
| S3001 | 2026-09-02 06:40:17 | 52.14561 | 15.39063 | 101° | 47km/h | 9328m | -3.2m/s | -42.9°C | 16.4% | 302.1hPa | 2.5V | 00:00:00 | 00:00:00 | 00:00:00 | |
| SP3BTT-10 | 2026-09-02 06:40:15 | 52.14566 | 15.39027 | 104° | 42km/h | 9335m | -2.9m/s | -43.0°C | 18.7% | 301.8hPa | 2.5V | 00:00:00 | 00:00:00 | 00:00:00 | |
| SONDE2-11 | 2026-09-02 06:40:14 | 52.14568 | 15.39012 | 101° | 37km/h | 9338m | -3.0m/s | -43.1°C | 16.0% | 301.8hPa | 2.6V | 00:00:00 | 00:00:00 | 00:00:00 | |
| KRY50SP-1 | 2026-09-02 06:40:10 | 52.14570 | 15.38969 | 86° | 35km/h | 9347m | -3.1m/s | -43.2°C | 15.9% | 301.3hPa | 2.6V | 00:00:00 | 00:00:00 | 00:00:00 | |
| 13BRC | 2026-09-02 06:40:06 | 52.14562 | 15.38905 | 80° | 46km/h | 9359m | -3.1m/s | -43.2°C | 16.4% | 300.8hPa | 2.6V | 00:00:00 | 00:00:00 | 00:00:00 | |
| KRY50SP-1 | 2026-09-02 06:40:05 | 52.14561 | 15.38886 | 83° | 49km/h | 9362m | -3.0m/s | -43.2°C | 16.6% | 300.6hPa | 2.6V | 00:00:00 | 00:00:00 | 00:00:00 | |
| SP6BVK | 2026-09-02 06:40:03 | 52.14559 | 15.38845 | 91° | 51km/h | 9368m | -3.0m/s | -43.3°C | 17.1% | 300.4hPa | 2.6V | 00:00:00 | 00:00:00 | 00:00:00 | |
| EDDB2-12 | 2026-09-02 06:40:01 | 52.14562 | 15.38786 | 100° | 44km/h | 9377m | -2.9m/s | -43.4°C | 16.8% | 300.0hPa | 2.6V | 00:00:00 | 00:00:00 | 00:00:00 | |
| SP3WXH-11 | 2026-09-02 06:39:54 | 52.14566 | 15.38685 | 77° | 35km/h | 9398m | -3.1m/s | -43.5°C | 15.8% | 299.1hPa | 2.6V | 00:00:00 | 00:00:00 | 00:00:00 | |
| EDDB2-11 | 2026-09-02 06:39:47 | 52.14557 | 15.38536 | 98° | 47km/h | 9422m | -3.0m/s | -43.8°C | 17.0% | 297.9hPa | 2.6V | 00:00:00 | 00:00:00 | 00:00:00 | |
| S3001 | 2026-09-02 06:39:46 | 52.14557 | 15.38536 | 98° | 47km/h | 9422m | -3.0m/s | -43.8°C | 17.0% | 297.9hPa | 2.6V | 00:00:00 | 00:00:00 | 00:00:00 | |
| SP3BTT-10 | 2026-09-02 06:39:45 | 52.14558 | 15.38518 | 101° | 42km/h | 9425m | -3.0m/s | -43.8°C | 19.5% | 297.8hPa | 2.6V | 00:00:00 | 00:00:00 | 00:00:00 | |
| SONDE2-11 | 2026-09-02 06:39:43 | 52.14562 | 15.38485 | 99° | 35km/h | 9431m | -2.8m/s | -43.9°C | 16.5% | 297.6hPa | 2.6V | 00:00:00 | 00:00:00 | 00:00:00 | |
| KRY50SP-1 | 2026-09-02 06:39:42 | 52.14562 | 15.38485 | 101° | 37km/h | 9431m | -2.8m/s | -43.9°C | 16.5% | 297.6hPa | 2.6V | 00:00:00 | 00:00:00 | 00:00:00 | |
| DL2RXE-15 | 2026-09-02 06:39:40 | 52.14564 | 15.38458 | 90° | 31km/h | 9437m | -3.0m/s | -43.9°C | 16.3% | 297.3hPa | 2.6V | 00:00:00 | 00:00:00 | 00:00:00 | |
| KRY50SP-1 | 2026-09-02 06:39:36 | 52.14557 | 15.38402 | 76° | 40km/h | 9448m | -3.0m/s | -44.0°C | 16.3% | 296.8hPa | 2.6V | 00:00:00 | 00:00:00 | 00:00:00 | |
| OE3JTB-15 | 2026-09-02 06:39:31 | 52.14551 | 15.38286 | 98° | 42km/h | 9466m | -2.9m/s | -44.0°C | 19.3% | 296.0hPa | 2.6V | 00:00:00 | 00:00:00 | 00:00:00 | |
| EDDB2-12 | 2026-09-02 06:39:30 | 52.14553 | 15.38268 | 100° | 44km/h | 9469m | -2.9m/s | -44.1°C | 16.4% | 295.9hPa | 2.6V | 00:00:00 | 00:00:00 | 00:00:00 | |
| 13BRC | 2026-09-02 06:39:26 | 52.14558 | 15.38221 | 99° | 33km/h | 9478m | -3.0m/s | -44.3°C | 16.4% | 295.5hPa | 2.6V | 00:00:00 | 00:00:00 | 00:00:00 | |
| DB0DAN | 2026-09-02 06:39:25 | 52.14559 | 15.38195 | 86° | 31km/h | 9484m | -3.1m/s | -44.3°C | 16.8% | 295.2hPa | 2.6V | 00:00:00 | 00:00:00 | 00:00:00 | |
| SP3WXH-11 | 2026-09-02 06:39:23 | 52.14556 | 15.38167 | 76° | 37km/h | 9490m | -2.9m/s | -44.4°C | 17.1% | 294.9hPa | 2.6V | 00:00:00 | 00:00:00 | 00:00:00 | |
| SP6BVK | 2026-09-02 06:39:22 | 52.14556 | 15.38167 | 78° | 38km/h | 9490m | -2.9m/s | -44.4°C | 17.1% | 294.9hPa | 2.6V | 00:00:00 | 00:00:00 | 00:00:00 | |
| DL2RXE-15 | 2026-09-02 06:39:20 | 52.14551 | 15.38134 | 81° | 46km/h | 9496m | -2.8m/s | -44.4°C | 17.7% | 294.7hPa | 2.6V | 00:00:00 | 00:00:00 | 00:00:00 | |
| KRY50SP-1 | 2026-09-02 06:39:19 | 52.14550 | 15.38114 | 84° | 47km/h | 9498m | -2.9m/s | -44.4°C | 18.0% | 294.6hPa | 2.6V | 00:00:00 | 00:00:00 | 00:00:00 | |
| EDDB2-11 | 2026-09-02 06:39:16 | 52.14554 | 15.38016 | 102° | 44km/h | 9513m | -3.0m/s | -44.4°C | 17.2% | 293.9hPa | 2.6V | 00:00:00 | 00:00:00 | 00:00:00 | |
| SP3BTT-10 | 2026-09-02 06:39:15 | 52.14553 | 15.38016 | 103° | 44km/h | 9513m | -2.9m/s | -44.3°C | 20.1% | 293.8hPa | 2.6V | 00:00:00 | 00:00:00 | 00:00:00 | |
| KRY50SP-1 | 2026-09-02 06:39:13 | 52.14556 | 15.37998 | 104° | 42km/h | 9516m | -3.3m/s | -44.5°C | 17.2% | 293.8hPa | 2.6V | 00:00:00 | 00:00:00 | 00:00:00 | |
| SONDE2-11 | 2026-09-02 06:39:12 | 52.14560 | 15.37968 | 99° | 33km/h | 9523m | -3.0m/s | -44.6°C | 17.1% | 293.5hPa | 2.6V | 00:00:00 | 00:00:00 | 00:00:00 | |
| DB0DAN | 2026-09-02 06:39:10 | 52.14561 | 15.37941 | 86° | 31km/h | 9528m | -2.8m/s | -44.7°C | 17.5% | 293.24hPa | 2.6V | 00:00:00 | 00:00:00 | 00:00:00 | |
| KRY50SP-1 | 2026-09-02 06:39:08 | 52.14560 | 15.37927 | 81° | 35km/h | 9531m | -2.9m/s | -44.7°C | 17.6% | 293.1hPa | 2.5V | 00:00:00 | 00:00:00 | 00:00:00 | |
| 13BRC | 2026-09-02 06:39:06 | 52.14556 | 15.37897 | 79° | 42km/h | 9537m | -3.1m/s | -44.7°C | 17.9% | 292.9hPa | 2.5V | 00:00:00 | 00:00:00 | 00:00:00 | |
| KRY50SP-1 | 2026-09-02 06:39:03 | 52.14550 | 15.37839 | 88° | 51km/h | 9546m | -3.0m/s | -44.7°C | 18.5% | 292.5hPa | 2.5V | 00:00:00 | 00:00:00 | 00:00:00 | |
| OE3JTB-15 | 2026-09-02 06:39:02 | 52.14551 | 15.37798 | 96° | 42km/h | 9552m | -2.9m/s | -44.7°C | 21.5% | 292.1hPa | 2.5V | 00:00:00 | 00:00:00 | 00:00:00 | |
| EDDB2-12 | 2026-09-02 06:38:59 | 52.14557 | 15.37743 | 103° | 40km/h | 9561m | -3.0m/s | -44.9°C | 18.1% | 291.8hPa | 2.5V | 00:00:00 | 00:00:00 | 00:00:00 | |
| KRY50SP-1 | 2026-09-02 06:38:57 | 52.14559 | 15.37727 | 103° | 37km/h | 9564m | -2.9m/s | -44.9°C | 18.1% | 291.6hPa | 2.5V | 00:00:00 | 00:00:00 | 00:00:00 | |
| DB0DAN | 2026-09-02 06:38:55 | 52.14561 | 15.37687 | 85° | 31km/h | 9573m | -3m/s | -45.1°C | 18.4% | 291.31hPa | 2.5V | 00:00:00 | 00:00:00 | 00:00:00 | |
| SP3WXH-11 | 2026-09-02 06:38:52 | 52.14556 | 15.37641 | 78° | 42km/h | 9582m | -3.0m/s | -45.0°C | 18.8% | 290.9hPa | 2.5V | 00:00:00 | 00:00:00 | 00:00:00 | |
| EDDB2-11 | 2026-09-02 06:38:45 | 52.14559 | 15.37483 | 103° | 42km/h | 9606m | -3.2m/s | -45.2°C | 19.3% | 289.8hPa | 2.5V | 00:00:00 | 00:00:00 | 00:00:00 | |
| SP3BTT-10 | 2026-09-02 06:38:44 | 52.14559 | 15.37483 | 104° | 38km/h | 9606m | -3.1m/s | -45.2°C | 22.4% | 289.8hPa | 2.5V | 00:00:00 | 00:00:00 | 00:00:00 | |
| KRY50SP-1 | 2026-09-02 06:38:43 | 52.14561 | 15.37467 | 105° | 40km/h | 9609m | -3.2m/s | -45.3°C | 19.2% | 289.7hPa | 2.6V | 00:00:00 | 00:00:00 | 00:00:00 | |
| SP6BVK | 2026-09-02 06:38:42 | 52.14561 | 15.37467 | 105° | 40km/h | 9609m | -3.2m/s | -45.3°C | 19.2% | 289.7hPa | 2.6V | 00:00:00 | 00:00:00 | 00:00:00 | |
| DB0DAN | 2026-09-02 06:38:40 | 52.14566 | 15.37423 | 91° | 31km/h | 9619m | -3.1m/s | -45.5°C | 19.1% | 289.28hPa | 2.6V | 00:00:00 | 00:00:00 | 00:00:00 | |
| DL2RXE-15 | 2026-09-02 06:38:39 | 52.14566 | 15.37423 | 92° | 33km/h | 9619m | -3.1m/s | -45.5°C | 19.1% | 289.3hPa | 2.5V | 00:00:00 | 00:00:00 | 00:00:00 | |
| KRY50SP-1 | 2026-09-02 06:38:36 | 52.14562 | 15.37379 | 80° | 42km/h | 9627m | -3.0m/s | -45.5°C | 19.2% | 288.9hPa | 2.5V | 00:00:00 | 00:00:00 | 00:00:00 | |
| OE3JTB-15 | 2026-09-02 06:38:33 | 52.14556 | 15.37302 | 88° | 47km/h | 9639m | -3.2m/s | -45.5°C | 23.5% | 288.3hPa | 2.5V | 00:00:00 | 02:35:23 | 00:00:00 | |
| KRY50SP-1 | 2026-09-02 06:38:30 | 52.14557 | 15.37260 | 96° | 51km/h | 9645m | -2.8m/s | -45.6°C | 20.8% | 288.1hPa | 2.5V | 00:00:00 | 00:00:00 | 00:00:00 | |
| EDDB2-12 | 2026-09-02 06:38:28 | 52.14563 | 15.37202 | 103° | 44km/h | 9654m | -2.9m/s | -45.7°C | 20.9% | 287.7hPa | 2.5V | 00:00:00 | 00:00:00 | 00:00:00 | |
| DB0DAN | 2026-09-02 06:38:25 | 52.14570 | 15.37154 | 103° | 35km/h | 9663m | -3m/s | -45.8°C | 20.6% | 287.39hPa | 2.5V | 00:00:00 | 00:00:00 | 00:00:00 | |
| 13BRC | 2026-09-02 06:38:25 | 52.14570 | 15.37154 | 104° | 35km/h | 9663m | -3.0m/s | -45.8°C | 20.6% | 287.4hPa | 2.6V | 00:00:00 | 00:00:00 | 00:00:00 | |
| SP6BVK | 2026-09-02 06:38:22 | 52.14573 | 15.37114 | 90° | 31km/h | 9672m | -3.1m/s | -46.0°C | 20.2% | 287.0hPa | 2.6V | 00:00:00 | 00:00:00 | 00:00:00 | |
| SP3WXH-11 | 2026-09-02 06:38:21 | 52.14573 | 15.37101 | 84° | 31km/h | 9675m | -3.0m/s | -46.0°C | 20.1% | 286.9hPa | 2.6V | 00:00:00 | 00:00:00 | 00:00:00 | |
| KRY50SP-1 | 2026-09-02 06:38:19 | 52.14572 | 15.37087 | 81° | 35km/h | 9678m | -3.1m/s | -46.0°C | 20.2% | 286.8hPa | 2.6V | 00:00:00 | 00:00:00 | 00:00:00 | |
| DL2RXE-15 | 2026-09-02 06:38:18 | 52.14570 | 15.37073 | 78° | 37km/h | 9681m | -3.0m/s | -46.0°C | 20.1% | 286.6hPa | 2.6V | 00:00:00 | 00:00:00 | 00:00:00 | |
| SP3BTT-10 | 2026-09-02 06:38:14 | 52.14560 | 15.36982 | 87° | 42km/h | 9695m | -2.9m/s | -46.0°C | 24.8% | 286.0hPa | 2.6V | 00:00:00 | 00:00:00 | 00:00:00 | |
| S3001 | 2026-09-02 06:38:13 | 52.14560 | 15.36960 | 91° | 51km/h | 9698m | -2.9m/s | -46.1°C | 21.8% | 285.9hPa | 2.6V | 00:00:00 | 00:00:00 | 00:00:00 | |
| DAC517 | 2026-09-02 06:38:11 | 52.14561 | 15.36939 | 96° | 51km/h | 9701m | -3.1m/s | -46.2°C | 22.0% | 285.8hPa | 2.6V | 00:00:00 | 00:00:00 | 00:00:00 | |
| DB0DAN | 2026-09-02 06:38:10 | 52.14565 | 15.36900 | 101° | 44km/h | 9707m | -3m/s | -46.2°C | 21.9% | 285.51hPa | 2.6V | 00:00:00 | 00:00:00 | 00:00:00 | |
| AA1-15 | 2026-09-02 06:38:09 | 52.14567 | 15.36883 | 103° | 42km/h | 9710m | -2.8m/s | -46.3°C | 27.6% | 285.4hPa | 2.5V | 18:12:15 | 02:34:59 | 00:00:00 | |
| KRY50SP-1 | 2026-09-02 06:38:07 | 52.14569 | 15.36867 | 102° | 37km/h | 9713m | -2.8m/s | -46.3°C | 21.6% | 285.3hPa | 2.5V | 00:00:00 | 00:00:00 | 00:00:00 | |
| 13BRC | 2026-09-02 06:38:04 | 52.14571 | 15.36826 | 86° | 31km/h | 9721m | -2.8m/s | -46.4°C | 21.1% | 284.9hPa | 2.5V | 00:00:00 | 00:00:00 | 00:00:00 | |
| KRY50SP-1 | 2026-09-02 06:38:01 | 52.14566 | 15.36785 | 77° | 38km/h | 9730m | -2.9m/s | -46.5°C | 21.0% | 284.5hPa | 2.5V | 00:00:00 | 00:00:00 | 00:00:00 | |
| EDDB2-12 | 2026-09-02 06:37:57 | 52.14557 | 15.36690 | 90° | 51km/h | 9744m | -2.9m/s | -46.5°C | 22.7% | 283.9hPa | 2.5V | 00:00:00 | 00:00:00 | 00:00:00 | |
| KRY50SP-1 | 2026-09-02 06:37:56 | 52.14557 | 15.36690 | 92° | 51km/h | 9744m | -2.9m/s | -46.5°C | 22.7% | 283.9hPa | 2.5V | 00:00:00 | 00:00:00 | 00:00:00 | |
| DB0DAN | 2026-09-02 06:37:55 | 52.14560 | 15.36649 | 99° | 47km/h | 9749m | -2.7m/s | -46.6°C | 22.8% | 283.66hPa | 2.5V | 00:00:00 | 00:00:00 | 00:00:00 | |
| SP3WXH-11 | 2026-09-02 06:37:50 | 52.14570 | 15.36568 | 92° | 31km/h | 9764m | -2.9m/s | -47.0°C | 22.2% | 283.1hPa | 2.5V | 00:00:00 | 00:00:00 | 00:00:00 | |
| KRY50SP-1 | 2026-09-02 06:37:45 | 52.14564 | 15.36510 | 78° | 42km/h | 9775m | -2.9m/s | -46.9°C | 21.8% | 282.6hPa | 2.5V | 00:00:00 | 00:00:00 | 00:00:00 | |
| SP3BTT-10 | 2026-09-02 06:37:44 | 52.14559 | 15.36474 | 81° | 47km/h | 9781m | -2.8m/s | -46.8°C | 25.9% | 282.2hPa | 2.5V | 00:00:00 | 00:00:00 | 00:00:00 | |
| EDDB2-11 | 2026-09-02 06:37:43 | 52.14556 | 15.36433 | 87° | 51km/h | 9786m | -2.5m/s | -46.9°C | 23.1% | 282.1hPa | 2.5V | 00:00:00 | 00:00:00 | 00:00:00 | |
| S3001 | 2026-09-02 06:37:42 | 52.14556 | 15.36433 | 87° | 51km/h | 9786m | -2.5m/s | -46.9°C | 23.1% | 282.1hPa | 2.5V | 00:00:00 | 00:00:00 | 00:00:00 | |
| DB0DAN | 2026-09-02 06:37:40 | 52.14556 | 15.36390 | 94° | 47km/h | 9791m | -3m/s | -47°C | 23.7% | 281.84hPa | 2.5V | 00:00:00 | 00:00:00 | 00:00:00 | |
| AA1-15 | 2026-09-02 06:37:34 | 52.14569 | 15.36279 | 103° | 40km/h | 9808m | -2.8m/s | -47.2°C | 30% | 281.1hPa | 2.5V | 18:12:15 | 02:34:24 | 00:00:00 | |
| KRY50SP-1 | 2026-09-02 06:37:30 | 52.14574 | 15.36221 | 90° | 33km/h | 9819m | -2.8m/s | -47.4°C | 23.6% | 280.7hPa | 2.6V | 00:00:00 | 00:00:00 | 00:00:00 | |
| DB0DAN | 2026-09-02 06:37:25 | 52.14567 | 15.36148 | 78° | 40km/h | 9832m | -2.8m/s | -47.5°C | 23.3% | 280.13hPa | 2.6V | 00:00:00 | 00:00:00 | 00:00:00 | |
| AA1-15 | 2026-09-02 06:37:24 | 52.14564 | 15.36130 | 78° | 44km/h | 9835m | -2.7m/s | -47.5°C | 30% | 280hPa | 2.6V | 18:12:15 | 02:34:14 | 00:00:00 | |
| KRY50SP-1 | 2026-09-02 06:37:23 | 52.14564 | 15.36130 | 79° | 44km/h | 9835m | -2.7m/s | -47.5°C | 23.6% | 280.0hPa | 2.5V | 00:00:00 | 00:00:00 | 00:00:00 | |
| 13BRC | 2026-09-02 06:37:22 | 52.14562 | 15.36112 | 81° | 47km/h | 9838m | -2.9m/s | -47.5°C | 23.7% | 279.9hPa | 2.5V | 00:00:00 | 00:00:00 | 00:00:00 | |
| SP3WXH-11 | 2026-09-02 06:37:19 | 52.14558 | 15.36029 | 90° | 51km/h | 9849m | -2.5m/s | -47.6°C | 25.1% | 279.4hPa | 2.5V | 00:00:00 | 00:00:00 | 00:00:00 | |
| SP6BVK | 2026-09-02 06:37:18 | 52.14558 | 15.36029 | 91° | 53km/h | 9849m | -2.5m/s | -47.6°C | 25.1% | 279.4hPa | 2.5V | 00:00:00 | 00:00:00 | 00:00:00 | |
| DL2RXE-15 | 2026-09-02 06:37:16 | 52.14560 | 15.35986 | 98° | 51km/h | 9854m | -3.0m/s | -47.6°C | 25.4% | 279.2hPa | 2.5V | 00:00:00 | 00:00:00 | 00:00:00 | |
| SP3BTT-10 | 2026-09-02 06:37:13 | 52.14568 | 15.35910 | 104° | 38km/h | 9866m | -2.9m/s | -47.7°C | 29.0% | 278.6hPa | 2.5V | 00:00:00 | 00:00:00 | 08:30:00 | |
| DB0DAN | 2026-09-02 06:37:10 | 52.14574 | 15.35864 | 98° | 33km/h | 9874m | -2.8m/s | -47.9°C | 24.9% | 278.38hPa | 2.6V | 00:00:00 | 00:00:00 | 00:00:00 | |
| SONDE2-11 | 2026-09-02 06:37:08 | 52.14575 | 15.35837 | 87° | 31km/h | 9880m | -3.1m/s | -48.0°C | 24.9% | 278.1hPa | 2.6V | 00:00:00 | 00:00:00 | 00:00:00 | |
| OE3JTB-15 | 2026-09-02 06:37:04 | 52.14569 | 15.35778 | 77° | 46km/h | 9892m | -2.9m/s | -48.0°C | 28.6% | 277.6hPa | 2.6V | 00:00:00 | 00:00:00 | 00:00:00 | |
| 13BRC | 2026-09-02 06:37:01 | 52.14564 | 15.35742 | 81° | 49km/h | 9898m | -2.7m/s | -48.0°C | 25.7% | 277.4hPa | 2.6V | 00:00:00 | 00:00:00 | 00:00:00 | |
| SP6BVK | 2026-09-02 06:36:58 | 52.14561 | 15.35679 | 91° | 51km/h | 9907m | -3.1m/s | -48.2°C | 27.6% | 277.0hPa | 2.6V | 00:00:00 | 00:00:00 | 00:00:00 | |
| DB0DAN | 2026-09-02 06:36:55 | 52.14566 | 15.35601 | 102° | 42km/h | 9919m | -2.7m/s | -48.3°C | 27.9% | 276.55hPa | 2.6V | 00:00:00 | 00:00:00 | 00:00:00 | |
| SP3WXH-11 | 2026-09-02 06:36:48 | 52.14576 | 15.35500 | 85° | 31km/h | 9939m | -2.8m/s | -48.5°C | 27.2% | 275.7hPa | 2.6V | 00:00:00 | 00:00:00 | 00:00:00 | |
| DL2RXE-15 | 2026-09-02 06:36:46 | 52.14575 | 15.35486 | 81° | 35km/h | 9942m | -2.7m/s | -48.5°C | 27.0% | 275.5hPa | 2.6V | 00:00:00 | 00:00:00 | 00:00:00 | |
| SP3BTT-10 | 2026-09-02 06:36:43 | 52.14566 | 15.35421 | 79° | 44km/h | 9954m | -2.9m/s | -48.5°C | 32.2% | 275.0hPa | 2.6V | 00:00:00 | 00:00:00 | 00:00:00 | |
| DB0DAN | 2026-09-02 06:36:40 | 52.14561 | 15.35361 | 87° | 49km/h | 9962m | -2.7m/s | -48.7°C | 29.4% | 274.67hPa | 2.6V | 00:00:00 | 00:00:00 | 00:00:00 | |
| AA1-15 | 2026-09-02 06:36:38 | 52.14561 | 15.35319 | 94° | 49km/h | 9968m | -2.6m/s | -48.8°C | 35.8% | 274.4hPa | 2.5V | 18:12:15 | 02:33:28 | 00:00:00 | |
| SONDE2-11 | 2026-09-02 06:36:37 | 52.14562 | 15.35299 | 96° | 47km/h | 9970m | -2.8m/s | -48.8°C | 30.3% | 274.4hPa | 2.6V | 00:00:00 | 00:00:00 | 00:00:00 | |
| OE3JTB-15 | 2026-09-02 06:36:35 | 52.14566 | 15.35262 | 102° | 40km/h | 9976m | -2.6m/s | -48.7°C | 34.0% | 274.0hPa | 2.6V | 00:00:00 | 00:00:00 | 00:00:00 | |
| DB0DAN | 2026-09-02 06:36:25 | 52.14569 | 15.35122 | 74° | 38km/h | 10006m | -2.9m/s | -49.1°C | 29.7% | 272.85hPa | 2.6V | 00:00:00 | 00:00:00 | 00:00:00 | |
| EDDB2-12 | 2026-09-02 06:36:24 | 52.14566 | 15.35105 | 75° | 44km/h | 10009m | -3.0m/s | -49.1°C | 30.3% | 272.7hPa | 2.6V | 00:00:00 | 00:00:00 | 00:00:00 | |
| 13BRC | 2026-09-02 06:36:20 | 52.14560 | 15.35026 | 90° | 51km/h | 10022m | -2.9m/s | -49.2°C | 32.5% | 272.2hPa | 2.6V | 00:00:00 | 00:00:00 | 00:00:00 | |
| SP3WXH-11 | 2026-09-02 06:36:17 | 52.14563 | 15.34966 | 100° | 44km/h | 10030m | -2.9m/s | -49.3°C | 32.6% | 271.9hPa | 2.6V | 00:00:00 | 00:00:00 | 00:00:00 | |
| SP6BVK | 2026-09-02 06:36:16 | 52.14563 | 15.34966 | 102° | 46km/h | 10030m | -2.9m/s | -49.3°C | 32.6% | 271.9hPa | 2.6V | 00:00:00 | 00:00:00 | 00:00:00 | |
| DB0DAN | 2026-09-02 06:36:10 | 52.14564 | 15.34862 | 75° | 38km/h | 10051m | -3m/s | -49.6°C | 33% | 270.99hPa | 2.6V | 00:00:00 | 00:00:00 | 00:00:00 | |
| AA1-15 | 2026-09-02 06:35:59 | 52.14565 | 15.34653 | 96° | 37km/h | 10085m | -2.8m/s | -50°C | 42% | 269.6hPa | 2.6V | 18:12:15 | 02:32:49 | 00:00:00 | |
| DB0DAN | 2026-09-02 06:35:55 | 52.14561 | 15.34591 | 76° | 42km/h | 10096m | -2.6m/s | -50°C | 34.5% | 269.15hPa | 2.6V | 00:00:00 | 00:00:00 | 00:00:00 | |
| AA1-15 | 2026-09-02 06:35:48 | 52.14552 | 15.34444 | 96° | 53km/h | 10117m | -3.1m/s | -50°C | 42.2% | 268.2hPa | 2.5V | 18:12:15 | 02:32:38 | 00:00:00 | |
| SP3WXH-11 | 2026-09-02 06:35:46 | 52.14556 | 15.34404 | 101° | 46km/h | 10123m | -2.8m/s | -50.1°C | 34.4% | 268.0hPa | 2.5V | 00:00:00 | 00:00:00 | 00:00:00 | |
| DAC517 | 2026-09-02 06:35:43 | 52.14560 | 15.34369 | 102° | 40km/h | 10128m | -2.8m/s | -50.4°C | 34.8% | 267.8hPa | 2.5V | 00:00:00 | 00:00:00 | 00:00:00 | |
| SP3BTT-10 | 2026-09-02 06:35:42 | 52.14563 | 15.34338 | 94° | 53km/h | 10134m | -2.7m/s | -50.4°C | 40.6% | 267.5hPa | 2.5V | 00:00:00 | 00:00:00 | 00:00:00 | |
| DB0DAN | 2026-09-02 06:35:40 | 52.14562 | 15.34307 | 84° | 38km/h | 10139m | -2.7m/s | -50.5°C | 35.2% | 267.35hPa | 2.6V | 00:00:00 | 00:00:00 | 00:00:00 | |
| AA1-15 | 2026-09-02 06:35:31 | 52.14550 | 15.34115 | 93° | 58km/h | 10166m | -3.2m/s | -50.4°C | 42.2% | 266.3hPa | 2.5V | 18:12:15 | 02:32:21 | 00:00:00 | |
| KRY50SP-1 | 2026-09-02 06:35:26 | 52.14559 | 15.34025 | 105° | 49km/h | 10178m | -3.0m/s | -50.5°C | 33.4% | 265.7hPa | 2.6V | 00:00:00 | 00:00:00 | 00:00:00 | |
| DB0DAN | 2026-09-02 06:35:25 | 52.14564 | 15.33988 | 99° | 40km/h | 10184m | -2.9m/s | -50.7°C | 32.9% | 265.51hPa | 2.6V | 00:00:00 | 00:00:00 | 00:00:00 | |
| AA1-15 | 2026-09-02 06:35:15 | 52.14560 | 15.33772 | 97° | 62km/h | 10214m | -3.1m/s | -50.7°C | 41.7% | 264.3hPa | 2.6V | 18:12:15 | 02:32:05 | 00:00:00 | |
| SP3WXH-11 | 2026-09-02 06:35:15 | 52.14560 | 15.33772 | 97° | 60km/h | 10214m | -3.1m/s | -50.7°C | 34.4% | 264.3hPa | 2.6V | 00:00:00 | 00:00:00 | 00:00:00 | |
| SP6BVK | 2026-09-02 06:35:14 | 52.14560 | 15.33771 | 98° | 62km/h | 10214m | -3.1m/s | -50.7°C | 34.4% | 264.3hPa | 2.6V | 00:00:00 | 00:00:00 | 00:00:00 | |
| DB0DAN | 2026-09-02 06:35:10 | 52.14575 | 15.33663 | 102° | 44km/h | 10228m | -2.9m/s | -51°C | 34.4% | 263.72hPa | 2.6V | 00:00:00 | 00:00:00 | 00:00:00 | |
| AA1-15 | 2026-09-02 06:35:04 | 52.14574 | 15.33544 | 85° | 58km/h | 10246m | -3m/s | -51°C | 43.3% | 263hPa | 2.6V | 18:12:15 | 02:31:54 | 00:00:00 | |
| SONDE2-11 | 2026-09-02 06:35:04 | 52.14573 | 15.33519 | 87° | 60km/h | 10249m | -3.0m/s | -51.1°C | 36.7% | 262.9hPa | 2.6V | 00:00:00 | 00:00:00 | 00:00:00 | |
| SP3BTT-10 | 2026-09-02 06:35:00 | 52.14575 | 15.33441 | 98° | 53km/h | 10258m | -3.2m/s | -51.0°C | 42.8% | 262.5hPa | 2.6V | 00:00:00 | 00:00:00 | 00:00:00 | |
| KRY50SP-1 | 2026-09-02 06:34:59 | 52.14575 | 15.33441 | 98° | 64km/h | 10258m | -3.2m/s | -51.1°C | 37.5% | 262.5hPa | 2.6V | 00:00:00 | 00:00:00 | 00:00:00 | |
| 13BRC | 2026-09-02 06:34:56 | 52.14584 | 15.33368 | 106° | 57km/h | 10267m | -3.1m/s | -51.2°C | 37.3% | 262.1hPa | 2.6V | 00:00:00 | 00:00:00 | 00:00:00 | |
| DB0DAN | 2026-09-02 06:34:55 | 52.14591 | 15.33326 | 103° | 46km/h | 10273m | -3m/s | -51.3°C | 37.3% | 261.87hPa | 2.6V | 00:00:00 | 00:00:00 | 00:00:00 | |
| AA1-15 | 2026-09-02 06:34:54 | 52.14593 | 15.33307 | 99° | 46km/h | 10276m | -2.8m/s | -51.5°C | 45.8% | 261.8hPa | 2.6V | 18:12:15 | 02:31:44 | 00:00:00 | |
| EDDB2-12 | 2026-09-02 06:34:51 | 52.14593 | 15.33250 | 84° | 49km/h | 10285m | -2.9m/s | -51.4°C | 37.9% | 261.4hPa | 2.5V | 00:00:00 | 00:00:00 | 00:00:00 | |
| SP3WXH-11 | 2026-09-02 06:34:44 | 52.14592 | 15.33079 | 99° | 62km/h | 10306m | -3.1m/s | -51.6°C | 41.3% | 260.6hPa | 2.5V | 00:00:00 | 00:00:00 | 00:00:00 | |
| AA1-15 | 2026-09-02 06:34:43 | 52.14595 | 15.33054 | 103° | 60km/h | 10309m | -2.9m/s | -51.6°C | 48.2% | 260.4hPa | 2.5V | 18:12:15 | 02:31:33 | 00:00:00 | |
| DB0DAN | 2026-09-02 06:34:40 | 52.14606 | 15.32988 | 105° | 47km/h | 10318m | -2.9m/s | -51.7°C | 40.2% | 260.04hPa | 2.6V | 00:00:00 | 00:00:00 | 00:00:00 | |
| AA1-15 | 2026-09-02 06:34:33 | 52.14610 | 15.32854 | 84° | 55km/h | 10339m | -3.1m/s | -51.8°C | 49.5% | 259.2hPa | 2.5V | 18:12:15 | 02:31:23 | 00:00:00 | |
| DL2RXE-15 | 2026-09-02 06:34:32 | 52.14609 | 15.32831 | 86° | 58km/h | 10342m | -2.9m/s | -51.9°C | 42.7% | 259.1hPa | 2.6V | 00:00:00 | 00:00:00 | 00:00:00 | |
| SP3BTT-10 | 2026-09-02 06:34:30 | 52.14608 | 15.32780 | 91° | 55km/h | 10348m | -2.9m/s | -51.9°C | 50.3% | 258.8hPa | 2.6V | 00:00:00 | 00:00:00 | 00:00:00 | |
| KRY50SP-1 | 2026-09-02 06:34:26 | 52.14613 | 15.32702 | 102° | 62km/h | 10357m | -2.9m/s | -52.1°C | 43.8% | 258.5hPa | 2.6V | 00:00:00 | 00:00:00 | 00:00:00 | |
| DB0DAN | 2026-09-02 06:34:25 | 52.14620 | 15.32655 | 105° | 51km/h | 10363m | -3.1m/s | -52.2°C | 42.6% | 258.25hPa | 2.6V | 00:00:00 | 00:00:00 | 00:00:00 | |
| AA1-15 | 2026-09-02 06:34:22 | 52.14629 | 15.32597 | 99° | 44km/h | 10372m | -3m/s | -52.3°C | 50.2% | 257.9hPa | 2.5V | 18:12:15 | 02:31:12 | 00:00:00 | |
| AA1-15 | 2026-09-02 06:34:11 | 52.14632 | 15.32349 | 103° | 62km/h | 10406m | -3.1m/s | -52.5°C | 49.5% | 256.6hPa | 2.5V | 18:12:15 | 02:31:01 | 00:00:00 | |
| DB0DAN | 2026-09-02 06:34:10 | 52.14636 | 15.32325 | 104° | 57km/h | 10409m | -3.2m/s | -52.5°C | 40.8% | 256.41hPa | 2.6V | 00:00:00 | 00:00:00 | 00:00:00 | |
| DB0DAN | 2026-09-02 06:34:10 | 52.14639 | 15.32302 | 105° | 53km/h | 10412m | -3.2m/s | -52.5°C | 40.6% | 256.29hPa | 2.6V | 00:00:00 | 00:00:00 | 00:00:00 | |
| AA1-15 | 2026-09-02 06:34:00 | 52.14645 | 15.32118 | 86° | 60km/h | 10440m | -3m/s | -52.9°C | 49.2% | 255.2hPa | 2.6V | 18:12:15 | 02:30:50 | 00:00:00 | |
| SP3BTT-10 | 2026-09-02 06:34:00 | 52.14645 | 15.32118 | 87° | 58km/h | 10440m | -3.0m/s | -52.8°C | 48.4% | 255.2hPa | 2.6V | 00:00:00 | 00:00:00 | 00:00:00 | |
| KRY50SP-1 | 2026-09-02 06:33:59 | 52.14645 | 15.32118 | 87° | 60km/h | 10440m | -3.0m/s | -52.9°C | 42.4% | 255.2hPa | 2.6V | 00:00:00 | 00:00:00 | 00:00:00 | |
| DB0DAN | 2026-09-02 06:33:55 | 52.14649 | 15.31988 | 101° | 60km/h | 10456m | -3.2m/s | -52.9°C | 42% | 254.57hPa | 2.6V | 00:00:00 | 00:00:00 | 00:00:00 | |
| AA1-15 | 2026-09-02 06:33:49 | 52.14669 | 15.31857 | 97° | 46km/h | 10474m | -3m/s | -53.2°C | 51.9% | 253.8hPa | 2.6V | 18:12:15 | 02:30:39 | 00:00:00 | |
| DL2RXE-15 | 2026-09-02 06:33:49 | 52.14669 | 15.31857 | 98° | 46km/h | 10474m | -3.0m/s | -53.2°C | 43.7% | 253.8hPa | 2.6V | 00:00:00 | 00:00:00 | 00:00:00 | |
| KRY50SP-1 | 2026-09-02 06:33:48 | 52.14669 | 15.31857 | 98° | 46km/h | 10474m | -3.0m/s | -53.2°C | 43.7% | 253.8hPa | 2.6V | 00:00:00 | 00:00:00 | 00:00:00 | |
| KRY50SP-1 | 2026-09-02 06:33:43 | 52.14666 | 15.31726 | 91° | 62km/h | 10492m | -3.0m/s | -53.3°C | 47.1% | 253.2hPa | 2.6V | 00:00:00 | 00:00:00 | 00:00:00 | |
| DB0DAN | 2026-09-02 06:33:40 | 52.14670 | 15.31646 | 99° | 62km/h | 10501m | -3.2m/s | -53.3°C | 47.3% | 252.84hPa | 2.6V | 00:00:00 | 00:00:00 | 00:00:00 | |
| AA1-15 | 2026-09-02 06:33:38 | 52.14676 | 15.31594 | 104° | 62km/h | 10507m | -3.2m/s | -53.4°C | 54.9% | 252.6hPa | 2.5V | 18:12:15 | 02:30:28 | 00:00:00 | |
| AA1-15 | 2026-09-02 06:33:28 | 52.14693 | 15.31384 | 86° | 58km/h | 10539m | -3.1m/s | -53.7°C | 56.5% | 251.3hPa | 2.5V | 18:12:15 | 02:30:18 | 00:00:00 | |
| DL2RXE-15 | 2026-09-02 06:33:28 | 52.14693 | 15.31384 | 87° | 58km/h | 10539m | -3.1m/s | -53.7°C | 48.9% | 251.3hPa | 2.6V | 00:00:00 | 00:00:00 | 00:00:00 | |
| DB0DAN | 2026-09-02 06:33:25 | 52.14694 | 15.31306 | 95° | 64km/h | 10548m | -3.1m/s | -53.7°C | 50.7% | 250.96hPa | 2.6V | 00:00:00 | 00:00:00 | 00:00:00 | |
| DAC517 | 2026-09-02 06:33:24 | 52.14693 | 15.31306 | 96° | 66km/h | 10548m | -3.1m/s | -53.7°C | 50.7% | 251.0hPa | 2.6V | 00:00:00 | 00:00:00 | 00:00:00 | |
| KRY50SP-1 | 2026-09-02 06:33:20 | 52.14710 | 15.31181 | 107° | 53km/h | 10563m | -3.0m/s | -53.9°C | 49.1% | 250.4hPa | 2.6V | 00:00:00 | 00:00:00 | 00:00:00 | |
| EDDB2-12 | 2026-09-02 06:33:18 | 52.14717 | 15.31141 | 102° | 46km/h | 10569m | -3.0m/s | -54.1°C | 49.0% | 250.1hPa | 2.6V | 00:00:00 | 00:00:00 | 00:00:00 | |
| 13BRC | 2026-09-02 06:33:14 | 52.14720 | 15.31085 | 89° | 46km/h | 10579m | -3.1m/s | -54.1°C | 49.0% | 249.8hPa | 2.6V | 00:00:00 | 00:00:00 | 00:00:00 | |
| KRY50SP-1 | 2026-09-02 06:33:13 | 52.14719 | 15.31066 | 87° | 49km/h | 10582m | -3.2m/s | -54.1°C | 49.4% | 249.7hPa | 2.6V | 00:00:00 | 00:00:00 | 00:00:00 | |
| DB0DAN | 2026-09-02 06:33:10 | 52.14716 | 15.30972 | 92° | 60km/h | 10594m | -3m/s | -54.2°C | 52.6% | 249.17hPa | 2.6V | 00:00:00 | 00:00:00 | 00:00:00 | |
| KRY50SP-1 | 2026-09-02 06:33:08 | 52.14717 | 15.30945 | 97° | 66km/h | 10597m | -2.9m/s | -54.3°C | 53.1% | 249.1hPa | 2.6V | 00:00:00 | 00:00:00 | 00:00:00 | |
| SONCRA | 2026-09-02 06:33:05 | 52.14731 | 15.30846 | 107° | 57km/h | 10609m | -3.2m/s | -54.3°C | 49.7% | 248.6hPa | 2.6V | 00:00:00 | 00:00:00 | 00:00:00 | |
| EDDB2-11 | 2026-09-02 06:33:03 | 52.14739 | 15.30804 | 105° | 47km/h | 10615m | -3.1m/s | -54.5°C | 49.1% | 248.3hPa | 2.6V | 00:00:00 | 00:00:00 | 00:00:00 | |
| S3001 | 2026-09-02 06:33:02 | 52.14742 | 15.30785 | 102° | 46km/h | 10618m | -3.1m/s | -54.5°C | 49.1% | 248.2hPa | 2.6V | 00:00:00 | 00:00:00 | 00:00:00 | |
| DAC517 | 2026-09-02 06:33:01 | 52.14742 | 15.30785 | 103° | 46km/h | 10619m | -3.1m/s | -54.5°C | 49.1% | 248.2hPa | 2.6V | 00:00:00 | 00:00:00 | 00:00:00 | |
| SONDE2-11 | 2026-09-02 06:33:00 | 52.14745 | 15.30729 | 87° | 47km/h | 10628m | -3.1m/s | -54.5°C | 50.1% | 247.9hPa | 2.6V | 00:00:00 | 00:00:00 | 00:00:00 | |
| KRY50SP-1 | 2026-09-02 06:32:56 | 52.14743 | 15.30686 | 87° | 57km/h | 10634m | -3.1m/s | -54.6°C | 51.6% | 247.6hPa | 2.6V | 00:00:00 | 00:00:00 | 00:00:00 | |
| DB0DAN | 2026-09-02 06:32:55 | 52.14742 | 15.30637 | 90° | 60km/h | 10640m | -3m/s | -54.6°C | 52.2% | 247.43hPa | 2.6V | 00:00:00 | 00:00:00 | 00:00:00 | |
| EDDB2-12 | 2026-09-02 06:32:47 | 52.14768 | 15.30426 | 100° | 44km/h | 10667m | -3.1m/s | -54.9°C | 51.2% | 246.4hPa | 2.6V | 00:00:00 | 00:00:00 | 00:00:00 | |
| KRY50SP-1 | 2026-09-02 06:32:45 | 52.14768 | 15.30426 | 101° | 46km/h | 10667m | -3.1m/s | -54.9°C | 51.2% | 246.4hPa | 2.6V | 00:00:00 | 00:00:00 | 00:00:00 | |
| DB0DAN | 2026-09-02 06:32:40 | 52.14767 | 15.30300 | 89° | 58km/h | 10685m | -3.1m/s | -55°C | 55% | 245.63hPa | 2.6V | 00:00:00 | 00:00:00 | 00:00:00 | |
| KRY50SP-1 | 2026-09-02 06:32:40 | 52.14767 | 15.30300 | 90° | 62km/h | 10685m | -3.1m/s | -55.0°C | 55.0% | 245.6hPa | 2.5V | 00:00:00 | 00:00:00 | 00:00:00 | |
| DAC517 | 2026-09-02 06:32:39 | 52.14767 | 15.30300 | 90° | 62km/h | 10685m | -3.1m/s | -55.0°C | 55.0% | 245.6hPa | 2.5V | 00:00:00 | 00:00:00 | 00:00:00 | |
| KRY50SP-1 | 2026-09-02 06:32:35 | 52.14778 | 15.30171 | 107° | 60km/h | 10700m | -2.9m/s | -55.1°C | 54.5% | 245.0hPa | 2.5V | 00:00:00 | 00:00:00 | 00:00:00 | |
| SONCRA | 2026-09-02 06:32:34 | 52.14786 | 15.30126 | 107° | 53km/h | 10705m | -3.0m/s | -55.3°C | 53.8% | 244.8hPa | 2.5V | 00:00:00 | 00:00:00 | 00:00:00 | |
| 13BRC | 2026-09-02 06:32:33 | 52.14786 | 15.30126 | 109° | 53km/h | 10706m | -3.0m/s | -55.3°C | 53.8% | 244.9hPa | 2.5V | 00:00:00 | 00:00:00 | 00:00:00 | |
| EDDB2-11 | 2026-09-02 06:32:32 | 52.14790 | 15.30106 | 106° | 47km/h | 10709m | -3.0m/s | -55.3°C | 53.9% | 244.7hPa | 2.5V | 00:00:00 | 00:00:00 | 00:00:00 | |
| S3001 | 2026-09-02 06:32:31 | 52.14793 | 15.30087 | 102° | 46km/h | 10712m | -3.1m/s | -55.4°C | 54.6% | 244.6hPa | 2.5V | 00:00:00 | 00:00:00 | 00:00:00 | |
| SP6BVK | 2026-09-02 06:32:30 | 52.14795 | 15.30068 | 98° | 46km/h | 10715m | -3.0m/s | -55.4°C | 54.7% | 244.5hPa | 2.5V | 00:00:00 | 00:00:00 | 00:00:00 | |
| KRY50SP-1 | 2026-09-02 06:32:28 | 52.14796 | 15.30049 | 93° | 47km/h | 10718m | -3.0m/s | -55.4°C | 55.1% | 244.4hPa | 2.5V | 00:00:00 | 00:00:00 | 00:00:00 | |
| DB0NH | 2026-09-02 06:32:27 | 52.14795 | 15.30009 | 87° | 58km/h | 10724m | -2.9m/s | -55.4°C | 63.4% | 244.1hPa | 2.5V | 00:00:00 | 02:29:17 | 00:00:00 | |
| DB0DAN | 2026-09-02 06:32:25 | 52.14794 | 15.29962 | 88° | 58km/h | 10730m | -3m/s | -55.4°C | 56.9% | 243.9hPa | 2.6V | 00:00:00 | 00:00:00 | 00:00:00 | |
| KRY50SP-1 | 2026-09-02 06:32:23 | 52.14793 | 15.29936 | 91° | 64km/h | 10733m | -3.0m/s | -55.4°C | 57.8% | 243.8hPa | 2.6V | 00:00:00 | 00:00:00 | 00:00:00 | |
| KRY50SP-1 | 2026-09-02 06:32:18 | 52.14806 | 15.29803 | 107° | 62km/h | 10748m | -3.1m/s | -55.5°C | 57.0% | 243.2hPa | 2.6V | 00:00:00 | 00:00:00 | 00:00:00 | |
| DAC517 | 2026-09-02 06:32:17 | 52.14810 | 15.29780 | 109° | 57km/h | 10752m | -3.1m/s | -55.6°C | 56.5% | 243.1hPa | 2.6V | 00:00:00 | 00:00:00 | 00:00:00 | |
| 13BRC | 2026-09-02 06:32:12 | 52.14823 | 15.29660 | 88° | 51km/h | 10770m | -3.1m/s | -55.9°C | 57.8% | 242.3hPa | 2.6V | 00:00:00 | 00:00:00 | 00:00:00 | |
| DB0DAN | 2026-09-02 06:32:10 | 52.14821 | 15.29614 | 87° | 57km/h | 10776m | -3.1m/s | -55.9°C | 58.8% | 242.13hPa | 2.6V | 00:00:00 | 00:00:00 | 00:00:00 | |
| SP6BVK | 2026-09-02 06:32:08 | 52.14820 | 15.29588 | 90° | 64km/h | 10779m | -3.1m/s | -55.9°C | 59.5% | 242.0hPa | 2.6V | 00:00:00 | 00:00:00 | 00:00:00 | |
| KRY50SP-1 | 2026-09-02 06:32:06 | 52.14822 | 15.29534 | 97° | 68km/h | 10785m | -3.2m/s | -56.0°C | 60.5% | 241.8hPa | 2.6V | 00:00:00 | 00:00:00 | 00:00:00 | |
| SONCRA | 2026-09-02 06:32:03 | 52.14840 | 15.29410 | 107° | 53km/h | 10801m | -3.1m/s | -56.1°C | 57.6% | 241.1hPa | 2.6V | 00:00:00 | 00:00:00 | 00:00:00 | |
| EDDB2-11 | 2026-09-02 06:32:01 | 52.14844 | 15.29389 | 104° | 49km/h | 10804m | -3.1m/s | -56.3°C | 58.3% | 241.1hPa | 2.6V | 00:00:00 | 00:00:00 | 00:00:00 | |
| SP3BTT-10 | 2026-09-02 06:32:00 | 52.14846 | 15.29369 | 101° | 62km/h | 10807m | -3.0m/s | -56.2°C | 66.1% | 240.9hPa | 2.6V | 00:00:00 | 00:00:00 | 00:00:00 | |
| DB0NH | 2026-09-02 06:31:57 | 52.14849 | 15.29308 | 89° | 62km/h | 10816m | -2.9m/s | -56.3°C | 66.1% | 240.6hPa | 2.6V | 00:00:00 | 02:28:47 | 00:00:00 | |
| DAC517 | 2026-09-02 06:31:56 | 52.14849 | 15.29308 | 90° | 53km/h | 10816m | -2.9m/s | -56.4°C | 58.2% | 240.6hPa | 2.6V | 00:00:00 | 00:00:00 | 00:00:00 | |
| DB0DAN | 2026-09-02 06:31:55 | 52.14848 | 15.29261 | 87° | 58km/h | 10822m | -3.2m/s | -56.3°C | 57.6% | 240.4hPa | 2.6V | 00:00:00 | 00:00:00 | 00:00:00 | |
| EDDB2-12 | 2026-09-02 06:31:45 | 52.14872 | 15.28974 | 103° | 51km/h | 10857m | -3.0m/s | -56.7°C | 52.7% | 239.1hPa | 2.6V | 00:00:00 | 00:00:00 | 00:00:00 | |
| KRY50SP-1 | 2026-09-02 06:31:44 | 52.14869 | 15.28995 | 107° | 55km/h | 10854m | -3.0m/s | -56.4°C | 52.2% | 239.2hPa | 2.6V | 00:00:00 | 00:00:00 | 00:00:00 | |
| DB0DAN | 2026-09-02 06:31:40 | 52.14876 | 15.28889 | 87° | 53km/h | 10869m | -3.2m/s | -56.6°C | 51.9% | 238.6hPa | 2.6V | 00:00:00 | 00:00:00 | 00:00:00 | |
| SP3WXH-11 | 2026-09-02 06:31:38 | 52.14874 | 15.28813 | 89° | 66km/h | 10879m | -3.3m/s | -56.6°C | 52.7% | 238.2hPa | 2.6V | 00:00:00 | 00:00:00 | 00:00:00 | |
| DL2RXE-15 | 2026-09-02 06:31:36 | 52.14874 | 15.28813 | 90° | 68km/h | 10879m | -3.3m/s | -56.6°C | 52.7% | 238.2hPa | 2.6V | 00:00:00 | 00:00:00 | 00:00:00 | |
| KRY50SP-1 | 2026-09-02 06:31:33 | 52.14877 | 15.28727 | 98° | 71km/h | 10889m | -3.3m/s | -56.7°C | 53.2% | 237.9hPa | 2.6V | 00:00:00 | 00:00:00 | 00:00:00 | |
| SONCRA | 2026-09-02 06:31:32 | 52.14887 | 15.28643 | 105° | 64km/h | 10898m | -3.2m/s | -56.8°C | 51.7% | 237.5hPa | 2.6V | 00:00:00 | 00:00:00 | 00:00:00 | |
| SP3BTT-10 | 2026-09-02 06:31:30 | 52.14892 | 15.28618 | 107° | 62km/h | 10901m | -2.9m/s | -56.8°C | 58.2% | 237.3hPa | 2.6V | 00:00:00 | 00:00:00 | 00:00:00 | |
| S3001 | 2026-09-02 06:31:29 | 52.14896 | 15.28595 | 106° | 55km/h | 10904m | -3.1m/s | -56.9°C | 50.8% | 237.2hPa | 2.6V | 00:00:00 | 00:00:00 | 00:00:00 | |
| KRY50SP-1 | 2026-09-02 06:31:28 | 52.14896 | 15.28595 | 107° | 57km/h | 10905m | -3.1m/s | -56.9°C | 50.8% | 237.2hPa | 2.6V | 00:00:00 | 00:00:00 | 00:00:00 | |
| DB0NH | 2026-09-02 06:31:27 | 52.14902 | 15.28553 | 100° | 64km/h | 10911m | -3.2m/s | -57.0°C | 59.0% | 237.0hPa | 2.6V | 00:00:00 | 02:28:17 | 00:00:00 | |
| DB0DAN | 2026-09-02 06:31:25 | 52.14904 | 15.28510 | 91° | 51km/h | 10917m | -3.2m/s | -57.1°C | 51.9% | 236.82hPa | 2.6V | 00:00:00 | 00:00:00 | 00:00:00 | |
| AA1-15 | 2026-09-02 06:31:20 | 52.14903 | 15.28381 | 92° | 71km/h | 10933m | -3.3m/s | -57.1°C | 59.4% | 236.2hPa | 2.6V | 18:12:15 | 02:28:10 | 00:00:00 | |
| KRY50SP-1 | 2026-09-02 06:31:16 | 52.14909 | 15.28292 | 102° | 73km/h | 10943m | -3.3m/s | -57.2°C | 51.2% | 235.9hPa | 2.6V | 00:00:00 | 00:00:00 | 00:00:00 | |
| DAC517 | 2026-09-02 06:31:15 | 52.14913 | 15.28264 | 105° | 69km/h | 10946m | -3.1m/s | -57.2°C | 50.1% | 235.7hPa | 2.6V | 00:00:00 | 00:00:00 | 00:00:00 | |
| EDDB2-12 | 2026-09-02 06:31:14 | 52.14927 | 15.28187 | 107° | 58km/h | 10956m | -3.4m/s | -57.3°C | 48.0% | 235.3hPa | 2.6V | 00:00:00 | 00:00:00 | 00:00:00 | |
| DB0DAN | 2026-09-02 06:31:10 | 52.14937 | 15.28123 | 98° | 49km/h | 10965m | -3.2m/s | -57.4°C | 50% | 234.97hPa | 2.6V | 00:00:00 | 00:00:00 | 00:00:00 | |
| AA1-15 | 2026-09-02 06:31:09 | 52.14938 | 15.28101 | 93° | 53km/h | 10969m | -3.2m/s | -57.4°C | 58.2% | 234.9hPa | 2.6V | 18:12:15 | 02:27:59 | 00:00:00 | |
| SP3WXH-11 | 2026-09-02 06:31:07 | 52.14938 | 15.28028 | 89° | 66km/h | 10978m | -3.0m/s | -57.5°C | 52.1% | 234.6hPa | 2.5V | 00:00:00 | 00:00:00 | 00:00:00 | |
| DL2RXE-15 | 2026-09-02 06:31:05 | 52.14938 | 15.28027 | 91° | 66km/h | 10978m | -3.0m/s | -57.5°C | 52.2% | 234.5hPa | 2.5V | 00:00:00 | 00:00:00 | 00:00:00 | |
| KRY50SP-1 | 2026-09-02 06:31:04 | 52.14938 | 15.28000 | 93° | 69km/h | 10981m | -3.0m/s | -57.6°C | 53.0% | 234.4hPa | 2.5V | 00:00:00 | 00:00:00 | 00:00:00 | |
| SONCRA | 2026-09-02 06:31:01 | 52.14953 | 15.27853 | 106° | 69km/h | 10997m | -3.3m/s | -57.6°C | 50.2% | 233.8hPa | 2.5V | 00:00:00 | 00:00:00 | 00:00:00 | |
| EDDB2-11 | 2026-09-02 06:30:59 | 52.14958 | 15.27826 | 107° | 66km/h | 11000m | -3.2m/s | -57.6°C | 49.5% | 233.7hPa | 2.5V | 00:00:00 | 00:00:00 | 00:00:00 | |
| S3001 | 2026-09-02 06:30:58 | 52.14963 | 15.27800 | 108° | 62km/h | 11004m | -3.4m/s | -57.6°C | 48.8% | 233.6hPa | 2.5V | 00:00:00 | 00:00:00 | 00:00:00 | |
| DB0NH | 2026-09-02 06:30:57 | 52.14968 | 15.27776 | 108° | 64km/h | 11007m | -3.2m/s | -57.6°C | 56.3% | 233.4hPa | 2.5V | 00:00:00 | 02:27:47 | 08:30:00 | |
| DB0DAN | 2026-09-02 06:30:55 | 52.14975 | 15.27732 | 101° | 51km/h | 11014m | -3.2m/s | -57.8°C | 49.3% | 233.24hPa | 2.6V | 00:00:00 | 00:00:00 | 00:00:00 | |
| AA1-15 | 2026-09-02 06:30:40 | 52.15015 | 15.27339 | 106° | 55km/h | 11063m | -3.4m/s | -58.3°C | 56.5% | 231.4hPa | 2.6V | 18:12:15 | 02:27:30 | 00:00:00 | |
| DB0DAN | 2026-09-02 06:30:40 | 52.15015 | 15.27339 | 105° | 53km/h | 11063m | -3.4m/s | -58.3°C | 47.4% | 231.37hPa | 2.6V | 00:00:00 | 00:00:00 | 00:00:00 | |
| KRY50SP-1 | 2026-09-02 06:30:37 | 52.15022 | 15.27273 | 94° | 55km/h | 11073m | -3.2m/s | -58.2°C | 46.8% | 231.1hPa | 2.6V | 00:00:00 | 00:00:00 | 00:00:00 | |
| SP3WXH-11 | 2026-09-02 06:30:36 | 52.15022 | 15.27225 | 89° | 62km/h | 11079m | -3.3m/s | -58.2°C | 47.9% | 230.8hPa | 2.6V | 00:00:00 | 00:00:00 | 00:00:00 | |
| DAC517 | 2026-09-02 06:30:33 | 52.15022 | 15.27198 | 91° | 66km/h | 11083m | -3.5m/s | -58.3°C | 48.9% | 230.7hPa | 2.6V | 00:00:00 | 00:00:00 | 00:00:00 | |
| KRY50SP-1 | 2026-09-02 06:30:31 | 52.15023 | 15.27142 | 95° | 71km/h | 11090m | -3.5m/s | -58.4°C | 51.1% | 230.4hPa | 2.6V | 00:00:00 | 00:00:00 | 00:00:00 | |
| SP3BTT-10 | 2026-09-02 06:30:30 | 52.15028 | 15.27083 | 102° | 57km/h | 11096m | -3.1m/s | -58.5°C | 60.3% | 230.1hPa | 2.6V | 00:00:00 | 00:00:00 | 00:00:00 | |
| 13BRC | 2026-09-02 06:30:29 | 52.15028 | 15.27083 | 102° | 71km/h | 11096m | -3.2m/s | -58.6°C | 52.1% | 230.1hPa | 2.6V | 00:00:00 | 00:00:00 | 00:00:00 | |
| EDDB2-11 | 2026-09-02 06:30:28 | 52.15037 | 15.27028 | 106° | 66km/h | 11102m | -3.1m/s | -58.5°C | 50.3% | 230.0hPa | 2.6V | 00:00:00 | 00:00:00 | 00:00:00 | |
| KRY50SP-1 | 2026-09-02 06:30:27 | 52.15042 | 15.27002 | 110° | 64km/h | 11106m | -3.1m/s | -58.5°C | 49.4% | 229.8hPa | 2.6V | 00:00:00 | 00:00:00 | 00:00:00 | |
| SP6BVK | 2026-09-02 06:30:26 | 52.15042 | 15.27002 | 110° | 64km/h | 11106m | -3.1m/s | -58.5°C | 49.4% | 229.8hPa | 2.6V | 00:00:00 | 00:00:00 | 00:00:00 | |
| DB0DAN | 2026-09-02 06:30:25 | 52.15052 | 15.26954 | 109° | 55km/h | 11112m | -3.3m/s | -58.6°C | 48.3% | 229.54hPa | 2.6V | 00:00:00 | 00:00:00 | 00:00:00 | |
| SONDE2-11 | 2026-09-02 06:30:24 | 52.15057 | 15.26932 | 108° | 55km/h | 11115m | -3.4m/s | -58.6°C | 47.7% | 229.4hPa | 2.5V | 00:00:00 | 00:00:00 | 00:00:00 | |
| KRY50SP-1 | 2026-09-02 06:30:22 | 52.15064 | 15.26890 | 104° | 51km/h | 11122m | -3.4m/s | -58.6°C | 47.1% | 229.2hPa | 2.5V | 00:00:00 | 00:00:00 | 00:00:00 | |
| KRY50SP-1 | 2026-09-02 06:30:15 | 52.15069 | 15.26758 | 91° | 62km/h | 11143m | -3.2m/s | -58.7°C | 48.7% | 228.5hPa | 2.5V | 00:00:00 | 00:00:00 | 00:00:00 | |
| DL2RXE-15 | 2026-09-02 06:30:13 | 52.15070 | 15.26704 | 96° | 68km/h | 11149m | -3.2m/s | -59.0°C | 51.0% | 228.2hPa | 2.5V | 00:00:00 | 00:00:00 | 00:00:00 | |
| DB0DAN | 2026-09-02 06:30:10 | 52.15085 | 15.26596 | 108° | 62km/h | 11162m | -3.1m/s | -58.9°C | 49.6% | 227.79hPa | 2.5V | 00:00:00 | 00:00:00 | 00:00:00 | |
| AA1-15 | 2026-09-02 06:30:06 | 52.15105 | 15.26505 | 110° | 51km/h | 11175m | -3.4m/s | -58.8°C | 55.7% | 227.3hPa | 2.5V | 18:12:15 | 02:26:56 | 00:00:00 | |
| SP6BVK | 2026-09-02 06:30:05 | 52.15105 | 15.26505 | 111° | 51km/h | 11175m | -3.4m/s | -58.8°C | 46.5% | 227.3hPa | 2.6V | 00:00:00 | 00:00:00 | 00:00:00 | |
| KRY50SP-1 | 2026-09-02 06:30:04 | 52.15109 | 15.26486 | 108° | 49km/h | 11179m | -3.5m/s | -59.0°C | 46.6% | 227.2hPa | 2.6V | 00:00:00 | 00:00:00 | 00:00:00 | |
| SONCRA | 2026-09-02 06:29:58 | 52.15114 | 15.26340 | 88° | 60km/h | 11203m | -3.5m/s | -58.9°C | 47.3% | 226.2hPa | 2.6V | 00:00:00 | 00:00:00 | 00:00:00 | |
| EDDB2-11 | 2026-09-02 06:29:57 | 52.15114 | 15.26315 | 90° | 64km/h | 11206m | -3.5m/s | -59.0°C | 48.8% | 226.2hPa | 2.6V | 00:00:00 | 00:00:00 | 00:00:00 | |
| SONDE2-11 | 2026-09-02 06:29:53 | 52.15123 | 15.26207 | 104° | 64km/h | 11219m | -3.1m/s | -59.2°C | 50.7% | 225.7hPa | 2.6V | 00:00:00 | 00:00:00 | 00:00:00 | |
| KRY50SP-1 | 2026-09-02 06:29:52 | 52.15123 | 15.26207 | 106° | 64km/h | 11220m | -3.1m/s | -59.2°C | 50.7% | 225.7hPa | 2.6V | 00:00:00 | 00:00:00 | 00:00:00 | |
| 13BRC | 2026-09-02 06:29:47 | 52.15146 | 15.26099 | 109° | 46km/h | 11236m | -3.4m/s | -59.3°C | 46.4% | 225.1hPa | 2.6V | 00:00:00 | 00:00:00 | 00:00:00 | |
| SP6BVK | 2026-09-02 06:29:46 | 52.15151 | 15.26064 | 100° | 42km/h | 11243m | -3.4m/s | -59.3°C | 45.5% | 224.8hPa | 2.6V | 00:00:00 | 00:00:00 | 00:00:00 | |
| DAC517 | 2026-09-02 06:29:44 | 52.15153 | 15.26046 | 95° | 44km/h | 11247m | -3.4m/s | -59.3°C | 44.9% | 224.7hPa | 2.6V | 00:00:00 | 00:00:00 | 00:00:00 | |
| KRY50SP-1 | 2026-09-02 06:29:42 | 52.15151 | 15.25988 | 86° | 53km/h | 11257m | -3.2m/s | -59.3°C | 45.4% | 224.3hPa | 2.6V | 00:00:00 | 00:00:00 | 00:00:00 | |
| DB0DAN | 2026-09-02 06:29:40 | 52.15150 | 15.25943 | 88° | 57km/h | 11263m | -3.4m/s | -59.4°C | 47.5% | 224.11hPa | 2.6V | 00:00:00 | 00:00:00 | 00:00:00 | |
| KRY50SP-1 | 2026-09-02 06:29:35 | 52.15154 | 15.25844 | 102° | 58km/h | 11276m | -3.2m/s | -59.8°C | 50.0% | 223.7hPa | 2.5V | 00:00:00 | 00:00:00 | 00:00:00 | |
| SP3WXH-11 | 2026-09-02 06:29:34 | 52.15164 | 15.25780 | 104° | 47km/h | 11285m | -2.9m/s | -59.8°C | 49.6% | 223.3hPa | 2.5V | 00:00:00 | 00:00:00 | 00:00:00 | |
| SP3BTT-10 | 2026-09-02 06:29:30 | 52.15171 | 15.25725 | 100° | 51km/h | 11294m | -2.8m/s | -59.5°C | 54.5% | 223.0hPa | 2.5V | 00:00:00 | 00:00:00 | 00:00:00 | |
| DB0NH | 2026-09-02 06:29:27 | 52.15173 | 15.25676 | 88° | 51km/h | 11304m | -3.3m/s | -59.5°C | 51.9% | 222.6hPa | 2.6V | 00:00:00 | 02:26:17 | 00:00:00 | |
| 13BRC | 2026-09-02 06:29:26 | 52.15173 | 15.25676 | 89° | 40km/h | 11304m | -3.4m/s | -59.6°C | 44.2% | 222.7hPa | 2.5V | 00:00:00 | 00:00:00 | 00:00:00 | |
| DB0DAN | 2026-09-02 06:29:25 | 52.15171 | 15.25643 | 80° | 40km/h | 11310m | -3.3m/s | -59.5°C | 43% | 222.44hPa | 2.5V | 00:00:00 | 00:00:00 | 00:00:00 | |
| KRY50SP-1 | 2026-09-02 06:29:24 | 52.15171 | 15.25643 | 81° | 42km/h | 11310m | -3.3m/s | -59.5°C | 43.0% | 222.4hPa | 2.6V | 00:00:00 | 00:00:00 | 00:00:00 | |
| DAC517 | 2026-09-02 06:29:23 | 52.15169 | 15.25625 | 79° | 46km/h | 11314m | -3.5m/s | -59.4°C | 43.1% | 222.3hPa | 2.6V | 00:00:00 | 00:00:00 | 00:00:00 | |
| SONDE2-11 | 2026-09-02 06:29:22 | 52.15164 | 15.25585 | 78° | 53km/h | 11320m | -3.4m/s | -59.3°C | 44.2% | 222.0hPa | 2.6V | 00:00:00 | 00:00:00 | 00:00:00 | |
| DL2RXE-15 | 2026-09-02 06:29:21 | 52.15164 | 15.25585 | 80° | 55km/h | 11320m | -3.4m/s | -59.3°C | 44.2% | 222.0hPa | 2.6V | 00:00:00 | 00:00:00 | 00:00:00 | |
| KRY50SP-1 | 2026-09-02 06:29:20 | 52.15159 | 15.25538 | 86° | 60km/h | 11327m | -3.1m/s | -59.2°C | 46.0% | 221.8hPa | 2.6V | 00:00:00 | 00:00:00 | 00:00:00 | |
| KRY50SP-1 | 2026-09-02 06:29:14 | 52.15164 | 15.25419 | 103° | 51km/h | 11343m | -3.3m/s | -59.5°C | 45.6% | 221.3hPa | 2.6V | 00:00:00 | 00:00:00 | 00:00:00 | |
| DB0DAN | 2026-09-02 06:29:10 | 52.15168 | 15.25333 | 79° | 38km/h | 11359m | -3.2m/s | -59.4°C | 42.7% | 220.66hPa | 2.6V | 00:00:00 | 00:00:00 | 00:00:00 | |
| KRY50SP-1 | 2026-09-02 06:29:09 | 52.15168 | 15.25333 | 80° | 40km/h | 11359m | -3.2m/s | -59.4°C | 42.8% | 220.7hPa | 2.6V | 00:00:00 | 00:00:00 | 00:00:00 | |
| 13BRC | 2026-09-02 06:29:07 | 52.15159 | 15.25277 | 76° | 53km/h | 11369m | -3.2m/s | -59.3°C | 42.5% | 220.3hPa | 2.6V | 00:00:00 | 00:00:00 | 00:00:00 | |
| SP6BVK | 2026-09-02 06:29:05 | 52.15153 | 15.25230 | 82° | 60km/h | 11376m | -3.3m/s | -59.3°C | 43.9% | 220.1hPa | 2.6V | 00:00:00 | 00:00:00 | 00:00:00 | |
| KRY50SP-1 | 2026-09-02 06:29:04 | 52.15153 | 15.25230 | 82° | 60km/h | 11376m | -3.3m/s | -59.3°C | 43.9% | 220.1hPa | 2.6V | 00:00:00 | 00:00:00 | 00:00:00 | |
| SP3WXH-11 | 2026-09-02 06:29:03 | 52.15151 | 15.25154 | 93° | 60km/h | 11385m | -3.3m/s | -59.4°C | 44.4% | 219.7hPa | 2.6V | 00:00:00 | 00:00:00 | 00:00:00 | |
| DL2RXE-15 | 2026-09-02 06:29:02 | 52.15151 | 15.25154 | 95° | 62km/h | 11385m | -3.3m/s | -59.4°C | 44.4% | 219.7hPa | 2.6V | 00:00:00 | 00:00:00 | 00:00:00 | |
| DAC517 | 2026-09-02 06:29:01 | 52.15151 | 15.25154 | 95° | 62km/h | 11385m | -3.3m/s | -59.4°C | 44.4% | 219.7hPa | 2.6V | 00:00:00 | 00:00:00 | 00:00:00 | |
| SONCRA | 2026-09-02 06:28:56 | 52.15161 | 15.25032 | 87° | 40km/h | 11405m | -3.1m/s | -59.9°C | 43.7% | 219.1hPa | 2.6V | 00:00:00 | 00:00:00 | 00:00:00 | |
| DB0DAN | 2026-09-02 06:28:55 | 52.15160 | 15.25016 | 80° | 40km/h | 11408m | -3m/s | -59.8°C | 42.8% | 218.97hPa | 2.6V | 00:00:00 | 00:00:00 | 00:00:00 | |
| AA1-15 | 2026-09-02 06:28:50 | 52.15144 | 15.24910 | 79° | 62km/h | 11424m | -3.4m/s | -59.8°C | 49.8% | 218.4hPa | 2.6V | 18:12:15 | 02:25:40 | 00:00:00 | |
| KRY50SP-1 | 2026-09-02 06:28:48 | 52.15141 | 15.24884 | 84° | 66km/h | 11427m | -3.4m/s | -59.8°C | 42.2% | 218.3hPa | 2.5V | 00:00:00 | 00:00:00 | 00:00:00 | |
| 13BRC | 2026-09-02 06:28:45 | 52.15139 | 15.24803 | 95° | 66km/h | 11437m | -3.3m/s | -59.8°C | 42.1% | 217.9hPa | 2.5V | 00:00:00 | 00:00:00 | 00:00:00 | |
| SP6BVK | 2026-09-02 06:28:44 | 52.15141 | 15.24777 | 98° | 62km/h | 11440m | -3.2m/s | -59.8°C | 41.4% | 217.8hPa | 2.5V | 00:00:00 | 00:00:00 | 00:00:00 | |
| KRY50SP-1 | 2026-09-02 06:28:42 | 52.15145 | 15.24730 | 100° | 53km/h | 11446m | -2.9m/s | -60.0°C | 41.5% | 217.6hPa | 2.5V | 00:00:00 | 00:00:00 | 00:00:00 | |
| DB0DAN | 2026-09-02 06:28:40 | 52.15146 | 15.24671 | 82° | 46km/h | 11454m | -2.8m/s | -60.4°C | 42.3% | 217.3hPa | 2.5V | 00:00:00 | 00:00:00 | 00:00:00 | |
| AA1-15 | 2026-09-02 06:28:31 | 52.15133 | 15.24440 | 98° | 64km/h | 11477m | -2.5m/s | -60.2°C | 45.5% | 216.5hPa | 2.6V | 18:12:15 | 02:25:21 | 00:00:00 | |
| SP3BTT-10 | 2026-09-02 06:28:30 | 52.15135 | 15.24414 | 101° | 57km/h | 11480m | -2.7m/s | -60.1°C | 46.0% | 216.3hPa | 2.5V | 00:00:00 | 00:00:00 | 00:00:00 | |
| DB0NH | 2026-09-02 06:28:27 | 52.15140 | 15.24349 | 91° | 58km/h | 11488m | -2.4m/s | -60.4°C | 46.9% | 216.1hPa | 2.5V | 00:00:00 | 02:25:17 | 00:00:00 | |
| KRY50SP-1 | 2026-09-02 06:28:26 | 52.15140 | 15.24349 | 92° | 49km/h | 11488m | -2.4m/s | -60.4°C | 39.1% | 216.2hPa | 2.5V | 00:00:00 | 00:00:00 | 00:00:00 | |
| DB0DAN | 2026-09-02 06:28:25 | 52.15138 | 15.24308 | 80° | 53km/h | 11492m | -2.4m/s | -60.3°C | 37.8% | 215.96hPa | 2.5V | 00:00:00 | 00:00:00 | 00:00:00 | |
| AA1-15 | 2026-09-02 06:28:20 | 52.15125 | 15.24174 | 85° | 73km/h | 11505m | -2.6m/s | -60°C | 41.2% | 215.6hPa | 2.5V | 18:12:15 | 02:25:10 | 00:00:00 | |
| DAC517 | 2026-09-02 06:28:19 | 52.15125 | 15.24174 | 86° | 73km/h | 11505m | -2.6m/s | -60.0°C | 36.3% | 215.5hPa | 2.6V | 00:00:00 | 00:00:00 | 00:00:00 | |
| KRY50SP-1 | 2026-09-02 06:28:15 | 52.15125 | 15.24057 | 97° | 68km/h | 11515m | -2.4m/s | -60.0°C | 35.0% | 215.2hPa | 2.6V | 00:00:00 | 00:00:00 | 00:00:00 | |
| DL2RXE-15 | 2026-09-02 06:28:11 | 52.15134 | 15.23957 | 99° | 57km/h | 11524m | -3.0m/s | -60.1°C | 33.7% | 214.9hPa | 2.6V | 00:00:00 | 00:00:00 | 00:00:00 | |
| DB0DAN | 2026-09-02 06:28:10 | 52.15138 | 15.23911 | 96° | 51km/h | 11530m | -2.9m/s | -60.1°C | 33.3% | 214.68hPa | 2.6V | 00:00:00 | 00:00:00 | 00:00:00 | |
| AA1-15 | 2026-09-02 06:28:10 | 52.15138 | 15.23911 | 96° | 55km/h | 11530m | -2.9m/s | -60.1°C | 36.7% | 214.7hPa | 2.6V | 18:12:15 | 02:25:00 | 00:00:00 | |
| AA1-15 | 2026-09-02 06:27:59 | 52.15133 | 15.23675 | 81° | 53km/h | 11564m | -3m/s | -58.7°C | 30.5% | 213.5hPa | 2.5V | 18:12:15 | 02:24:49 | 00:00:00 | |
| AA1-15 | 2026-09-02 06:27:49 | 52.15101 | 15.23436 | 78° | 68km/h | 11594m | -3.1m/s | -58.1°C | 26.5% | 212.5hPa | 2.6V | 18:12:15 | 02:24:39 | 00:00:00 | |
| KRY50SP-1 | 2026-09-02 06:27:48 | 52.15098 | 15.23408 | 79° | 69km/h | 11598m | -3.3m/s | -58.1°C | 20.0% | 212.4hPa | 2.6V | 00:00:00 | 00:00:00 | 00:00:00 | |
| KRY50SP-1 | 2026-09-02 06:27:43 | 52.15086 | 15.23262 | 89° | 71km/h | 11614m | -3.3m/s | -58.0°C | 19.9% | 211.8hPa | 2.6V | 00:00:00 | 00:00:00 | 00:00:00 | |
| DB0DAN | 2026-09-02 06:27:40 | 52.15087 | 15.23180 | 94° | 58km/h | 11622m | -2.9m/s | -58.1°C | 19.1% | 211.56hPa | 2.6V | 00:00:00 | 00:00:00 | 00:00:00 | |
| AA1-15 | 2026-09-02 06:27:38 | 52.15089 | 15.23132 | 93° | 55km/h | 11628m | -3m/s | -58.3°C | 23.6% | 211.4hPa | 2.5V | 18:12:15 | 02:24:28 | 00:00:00 | |
| AA1-15 | 2026-09-02 06:27:27 | 52.15057 | 15.22862 | 79° | 75km/h | 11662m | -3.4m/s | -57.8°C | 20.8% | 210.2hPa | 2.6V | 18:12:15 | 02:24:17 | 00:00:00 | |
| DB0NH | 2026-09-02 06:27:27 | 52.15056 | 15.22862 | 79° | 68km/h | 11663m | -3.4m/s | -57.7°C | 21.6% | 210.1hPa | 2.5V | 00:00:00 | 02:24:17 | 00:00:00 | |
| DB0DAN | 2026-09-02 06:27:25 | 52.15051 | 15.22801 | 84° | 71km/h | 11669m | -3.3m/s | -57.8°C | 16.2% | 210hPa | 2.5V | 00:00:00 | 00:00:00 | 00:00:00 | |
| AA1-15 | 2026-09-02 06:27:17 | 52.15057 | 15.22579 | 93° | 57km/h | 11697m | -3.6m/s | -57.7°C | 17.8% | 209.1hPa | 2.5V | 18:12:15 | 02:24:07 | 00:00:00 | |
| KRY50SP-1 | 2026-09-02 06:27:15 | 52.15057 | 15.22556 | 89° | 55km/h | 11701m | -3.4m/s | -57.7°C | 14.0% | 209.0hPa | 2.5V | 00:00:00 | 00:00:00 | 00:00:00 | |
| DB0DAN | 2026-09-02 06:27:10 | 52.15038 | 15.22399 | 80° | 73km/h | 11720m | -3.4m/s | -57.5°C | 13% | 208.29hPa | 2.5V | 00:00:00 | 00:00:00 | 00:00:00 | |
| AA1-15 | 2026-09-02 06:27:06 | 52.15033 | 15.22272 | 94° | 75km/h | 11734m | -3.3m/s | -56.7°C | 14% | 207.8hPa | 2.6V | 18:12:15 | 02:23:56 | 00:00:00 | |
| AA1-15 | 2026-09-02 06:26:56 | 52.15028 | 15.21991 | 83° | 75km/h | 11767m | -2.3m/s | -56.3°C | 11.8% | 206.8hPa | 2.5V | 18:12:15 | 02:23:45 | 00:00:00 | |
| DB0DAN | 2026-09-02 06:26:55 | 52.15028 | 15.21991 | 83° | 71km/h | 11767m | -2.3m/s | -56.3°C | 9.2% | 206.78hPa | 2.5V | 00:00:00 | 00:00:00 | 00:00:00 | |
| AA1-15 | 2026-09-02 06:26:44 | 52.15023 | 15.21703 | 79° | 68km/h | 11795m | -2.3m/s | -56°C | 10.1% | 205.8hPa | 2.6V | 18:12:15 | 02:23:34 | 00:00:00 | |
| 13BRC | 2026-09-02 06:26:42 | 52.15020 | 15.21675 | 83° | 71km/h | 11798m | -2.4m/s | -56.0°C | 7.9% | 205.7hPa | 2.5V | 00:00:00 | 00:00:00 | 00:00:00 | |
| SP6BVK | 2026-09-02 06:26:41 | 52.15018 | 15.21645 | 87° | 75km/h | 11800m | -2.4m/s | -56.2°C | 7.8% | 205.7hPa | 2.5V | 00:00:00 | 00:00:00 | 00:00:00 | |
| DB0DAN | 2026-09-02 06:26:40 | 52.15018 | 15.21584 | 94° | 69km/h | 11805m | -2.4m/s | -55.9°C | 7% | 205.53hPa | 2.5V | 00:00:00 | 00:00:00 | 00:00:00 | |
| AA1-15 | 2026-09-02 06:26:33 | 52.15024 | 15.21417 | 83° | 58km/h | 11824m | -2.4m/s | -56.1°C | 8.8% | 204.9hPa | 2.5V | 18:12:15 | 02:23:23 | 00:00:00 | |
| KRY50SP-1 | 2026-09-02 06:26:31 | 52.15022 | 15.21392 | 84° | 64km/h | 11827m | -2.6m/s | -56.2°C | 7.2% | 204.9hPa | 2.5V | 00:00:00 | 00:00:00 | 00:00:00 | |
| SP3BTT-10 | 2026-09-02 06:26:29 | 52.15018 | 15.21307 | 88° | 62km/h | 11835m | -3.0m/s | -55.9°C | 10.5% | 204.6hPa | 2.5V | 00:00:00 | 00:00:00 | 00:00:00 | |
| DB0NH | 2026-09-02 06:26:27 | 52.15017 | 15.21245 | 90° | 66km/h | 11841m | -3.1m/s | -55.7°C | 10.1% | 204.3hPa | 2.5V | 00:00:00 | 02:23:17 | 08:30:00 | |
| DB0DAN | 2026-09-02 06:26:25 | 52.15018 | 15.21182 | 92° | 75km/h | 11848m | -3.9m/s | -55.6°C | 6.2% | 204.17hPa | 2.5V | 00:00:00 | 00:00:00 | 00:00:00 | |
| AA1-15 | 2026-09-02 06:26:23 | 52.15021 | 15.21117 | 97° | 78km/h | 11856m | -4m/s | -55.6°C | 7.3% | 203.9hPa | 2.6V | 18:12:15 | 02:23:13 | 00:00:00 | |
| AA1-15 | 2026-09-02 06:26:12 | 52.15046 | 15.20833 | 86° | 68km/h | 11893m | -3m/s | -55.1°C | 6.3% | 202.7hPa | 2.6V | 18:12:15 | 02:23:02 | 00:00:00 | |
| DB0DAN | 2026-09-02 06:26:10 | 52.15045 | 15.20774 | 93° | 71km/h | 11900m | -3m/s | -54.8°C | 5.2% | 202.5hPa | 2.5V | 00:00:00 | 00:00:00 | 00:00:00 | |
| AA1-15 | 2026-09-02 06:26:01 | 52.15070 | 15.20548 | 89° | 53km/h | 11925m | -3.1m/s | -54.7°C | 5.5% | 201.7hPa | 2.5V | 18:12:15 | 02:22:51 | 00:00:00 | |
| SP3WXH-11 | 2026-09-02 06:25:56 | 52.15065 | 15.20414 | 90° | 73km/h | 11940m | -2.6m/s | -53.8°C | 4.8% | 201.2hPa | 2.5V | 00:00:00 | 00:00:00 | 00:00:00 | |
| DB0DAN | 2026-09-02 06:25:55 | 52.15065 | 15.20384 | 93° | 69km/h | 11942m | -2.8m/s | -53.9°C | 5% | 201.14hPa | 2.5V | 00:00:00 | 00:00:00 | 00:00:00 | |
| AA1-15 | 2026-09-02 06:25:50 | 52.15077 | 15.20250 | 103° | 57km/h | 11956m | -2.8m/s | -53.8°C | 5.9% | 200.7hPa | 2.5V | 18:12:15 | 02:22:40 | 00:00:00 | |
| EDDB2-11 | 2026-09-02 06:25:49 | 52.15081 | 15.20208 | 97° | 47km/h | 11962m | -2.7m/s | -53.7°C | 4.7% | 200.5hPa | 2.6V | 00:00:00 | 00:00:00 | 00:00:00 | |
| S3001 | 2026-09-02 06:25:48 | 52.15082 | 15.20189 | 90° | 46km/h | 11965m | -3.0m/s | -53.7°C | 4.7% | 200.4hPa | 2.6V | 00:00:00 | 00:00:00 | 00:00:00 | |
| KRY50SP-1 | 2026-09-02 06:25:46 | 52.15082 | 15.20188 | 92° | 47km/h | 11965m | -3.0m/s | -53.7°C | 4.7% | 200.4hPa | 2.6V | 00:00:00 | 00:00:00 | 00:00:00 | |
| SP3BTT-10 | 2026-09-02 06:25:45 | 52.15080 | 15.20148 | 80° | 64km/h | 11972m | -3.4m/s | -53.7°C | 7.7% | 200.2hPa | 2.6V | 00:00:00 | 00:00:00 | 00:00:00 | |
| DB0DAN | 2026-09-02 06:25:40 | 52.15067 | 15.20017 | 87° | 71km/h | 11987m | -3m/s | -53.6°C | 5.4% | 199.77hPa | 2.6V | 00:00:00 | 00:00:00 | 00:00:00 | |
| 13BRC | 2026-09-02 06:25:40 | 52.15067 | 15.20017 | 88° | 75km/h | 11987m | -3.0m/s | -53.6°C | 5.4% | 199.8hPa | 2.6V | 00:00:00 | 00:00:00 | 00:00:00 | |
| SP6BVK | 2026-09-02 06:25:39 | 52.15067 | 15.20017 | 88° | 75km/h | 11987m | -3.0m/s | -53.6°C | 5.4% | 199.8hPa | 2.6V | 00:00:00 | 00:00:00 | 00:00:00 | |
| DL2RXE-15 | 2026-09-02 06:25:37 | 52.15067 | 15.19957 | 96° | 69km/h | 11993m | -3.1m/s | -53.7°C | 5.6% | 199.6hPa | 2.6V | 00:00:00 | 00:00:00 | 00:00:00 | |
| EDDB2-12 | 2026-09-02 06:25:32 | 52.15069 | 15.19819 | 77° | 51km/h | 12009m | -3.0m/s | -53.8°C | 5.4% | 199.1hPa | 2.6V | 00:00:00 | 00:00:00 | 00:00:00 | |
| KRY50SP-1 | 2026-09-02 06:25:29 | 52.15062 | 15.19775 | 75° | 60km/h | 12016m | -3.0m/s | -53.9°C | 5.3% | 198.8hPa | 2.6V | 00:00:00 | 00:00:00 | 00:00:00 | |
| DB0NH | 2026-09-02 06:25:27 | 52.15049 | 15.19696 | 78° | 71km/h | 12026m | -3.3m/s | -53.8°C | 8.7% | 198.5hPa | 2.6V | 00:00:00 | 02:22:17 | 00:00:00 | |
| OE3JTB-15 | 2026-09-02 06:25:25 | 52.15044 | 15.19636 | 87° | 78km/h | 12033m | -3.3m/s | -53.9°C | 9.0% | 198.3hPa | 2.6V | 00:00:00 | 02:22:15 | 00:00:00 | |
| DB0DAN | 2026-09-02 06:25:25 | 52.15044 | 15.19637 | 86° | 71km/h | 12033m | -3.3m/s | -53.9°C | 5.9% | 198.32hPa | 2.5V | 00:00:00 | 00:00:00 | 00:00:00 | |
| KRY50SP-1 | 2026-09-02 06:25:24 | 52.15044 | 15.19636 | 87° | 75km/h | 12033m | -3.3m/s | -53.9°C | 5.9% | 198.3hPa | 2.6V | 00:00:00 | 00:00:00 | 00:00:00 | |
| 13BRC | 2026-09-02 06:25:19 | 52.15047 | 15.19473 | 88° | 57km/h | 12049m | -2.6m/s | -54.4°C | 6.1% | 197.9hPa | 2.6V | 00:00:00 | 00:00:00 | 00:00:00 | |
| EDDB2-11 | 2026-09-02 06:25:18 | 52.15044 | 15.19426 | 79° | 60km/h | 12054m | -2.7m/s | -54.1°C | 6.1% | 197.6hPa | 2.6V | 00:00:00 | 00:00:00 | 00:00:00 | |
| S3001 | 2026-09-02 06:25:17 | 52.15041 | 15.19401 | 78° | 62km/h | 12057m | -2.7m/s | -54.1°C | 6.1% | 197.6hPa | 2.6V | 00:00:00 | 00:00:00 | 00:00:00 | |
| SP3BTT-10 | 2026-09-02 06:25:15 | 52.15037 | 15.19375 | 78° | 71km/h | 12060m | -2.6m/s | -53.9°C | 9.2% | 197.5hPa | 2.6V | 00:00:00 | 00:00:00 | 00:00:00 | |
| SONDE2-11 | 2026-09-02 06:25:14 | 52.15034 | 15.19349 | 78° | 66km/h | 12062m | -2.9m/s | -54.1°C | 6.2% | 197.4hPa | 2.6V | 00:00:00 | 00:00:00 | 00:00:00 | |
| KRY50SP-1 | 2026-09-02 06:25:13 | 52.15034 | 15.19349 | 79° | 68km/h | 12063m | -2.9m/s | -54.1°C | 6.2% | 197.4hPa | 2.6V | 00:00:00 | 00:00:00 | 00:00:00 | |
| DB0DAN | 2026-09-02 06:25:10 | 52.15020 | 15.19236 | 79° | 69km/h | 12075m | -3.3m/s | -54°C | 6.3% | 197.05hPa | 2.6V | 00:00:00 | 00:00:00 | 00:00:00 | |
| DL2RXE-15 | 2026-09-02 06:25:07 | 52.15014 | 15.19177 | 81° | 73km/h | 12081m | -3.1m/s | -54.0°C | 6.4% | 196.8hPa | 2.5V | 00:00:00 | 00:00:00 | 00:00:00 | |
| KRY50SP-1 | 2026-09-02 06:25:03 | 52.14998 | 15.19020 | 84° | 82km/h | 12098m | -3.8m/s | -54.1°C | 6.2% | 196.4hPa | 2.5V | 00:00:00 | 00:00:00 | 00:00:00 | |
| EDDB2-12 | 2026-09-02 06:25:01 | 52.14994 | 15.18952 | 86° | 84km/h | 12105m | -3.8m/s | -54.1°C | 6.1% | 196.1hPa | 2.5V | 00:00:00 | 00:00:00 | 00:00:00 | |
| SP6BVK | 2026-09-02 06:24:58 | 52.14993 | 15.18882 | 92° | 86km/h | 12113m | -3.9m/s | -54.0°C | 6.1% | 195.8hPa | 2.5V | 00:00:00 | 00:00:00 | 00:00:00 | |
| DB0NH | 2026-09-02 06:24:57 | 52.14995 | 15.18813 | 95° | 78km/h | 12121m | -3.9m/s | -53.9°C | 9.2% | 195.6hPa | 2.5V | 00:00:00 | 02:21:47 | 00:00:00 | |
| DB0DAN | 2026-09-02 06:24:55 | 52.14999 | 15.18749 | 97° | 71km/h | 12129m | -3.6m/s | -53.9°C | 5.9% | 195.36hPa | 2.6V | 00:00:00 | 00:00:00 | 00:00:00 | |
| AA1-15 | 2026-09-02 06:24:52 | 52.15003 | 15.18664 | 89° | 66km/h | 12139m | -3.1m/s | -54.2°C | 7.7% | 195.1hPa | 2.5V | 18:12:15 | 02:21:42 | 00:00:00 | |
| SONCRA | 2026-09-02 06:24:48 | 52.14995 | 15.18550 | 83° | 77km/h | 12152m | -3.5m/s | -54.0°C | 6.0% | 194.7hPa | 2.5V | 00:00:00 | 00:00:00 | 00:00:00 | |
| EDDB2-11 | 2026-09-02 06:24:47 | 52.14991 | 15.18484 | 86° | 82km/h | 12159m | -3.4m/s | -53.9°C | 6.1% | 194.5hPa | 2.5V | 00:00:00 | 00:00:00 | 00:00:00 | |
| S3001 | 2026-09-02 06:24:46 | 52.14991 | 15.18449 | 88° | 84km/h | 12162m | -3.3m/s | -53.8°C | 5.9% | 194.4hPa | 2.5V | 00:00:00 | 00:00:00 | 00:00:00 | |
| AA1-15 | 2026-09-02 06:24:41 | 52.14996 | 15.18306 | 98° | 88km/h | 12176m | -3.6m/s | -53.7°C | 7% | 193.9hPa | 2.5V | 18:12:15 | 02:21:31 | 00:00:00 | |
| DB0DAN | 2026-09-02 06:24:40 | 52.14999 | 15.18270 | 99° | 84km/h | 12180m | -4m/s | -53.6°C | 5.3% | 193.82hPa | 2.5V | 00:00:00 | 00:00:00 | 00:00:00 | |
| AA1-15 | 2026-09-02 06:24:30 | 52.15016 | 15.17975 | 86° | 75km/h | 12212m | -3.2m/s | -53.8°C | 6.3% | 192.9hPa | 2.6V | 18:12:15 | 02:21:20 | 00:00:00 | |
| KRY50SP-1 | 2026-09-02 06:24:29 | 52.15016 | 15.17975 | 87° | 75km/h | 12212m | -3.2m/s | -53.8°C | 5.2% | 192.9hPa | 2.6V | 00:00:00 | 00:00:00 | 00:00:00 | |
| DB0DAN | 2026-09-02 06:24:25 | 52.15020 | 15.17805 | 98° | 84km/h | 12226m | -3.4m/s | -53.5°C | 4.8% | 192.45hPa | 2.6V | 00:00:00 | 00:00:00 | 00:00:00 | |
| AA1-15 | 2026-09-02 06:24:17 | 52.15059 | 15.17568 | 100° | 60km/h | 12250m | -3.4m/s | -53.4°C | 5.3% | 191.7hPa | 2.5V | 18:12:15 | 02:21:07 | 00:00:00 | |
| EDDB2-11 | 2026-09-02 06:24:16 | 52.15062 | 15.17518 | 92° | 64km/h | 12256m | -3.1m/s | -53.2°C | 4.5% | 191.5hPa | 2.5V | 00:00:00 | 00:00:00 | 00:00:00 | |
| S3001 | 2026-09-02 06:24:15 | 52.15062 | 15.17490 | 91° | 71km/h | 12259m | -3.0m/s | -53.4°C | 4.5% | 191.5hPa | 2.5V | 00:00:00 | 00:00:00 | 00:00:00 | |
| DAC517 | 2026-09-02 06:24:13 | 52.15062 | 15.17490 | 92° | 71km/h | 12260m | -3.0m/s | -53.4°C | 4.5% | 191.5hPa | 2.5V | 00:00:00 | 00:00:00 | 00:00:00 | |
| SONDE2-11 | 2026-09-02 06:24:12 | 52.15064 | 15.17426 | 94° | 84km/h | 12265m | -2.4m/s | -53.2°C | 4.4% | 191.3hPa | 2.5V | 00:00:00 | 00:00:00 | 00:00:00 | |
| DB0DAN | 2026-09-02 06:24:10 | 52.15069 | 15.17355 | 100° | 86km/h | 12270m | -2.6m/s | -53°C | 4.2% | 191.11hPa | 2.5V | 00:00:00 | 00:00:00 | 00:00:00 | |
| AA1-15 | 2026-09-02 06:24:06 | 52.15090 | 15.17218 | 107° | 78km/h | 12282m | -3.3m/s | -52.9°C | 4.3% | 190.8hPa | 2.6V | 18:12:15 | 02:20:56 | 00:00:00 | |
| AA1-15 | 2026-09-02 06:23:55 | 52.15124 | 15.16886 | 100° | 88km/h | 12313m | -2.7m/s | -52.3°C | 4% | 189.8hPa | 2.6V | 18:12:15 | 02:20:45 | 00:00:00 | |
| DB0DAN | 2026-09-02 06:23:55 | 52.15124 | 15.16886 | 100° | 84km/h | 12313m | -2.7m/s | -52.3°C | 3.6% | 189.84hPa | 2.6V | 00:00:00 | 00:00:00 | 00:00:00 | |
| AA1-15 | 2026-09-02 06:23:45 | 52.15167 | 15.16603 | 94° | 62km/h | 12342m | -3.5m/s | -52.6°C | 3.7% | 189hPa | 2.5V | 18:12:15 | 02:20:35 | 00:00:00 | |
| EDDB2-11 | 2026-09-02 06:23:45 | 52.15168 | 15.16577 | 91° | 64km/h | 12346m | -3.8m/s | -52.5°C | 3.3% | 188.9hPa | 2.5V | 00:00:00 | 00:00:00 | 00:00:00 | |
| S3001 | 2026-09-02 06:23:43 | 52.15168 | 15.16550 | 90° | 68km/h | 12350m | -3.5m/s | -52.4°C | 3.3% | 188.8hPa | 2.5V | 00:00:00 | 00:00:00 | 00:00:00 | |
| DB0DAN | 2026-09-02 06:23:40 | 52.15168 | 15.16459 | 91° | 75km/h | 12361m | -3.6m/s | -52.2°C | 3.4% | 188.43hPa | 2.5V | 00:00:00 | 00:00:00 | 00:00:00 | |
| 13BRC | 2026-09-02 06:23:35 | 52.15175 | 15.16322 | 102° | 86km/h | 12374m | -3.3m/s | -52.3°C | 3.6% | 188.1hPa | 2.5V | 00:00:00 | 00:00:00 | 00:00:00 | |
| DB0NH | 2026-09-02 06:23:31 | 52.15203 | 15.16166 | 109° | 69km/h | 12392m | -3.8m/s | -52.1°C | 5.9% | 187.5hPa | 2.5V | 00:00:00 | 02:20:21 | 00:00:00 | |
| KRY50SP-1 | 2026-09-02 06:23:30 | 52.15208 | 15.16139 | 108° | 66km/h | 12396m | -3.6m/s | -52.2°C | 3.3% | 187.4hPa | 2.5V | 00:00:00 | 00:00:00 | 00:00:00 | |
| SP3BTT-10 | 2026-09-02 06:23:29 | 52.15213 | 15.16114 | 106° | 66km/h | 12399m | -3.7m/s | -52.1°C | 5.7% | 187.3hPa | 2.5V | 00:00:00 | 00:00:00 | 00:00:00 | |
| EDDB2-12 | 2026-09-02 06:23:28 | 52.15216 | 15.16090 | 102° | 58km/h | 12403m | -3.6m/s | -52.2°C | 3.2% | 187.2hPa | 2.5V | 00:00:00 | 00:00:00 | 00:00:00 | |
| OE3JTB-15 | 2026-09-02 06:23:27 | 52.15219 | 15.16067 | 99° | 75km/h | 12407m | -3.7m/s | -52.1°C | 5.7% | 187.1hPa | 2.5V | 00:00:00 | 00:00:00 | 00:00:00 | |
| KRY50SP-1 | 2026-09-02 06:23:24 | 52.15221 | 15.16019 | 92° | 58km/h | 12415m | -3.9m/s | -52.0°C | 3.0% | 186.9hPa | 2.5V | 00:00:00 | 00:00:00 | 00:00:00 | |
| SP3WXH-11 | 2026-09-02 06:23:21 | 52.15220 | 15.15911 | 88° | 73km/h | 12429m | -3.6m/s | -52.0°C | 3.1% | 186.5hPa | 2.5V | 00:00:00 | 00:00:00 | 00:00:00 | |
| KRY50SP-1 | 2026-09-02 06:23:18 | 52.15220 | 15.15848 | 94° | 80km/h | 12436m | -3.2m/s | -52.0°C | 3.1% | 186.3hPa | 2.5V | 00:00:00 | 00:00:00 | 00:00:00 | |
| 13BRC | 2026-09-02 06:23:15 | 52.15232 | 15.15716 | 104° | 80km/h | 12449m | -3.4m/s | -51.9°C | 3.0% | 185.9hPa | 2.5V | 00:00:00 | 00:00:00 | 00:00:00 | |
| EDDB2-11 | 2026-09-02 06:23:13 | 52.15243 | 15.15653 | 107° | 77km/h | 12456m | -3.4m/s | -51.9°C | 2.9% | 185.7hPa | 2.5V | 00:00:00 | 00:00:00 | 00:00:00 | |
| KRY50SP-1 | 2026-09-02 06:23:12 | 52.15243 | 15.15653 | 109° | 77km/h | 12456m | -3.4m/s | -51.9°C | 2.9% | 185.7hPa | 2.5V | 00:00:00 | 00:00:00 | 00:00:00 | |
| DAC517 | 2026-09-02 06:23:11 | 52.15249 | 15.15623 | 110° | 75km/h | 12460m | -3.8m/s | -52.0°C | 2.9% | 185.6hPa | 2.5V | 00:00:00 | 00:00:00 | 00:00:00 | |
| DB0DAN | 2026-09-02 06:23:10 | 52.15261 | 15.15568 | 110° | 64km/h | 12467m | -4.1m/s | -51.9°C | 2.8% | 185.37hPa | 2.5V | 00:00:00 | 00:00:00 | 00:00:00 | |
| SONDE2-11 | 2026-09-02 06:23:10 | 52.15267 | 15.15543 | 108° | 62km/h | 12471m | -3.9m/s | -52.0°C | 2.8% | 185.3hPa | 2.6V | 00:00:00 | 00:00:00 | 00:00:00 | |
| KRY50SP-1 | 2026-09-02 06:23:07 | 52.15271 | 15.15518 | 106° | 60km/h | 12475m | -3.8m/s | -52.2°C | 2.8% | 185.2hPa | 2.6V | 00:00:00 | 00:00:00 | 00:00:00 | |
| DL2RXE-15 | 2026-09-02 06:23:01 | 52.15279 | 15.15357 | 92° | 77km/h | 12496m | -3.4m/s | -51.6°C | 2.6% | 184.6hPa | 2.6V | 00:00:00 | 00:00:00 | 00:00:00 | |
| SP3BTT-10 | 2026-09-02 06:22:59 | 52.15282 | 15.15258 | 96° | 71km/h | 12507m | -3.9m/s | -51.5°C | 5.1% | 184.2hPa | 2.6V | 00:00:00 | 00:00:00 | 00:00:00 | |
| DB0NH | 2026-09-02 06:22:57 | 52.15287 | 15.15189 | 101° | 73km/h | 12514m | -3.8m/s | -51.4°C | 5.1% | 184.0hPa | 2.6V | 00:00:00 | 02:19:47 | 00:00:00 | |
| KRY50SP-1 | 2026-09-02 06:22:56 | 52.15287 | 15.15189 | 101° | 86km/h | 12514m | -3.9m/s | -51.5°C | 2.6% | 184.0hPa | 2.6V | 00:00:00 | 00:00:00 | 00:00:00 | |
| DB0DAN | 2026-09-02 06:22:55 | 52.15297 | 15.15121 | 105° | 80km/h | 12522m | -3.6m/s | -51.4°C | 2.5% | 183.81hPa | 2.6V | 00:00:00 | 00:00:00 | 00:00:00 | |
| SP3WXH-11 | 2026-09-02 06:22:50 | 52.15329 | 15.14971 | 112° | 69km/h | 12539m | -3.5m/s | -51.2°C | 2.2% | 183.3hPa | 2.5V | 00:00:00 | 00:00:00 | 00:00:00 | |
| SONCRA | 2026-09-02 06:22:44 | 52.15361 | 15.14798 | 95° | 64km/h | 12566m | -3.9m/s | -51.1°C | 2.2% | 182.6hPa | 2.5V | 00:00:00 | 00:00:00 | 00:00:00 | |
| EDDB2-11 | 2026-09-02 06:22:42 | 52.15363 | 15.14771 | 94° | 68km/h | 12570m | -3.7m/s | -51.2°C | 2.1% | 182.5hPa | 2.5V | 00:00:00 | 00:00:00 | 00:00:00 | |
| DB0DAN | 2026-09-02 06:22:40 | 52.15365 | 15.14710 | 95° | 75km/h | 12577m | -3.3m/s | -51.3°C | 2.2% | 182.25hPa | 2.5V | 00:00:00 | 00:00:00 | 00:00:00 | |
| AA1-15 | 2026-09-02 06:22:38 | 52.15370 | 15.14644 | 99° | 84km/h | 12584m | -3.6m/s | -51.3°C | 1.8% | 182.1hPa | 2.5V | 18:12:15 | 02:19:28 | 00:00:00 | |
| KRY50SP-1 | 2026-09-02 06:22:34 | 52.15385 | 15.14542 | 109° | 84km/h | 12595m | -3.8m/s | -51.0°C | 2.1% | 181.8hPa | 2.5V | 00:00:00 | 00:00:00 | 00:00:00 | |
| 13BRC | 2026-09-02 06:22:33 | 52.15392 | 15.14511 | 111° | 80km/h | 12599m | -3.7m/s | -50.9°C | 2.1% | 181.7hPa | 2.5V | 00:00:00 | 00:00:00 | 00:00:00 | |
| DAC517 | 2026-09-02 06:22:29 | 52.15422 | 15.14400 | 117° | 68km/h | 12614m | -3.7m/s | -50.7°C | 1.9% | 181.2hPa | 2.5V | 00:00:00 | 00:00:00 | 00:00:00 | |
| KRY50SP-1 | 2026-09-02 06:22:28 | 52.15429 | 15.14376 | 117° | 64km/h | 12618m | -3.7m/s | -50.7°C | 1.9% | 181.1hPa | 2.5V | 00:00:00 | 00:00:00 | 00:00:00 | |
| DB0NH | 2026-09-02 06:22:27 | 52.15442 | 15.14330 | 115° | 64km/h | 12625m | -3.6m/s | -50.6°C | 4.1% | 180.9hPa | 2.5V | 00:00:00 | 02:19:17 | 00:00:00 | |
| DL2RXE-15 | 2026-09-02 06:22:26 | 52.15442 | 15.14330 | 115° | 58km/h | 12625m | -3.7m/s | -50.6°C | 1.8% | 180.9hPa | 2.6V | 00:00:00 | 00:00:00 | 00:00:00 | |
| DB0DAN | 2026-09-02 06:22:25 | 52.15453 | 15.14286 | 110° | 53km/h | 12632m | -3.8m/s | -50.5°C | 1.8% | 180.74hPa | 2.6V | 00:00:00 | 00:00:00 | 00:00:00 | |
| KRY50SP-1 | 2026-09-02 06:22:23 | 52.15458 | 15.14264 | 108° | 55km/h | 12636m | -3.8m/s | -50.5°C | 1.8% | 180.6hPa | 2.6V | 00:00:00 | 00:00:00 | 00:00:00 | |
| SP3WXH-11 | 2026-09-02 06:22:19 | 52.15470 | 15.14143 | 95° | 68km/h | 12653m | -3.4m/s | -49.9°C | 1.7% | 180.1hPa | 2.6V | 00:00:00 | 00:00:00 | 00:00:00 | |
| KRY50SP-1 | 2026-09-02 06:22:17 | 52.15471 | 15.14114 | 98° | 73km/h | 12657m | -3.4m/s | -49.8°C | 1.7% | 180.0hPa | 2.6V | 00:00:00 | 00:00:00 | 00:00:00 | |
| SP3BTT-10 | 2026-09-02 06:22:14 | 52.15487 | 15.13990 | 108° | 58km/h | 12671m | -3.4m/s | -50.1°C | 4.1% | 179.6hPa | 2.6V | 00:00:00 | 00:00:00 | 08:30:00 | |
| 13BRC | 2026-09-02 06:22:12 | 52.15493 | 15.13960 | 112° | 77km/h | 12674m | -3.2m/s | -50.0°C | 1.8% | 179.6hPa | 2.5V | 00:00:00 | 00:00:00 | 00:00:00 | |
| KRY50SP-1 | 2026-09-02 06:22:11 | 52.15501 | 15.13931 | 115° | 75km/h | 12678m | -3.1m/s | -50.0°C | 1.9% | 179.5hPa | 2.5V | 00:00:00 | 00:00:00 | 00:00:00 | |
| DB0DAN | 2026-09-02 06:22:10 | 52.15516 | 15.13878 | 118° | 66km/h | 12684m | -3m/s | -49.7°C | 1.7% | 179.28hPa | 2.5V | 00:00:00 | 00:00:00 | 00:00:00 | |
| AA1-15 | 2026-09-02 06:21:57 | 52.15565 | 15.13577 | 99° | 73km/h | 12734m | -3.9m/s | -49.9°C | 1.3% | 177.9hPa | 2.6V | 18:12:15 | 02:18:47 | 00:00:00 | |
| DB0NH | 2026-09-02 06:21:57 | 52.15565 | 15.13577 | 100° | 68km/h | 12734m | -3.9m/s | -49.9°C | 4.1% | 177.9hPa | 2.6V | 00:00:00 | 02:18:47 | 00:00:00 | |
| DB0DAN | 2026-09-02 06:21:55 | 52.15574 | 15.13520 | 107° | 68km/h | 12741m | -3.8m/s | -50.2°C | 2% | 177.7hPa | 2.6V | 00:00:00 | 00:00:00 | 00:00:00 | |
| SP3WXH-11 | 2026-09-02 06:21:48 | 52.15610 | 15.13368 | 107° | 46km/h | 12762m | -3.6m/s | -50.2°C | 1.9% | 177.2hPa | 2.5V | 00:00:00 | 00:00:00 | 00:00:00 | |
| DAC517 | 2026-09-02 06:21:46 | 52.15614 | 15.13350 | 105° | 46km/h | 12766m | -3.3m/s | -50.2°C | 1.9% | 177.0hPa | 2.5V | 00:00:00 | 00:00:00 | 00:00:00 | |
| SP3BTT-10 | 2026-09-02 06:21:44 | 52.15618 | 15.13295 | 92° | 62km/h | 12777m | -3.9m/s | -50.2°C | 3.9% | 176.7hPa | 2.5V | 00:00:00 | 00:00:00 | 00:00:00 | |
| KRY50SP-1 | 2026-09-02 06:21:43 | 52.15619 | 15.13295 | 93° | 46km/h | 12777m | -4.0m/s | -50.3°C | 1.8% | 176.8hPa | 2.5V | 00:00:00 | 00:00:00 | 00:00:00 | |
| DB0DAN | 2026-09-02 06:21:40 | 52.15617 | 15.13208 | 88° | 58km/h | 12792m | -3.7m/s | -50.3°C | 1.9% | 176.32hPa | 2.5V | 00:00:00 | 00:00:00 | 00:00:00 | |
| AA1-15 | 2026-09-02 06:21:29 | 52.15663 | 15.12936 | 109° | 49km/h | 12833m | -3.5m/s | -50.9°C | 1.6% | 175.3hPa | 2.6V | 18:12:15 | 02:18:19 | 00:00:00 | |
| OE3JTB-15 | 2026-09-02 06:21:28 | 52.15666 | 15.12916 | 104° | 62km/h | 12837m | -3.3m/s | -51.0°C | 4.5% | 175.1hPa | 2.6V | 00:00:00 | 00:00:00 | 00:00:00 | |
| KRY50SP-1 | 2026-09-02 06:21:27 | 52.15666 | 15.12916 | 105° | 47km/h | 12837m | -3.3m/s | -51.0°C | 2.1% | 175.1hPa | 2.6V | 00:00:00 | 00:00:00 | 00:00:00 | |
| DB0DAN | 2026-09-02 06:21:25 | 52.15670 | 15.12857 | 89° | 47km/h | 12847m | -3.4m/s | -50.8°C | 2% | 174.86hPa | 2.6V | 00:00:00 | 00:00:00 | 00:00:00 | |
| EDDB2-12 | 2026-09-02 06:21:24 | 52.15669 | 15.12836 | 86° | 53km/h | 12850m | -3.6m/s | -50.8°C | 2.0% | 174.8hPa | 2.6V | 00:00:00 | 00:00:00 | 00:00:00 | |
| KRY50SP-1 | 2026-09-02 06:21:22 | 52.15668 | 15.12814 | 85° | 57km/h | 12854m | -3.9m/s | -50.7°C | 2.0% | 174.7hPa | 2.6V | 00:00:00 | 00:00:00 | 00:00:00 | |
| SP3WXH-11 | 2026-09-02 06:21:17 | 52.15668 | 15.12650 | 98° | 73km/h | 12878m | -4.0m/s | -50.4°C | 2.0% | 174.0hPa | 2.6V | 00:00:00 | 00:00:00 | 00:00:00 | |
| KRY50SP-1 | 2026-09-02 06:21:16 | 52.15668 | 15.12650 | 100° | 73km/h | 12879m | -4.0m/s | -50.4°C | 2.0% | 174.0hPa | 2.6V | 00:00:00 | 00:00:00 | 00:00:00 | |
| DL2RXE-15 | 2026-09-02 06:21:15 | 52.15671 | 15.12621 | 103° | 73km/h | 12883m | -4.1m/s | -50.3°C | 2.0% | 173.9hPa | 2.6V | 00:00:00 | 00:00:00 | 00:00:00 | |
| SP3BTT-10 | 2026-09-02 06:21:14 | 52.15680 | 15.12565 | 109° | 57km/h | 12891m | -4.0m/s | -50.2°C | 4.2% | 173.7hPa | 2.6V | 00:00:00 | 00:00:00 | 00:00:00 | |
| SP6BVK | 2026-09-02 06:21:11 | 52.15690 | 15.12516 | 110° | 58km/h | 12899m | -3.8m/s | -50.5°C | 1.9% | 173.5hPa | 2.6V | 00:00:00 | 00:00:00 | 00:00:00 | |
| DB0DAN | 2026-09-02 06:21:10 | 52.15698 | 15.12472 | 102° | 49km/h | 12906m | -3.9m/s | -50.7°C | 1.9% | 173.3hPa | 2.6V | 00:00:00 | 00:00:00 | 00:00:00 | |
| S3001 | 2026-09-02 06:21:09 | 52.15702 | 15.12431 | 93° | 51km/h | 12914m | -4.0m/s | -50.6°C | 1.9% | 173.1hPa | 2.6V | 00:00:00 | 00:00:00 | 00:00:00 | |
| SONDE2-11 | 2026-09-02 06:21:06 | 52.15701 | 15.12361 | 87° | 60km/h | 12926m | -4.0m/s | -50.4°C | 1.9% | 172.8hPa | 2.6V | 00:00:00 | 00:00:00 | 00:00:00 | |
| KRY50SP-1 | 2026-09-02 06:21:04 | 52.15701 | 15.12361 | 88° | 60km/h | 12926m | -4.0m/s | -50.4°C | 1.9% | 172.8hPa | 2.6V | 00:00:00 | 00:00:00 | 00:00:00 | |
| OE3JTB-15 | 2026-09-02 06:20:59 | 52.15707 | 15.12192 | 103° | 60km/h | 12949m | -3.2m/s | -50.3°C | 4.2% | 172.1hPa | 2.6V | 00:00:00 | 02:17:49 | 00:00:00 | |
| DB0DAN | 2026-09-02 06:20:55 | 52.15728 | 15.12082 | 112° | 64km/h | 12964m | -4.2m/s | -50.2°C | 1.8% | 171.76hPa | 2.6V | 00:00:00 | 00:00:00 | 00:00:00 | |
| EDDB2-12 | 2026-09-02 06:20:53 | 52.15741 | 15.12034 | 113° | 60km/h | 12972m | -4.2m/s | -50.2°C | 1.7% | 171.5hPa | 2.5V | 00:00:00 | 00:00:00 | 00:00:00 | |
| SP3WXH-11 | 2026-09-02 06:20:46 | 52.15767 | 15.11891 | 92° | 53km/h | 13001m | -3.9m/s | -49.8°C | 1.7% | 170.8hPa | 2.5V | 00:00:00 | 00:00:00 | 00:00:00 | |
| KRY50SP-1 | 2026-09-02 06:20:43 | 52.15768 | 15.11841 | 96° | 66km/h | 13009m | -3.9m/s | -49.8°C | 1.7% | 170.6hPa | 2.5V | 00:00:00 | 00:00:00 | 00:00:00 | |
| SONCRA | 2026-09-02 06:20:40 | 52.15798 | 15.11678 | 116° | 66km/h | 13032m | -4.1m/s | -49.5°C | 1.6% | 169.9hPa | 2.5V | 00:00:00 | 00:00:00 | 00:00:00 | |
| EDDB2-11 | 2026-09-02 06:20:38 | 52.15798 | 15.11678 | 116° | 66km/h | 13032m | -4.1m/s | -49.5°C | 1.6% | 169.9hPa | 2.5V | 00:00:00 | 00:00:00 | 00:00:00 | |
| S3001 | 2026-09-02 06:20:37 | 52.15805 | 15.11655 | 118° | 62km/h | 13037m | -4.1m/s | -49.5°C | 1.6% | 169.8hPa | 2.5V | 00:00:00 | 00:00:00 | 00:00:00 | |
| SONDE2-11 | 2026-09-02 06:20:35 | 52.15826 | 15.11595 | 117° | 47km/h | 13049m | -4.2m/s | -49.6°C | 1.5% | 169.5hPa | 2.5V | 00:00:00 | 00:00:00 | 00:00:00 | |
| KRY50SP-1 | 2026-09-02 06:20:32 | 52.15831 | 15.11578 | 115° | 44km/h | 13053m | -4.1m/s | -49.5°C | 1.5% | 169.4hPa | 2.5V | 00:00:00 | 00:00:00 | 00:00:00 | |
| OE3JTB-15 | 2026-09-02 06:20:30 | 52.15839 | 15.11526 | 96° | 53km/h | 13066m | -4.0m/s | -49.4°C | 3.5% | 169.1hPa | 2.5V | 00:00:00 | 00:00:00 | 08:30:00 | |
| 13BRC | 2026-09-02 06:20:29 | 52.15839 | 15.11526 | 96° | 46km/h | 13066m | -4.1m/s | -49.5°C | 1.5% | 169.1hPa | 2.5V | 00:00:00 | 00:00:00 | 00:00:00 | |
| KRY50SP-1 | 2026-09-02 06:20:27 | 52.15840 | 15.11485 | 92° | 55km/h | 13074m | -4.2m/s | -49.5°C | 1.5% | 168.9hPa | 2.5V | 00:00:00 | 00:00:00 | 00:00:00 | |
| DB0DAN | 2026-09-02 06:20:25 | 52.15845 | 15.11412 | 101° | 62km/h | 13086m | -3.6m/s | -49.7°C | 1.6% | 168.57hPa | 2.5V | 00:00:00 | 00:00:00 | 00:00:00 | |
| AA1-15 | 2026-09-02 06:20:18 | 52.15887 | 15.11251 | 120° | 53km/h | 13109m | -4m/s | -49.7°C | 0.8% | 168hPa | 2.5V | 18:12:15 | 02:17:08 | 00:00:00 | |
| AA1-15 | 2026-09-02 06:20:07 | 52.15912 | 15.11055 | 89° | 57km/h | 13152m | -4.2m/s | -49.7°C | 0.6% | 166.8hPa | 2.5V | 18:12:15 | 02:16:57 | 00:00:00 | |
| S3001 | 2026-09-02 06:20:06 | 52.15912 | 15.11032 | 91° | 58km/h | 13156m | -4.1m/s | -49.8°C | 1.5% | 166.7hPa | 2.5V | 00:00:00 | 00:00:00 | 00:00:00 | |
| SONDE2-11 | 2026-09-02 06:20:04 | 52.15918 | 15.10961 | 107° | 55km/h | 13166m | -2.7m/s | -49.7°C | 1.5% | 166.5hPa | 2.5V | 00:00:00 | 00:00:00 | 00:00:00 | |
| DAC517 | 2026-09-02 06:20:02 | 52.15918 | 15.10961 | 108° | 55km/h | 13166m | -2.7m/s | -49.7°C | 1.5% | 166.5hPa | 2.5V | 00:00:00 | 00:00:00 | 00:00:00 | |
| OE3JTB-15 | 2026-09-02 06:20:01 | 52.15927 | 15.10922 | 114° | 47km/h | 13172m | -2.4m/s | -49.5°C | 3.7% | 166.3hPa | 2.5V | 00:00:00 | 00:00:00 | 00:00:00 | |
| KRY50SP-1 | 2026-09-02 06:20:00 | 52.15927 | 15.10922 | 115° | 46km/h | 13172m | -2.5m/s | -49.5°C | 1.5% | 166.3hPa | 2.5V | 00:00:00 | 00:00:00 | 00:00:00 | |
| DB0DAN | 2026-09-02 06:19:55 | 52.15947 | 15.10832 | 100° | 35km/h | 13191m | -3.7m/s | -49.4°C | 1.5% | 165.85hPa | 2.5V | 00:00:00 | 00:00:00 | 00:00:00 | |
| AA1-15 | 2026-09-02 06:19:54 | 52.15948 | 15.10817 | 96° | 37km/h | 13195m | -3.8m/s | -49.4°C | 0.5% | 165.7hPa | 2.5V | 18:12:15 | 02:16:44 | 00:00:00 | |
| EDDB2-12 | 2026-09-02 06:19:51 | 52.15948 | 15.10770 | 83° | 40km/h | 13206m | -3.9m/s | -49.0°C | 1.3% | 165.5hPa | 2.6V | 00:00:00 | 00:00:00 | 00:00:00 | |
| DF8AY | 2026-09-02 06:19:44 | 52.15942 | 15.10499 | 102° | 58km/h | 13254m | -3.9m/s | -48.6°C | 0.6% | 0hPa | 2.6V | 18:12:15 | 02:16:29 | 00:00:00 | |
| AA1-15 | 2026-09-02 06:19:43 | 52.15936 | 15.10599 | 90° | 62km/h | 13238m | -4.1m/s | -48.8°C | 0.4% | 164.6hPa | 2.5V | 18:12:15 | 02:16:33 | 00:00:00 | |
| NBG1-10 | 2026-09-02 06:19:42 | 52.15936 | 15.10573 | 93° | 60km/h | 13242m | -3.8m/s | -48.6°C | 3.4% | 164.5hPa | 2.6V | 00:00:00 | 02:16:32 | 00:00:00 | |
| DB0DAN | 2026-09-02 06:19:40 | 52.15939 | 15.10523 | 99° | 58km/h | 13250m | -3.9m/s | -48.5°C | 1.4% | 164.35hPa | 2.6V | 00:00:00 | 00:00:00 | 00:00:00 | |
| AA1-15 | 2026-09-02 06:19:32 | 52.15955 | 15.10365 | 86° | 42km/h | 13280m | -3.9m/s | -49°C | 0.5% | 163.6hPa | 2.5V | 18:12:15 | 02:16:22 | 00:00:00 | |
| DF8AY | 2026-09-02 06:19:28 | 52.15946 | 15.10290 | 75° | 51km/h | 13296m | -4m/s | -48.6°C | 0.3% | 0hPa | 2.6V | 18:12:15 | 02:16:18 | 00:00:00 | |
| 13BRC | 2026-09-02 06:19:27 | 52.15946 | 15.10290 | 76° | 51km/h | 13297m | -4.0m/s | -48.6°C | 1.3% | 163.2hPa | 2.6V | 00:00:00 | 00:00:00 | 00:00:00 | |
| DB0DAN | 2026-09-02 06:19:25 | 52.15934 | 15.10224 | 73° | 58km/h | 13308m | -4.2m/s | -48.7°C | 1.3% | 162.91hPa | 2.6V | 00:00:00 | 00:00:00 | 00:00:00 | |
| AA1-15 | 2026-09-02 06:19:21 | 52.15918 | 15.10117 | 81° | 71km/h | 13326m | -4.7m/s | -48.6°C | 0.4% | 162.4hPa | 2.5V | 18:12:15 | 02:16:11 | 00:00:00 | |
| DF8AY | 2026-09-02 06:19:18 | 52.15916 | 15.10029 | 94° | 69km/h | 13340m | -4.1m/s | -48.6°C | 0.4% | 0hPa | 2.6V | 18:12:15 | 02:16:08 | 00:00:00 | |
| AA1-15 | 2026-09-02 06:19:10 | 52.15923 | 15.09856 | 75° | 51km/h | 13374m | -4.1m/s | -48.9°C | 0.4% | 161.3hPa | 2.6V | 18:12:15 | 02:16:00 | 00:00:00 | |
| DB0DAN | 2026-09-02 06:19:10 | 52.15923 | 15.09856 | 75° | 47km/h | 13374m | -4.1m/s | -48.9°C | 1.4% | 161.3hPa | 2.6V | 00:00:00 | 00:00:00 | 00:00:00 | |
| DF8AY | 2026-09-02 06:19:07 | 52.15909 | 15.09788 | 72° | 66km/h | 13386m | -4.5m/s | 0°C | 0% | 0hPa | 2.6V | 18:12:15 | 02:15:57 | 00:00:00 | |
| DF8AY | 2026-09-02 06:18:56 | 52.15903 | 15.09493 | 92° | 47km/h | 13433m | -4.1m/s | 0°C | 0% | 0hPa | 2.6V | 18:12:15 | 02:15:46 | 00:00:00 | |
| DB0DAN | 2026-09-02 06:18:55 | 52.15903 | 15.09474 | 86° | 44km/h | 13437m | -4.2m/s | -48.7°C | 1.3% | 159.79hPa | 2.6V | 00:00:00 | 00:00:00 | 00:00:00 | |
| DF8AY | 2026-09-02 06:18:45 | 52.15875 | 15.09224 | 93° | 71km/h | 13479m | -4.1m/s | 0°C | 0% | 0hPa | 2.5V | 18:12:15 | 02:15:35 | 00:00:00 | |
| DL2RXE-15 | 2026-09-02 06:18:43 | 52.15879 | 15.09168 | 100° | 66km/h | 13487m | -4.2m/s | -48.5°C | 1.3% | 158.5hPa | 2.5V | 00:00:00 | 00:00:00 | 00:00:00 | |
| SP3WXH-11 | 2026-09-02 06:18:42 | 52.15881 | 15.09143 | 100° | 60km/h | 13491m | -4.4m/s | -48.6°C | 1.3% | 158.4hPa | 2.5V | 00:00:00 | 00:00:00 | 00:00:00 | |
| DB0DAN | 2026-09-02 06:18:40 | 52.15887 | 15.09097 | 100° | 49km/h | 13500m | -4.2m/s | -48.6°C | 1.3% | 158.21hPa | 2.5V | 00:00:00 | 00:00:00 | 00:00:00 | |
| DF8AY | 2026-09-02 06:18:34 | 52.15880 | 15.08981 | 73° | 55km/h | 13525m | -4.3m/s | 0°C | 0% | 0hPa | 2.5V | 18:12:15 | 02:15:24 | 00:00:00 | |
| AA1-15 | 2026-09-02 06:18:33 | 52.15876 | 15.08958 | 73° | 58km/h | 13529m | -4.2m/s | -48.6°C | 0.4% | 157.5hPa | 2.5V | 18:12:15 | 02:15:23 | 00:00:00 | |
| SONDE2-11 | 2026-09-02 06:18:31 | 52.15866 | 15.08881 | 82° | 68km/h | 13542m | -4.1m/s | -48.8°C | 1.4% | 157.2hPa | 2.6V | 00:00:00 | 00:00:00 | 00:00:00 | |
| KRY50SP-1 | 2026-09-02 06:18:29 | 52.15866 | 15.08881 | 84° | 69km/h | 13542m | -4.1m/s | -48.7°C | 1.4% | 157.2hPa | 2.6V | 00:00:00 | 00:00:00 | 00:00:00 | |
| SP3BTT-10 | 2026-09-02 06:18:28 | 52.15864 | 15.08824 | 92° | 64km/h | 13550m | -3.9m/s | -48.7°C | 3.5% | 157.0hPa | 2.6V | 00:00:00 | 00:00:00 | 00:00:00 | |
| SP6BVK | 2026-09-02 06:18:26 | 52.15864 | 15.08795 | 96° | 69km/h | 13554m | -4.1m/s | -48.7°C | 1.4% | 156.9hPa | 2.6V | 00:00:00 | 00:00:00 | 00:00:00 | |
| DB0DAN | 2026-09-02 06:18:25 | 52.15870 | 15.08740 | 102° | 62km/h | 13563m | -4.3m/s | -48.6°C | 1.3% | 156.72hPa | 2.6V | 00:00:00 | 00:00:00 | 00:00:00 | |
| AA1-15 | 2026-09-02 06:18:22 | 52.15880 | 15.08671 | 104° | 51km/h | 13576m | -4.3m/s | -48.7°C | 0.3% | 156.4hPa | 2.5V | 18:12:15 | 02:15:12 | 00:00:00 | |
| AA1-15 | 2026-09-02 06:18:11 | 52.15867 | 15.08435 | 91° | 69km/h | 13622m | -4.1m/s | -48.7°C | 0.4% | 155.3hPa | 2.6V | 18:12:15 | 02:15:01 | 00:00:00 | |
| DB0DAN | 2026-09-02 06:18:10 | 52.15868 | 15.08407 | 95° | 68km/h | 13626m | -4.2m/s | -48.7°C | 1.3% | 155.23hPa | 2.6V | 00:00:00 | 00:00:00 | 00:00:00 | |
| AA1-15 | 2026-09-02 06:18:00 | 52.15885 | 15.08189 | 78° | 47km/h | 13668m | -4.2m/s | -49°C | 0.4% | 154.2hPa | 2.6V | 18:12:15 | 02:14:50 | 00:00:00 | |
| SONDE2-11 | 2026-09-02 06:18:00 | 52.15883 | 15.08169 | 76° | 51km/h | 13672m | -4.2m/s | -48.9°C | 1.3% | 154.2hPa | 2.6V | 00:00:00 | 00:00:00 | 00:00:00 | |
| DB0DAN | 2026-09-02 06:17:55 | 52.15870 | 15.08072 | 83° | 66km/h | 13688m | -4.3m/s | -48.8°C | 1.3% | 153.75hPa | 2.6V | 00:00:00 | 00:00:00 | 00:00:00 | |
| AA1-15 | 2026-09-02 06:17:50 | 52.15872 | 15.07924 | 99° | 71km/h | 13710m | -4.5m/s | -48.8°C | 0.4% | 153.3hPa | 2.6V | 18:12:15 | 02:14:40 | 00:00:00 | |
| KRY50SP-1 | 2026-09-02 06:17:50 | 52.15872 | 15.07924 | 100° | 71km/h | 13710m | -4.5m/s | -48.8°C | 1.3% | 153.3hPa | 2.6V | 00:00:00 | 00:00:00 | 00:00:00 | |
| KRY50SP-1 | 2026-09-02 06:17:43 | 52.15891 | 15.07784 | 95° | 47km/h | 13736m | -4.1m/s | -49.3°C | 1.3% | 152.7hPa | 2.6V | 00:00:00 | 00:00:00 | 00:00:00 | |
| SP3BTT-10 | 2026-09-02 06:17:42 | 52.15890 | 15.07745 | 84° | 64km/h | 13744m | -4.1m/s | -49.4°C | 3.5% | 152.5hPa | 2.6V | 00:00:00 | 00:00:00 | 00:00:00 | |
| DB0DAN | 2026-09-02 06:17:40 | 52.15886 | 15.07700 | 80° | 57km/h | 13752m | -4.2m/s | -49.4°C | 1.4% | 152.29hPa | 2.6V | 00:00:00 | 00:00:00 | 00:00:00 | |
| AA1-15 | 2026-09-02 06:17:39 | 52.15883 | 15.07674 | 82° | 66km/h | 13756m | -4.1m/s | -49.4°C | 0.5% | 152.2hPa | 2.6V | 18:12:15 | 02:14:29 | 00:00:00 | |
| AA1-15 | 2026-09-02 06:17:28 | 52.15908 | 15.07373 | 111° | 55km/h | 13802m | -4.4m/s | -49.3°C | 0.4% | 151.1hPa | 2.5V | 18:12:15 | 02:14:18 | 00:00:00 | |
| DB0DAN | 2026-09-02 06:17:25 | 52.15919 | 15.07315 | 101° | 44km/h | 13815m | -4.4m/s | -49.2°C | 1.3% | 150.79hPa | 2.6V | 00:00:00 | 00:00:00 | 00:00:00 | |
| AA1-15 | 2026-09-02 06:17:17 | 52.15912 | 15.07120 | 91° | 75km/h | 13849m | -4.4m/s | -49.2°C | 0.5% | 150.1hPa | 2.6V | 18:12:15 | 02:14:07 | 00:00:00 | |
| EDDB2-12 | 2026-09-02 06:17:16 | 52.15916 | 15.07058 | 99° | 75km/h | 13857m | -4.3m/s | -49.0°C | 1.3% | 149.8hPa | 2.5V | 00:00:00 | 00:00:00 | 00:00:00 | |
| KRY50SP-1 | 2026-09-02 06:17:15 | 52.15916 | 15.07058 | 100° | 75km/h | 13857m | -4.3m/s | -49.0°C | 1.3% | 149.8hPa | 2.5V | 00:00:00 | 00:00:00 | 00:00:00 | |
| SP3BTT-10 | 2026-09-02 06:17:12 | 52.15929 | 15.06975 | 110° | 55km/h | 13870m | -4.1m/s | -49.0°C | 3.4% | 149.5hPa | 2.5V | 00:00:00 | 00:00:00 | 00:00:00 | |
| DB0DAN | 2026-09-02 06:17:10 | 52.15939 | 15.06930 | 108° | 49km/h | 13878m | -4.1m/s | -49.3°C | 1.3% | 149.42hPa | 2.5V | 00:00:00 | 00:00:00 | 00:00:00 | |
| AA1-15 | 2026-09-02 06:17:06 | 52.15945 | 15.06854 | 85° | 47km/h | 13895m | -4.1m/s | -49°C | 0.2% | 149hPa | 2.5V | 18:12:15 | 02:13:56 | 00:00:00 | |
| DF8AY | 2026-09-02 06:16:57 | 52.15955 | 15.06505 | 111° | 60km/h | 13949m | -4.2m/s | -49.1°C | 0.2% | 0hPa | 2.5V | 18:12:15 | 02:13:43 | 00:00:00 | |
| AA1-15 | 2026-09-02 06:16:55 | 52.15944 | 15.06555 | 107° | 69km/h | 13941m | -4.2m/s | -49°C | 0.3% | 147.9hPa | 2.6V | 18:12:15 | 02:13:45 | 00:00:00 | |
| DB0DAN | 2026-09-02 06:16:55 | 52.15944 | 15.06555 | 107° | 66km/h | 13941m | -4.2m/s | -49°C | 1.2% | 147.95hPa | 2.6V | 00:00:00 | 00:00:00 | 00:00:00 | |
| DF8AY | 2026-09-02 06:16:46 | 52.15967 | 15.06367 | 81° | 55km/h | 13978m | -4.2m/s | -49.2°C | 0.3% | 0hPa | 2.6V | 18:12:15 | 02:13:36 | 00:00:00 | |
| AA1-15 | 2026-09-02 06:16:45 | 52.15964 | 15.06344 | 81° | 60km/h | 13982m | -4.2m/s | -49.2°C | 0.3% | 147hPa | 2.6V | 18:12:15 | 02:13:35 | 00:00:00 | |
| EDDB2-12 | 2026-09-02 06:16:45 | 52.15962 | 15.06319 | 82° | 64km/h | 13986m | -4.3m/s | -49.2°C | 1.3% | 146.9hPa | 2.6V | 00:00:00 | 00:00:00 | 00:00:00 | |
| SP6BVK | 2026-09-02 06:16:44 | 52.15964 | 15.06344 | 82° | 60km/h | 13982m | -4.2m/s | -49.2°C | 1.2% | 147.0hPa | 2.6V | 00:00:00 | 00:00:00 | 00:00:00 | |
| 13BRC | 2026-09-02 06:16:43 | 52.15962 | 15.06319 | 84° | 64km/h | 13987m | -4.3m/s | -49.2°C | 1.3% | 146.9hPa | 2.6V | 00:00:00 | 00:00:00 | 00:00:00 | |
| SP3BTT-10 | 2026-09-02 06:16:42 | 52.15960 | 15.06263 | 90° | 68km/h | 13995m | -4.2m/s | -49.2°C | 3.4% | 146.7hPa | 2.6V | 00:00:00 | 00:00:00 | 08:30:00 | |
| DB0DAN | 2026-09-02 06:16:40 | 52.15963 | 15.06203 | 99° | 71km/h | 14003m | -4.1m/s | -49.2°C | 1.3% | 146.56hPa | 2.6V | 00:00:00 | 00:00:00 | 00:00:00 | |
| DF8AY | 2026-09-02 06:16:36 | 52.15982 | 15.06093 | 112° | 64km/h | 14020m | -4.5m/s | 0°C | 0% | 0hPa | 2.6V | 18:12:15 | 02:13:26 | 00:00:00 | |
| DF8AY | 2026-09-02 06:16:25 | 52.15988 | 15.05846 | 85° | 71km/h | 14066m | -4.4m/s | 0°C | 0% | 0hPa | 2.6V | 18:12:15 | 02:13:15 | 00:00:00 | |
| DB0DAN | 2026-09-02 06:16:25 | 52.15988 | 15.05846 | 85° | 68km/h | 14066m | -4.4m/s | -49.3°C | 1.2% | 145.13hPa | 2.6V | 00:00:00 | 00:00:00 | 00:00:00 | |
| SP6BVK | 2026-09-02 06:16:25 | 52.15988 | 15.05846 | 86° | 71km/h | 14067m | -4.4m/s | -49.3°C | 1.2% | 145.1hPa | 2.6V | 00:00:00 | 00:00:00 | 00:00:00 | |
| DM0DOS-11 | 2026-09-02 06:16:22 | 52.16010 | 15.05624 | 107° | 55km/h | 14100m | -4.3m/s | -49.7°C | 3.5% | 144.4hPa | 2.6V | 08:30:00 | 02:13:07 | 00:00:00 | |
| DF8AY | 2026-09-02 06:16:15 | 52.16016 | 15.05584 | 98° | 47km/h | 14109m | -4.2m/s | 0°C | 0% | 0hPa | 2.6V | 18:12:15 | 02:13:05 | 00:00:00 | |
| KRY50SP-1 | 2026-09-02 06:16:15 | 52.16016 | 15.05584 | 99° | 47km/h | 14109m | -4.2m/s | -49.6°C | 1.3% | 144.2hPa | 2.6V | 00:00:00 | 00:00:00 | 00:00:00 | |
| EDDB2-12 | 2026-09-02 06:16:14 | 52.16017 | 15.05545 | 84° | 49km/h | 14117m | -4.1m/s | -49.6°C | 1.3% | 144.0hPa | 2.6V | 00:00:00 | 00:00:00 | 00:00:00 | |
| DB0DAN | 2026-09-02 06:16:10 | 52.16009 | 15.05476 | 78° | 60km/h | 14130m | -4.1m/s | -49.4°C | 1.2% | 143.71hPa | 2.6V | 00:00:00 | 00:00:00 | 00:00:00 | |
| DL2RXE-15 | 2026-09-02 06:16:09 | 52.16006 | 15.05450 | 80° | 68km/h | 14134m | -4.4m/s | -49.4°C | 1.2% | 143.7hPa | 2.6V | 00:00:00 | 00:00:00 | 00:00:00 | |
| DM0DOS-11 | 2026-09-02 06:16:07 | 52.16008 | 15.05211 | 102° | 64km/h | 14168m | -3.9m/s | -49.8°C | 3.5% | 142.9hPa | 2.6V | 08:30:00 | 02:12:51 | 00:00:00 | |
| DF8AY | 2026-09-02 06:16:04 | 52.16000 | 15.05297 | 95° | 77km/h | 14156m | -4.2m/s | 0°C | 0% | 0hPa | 2.6V | 18:12:15 | 02:12:54 | 00:00:00 | |
| NBG1-10 | 2026-09-02 06:16:04 | 52.16000 | 15.05297 | 95° | 64km/h | 14156m | -4.2m/s | -49.5°C | 3.5% | 143.1hPa | 2.6V | 00:00:00 | 02:12:54 | 00:00:00 | |
| SP6BVK | 2026-09-02 06:16:03 | 52.15999 | 15.05297 | 95° | 77km/h | 14156m | -4.2m/s | -49.5°C | 1.3% | 143.1hPa | 2.5V | 00:00:00 | 00:00:00 | 00:00:00 | |
| DB0NH | 2026-09-02 06:16:02 | 52.16005 | 15.05237 | 101° | 57km/h | 14165m | -3.9m/s | -49.6°C | 3.5% | 142.9hPa | 2.5V | 00:00:00 | 02:12:52 | 00:00:00 | |
| SONCRA | 2026-09-02 06:16:00 | 52.16011 | 15.05187 | 103° | 57km/h | 14172m | -4.0m/s | -49.8°C | 1.3% | 142.8hPa | 2.6V | 00:00:00 | 00:00:00 | 00:00:00 | |
| EDDB2-11 | 2026-09-02 06:15:59 | 52.16015 | 15.05165 | 102° | 51km/h | 14177m | -3.9m/s | -49.7°C | 1.3% | 142.7hPa | 2.6V | 00:00:00 | 00:00:00 | 00:00:00 | |
| S3001 | 2026-09-02 06:15:58 | 52.16017 | 15.05144 | 100° | 47km/h | 14181m | -4.2m/s | -49.7°C | 1.3% | 142.6hPa | 2.6V | 00:00:00 | 00:00:00 | 00:00:00 | |
| KRY50SP-1 | 2026-09-02 06:15:57 | 52.16017 | 15.05144 | 101° | 47km/h | 14181m | -4.2m/s | -49.7°C | 1.3% | 142.6hPa | 2.6V | 00:00:00 | 00:00:00 | 00:00:00 | |
| DM0DOS-11 | 2026-09-02 06:15:55 | 52.16004 | 15.04979 | 78° | 68km/h | 14215m | -4.1m/s | -49.8°C | 3.5% | 141.8hPa | 2.6V | 08:30:00 | 02:12:40 | 00:00:00 | |
| DB0DAN | 2026-09-02 06:15:55 | 52.16019 | 15.05089 | 85° | 42km/h | 14194m | -4.5m/s | -49.7°C | 1.2% | 142.37hPa | 2.6V | 00:00:00 | 00:00:00 | 00:00:00 | |
| DF8AY | 2026-09-02 06:15:54 | 52.16017 | 15.05070 | 80° | 47km/h | 14198m | -4.4m/s | 0°C | 0% | 0hPa | 2.6V | 18:12:15 | 02:12:44 | 00:00:00 | |
| AA1-15 | 2026-09-02 06:15:51 | 52.16008 | 15.05005 | 76° | 62km/h | 14211m | -4.1m/s | -49.8°C | 0.4% | 141.9hPa | 2.6V | 18:12:15 | 02:12:41 | 00:00:00 | |
| DF8AY | 2026-09-02 06:15:43 | 52.16007 | 15.04777 | 102° | 64km/h | 14244m | -4.3m/s | 0°C | 0% | 0hPa | 2.6V | 18:12:15 | 02:12:33 | 00:00:00 | |
| EDDB2-12 | 2026-09-02 06:15:43 | 52.16010 | 15.04752 | 104° | 58km/h | 14248m | -4.3m/s | -49.7°C | 1.3% | 141.1hPa | 2.6V | 00:00:00 | 00:00:00 | 00:00:00 | |
| SP3BTT-10 | 2026-09-02 06:15:42 | 52.16010 | 15.04752 | 105° | 47km/h | 14249m | -4.2m/s | -49.6°C | 3.5% | 141.1hPa | 2.6V | 00:00:00 | 00:00:00 | 00:00:00 | |
| KRY50SP-1 | 2026-09-02 06:15:41 | 52.16010 | 15.04752 | 105° | 58km/h | 14249m | -4.3m/s | -49.7°C | 1.3% | 141.1hPa | 2.6V | 00:00:00 | 00:00:00 | 00:00:00 | |
| DB0DAN | 2026-09-02 06:15:40 | 52.16017 | 15.04709 | 104° | 47km/h | 14257m | -4.3m/s | -49.7°C | 1.3% | 140.92hPa | 2.6V | 00:00:00 | 00:00:00 | 00:00:00 | |
| AA1-15 | 2026-09-02 06:15:37 | 52.16022 | 15.04656 | 90° | 40km/h | 14270m | -4.5m/s | -49.7°C | 0.4% | 140.7hPa | 2.6V | 18:12:15 | 02:12:27 | 00:00:00 | |
| SP3WXH-11 | 2026-09-02 06:15:36 | 52.16022 | 15.04639 | 83° | 40km/h | 14275m | -4.5m/s | -49.7°C | 1.3% | 140.6hPa | 2.6V | 00:00:00 | 00:00:00 | 00:00:00 | |
| KRY50SP-1 | 2026-09-02 06:15:35 | 52.16022 | 15.04639 | 84° | 42km/h | 14275m | -4.5m/s | -49.7°C | 1.3% | 140.6hPa | 2.6V | 00:00:00 | 00:00:00 | 00:00:00 | |
| DB0NH | 2026-09-02 06:15:32 | 52.16008 | 15.04560 | 73° | 55km/h | 14293m | -4.5m/s | -49.7°C | 3.4% | 140.1hPa | 2.6V | 00:00:00 | 02:12:22 | 00:00:00 | |
| KRY50SP-1 | 2026-09-02 06:15:30 | 52.16004 | 15.04536 | 75° | 66km/h | 14298m | -4.3m/s | -49.7°C | 1.3% | 140.1hPa | 2.6V | 00:00:00 | 00:00:00 | 00:00:00 | |
| SONCRA | 2026-09-02 06:15:29 | 52.15997 | 15.04481 | 81° | 69km/h | 14306m | -4.5m/s | -49.7°C | 1.3% | 139.9hPa | 2.6V | 00:00:00 | 00:00:00 | 00:00:00 | |
| EDDB2-11 | 2026-09-02 06:15:28 | 52.15995 | 15.04452 | 86° | 69km/h | 14311m | -4.5m/s | -49.9°C | 1.4% | 139.8hPa | 2.6V | 00:00:00 | 00:00:00 | 00:00:00 | |
| DB0DAN | 2026-09-02 06:15:25 | 52.15997 | 15.04370 | 99° | 58km/h | 14324m | -4.1m/s | -50°C | 1.4% | 139.51hPa | 2.6V | 00:00:00 | 00:00:00 | 00:00:00 | |
| SONDE2-11 | 2026-09-02 06:15:24 | 52.16000 | 15.04346 | 101° | 55km/h | 14328m | -4.2m/s | -50.0°C | 1.3% | 139.5hPa | 2.6V | 00:00:00 | 00:00:00 | 00:00:00 | |
| OE3JTB-15 | 2026-09-02 06:15:23 | 52.16003 | 15.04325 | 103° | 51km/h | 14332m | -4.1m/s | -49.9°C | 3.6% | 139.3hPa | 2.6V | 00:00:00 | 00:00:00 | 00:00:00 | |
| DM0DOS-11 | 2026-09-02 06:15:21 | 52.15999 | 15.04209 | 67° | 47km/h | 14363m | -4.3m/s | -49.8°C | 3.4% | 138.7hPa | 2.6V | 08:30:00 | 02:12:06 | 00:00:00 | |
| KRY50SP-1 | 2026-09-02 06:15:20 | 52.16007 | 15.04289 | 98° | 40km/h | 14341m | -4.5m/s | -49.9°C | 1.3% | 139.2hPa | 2.6V | 00:00:00 | 00:00:00 | 00:00:00 | |
| DL2RXE-15 | 2026-09-02 06:15:17 | 52.16006 | 15.04242 | 78° | 38km/h | 14355m | -4.6m/s | -49.8°C | 1.3% | 138.9hPa | 2.6V | 00:00:00 | 00:00:00 | 00:00:00 | |
| KRY50SP-1 | 2026-09-02 06:15:14 | 52.15994 | 15.04190 | 69° | 53km/h | 14368m | -4.3m/s | -49.8°C | 1.3% | 138.6hPa | 2.6V | 00:00:00 | 00:00:00 | 00:00:00 | |
| SP3BTT-10 | 2026-09-02 06:15:12 | 52.15980 | 15.04119 | 76° | 57km/h | 14381m | -4.2m/s | -49.7°C | 3.6% | 138.3hPa | 2.6V | 00:00:00 | 00:00:00 | 00:00:00 | |
| DB0DAN | 2026-09-02 06:15:10 | 52.15974 | 15.04065 | 84° | 66km/h | 14390m | -4.4m/s | -49.9°C | 1.4% | 138.14hPa | 2.6V | 00:00:00 | 00:00:00 | 00:00:00 | |
| KRY50SP-1 | 2026-09-02 06:15:09 | 52.15973 | 15.04064 | 85° | 68km/h | 14390m | -4.4m/s | -49.9°C | 1.4% | 138.1hPa | 2.6V | 00:00:00 | 00:00:00 | 00:00:00 | |
| DM0DOS-11 | 2026-09-02 06:15:06 | 52.15979 | 15.03923 | 94° | 42km/h | 14415m | -4.2m/s | -50°C | 3.6% | 137.6hPa | 2.6V | 08:30:00 | 02:11:54 | 00:00:00 | |
| AA1-15 | 2026-09-02 06:15:06 | 52.15976 | 15.03962 | 98° | 55km/h | 14407m | -4.2m/s | -50.1°C | 0.5% | 137.8hPa | 2.6V | 18:12:15 | 02:11:56 | 00:00:00 | |
| DAC517 | 2026-09-02 06:15:05 | 52.15977 | 15.03941 | 99° | 47km/h | 14411m | -4.1m/s | -50.1°C | 1.4% | 137.7hPa | 2.6V | 00:00:00 | 00:00:00 | 00:00:00 | |
| KRY50SP-1 | 2026-09-02 06:15:03 | 52.15979 | 15.03923 | 96° | 42km/h | 14416m | -4.2m/s | -50.0°C | 1.4% | 137.6hPa | 2.6V | 00:00:00 | 00:00:00 | 00:00:00 | |
| DB0NH | 2026-09-02 06:15:02 | 52.15978 | 15.03890 | 81° | 55km/h | 14424m | -4.0m/s | -49.9°C | 3.6% | 137.3hPa | 2.6V | 00:00:00 | 02:11:52 | 00:00:00 | |
| SONCRA | 2026-09-02 06:14:58 | 52.15962 | 15.03827 | 61° | 49km/h | 14441m | -4.4m/s | -49.9°C | 1.3% | 137.0hPa | 2.6V | 00:00:00 | 00:00:00 | 00:00:00 | |
| DM0DOS-11 | 2026-09-02 06:14:57 | 52.15937 | 15.03739 | 71° | 66km/h | 14458m | -4.4m/s | -49.9°C | 3.5% | 136.6hPa | 2.6V | 08:30:00 | 02:11:44 | 00:00:00 | |
| AA1-15 | 2026-09-02 06:14:55 | 52.15943 | 15.03764 | 67° | 62km/h | 14454m | -4.3m/s | -49.9°C | 0.5% | 136.8hPa | 2.6V | 18:12:15 | 02:11:45 | 00:00:00 | |
| DB0DAN | 2026-09-02 06:14:55 | 52.15943 | 15.03764 | 67° | 60km/h | 14454m | -4.3m/s | -49.9°C | 1.4% | 136.76hPa | 2.6V | 00:00:00 | 00:00:00 | 00:00:00 | |
| SONDE2-11 | 2026-09-02 06:14:53 | 52.15933 | 15.03713 | 75° | 68km/h | 14463m | -4.6m/s | -49.9°C | 1.4% | 136.6hPa | 2.6V | 00:00:00 | 00:00:00 | 00:00:00 | |
| KRY50SP-1 | 2026-09-02 06:14:52 | 52.15929 | 15.03685 | 81° | 68km/h | 14468m | -4.5m/s | -49.9°C | 1.4% | 136.5hPa | 2.6V | 00:00:00 | 00:00:00 | 00:00:00 | |
| DM0DOS-11 | 2026-09-02 06:14:47 | 52.15930 | 15.03502 | 89° | 42km/h | 14502m | -4.4m/s | -50.3°C | 3.6% | 135.8hPa | 2.6V | 08:30:00 | 02:11:34 | 00:00:00 | |
| DAC517 | 2026-09-02 06:14:42 | 52.15929 | 15.03485 | 84° | 42km/h | 14506m | -4.2m/s | -50.4°C | 1.4% | 135.7hPa | 2.6V | 00:00:00 | 00:00:00 | 00:00:00 | |
| DB0DAN | 2026-09-02 06:14:40 | 52.15921 | 15.03430 | 71° | 49km/h | 14516m | -2.8m/s | -50.5°C | 1.4% | 135.46hPa | 2.6V | 00:00:00 | 00:00:00 | 00:00:00 | |
| 13BRC | 2026-09-02 06:14:39 | 52.15921 | 15.03430 | 72° | 51km/h | 14516m | -2.8m/s | -50.5°C | 1.4% | 135.5hPa | 2.6V | 00:00:00 | 00:00:00 | 00:00:00 | |
| DM0DOS-11 | 2026-09-02 06:14:37 | 52.15890 | 15.03255 | 84° | 71km/h | 14540m | -3.7m/s | -50.4°C | 3.8% | 134.9hPa | 2.6V | 08:30:00 | 02:11:23 | 00:00:00 | |
| SP3WXH-11 | 2026-09-02 06:14:34 | 52.15890 | 15.03255 | 84° | 71km/h | 14540m | -3.7m/s | -50.4°C | 1.4% | 134.9hPa | 2.6V | 00:00:00 | 00:00:00 | 00:00:00 | |
| DB0NH | 2026-09-02 06:14:32 | 52.15889 | 15.03226 | 89° | 55km/h | 14544m | -3.6m/s | -50.4°C | 3.8% | 134.8hPa | 2.6V | 00:00:00 | 02:11:22 | 08:30:00 | |
| KRY50SP-1 | 2026-09-02 06:14:29 | 52.15891 | 15.03172 | 99° | 62km/h | 14550m | -3.4m/s | -50.5°C | 1.4% | 134.7hPa | 2.6V | 00:00:00 | 00:00:00 | 00:00:00 | |
| DM0DOS-11 | 2026-09-02 06:14:28 | 52.15900 | 15.03024 | 76° | 49km/h | 14578m | -3.3m/s | -50.8°C | 3.8% | 134.2hPa | 2.6V | 08:30:00 | 02:11:12 | 00:00:00 | |
| SONCRA | 2026-09-02 06:14:27 | 52.15899 | 15.03108 | 104° | 44km/h | 14560m | -3.5m/s | -50.6°C | 1.3% | 134.5hPa | 2.6V | 00:00:00 | 00:00:00 | 00:00:00 | |
| DL2RXE-15 | 2026-09-02 06:14:26 | 52.15899 | 15.03108 | 105° | 46km/h | 14560m | -3.5m/s | -50.6°C | 1.3% | 134.5hPa | 2.6V | 00:00:00 | 00:00:00 | 00:00:00 | |
| DB0DAN | 2026-09-02 06:14:25 | 52.15903 | 15.03074 | 96° | 37km/h | 14567m | -3.7m/s | -50.7°C | 1.4% | 134.36hPa | 2.6V | 00:00:00 | 00:00:00 | 00:00:00 | |
| S3001 | 2026-09-02 06:14:25 | 52.15904 | 15.03059 | 88° | 38km/h | 14571m | -3.7m/s | -50.7°C | 1.4% | 134.3hPa | 2.6V | 00:00:00 | 00:00:00 | 00:00:00 | |
| KRY50SP-1 | 2026-09-02 06:14:23 | 52.15903 | 15.03058 | 90° | 38km/h | 14571m | -3.7m/s | -50.7°C | 1.4% | 134.3hPa | 2.6V | 00:00:00 | 00:00:00 | 00:00:00 | |
| SONDE2-11 | 2026-09-02 06:14:22 | 52.15900 | 15.03024 | 76° | 47km/h | 14578m | -3.3m/s | -50.8°C | 1.4% | 134.2hPa | 2.6V | 00:00:00 | 00:00:00 | 00:00:00 | |
| DAC517 | 2026-09-02 06:14:21 | 52.15900 | 15.03024 | 77° | 49km/h | 14578m | -3.3m/s | -50.8°C | 1.4% | 134.2hPa | 2.6V | 00:00:00 | 00:00:00 | 00:00:00 | |
| SP6BVK | 2026-09-02 06:14:19 | 52.15893 | 15.02979 | 77° | 64km/h | 14584m | -2.9m/s | -50.5°C | 1.4% | 134.0hPa | 2.6V | 00:00:00 | 00:00:00 | 00:00:00 | |
| DM0DOS-11 | 2026-09-02 06:14:17 | 52.15892 | 15.02765 | 98° | 49km/h | 14612m | -3m/s | -50.5°C | 3.6% | 133.4hPa | 2.6V | 08:30:00 | 02:11:02 | 00:00:00 | |
| KRY50SP-1 | 2026-09-02 06:14:11 | 52.15892 | 15.02765 | 100° | 49km/h | 14612m | -3.0m/s | -50.5°C | 1.3% | 133.4hPa | 2.6V | 00:00:00 | 00:00:00 | 00:00:00 | |
| DB0DAN | 2026-09-02 06:14:10 | 52.15894 | 15.02728 | 92° | 40km/h | 14618m | -3.1m/s | -50.6°C | 1.4% | 133.32hPa | 2.6V | 00:00:00 | 00:00:00 | 00:00:00 | |
| EDDB2-12 | 2026-09-02 06:14:09 | 52.15894 | 15.02711 | 90° | 42km/h | 14621m | -3.0m/s | -50.7°C | 1.4% | 133.3hPa | 2.6V | 00:00:00 | 00:00:00 | 00:00:00 | |
| DM0DOS-11 | 2026-09-02 06:14:07 | 52.15908 | 15.02554 | 109° | 55km/h | 14644m | -3.9m/s | -50.4°C | 3.5% | 132.8hPa | 2.6V | 08:30:00 | 02:10:52 | 00:00:00 | |
| KRY50SP-1 | 2026-09-02 06:14:06 | 52.15895 | 15.02671 | 93° | 53km/h | 14628m | -3.0m/s | -50.8°C | 1.5% | 133.2hPa | 2.7V | 00:00:00 | 00:00:00 | 00:00:00 | |
| SP3WXH-11 | 2026-09-02 06:14:03 | 52.15904 | 15.02576 | 106° | 57km/h | 14640m | -4.2m/s | -50.4°C | 1.3% | 132.9hPa | 2.7V | 00:00:00 | 00:00:00 | 00:00:00 | |
| DB0NH | 2026-09-02 06:14:02 | 52.15908 | 15.02554 | 110° | 47km/h | 14644m | -3.8m/s | -50.4°C | 3.5% | 132.8hPa | 2.7V | 00:00:00 | 02:10:52 | 00:00:00 | |
| DAC517 | 2026-09-02 06:14:01 | 52.15908 | 15.02554 | 111° | 55km/h | 14644m | -3.9m/s | -50.4°C | 1.3% | 132.8hPa | 2.7V | 00:00:00 | 00:00:00 | 00:00:00 | |
| KRY50SP-1 | 2026-09-02 06:14:00 | 52.15913 | 15.02534 | 113° | 49km/h | 14648m | -3.7m/s | -50.5°C | 1.3% | 132.7hPa | 2.7V | 00:00:00 | 00:00:00 | 00:00:00 | |
| SP3BTT-10 | 2026-09-02 06:13:58 | 52.15924 | 15.02485 | 105° | 44km/h | 14659m | -3.5m/s | -50.6°C | 3.6% | 132.4hPa | 2.7V | 00:00:00 | 00:00:00 | 00:00:00 | |
| DM0DOS-11 | 2026-09-02 06:13:57 | 52.15916 | 15.02397 | 75° | 49km/h | 14680m | -3.4m/s | -50.1°C | 3.6% | 132.1hPa | 2.6V | 08:30:00 | 02:10:42 | 00:00:00 | |
| SONCRA | 2026-09-02 06:13:56 | 52.15925 | 15.02446 | 77° | 33km/h | 14670m | -3.6m/s | -50.5°C | 1.4% | 132.3hPa | 2.6V | 00:00:00 | 00:00:00 | 00:00:00 | |
| DB0DAN | 2026-09-02 06:13:55 | 52.15925 | 15.02446 | 77° | 33km/h | 14669m | -3.6m/s | -50.5°C | 1.4% | 132.26hPa | 2.6V | 00:00:00 | 00:00:00 | 00:00:00 | |
| EDDB2-11 | 2026-09-02 06:13:55 | 52.15925 | 15.02446 | 77° | 33km/h | 14670m | -3.6m/s | -50.5°C | 1.4% | 132.3hPa | 2.6V | 00:00:00 | 00:00:00 | 00:00:00 | |
| S3001 | 2026-09-02 06:13:53 | 52.15919 | 15.02415 | 72° | 44km/h | 14677m | -3.6m/s | -50.3°C | 1.4% | 132.1hPa | 2.6V | 00:00:00 | 00:00:00 | 00:00:00 | |
| SONDE2-11 | 2026-09-02 06:13:51 | 52.15913 | 15.02375 | 80° | 55km/h | 14683m | -3.2m/s | -50.0°C | 1.3% | 132.0hPa | 2.6V | 00:00:00 | 00:00:00 | 00:00:00 | |
| KRY50SP-1 | 2026-09-02 06:13:49 | 52.15911 | 15.02351 | 87° | 60km/h | 14687m | -3.1m/s | -50.2°C | 1.4% | 131.9hPa | 2.6V | 00:00:00 | 00:00:00 | 00:00:00 | |
| DM0DOS-11 | 2026-09-02 06:13:48 | 52.15942 | 15.02185 | 116° | 33km/h | 14714m | -3.5m/s | -50.3°C | 3.5% | 131.3hPa | 2.6V | 08:30:00 | 02:10:32 | 00:00:00 | |
| KRY50SP-1 | 2026-09-02 06:13:44 | 52.15926 | 15.02232 | 116° | 53km/h | 14704m | -3.6m/s | -50.1°C | 1.3% | 131.6hPa | 2.7V | 00:00:00 | 00:00:00 | 00:00:00 | |
| DB0DAN | 2026-09-02 06:13:40 | 52.15945 | 15.02162 | 91° | 26km/h | 14721m | -3.3m/s | -50.2°C | 1.3% | 131.2hPa | 2.7V | 00:00:00 | 00:00:00 | 00:00:00 | |
| EDDB2-12 | 2026-09-02 06:13:38 | 52.15942 | 15.02136 | 74° | 38km/h | 14728m | -3.7m/s | -50.0°C | 1.3% | 131.1hPa | 2.6V | 00:00:00 | 00:00:00 | 00:00:00 | |
| DM0DOS-11 | 2026-09-02 06:13:37 | 52.15940 | 15.02005 | 105° | 51km/h | 14750m | -3.7m/s | -50.2°C | 3.6% | 130.7hPa | 2.6V | 08:30:00 | 02:10:22 | 00:00:00 | |
| DL2RXE-15 | 2026-09-02 06:13:34 | 52.15936 | 15.02075 | 88° | 58km/h | 14739m | -3.4m/s | -49.9°C | 1.3% | 130.9hPa | 2.6V | 00:00:00 | 00:00:00 | 00:00:00 | |
| AA1-15 | 2026-09-02 06:13:17 | 52.15936 | 15.01750 | 94° | 62km/h | 14803m | -4.1m/s | -50.2°C | 0.5% | 129.6hPa | 2.6V | 18:12:15 | 02:10:07 | 00:00:00 | |
| DM0DOS-11 | 2026-09-02 06:13:16 | 52.15940 | 15.01631 | 88° | 46km/h | 14827m | -4.1m/s | -50.4°C | 3.6% | 129.1hPa | 2.7V | 08:30:00 | 02:10:02 | 00:00:00 | |
| DL1XH-west | 2026-09-02 06:13:07 | 52.15928 | 15.01561 | 61° | 38km/h | 14844m | -4.3m/s | -50°C | 0.3% | 128.8hPa | 2.7V | 18:12:15 | 02:09:57 | 00:00:00 | |
| AA1-15 | 2026-09-02 06:13:06 | 52.15923 | 15.01546 | 60° | 42km/h | 14848m | -4m/s | -50°C | 0.3% | 128.7hPa | 2.7V | 18:12:15 | 02:09:56 | 00:00:00 | |
| DL1XH-west | 2026-09-02 06:12:57 | 52.15902 | 15.01357 | 102° | 44km/h | 14879m | -3.4m/s | -49.9°C | 0.4% | 128.1hPa | 2.6V | 18:12:15 | 02:09:47 | 00:00:00 | |
| DM0DOS-11 | 2026-09-02 06:12:56 | 52.15910 | 15.01285 | 87° | 33km/h | 14903m | -4.8m/s | -50.2°C | 3.5% | 127.7hPa | 2.6V | 08:30:00 | 02:09:42 | 00:00:00 | |
| AA1-15 | 2026-09-02 06:12:55 | 52.15906 | 15.01325 | 104° | 37km/h | 14888m | -4.5m/s | -50°C | 0.3% | 127.9hPa | 2.6V | 18:12:15 | 02:09:45 | 00:00:00 | |
| DB0DAN | 2026-09-02 06:12:55 | 52.15906 | 15.01325 | 104° | 35km/h | 14888m | -4.5m/s | -50°C | 1.2% | 127.92hPa | 2.6V | 00:00:00 | 00:00:00 | 00:00:00 | |
| DL1XH-west | 2026-09-02 06:12:46 | 52.15888 | 15.01178 | 75° | 58km/h | 14927m | -4.7m/s | -49.9°C | 0.4% | 127.2hPa | 2.6V | 18:12:15 | 02:09:36 | 00:00:00 | |
| DM0DOS-11 | 2026-09-02 06:12:46 | 52.15884 | 15.01087 | 95° | 49km/h | 14942m | -3.5m/s | -49.8°C | 3.5% | 126.9hPa | 2.6V | 08:30:00 | 02:09:32 | 00:00:00 | |
| AA1-15 | 2026-09-02 06:12:44 | 52.15883 | 15.01131 | 87° | 57km/h | 14935m | -3.6m/s | -49.8°C | 0.4% | 127hPa | 2.6V | 18:12:15 | 02:09:34 | 00:00:00 | |
| KRY50SP-1 | 2026-09-02 06:12:43 | 52.15883 | 15.01108 | 93° | 55km/h | 14939m | -3.6m/s | -49.9°C | 1.3% | 127.0hPa | 2.6V | 00:00:00 | 00:00:00 | 00:00:00 | |
| DB0DAN | 2026-09-02 06:12:40 | 52.15886 | 15.01050 | 92° | 37km/h | 14949m | -3.4m/s | -50.1°C | 1.4% | 126.74hPa | 2.6V | 00:00:00 | 00:00:00 | 00:00:00 | |
| KRY50SP-1 | 2026-09-02 06:12:37 | 52.15880 | 15.01007 | 64° | 38km/h | 14959m | -2.9m/s | -50.1°C | 1.3% | 126.5hPa | 2.7V | 00:00:00 | 00:00:00 | 00:00:00 | |
| DM0DOS-11 | 2026-09-02 06:12:36 | 52.15850 | 15.00927 | 58° | 51km/h | 14975m | -3.8m/s | -49.9°C | 3.4% | 126.2hPa | 2.7V | 08:30:00 | 02:09:22 | 00:00:00 | |
| DL1XH-west | 2026-09-02 06:12:35 | 52.15869 | 15.00978 | 58° | 46km/h | 14965m | -3m/s | -50°C | 0.5% | 126.4hPa | 2.6V | 18:12:15 | 02:09:25 | 00:00:00 | |
| AA1-15 | 2026-09-02 06:12:33 | 52.15856 | 15.00944 | 58° | 49km/h | 14971m | -3.6m/s | -49.9°C | 0.3% | 126.3hPa | 2.6V | 18:12:15 | 02:09:23 | 00:00:00 | |
| KRY50SP-1 | 2026-09-02 06:12:32 | 52.15850 | 15.00927 | 60° | 51km/h | 14975m | -3.8m/s | -49.9°C | 1.2% | 126.2hPa | 2.6V | 00:00:00 | 00:00:00 | 00:00:00 | |
| SP3WXH-11 | 2026-09-02 06:12:30 | 52.15829 | 15.00870 | 61° | 55km/h | 14987m | -4.1m/s | -49.8°C | 1.2% | 126.0hPa | 2.6V | 00:00:00 | 00:00:00 | 00:00:00 | |
| SP3BTT-10 | 2026-09-02 06:12:27 | 52.15816 | 15.00828 | 66° | 47km/h | 14996m | -4.1m/s | -49.6°C | 3.3% | 125.8hPa | 2.6V | 00:00:00 | 00:00:00 | 00:00:00 | |
| DM0DOS-11 | 2026-09-02 06:12:26 | 52.15791 | 15.00692 | 80° | 57km/h | 15020m | -3.9m/s | -49.9°C | 3.5% | 125.4hPa | 2.6V | 08:30:00 | 02:09:11 | 00:00:00 | |
| DB0DAN | 2026-09-02 06:12:25 | 52.15805 | 15.00784 | 71° | 57km/h | 15004m | -4.1m/s | -49.7°C | 1.2% | 125.69hPa | 2.7V | 00:00:00 | 00:00:00 | 00:00:00 | |
| DL1XH-west | 2026-09-02 06:12:24 | 52.15801 | 15.00761 | 74° | 58km/h | 15008m | -4.1m/s | 0°C | 0% | 125.6hPa | 2.6V | 18:12:15 | 02:09:14 | 00:00:00 | |
| AA1-15 | 2026-09-02 06:12:22 | 52.15794 | 15.00715 | 78° | 57km/h | 15016m | -4m/s | -49.8°C | 0.4% | 125.5hPa | 2.6V | 18:12:15 | 02:09:12 | 00:00:00 | |
| EDDB2-11 | 2026-09-02 06:12:22 | 52.15791 | 15.00692 | 80° | 55km/h | 15020m | -3.9m/s | -49.9°C | 1.2% | 125.4hPa | 2.6V | 00:00:00 | 00:00:00 | 00:00:00 | |
| S3001 | 2026-09-02 06:12:21 | 52.15789 | 15.00669 | 81° | 55km/h | 15024m | -3.9m/s | -49.8°C | 1.2% | 125.3hPa | 2.6V | 00:00:00 | 00:00:00 | 00:00:00 | |
| KRY50SP-1 | 2026-09-02 06:12:19 | 52.15789 | 15.00669 | 83° | 55km/h | 15024m | -3.9m/s | -49.8°C | 1.2% | 125.3hPa | 2.6V | 00:00:00 | 00:00:00 | 00:00:00 | |
| SONDE2-11 | 2026-09-02 06:12:18 | 52.15785 | 15.00625 | 82° | 51km/h | 15032m | -4.0m/s | -49.9°C | 1.2% | 125.1hPa | 2.6V | 00:00:00 | 00:00:00 | 00:00:00 | |
| DM0DOS-11 | 2026-09-02 06:12:16 | 52.15767 | 15.00493 | 70° | 44km/h | 15059m | -3.8m/s | -50.4°C | 3.6% | 124.6hPa | 2.6V | 08:30:00 | 02:09:01 | 00:00:00 | |
| AA1-15 | 2026-09-02 06:12:11 | 52.15767 | 15.00493 | 71° | 44km/h | 15059m | -3.8m/s | -50.4°C | 0.5% | 124.6hPa | 2.6V | 18:12:15 | 02:09:01 | 00:00:00 | |
| DB0DAN | 2026-09-02 06:12:10 | 52.15764 | 15.00477 | 70° | 40km/h | 15063m | -3.7m/s | -50.4°C | 1.3% | 124.51hPa | 2.6V | 00:00:00 | 00:00:00 | 00:00:00 | |
| KRY50SP-1 | 2026-09-02 06:12:08 | 52.15760 | 15.00460 | 71° | 42km/h | 15066m | -3.8m/s | -50.4°C | 1.3% | 124.5hPa | 2.6V | 00:00:00 | 00:00:00 | 00:00:00 | |
| DM0DOS-11 | 2026-09-02 06:12:06 | 52.15741 | 15.00326 | 83° | 46km/h | 15098m | -4m/s | -50.1°C | 3.5% | 123.8hPa | 2.6V | 08:30:00 | 02:08:51 | 00:00:00 | |
| AA1-15 | 2026-09-02 06:12:01 | 52.15741 | 15.00326 | 84° | 46km/h | 15098m | -4m/s | -50.1°C | 0.4% | 123.9hPa | 2.6V | 18:12:15 | 02:08:51 | 00:00:00 | |
| SP3WXH-11 | 2026-09-02 06:11:59 | 52.15738 | 15.00268 | 84° | 49km/h | 15110m | -4.1m/s | -50.0°C | 1.2% | 123.7hPa | 2.7V | 00:00:00 | 00:00:00 | 00:00:00 | |
| SP3BTT-10 | 2026-09-02 06:11:57 | 52.15736 | 15.00246 | 85° | 58km/h | 15115m | -4.0m/s | -49.9°C | 3.4% | 123.5hPa | 2.7V | 00:00:00 | 00:00:00 | 00:00:00 | |
| DM0DOS-11 | 2026-09-02 06:11:56 | 52.15726 | 15.00105 | 81° | 62km/h | 15139m | -4m/s | -49.9°C | 3.4% | 123.1hPa | 2.7V | 08:30:00 | 02:08:41 | 00:00:00 | |
| DB0DAN | 2026-09-02 06:11:55 | 52.15734 | 15.00202 | 84° | 53km/h | 15123m | -4m/s | -50°C | 1.2% | 123.39hPa | 2.6V | 00:00:00 | 00:00:00 | 00:00:00 | |
| DL1XH-west | 2026-09-02 06:11:54 | 52.15732 | 15.00178 | 83° | 58km/h | 15127m | -3.9m/s | 0°C | 0% | 123.3hPa | 2.6V | 18:12:15 | 02:08:44 | 00:00:00 | |
| AA1-15 | 2026-09-02 06:11:50 | 52.15724 | 15.00080 | 81° | 62km/h | 15142m | -4m/s | -49.9°C | 0.4% | 123hPa | 2.6V | 18:12:15 | 02:08:40 | 00:00:00 | |
| S3001 | 2026-09-02 06:11:49 | 52.15722 | 15.00054 | 80° | 62km/h | 15147m | -4.1m/s | -50.0°C | 1.2% | 123.0hPa | 2.7V | 00:00:00 | 00:00:00 | 00:00:00 | |
| SONDE2-11 | 2026-09-02 06:11:47 | 52.15716 | 15.00003 | 78° | 64km/h | 15155m | -3.9m/s | -49.9°C | 1.2% | 122.8hPa | 2.7V | 00:00:00 | 00:00:00 | 00:00:00 | |
| DM0DOS-11 | 2026-09-02 06:11:46 | 52.15696 | 14.99842 | 81° | 68km/h | 15178m | -4m/s | -49.9°C | 3.5% | 122.3hPa | 2.7V | 08:30:00 | 02:08:31 | 00:00:00 | |
| DL1XH-west | 2026-09-02 06:11:42 | 52.15699 | 14.99869 | 80° | 68km/h | 15174m | -4.1m/s | 0°C | 0% | 122.4hPa | 2.6V | 18:12:15 | 02:08:32 | 00:00:00 | |
| AA1-15 | 2026-09-02 06:11:40 | 52.15694 | 14.99814 | 83° | 68km/h | 15183m | -4.2m/s | -49.9°C | 0.4% | 122.3hPa | 2.6V | 18:12:15 | 02:08:30 | 00:00:00 | |
| DB0DAN | 2026-09-02 06:11:40 | 52.15694 | 14.99814 | 83° | 64km/h | 15183m | -4.2m/s | -49.9°C | 1.2% | 122.28hPa | 2.6V | 00:00:00 | 00:00:00 | 00:00:00 | |
| DM0DOS-11 | 2026-09-02 06:11:36 | 52.15700 | 14.99573 | 96° | 57km/h | 15222m | -4.7m/s | -49.8°C | 3.4% | 121.5hPa | 2.6V | 08:30:00 | 02:08:21 | 00:00:00 | |
| DL1XH-west | 2026-09-02 06:11:30 | 52.15701 | 14.99551 | 93° | 53km/h | 15227m | -4.3m/s | 0°C | 0% | 121.4hPa | 2.6V | 18:12:15 | 02:08:20 | 00:00:00 | |
| SP3WXH-11 | 2026-09-02 06:11:28 | 52.15696 | 14.99491 | 72° | 49km/h | 15238m | -3.6m/s | -50.3°C | 1.3% | 121.2hPa | 2.6V | 00:00:00 | 00:00:00 | 00:00:00 | |
| SP3BTT-10 | 2026-09-02 06:11:27 | 52.15696 | 14.99491 | 73° | 58km/h | 15238m | -3.5m/s | -50.2°C | 3.6% | 121.2hPa | 2.6V | 00:00:00 | 00:00:00 | 00:00:00 | |
| DM0DOS-11 | 2026-09-02 06:11:26 | 52.15675 | 14.99330 | 89° | 77km/h | 15262m | -3.7m/s | -49.8°C | 3.5% | 120.8hPa | 2.6V | 08:30:00 | 02:08:11 | 00:00:00 | |
| DB0DAN | 2026-09-02 06:11:25 | 52.15687 | 14.99447 | 72° | 60km/h | 15247m | -4.2m/s | -50.1°C | 1.2% | 121.06hPa | 2.6V | 00:00:00 | 00:00:00 | 00:00:00 | |
| DL1XH-west | 2026-09-02 06:11:19 | 52.15678 | 14.99268 | 99° | 73km/h | 15270m | -3.7m/s | 0°C | 0% | 0hPa | 2.7V | 18:12:15 | 02:08:09 | 00:00:00 | |
| S3001 | 2026-09-02 06:11:18 | 52.15682 | 14.99240 | 103° | 68km/h | 15273m | -3.8m/s | -49.8°C | 1.2% | 120.5hPa | 2.6V | 00:00:00 | 00:00:00 | 00:00:00 | |
| KRY50SP-1 | 2026-09-02 06:11:17 | 52.15681 | 14.99240 | 104° | 69km/h | 15274m | -3.8m/s | -49.8°C | 1.2% | 120.5hPa | 2.6V | 00:00:00 | 00:00:00 | 00:00:00 | |
| DM0DOS-11 | 2026-09-02 06:11:16 | 52.15700 | 14.99101 | 80° | 44km/h | 15300m | -3.6m/s | -49.7°C | 3.5% | 120.1hPa | 2.6V | 08:30:00 | 02:08:01 | 00:00:00 | |
| SONDE2-11 | 2026-09-02 06:11:16 | 52.15690 | 14.99190 | 108° | 57km/h | 15281m | -3.8m/s | -49.9°C | 1.2% | 120.4hPa | 2.6V | 00:00:00 | 00:00:00 | 00:00:00 | |
| SP6BVK | 2026-09-02 06:11:13 | 52.15698 | 14.99151 | 106° | 44km/h | 15289m | -3.8m/s | -49.9°C | 1.2% | 120.3hPa | 2.6V | 00:00:00 | 00:00:00 | 00:00:00 | |
| KRY50SP-1 | 2026-09-02 06:11:12 | 52.15700 | 14.99134 | 99° | 40km/h | 15293m | -3.9m/s | -49.8°C | 1.2% | 120.2hPa | 2.6V | 00:00:00 | 00:00:00 | 00:00:00 | |
| DB0DAN | 2026-09-02 06:11:10 | 52.15697 | 14.99082 | 77° | 47km/h | 15303m | -3.4m/s | -49.6°C | 1.2% | 120.05hPa | 2.6V | 00:00:00 | 00:00:00 | 00:00:00 | |
| AA1-15 | 2026-09-02 06:11:08 | 52.15691 | 14.99035 | 80° | 66km/h | 15310m | -3.5m/s | -49.8°C | 0.4% | 119.9hPa | 2.6V | 18:12:15 | 02:07:58 | 00:00:00 | |
| DL1XH-west | 2026-09-02 06:11:07 | 52.15689 | 14.99007 | 85° | 71km/h | 15314m | -3.4m/s | 0°C | 0% | 0hPa | 2.7V | 18:12:15 | 02:07:57 | 00:00:00 | |
| AA1-15 | 2026-09-02 06:10:57 | 52.15730 | 14.98758 | 106° | 38km/h | 15351m | -3.7m/s | -49.8°C | 0.3% | 119.1hPa | 2.6V | 18:12:15 | 02:07:47 | 00:00:00 | |
| SP3WXH-11 | 2026-09-02 06:10:57 | 52.15732 | 14.98743 | 95° | 38km/h | 15355m | -3.6m/s | -49.8°C | 1.2% | 119.1hPa | 2.7V | 00:00:00 | 00:00:00 | 00:00:00 | |
| DL1XH-west | 2026-09-02 06:10:57 | 52.15732 | 14.98743 | 96° | 40km/h | 15355m | -3.6m/s | 0°C | 0% | 0hPa | 2.7V | 18:12:15 | 02:07:46 | 00:00:00 | |
| DB0DAN | 2026-09-02 06:10:55 | 52.15732 | 14.98726 | 87° | 42km/h | 15359m | -3.5m/s | -49.7°C | 1.2% | 119.03hPa | 2.7V | 00:00:00 | 00:00:00 | 00:00:00 | |
| SONCRA | 2026-09-02 06:10:50 | 52.15730 | 14.98568 | 99° | 75km/h | 15381m | -3.9m/s | -49.7°C | 1.2% | 118.6hPa | 2.7V | 00:00:00 | 00:00:00 | 00:00:00 | |
| DM0DOS-11 | 2026-09-02 06:10:47 | 52.15762 | 14.98441 | 122° | 53km/h | 15399m | -3.7m/s | -50°C | 3.4% | 118.2hPa | 2.7V | 08:30:00 | 02:07:34 | 00:00:00 | |
| AA1-15 | 2026-09-02 06:10:47 | 52.15740 | 14.98509 | 111° | 71km/h | 15388m | -3.9m/s | -49.7°C | 0.4% | 118.5hPa | 2.6V | 18:12:15 | 02:07:37 | 00:00:00 | |
| DL1XH-west | 2026-09-02 06:10:45 | 52.15755 | 14.98460 | 120° | 60km/h | 15395m | -3.8m/s | 0°C | 0% | 0hPa | 2.7V | 18:12:15 | 02:07:35 | 00:00:00 | |
| SONDE2-11 | 2026-09-02 06:10:45 | 52.15762 | 14.98441 | 122° | 51km/h | 15399m | -3.7m/s | -50.0°C | 1.2% | 118.2hPa | 2.6V | 00:00:00 | 00:00:00 | 00:00:00 | |
| KRY50SP-1 | 2026-09-02 06:10:44 | 52.15755 | 14.98460 | 121° | 60km/h | 15396m | -3.8m/s | -49.9°C | 1.1% | 118.3hPa | 2.6V | 00:00:00 | 00:00:00 | 00:00:00 | |
| DB0DAN | 2026-09-02 06:10:40 | 52.15779 | 14.98382 | 93° | 31km/h | 15414m | -3.8m/s | -50°C | 1.2% | 118hPa | 2.6V | 00:00:00 | 00:00:00 | 00:00:00 | |
| DL2RXE-15 | 2026-09-02 06:10:38 | 52.15778 | 14.98367 | 84° | 38km/h | 15418m | -3.8m/s | -50.0°C | 1.2% | 117.9hPa | 2.6V | 00:00:00 | 00:00:00 | 00:00:00 | |
| DM0DOS-11 | 2026-09-02 06:10:37 | 52.15769 | 14.98255 | 90° | 69km/h | 15436m | -3.5m/s | -49.8°C | 3.6% | 117.6hPa | 2.6V | 08:30:00 | 02:07:24 | 00:00:00 | |
| AA1-15 | 2026-09-02 06:10:36 | 52.15771 | 14.98309 | 81° | 60km/h | 15429m | -3.5m/s | -49.9°C | 0.4% | 117.7hPa | 2.7V | 18:12:15 | 02:07:26 | 00:00:00 | |
| DL1XH-west | 2026-09-02 06:10:35 | 52.15769 | 14.98283 | 85° | 66km/h | 15433m | -3.5m/s | 0°C | 0% | 0hPa | 2.6V | 18:12:15 | 02:07:25 | 00:00:00 | |
| KRY50SP-1 | 2026-09-02 06:10:33 | 52.15769 | 14.98255 | 92° | 69km/h | 15436m | -3.5m/s | -49.8°C | 1.3% | 117.6hPa | 2.6V | 00:00:00 | 00:00:00 | 00:00:00 | |
| EDDB2-12 | 2026-09-02 06:10:32 | 52.15774 | 14.98198 | 104° | 68km/h | 15443m | -3.5m/s | -49.8°C | 1.3% | 117.5hPa | 2.6V | 00:00:00 | 00:00:00 | 00:00:00 | |
| 13BRC | 2026-09-02 06:10:31 | 52.15773 | 14.98198 | 105° | 69km/h | 15443m | -3.5m/s | -49.8°C | 1.3% | 117.5hPa | 2.6V | 00:00:00 | 00:00:00 | 00:00:00 | |
| KRY50SP-1 | 2026-09-02 06:10:28 | 52.15791 | 14.98128 | 119° | 51km/h | 15454m | -3.6m/s | -49.9°C | 1.2% | 117.3hPa | 2.6V | 00:00:00 | 00:00:00 | 00:00:00 | |
| DM0DOS-11 | 2026-09-02 06:10:27 | 52.15806 | 14.98058 | 81° | 33km/h | 15473m | -3.8m/s | -50.1°C | 3.4% | 116.9hPa | 2.6V | 08:30:00 | 02:07:14 | 00:00:00 | |
| AA1-15 | 2026-09-02 06:10:25 | 52.15806 | 14.98070 | 94° | 31km/h | 15469m | -3.9m/s | -50.1°C | 0.4% | 117hPa | 2.6V | 18:12:15 | 02:07:15 | 00:00:00 | |
| DB0DAN | 2026-09-02 06:10:25 | 52.15806 | 14.98070 | 94° | 29km/h | 15469m | -3.9m/s | -50.1°C | 1.2% | 117.02hPa | 2.6V | 00:00:00 | 00:00:00 | 00:00:00 | |
| DL1XH-west | 2026-09-02 06:10:25 | 52.15806 | 14.98058 | 81° | 33km/h | 15473m | -3.8m/s | 0°C | 0% | 0hPa | 2.6V | 18:12:15 | 02:07:14 | 00:00:00 | |
| KRY50SP-1 | 2026-09-02 06:10:23 | 52.15804 | 14.98043 | 75° | 38km/h | 15477m | -3.7m/s | -50.1°C | 1.2% | 116.9hPa | 2.7V | 00:00:00 | 00:00:00 | 00:00:00 | |
| SONCRA | 2026-09-02 06:10:19 | 52.15788 | 14.97932 | 87° | 68km/h | 15495m | -3.6m/s | -50.1°C | 1.3% | 116.5hPa | 2.7V | 00:00:00 | 00:00:00 | 00:00:00 | |
| EDDB2-11 | 2026-09-02 06:10:18 | 52.15788 | 14.97904 | 94° | 69km/h | 15498m | -3.6m/s | -50.1°C | 1.2% | 116.5hPa | 2.7V | 00:00:00 | 00:00:00 | 00:00:00 | |
| DM0DOS-11 | 2026-09-02 06:10:17 | 52.15800 | 14.97825 | 111° | 58km/h | 15509m | -3.6m/s | -50°C | 3.4% | 116.3hPa | 2.7V | 08:30:00 | 02:07:04 | 00:00:00 | |
| DL1XH-west | 2026-09-02 06:10:14 | 52.15800 | 14.97825 | 112° | 58km/h | 15509m | -3.6m/s | 0°C | 0% | 0hPa | 2.7V | 18:12:15 | 02:07:04 | 00:00:00 | |
| SONDE2-11 | 2026-09-02 06:10:14 | 52.15805 | 14.97805 | 115° | 49km/h | 15513m | -3.5m/s | -50.1°C | 1.2% | 116.2hPa | 2.7V | 00:00:00 | 00:00:00 | 00:00:00 | |
| SP6BVK | 2026-09-02 06:10:12 | 52.15810 | 14.97787 | 116° | 42km/h | 15517m | -3.7m/s | -50.2°C | 1.2% | 116.2hPa | 2.7V | 00:00:00 | 00:00:00 | 00:00:00 | |
| KRY50SP-1 | 2026-09-02 06:10:11 | 52.15810 | 14.97787 | 116° | 42km/h | 15517m | -3.7m/s | -50.2°C | 1.2% | 116.2hPa | 2.7V | 00:00:00 | 00:00:00 | 00:00:00 | |
| DB0DAN | 2026-09-02 06:10:10 | 52.15816 | 14.97759 | 98° | 29km/h | 15524m | -3.8m/s | -50.3°C | 1.2% | 116.01hPa | 2.7V | 00:00:00 | 00:00:00 | 00:00:00 | |
| DL1XH-west | 2026-09-02 06:10:04 | 52.15795 | 14.97657 | 73° | 66km/h | 15547m | -3.9m/s | 0°C | 0% | 0hPa | 2.7V | 18:12:15 | 02:06:54 | 00:00:00 | |
| AA1-15 | 2026-09-02 06:10:03 | 52.15791 | 14.97630 | 79° | 69km/h | 15551m | -3.9m/s | -50.5°C | 0.5% | 115.5hPa | 2.7V | 18:12:15 | 02:06:53 | 00:00:00 | |
| EDDB2-12 | 2026-09-02 06:10:01 | 52.15788 | 14.97571 | 90° | 71km/h | 15558m | -3.8m/s | -50.5°C | 1.3% | 115.4hPa | 2.6V | 00:00:00 | 00:00:00 | 00:00:00 | |
| DAC517 | 2026-09-02 06:09:58 | 52.15792 | 14.97514 | 104° | 66km/h | 15566m | -3.6m/s | -50.5°C | 1.3% | 115.3hPa | 2.6V | 00:00:00 | 00:00:00 | 00:00:00 | |
| DM0DOS-11 | 2026-09-02 06:09:57 | 52.15808 | 14.97420 | 88° | 33km/h | 15584m | -3.6m/s | -50.7°C | 3.6% | 115hPa | 2.6V | 08:30:00 | 02:06:44 | 00:00:00 | |
| DB0NH | 2026-09-02 06:09:57 | 52.15801 | 14.97468 | 111° | 53km/h | 15573m | -3.5m/s | -50.5°C | 3.5% | 115.1hPa | 2.7V | 00:00:00 | 02:06:47 | 08:30:00 | |
| DB0DAN | 2026-09-02 06:09:55 | 52.15807 | 14.97434 | 101° | 35km/h | 15580m | -3.6m/s | -50.7°C | 1.3% | 115.04hPa | 2.6V | 00:00:00 | 00:00:00 | 00:00:00 | |
| AA1-15 | 2026-09-02 06:09:52 | 52.15804 | 14.97391 | 70° | 40km/h | 15591m | -4m/s | -50.6°C | 0.4% | 114.8hPa | 2.7V | 18:12:15 | 02:06:42 | 00:00:00 | |
| DL1XH-west | 2026-09-02 06:09:49 | 52.15787 | 14.97305 | 80° | 68km/h | 15607m | -3.7m/s | 0°C | 0% | 0hPa | 2.6V | 18:12:15 | 02:06:38 | 00:00:00 | |
| SONCRA | 2026-09-02 06:09:48 | 52.15785 | 14.97277 | 86° | 69km/h | 15610m | -3.6m/s | -50.8°C | 1.3% | 114.5hPa | 2.6V | 00:00:00 | 00:00:00 | 00:00:00 | |
| DM0DOS-11 | 2026-09-02 06:09:47 | 52.15791 | 14.97190 | 104° | 68km/h | 15622m | -4m/s | -50.7°C | 3.6% | 114.3hPa | 2.6V | 08:30:00 | 02:06:34 | 00:00:00 | |
| EDDB2-11 | 2026-09-02 06:09:47 | 52.15785 | 14.97248 | 92° | 71km/h | 15614m | -3.7m/s | -50.8°C | 1.3% | 114.4hPa | 2.7V | 00:00:00 | 00:00:00 | 00:00:00 | |
| S3001 | 2026-09-02 06:09:45 | 52.15787 | 14.97218 | 98° | 69km/h | 15618m | -3.8m/s | -50.7°C | 1.3% | 114.4hPa | 2.7V | 00:00:00 | 00:00:00 | 00:00:00 | |
| AA1-15 | 2026-09-02 06:09:41 | 52.15806 | 14.97122 | 113° | 49km/h | 15634m | -3.9m/s | -50.7°C | 0.4% | 114hPa | 2.7V | 18:12:15 | 02:06:31 | 00:00:00 | |
| DB0DAN | 2026-09-02 06:09:40 | 52.15810 | 14.97105 | 110° | 38km/h | 15638m | -3.8m/s | -50.7°C | 1.2% | 114.01hPa | 2.7V | 00:00:00 | 00:00:00 | 00:00:00 | |
| KRY50SP-1 | 2026-09-02 06:09:39 | 52.15810 | 14.97105 | 111° | 40km/h | 15638m | -3.8m/s | -50.7°C | 1.2% | 114.0hPa | 2.7V | 00:00:00 | 00:00:00 | 00:00:00 | |
| DM0DOS-11 | 2026-09-02 06:09:37 | 52.15800 | 14.97015 | 69° | 53km/h | 15660m | -4m/s | -50.6°C | 3.6% | 113.6hPa | 2.7V | 08:30:00 | 02:06:24 | 00:00:00 | |
| AA1-15 | 2026-09-02 06:09:31 | 52.15791 | 14.96944 | 89° | 64km/h | 15672m | -3.6m/s | -50.5°C | 0.6% | 113.4hPa | 2.6V | 18:12:15 | 02:06:21 | 00:00:00 | |
| SP6BVK | 2026-09-02 06:09:31 | 52.15791 | 14.96944 | 90° | 64km/h | 15672m | -3.6m/s | -50.5°C | 1.3% | 113.4hPa | 2.7V | 00:00:00 | 00:00:00 | 00:00:00 | |
| EDDB2-12 | 2026-09-02 06:09:30 | 52.15791 | 14.96918 | 95° | 62km/h | 15675m | -3.4m/s | -50.6°C | 1.3% | 113.4hPa | 2.7V | 00:00:00 | 00:00:00 | 00:00:00 | |
| KRY50SP-1 | 2026-09-02 06:09:28 | 52.15798 | 14.96870 | 110° | 57km/h | 15682m | -3.8m/s | -50.6°C | 1.3% | 113.3hPa | 2.7V | 00:00:00 | 00:00:00 | 00:00:00 | |
| DM0DOS-11 | 2026-09-02 06:09:27 | 52.15813 | 14.96802 | 97° | 33km/h | 15698m | -4m/s | -50.6°C | 3.6% | 112.9hPa | 2.7V | 08:30:00 | 02:06:14 | 00:00:00 | |
| DB0DAN | 2026-09-02 06:09:25 | 52.15811 | 14.96816 | 108° | 35km/h | 15694m | -4.2m/s | -50.6°C | 1.3% | 113hPa | 2.7V | 00:00:00 | 00:00:00 | 00:00:00 | |
| AA1-15 | 2026-09-02 06:09:20 | 52.15802 | 14.96743 | 64° | 51km/h | 15714m | -4m/s | -50.7°C | 0.5% | 112.7hPa | 2.6V | 18:12:15 | 02:06:10 | 00:00:00 | |
| EDDB2-11 | 2026-09-02 06:09:16 | 52.15780 | 14.96617 | 87° | 71km/h | 15735m | -4.1m/s | -50.6°C | 1.3% | 112.3hPa | 2.6V | 00:00:00 | 00:00:00 | 00:00:00 | |
| KRY50SP-1 | 2026-09-02 06:09:11 | 52.15786 | 14.96534 | 108° | 62km/h | 15746m | -3.7m/s | -50.3°C | 1.3% | 112.1hPa | 2.6V | 00:00:00 | 00:00:00 | 00:00:00 | |
| DB0DAN | 2026-09-02 06:09:10 | 52.15796 | 14.96492 | 113° | 46km/h | 15754m | -4m/s | -50.2°C | 1.3% | 112.02hPa | 2.6V | 00:00:00 | 00:00:00 | 00:00:00 | |
| AA1-15 | 2026-09-02 06:09:09 | 52.15800 | 14.96476 | 111° | 38km/h | 15758m | -4m/s | -50.2°C | 0.5% | 111.9hPa | 2.6V | 18:12:15 | 02:05:59 | 00:00:00 | |
| 13BRC | 2026-09-02 06:09:08 | 52.15803 | 14.96461 | 102° | 33km/h | 15762m | -3.9m/s | -50.2°C | 1.3% | 111.9hPa | 2.6V | 00:00:00 | 00:00:00 | 00:00:00 | |
| DM0DOS-11 | 2026-09-02 06:09:07 | 52.15794 | 14.96402 | 66° | 51km/h | 15777m | -3.9m/s | -50.1°C | 3.6% | 111.6hPa | 2.6V | 08:30:00 | 02:05:54 | 00:00:00 | |
| AA1-15 | 2026-09-02 06:08:58 | 52.15778 | 14.96240 | 97° | 73km/h | 15801m | -4m/s | -50°C | 0.5% | 111.2hPa | 2.6V | 18:12:15 | 02:05:48 | 00:00:00 | |
| DM0DOS-11 | 2026-09-02 06:08:57 | 52.15797 | 14.96141 | 115° | 51km/h | 15816m | -4m/s | -49.7°C | 3.3% | 110.9hPa | 2.7V | 08:30:00 | 02:05:44 | 00:00:00 | |
| DB0DAN | 2026-09-02 06:08:55 | 52.15791 | 14.96161 | 113° | 57km/h | 15812m | -4.1m/s | -49.7°C | 1.2% | 110.98hPa | 2.7V | 00:00:00 | 00:00:00 | 00:00:00 | |
| SP3WXH-11 | 2026-09-02 06:08:52 | 52.15806 | 14.96108 | 110° | 35km/h | 15825m | -3.9m/s | -49.7°C | 1.2% | 110.8hPa | 2.7V | 00:00:00 | 00:00:00 | 00:00:00 | |
| DB0NH | 2026-09-02 06:08:49 | 52.15808 | 14.96068 | 77° | 55km/h | 15836m | -4.0m/s | -49.6°C | 3.5% | 110.5hPa | 2.7V | 00:00:00 | 02:05:39 | 00:00:00 | |
| DAC517 | 2026-09-02 06:08:48 | 52.15808 | 14.96068 | 77° | 38km/h | 15836m | -4.0m/s | -49.6°C | 1.2% | 110.6hPa | 2.7V | 00:00:00 | 00:00:00 | 00:00:00 | |
| DM0DOS-11 | 2026-09-02 06:08:47 | 52.15796 | 14.95954 | 91° | 71km/h | 15855m | -3.6m/s | -49.6°C | 3.6% | 110.2hPa | 2.7V | 08:30:00 | 02:05:34 | 00:00:00 | |
| AA1-15 | 2026-09-02 06:08:47 | 52.15801 | 14.96032 | 75° | 55km/h | 15844m | -3.8m/s | -49.6°C | 0.5% | 110.5hPa | 2.6V | 18:12:15 | 02:05:37 | 00:00:00 | |
| EDDB2-11 | 2026-09-02 06:08:45 | 52.15795 | 14.95954 | 91° | 69km/h | 15855m | -3.6m/s | -49.6°C | 1.3% | 110.2hPa | 2.6V | 00:00:00 | 00:00:00 | 00:00:00 | |
| S3001 | 2026-09-02 06:08:43 | 52.15797 | 14.95925 | 98° | 71km/h | 15859m | -3.8m/s | -49.6°C | 1.2% | 110.2hPa | 2.6V | 00:00:00 | 00:00:00 | 00:00:00 | |
| DB0DAN | 2026-09-02 06:08:40 | 52.15813 | 14.95844 | 116° | 62km/h | 15871m | -4.1m/s | -49.8°C | 1.2% | 110hPa | 2.6V | 00:00:00 | 00:00:00 | 00:00:00 | |
| DL2RXE-15 | 2026-09-02 06:08:39 | 52.15813 | 14.95844 | 117° | 64km/h | 15871m | -4.1m/s | -49.8°C | 1.2% | 110.0hPa | 2.7V | 00:00:00 | 00:00:00 | 00:00:00 | |
| KRY50SP-1 | 2026-09-02 06:08:38 | 52.15820 | 14.95822 | 122° | 58km/h | 15875m | -4.2m/s | -49.8°C | 1.2% | 109.9hPa | 2.7V | 00:00:00 | 00:00:00 | 00:00:00 | |
| DM0DOS-11 | 2026-09-02 06:08:37 | 52.15847 | 14.95751 | 99° | 27km/h | 15896m | -3.9m/s | -49.9°C | 3.5% | 109.6hPa | 2.7V | 08:30:00 | 02:05:24 | 00:00:00 | |
| AA1-15 | 2026-09-02 06:08:36 | 52.15841 | 14.95774 | 124° | 37km/h | 15887m | -4.1m/s | -50°C | 0.4% | 109.7hPa | 2.6V | 18:12:15 | 02:05:26 | 00:00:00 | |
| KRY50SP-1 | 2026-09-02 06:08:33 | 52.15847 | 14.95751 | 100° | 27km/h | 15896m | -3.9m/s | -49.9°C | 1.2% | 109.6hPa | 2.6V | 00:00:00 | 00:00:00 | 00:00:00 | |
| EDDB2-12 | 2026-09-02 06:08:28 | 52.15839 | 14.95635 | 92° | 66km/h | 15918m | -3.9m/s | -49.7°C | 1.2% | 109.3hPa | 2.6V | 00:00:00 | 00:00:00 | 00:00:00 | |
| DM0DOS-11 | 2026-09-02 06:08:27 | 52.15858 | 14.95530 | 119° | 60km/h | 15934m | -3.9m/s | -49.7°C | 3.4% | 108.9hPa | 2.6V | 08:30:00 | 02:05:14 | 00:00:00 | |
| AA1-15 | 2026-09-02 06:08:26 | 52.15845 | 14.95579 | 107° | 69km/h | 15926m | -3.9m/s | -49.7°C | 0.4% | 109.1hPa | 2.6V | 18:12:15 | 02:05:16 | 00:00:00 | |
| DF8AY | 2026-09-02 06:08:25 | 52.15851 | 14.95553 | 114° | 66km/h | 15930m | -3.9m/s | 0°C | 0% | 0hPa | 2.6V | 18:12:15 | 02:05:15 | 00:00:00 | |
| DB0DAN | 2026-09-02 06:08:25 | 52.15851 | 14.95553 | 114° | 64km/h | 15930m | -3.9m/s | -49.7°C | 1.2% | 109.02hPa | 2.6V | 00:00:00 | 00:00:00 | 00:00:00 | |
| AA1-15 | 2026-09-02 06:08:16 | 52.15890 | 14.95425 | 78° | 38km/h | 15966m | -3.9m/s | -49.7°C | 0.3% | 108.4hPa | 2.7V | 18:12:15 | 02:05:06 | 00:00:00 | |
| KRY50SP-1 | 2026-09-02 06:08:15 | 52.15890 | 14.95425 | 79° | 38km/h | 15966m | -3.9m/s | -49.7°C | 1.1% | 108.4hPa | 2.7V | 00:00:00 | 00:00:00 | 00:00:00 | |
| EDDB2-11 | 2026-09-02 06:08:14 | 52.15884 | 14.95363 | 87° | 62km/h | 15977m | -3.6m/s | -49.7°C | 1.2% | 108.2hPa | 2.7V | 00:00:00 | 00:00:00 | 00:00:00 | |
| S3001 | 2026-09-02 06:08:12 | 52.15884 | 14.95337 | 93° | 66km/h | 15981m | -3.9m/s | -49.7°C | 1.2% | 108.2hPa | 2.7V | 00:00:00 | 00:00:00 | 00:00:00 | |
| DB0DAN | 2026-09-02 06:08:10 | 52.15891 | 14.95281 | 106° | 66km/h | 15989m | -4.1m/s | -49.7°C | 1.2% | 108.02hPa | 2.7V | 00:00:00 | 00:00:00 | 00:00:00 | |
| SONDE2-11 | 2026-09-02 06:08:10 | 52.15896 | 14.95255 | 112° | 66km/h | 15993m | -4.1m/s | -49.6°C | 1.2% | 108.0hPa | 2.6V | 00:00:00 | 00:00:00 | 00:00:00 | |
| DM0DOS-11 | 2026-09-02 06:08:07 | 52.15928 | 14.95169 | 118° | 29km/h | 16012m | -3.8m/s | -49.8°C | 3.4% | 107.6hPa | 2.6V | 08:30:00 | 02:04:54 | 00:00:00 | |
| AA1-15 | 2026-09-02 06:08:05 | 52.15924 | 14.95180 | 125° | 37km/h | 16009m | -3.7m/s | -49.8°C | 0.3% | 107.7hPa | 2.7V | 18:12:15 | 02:04:55 | 00:00:00 | |
| DL1XH-west | 2026-09-02 06:07:58 | 52.15922 | 14.95085 | 81° | 55km/h | 16037m | -4m/s | -49.7°C | 0.4% | 107.2hPa | 2.6V | 18:12:15 | 02:04:48 | 00:00:00 | |
| DO3MHA-11 | 2026-09-02 06:07:58 | 52.15922 | 14.95084 | 82° | 58km/h | 16037m | -3.9m/s | -49.6°C | 3.5% | 107.2hPa | 2.7V | 00:00:00 | 02:04:48 | 00:00:00 | |
| DM0DOS-11 | 2026-09-02 06:07:57 | 52.15929 | 14.94984 | 110° | 64km/h | 16052m | -3.8m/s | -49.7°C | 3.4% | 107hPa | 2.7V | 08:30:00 | 02:04:44 | 00:00:00 | |
| EDDB2-12 | 2026-09-02 06:07:57 | 52.15921 | 14.95061 | 87° | 58km/h | 16041m | -3.9m/s | -49.7°C | 1.2% | 107.2hPa | 2.6V | 00:00:00 | 00:00:00 | 00:00:00 | |
| DB0DAN | 2026-09-02 06:07:55 | 52.15924 | 14.95010 | 103° | 62km/h | 16048m | -3.7m/s | -49.7°C | 1.2% | 107.06hPa | 2.6V | 00:00:00 | 00:00:00 | 00:00:00 | |
| AA1-15 | 2026-09-02 06:07:54 | 52.15929 | 14.94984 | 111° | 64km/h | 16052m | -3.8m/s | -49.7°C | 0.3% | 107hPa | 2.7V | 18:12:15 | 02:04:44 | 00:00:00 | |
| DL2RXE-15 | 2026-09-02 06:07:50 | 52.15951 | 14.94923 | 131° | 49km/h | 16064m | -4.1m/s | -50.0°C | 1.1% | 106.8hPa | 2.6V | 00:00:00 | 00:00:00 | 00:00:00 | |
| DB0NH | 2026-09-02 06:07:49 | 52.15965 | 14.94897 | 133° | 44km/h | 16072m | -4.1m/s | -50.0°C | 3.4% | 106.6hPa | 2.6V | 00:00:00 | 02:04:39 | 00:00:00 | |
| SP6BVK | 2026-09-02 06:07:48 | 52.15965 | 14.94897 | 134° | 33km/h | 16072m | -4.1m/s | -50.1°C | 1.2% | 106.7hPa | 2.6V | 00:00:00 | 00:00:00 | 00:00:00 | |
| DM0DOS-11 | 2026-09-02 06:07:47 | 52.15970 | 14.94848 | 70° | 37km/h | 16092m | -3.9m/s | -49.8°C | 3.4% | 106.3hPa | 2.6V | 08:30:00 | 02:04:34 | 00:00:00 | |
| DL1XH-west | 2026-09-02 06:07:46 | 52.15974 | 14.94871 | 87° | 22km/h | 16084m | -4m/s | -49.9°C | 0.3% | 106.4hPa | 2.6V | 18:12:15 | 02:04:36 | 00:00:00 | |
| AA1-15 | 2026-09-02 06:07:43 | 52.15967 | 14.94832 | 73° | 46km/h | 16096m | -3.9m/s | -49.8°C | 0.3% | 106.3hPa | 2.7V | 18:12:15 | 02:04:33 | 00:00:00 | |
| DL1XH-west | 2026-09-02 06:07:36 | 52.15980 | 14.94669 | 122° | 55km/h | 16123m | -3.9m/s | -49.7°C | 0.3% | 105.8hPa | 2.7V | 18:12:15 | 02:04:26 | 00:00:00 | |
| DL1XH1-15 | 2026-09-02 06:07:35 | 52.15994 | 14.94637 | 129° | 38km/h | 16131m | -3.8m/s | -49.8°C | 3.3% | 105.7hPa | 2.6V | 08:30:00 | 02:04:24 | 00:00:00 | |
| AA1-15 | 2026-09-02 06:07:32 | 52.16003 | 14.94617 | 114° | 24km/h | 16139m | -3.8m/s | -49.9°C | 0.2% | 105.5hPa | 2.7V | 18:12:15 | 02:04:22 | 00:00:00 | |
| DM0DOS-11 | 2026-09-02 06:07:27 | 52.15983 | 14.94494 | 87° | 60km/h | 16171m | -3.9m/s | -50°C | 3.6% | 105hPa | 2.6V | 08:30:00 | 02:04:14 | 00:00:00 | |
| DL1XH-west | 2026-09-02 06:07:26 | 52.15988 | 14.94540 | 72° | 53km/h | 16163m | -4.2m/s | -50°C | 0.4% | 105.2hPa | 2.7V | 18:12:15 | 02:04:16 | 00:00:00 | |
| AA1-15 | 2026-09-02 06:07:21 | 52.15991 | 14.94425 | 114° | 53km/h | 16182m | -3.6m/s | -49.9°C | 0.2% | 104.9hPa | 2.7V | 18:12:15 | 02:04:11 | 00:00:00 | |
| DO3MHA-11 | 2026-09-02 06:07:21 | 52.15990 | 14.94425 | 114° | 33km/h | 16182m | -3.5m/s | -49.8°C | 3.4% | 104.8hPa | 2.7V | 00:00:00 | 02:04:11 | 00:00:00 | |
| DL2RXE-15 | 2026-09-02 06:07:20 | 52.15990 | 14.94425 | 115° | 53km/h | 16182m | -3.6m/s | -49.9°C | 1.1% | 104.9hPa | 2.7V | 00:00:00 | 00:00:00 | 00:00:00 | |
| DB0NH | 2026-09-02 06:07:19 | 52.16002 | 14.94393 | 127° | 38km/h | 16190m | -3.9m/s | -50.1°C | 3.4% | 104.7hPa | 2.7V | 00:00:00 | 02:04:09 | 00:00:00 | |
| DM0DOS-11 | 2026-09-02 06:07:17 | 52.16013 | 14.94352 | 60° | 22km/h | 16211m | -4.1m/s | -50.2°C | 3.4% | 104.4hPa | 2.7V | 08:30:00 | 02:04:04 | 00:00:00 | |
| DL1XH-west | 2026-09-02 06:07:15 | 52.16015 | 14.94359 | 81° | 16km/h | 16207m | -4.2m/s | -50.3°C | 0.3% | 104.5hPa | 2.7V | 18:12:15 | 02:04:05 | 00:00:00 | |
| AA1-15 | 2026-09-02 06:07:10 | 52.15995 | 14.94297 | 72° | 51km/h | 16226m | -3.7m/s | -50.1°C | 0.4% | 104.2hPa | 2.7V | 18:12:15 | 02:04:00 | 00:00:00 | |
| DL1XH1-15 | 2026-09-02 06:07:10 | 52.15999 | 14.94191 | 114° | 46km/h | 16245m | -3.6m/s | -49.9°C | 3.4% | 103.9hPa | 2.6V | 08:30:00 | 02:03:55 | 00:00:00 | |
| DB0DAN | 2026-09-02 06:07:10 | 52.15995 | 14.94297 | 72° | 49km/h | 16226m | -3.7m/s | -50.1°C | 1.2% | 104.16hPa | 2.7V | 00:00:00 | 00:00:00 | 00:00:00 | |
| DL1XH-west | 2026-09-02 06:07:05 | 52.15999 | 14.94191 | 114° | 46km/h | 16245m | -3.7m/s | -49.9°C | 0.3% | 103.9hPa | 2.6V | 18:12:15 | 02:03:55 | 00:00:00 | |
| AA1-15 | 2026-09-02 06:06:59 | 52.16015 | 14.94139 | 55° | 16km/h | 16269m | -4.1m/s | -50.4°C | 0.3% | 103.5hPa | 2.7V | 18:12:15 | 02:03:49 | 00:00:00 | |
| DM0DOS-11 | 2026-09-02 06:06:57 | 52.15990 | 14.94076 | 70° | 55km/h | 16289m | -3.7m/s | -50.3°C | 3.5% | 103.2hPa | 2.6V | 08:30:00 | 02:03:44 | 00:00:00 | |
| DB0DAN | 2026-09-02 06:06:55 | 52.15995 | 14.94095 | 63° | 47km/h | 16285m | -3.7m/s | -50.4°C | 1.2% | 103.26hPa | 2.6V | 00:00:00 | 00:00:00 | 00:00:00 | |
| DL1XH-west | 2026-09-02 06:06:54 | 52.15990 | 14.94076 | 70° | 55km/h | 16289m | -3.7m/s | -50.3°C | 0.4% | 103.2hPa | 2.6V | 18:12:15 | 02:03:44 | 00:00:00 | |
| AA1-15 | 2026-09-02 06:06:48 | 52.15995 | 14.93944 | 116° | 42km/h | 16312m | -3.7m/s | -50.3°C | 0.4% | 102.8hPa | 2.7V | 18:12:15 | 02:03:38 | 00:00:00 | |
| DM0DOS-11 | 2026-09-02 06:06:47 | 52.16003 | 14.93909 | 62° | 15km/h | 16327m | -3.7m/s | -50.6°C | 3.5% | 102.6hPa | 2.6V | 08:30:00 | 02:03:34 | 00:00:00 | |
| SP6BVK | 2026-09-02 06:06:46 | 52.15999 | 14.93931 | 120° | 33km/h | 16316m | -3.6m/s | -50.4°C | 1.2% | 102.7hPa | 2.6V | 00:00:00 | 00:00:00 | 00:00:00 | |
| DL1XH1-15 | 2026-09-02 06:06:45 | 52.16001 | 14.93903 | 42° | 20km/h | 16330m | -3.9m/s | -50.6°C | 3.5% | 102.5hPa | 2.6V | 08:30:00 | 02:03:33 | 00:00:00 | |
| DL1XH-west | 2026-09-02 06:06:43 | 52.16001 | 14.93903 | 42° | 20km/h | 16330m | -3.9m/s | -50.6°C | 0.3% | 102.5hPa | 2.6V | 18:12:15 | 02:03:33 | 00:00:00 | |
| 13BRC | 2026-09-02 06:06:42 | 52.16001 | 14.93903 | 43° | 20km/h | 16331m | -3.9m/s | -50.6°C | 1.1% | 102.5hPa | 2.7V | 00:00:00 | 00:00:00 | 00:00:00 | |
| DB0DAN | 2026-09-02 06:06:40 | 52.15982 | 14.93875 | 48° | 42km/h | 16342m | -4.1m/s | -50.6°C | 1.2% | 102.29hPa | 2.7V | 00:00:00 | 00:00:00 | 00:00:00 | |
| S3001 | 2026-09-02 06:06:39 | 52.15975 | 14.93860 | 55° | 51km/h | 16346m | -3.9m/s | -50.6°C | 1.2% | 102.2hPa | 2.7V | 00:00:00 | 00:00:00 | 00:00:00 | |
| DM0DOS-11 | 2026-09-02 06:06:38 | 52.15960 | 14.93746 | 98° | 55km/h | 16365m | -3.8m/s | -50.5°C | 3.5% | 101.9hPa | 2.7V | 08:30:00 | 02:03:24 | 00:00:00 | |
| AA1-15 | 2026-09-02 06:06:37 | 52.15963 | 14.93818 | 74° | 60km/h | 16354m | -3.6m/s | -50.6°C | 0.4% | 102.1hPa | 2.6V | 18:12:15 | 02:03:27 | 00:00:00 | |
| DL2RXE-15 | 2026-09-02 06:06:36 | 52.15962 | 14.93818 | 74° | 60km/h | 16354m | -3.6m/s | -50.6°C | 1.2% | 102.1hPa | 2.6V | 00:00:00 | 00:00:00 | 00:00:00 | |
| DL1XH1-15 | 2026-09-02 06:06:35 | 52.15963 | 14.93725 | 105° | 49km/h | 16369m | -4m/s | -50.5°C | 3.5% | 101.9hPa | 2.6V | 08:30:00 | 02:03:23 | 00:00:00 | |
| DL1XH-west | 2026-09-02 06:06:33 | 52.15962 | 14.93725 | 105° | 49km/h | 16369m | -4m/s | -50.5°C | 0.4% | 101.9hPa | 2.6V | 18:12:15 | 02:03:23 | 00:00:00 | |
| KRY50SP-1 | 2026-09-02 06:06:33 | 52.15962 | 14.93725 | 106° | 49km/h | 16369m | -4.0m/s | -50.5°C | 1.2% | 101.9hPa | 2.7V | 00:00:00 | 00:00:00 | 00:00:00 | |
| DM0DOS-11 | 2026-09-02 06:06:27 | 52.15945 | 14.93629 | 49° | 51km/h | 16403m | -4m/s | -50.8°C | 3.6% | 101.3hPa | 2.7V | 08:30:00 | 02:03:14 | 00:00:00 | |
| AA1-15 | 2026-09-02 06:06:26 | 52.15961 | 14.93653 | 40° | 35km/h | 16395m | -3.9m/s | -50.8°C | 0.4% | 101.5hPa | 2.7V | 18:12:15 | 02:03:16 | 00:00:00 | |
| DL1XH1-15 | 2026-09-02 06:06:25 | 52.15930 | 14.93591 | 64° | 60km/h | 16411m | -3.9m/s | -50.7°C | 3.6% | 101.2hPa | 2.6V | 08:30:00 | 02:03:12 | 00:00:00 | |
| DB0DAN | 2026-09-02 06:06:25 | 52.15954 | 14.93643 | 43° | 42km/h | 16399m | -4.1m/s | -50.8°C | 1.2% | 101.41hPa | 2.7V | 00:00:00 | 00:00:00 | 00:00:00 | |
| DL1XH-west | 2026-09-02 06:06:22 | 52.15930 | 14.93591 | 64° | 60km/h | 16411m | -3.9m/s | -50.7°C | 0.4% | 101.2hPa | 2.6V | 18:12:15 | 02:03:12 | 00:00:00 | |
| KRY50SP-1 | 2026-09-02 06:06:20 | 52.15924 | 14.93567 | 74° | 62km/h | 16415m | -3.7m/s | -50.6°C | 1.2% | 101.2hPa | 2.6V | 00:00:00 | 00:00:00 | 00:00:00 | |
| DB0NH | 2026-09-02 06:06:19 | 52.15919 | 14.93517 | 90° | 57km/h | 16423m | -3.6m/s | -50.5°C | 3.5% | 101.0hPa | 2.6V | 00:00:00 | 02:03:09 | 00:00:00 | |
| SP3WXH-11 | 2026-09-02 06:06:18 | 52.15923 | 14.93473 | 104° | 49km/h | 16430m | -3.6m/s | -50.5°C | 1.1% | 100.9hPa | 2.6V | 00:00:00 | 00:00:00 | 00:00:00 | |
| DM0DOS-11 | 2026-09-02 06:06:17 | 52.15932 | 14.93430 | 109° | 24km/h | 16441m | -3.8m/s | -50.6°C | 3.5% | 100.8hPa | 2.6V | 08:30:00 | 02:03:04 | 00:00:00 | |
| AA1-15 | 2026-09-02 06:06:15 | 52.15930 | 14.93441 | 113° | 33km/h | 16437m | -3.7m/s | -50.6°C | 0.3% | 100.8hPa | 2.6V | 18:12:15 | 02:03:05 | 00:00:00 | |
| DL1XH1-15 | 2026-09-02 06:06:15 | 52.15930 | 14.93407 | 48° | 26km/h | 16452m | -3.7m/s | -50.6°C | 3.6% | 100.6hPa | 2.6V | 08:30:00 | 02:03:01 | 00:00:00 | |
| DL1XH-west | 2026-09-02 06:06:11 | 52.15930 | 14.93407 | 49° | 26km/h | 16452m | -3.7m/s | -50.6°C | 0.4% | 100.6hPa | 2.6V | 18:12:15 | 02:03:01 | 00:00:00 | |
| DB0DAN | 2026-09-02 06:06:10 | 52.15925 | 14.93399 | 45° | 31km/h | 16456m | -3.7m/s | -50.5°C | 1.2% | 100.54hPa | 2.6V | 00:00:00 | 00:00:00 | 00:00:00 | |
| EDDB2-11 | 2026-09-02 06:06:09 | 52.15918 | 14.93387 | 48° | 42km/h | 16459m | -3.6m/s | -50.4°C | 1.2% | 100.5hPa | 2.7V | 00:00:00 | 00:00:00 | 00:00:00 | |
| S3001 | 2026-09-02 06:06:08 | 52.15911 | 14.93372 | 55° | 49km/h | 16463m | -3.7m/s | -50.4°C | 1.2% | 100.5hPa | 2.7V | 00:00:00 | 00:00:00 | 00:00:00 | |
| DM0DOS-11 | 2026-09-02 06:06:07 | 52.15893 | 14.93282 | 87° | 62km/h | 16477m | -3.7m/s | -50.5°C | 3.6% | 100.2hPa | 2.7V | 08:30:00 | 02:02:54 | 00:00:00 | |
| DL1XH1-15 | 2026-09-02 06:06:05 | 52.15900 | 14.93213 | 110° | 51km/h | 16489m | -3.9m/s | -50.5°C | 3.4% | 100hPa | 2.6V | 08:30:00 | 02:02:51 | 00:00:00 | |
| AA1-15 | 2026-09-02 06:06:04 | 52.15893 | 14.93282 | 88° | 62km/h | 16477m | -3.7m/s | -50.5°C | 0.4% | 100.2hPa | 2.7V | 18:12:15 | 02:02:54 | 00:00:00 | |
| DL1XH-west | 2026-09-02 06:06:00 | 52.15905 | 14.93195 | 116° | 44km/h | 16493m | -3.9m/s | -50.5°C | 0.3% | 100hPa | 2.6V | 18:12:15 | 02:02:50 | 00:00:00 | |
| NBG1-10 | 2026-09-02 06:06:00 | 52.15905 | 14.93195 | 117° | 42km/h | 16493m | -3.9m/s | -50.5°C | 3.4% | 99.9hPa | 2.7V | 00:00:00 | 02:02:50 | 00:00:00 | |
| KRY50SP-1 | 2026-09-02 06:05:59 | 52.15905 | 14.93195 | 117° | 44km/h | 16493m | -3.9m/s | -50.5°C | 1.1% | 100.0hPa | 2.7V | 00:00:00 | 00:00:00 | 00:00:00 | |
| DL1XH1-15 | 2026-09-02 06:05:55 | 52.15893 | 14.93090 | 70° | 55km/h | 16525m | -3.6m/s | -50.5°C | 3.6% | 99.5hPa | 2.7V | 08:30:00 | 02:02:41 | 00:00:00 | |
| DB0DAN | 2026-09-02 06:05:55 | 52.15913 | 14.93147 | 57° | 22km/h | 16511m | -3.4m/s | -50.6°C | 1.2% | 99.71hPa | 2.7V | 00:00:00 | 00:00:00 | 00:00:00 | |
| AA1-15 | 2026-09-02 06:05:54 | 52.15909 | 14.93138 | 54° | 33km/h | 16514m | -3.7m/s | -50.5°C | 0.4% | 99.7hPa | 2.6V | 18:12:15 | 02:02:44 | 00:00:00 | |
| DL1XH-west | 2026-09-02 06:05:49 | 52.15887 | 14.93042 | 88° | 62km/h | 16532m | -3.7m/s | -50.7°C | 0.4% | 99.3hPa | 2.6V | 18:12:15 | 02:02:39 | 00:00:00 | |
| SP3WXH-11 | 2026-09-02 06:05:47 | 52.15895 | 14.92968 | 111° | 58km/h | 16544m | -3.9m/s | -50.6°C | 1.1% | 99.2hPa | 2.7V | 00:00:00 | 00:00:00 | 00:00:00 | |
| DL1XH1-15 | 2026-09-02 06:05:45 | 52.15923 | 14.92894 | 115° | 22km/h | 16563m | -3.4m/s | -50.7°C | 3.6% | 98.9hPa | 2.7V | 08:30:00 | 02:02:31 | 00:00:00 | |
| AA1-15 | 2026-09-02 06:05:43 | 52.15914 | 14.92914 | 128° | 38km/h | 16556m | -3.9m/s | -50.7°C | 0.3% | 99hPa | 2.6V | 18:12:15 | 02:02:33 | 00:00:00 | |
| KRY50SP-1 | 2026-09-02 06:05:43 | 52.15914 | 14.92914 | 129° | 38km/h | 16556m | -3.9m/s | -50.7°C | 1.1% | 99.0hPa | 2.7V | 00:00:00 | 00:00:00 | 00:00:00 | |
| DAC517 | 2026-09-02 06:05:42 | 52.15914 | 14.92914 | 129° | 38km/h | 16556m | -3.9m/s | -50.7°C | 1.1% | 99.0hPa | 2.7V | 00:00:00 | 00:00:00 | 00:00:00 | |
| 13BRC | 2026-09-02 06:05:41 | 52.15919 | 14.92903 | 128° | 31km/h | 16559m | -3.7m/s | -50.7°C | 1.2% | 99.0hPa | 2.7V | 00:00:00 | 00:00:00 | 00:00:00 | |
| DB0DAN | 2026-09-02 06:05:40 | 52.15924 | 14.92886 | 90° | 18km/h | 16566m | -3.2m/s | -50.7°C | 1.2% | 98.84hPa | 2.7V | 00:00:00 | 00:00:00 | 00:00:00 | |
| DL1XH-west | 2026-09-02 06:05:38 | 52.15920 | 14.92866 | 63° | 33km/h | 16573m | -3.8m/s | -50.6°C | 0.3% | 98.8hPa | 2.6V | 18:12:15 | 02:02:28 | 00:00:00 | |
| S3001 | 2026-09-02 06:05:37 | 52.15915 | 14.92853 | 64° | 40km/h | 16577m | -3.9m/s | -50.6°C | 1.1% | 98.7hPa | 2.6V | 00:00:00 | 00:00:00 | 00:00:00 | |
| KRY50SP-1 | 2026-09-02 06:05:36 | 52.15915 | 14.92853 | 66° | 42km/h | 16577m | -3.9m/s | -50.6°C | 1.1% | 98.7hPa | 2.6V | 00:00:00 | 00:00:00 | 00:00:00 | |
| DL1XH1-15 | 2026-09-02 06:05:35 | 52.15913 | 14.92720 | 111° | 58km/h | 16599m | -3.8m/s | -50.8°C | 3.6% | 98.3hPa | 2.6V | 08:30:00 | 02:02:21 | 00:00:00 | |
| AA1-15 | 2026-09-02 06:05:32 | 52.15908 | 14.92744 | 103° | 60km/h | 16596m | -3.5m/s | -50.7°C | 0.4% | 98.4hPa | 2.6V | 18:12:15 | 02:02:22 | 00:00:00 | |
| DL1XH-west | 2026-09-02 06:05:28 | 52.15934 | 14.92666 | 133° | 44km/h | 16611m | -4m/s | -50.9°C | 0.4% | 98.1hPa | 2.7V | 18:12:15 | 02:02:18 | 00:00:00 | |
| DL2RXE-15 | 2026-09-02 06:05:27 | 52.15941 | 14.92654 | 138° | 37km/h | 16615m | -4.0m/s | -50.9°C | 1.2% | 98.1hPa | 2.6V | 00:00:00 | 00:00:00 | 00:00:00 | |
| KRY50SP-1 | 2026-09-02 06:05:26 | 52.15947 | 14.92645 | 136° | 27km/h | 16619m | -4.0m/s | -50.9°C | 1.2% | 98.0hPa | 2.6V | 00:00:00 | 00:00:00 | 00:00:00 | |
| DL1XH1-15 | 2026-09-02 06:05:25 | 52.15944 | 14.92600 | 63° | 40km/h | 16638m | -3.7m/s | -50.6°C | 3.5% | 97.8hPa | 2.6V | 08:30:00 | 02:02:11 | 00:00:00 | |
| AA1-15 | 2026-09-02 06:05:21 | 52.15944 | 14.92600 | 64° | 40km/h | 16638m | -3.7m/s | -50.6°C | 0.3% | 97.8hPa | 2.6V | 18:12:15 | 02:02:11 | 00:00:00 | |
| DF8AY | 2026-09-02 06:05:17 | 52.15932 | 14.92518 | 90° | 60km/h | 16653m | -4m/s | 0°C | 0% | 0hPa | 2.6V | 18:12:15 | 02:02:07 | 00:00:00 | |
| DL1XH1-15 | 2026-09-02 06:05:15 | 52.15959 | 14.92407 | 131° | 27km/h | 16675m | -3.5m/s | -50.6°C | 3.5% | 97.2hPa | 2.7V | 08:30:00 | 02:02:01 | 00:00:00 | |
| AA1-15 | 2026-09-02 06:05:11 | 52.15959 | 14.92407 | 131° | 27km/h | 16675m | -3.5m/s | -50.6°C | 0.4% | 97.2hPa | 2.7V | 18:12:15 | 02:02:01 | 00:00:00 | |
| SP3BTT-10 | 2026-09-02 06:05:11 | 52.15959 | 14.92407 | 132° | 38km/h | 16675m | -3.5m/s | -50.6°C | 3.5% | 97.2hPa | 2.7V | 00:00:00 | 00:00:00 | 00:00:00 | |
| KRY50SP-1 | 2026-09-02 06:05:09 | 52.15962 | 14.92400 | 126° | 20km/h | 16679m | -3.8m/s | -50.7°C | 1.1% | 97.1hPa | 2.7V | 00:00:00 | 00:00:00 | 00:00:00 | |
| SONCRA | 2026-09-02 06:05:08 | 52.15964 | 14.92387 | 71° | 15km/h | 16686m | -4.1m/s | -50.7°C | 1.2% | 97.0hPa | 2.7V | 00:00:00 | 00:00:00 | 00:00:00 | |
| DM0DOS-11 | 2026-09-02 06:05:07 | 52.15937 | 14.92301 | 77° | 60km/h | 16710m | -4m/s | -50.8°C | 3.6% | 96.7hPa | 2.7V | 08:30:00 | 02:01:52 | 00:00:00 | |
| DL1XH-west | 2026-09-02 06:05:07 | 52.15962 | 14.92380 | 56° | 24km/h | 16691m | -4m/s | -50.7°C | 0.3% | 97hPa | 2.7V | 18:12:15 | 02:01:57 | 00:00:00 | |
| AA1-15 | 2026-09-02 06:05:00 | 52.15935 | 14.92251 | 93° | 62km/h | 16718m | -3.8m/s | -50.8°C | 0.5% | 96.6hPa | 2.6V | 18:12:15 | 02:01:50 | 00:00:00 | |
| DL2RXE-15 | 2026-09-02 06:04:58 | 52.15936 | 14.92226 | 101° | 58km/h | 16722m | -4.0m/s | -50.8°C | 1.2% | 96.5hPa | 2.6V | 00:00:00 | 00:00:00 | 00:00:00 | |
| DM0DOS-11 | 2026-09-02 06:04:57 | 52.15951 | 14.92138 | 52° | 22km/h | 16748m | -4.2m/s | -51°C | 3.5% | 96.1hPa | 2.6V | 08:30:00 | 02:01:42 | 00:00:00 | |
| DL1XH-west | 2026-09-02 06:04:56 | 52.15948 | 14.92171 | 118° | 35km/h | 16733m | -3.6m/s | -50.8°C | 0.3% | 96.3hPa | 2.7V | 18:12:15 | 02:01:46 | 00:00:00 | |
| DL1XH1-15 | 2026-09-02 06:04:55 | 52.15947 | 14.92130 | 48° | 29km/h | 16752m | -4.1m/s | -51°C | 3.6% | 96.1hPa | 2.7V | 08:30:00 | 02:01:41 | 00:00:00 | |
| AA1-15 | 2026-09-02 06:04:49 | 52.15935 | 14.92106 | 56° | 46km/h | 16760m | -4.2m/s | -51°C | 0.4% | 96hPa | 2.7V | 18:12:15 | 02:01:39 | 00:00:00 | |
| DM0DOS-11 | 2026-09-02 06:04:47 | 52.15927 | 14.91952 | 113° | 49km/h | 16788m | -3.9m/s | -51.1°C | 3.5% | 95.6hPa | 2.6V | 08:30:00 | 02:01:32 | 00:00:00 | |
| DL1XH-west | 2026-09-02 06:04:46 | 52.15919 | 14.92020 | 89° | 60km/h | 16776m | -3.8m/s | -51.1°C | 0.5% | 95.7hPa | 2.7V | 18:12:15 | 02:01:35 | 00:00:00 | |
| DL1XH1-15 | 2026-09-02 06:04:45 | 52.15932 | 14.91935 | 119° | 42km/h | 16792m | -3.9m/s | -51.1°C | 3.5% | 95.5hPa | 2.7V | 08:30:00 | 02:01:31 | 00:00:00 | |
| DJ2DS-15 | 2026-09-02 06:04:44 | 52.15920 | 14.91995 | 97° | 58km/h | 16780m | -3.9m/s | -51.1°C | 1.2% | 95.7hPa | 2.6V | 00:00:00 | 00:00:00 | 00:00:00 | |
| AA1-15 | 2026-09-02 06:04:39 | 52.15942 | 14.91911 | 129° | 27km/h | 16800m | -4.2m/s | -51.3°C | 0.4% | 95.3hPa | 2.6V | 18:12:15 | 02:01:29 | 00:00:00 | |
| SONCRA | 2026-09-02 06:04:37 | 52.15948 | 14.91898 | 103° | 11km/h | 16808m | -4.2m/s | -51.2°C | 1.2% | 95.2hPa | 2.6V | 00:00:00 | 00:00:00 | 00:00:00 | |
| DM0DOS-11 | 2026-09-02 06:04:37 | 52.15933 | 14.91848 | 70° | 47km/h | 16828m | -3.6m/s | -50.9°C | 3.7% | 95hPa | 2.6V | 08:30:00 | 02:01:22 | 00:00:00 | |
| EDDB2-11 | 2026-09-02 06:04:36 | 52.15947 | 14.91893 | 70° | 13km/h | 16812m | -4.2m/s | -51.1°C | 1.2% | 95.2hPa | 2.6V | 00:00:00 | 00:00:00 | 00:00:00 | |
| DL1XH1-15 | 2026-09-02 06:04:35 | 52.15929 | 14.91828 | 79° | 53km/h | 16831m | -3.7m/s | -51°C | 3.7% | 94.9hPa | 2.6V | 08:30:00 | 02:01:21 | 00:00:00 | |
| DL1XH-west | 2026-09-02 06:04:34 | 52.15942 | 14.91877 | 57° | 31km/h | 16820m | -4m/s | -51°C | 0.5% | 95.1hPa | 2.7V | 18:12:15 | 02:01:24 | 00:00:00 | |
| AA1-15 | 2026-09-02 06:04:28 | 52.15931 | 14.91757 | 105° | 60km/h | 16844m | -4.3m/s | -51°C | 0.5% | 94.7hPa | 2.7V | 18:12:15 | 02:01:18 | 00:00:00 | |
| DL1XH1-15 | 2026-09-02 06:04:25 | 52.15974 | 14.91659 | 85° | 11km/h | 16877m | -4m/s | -51°C | 3.6% | 94.2hPa | 2.6V | 08:30:00 | 02:01:10 | 00:00:00 | |
| DL1XH-west | 2026-09-02 06:04:24 | 52.15957 | 14.91684 | 136° | 40km/h | 16861m | -4.1m/s | -51°C | 0.4% | 94.5hPa | 2.6V | 18:12:15 | 02:01:14 | 00:00:00 | |
| AA1-15 | 2026-09-02 06:04:17 | 52.15965 | 14.91636 | 57° | 35km/h | 16889m | -4.1m/s | -50.9°C | 0.4% | 94.1hPa | 2.6V | 18:12:15 | 02:01:07 | 00:00:00 | |
| DM0DOS-11 | 2026-09-02 06:04:17 | 52.15955 | 14.91539 | 102° | 57km/h | 16909m | -3.8m/s | -50.7°C | 3.7% | 93.8hPa | 2.6V | 08:30:00 | 02:01:02 | 00:00:00 | |
| DL1XH-west | 2026-09-02 06:04:14 | 52.15954 | 14.91584 | 83° | 53km/h | 16901m | -4m/s | -50.8°C | 0.5% | 93.8hPa | 2.7V | 18:12:15 | 02:01:04 | 00:00:00 | |
| DB0NH | 2026-09-02 06:04:13 | 52.15953 | 14.91562 | 93° | 42km/h | 16906m | -3.9m/s | -50.7°C | 3.7% | 93.8hPa | 2.6V | 00:00:00 | 02:01:03 | 00:00:00 | |
| KRY50SP-1 | 2026-09-02 06:04:12 | 52.15953 | 14.91562 | 94° | 57km/h | 16906m | -3.9m/s | -50.7°C | 1.2% | 93.8hPa | 2.6V | 00:00:00 | 00:00:00 | 00:00:00 | |
| DJ2DS-15 | 2026-09-02 06:04:08 | 52.15985 | 14.91460 | 136° | 27km/h | 16929m | -4.2m/s | -50.8°C | 1.2% | 93.5hPa | 2.6V | 00:00:00 | 00:00:00 | 00:00:00 | |
| DM0DOS-11 | 2026-09-02 06:04:07 | 52.15984 | 14.91424 | 54° | 35km/h | 16949m | -4.3m/s | -50.9°C | 3.5% | 93.2hPa | 2.6V | 08:30:00 | 02:00:52 | 00:00:00 | |
| AA1-15 | 2026-09-02 06:04:06 | 52.15989 | 14.91453 | 129° | 20km/h | 16933m | -4.1m/s | -50.8°C | 0.4% | 93.4hPa | 2.7V | 18:12:15 | 02:00:56 | 00:00:00 | |
| DL1XH-west | 2026-09-02 06:04:03 | 52.15988 | 14.91434 | 55° | 26km/h | 16945m | -4.1m/s | -50.8°C | 0.4% | 93.3hPa | 2.6V | 18:12:15 | 02:00:53 | 00:00:00 | |
| SP6BVK | 2026-09-02 06:04:03 | 52.15988 | 14.91434 | 56° | 26km/h | 16945m | -4.1m/s | -50.8°C | 1.1% | 93.3hPa | 2.6V | 00:00:00 | 00:00:00 | 00:00:00 | |
| SONDE2-11 | 2026-09-02 06:04:01 | 52.15979 | 14.91411 | 58° | 42km/h | 16954m | -4.4m/s | -50.9°C | 1.1% | 93.1hPa | 2.6V | 00:00:00 | 00:00:00 | 00:00:00 | |
| KRY50SP-1 | 2026-09-02 06:04:00 | 52.15979 | 14.91411 | 59° | 42km/h | 16954m | -4.4m/s | -50.9°C | 1.1% | 93.1hPa | 2.6V | 00:00:00 | 00:00:00 | 00:00:00 | |
| 13BRC | 2026-09-02 06:03:58 | 52.15964 | 14.91351 | 80° | 60km/h | 16967m | -4.5m/s | -50.7°C | 1.2% | 92.9hPa | 2.6V | 00:00:00 | 00:00:00 | 00:00:00 | |
| DM0DOS-11 | 2026-09-02 06:03:57 | 52.15979 | 14.91222 | 120° | 35km/h | 16992m | -3.8m/s | -50.5°C | 3.6% | 92.6hPa | 2.6V | 08:30:00 | 02:00:42 | 00:00:00 | |
| DL1XH1-15 | 2026-09-02 06:03:55 | 52.15985 | 14.91203 | 99° | 18km/h | 17000m | -4.1m/s | -50.6°C | 3.6% | 92.5hPa | 2.7V | 08:30:00 | 02:00:40 | 00:00:00 | |
| AA1-15 | 2026-09-02 06:03:55 | 52.15965 | 14.91277 | 103° | 58km/h | 16980m | -4.1m/s | -50.6°C | 0.5% | 92.7hPa | 2.7V | 18:12:15 | 02:00:45 | 00:00:00 | |
| DL1XH-west | 2026-09-02 06:03:52 | 52.15979 | 14.91222 | 121° | 35km/h | 16992m | -3.8m/s | -50.5°C | 0.4% | 92.6hPa | 2.6V | 18:12:15 | 02:00:42 | 00:00:00 | |
| DJ2DS-15 | 2026-09-02 06:03:51 | 52.15982 | 14.91211 | 118° | 42km/h | 16996m | -3.8m/s | -50.5°C | 3.6% | 92.5hPa | 2.6V | 00:00:00 | 02:00:41 | 08:30:00 | |
| KRY50SP-1 | 2026-09-02 06:03:49 | 52.15985 | 14.91203 | 100° | 18km/h | 17000m | -4.1m/s | -50.6°C | 1.2% | 92.5hPa | 2.6V | 00:00:00 | 00:00:00 | 00:00:00 | |
| DM0DOS-11 | 2026-09-02 06:03:47 | 52.15941 | 14.91083 | 73° | 69km/h | 17035m | -4.6m/s | -50.5°C | 3.6% | 92hPa | 2.6V | 08:30:00 | 02:00:32 | 00:00:00 | |
| AA1-15 | 2026-09-02 06:03:44 | 52.15954 | 14.91132 | 59° | 60km/h | 17026m | -4.5m/s | -50.5°C | 0.4% | 92.1hPa | 2.7V | 18:12:15 | 02:00:34 | 00:00:00 | |
| DL1XH-west | 2026-09-02 06:03:42 | 52.15941 | 14.91083 | 73° | 69km/h | 17035m | -4.6m/s | -50.5°C | 0.4% | 92hPa | 2.6V | 18:12:15 | 02:00:32 | 00:00:00 | |
| SP6BVK | 2026-09-02 06:03:41 | 52.15941 | 14.91083 | 74° | 69km/h | 17035m | -4.6m/s | -50.5°C | 1.2% | 92.0hPa | 2.7V | 00:00:00 | 00:00:00 | 00:00:00 | |
| KRY50SP-1 | 2026-09-02 06:03:38 | 52.15936 | 14.91000 | 97° | 66km/h | 17048m | -4.1m/s | -50.5°C | 1.2% | 91.8hPa | 2.7V | 00:00:00 | 00:00:00 | 00:00:00 | |
| DM0DOS-11 | 2026-09-02 06:03:37 | 52.15948 | 14.90895 | 53° | 29km/h | 17077m | -4.3m/s | -50.4°C | 3.5% | 91.4hPa | 2.7V | 08:30:00 | 02:00:22 | 00:00:00 | |
| 13BRC | 2026-09-02 06:03:36 | 52.15943 | 14.90954 | 111° | 49km/h | 17056m | -3.9m/s | -50.4°C | 1.1% | 91.7hPa | 2.7V | 00:00:00 | 00:00:00 | 00:00:00 | |
| DO3MHA-11 | 2026-09-02 06:03:35 | 52.15951 | 14.90923 | 110° | 46km/h | 17064m | -4.1m/s | -50.4°C | 3.5% | 91.5hPa | 2.7V | 00:00:00 | 02:00:25 | 00:00:00 | |
| EDDB2-11 | 2026-09-02 06:03:34 | 52.15952 | 14.90913 | 94° | 22km/h | 17068m | -4.3m/s | -50.5°C | 1.1% | 91.5hPa | 2.7V | 00:00:00 | 00:00:00 | 00:00:00 | |
| DL1XH1-15 | 2026-09-02 06:03:33 | 52.15919 | 14.90832 | 60° | 66km/h | 17094m | -4.2m/s | -50.2°C | 3.4% | 91.1hPa | 2.7V | 08:30:00 | 02:00:18 | 00:00:00 | |
| AA1-15 | 2026-09-02 06:03:33 | 52.15951 | 14.90904 | 70° | 22km/h | 17072m | -4.4m/s | -50.5°C | 0.4% | 91.5hPa | 2.7V | 18:12:15 | 02:00:23 | 00:00:00 | |
| DL1XH-west | 2026-09-02 06:03:31 | 52.15943 | 14.90884 | 48° | 38km/h | 17081m | -4.4m/s | -50.3°C | 0.3% | 91.3hPa | 2.6V | 18:12:15 | 02:00:21 | 00:00:00 | |
| DJ2DS-15 | 2026-09-02 06:03:31 | 52.15943 | 14.90884 | 49° | 51km/h | 17082m | -4.4m/s | -50.3°C | 3.4% | 91.3hPa | 2.7V | 00:00:00 | 02:00:21 | 00:00:00 | |
| SONDE2-11 | 2026-09-02 06:03:30 | 52.15935 | 14.90870 | 49° | 49km/h | 17086m | -4.2m/s | -50.3°C | 1.1% | 91.3hPa | 2.7V | 00:00:00 | 00:00:00 | 00:00:00 | |
| DM0DOS-11 | 2026-09-02 06:03:27 | 52.15903 | 14.90666 | 101° | 57km/h | 17120m | -4.2m/s | -50.1°C | 3.4% | 90.8hPa | 2.7V | 08:30:00 | 02:00:12 | 00:00:00 | |
| NBG1-10 | 2026-09-02 06:03:27 | 52.15911 | 14.90806 | 68° | 47km/h | 17098m | -4.3m/s | -50.1°C | 3.5% | 91.0hPa | 2.7V | 00:00:00 | 02:00:17 | 00:00:00 | |
| DB0DAN | 2026-09-02 06:03:25 | 52.15901 | 14.90749 | 82° | 69km/h | 17107m | -4.5m/s | -50.1°C | 1.1% | 90.96hPa | 2.6V | 00:00:00 | 00:00:00 | 00:00:00 | |
| AA1-15 | 2026-09-02 06:03:22 | 52.15903 | 14.90666 | 102° | 57km/h | 17120m | -4.2m/s | -50.1°C | 0.3% | 90.8hPa | 2.7V | 18:12:15 | 02:00:12 | 00:00:00 | |
| DL1XH-west | 2026-09-02 06:03:20 | 52.15909 | 14.90629 | 106° | 37km/h | 17129m | -4.1m/s | -50.3°C | 0.4% | 90.7hPa | 2.6V | 18:12:15 | 02:00:10 | 00:00:00 | |
| DL1XH1-15 | 2026-09-02 06:03:19 | 52.15910 | 14.90606 | 79° | 22km/h | 17137m | -4.3m/s | -50.5°C | 3.5% | 90.6hPa | 2.7V | 08:30:00 | 02:00:08 | 00:00:00 | |
| EDDB2-12 | 2026-09-02 06:03:18 | 52.15908 | 14.90597 | 55° | 24km/h | 17141m | -4.4m/s | -50.5°C | 1.1% | 90.5hPa | 2.7V | 00:00:00 | 00:00:00 | 00:00:00 | |
| DM0DOS-11 | 2026-09-02 06:03:17 | 52.15867 | 14.90530 | 54° | 66km/h | 17164m | -4.5m/s | -50.4°C | 3.5% | 90.2hPa | 2.7V | 08:30:00 | 02:00:02 | 00:00:00 | |
| 13BRC | 2026-09-02 06:03:16 | 52.15908 | 14.90597 | 56° | 26km/h | 17141m | -4.4m/s | -50.5°C | 1.1% | 90.5hPa | 2.7V | 00:00:00 | 00:00:00 | 00:00:00 | |
| DO3MHA-11 | 2026-09-02 06:03:15 | 52.15896 | 14.90578 | 40° | 58km/h | 17150m | -4.3m/s | -50.4°C | 3.5% | 90.3hPa | 2.7V | 00:00:00 | 02:00:05 | 00:00:00 | |
| DB0NH | 2026-09-02 06:03:13 | 52.15877 | 14.90550 | 48° | 49km/h | 17159m | -4.5m/s | -50.4°C | 3.5% | 90.2hPa | 2.7V | 00:00:00 | 02:00:03 | 00:00:00 | |
| DL1XH1-15 | 2026-09-02 06:03:12 | 52.15845 | 14.90399 | 95° | 60km/h | 17184m | -4m/s | -50.2°C | 3.4% | 89.9hPa | 2.7V | 08:30:00 | 01:59:57 | 00:00:00 | |
| AA1-15 | 2026-09-02 06:03:11 | 52.15858 | 14.90506 | 62° | 69km/h | 17168m | -4.4m/s | -50.4°C | 0.4% | 90.1hPa | 2.7V | 18:12:15 | 02:00:01 | 00:00:00 | |
| DL1XH-west | 2026-09-02 06:03:09 | 52.15847 | 14.90452 | 79° | 69km/h | 17176m | -3.8m/s | -50.3°C | 0.4% | 90hPa | 2.6V | 18:12:15 | 01:59:59 | 00:00:00 | |
| DM0DOS-11 | 2026-09-02 06:03:07 | 52.15855 | 14.90322 | 76° | 20km/h | 17206m | -4.7m/s | -50.6°C | 3.5% | 89.6hPa | 2.7V | 08:30:00 | 01:59:52 | 00:00:00 | |
| AA1-15 | 2026-09-02 06:03:00 | 52.15848 | 14.90307 | 41° | 31km/h | 17215m | -4.4m/s | -50.5°C | 0.4% | 89.5hPa | 2.7V | 18:12:15 | 01:59:50 | 00:00:00 | |
| DL1XH1-15 | 2026-09-02 06:02:59 | 52.15823 | 14.90266 | 52° | 60km/h | 17228m | -4m/s | -50.4°C | 3.5% | 89.3hPa | 2.6V | 08:30:00 | 01:59:47 | 00:00:00 | |
| DL1XH-west | 2026-09-02 06:02:59 | 52.15841 | 14.90297 | 41° | 42km/h | 17219m | -4.1m/s | -50.4°C | 0.3% | 89.4hPa | 2.6V | 18:12:15 | 01:59:49 | 00:00:00 | |
| DM0DOS-11 | 2026-09-02 06:02:57 | 52.15798 | 14.90137 | 92° | 66km/h | 17249m | -4.4m/s | -50.5°C | 3.5% | 89hPa | 2.6V | 08:30:00 | 01:59:42 | 00:00:00 | |
| DJ2DS-15 | 2026-09-02 06:02:56 | 52.15807 | 14.90220 | 67° | 68km/h | 17236m | -4.2m/s | -50.4°C | 1.1% | 89.2hPa | 2.7V | 00:00:00 | 00:00:00 | 00:00:00 | |
| DB0DAN | 2026-09-02 06:02:55 | 52.15807 | 14.90220 | 68° | 66km/h | 17236m | -4.2m/s | -50.4°C | 1.1% | 89.2hPa | 2.7V | 00:00:00 | 00:00:00 | 00:00:00 | |
| DO3MHA-11 | 2026-09-02 06:02:54 | 52.15802 | 14.90192 | 77° | 47km/h | 17241m | -4.4m/s | -50.4°C | 3.5% | 89.1hPa | 2.6V | 00:00:00 | 01:59:44 | 00:00:00 | |
| DL1XH1-15 | 2026-09-02 06:02:52 | 52.15815 | 14.90041 | 108° | 27km/h | 17272m | -4.5m/s | -50.7°C | 3.5% | 88.6hPa | 2.6V | 08:30:00 | 01:59:37 | 00:00:00 | |
| DL1XH-west | 2026-09-02 06:02:49 | 52.15808 | 14.90069 | 112° | 46km/h | 17263m | -4.6m/s | -50.6°C | 0.3% | 88.8hPa | 2.7V | 18:12:15 | 01:59:39 | 00:00:00 | |
| KRY50SP-1 | 2026-09-02 06:02:48 | 52.15808 | 14.90069 | 113° | 46km/h | 17263m | -4.6m/s | -50.6°C | 1.1% | 88.8hPa | 2.6V | 00:00:00 | 00:00:00 | 00:00:00 | |
| DM0DOS-11 | 2026-09-02 06:02:47 | 52.15797 | 14.89984 | 55° | 55km/h | 17293m | -4.1m/s | -50.7°C | 3.5% | 88.4hPa | 2.6V | 08:30:00 | 01:59:32 | 00:00:00 | |
| EDDB2-12 | 2026-09-02 06:02:47 | 52.15816 | 14.90032 | 88° | 20km/h | 17277m | -4.4m/s | -50.7°C | 1.2% | 88.6hPa | 2.7V | 00:00:00 | 00:00:00 | 00:00:00 | |
| DO3MHA-11 | 2026-09-02 06:02:44 | 52.15810 | 14.90013 | 53° | 62km/h | 17286m | -4.1m/s | -50.6°C | 3.5% | 88.5hPa | 2.7V | 00:00:00 | 01:59:34 | 00:00:00 | |
| DB0NH | 2026-09-02 06:02:43 | 52.15804 | 14.90000 | 52° | 49km/h | 17290m | -4.0m/s | -50.5°C | 3.5% | 88.4hPa | 2.7V | 00:00:00 | 01:59:33 | 00:00:00 | |
| DB0DAN | 2026-09-02 06:02:40 | 52.15782 | 14.89939 | 67° | 66km/h | 17302m | -4.4m/s | -50.8°C | 1.2% | 88.27hPa | 2.7V | 00:00:00 | 00:00:00 | 00:00:00 | |
| SP3WXH-11 | 2026-09-02 06:02:40 | 52.15782 | 14.89939 | 67° | 69km/h | 17302m | -4.4m/s | -50.8°C | 1.2% | 88.3hPa | 2.6V | 00:00:00 | 00:00:00 | 00:00:00 | |
| DL1XH1-15 | 2026-09-02 06:02:39 | 52.15771 | 14.89851 | 89° | 73km/h | 17316m | -4.8m/s | -50.9°C | 3.7% | 88hPa | 2.6V | 08:30:00 | 01:59:27 | 00:00:00 | |
| DL1XH-west | 2026-09-02 06:02:38 | 52.15772 | 14.89882 | 82° | 75km/h | 17312m | -4.7m/s | -50.9°C | 0.5% | 88.2hPa | 2.6V | 18:12:15 | 01:59:28 | 00:00:00 | |
| DM0DOS-11 | 2026-09-02 06:02:37 | 52.15789 | 14.89737 | 118° | 37km/h | 17338m | -4.1m/s | -51°C | 3.6% | 87.8hPa | 2.6V | 08:30:00 | 01:59:22 | 00:00:00 | |
| DAC517 | 2026-09-02 06:02:35 | 52.15772 | 14.89822 | 98° | 69km/h | 17321m | -4.5m/s | -50.9°C | 1.1% | 88.0hPa | 2.6V | 00:00:00 | 00:00:00 | 00:00:00 | |
| DO3MHA-11 | 2026-09-02 06:02:34 | 52.15779 | 14.89771 | 111° | 38km/h | 17330m | -4.1m/s | -50.9°C | 3.6% | 87.8hPa | 2.6V | 00:00:00 | 01:59:24 | 00:00:00 | |
| SONCRA | 2026-09-02 06:02:33 | 52.15789 | 14.89737 | 118° | 35km/h | 17338m | -4.1m/s | -51.0°C | 1.2% | 87.8hPa | 2.6V | 00:00:00 | 00:00:00 | 00:00:00 | |
| DL1XH1-15 | 2026-09-02 06:02:32 | 52.15786 | 14.89688 | 54° | 38km/h | 17360m | -4.3m/s | -50.8°C | 3.7% | 87.5hPa | 2.6V | 08:30:00 | 01:59:17 | 00:00:00 | |
| S3001 | 2026-09-02 06:02:31 | 52.15794 | 14.89716 | 95° | 20km/h | 17347m | -4.4m/s | -51.0°C | 1.1% | 87.7hPa | 2.7V | 00:00:00 | 00:00:00 | 00:00:00 | |
| SONDE2-11 | 2026-09-02 06:02:28 | 52.15791 | 14.89699 | 56° | 27km/h | 17356m | -4.5m/s | -50.9°C | 1.2% | 87.5hPa | 2.7V | 00:00:00 | 00:00:00 | 00:00:00 | |
| DL1XH-west | 2026-09-02 06:02:28 | 52.15791 | 14.89699 | 56° | 29km/h | 17356m | -4.5m/s | -50.9°C | 0.5% | 87.5hPa | 2.6V | 18:12:15 | 01:59:18 | 00:00:00 | |
| DB0DAN | 2026-09-02 06:02:25 | 52.15774 | 14.89654 | 66° | 53km/h | 17368m | -3.9m/s | -50.8°C | 1.1% | 87.38hPa | 2.7V | 00:00:00 | 00:00:00 | 00:00:00 | |
| SP3BTT-10 | 2026-09-02 06:02:25 | 52.15774 | 14.89654 | 66° | 44km/h | 17368m | -3.9m/s | -50.7°C | 3.6% | 87.3hPa | 2.7V | 00:00:00 | 00:00:00 | 00:00:00 | |
| DO3MHA-11 | 2026-09-02 06:02:24 | 52.15769 | 14.89631 | 74° | 51km/h | 17372m | -3.7m/s | -50.7°C | 3.7% | 87.3hPa | 2.7V | 00:00:00 | 01:59:14 | 00:00:00 | |
| KRY50SP-1 | 2026-09-02 06:02:22 | 52.15765 | 14.89606 | 82° | 66km/h | 17376m | -4.1m/s | -50.6°C | 1.2% | 87.3hPa | 2.6V | 00:00:00 | 00:00:00 | 00:00:00 | |
| DJ2DS-15 | 2026-09-02 06:02:20 | 52.15773 | 14.89502 | 112° | 55km/h | 17393m | -4.5m/s | -50.7°C | 1.1% | 87.0hPa | 2.6V | 00:00:00 | 00:00:00 | 00:00:00 | |
| DL1XH1-15 | 2026-09-02 06:02:19 | 52.15784 | 14.89468 | 122° | 38km/h | 17402m | -4.2m/s | -50.8°C | 3.5% | 86.9hPa | 2.6V | 08:30:00 | 01:59:07 | 00:00:00 | |
| DL1XH-west | 2026-09-02 06:02:18 | 52.15778 | 14.89483 | 118° | 47km/h | 17397m | -4.3m/s | -50.7°C | 0.3% | 87hPa | 2.7V | 18:12:15 | 01:59:08 | 00:00:00 | |
| AA1-15 | 2026-09-02 06:02:17 | 52.15784 | 14.89468 | 122° | 38km/h | 17402m | -4.2m/s | -50.8°C | 0.4% | 86.9hPa | 2.6V | 18:12:15 | 01:59:07 | 00:00:00 | |
| DAC517 | 2026-09-02 06:02:15 | 52.15788 | 14.89456 | 123° | 29km/h | 17406m | -4.1m/s | -50.8°C | 1.1% | 86.9hPa | 2.6V | 00:00:00 | 00:00:00 | 00:00:00 | |
| DO3MHA-11 | 2026-09-02 06:02:14 | 52.15791 | 14.89441 | 82° | 46km/h | 17414m | -4.2m/s | -50.7°C | 3.6% | 86.7hPa | 2.6V | 00:00:00 | 01:59:04 | 00:00:00 | |
| DB0NH | 2026-09-02 06:02:13 | 52.15790 | 14.89434 | 57° | 44km/h | 17419m | -4.4m/s | -50.6°C | 3.6% | 86.7hPa | 2.6V | 00:00:00 | 01:59:03 | 00:00:00 | |
| DL1XH1-15 | 2026-09-02 06:02:12 | 52.15761 | 14.89335 | 85° | 62km/h | 17444m | -4.1m/s | -50.5°C | 3.7% | 86.3hPa | 2.6V | 08:30:00 | 01:58:57 | 00:00:00 | |
| KRY50SP-1 | 2026-09-02 06:02:11 | 52.15786 | 14.89425 | 50° | 29km/h | 17423m | -4.4m/s | -50.6°C | 1.2% | 86.6hPa | 2.7V | 00:00:00 | 00:00:00 | 00:00:00 | |
| DB0DAN | 2026-09-02 06:02:10 | 52.15774 | 14.89400 | 58° | 46km/h | 17432m | -4.4m/s | -50.5°C | 1.2% | 86.52hPa | 2.7V | 00:00:00 | 00:00:00 | 00:00:00 | |
| DJ2DS-15 | 2026-09-02 06:02:10 | 52.15774 | 14.89400 | 59° | 44km/h | 17432m | -4.4m/s | -50.5°C | 3.6% | 86.5hPa | 2.6V | 00:00:00 | 01:59:00 | 00:00:00 | |
| SP3WXH-11 | 2026-09-02 06:02:09 | 52.15768 | 14.89381 | 65° | 53km/h | 17436m | -4.3m/s | -50.5°C | 1.2% | 86.5hPa | 2.6V | 00:00:00 | 00:00:00 | 00:00:00 | |
| DM0DOS-11 | 2026-09-02 06:02:07 | 52.15782 | 14.89223 | 129° | 47km/h | 17465m | -4.6m/s | -50.5°C | 3.5% | 86.1hPa | 2.6V | 08:30:00 | 01:58:52 | 00:00:00 | |
| DL1XH-west | 2026-09-02 06:02:07 | 52.15761 | 14.89335 | 85° | 62km/h | 17444m | -4.1m/s | -50.5°C | 0.5% | 86.4hPa | 2.6V | 18:12:15 | 01:58:57 | 00:00:00 | |
| AA1-15 | 2026-09-02 06:02:06 | 52.15761 | 14.89309 | 95° | 64km/h | 17448m | -3.9m/s | -50.4°C | 0.5% | 86.3hPa | 2.6V | 18:12:15 | 01:58:56 | 00:00:00 | |
| KRY50SP-1 | 2026-09-02 06:02:05 | 52.15761 | 14.89309 | 96° | 64km/h | 17449m | -3.9m/s | -50.4°C | 1.2% | 86.3hPa | 2.7V | 00:00:00 | 00:00:00 | 00:00:00 | |
| DO3MHA-11 | 2026-09-02 06:02:04 | 52.15768 | 14.89260 | 113° | 33km/h | 17457m | -4.1m/s | -50.4°C | 3.5% | 86.2hPa | 2.7V | 00:00:00 | 01:58:54 | 00:00:00 | |
| SONCRA | 2026-09-02 06:02:02 | 52.15789 | 14.89210 | 136° | 37km/h | 17470m | -4.7m/s | -50.5°C | 1.1% | 86.0hPa | 2.7V | 00:00:00 | 00:00:00 | 00:00:00 | |
| EDDB2-11 | 2026-09-02 06:02:01 | 52.15789 | 14.89210 | 136° | 37km/h | 17470m | -4.7m/s | -50.5°C | 1.1% | 86.0hPa | 2.7V | 00:00:00 | 00:00:00 | 00:00:00 | |
| S3001 | 2026-09-02 06:02:00 | 52.15800 | 14.89195 | 143° | 16km/h | 17479m | -4.6m/s | -50.5°C | 1.1% | 85.9hPa | 2.7V | 00:00:00 | 00:00:00 | 00:00:00 | |
| DM0DOS-11 | 2026-09-02 06:01:57 | 52.15777 | 14.89125 | 73° | 58km/h | 17509m | -4.2m/s | -50.4°C | 3.6% | 85.5hPa | 2.7V | 08:30:00 | 01:58:42 | 00:00:00 | |
| DL1XH-west | 2026-09-02 06:01:56 | 52.15799 | 14.89183 | 42° | 24km/h | 17492m | -4.2m/s | -50.4°C | 0.4% | 85.7hPa | 2.6V | 18:12:15 | 01:58:46 | 00:00:00 | |
| DB0DAN | 2026-09-02 06:01:55 | 52.15794 | 14.89175 | 47° | 33km/h | 17496m | -4.1m/s | -50.4°C | 1.1% | 85.66hPa | 2.6V | 00:00:00 | 00:00:00 | 00:00:00 | |
| AA1-15 | 2026-09-02 06:01:55 | 52.15794 | 14.89175 | 47° | 33km/h | 17496m | -4.1m/s | -50.4°C | 0.4% | 85.7hPa | 2.6V | 18:12:15 | 01:58:45 | 00:00:00 | |
| SP3BTT-10 | 2026-09-02 06:01:55 | 52.15794 | 14.89175 | 47° | 38km/h | 17497m | -4.0m/s | -50.4°C | 3.5% | 85.6hPa | 2.6V | 00:00:00 | 00:00:00 | 00:00:00 | |
| DO3MHA-11 | 2026-09-02 06:01:54 | 52.15788 | 14.89162 | 55° | 51km/h | 17501m | -4.1m/s | -50.4°C | 3.5% | 85.5hPa | 2.6V | 00:00:00 | 01:58:44 | 08:30:00 | |
| DJ2DS-15 | 2026-09-02 06:01:50 | 52.15773 | 14.89076 | 93° | 44km/h | 17517m | -4.2m/s | -50.4°C | 3.6% | 85.4hPa | 2.6V | 00:00:00 | 01:58:40 | 00:00:00 | |
| KRY50SP-1 | 2026-09-02 06:01:49 | 52.15773 | 14.89076 | 93° | 62km/h | 17517m | -4.2m/s | -50.4°C | 1.1% | 85.4hPa | 2.7V | 00:00:00 | 00:00:00 | 00:00:00 | |
| DM0DOS-11 | 2026-09-02 06:01:47 | 52.15804 | 14.88966 | 61° | 11km/h | 17551m | -4.4m/s | -50.4°C | 3.5% | 85hPa | 2.7V | 08:30:00 | 01:58:32 | 00:00:00 | |
| DL1XH-west | 2026-09-02 06:01:45 | 52.15797 | 14.88982 | 134° | 31km/h | 17538m | -4.1m/s | -50.3°C | 0.3% | 85.1hPa | 2.6V | 18:12:15 | 01:58:35 | 00:00:00 | |
| AA1-15 | 2026-09-02 06:01:44 | 52.15801 | 14.88975 | 134° | 20km/h | 17542m | -4.1m/s | -50.4°C | 0.4% | 85.1hPa | 2.7V | 18:12:15 | 01:58:34 | 00:00:00 | |
| DJ2DS-15 | 2026-09-02 06:01:44 | 52.15804 | 14.88970 | 115° | 9km/h | 17546m | -4.2m/s | -50.4°C | 1.1% | 85.0hPa | 2.7V | 00:00:00 | 00:00:00 | 00:00:00 | |
| DB0NH | 2026-09-02 06:01:43 | 52.15803 | 14.88970 | 116° | 42km/h | 17547m | -4.2m/s | -50.4°C | 3.5% | 85.0hPa | 2.7V | 00:00:00 | 01:58:33 | 00:00:00 | |
| KRY50SP-1 | 2026-09-02 06:01:39 | 52.15796 | 14.88955 | 41° | 29km/h | 17560m | -4.3m/s | -50.4°C | 1.1% | 84.8hPa | 2.7V | 00:00:00 | 00:00:00 | 00:00:00 | |
| SP3WXH-11 | 2026-09-02 06:01:38 | 52.15783 | 14.88932 | 53° | 46km/h | 17568m | -4.2m/s | -50.4°C | 1.1% | 84.7hPa | 2.7V | 00:00:00 | 00:00:00 | 00:00:00 | |
| DM0DOS-11 | 2026-09-02 06:01:37 | 52.15771 | 14.88798 | 109° | 55km/h | 17593m | -4m/s | -50.4°C | 3.5% | 84.4hPa | 2.7V | 08:30:00 | 01:58:22 | 00:00:00 | |
| DL1XH-west | 2026-09-02 06:01:34 | 52.15766 | 14.88845 | 91° | 60km/h | 17585m | -3.9m/s | -50.4°C | 0.4% | 84.5hPa | 2.6V | 18:12:15 | 01:58:24 | 00:00:00 | |
| AA1-15 | 2026-09-02 06:01:33 | 52.15768 | 14.88820 | 101° | 58km/h | 17589m | -4m/s | -50.4°C | 0.4% | 84.5hPa | 2.7V | 18:12:15 | 01:58:23 | 00:00:00 | |
| SONCRA | 2026-09-02 06:01:31 | 52.15783 | 14.88762 | 126° | 40km/h | 17601m | -4.1m/s | -50.5°C | 1.1% | 84.3hPa | 2.7V | 00:00:00 | 00:00:00 | 00:00:00 | |
| DJ2DS-15 | 2026-09-02 06:01:30 | 52.15783 | 14.88762 | 127° | 38km/h | 17601m | -4.1m/s | -50.4°C | 3.5% | 84.3hPa | 2.7V | 00:00:00 | 01:58:20 | 00:00:00 | |
| S3001 | 2026-09-02 06:01:29 | 52.15793 | 14.88742 | 130° | 22km/h | 17609m | -4.2m/s | -50.6°C | 1.1% | 84.2hPa | 2.7V | 00:00:00 | 00:00:00 | 00:00:00 | |
| DM0DOS-11 | 2026-09-02 06:01:27 | 52.15781 | 14.88686 | 62° | 46km/h | 17633m | -4.3m/s | -50.6°C | 3.6% | 83.9hPa | 2.7V | 08:30:00 | 01:58:12 | 00:00:00 | |
| DB0DAN | 2026-09-02 06:01:25 | 52.15795 | 14.88722 | 59° | 20km/h | 17621m | -3.5m/s | -50.6°C | 1.1% | 84.03hPa | 2.6V | 00:00:00 | 00:00:00 | 00:00:00 | |
| DL1XH-west | 2026-09-02 06:01:23 | 52.15786 | 14.88701 | 58° | 38km/h | 17629m | -4.1m/s | -50.5°C | 0.4% | 84hPa | 2.7V | 18:12:15 | 01:58:13 | 00:00:00 | |
| AA1-15 | 2026-09-02 06:01:22 | 52.15781 | 14.88686 | 63° | 46km/h | 17633m | -4.3m/s | -50.6°C | 0.4% | 83.9hPa | 2.7V | 18:12:15 | 01:58:12 | 00:00:00 | |
| KRY50SP-1 | 2026-09-02 06:01:21 | 52.15781 | 14.88686 | 64° | 46km/h | 17633m | -4.3m/s | -50.6°C | 1.1% | 83.9hPa | 2.6V | 00:00:00 | 00:00:00 | 00:00:00 | |
| DL1XH1-15 | 2026-09-02 06:01:20 | 52.15781 | 14.88538 | 119° | 49km/h | 17663m | -4.2m/s | -50.3°C | 3.4% | 83.5hPa | 2.6V | 08:30:00 | 01:58:05 | 00:00:00 | |
| DM0DOS-11 | 2026-09-02 06:01:17 | 52.15801 | 14.88499 | 139° | 31km/h | 17675m | -4.4m/s | -50.3°C | 3.5% | 83.4hPa | 2.7V | 08:30:00 | 01:58:02 | 00:00:00 | |
| DL1XH-west | 2026-09-02 06:01:13 | 52.15795 | 14.88509 | 135° | 38km/h | 17671m | -4.3m/s | -50.3°C | 0.3% | 83.4hPa | 2.6V | 18:12:15 | 01:58:03 | 00:00:00 | |
| AA1-15 | 2026-09-02 06:01:11 | 52.15807 | 14.88492 | 141° | 24km/h | 17680m | -4.4m/s | -50.3°C | 0.4% | 83.3hPa | 2.7V | 18:12:15 | 01:58:01 | 00:00:00 | |
| DB0DAN | 2026-09-02 06:01:10 | 52.15810 | 14.88487 | 134° | 15km/h | 17684m | -4.1m/s | -50.3°C | 1.1% | 83.23hPa | 2.6V | 00:00:00 | 00:00:00 | 00:00:00 | |
| DJ2DS-15 | 2026-09-02 06:01:10 | 52.15810 | 14.88487 | 134° | 29km/h | 17684m | -4.1m/s | -50.3°C | 3.5% | 83.2hPa | 2.6V | 00:00:00 | 01:58:00 | 00:00:00 | |
| KRY50SP-1 | 2026-09-02 06:01:09 | 52.15810 | 14.88487 | 135° | 16km/h | 17684m | -4.1m/s | -50.3°C | 1.1% | 83.2hPa | 2.6V | 00:00:00 | 00:00:00 | 00:00:00 | |
| DM0DOS-11 | 2026-09-02 06:01:07 | 52.15791 | 14.88403 | 86° | 47km/h | 17717m | -4m/s | -50.2°C | 3.6% | 82.8hPa | 2.6V | 08:30:00 | 01:57:52 | 00:00:00 | |
| DL1XH-west | 2026-09-02 06:01:02 | 52.15791 | 14.88403 | 86° | 47km/h | 17717m | -4m/s | -50.2°C | 0.4% | 82.9hPa | 2.6V | 18:12:15 | 01:57:52 | 00:00:00 | |
| AA1-15 | 2026-09-02 06:01:00 | 52.15794 | 14.88364 | 108° | 47km/h | 17725m | -3.9m/s | -50°C | 0.4% | 82.8hPa | 2.7V | 18:12:15 | 01:57:50 | 00:00:00 | |
| SONCRA | 2026-09-02 06:01:00 | 52.15798 | 14.88346 | 118° | 46km/h | 17729m | -4.2m/s | -50.0°C | 1.1% | 82.7hPa | 2.7V | 00:00:00 | 00:00:00 | 00:00:00 | |
| EDDB2-11 | 2026-09-02 06:00:59 | 52.15798 | 14.88346 | 118° | 46km/h | 17729m | -4.2m/s | -50.0°C | 1.1% | 82.7hPa | 2.7V | 00:00:00 | 00:00:00 | 00:00:00 | |
| KRY50SP-1 | 2026-09-02 06:00:58 | 52.15799 | 14.88346 | 119° | 46km/h | 17729m | -4.2m/s | -50.0°C | 1.1% | 82.7hPa | 2.7V | 00:00:00 | 00:00:00 | 00:00:00 | |
| DM0DOS-11 | 2026-09-02 06:00:57 | 52.15836 | 14.88300 | 183° | 4km/h | 17759m | -4.4m/s | -50.1°C | 3.5% | 82.3hPa | 2.7V | 08:30:00 | 01:57:42 | 00:00:00 | |
| DB0DAN | 2026-09-02 06:00:55 | 52.15824 | 14.88304 | 156° | 26km/h | 17746m | -4.2m/s | -50.2°C | 1.1% | 82.47hPa | 2.6V | 00:00:00 | 00:00:00 | 00:00:00 | |
| DL1XH-west | 2026-09-02 06:00:52 | 52.15835 | 14.88300 | 184° | 4km/h | 17759m | -4.4m/s | -50.2°C | 0.3% | 82.3hPa | 2.7V | 18:12:15 | 01:57:42 | 00:00:00 | |
| AA1-15 | 2026-09-02 06:00:49 | 52.15830 | 14.88294 | 38° | 20km/h | 17771m | -4.1m/s | -49.9°C | 0.3% | 82.1hPa | 2.6V | 18:12:15 | 01:57:39 | 00:00:00 | |
| KRY50SP-1 | 2026-09-02 06:00:48 | 52.15825 | 14.88287 | 49° | 27km/h | 17776m | -4.1m/s | -49.9°C | 1.1% | 82.1hPa | 2.7V | 00:00:00 | 00:00:00 | 00:00:00 | |
| DM0DOS-11 | 2026-09-02 06:00:47 | 52.15818 | 14.88197 | 115° | 40km/h | 17800m | -4.2m/s | -49.8°C | 3.5% | 81.8hPa | 2.7V | 08:30:00 | 01:57:32 | 00:00:00 | |
| DL1XH1-15 | 2026-09-02 06:00:44 | 52.15836 | 14.88167 | 154° | 26km/h | 17813m | -4.2m/s | -49.9°C | 3.3% | 81.6hPa | 2.6V | 08:30:00 | 01:57:29 | 00:00:00 | |
| DL1XH-west | 2026-09-02 06:00:41 | 52.15823 | 14.88183 | 128° | 37km/h | 17804m | -4.1m/s | -49.8°C | 0.3% | 81.7hPa | 2.7V | 18:12:15 | 01:57:31 | 00:00:00 | |
| DB0DAN | 2026-09-02 06:00:40 | 52.15829 | 14.88173 | 141° | 29km/h | 17808m | -4.2m/s | -49.9°C | 1.1% | 81.68hPa | 2.6V | 00:00:00 | 00:00:00 | 00:00:00 | |
| AA1-15 | 2026-09-02 06:00:38 | 52.15841 | 14.88164 | 171° | 20km/h | 17817m | -4.1m/s | -50.1°C | 0.3% | 81.6hPa | 2.6V | 18:12:15 | 01:57:28 | 00:00:00 | |
| DM0DOS-11 | 2026-09-02 06:00:37 | 52.15840 | 14.88171 | 16° | 20km/h | 17842m | -4.2m/s | -50°C | 3.4% | 81.2hPa | 2.6V | 08:30:00 | 01:57:22 | 00:00:00 | |
| DL1XH-west | 2026-09-02 06:00:30 | 52.15829 | 14.88159 | 47° | 31km/h | 17850m | -3.9m/s | -49.9°C | 0.3% | 81.2hPa | 2.7V | 18:12:15 | 01:57:20 | 00:00:00 | |
| AA1-15 | 2026-09-02 06:00:28 | 52.15820 | 14.88135 | 74° | 38km/h | 17858m | -4m/s | -49.8°C | 0.3% | 81hPa | 2.6V | 18:12:15 | 01:57:18 | 00:00:00 | |
| S3001 | 2026-09-02 06:00:26 | 52.15819 | 14.88104 | 98° | 37km/h | 17866m | -4.1m/s | -49.8°C | 1.1% | 81.0hPa | 2.6V | 00:00:00 | 00:00:00 | 00:00:00 | |
| DL1XH1-15 | 2026-09-02 06:00:25 | 52.15825 | 14.88079 | 126° | 29km/h | 17874m | -4.3m/s | -49.9°C | 3.4% | 80.8hPa | 2.6V | 08:30:00 | 01:57:14 | 00:00:00 | |
| DL1XH-west | 2026-09-02 06:00:20 | 52.15841 | 14.88067 | 225° | 11km/h | 17892m | -4.3m/s | -50.1°C | 0.4% | 80.6hPa | 2.7V | 18:12:15 | 01:57:10 | 00:00:00 | |
| AA1-15 | 2026-09-02 06:00:17 | 52.15838 | 14.88080 | 328° | 18km/h | 17905m | -4.3m/s | -50.2°C | 0.3% | 80.5hPa | 2.6V | 18:12:15 | 01:57:07 | 00:00:00 | |
| DM0DOS-11 | 2026-09-02 06:00:17 | 52.15806 | 14.88064 | 48° | 38km/h | 17926m | -4m/s | -50.2°C | 3.4% | 80.2hPa | 2.7V | 08:30:00 | 01:57:02 | 00:00:00 | |
| DF8AY | 2026-09-02 06:00:14 | 52.15820 | 14.88080 | 22° | 31km/h | 17917m | -4.2m/s | -50.2°C | 0.3% | 80.3hPa | 2.6V | 18:12:15 | 01:57:04 | 00:00:00 | |
| DO3MHA-11 | 2026-09-02 06:00:14 | 52.15820 | 14.88080 | 22° | 31km/h | 17918m | -4.1m/s | -50.1°C | 3.3% | 80.2hPa | 2.6V | 00:00:00 | 01:57:04 | 00:00:00 | |
| DB0NH | 2026-09-02 06:00:13 | 52.15812 | 14.88073 | 36° | 29km/h | 17922m | -3.9m/s | -50.1°C | 3.3% | 80.2hPa | 2.6V | 00:00:00 | 01:57:03 | 08:30:00 | |
| DL1JHR | 2026-09-02 06:00:12 | 52.15813 | 14.88073 | 36° | 35km/h | 17922m | -4.0m/s | 0°C | 0% | 0hPa | 2.6V | 00:00:00 | 00:00:00 | 00:00:00 | |
| DB0DAN | 2026-09-02 06:00:10 | 52.15796 | 14.88036 | 73° | 37km/h | 17934m | -4.2m/s | -50.2°C | 1.1% | 80.1hPa | 2.6V | 00:00:00 | 00:00:00 | 00:00:00 | |
| DL1XH-west | 2026-09-02 06:00:10 | 52.15796 | 14.88036 | 73° | 38km/h | 17934m | -4.2m/s | -50.2°C | 0.4% | 80.1hPa | 2.6V | 18:12:15 | 01:57:00 | 00:00:00 | |
| KRY50SP-1 | 2026-09-02 06:00:10 | 52.15796 | 14.88036 | 74° | 38km/h | 17934m | -4.2m/s | -50.2°C | 1.1% | 80.1hPa | 2.6V | 00:00:00 | 00:00:00 | 00:00:00 | |
| DM0DOS-11 | 2026-09-02 06:00:07 | 52.15809 | 14.87987 | 290° | 13km/h | 17967m | -4m/s | -50.6°C | 3.6% | 79.7hPa | 2.6V | 08:30:00 | 01:56:52 | 00:00:00 | |
| AA1-15 | 2026-09-02 06:00:07 | 52.15800 | 14.87987 | 131° | 22km/h | 17951m | -4.1m/s | -50.2°C | 0.4% | 79.9hPa | 2.7V | 18:12:15 | 01:56:56 | 00:00:00 | |
| DL1XH-west | 2026-09-02 06:00:00 | 52.15802 | 14.87996 | 338° | 24km/h | 17976m | -4.9m/s | -50.6°C | 0.4% | 79.6hPa | 2.7V | 18:12:15 | 01:56:50 | 00:00:00 | |
| KRY50SP-1 | 2026-09-02 05:59:59 | 52.15802 | 14.87996 | 339° | 24km/h | 17976m | -4.9m/s | -50.6°C | 1.1% | 79.6hPa | 2.7V | 00:00:00 | 00:00:00 | 00:00:00 | |
| DM0DOS-11 | 2026-09-02 05:59:57 | 52.15741 | 14.87944 | 67° | 37km/h | 18022m | -6.2m/s | -50.8°C | 3.6% | 79hPa | 2.7V | 08:30:00 | 01:56:42 | 00:00:00 | |
| DB0DAN | 2026-09-02 05:59:55 | 52.15760 | 14.87983 | 35° | 40km/h | 18004m | -5.8m/s | -50.7°C | 1.1% | 79.24hPa | 2.6V | 00:00:00 | 00:00:00 | 00:00:00 | |
| AA1-15 | 2026-09-02 05:59:55 | 52.15760 | 14.87983 | 35° | 42km/h | 18004m | -5.8m/s | -50.7°C | 0.4% | 79.2hPa | 2.6V | 18:12:15 | 01:56:45 | 00:00:00 | |
| DL1XH1-15 | 2026-09-02 05:59:55 | 52.15738 | 14.87931 | 79° | 33km/h | 18028m | -5.6m/s | -50.8°C | 3.6% | 78.9hPa | 2.7V | 08:30:00 | 01:56:41 | 00:00:00 | |
| DL1XH-west | 2026-09-02 05:59:49 | 52.15739 | 14.87910 | 112° | 20km/h | 18039m | -5.5m/s | -50.9°C | 0.4% | 78.8hPa | 2.6V | 18:12:15 | 01:56:39 | 00:00:00 | |
| DAC517 | 2026-09-02 05:59:49 | 52.15738 | 14.87919 | 96° | 26km/h | 18034m | -5.6m/s | -50.9°C | 1.2% | 78.9hPa | 2.7V | 00:00:00 | 00:00:00 | 00:00:00 | |
| KRY50SP-1 | 2026-09-02 05:59:48 | 52.15739 | 14.87910 | 113° | 20km/h | 18040m | -5.5m/s | -50.9°C | 1.1% | 78.8hPa | 2.7V | 00:00:00 | 00:00:00 | 00:00:00 | |
| DM0DOS-11 | 2026-09-02 05:59:47 | 52.15728 | 14.87917 | 359° | 33km/h | 18080m | -5.3m/s | -51.1°C | 3.7% | 78.4hPa | 2.7V | 08:30:00 | 01:56:32 | 00:00:00 | |
| AA1-15 | 2026-09-02 05:59:44 | 52.15741 | 14.87912 | 325° | 20km/h | 18069m | -5.8m/s | -51.2°C | 0.5% | 78.4hPa | 2.6V | 18:12:15 | 01:56:34 | 00:00:00 | |
| DO3MHA-11 | 2026-09-02 05:59:44 | 52.15741 | 14.87912 | 326° | 33km/h | 18069m | -5.7m/s | -51.1°C | 3.7% | 78.4hPa | 2.6V | 00:00:00 | 01:56:34 | 00:00:00 | |
| DB0NH | 2026-09-02 05:59:43 | 52.15736 | 14.87916 | 344° | 29km/h | 18075m | -5.5m/s | -51.1°C | 3.7% | 78.4hPa | 2.6V | 00:00:00 | 01:56:33 | 00:00:00 | |
| DB0DAN | 2026-09-02 05:59:40 | 52.15711 | 14.87910 | 28° | 38km/h | 18091m | -5.2m/s | -51.1°C | 1.2% | 78.22hPa | 2.6V | 00:00:00 | 00:00:00 | 00:00:00 | |
| DL1XH1-15 | 2026-09-02 05:59:40 | 52.15685 | 14.87845 | 88° | 35km/h | 18117m | -4.9m/s | -50.6°C | 3.6% | 77.9hPa | 2.7V | 08:30:00 | 01:56:25 | 00:00:00 | |
| DL1XH-west | 2026-09-02 05:59:39 | 52.15702 | 14.87900 | 40° | 42km/h | 18096m | -5.3m/s | -51°C | 0.5% | 78.2hPa | 2.6V | 18:12:15 | 01:56:29 | 00:00:00 | |
| DO2SHX-10 | 2026-09-02 05:59:39 | 52.15702 | 14.87900 | 41° | 42km/h | 18096m | -5.2m/s | -50.9°C | 3.8% | 78.1hPa | 2.6V | 00:00:00 | 01:56:29 | 00:00:00 | |
| DM0DOS-11 | 2026-09-02 05:59:37 | 52.15691 | 14.87812 | 127° | 24km/h | 18134m | -6.5m/s | -50.6°C | 3.5% | 77.7hPa | 2.6V | 08:30:00 | 01:56:22 | 00:00:00 | |
| DF8AY | 2026-09-02 05:59:34 | 52.15685 | 14.87832 | 101° | 31km/h | 18122m | -5.4m/s | -50.6°C | 0.4% | 77.8hPa | 2.6V | 18:12:15 | 01:56:24 | 00:00:00 | |
| AA1-15 | 2026-09-02 05:59:33 | 52.15687 | 14.87821 | 114° | 27km/h | 18128m | -6.4m/s | -50.6°C | 0.4% | 77.8hPa | 2.6V | 18:12:15 | 01:56:23 | 00:00:00 | |
| DL1XH-west | 2026-09-02 05:59:28 | 52.15700 | 14.87803 | 287° | 5km/h | 18160m | -5.6m/s | -50.7°C | 0.4% | 77.3hPa | 2.6V | 18:12:15 | 01:56:18 | 00:00:00 | |
| DM0DOS-11 | 2026-09-02 05:59:27 | 52.15670 | 14.87782 | 49° | 38km/h | 18193m | -6.1m/s | -50.6°C | 3.6% | 77hPa | 2.7V | 08:30:00 | 01:56:12 | 00:00:00 | |
| DF8AY | 2026-09-02 05:59:23 | 52.15676 | 14.87793 | 39° | 35km/h | 18187m | -5.8m/s | -50.7°C | 0.4% | 77.1hPa | 2.7V | 18:12:15 | 01:56:13 | 00:00:00 | |
| AA1-15 | 2026-09-02 05:59:22 | 52.15670 | 14.87782 | 50° | 38km/h | 18193m | -6.1m/s | -50.6°C | 0.5% | 77hPa | 2.7V | 18:12:15 | 01:56:12 | 00:00:00 | |
| DL1XH-west | 2026-09-02 05:59:18 | 52.15656 | 14.87720 | 91° | 40km/h | 18217m | -5.8m/s | -50.7°C | 0.5% | 76.7hPa | 2.7V | 18:12:15 | 01:56:08 | 00:00:00 | |
| DF8AY | 2026-09-02 05:59:17 | 52.15677 | 14.87663 | 164° | 13km/h | 18254m | -6.5m/s | -50.9°C | 0.4% | 76.2hPa | 2.7V | 18:12:15 | 01:56:02 | 00:00:00 | |
| DM0DOS-11 | 2026-09-02 05:59:16 | 52.15680 | 14.87662 | 182° | 5km/h | 18260m | -6.6m/s | -51°C | 3.6% | 76.2hPa | 2.7V | 08:30:00 | 01:56:01 | 00:00:00 | |
| AA1-15 | 2026-09-02 05:59:11 | 52.15680 | 14.87662 | 183° | 5km/h | 18260m | -6.6m/s | -51°C | 0.5% | 76.2hPa | 2.7V | 18:12:15 | 01:56:01 | 00:00:00 | |
| DB0DAN | 2026-09-02 05:59:10 | 52.15680 | 14.87662 | 338° | 2km/h | 18267m | -6.8m/s | -51°C | 1.1% | 76.1hPa | 2.6V | 00:00:00 | 00:00:00 | 00:00:00 | |
| DL1XH-west | 2026-09-02 05:59:07 | 52.15671 | 14.87656 | 38° | 24km/h | 18286m | -6.1m/s | -51.2°C | 0.5% | 75.9hPa | 2.7V | 18:12:15 | 01:55:57 | 00:00:00 | |
| DM0DOS-11 | 2026-09-02 05:59:06 | 52.15654 | 14.87572 | 99° | 42km/h | 18324m | -6.5m/s | -50.6°C | 3.7% | 75.5hPa | 2.7V | 08:30:00 | 01:55:51 | 00:00:00 | |
| DO2SHX-10 | 2026-09-02 05:59:06 | 52.15666 | 14.87648 | 49° | 35km/h | 18292m | -6.1m/s | -51.2°C | 3.7% | 75.8hPa | 2.6V | 00:00:00 | 01:55:56 | 00:00:00 | |
| DL1XH1-15 | 2026-09-02 05:59:05 | 52.15657 | 14.87623 | 68° | 40km/h | 18305m | -6.3m/s | -51°C | 3.7% | 75.7hPa | 2.6V | 08:30:00 | 01:55:54 | 00:00:00 | |
| AA1-15 | 2026-09-02 05:59:00 | 52.15657 | 14.87555 | 110° | 40km/h | 18330m | -6.3m/s | -50.6°C | 0.5% | 75.4hPa | 2.7V | 18:12:15 | 01:55:50 | 00:00:00 | |
| DL1XH-west | 2026-09-02 05:58:56 | 52.15675 | 14.87514 | 145° | 20km/h | 18356m | -5.9m/s | -50.7°C | 0.5% | 75.1hPa | 2.6V | 18:12:15 | 01:55:46 | 00:00:00 | |
| DO2SHX-10 | 2026-09-02 05:58:56 | 52.15675 | 14.87514 | 146° | 15km/h | 18356m | -5.9m/s | -50.6°C | 3.6% | 75.1hPa | 2.7V | 00:00:00 | 01:55:46 | 00:00:00 | |
| DM0DOS-11 | 2026-09-02 05:58:55 | 52.15670 | 14.87488 | 51° | 27km/h | 18390m | -4.7m/s | -50.4°C | 3.5% | 74.7hPa | 2.7V | 08:30:00 | 01:55:40 | 00:00:00 | |
| DB0DAN | 2026-09-02 05:58:55 | 52.15678 | 14.87510 | 142° | 11km/h | 18361m | -5.9m/s | -50.8°C | 1.2% | 75.05hPa | 2.7V | 00:00:00 | 00:00:00 | 00:00:00 | |
| DF8AY | 2026-09-02 05:58:53 | 52.15679 | 14.87505 | 52° | 9km/h | 18373m | -5.9m/s | -50.9°C | 0.5% | 74.9hPa | 2.6V | 18:12:15 | 01:55:43 | 00:00:00 | |
| AA1-15 | 2026-09-02 05:58:49 | 52.15665 | 14.87478 | 57° | 31km/h | 18395m | -4.8m/s | -50.5°C | 0.5% | 74.7hPa | 2.7V | 18:12:15 | 01:55:39 | 00:00:00 | |
| DL1XH-west | 2026-09-02 05:58:46 | 52.15653 | 14.87438 | 67° | 42km/h | 18409m | -5.3m/s | -50.5°C | 0.4% | 74.5hPa | 2.6V | 18:12:15 | 01:55:36 | 00:00:00 | |
| DL1XH1-15 | 2026-09-02 05:58:45 | 52.15645 | 14.87404 | 72° | 46km/h | 18420m | -5.7m/s | -50.5°C | 3.5% | 74.3hPa | 2.7V | 08:30:00 | 01:55:34 | 00:00:00 | |
| DF8AY | 2026-09-02 05:58:43 | 52.15642 | 14.87385 | 76° | 49km/h | 18425m | -5.5m/s | -50.5°C | 0.4% | 74.3hPa | 2.7V | 18:12:15 | 01:55:33 | 00:00:00 | |
| DB0NH | 2026-09-02 05:58:43 | 52.15642 | 14.87385 | 77° | 31km/h | 18425m | -5.5m/s | -50.5°C | 3.5% | 74.2hPa | 2.7V | 00:00:00 | 01:55:33 | 00:00:00 | |
| DO2SHX-10 | 2026-09-02 05:58:42 | 52.15639 | 14.87365 | 80° | 49km/h | 18431m | -5.6m/s | -50.5°C | 3.6% | 74.2hPa | 2.6V | 00:00:00 | 01:55:32 | 00:00:00 | |
| DB0DAN | 2026-09-02 05:58:40 | 52.15637 | 14.87324 | 89° | 47km/h | 18443m | -5.7m/s | -50.5°C | 1.2% | 74.11hPa | 2.6V | 00:00:00 | 00:00:00 | 00:00:00 | |
| AA1-15 | 2026-09-02 05:58:38 | 52.15638 | 14.87286 | 100° | 44km/h | 18454m | -5.5m/s | -50.6°C | 0.6% | 74hPa | 2.7V | 18:12:15 | 01:55:28 | 00:00:00 | |
| DO2SHX-10 | 2026-09-02 05:58:36 | 52.15643 | 14.87253 | 110° | 31km/h | 18465m | -4.9m/s | -50.5°C | 3.7% | 73.8hPa | 2.6V | 00:00:00 | 01:55:26 | 00:00:00 | |
| DM0DOS-11 | 2026-09-02 05:58:35 | 52.15662 | 14.87201 | 122° | 13km/h | 18497m | -5.6m/s | -50.9°C | 3.8% | 73.4hPa | 2.6V | 08:30:00 | 01:55:20 | 00:00:00 | |
| DL1XH1-15 | 2026-09-02 05:58:35 | 52.15650 | 14.87229 | 119° | 29km/h | 18475m | -5.2m/s | -50.6°C | 3.6% | 73.7hPa | 2.7V | 08:30:00 | 01:55:24 | 00:00:00 | |
| DL1XH-west | 2026-09-02 05:58:35 | 52.15647 | 14.87240 | 115° | 33km/h | 18470m | -5.3m/s | -50.7°C | 0.5% | 73.8hPa | 2.6V | 18:12:15 | 01:55:25 | 00:00:00 | |
| DF8AY | 2026-09-02 05:58:32 | 52.15657 | 14.87212 | 126° | 20km/h | 18486m | -5.3m/s | -50.8°C | 0.5% | 73.6hPa | 2.6V | 18:12:15 | 01:55:22 | 00:00:00 | |
| AA1-15 | 2026-09-02 05:58:27 | 52.15662 | 14.87192 | 41° | 9km/h | 18514m | -5.5m/s | -50.6°C | 0.5% | 73.3hPa | 2.7V | 18:12:15 | 01:55:17 | 00:00:00 | |
| DB0DAN | 2026-09-02 05:58:25 | 52.15656 | 14.87187 | 22° | 18km/h | 18525m | -5.5m/s | -50.3°C | 1.1% | 73.17hPa | 2.6V | 00:00:00 | 00:00:00 | 00:00:00 | |
| DM0DOS-11 | 2026-09-02 05:58:25 | 52.15625 | 14.87154 | 47° | 38km/h | 18554m | -5.8m/s | -50.2°C | 3.4% | 72.8hPa | 2.6V | 08:30:00 | 01:55:10 | 00:00:00 | |
| DL1XH-west | 2026-09-02 05:58:24 | 52.15651 | 14.87184 | 24° | 24km/h | 18531m | -5.5m/s | -50.3°C | 0.3% | 73.1hPa | 2.6V | 18:12:15 | 01:55:14 | 00:00:00 | |
| DF8AY | 2026-09-02 05:58:22 | 52.15639 | 14.87173 | 33° | 33km/h | 18542m | -5.8m/s | -50.2°C | 0.3% | 72.9hPa | 2.7V | 18:12:15 | 01:55:12 | 00:00:00 | |
| AA1-15 | 2026-09-02 05:58:16 | 52.15608 | 14.87096 | 82° | 40km/h | 18576m | -5.3m/s | -50.4°C | 0.5% | 72.6hPa | 2.6V | 18:12:15 | 01:55:06 | 00:00:00 | |
| DL1XH1-15 | 2026-09-02 05:58:15 | 52.15618 | 14.87026 | 128° | 16km/h | 18608m | -5.4m/s | -50.6°C | 3.6% | 72.2hPa | 2.6V | 08:30:00 | 01:55:00 | 00:00:00 | |
| DL1XH-west | 2026-09-02 05:58:13 | 52.15610 | 14.87052 | 106° | 31km/h | 18592m | -5.3m/s | -50.6°C | 0.5% | 72.4hPa | 2.7V | 18:12:15 | 01:55:03 | 00:00:00 | |
| DF8AY | 2026-09-02 05:58:11 | 52.15616 | 14.87032 | 121° | 22km/h | 18603m | -5.4m/s | -50.6°C | 0.5% | 72.3hPa | 2.6V | 18:12:15 | 01:55:01 | 00:00:00 | |
| DB0DAN | 2026-09-02 05:58:10 | 52.15618 | 14.87026 | 128° | 16km/h | 18608m | -5.4m/s | -50.7°C | 1.1% | 72.24hPa | 2.6V | 00:00:00 | 00:00:00 | 00:00:00 | |
| AA1-15 | 2026-09-02 05:58:06 | 52.15621 | 14.87018 | 353° | 7km/h | 18630m | -5.5m/s | -50.5°C | 0.6% | 72hPa | 2.7V | 18:12:15 | 01:54:56 | 00:00:00 | |
| DL1XH1-15 | 2026-09-02 05:58:04 | 52.15578 | 14.87003 | 27° | 40km/h | 18668m | -5.6m/s | -50.1°C | 3.3% | 71.6hPa | 2.6V | 08:30:00 | 01:54:49 | 00:00:00 | |
| DL1XH-west | 2026-09-02 05:58:03 | 52.15609 | 14.87018 | 5° | 24km/h | 18646m | -5.2m/s | -50.2°C | 0.4% | 71.8hPa | 2.6V | 18:12:15 | 01:54:53 | 00:00:00 | |
| DAC517 | 2026-09-02 05:58:02 | 52.15609 | 14.87018 | 6° | 24km/h | 18646m | -5.2m/s | -50.2°C | 1.1% | 71.8hPa | 2.7V | 00:00:00 | 00:00:00 | 00:00:00 | |
| DO2SHX-10 | 2026-09-02 05:58:01 | 52.15595 | 14.87014 | 17° | 37km/h | 18657m | -5.4m/s | -50.2°C | 3.4% | 71.6hPa | 2.7V | 00:00:00 | 01:54:51 | 00:00:00 | |
| DO3MHA-11 | 2026-09-02 05:57:59 | 52.15578 | 14.87003 | 28° | 44km/h | 18668m | -5.5m/s | -50.1°C | 3.3% | 71.5hPa | 2.6V | 00:00:00 | 01:54:49 | 00:00:00 | |
| DO2SHX-10 | 2026-09-02 05:57:58 | 52.15569 | 14.86994 | 34° | 44km/h | 18674m | -5.5m/s | -50.1°C | 3.4% | 71.5hPa | 2.6V | 00:00:00 | 01:54:48 | 00:00:00 | |
| DM0DOS-11 | 2026-09-02 05:57:57 | 52.15530 | 14.86904 | 74° | 44km/h | 18707m | -5.8m/s | -50.3°C | 3.5% | 71.1hPa | 2.6V | 08:30:00 | 01:54:42 | 00:00:00 | |
| KRY50SP-1 | 2026-09-02 05:57:56 | 52.15560 | 14.86983 | 42° | 46km/h | 18679m | -5.9m/s | -50.2°C | 1.1% | 71.4hPa | 2.7V | 00:00:00 | 00:00:00 | 00:00:00 | |
| DB0DAN | 2026-09-02 05:57:55 | 52.15545 | 14.86955 | 54° | 46km/h | 18691m | -5.6m/s | -50.2°C | 1.1% | 71.33hPa | 2.7V | 00:00:00 | 00:00:00 | 00:00:00 | |
| AA1-15 | 2026-09-02 05:57:55 | 52.15545 | 14.86955 | 54° | 47km/h | 18691m | -5.6m/s | -50.2°C | 0.4% | 71.3hPa | 2.7V | 18:12:15 | 01:54:45 | 00:00:00 | |
| DO2SHX-10 | 2026-09-02 05:57:55 | 52.15545 | 14.86955 | 54° | 47km/h | 18691m | -5.6m/s | -50.1°C | 3.5% | 71.3hPa | 2.7V | 00:00:00 | 01:54:45 | 00:00:00 | |
| DL1XH1-15 | 2026-09-02 05:57:54 | 52.15527 | 14.86858 | 93° | 31km/h | 18724m | -5.4m/s | -50.2°C | 3.4% | 71hPa | 2.7V | 08:30:00 | 01:54:39 | 00:00:00 | |
| DL1XH-west | 2026-09-02 05:57:52 | 52.15530 | 14.86904 | 75° | 44km/h | 18707m | -5.9m/s | -50.3°C | 0.4% | 71.1hPa | 2.6V | 18:12:15 | 01:54:42 | 00:00:00 | |
| DF8AY | 2026-09-02 05:57:49 | 52.15527 | 14.86858 | 93° | 31km/h | 18724m | -5.4m/s | -50.2°C | 0.3% | 71hPa | 2.7V | 18:12:15 | 01:54:39 | 00:00:00 | |
| SONDE2-11 | 2026-09-02 05:57:49 | 52.15527 | 14.86847 | 99° | 24km/h | 18730m | -5.3m/s | -50.4°C | 1.1% | 70.9hPa | 2.7V | 00:00:00 | 00:00:00 | 00:00:00 | |
| 13BRC | 2026-09-02 05:57:47 | 52.15527 | 14.86847 | 100° | 26km/h | 18730m | -5.3m/s | -50.4°C | 1.1% | 70.9hPa | 2.7V | 00:00:00 | 00:00:00 | 00:00:00 | |
| DM0DOS-11 | 2026-09-02 05:57:46 | 52.15517 | 14.86823 | 6° | 27km/h | 18770m | -5.7m/s | -50.7°C | 3.6% | 70.5hPa | 2.7V | 08:30:00 | 01:54:31 | 00:00:00 | |
| AA1-15 | 2026-09-02 05:57:45 | 52.15530 | 14.86828 | 86° | 7km/h | 18746m | -5.7m/s | -50.6°C | 0.4% | 70.7hPa | 2.7V | 18:12:15 | 01:54:35 | 00:00:00 | |
| DL1XH-west | 2026-09-02 05:57:42 | 52.15523 | 14.86824 | 3° | 18km/h | 18764m | -5.8m/s | -50.8°C | 0.5% | 70.5hPa | 2.6V | 18:12:15 | 01:54:32 | 00:00:00 | |
| DB0DAN | 2026-09-02 05:57:40 | 52.15509 | 14.86821 | 13° | 31km/h | 18775m | -5.7m/s | -50.7°C | 1.1% | 70.44hPa | 2.7V | 00:00:00 | 00:00:00 | 00:00:00 | |
| DO3MHA-11 | 2026-09-02 05:57:39 | 52.15501 | 14.86817 | 20° | 53km/h | 18781m | -5.5m/s | -50.8°C | 3.6% | 70.3hPa | 2.6V | 00:00:00 | 01:54:29 | 00:00:00 | |
| KRY50SP-1 | 2026-09-02 05:57:38 | 52.15501 | 14.86817 | 20° | 40km/h | 18781m | -5.6m/s | -50.8°C | 1.1% | 70.3hPa | 2.6V | 00:00:00 | 00:00:00 | 00:00:00 | |
| DM0DOS-11 | 2026-09-02 05:57:36 | 52.15437 | 14.86686 | 81° | 55km/h | 18829m | -6.2m/s | -51°C | 3.6% | 69.8hPa | 2.6V | 08:30:00 | 01:54:21 | 00:00:00 | |
| AA1-15 | 2026-09-02 05:57:34 | 52.15452 | 14.86751 | 58° | 58km/h | 18810m | -6.2m/s | -51°C | 0.5% | 70hPa | 2.7V | 18:12:15 | 01:54:24 | 00:00:00 | |
| DL1XH1-15 | 2026-09-02 05:57:34 | 52.15437 | 14.86646 | 95° | 46km/h | 18841m | -6.2m/s | -51°C | 3.6% | 69.7hPa | 2.7V | 08:30:00 | 01:54:19 | 00:00:00 | |
| DL1XH-west | 2026-09-02 05:57:32 | 52.15440 | 14.86708 | 73° | 57km/h | 18823m | -6.3m/s | -51°C | 0.5% | 69.9hPa | 2.6V | 18:12:15 | 01:54:22 | 00:00:00 | |
| DJ2DS-15 | 2026-09-02 05:57:31 | 52.15437 | 14.86686 | 81° | 53km/h | 18829m | -6.2m/s | -51.0°C | 1.1% | 69.8hPa | 2.6V | 00:00:00 | 00:00:00 | 00:00:00 | |
| DJ2DS-15 | 2026-09-02 05:57:30 | 52.15436 | 14.86665 | 89° | 46km/h | 18835m | -6.0m/s | -50.9°C | 3.6% | 69.7hPa | 2.6V | 00:00:00 | 01:54:20 | 00:00:00 | |
| DO3MHA-11 | 2026-09-02 05:57:29 | 52.15436 | 14.86646 | 96° | 31km/h | 18841m | -6.2m/s | -50.9°C | 3.6% | 69.6hPa | 2.6V | 00:00:00 | 01:54:19 | 00:00:00 | |
| SP6BVK | 2026-09-02 05:57:28 | 52.15436 | 14.86646 | 96° | 46km/h | 18841m | -6.2m/s | -51.0°C | 1.1% | 69.7hPa | 2.6V | 00:00:00 | 00:00:00 | 00:00:00 | |
| KRY50SP-1 | 2026-09-02 05:57:27 | 52.15438 | 14.86629 | 102° | 38km/h | 18848m | -6.5m/s | -51.1°C | 1.1% | 69.6hPa | 2.6V | 00:00:00 | 00:00:00 | 00:00:00 | |
| DM0DOS-11 | 2026-09-02 05:57:26 | 52.15419 | 14.86574 | 30° | 42km/h | 18890m | -5m/s | -51.2°C | 3.8% | 69.2hPa | 2.6V | 08:30:00 | 01:54:11 | 00:00:00 | |
| DB0DAN | 2026-09-02 05:57:25 | 52.15441 | 14.86597 | 77° | 15km/h | 18866m | -6m/s | -51.3°C | 1.2% | 69.42hPa | 2.6V | 00:00:00 | 00:00:00 | 00:00:00 | |
| AA1-15 | 2026-09-02 05:57:23 | 52.15435 | 14.86587 | 28° | 26km/h | 18878m | -6.1m/s | -51.2°C | 0.6% | 69.3hPa | 2.7V | 18:12:15 | 01:54:13 | 00:00:00 | |
| DF8AY | 2026-09-02 05:57:22 | 52.15428 | 14.86582 | 28° | 35km/h | 18884m | -6.2m/s | -51.2°C | 0.6% | 69.2hPa | 2.6V | 18:12:15 | 01:54:12 | 00:00:00 | |
| DL1XH-west | 2026-09-02 05:57:22 | 52.15420 | 14.86574 | 31° | 42km/h | 18890m | -5m/s | -51.2°C | 0.6% | 69.2hPa | 2.6V | 18:12:15 | 01:54:11 | 00:00:00 | |
| DAC517 | 2026-09-02 05:57:21 | 52.15428 | 14.86582 | 28° | 35km/h | 18884m | -6.2m/s | -51.2°C | 1.2% | 69.2hPa | 2.7V | 00:00:00 | 00:00:00 | 00:00:00 | |
| S3001 | 2026-09-02 05:57:20 | 52.15410 | 14.86563 | 38° | 49km/h | 18895m | -6.3m/s | -51.2°C | 1.2% | 69.1hPa | 2.7V | 00:00:00 | 00:00:00 | 00:00:00 | |
| DO3MHA-11 | 2026-09-02 05:57:19 | 52.15400 | 14.86549 | 46° | 60km/h | 18902m | -6.2m/s | -51.2°C | 3.9% | 69.0hPa | 2.7V | 00:00:00 | 01:54:09 | 08:30:00 | |
| SONDE2-11 | 2026-09-02 05:57:18 | 52.15382 | 14.86510 | 61° | 62km/h | 18915m | -6.7m/s | -51.2°C | 1.2% | 68.9hPa | 2.7V | 00:00:00 | 00:00:00 | 00:00:00 | |
| KRY50SP-1 | 2026-09-02 05:57:17 | 52.15382 | 14.86510 | 63° | 64km/h | 18915m | -6.7m/s | -51.2°C | 1.2% | 68.9hPa | 2.7V | 00:00:00 | 00:00:00 | 00:00:00 | |
| DM0DOS-11 | 2026-09-02 05:57:16 | 52.15374 | 14.86363 | 107° | 47km/h | 18952m | -6.7m/s | -50.9°C | 3.7% | 68.5hPa | 2.7V | 08:30:00 | 01:54:01 | 00:00:00 | |
| DF8AY | 2026-09-02 05:57:12 | 52.15374 | 14.86363 | 107° | 49km/h | 18952m | -6.7m/s | -50.9°C | 0.6% | 68.5hPa | 2.7V | 18:12:15 | 01:54:01 | 00:00:00 | |
| AA1-15 | 2026-09-02 05:57:12 | 52.15371 | 14.86384 | 101° | 57km/h | 18945m | -5.4m/s | -51°C | 0.5% | 68.5hPa | 2.7V | 18:12:15 | 01:54:02 | 00:00:00 | |
| DL1XH-west | 2026-09-02 05:57:10 | 52.15377 | 14.86346 | 111° | 40km/h | 18958m | -6.5m/s | -50.8°C | 0.5% | 68.4hPa | 2.6V | 18:12:15 | 01:54:00 | 00:00:00 | |
| DJ2DS-15 | 2026-09-02 05:57:10 | 52.15377 | 14.86346 | 112° | 47km/h | 18959m | -6.4m/s | -50.7°C | 3.7% | 68.4hPa | 2.6V | 00:00:00 | 01:54:00 | 00:00:00 | |
| DO3MHA-11 | 2026-09-02 05:57:09 | 52.15380 | 14.86332 | 112° | 51km/h | 18965m | -6.1m/s | -50.6°C | 3.7% | 68.3hPa | 2.6V | 00:00:00 | 01:53:59 | 00:00:00 | |
| SQ6EMJ | 2026-09-02 05:57:08 | 52.15380 | 14.86332 | 112° | 31km/h | 18965m | -6.2m/s | 0°C | 0% | 0hPa | 2.6V | 00:00:00 | 00:00:00 | 00:00:00 | |
| SP6BVK | 2026-09-02 05:57:07 | 52.15383 | 14.86321 | 103° | 24km/h | 18971m | -6.1m/s | -50.6°C | 1.1% | 68.3hPa | 2.6V | 00:00:00 | 00:00:00 | 00:00:00 | |
| DM0DOS-11 | 2026-09-02 05:57:06 | 52.15353 | 14.86225 | 70° | 64km/h | 19015m | -6m/s | -49.9°C | 3.6% | 67.8hPa | 2.6V | 08:30:00 | 01:53:51 | 00:00:00 | |
| AA1-15 | 2026-09-02 05:57:01 | 52.15353 | 14.86225 | 70° | 64km/h | 19015m | -6m/s | -49.9°C | 0.5% | 67.9hPa | 2.6V | 18:12:15 | 01:53:51 | 00:00:00 | |
| DL1XH-west | 2026-09-02 05:57:00 | 52.15349 | 14.86199 | 77° | 68km/h | 19021m | -6m/s | -49.7°C | 0.5% | 67.8hPa | 2.6V | 18:12:15 | 01:53:50 | 00:00:00 | |
| DL1XH1-15 | 2026-09-02 05:56:59 | 52.15345 | 14.86114 | 96° | 69km/h | 19040m | -6.5m/s | -49.6°C | 3.5% | 67.6hPa | 2.7V | 08:30:00 | 01:53:47 | 00:00:00 | |
| SP3WXH-11 | 2026-09-02 05:56:59 | 52.15346 | 14.86171 | 83° | 69km/h | 19027m | -6.5m/s | -49.7°C | 1.1% | 67.7hPa | 2.7V | 00:00:00 | 00:00:00 | 00:00:00 | |
| DO2SHX-10 | 2026-09-02 05:56:58 | 52.15345 | 14.86142 | 90° | 69km/h | 19034m | -6.4m/s | -49.6°C | 3.6% | 67.6hPa | 2.7V | 00:00:00 | 01:53:48 | 00:00:00 | |
| DO3MHA-11 | 2026-09-02 05:56:57 | 52.15345 | 14.86114 | 97° | 31km/h | 19040m | -6.4m/s | -49.5°C | 3.5% | 67.5hPa | 2.6V | 00:00:00 | 01:53:47 | 00:00:00 | |
| DB0DAN | 2026-09-02 05:56:55 | 52.15353 | 14.86063 | 112° | 57km/h | 19052m | -5.8m/s | -49.5°C | 1.1% | 67.44hPa | 2.6V | 00:00:00 | 00:00:00 | 00:00:00 | |
| KRY50SP-1 | 2026-09-02 05:56:53 | 52.15359 | 14.86042 | 120° | 51km/h | 19058m | -5.2m/s | -49.6°C | 1.0% | 67.4hPa | 2.6V | 00:00:00 | 00:00:00 | 00:00:00 | |
| DL1XH1-15 | 2026-09-02 05:56:52 | 52.15388 | 14.85976 | 79° | 18km/h | 19098m | -5.5m/s | -49.4°C | 3.4% | 67hPa | 2.6V | 08:30:00 | 01:53:37 | 00:00:00 | |
| AA1-15 | 2026-09-02 05:56:51 | 52.15378 | 14.86003 | 137° | 29km/h | 19074m | -5.8m/s | -49.8°C | 0.4% | 67.2hPa | 2.7V | 18:12:15 | 01:53:41 | 00:00:00 | |
| DF8AY | 2026-09-02 05:56:50 | 52.15383 | 14.85995 | 135° | 24km/h | 19080m | -5.9m/s | -49.7°C | 0.4% | 67.1hPa | 2.7V | 18:12:15 | 01:53:40 | 00:00:00 | |
| S3001 | 2026-09-02 05:56:49 | 52.15386 | 14.85989 | 124° | 16km/h | 19086m | -6.1m/s | -49.6°C | 1.1% | 67.1hPa | 2.6V | 00:00:00 | 00:00:00 | 00:00:00 | |
| DL1XH-west | 2026-09-02 05:56:49 | 52.15386 | 14.85989 | 125° | 18km/h | 19086m | -6.1m/s | -49.6°C | 0.4% | 67.1hPa | 2.6V | 18:12:15 | 01:53:39 | 00:00:00 | |
| SONDE2-11 | 2026-09-02 05:56:47 | 52.15386 | 14.85967 | 69° | 26km/h | 19103m | -5.1m/s | -49.4°C | 1.1% | 66.9hPa | 2.6V | 00:00:00 | 00:00:00 | 00:00:00 | |
| 13BRC | 2026-09-02 05:56:46 | 52.15386 | 14.85967 | 70° | 26km/h | 19103m | -5.1m/s | -49.4°C | 1.1% | 66.9hPa | 2.6V | 00:00:00 | 00:00:00 | 00:00:00 | |
| DO2SHX-10 | 2026-09-02 05:56:43 | 52.15376 | 14.85924 | 73° | 51km/h | 19117m | -4.4m/s | -49.3°C | 3.3% | 66.8hPa | 2.6V | 00:00:00 | 01:53:33 | 00:00:00 | |
| DB0DAN | 2026-09-02 05:56:40 | 52.15368 | 14.85861 | 84° | 55km/h | 19132m | -5.7m/s | -49.5°C | 1.1% | 66.63hPa | 2.6V | 00:00:00 | 00:00:00 | 00:00:00 | |
| AA1-15 | 2026-09-02 05:56:40 | 52.15368 | 14.85861 | 84° | 57km/h | 19132m | -5.7m/s | -49.5°C | 0.4% | 66.6hPa | 2.6V | 18:12:15 | 01:53:30 | 00:00:00 | |
| DF8AY | 2026-09-02 05:56:39 | 52.15367 | 14.85837 | 88° | 60km/h | 19137m | -5.6m/s | -49.4°C | 0.4% | 66.6hPa | 2.6V | 18:12:15 | 01:53:29 | 00:00:00 | |
| DL1XH1-15 | 2026-09-02 05:56:39 | 52.15369 | 14.85788 | 98° | 60km/h | 19149m | -5.4m/s | -49.5°C | 3.5% | 66.5hPa | 2.7V | 08:30:00 | 01:53:27 | 00:00:00 | |
| DL1XH-west | 2026-09-02 05:56:38 | 52.15367 | 14.85812 | 93° | 60km/h | 19143m | -5.6m/s | -49.4°C | 0.4% | 66.5hPa | 2.6V | 18:12:15 | 01:53:28 | 00:00:00 | |
| DM0DOS-11 | 2026-09-02 05:56:37 | 52.15376 | 14.85740 | 108° | 58km/h | 19160m | -5.3m/s | -49.4°C | 3.4% | 66.4hPa | 2.7V | 08:30:00 | 01:53:25 | 00:00:00 | |
| DO2SHX-10 | 2026-09-02 05:56:37 | 52.15369 | 14.85788 | 99° | 60km/h | 19149m | -5.4m/s | -49.4°C | 3.5% | 66.4hPa | 2.7V | 00:00:00 | 01:53:27 | 00:00:00 | |
| DO3MHA-11 | 2026-09-02 05:56:36 | 52.15372 | 14.85763 | 104° | 46km/h | 19155m | -5.5m/s | -49.3°C | 3.4% | 66.4hPa | 2.6V | 00:00:00 | 01:53:26 | 00:00:00 | |
| DO2SHX-10 | 2026-09-02 05:56:34 | 52.15381 | 14.85718 | 115° | 57km/h | 19166m | -5.5m/s | -49.4°C | 3.4% | 66.2hPa | 2.6V | 00:00:00 | 01:53:24 | 00:00:00 | |
| DL1XH1-15 | 2026-09-02 05:56:32 | 52.15429 | 14.85623 | 143° | 24km/h | 19204m | -5.8m/s | -49.8°C | 3.5% | 65.9hPa | 2.6V | 08:30:00 | 01:53:17 | 00:00:00 | |
| AA1-15 | 2026-09-02 05:56:29 | 52.15417 | 14.85638 | 139° | 37km/h | 19193m | -5.7m/s | -49.6°C | 0.3% | 66hPa | 2.7V | 18:12:15 | 01:53:19 | 00:00:00 | |
| DL1XH-west | 2026-09-02 05:56:28 | 52.15423 | 14.85630 | 142° | 29km/h | 19199m | -5.7m/s | -49.8°C | 0.4% | 66hPa | 2.6V | 18:12:15 | 01:53:18 | 00:00:00 | |
| DM0DOS-11 | 2026-09-02 05:56:27 | 52.15435 | 14.85613 | 118° | 13km/h | 19216m | -5.9m/s | -49.8°C | 3.4% | 65.8hPa | 2.7V | 08:30:00 | 01:53:15 | 00:00:00 | |
| KRY50SP-1 | 2026-09-02 05:56:27 | 52.15429 | 14.85623 | 144° | 24km/h | 19205m | -5.8m/s | -49.8°C | 1.1% | 65.9hPa | 2.7V | 00:00:00 | 00:00:00 | 00:00:00 | |
| SP6BVK | 2026-09-02 05:56:26 | 52.15429 | 14.85623 | 144° | 24km/h | 19205m | -5.8m/s | -49.8°C | 1.1% | 65.9hPa | 2.7V | 00:00:00 | 00:00:00 | 00:00:00 | |
| DB0DAN | 2026-09-02 05:56:25 | 52.15435 | 14.85613 | 119° | 13km/h | 19216m | -5.9m/s | -49.8°C | 1.1% | 65.75hPa | 2.7V | 00:00:00 | 00:00:00 | 00:00:00 | |
| DO2SHX-10 | 2026-09-02 05:56:22 | 52.15432 | 14.85593 | 67° | 33km/h | 19234m | -5.7m/s | -49.5°C | 3.4% | 65.6hPa | 2.6V | 00:00:00 | 01:53:12 | 00:00:00 | |
| KRY50SP-1 | 2026-09-02 05:56:21 | 52.15432 | 14.85593 | 67° | 26km/h | 19234m | -5.8m/s | -49.6°C | 1.1% | 65.6hPa | 2.6V | 00:00:00 | 00:00:00 | 00:00:00 | |
| EDDB2-11 | 2026-09-02 05:56:20 | 52.15426 | 14.85569 | 70° | 38km/h | 19245m | -5.6m/s | -49.6°C | 1.1% | 65.5hPa | 2.6V | 00:00:00 | 00:00:00 | 00:00:00 | |
| DL1XH1-15 | 2026-09-02 05:56:19 | 52.15421 | 14.85511 | 90° | 55km/h | 19262m | -5.9m/s | -49.6°C | 3.5% | 65.3hPa | 2.6V | 08:30:00 | 01:53:07 | 00:00:00 | |
| AA1-15 | 2026-09-02 05:56:18 | 52.15421 | 14.85533 | 83° | 51km/h | 19257m | -5.6m/s | -49.5°C | 0.4% | 65.3hPa | 2.6V | 18:12:15 | 01:53:08 | 00:00:00 | |
| DL1XH-west | 2026-09-02 05:56:17 | 52.15420 | 14.85511 | 90° | 55km/h | 19262m | -5.9m/s | -49.6°C | 0.4% | 65.3hPa | 2.6V | 18:12:15 | 01:53:07 | 00:00:00 | |
| DM0DOS-11 | 2026-09-02 05:56:17 | 52.15424 | 14.85466 | 105° | 57km/h | 19274m | -6m/s | -49.6°C | 3.5% | 65.2hPa | 2.7V | 08:30:00 | 01:53:05 | 00:00:00 | |
| DO3MHA-11 | 2026-09-02 05:56:16 | 52.15421 | 14.85488 | 98° | 47km/h | 19269m | -5.9m/s | -49.6°C | 3.5% | 65.2hPa | 2.7V | 00:00:00 | 01:53:06 | 00:00:00 | |
| KRY50SP-1 | 2026-09-02 05:56:15 | 52.15421 | 14.85488 | 98° | 57km/h | 19269m | -6.0m/s | -49.6°C | 1.1% | 65.3hPa | 2.6V | 00:00:00 | 00:00:00 | 00:00:00 | |
| DO2SHX-10 | 2026-09-02 05:56:13 | 52.15436 | 14.85425 | 124° | 33km/h | 19287m | -5.7m/s | -49.6°C | 3.4% | 65.1hPa | 2.6V | 00:00:00 | 01:53:03 | 08:30:00 | |
| DL1XH1-15 | 2026-09-02 05:56:12 | 52.15480 | 14.85375 | 168° | 15km/h | 19324m | -6.8m/s | -49.7°C | 3.5% | 64.7hPa | 2.6V | 08:30:00 | 01:52:57 | 00:00:00 | |
| DB0DAN | 2026-09-02 05:56:10 | 52.15461 | 14.85386 | 152° | 37km/h | 19304m | -6.3m/s | -49.7°C | 1.1% | 64.93hPa | 2.7V | 00:00:00 | 00:00:00 | 00:00:00 | |
| AA1-15 | 2026-09-02 05:56:07 | 52.15480 | 14.85375 | 168° | 15km/h | 19324m | -6.8m/s | -49.7°C | 0.4% | 64.7hPa | 2.6V | 18:12:15 | 01:52:57 | 00:00:00 | |
| DF8AY | 2026-09-02 05:55:57 | 52.15467 | 14.85256 | 106° | 53km/h | 19388m | -6.8m/s | -49.9°C | 0.4% | 64.1hPa | 2.6V | 18:12:15 | 01:52:47 | 00:00:00 | |
| AA1-15 | 2026-09-02 05:55:57 | 52.15472 | 14.85236 | 116° | 53km/h | 19394m | -6.1m/s | -49.8°C | 0.4% | 64hPa | 2.6V | 18:12:15 | 01:52:46 | 00:00:00 | |
| DL1XH1-15 | 2026-09-02 05:55:56 | 52.15487 | 14.85204 | 135° | 46km/h | 19407m | -6.5m/s | -49.8°C | 3.4% | 63.9hPa | 2.7V | 08:30:00 | 01:52:44 | 00:00:00 | |
| DB0DAN | 2026-09-02 05:55:55 | 52.15479 | 14.85218 | 126° | 47km/h | 19400m | -6.4m/s | -49.7°C | 1.1% | 63.95hPa | 2.7V | 00:00:00 | 00:00:00 | 00:00:00 | |
| DF8AY | 2026-09-02 05:55:46 | 52.15506 | 14.85159 | 57° | 33km/h | 19460m | -7m/s | -49.8°C | 0.4% | 63.4hPa | 2.6V | 18:12:15 | 01:52:36 | 00:00:00 | |
| DL1XH1-15 | 2026-09-02 05:55:45 | 52.15495 | 14.85109 | 81° | 53km/h | 19480m | -6.3m/s | -49.8°C | 3.5% | 63.2hPa | 2.7V | 08:30:00 | 01:52:33 | 00:00:00 | |
| AA1-15 | 2026-09-02 05:55:45 | 52.15501 | 14.85146 | 64° | 40km/h | 19466m | -6.7m/s | -49.8°C | 0.4% | 63.3hPa | 2.6V | 18:12:15 | 01:52:35 | 00:00:00 | |
| DO2SHX-10 | 2026-09-02 05:55:44 | 52.15497 | 14.85129 | 74° | 51km/h | 19473m | -6.9m/s | -49.7°C | 3.5% | 63.2hPa | 2.7V | 00:00:00 | 01:52:34 | 00:00:00 | |
| DB0NH | 2026-09-02 05:55:43 | 52.15494 | 14.85109 | 82° | 37km/h | 19480m | -6.2m/s | -49.7°C | 3.5% | 63.1hPa | 2.7V | 00:00:00 | 01:52:33 | 08:30:00 | |
| KRY50SP-1 | 2026-09-02 05:55:41 | 52.15494 | 14.85086 | 93° | 57km/h | 19486m | -6.6m/s | -49.8°C | 1.1% | 63.1hPa | 2.6V | 00:00:00 | 00:00:00 | 00:00:00 | |
| DB0DAN | 2026-09-02 05:55:40 | 52.15499 | 14.85040 | 111° | 55km/h | 19499m | -6.6m/s | -49.9°C | 1.1% | 62.99hPa | 2.6V | 00:00:00 | 00:00:00 | 00:00:00 | |
| DO2SHX-10 | 2026-09-02 05:55:39 | 52.15506 | 14.85019 | 122° | 57km/h | 19506m | -6.5m/s | -49.8°C | 3.4% | 62.9hPa | 2.6V | 00:00:00 | 01:52:29 | 00:00:00 | |
| DM0DOS-11 | 2026-09-02 05:55:36 | 52.15553 | 14.84969 | 39° | 7km/h | 19557m | -6.7m/s | -50°C | 3.4% | 62.4hPa | 2.6V | 08:30:00 | 01:52:21 | 00:00:00 | |
| DF8AY | 2026-09-02 05:55:36 | 52.15532 | 14.84978 | 154° | 40km/h | 19525m | -6.2m/s | -50.1°C | 0.4% | 62.7hPa | 2.6V | 18:12:15 | 01:52:26 | 00:00:00 | |
| DL1XH-west | 2026-09-02 05:55:35 | 52.15540 | 14.84973 | 164° | 31km/h | 19531m | -6.4m/s | -50.1°C | 0.3% | 62.7hPa | 2.6V | 18:12:15 | 01:52:25 | 00:00:00 | |
| AA1-15 | 2026-09-02 05:55:34 | 52.15547 | 14.84971 | 175° | 22km/h | 19537m | -6.6m/s | -50.1°C | 0.4% | 62.6hPa | 2.7V | 18:12:15 | 01:52:24 | 00:00:00 | |
| DO3MHA-11 | 2026-09-02 05:55:34 | 52.15547 | 14.84971 | 176° | 27km/h | 19537m | -6.5m/s | -50.0°C | 3.4% | 62.6hPa | 2.7V | 00:00:00 | 01:52:24 | 00:00:00 | |
| DO2SHX-10 | 2026-09-02 05:55:33 | 52.15551 | 14.84970 | 185° | 9km/h | 19544m | -6.7m/s | -50.0°C | 3.4% | 62.5hPa | 2.7V | 00:00:00 | 01:52:23 | 00:00:00 | |
| EDDB2-12 | 2026-09-02 05:55:32 | 52.15553 | 14.84970 | 174° | 2km/h | 19551m | -6.5m/s | -50.0°C | 1.1% | 62.5hPa | 2.7V | 00:00:00 | 00:00:00 | 00:00:00 | |
| DJ2DS-15 | 2026-09-02 05:55:30 | 52.15550 | 14.84966 | 48° | 33km/h | 19564m | -6.6m/s | -49.9°C | 3.4% | 62.3hPa | 2.7V | 00:00:00 | 01:52:20 | 00:00:00 | |
| DM0DOS-11 | 2026-09-02 05:55:26 | 52.15576 | 14.84824 | 151° | 51km/h | 19622m | -6.9m/s | -50.5°C | 3.5% | 61.8hPa | 2.7V | 08:30:00 | 01:52:11 | 00:00:00 | |
| DB0DAN | 2026-09-02 05:55:25 | 52.15543 | 14.84892 | 105° | 49km/h | 19596m | -6.2m/s | -50°C | 1.1% | 62.06hPa | 2.6V | 00:00:00 | 00:00:00 | 00:00:00 | |
| DL1XH1-15 | 2026-09-02 05:55:25 | 52.15587 | 14.84817 | 162° | 46km/h | 19629m | -7m/s | -50.5°C | 3.5% | 61.7hPa | 2.6V | 08:30:00 | 01:52:10 | 00:00:00 | |
| DL1XH-west | 2026-09-02 05:55:25 | 52.15543 | 14.84892 | 105° | 53km/h | 19596m | -6.2m/s | -50°C | 0.4% | 62.1hPa | 2.6V | 18:12:15 | 01:52:15 | 00:00:00 | |
| DF8AY | 2026-09-02 05:55:24 | 52.15548 | 14.84871 | 117° | 55km/h | 19603m | -6.4m/s | -50.2°C | 0.4% | 62hPa | 2.6V | 18:12:15 | 01:52:14 | 00:00:00 | |
| AA1-15 | 2026-09-02 05:55:24 | 52.15555 | 14.84852 | 129° | 55km/h | 19609m | -6.4m/s | -50.3°C | 0.5% | 61.9hPa | 2.6V | 18:12:15 | 01:52:13 | 00:00:00 | |
| KRY50SP-1 | 2026-09-02 05:55:19 | 52.15587 | 14.84817 | 164° | 46km/h | 19629m | -7.0m/s | -50.5°C | 1.1% | 61.7hPa | 2.7V | 00:00:00 | 00:00:00 | 00:00:00 | |
| EDDB2-11 | 2026-09-02 05:55:18 | 52.15612 | 14.84815 | 199° | 18km/h | 19650m | -6.5m/s | -50.5°C | 1.1% | 61.5hPa | 2.7V | 00:00:00 | 00:00:00 | 00:00:00 | |
| DM0DOS-11 | 2026-09-02 05:55:16 | 52.15601 | 14.84795 | 66° | 37km/h | 19688m | -7m/s | -50.7°C | 3.7% | 61.2hPa | 2.7V | 08:30:00 | 01:52:01 | 00:00:00 | |
| DL1XH-west | 2026-09-02 05:55:14 | 52.15614 | 14.84819 | 21° | 15km/h | 19668m | -6.2m/s | -50.6°C | 0.5% | 61.4hPa | 2.6V | 18:12:15 | 01:52:04 | 00:00:00 | |
| DF8AY | 2026-09-02 05:55:13 | 52.15610 | 14.84815 | 39° | 22km/h | 19674m | -6.6m/s | -50.6°C | 0.4% | 61.3hPa | 2.7V | 18:12:15 | 01:52:03 | 00:00:00 | |
| AA1-15 | 2026-09-02 05:55:12 | 52.15605 | 14.84807 | 54° | 31km/h | 19681m | -7m/s | -50.6°C | 0.5% | 61.2hPa | 2.7V | 18:12:15 | 01:52:02 | 00:00:00 | |
| DB0DAN | 2026-09-02 05:55:10 | 52.15598 | 14.84779 | 80° | 40km/h | 19695m | -7.1m/s | -50.7°C | 1.1% | 61.1hPa | 2.6V | 00:00:00 | 00:00:00 | 00:00:00 | |
| DJ2DS-15 | 2026-09-02 05:55:10 | 52.15598 | 14.84779 | 81° | 33km/h | 19696m | -7.0m/s | -50.7°C | 3.7% | 61.1hPa | 2.6V | 00:00:00 | 01:52:00 | 00:00:00 | |
| SP3BTT-10 | 2026-09-02 05:55:09 | 52.15597 | 14.84761 | 93° | 24km/h | 19703m | -6.8m/s | -50.6°C | 3.7% | 61.0hPa | 2.6V | 00:00:00 | 00:00:00 | 00:00:00 | |
| KRY50SP-1 | 2026-09-02 05:55:08 | 52.15597 | 14.84761 | 93° | 47km/h | 19703m | -6.8m/s | -50.7°C | 1.1% | 61.1hPa | 2.7V | 00:00:00 | 00:00:00 | 00:00:00 | |
| DJ2DS-15 | 2026-09-02 05:55:07 | 52.15604 | 14.84723 | 119° | 49km/h | 19715m | -6.0m/s | -50.5°C | 1.1% | 60.9hPa | 2.7V | 00:00:00 | 00:00:00 | 00:00:00 | |
| DM0DOS-11 | 2026-09-02 05:55:06 | 52.15655 | 14.84685 | 209° | 22km/h | 19754m | -6.8m/s | -50.4°C | 3.5% | 60.6hPa | 2.7V | 08:30:00 | 01:51:51 | 00:00:00 | |
| DL1XH-west | 2026-09-02 05:55:03 | 52.15640 | 14.84681 | 174° | 37km/h | 19741m | -6.7m/s | -50.5°C | 0.4% | 60.7hPa | 2.6V | 18:12:15 | 01:51:53 | 00:00:00 | |
| AA1-15 | 2026-09-02 05:55:01 | 52.15655 | 14.84685 | 210° | 22km/h | 19754m | -6.8m/s | -50.4°C | 0.4% | 60.6hPa | 2.7V | 18:12:15 | 01:51:51 | 00:00:00 | |
| HSKMA3-T | 2026-09-02 05:54:57 | 52.15654 | 14.84699 | 8° | 18km/h | 19780m | -6.3m/s | 0°C | 0% | 0hPa | 2.7V | 18:12:15 | 01:51:47 | 00:00:00 | |
| DO2SHX-10 | 2026-09-02 05:54:57 | 52.15654 | 14.84699 | 8° | 27km/h | 19780m | -6.2m/s | -50.3°C | 3.5% | 60.3hPa | 2.7V | 00:00:00 | 01:51:47 | 00:00:00 | |
| DM0DOS-11 | 2026-09-02 05:54:56 | 52.15640 | 14.84636 | 112° | 35km/h | 19816m | -5m/s | -50.5°C | 3.6% | 60hPa | 2.7V | 08:30:00 | 01:51:41 | 00:00:00 | |
| DB0DAN | 2026-09-02 05:54:55 | 52.15644 | 14.84689 | 50° | 27km/h | 19792m | -6.3m/s | -50.3°C | 1.1% | 60.2hPa | 2.6V | 00:00:00 | 00:00:00 | 00:00:00 | |
| DL1XH1-15 | 2026-09-02 05:54:55 | 52.15640 | 14.84678 | 66° | 33km/h | 19799m | -6.3m/s | -50.3°C | 3.5% | 60.2hPa | 2.6V | 08:30:00 | 01:51:44 | 00:00:00 | |
| DL1XH-west | 2026-09-02 05:54:52 | 52.15637 | 14.84650 | 97° | 35km/h | 19811m | -5.8m/s | -50.4°C | 0.5% | 60hPa | 2.7V | 18:12:15 | 01:51:42 | 00:00:00 | |
| AA1-15 | 2026-09-02 05:54:50 | 52.15644 | 14.84625 | 129° | 31km/h | 19821m | -4.7m/s | -50.3°C | 0.4% | 59.9hPa | 2.7V | 18:12:15 | 01:51:40 | 00:00:00 | |
| EDDB2-11 | 2026-09-02 05:54:47 | 52.15663 | 14.84611 | 185° | 13km/h | 19839m | -4.3m/s | -50.4°C | 1.1% | 59.8hPa | 2.6V | 00:00:00 | 00:00:00 | 00:00:00 | |
| DM0DOS-11 | 2026-09-02 05:54:46 | 52.15673 | 14.84605 | 111° | 13km/h | 19878m | -11.6m/s | -50.3°C | 3.6% | 59.4hPa | 2.6V | 08:30:00 | 01:51:31 | 00:00:00 | |
| DL1XH1-15 | 2026-09-02 05:54:45 | 52.15669 | 14.84612 | 186° | 7km/h | 19848m | -5.4m/s | -50.5°C | 3.5% | 59.7hPa | 2.7V | 08:30:00 | 01:51:34 | 00:00:00 | |
| DL1XH-west | 2026-09-02 05:54:41 | 52.15673 | 14.84605 | 112° | 13km/h | 19878m | -11.6m/s | -50.3°C | 0.5% | 59.4hPa | 2.6V | 18:12:15 | 01:51:31 | 00:00:00 | |
| AA1-15 | 2026-09-02 05:54:40 | 52.15674 | 14.84601 | 107° | 11km/h | 19885m | -2.2m/s | -50.2°C | 0.5% | 59.4hPa | 2.7V | 18:12:15 | 01:51:30 | 00:00:00 | |
| SP3BTT-10 | 2026-09-02 05:54:39 | 52.15675 | 14.84596 | 116° | 20km/h | 19881m | 8.6m/s | -50.2°C | 3.6% | 59.3hPa | 2.7V | 00:00:00 | 00:00:00 | 00:00:00 | |
| DM0DOS-11 | 2026-09-02 05:54:36 | 52.15688 | 14.84561 | 112° | 11km/h | 19837m | 3.9m/s | -50.4°C | 3.6% | 59.8hPa | 2.7V | 08:30:00 | 01:51:21 | 00:00:00 | |
| DL1XH-west | 2026-09-02 05:54:30 | 52.15689 | 14.84556 | 105° | 13km/h | 19832m | 6.1m/s | -50.4°C | 0.5% | 59.8hPa | 2.7V | 18:12:15 | 01:51:20 | 00:00:00 | |
| AA1-15 | 2026-09-02 05:54:29 | 52.15689 | 14.84551 | 99° | 16km/h | 19827m | 4.1m/s | -50.4°C | 0.4% | 59.9hPa | 2.7V | 18:12:15 | 01:51:19 | 00:00:00 | |
| DO2SHX-10 | 2026-09-02 05:54:27 | 52.15690 | 14.84538 | 90° | 13km/h | 19817m | 5.5m/s | -50.3°C | 3.5% | 59.9hPa | 2.6V | 00:00:00 | 01:51:17 | 00:00:00 | |
| DM0DOS-11 | 2026-09-02 05:54:26 | 52.15696 | 14.84508 | 126° | 13km/h | 19787m | 3.8m/s | -50.3°C | 3.6% | 60.3hPa | 2.6V | 08:30:00 | 01:51:11 | 00:00:00 | |
| DB0DAN | 2026-09-02 05:54:25 | 52.15690 | 14.84528 | 99° | 13km/h | 19807m | 6.2m/s | -50.3°C | 1.1% | 60.08hPa | 2.7V | 00:00:00 | 00:00:00 | 00:00:00 | |
| DL1XH1-15 | 2026-09-02 05:54:25 | 52.15691 | 14.84522 | 108° | 15km/h | 19802m | 4.4m/s | -50.2°C | 3.5% | 60.1hPa | 2.7V | 08:30:00 | 01:51:14 | 00:00:00 | |
| HSKMA3-T | 2026-09-02 05:54:20 | 52.15698 | 14.84503 | 129° | 15km/h | 19782m | 6.1m/s | 0°C | 0% | 0hPa | 2.6V | 18:12:15 | 01:51:10 | 00:00:00 | |
| DL1XH-west | 2026-09-02 05:54:19 | 52.15700 | 14.84499 | 130° | 16km/h | 19777m | 5.1m/s | -50.3°C | 0.4% | 60.4hPa | 2.7V | 18:12:15 | 01:51:09 | 00:00:00 | |
| AA1-15 | 2026-09-02 05:54:18 | 52.15703 | 14.84493 | 126° | 16km/h | 19771m | 5.7m/s | -50.4°C | 0.4% | 60.4hPa | 2.7V | 18:12:15 | 01:51:08 | 00:00:00 | |
| DO2SHX-10 | 2026-09-02 05:54:18 | 52.15703 | 14.84493 | 127° | 15km/h | 19772m | 5.6m/s | -50.3°C | 3.6% | 60.4hPa | 2.6V | 00:00:00 | 01:51:08 | 00:00:00 | |
| DM0DOS-11 | 2026-09-02 05:54:16 | 52.15717 | 14.84450 | 115° | 22km/h | 19734m | 6m/s | -50.4°C | 3.5% | 60.8hPa | 2.6V | 08:30:00 | 01:51:01 | 00:00:00 | |
| DF8AY | 2026-09-02 05:54:10 | 52.15719 | 14.84442 | 116° | 24km/h | 19728m | 4.5m/s | -50.5°C | 0.4% | 60.8hPa | 2.7V | 18:12:15 | 01:51:00 | 00:00:00 | |
| DL1XH-west | 2026-09-02 05:54:09 | 52.15722 | 14.84433 | 118° | 22km/h | 19723m | 6.3m/s | -50.6°C | 0.4% | 60.9hPa | 2.7V | 18:12:15 | 01:50:59 | 00:00:00 | |
| AA1-15 | 2026-09-02 05:54:07 | 52.15727 | 14.84417 | 118° | 22km/h | 19713m | 5.5m/s | -50.6°C | 0.5% | 61hPa | 2.6V | 18:12:15 | 01:50:57 | 00:00:00 | |
| DL1XH1-15 | 2026-09-02 05:54:05 | 52.15735 | 14.84391 | 116° | 22km/h | 19697m | 6.2m/s | -50.6°C | 3.6% | 61.1hPa | 2.7V | 08:30:00 | 01:50:54 | 00:00:00 | |
| DF8AY | 2026-09-02 05:54:00 | 52.15745 | 14.84359 | 120° | 22km/h | 19678m | 4.2m/s | -50.5°C | 0.5% | 61.3hPa | 2.6V | 18:12:15 | 01:50:50 | 00:00:00 | |
| DL1XH-west | 2026-09-02 05:53:58 | 52.15750 | 14.84344 | 121° | 20km/h | 19668m | 5m/s | -50.5°C | 0.4% | 61.4hPa | 2.7V | 18:12:15 | 01:50:48 | 00:00:00 | |
| AA1-15 | 2026-09-02 05:53:56 | 52.15756 | 14.84328 | 121° | 26km/h | 19657m | 5.8m/s | -50.5°C | 0.4% | 61.5hPa | 2.6V | 18:12:15 | 01:50:46 | 00:00:00 | |
| DM0DOS-11 | 2026-09-02 05:53:56 | 52.15776 | 14.84282 | 125° | 29km/h | 19632m | 5.2m/s | -50.4°C | 3.6% | 61.7hPa | 2.6V | 08:30:00 | 01:50:41 | 00:00:00 | |
| DL1XH1-15 | 2026-09-02 05:53:55 | 52.15763 | 14.84309 | 122° | 27km/h | 19646m | 6.4m/s | -50.4°C | 3.6% | 61.6hPa | 2.7V | 08:30:00 | 01:50:44 | 00:00:00 | |
| DF8AY | 2026-09-02 05:53:49 | 52.15784 | 14.84263 | 124° | 27km/h | 19622m | 6.1m/s | -50.4°C | 0.5% | 61.8hPa | 2.7V | 18:12:15 | 01:50:39 | 00:00:00 | |
| DL1XH-west | 2026-09-02 05:53:47 | 52.15791 | 14.84246 | 123° | 24km/h | 19611m | 5m/s | -50.4°C | 0.5% | 61.9hPa | 2.7V | 18:12:15 | 01:50:37 | 00:00:00 | |
| KRY50SP-1 | 2026-09-02 05:53:46 | 52.15790 | 14.84246 | 124° | 24km/h | 19611m | 5.0m/s | -50.4°C | 1.1% | 61.9hPa | 2.7V | 00:00:00 | 00:00:00 | 00:00:00 | |
| DL1XH1-15 | 2026-09-02 05:53:45 | 52.15802 | 14.84212 | 116° | 24km/h | 19590m | 4.2m/s | -50.4°C | 3.6% | 62.1hPa | 2.7V | 08:30:00 | 01:50:33 | 00:00:00 | |
| AA1-15 | 2026-09-02 05:53:45 | 52.15797 | 14.84229 | 117° | 24km/h | 19601m | 4.6m/s | -50.4°C | 0.5% | 62hPa | 2.6V | 18:12:15 | 01:50:35 | 00:00:00 | |
| EDDB2-11 | 2026-09-02 05:53:45 | 52.15799 | 14.84220 | 116° | 22km/h | 19595m | 6.1m/s | -50.4°C | 1.1% | 62.1hPa | 2.7V | 00:00:00 | 00:00:00 | 00:00:00 | |
| DO3MHA-11 | 2026-09-02 05:53:43 | 52.15802 | 14.84212 | 117° | 29km/h | 19590m | 4.1m/s | -50.4°C | 3.6% | 62.1hPa | 2.7V | 00:00:00 | 01:50:33 | 00:00:00 | |
| DO2SHX-10 | 2026-09-02 05:53:42 | 52.15805 | 14.84202 | 115° | 27km/h | 19585m | 6.1m/s | -50.4°C | 3.5% | 62.1hPa | 2.7V | 00:00:00 | 01:50:32 | 00:00:00 | |
| SP6BVK | 2026-09-02 05:53:41 | 52.15805 | 14.84202 | 116° | 26km/h | 19585m | 6.2m/s | -50.4°C | 1.1% | 62.2hPa | 2.6V | 00:00:00 | 00:00:00 | 00:00:00 | |
| DB0DAN | 2026-09-02 05:53:40 | 52.15811 | 14.84181 | 115° | 27km/h | 19575m | 4.5m/s | -50.5°C | 1.1% | 62.28hPa | 2.6V | 00:00:00 | 00:00:00 | 00:00:00 | |
| DF8AY | 2026-09-02 05:53:37 | 52.15821 | 14.84149 | 121° | 31km/h | 19560m | 5.6m/s | -50.4°C | 0.4% | 62.4hPa | 2.7V | 18:12:15 | 01:50:27 | 00:00:00 | |
| DL1XH-west | 2026-09-02 05:53:36 | 52.15825 | 14.84138 | 118° | 33km/h | 19555m | 4.6m/s | -50.4°C | 0.4% | 62.5hPa | 2.7V | 18:12:15 | 01:50:26 | 00:00:00 | |
| AA1-15 | 2026-09-02 05:53:34 | 52.15832 | 14.84115 | 116° | 29km/h | 19545m | 5.2m/s | -50.5°C | 0.5% | 62.5hPa | 2.6V | 18:12:15 | 01:50:24 | 00:00:00 | |
| DF8AY | 2026-09-02 05:53:26 | 52.15855 | 14.84026 | 110° | 33km/h | 19505m | 4.2m/s | -50.6°C | 0.4% | 62.9hPa | 2.7V | 18:12:15 | 01:50:16 | 00:00:00 | |
| DB0DAN | 2026-09-02 05:53:25 | 52.15858 | 14.84014 | 109° | 31km/h | 19500m | 5.7m/s | -50.5°C | 1.1% | 62.99hPa | 2.6V | 00:00:00 | 00:00:00 | 00:00:00 | |
| DL1XH-west | 2026-09-02 05:53:25 | 52.15858 | 14.84014 | 109° | 33km/h | 19500m | 5.7m/s | -50.5°C | 0.5% | 63hPa | 2.6V | 18:12:15 | 01:50:15 | 00:00:00 | |
| AA1-15 | 2026-09-02 05:53:23 | 52.15863 | 14.83987 | 107° | 35km/h | 19489m | 6.2m/s | -50.4°C | 0.4% | 63.1hPa | 2.6V | 18:12:15 | 01:50:13 | 00:00:00 | |
| DF8AY | 2026-09-02 05:53:16 | 52.15877 | 14.83896 | 98° | 29km/h | 19454m | 5.6m/s | -50.4°C | 0.4% | 63.4hPa | 2.7V | 18:12:15 | 01:50:06 | 00:00:00 | |
| DL1XH-west | 2026-09-02 05:53:15 | 52.15878 | 14.83884 | 96° | 31km/h | 19449m | 4.1m/s | -50.4°C | 0.5% | 63.5hPa | 2.7V | 18:12:15 | 01:50:05 | 00:00:00 | |
| AA1-15 | 2026-09-02 05:53:12 | 52.15881 | 14.83844 | 96° | 31km/h | 19434m | 6.2m/s | -50.5°C | 0.4% | 63.6hPa | 2.7V | 18:12:15 | 01:50:02 | 00:00:00 | |
| DO2SHX-10 | 2026-09-02 05:53:12 | 52.15880 | 14.83844 | 96° | 31km/h | 19434m | 6.1m/s | -50.4°C | 3.5% | 63.6hPa | 2.6V | 00:00:00 | 01:50:02 | 00:00:00 | |
| KRY50SP-1 | 2026-09-02 05:53:11 | 52.15880 | 14.83844 | 97° | 31km/h | 19434m | 6.2m/s | -50.5°C | 1.1% | 63.6hPa | 2.6V | 00:00:00 | 00:00:00 | 00:00:00 | |
| DB0DAN | 2026-09-02 05:53:10 | 52.15882 | 14.83819 | 98° | 29km/h | 19425m | 4.9m/s | -50.6°C | 1.1% | 63.68hPa | 2.6V | 00:00:00 | 00:00:00 | 00:00:00 | |
| DJ2DS-15 | 2026-09-02 05:53:10 | 52.15882 | 14.83819 | 99° | 29km/h | 19425m | 4.9m/s | -50.5°C | 3.6% | 63.6hPa | 2.7V | 00:00:00 | 01:50:00 | 00:00:00 | |
| DO2SHX-10 | 2026-09-02 05:53:09 | 52.15884 | 14.83806 | 100° | 33km/h | 19420m | 5.0m/s | -50.5°C | 3.6% | 63.7hPa | 2.7V | 00:00:00 | 01:49:59 | 00:00:00 | |
| DM0DOS-11 | 2026-09-02 05:53:06 | 52.15897 | 14.83709 | 99° | 24km/h | 19379m | 4.7m/s | -50.3°C | 3.6% | 64.1hPa | 2.7V | 08:30:00 | 01:49:51 | 00:00:00 | |
| DL1XH-west | 2026-09-02 05:53:05 | 52.15890 | 14.83754 | 104° | 29km/h | 19400m | 5.8m/s | -50.5°C | 0.5% | 64hPa | 2.7V | 18:12:15 | 01:49:55 | 00:00:00 | |
| AA1-15 | 2026-09-02 05:53:01 | 52.15897 | 14.83709 | 100° | 24km/h | 19379m | 4.7m/s | -50.3°C | 0.4% | 64.1hPa | 2.7V | 18:12:15 | 01:49:51 | 00:00:00 | |
| DO2SHX-10 | 2026-09-02 05:53:00 | 52.15898 | 14.83699 | 100° | 26km/h | 19375m | 3.9m/s | -50.3°C | 3.5% | 64.1hPa | 2.6V | 00:00:00 | 01:49:50 | 00:00:00 | |
| 13BRC | 2026-09-02 05:52:58 | 52.15899 | 14.83689 | 103° | 26km/h | 19370m | 6.0m/s | -50.3°C | 1.1% | 64.3hPa | 2.6V | 00:00:00 | 00:00:00 | 00:00:00 | |
| DO2SHX-10 | 2026-09-02 05:52:57 | 52.15902 | 14.83669 | 108° | 26km/h | 19361m | 4.8m/s | -50.3°C | 3.5% | 64.3hPa | 2.6V | 00:00:00 | 01:49:47 | 00:00:00 | |
| DB0DAN | 2026-09-02 05:52:55 | 52.15907 | 14.83649 | 115° | 24km/h | 19351m | 4.3m/s | -50.3°C | 1.1% | 64.42hPa | 2.7V | 00:00:00 | 00:00:00 | 00:00:00 | |
| DF8AY | 2026-09-02 05:52:55 | 52.15907 | 14.83649 | 115° | 26km/h | 19350m | 4.3m/s | -50.3°C | 0.5% | 64.4hPa | 2.7V | 18:12:15 | 01:49:45 | 00:00:00 | |
| DL1XH-west | 2026-09-02 05:52:54 | 52.15910 | 14.83640 | 117° | 27km/h | 19345m | 6.3m/s | -50.3°C | 0.5% | 64.5hPa | 2.7V | 18:12:15 | 01:49:44 | 00:00:00 | |
| AA1-15 | 2026-09-02 05:52:50 | 52.15923 | 14.83597 | 116° | 29km/h | 19325m | 3.5m/s | -50.3°C | 0.5% | 64.7hPa | 2.7V | 18:12:15 | 01:49:40 | 00:00:00 | |
| DJ2DS-15 | 2026-09-02 05:52:50 | 52.15923 | 14.83597 | 117° | 31km/h | 19325m | 3.4m/s | -50.3°C | 3.6% | 64.6hPa | 2.7V | 00:00:00 | 01:49:40 | 00:00:00 | |
| DAC517 | 2026-09-02 05:52:49 | 52.15923 | 14.83597 | 117° | 29km/h | 19325m | 3.5m/s | -50.3°C | 1.1% | 64.7hPa | 2.6V | 00:00:00 | 00:00:00 | 00:00:00 | |
| DO2SHX-10 | 2026-09-02 05:52:48 | 52.15929 | 14.83574 | 113° | 31km/h | 19315m | 4.8m/s | -50.3°C | 3.6% | 64.7hPa | 2.6V | 00:00:00 | 01:49:38 | 00:00:00 | |
| DM0DOS-11 | 2026-09-02 05:52:47 | 52.15935 | 14.83552 | 111° | 27km/h | 19305m | 5.2m/s | -50.4°C | 3.5% | 64.9hPa | 2.7V | 08:30:00 | 01:49:36 | 00:00:00 | |
| DL1XH-west | 2026-09-02 05:52:44 | 52.15940 | 14.83530 | 108° | 29km/h | 19295m | 5.6m/s | -50.3°C | 0.4% | 65hPa | 2.7V | 18:12:15 | 01:49:34 | 00:00:00 | |
| EDDB2-11 | 2026-09-02 05:52:43 | 52.15944 | 14.83507 | 107° | 27km/h | 19285m | 6.0m/s | -50.4°C | 1.1% | 65.1hPa | 2.7V | 00:00:00 | 00:00:00 | 00:00:00 | |
| DO2SHX-10 | 2026-09-02 05:52:42 | 52.15944 | 14.83507 | 108° | 29km/h | 19285m | 5.9m/s | -50.3°C | 3.6% | 65.0hPa | 2.7V | 00:00:00 | 01:49:32 | 00:00:00 | |
| DB0DAN | 2026-09-02 05:52:40 | 52.15949 | 14.83485 | 108° | 27km/h | 19274m | 6.1m/s | -50.3°C | 1.1% | 65.18hPa | 2.7V | 00:00:00 | 00:00:00 | 00:00:00 | |
| AA1-15 | 2026-09-02 05:52:40 | 52.15949 | 14.83485 | 108° | 29km/h | 19274m | 6.1m/s | -50.3°C | 0.5% | 65.2hPa | 2.7V | 18:12:15 | 01:49:30 | 00:00:00 | |
| DO2SHX-10 | 2026-09-02 05:52:39 | 52.15951 | 14.83473 | 107° | 31km/h | 19269m | 4.8m/s | -50.3°C | 3.6% | 65.2hPa | 2.7V | 00:00:00 | 01:49:29 | 08:30:00 | |
| SONDE2-11 | 2026-09-02 05:52:38 | 52.15953 | 14.83460 | 107° | 31km/h | 19264m | 5.8m/s | -50.3°C | 1.1% | 65.3hPa | 2.6V | 00:00:00 | 00:00:00 | 00:00:00 | |
| DM0DOS-11 | 2026-09-02 05:52:37 | 52.15959 | 14.83436 | 110° | 33km/h | 19254m | 4.5m/s | -50.2°C | 3.6% | 65.3hPa | 2.6V | 08:30:00 | 01:49:26 | 00:00:00 | |
| DO2SHX-10 | 2026-09-02 05:52:36 | 52.15959 | 14.83436 | 111° | 35km/h | 19255m | 4.5m/s | -50.2°C | 3.6% | 65.3hPa | 2.7V | 00:00:00 | 01:49:26 | 00:00:00 | |
| DL1XH1-15 | 2026-09-02 05:52:34 | 52.15979 | 14.83340 | 110° | 38km/h | 19219m | 4.5m/s | -50.1°C | 3.5% | 65.7hPa | 2.7V | 08:30:00 | 01:49:19 | 00:00:00 | |
| DL1XH-west | 2026-09-02 05:52:33 | 52.15967 | 14.83395 | 109° | 35km/h | 19239m | 5.7m/s | -50.3°C | 0.4% | 65.5hPa | 2.7V | 18:12:15 | 01:49:23 | 00:00:00 | |
| AA1-15 | 2026-09-02 05:52:29 | 52.15980 | 14.83340 | 111° | 38km/h | 19219m | 4.5m/s | -50.1°C | 0.4% | 65.7hPa | 2.7V | 18:12:15 | 01:49:19 | 00:00:00 | |
| DO2SHX-10 | 2026-09-02 05:52:27 | 52.15987 | 14.83312 | 113° | 38km/h | 19209m | 4.3m/s | -50.1°C | 3.6% | 65.8hPa | 2.7V | 00:00:00 | 01:49:17 | 00:00:00 | |
| DB0DAN | 2026-09-02 05:52:25 | 52.15994 | 14.83283 | 109° | 37km/h | 19198m | 3.9m/s | -50°C | 1.1% | 65.94hPa | 2.7V | 00:00:00 | 00:00:00 | 00:00:00 | |
| DL1XH-west | 2026-09-02 05:52:23 | 52.15999 | 14.83254 | 103° | 37km/h | 19189m | 3.9m/s | -50.1°C | 0.5% | 66hPa | 2.7V | 18:12:15 | 01:49:13 | 00:00:00 | |
| DF8AY | 2026-09-02 05:52:22 | 52.16001 | 14.83238 | 100° | 38km/h | 19184m | 6.2m/s | -50°C | 0.4% | 66.1hPa | 2.6V | 18:12:15 | 01:49:12 | 00:00:00 | |
| DO2SHX-10 | 2026-09-02 05:52:21 | 52.16003 | 14.83222 | 98° | 40km/h | 19178m | 5.2m/s | -50.0°C | 3.6% | 66.1hPa | 2.6V | 00:00:00 | 01:49:11 | 00:00:00 | |
| DL1XH1-15 | 2026-09-02 05:52:19 | 52.16007 | 14.83173 | 97° | 42km/h | 19162m | 5.5m/s | -50°C | 3.5% | 66.3hPa | 2.7V | 08:30:00 | 01:49:08 | 00:00:00 | |
| AA1-15 | 2026-09-02 05:52:18 | 52.16007 | 14.83173 | 98° | 42km/h | 19163m | 5.5m/s | -50°C | 0.5% | 66.3hPa | 2.7V | 18:12:15 | 01:49:08 | 00:00:00 | |
| DO2SHX-10 | 2026-09-02 05:52:18 | 52.16007 | 14.83173 | 98° | 44km/h | 19163m | 5.5m/s | -50.0°C | 3.5% | 66.2hPa | 2.7V | 00:00:00 | 01:49:08 | 00:00:00 | |
| 13BRC | 2026-09-02 05:52:17 | 52.16007 | 14.83173 | 99° | 42km/h | 19163m | 5.5m/s | -50.0°C | 1.1% | 66.3hPa | 2.7V | 00:00:00 | 00:00:00 | 00:00:00 | |
| DM0DOS-11 | 2026-09-02 05:52:16 | 52.16016 | 14.83087 | 100° | 40km/h | 19137m | 5.9m/s | -50°C | 3.5% | 66.5hPa | 2.7V | 08:30:00 | 01:49:03 | 00:00:00 | |
| DO2SHX-10 | 2026-09-02 05:52:15 | 52.16012 | 14.83120 | 103° | 42km/h | 19147m | 5.3m/s | -49.9°C | 3.5% | 66.4hPa | 2.7V | 00:00:00 | 01:49:05 | 00:00:00 | |
| OK1SLM-15 | 2026-09-02 05:52:14 | 52.16012 | 14.83120 | 103° | 42km/h | 19147m | 5.3m/s | 0°C | 0% | 0hPa | 2.7V | 00:00:00 | 00:00:00 | 00:00:00 | |
| DL1XH1-15 | 2026-09-02 05:52:13 | 52.16024 | 14.83012 | 98° | 35km/h | 19112m | 5.5m/s | -50°C | 3.4% | 66.8hPa | 2.7V | 08:30:00 | 01:48:58 | 00:00:00 | |
| DL1XH-west | 2026-09-02 05:52:12 | 52.16018 | 14.83071 | 99° | 40km/h | 19132m | 4.2m/s | -50°C | 0.4% | 66.6hPa | 2.7V | 18:12:15 | 01:49:02 | 00:00:00 | |
| DF8AY | 2026-09-02 05:52:11 | 52.16020 | 14.83055 | 98° | 38km/h | 19127m | 5.1m/s | -50.1°C | 0.4% | 66.7hPa | 2.6V | 18:12:15 | 01:49:01 | 00:00:00 | |
| DB0DAN | 2026-09-02 05:52:10 | 52.16021 | 14.83040 | 99° | 33km/h | 19122m | 5.3m/s | -50.1°C | 1.1% | 66.73hPa | 2.6V | 00:00:00 | 00:00:00 | 00:00:00 | |
| AA1-15 | 2026-09-02 05:52:07 | 52.16025 | 14.82998 | 96° | 37km/h | 19108m | 4.7m/s | -50°C | 0.4% | 66.9hPa | 2.6V | 18:12:15 | 01:48:57 | 00:00:00 | |
| DJ2DS-15 | 2026-09-02 05:52:07 | 52.16026 | 14.82983 | 96° | 37km/h | 19102m | 5.1m/s | -50.1°C | 1.1% | 66.9hPa | 2.7V | 00:00:00 | 00:00:00 | 00:00:00 | |
| DM0DOS-11 | 2026-09-02 05:52:06 | 52.16030 | 14.82936 | 97° | 42km/h | 19088m | 5.8m/s | -50.1°C | 3.4% | 67hPa | 2.7V | 08:30:00 | 01:48:53 | 00:00:00 | |
| DL1XH-west | 2026-09-02 05:52:01 | 52.16033 | 14.82902 | 99° | 42km/h | 19078m | 5.2m/s | -50.1°C | 0.4% | 67.2hPa | 2.6V | 18:12:15 | 01:48:51 | 00:00:00 | |
| DF8AY | 2026-09-02 05:52:00 | 52.16034 | 14.82885 | 98° | 42km/h | 19073m | 4m/s | -50.1°C | 0.4% | 67.2hPa | 2.6V | 18:12:15 | 01:48:50 | 00:00:00 | |
| DO2SHX-10 | 2026-09-02 05:52:00 | 52.16034 | 14.82885 | 98° | 42km/h | 19073m | 3.9m/s | -50.1°C | 3.4% | 67.2hPa | 2.7V | 00:00:00 | 01:48:50 | 00:00:00 | |
| DL1XH1-15 | 2026-09-02 05:51:59 | 52.16037 | 14.82850 | 92° | 44km/h | 19063m | 4.5m/s | -50.2°C | 3.4% | 67.3hPa | 2.7V | 08:30:00 | 01:48:48 | 00:00:00 | |
| SP6BVK | 2026-09-02 05:51:58 | 52.16036 | 14.82867 | 97° | 44km/h | 19068m | 6.2m/s | -50.2°C | 1.1% | 67.3hPa | 2.6V | 00:00:00 | 00:00:00 | 00:00:00 | |
| DO2SHX-10 | 2026-09-02 05:51:57 | 52.16037 | 14.82832 | 92° | 42km/h | 19058m | 6.0m/s | -50.2°C | 3.4% | 67.4hPa | 2.6V | 00:00:00 | 01:48:47 | 00:00:00 | |
| DM0DOS-11 | 2026-09-02 05:51:56 | 52.16038 | 14.82764 | 91° | 42km/h | 19036m | 5.4m/s | -50.3°C | 3.4% | 67.6hPa | 2.6V | 08:30:00 | 01:48:43 | 00:00:00 | |
| AA1-15 | 2026-09-02 05:51:56 | 52.16037 | 14.82815 | 92° | 40km/h | 19052m | 5.1m/s | -50.3°C | 0.4% | 67.4hPa | 2.7V | 18:12:15 | 01:48:46 | 00:00:00 | |
| DB0DAN | 2026-09-02 05:51:55 | 52.16038 | 14.82799 | 92° | 38km/h | 19047m | 4.8m/s | -50.2°C | 1.1% | 67.48hPa | 2.6V | 00:00:00 | 00:00:00 | 00:00:00 | |
| DF8AY | 2026-09-02 05:51:55 | 52.16039 | 14.82710 | 92° | 47km/h | 19021m | 5.9m/s | -50.6°C | 0.4% | 67.8hPa | 2.6V | 18:12:15 | 01:48:40 | 00:00:00 | |
| EDDB2-12 | 2026-09-02 05:51:55 | 52.16038 | 14.82781 | 91° | 42km/h | 19042m | 5.7m/s | -50.3°C | 1.1% | 67.5hPa | 2.6V | 00:00:00 | 00:00:00 | 00:00:00 | |
| DO2SHX-10 | 2026-09-02 05:51:54 | 52.16038 | 14.82781 | 92° | 42km/h | 19042m | 5.7m/s | -50.2°C | 3.4% | 67.5hPa | 2.6V | 00:00:00 | 01:48:44 | 00:00:00 | |
| SP3BTT-10 | 2026-09-02 05:51:53 | 52.16038 | 14.82764 | 92° | 42km/h | 19037m | 5.4m/s | -50.3°C | 3.4% | 67.5hPa | 2.7V | 00:00:00 | 00:00:00 | 00:00:00 | |
| DL1XH1-15 | 2026-09-02 05:51:52 | 52.16040 | 14.82651 | 91° | 46km/h | 19007m | 5.1m/s | -50.7°C | 3.5% | 67.9hPa | 2.7V | 08:30:00 | 01:48:37 | 00:00:00 | |
| DL1XH-west | 2026-09-02 05:51:51 | 52.16039 | 14.82728 | 92° | 44km/h | 19027m | 4.8m/s | -50.5°C | 0.4% | 67.7hPa | 2.7V | 18:12:15 | 01:48:41 | 00:00:00 | |
| SP3WXH-11 | 2026-09-02 05:51:49 | 52.16040 | 14.82670 | 91° | 47km/h | 19012m | 5.5m/s | -50.7°C | 1.1% | 67.8hPa | 2.7V | 00:00:00 | 00:00:00 | 00:00:00 | |
| DO2SHX-10 | 2026-09-02 05:51:47 | 52.16040 | 14.82651 | 92° | 46km/h | 19007m | 5.1m/s | -50.7°C | 3.5% | 67.8hPa | 2.7V | 00:00:00 | 01:48:37 | 00:00:00 | |
| DM0DOS-11 | 2026-09-02 05:51:46 | 52.16040 | 14.82574 | 86° | 46km/h | 18988m | 5.2m/s | -51.2°C | 3.7% | 68.1hPa | 2.7V | 08:30:00 | 01:48:33 | 00:00:00 | |
| AA1-15 | 2026-09-02 05:51:45 | 52.16041 | 14.82613 | 91° | 47km/h | 18997m | 6.1m/s | -51°C | 0.6% | 68hPa | 2.6V | 18:12:15 | 01:48:35 | 00:00:00 | |
| DL1XH-west | 2026-09-02 05:51:40 | 52.16036 | 14.82520 | 80° | 46km/h | 18973m | 5.9m/s | -51.5°C | 0.5% | 68.2hPa | 2.6V | 18:12:15 | 01:48:30 | 00:00:00 | |
| DL1XH1-15 | 2026-09-02 05:51:39 | 52.16029 | 14.82464 | 81° | 46km/h | 18958m | 5m/s | -51.8°C | 3.8% | 68.4hPa | 2.7V | 08:30:00 | 01:48:27 | 00:00:00 | |
| DF8AY | 2026-09-02 05:51:39 | 52.16033 | 14.82501 | 79° | 47km/h | 18968m | 4.6m/s | -51.6°C | 0.5% | 68.3hPa | 2.6V | 18:12:15 | 01:48:29 | 00:00:00 | |
| S3001 | 2026-09-02 05:51:39 | 52.16031 | 14.82482 | 80° | 46km/h | 18963m | 4.8m/s | -51.7°C | 1.2% | 68.4hPa | 2.6V | 00:00:00 | 00:00:00 | 00:00:00 | |
| DO2SHX-10 | 2026-09-02 05:51:38 | 52.16031 | 14.82482 | 81° | 44km/h | 18963m | 4.7m/s | -51.6°C | 3.7% | 68.3hPa | 2.6V | 00:00:00 | 01:48:28 | 00:00:00 | |
| SP6BVK | 2026-09-02 05:51:37 | 52.16031 | 14.82482 | 81° | 47km/h | 18963m | 4.8m/s | -51.7°C | 1.2% | 68.4hPa | 2.6V | 00:00:00 | 00:00:00 | 00:00:00 | |
| DM0DOS-11 | 2026-09-02 05:51:36 | 52.16021 | 14.82391 | 76° | 42km/h | 18938m | 5.7m/s | -51.8°C | 3.8% | 68.6hPa | 2.6V | 08:30:00 | 01:48:23 | 00:00:00 | |
| AA1-15 | 2026-09-02 05:51:35 | 52.16025 | 14.82427 | 80° | 46km/h | 18948m | 5.4m/s | -51.8°C | 0.6% | 68.5hPa | 2.7V | 18:12:15 | 01:48:25 | 00:00:00 | |
| OK1SLM-15 | 2026-09-02 05:51:33 | 52.16023 | 14.82408 | 79° | 46km/h | 18944m | 4.5m/s | 0°C | 0% | 0hPa | 2.7V | 00:00:00 | 00:00:00 | 00:00:00 | |
| DL1XH1-15 | 2026-09-02 05:51:32 | 52.15998 | 14.82298 | 63° | 38km/h | 18908m | 5.5m/s | -51.6°C | 3.8% | 69hPa | 2.7V | 08:30:00 | 01:48:17 | 00:00:00 | |
| DL1XH-west | 2026-09-02 05:51:29 | 52.16007 | 14.82327 | 66° | 40km/h | 18918m | 5.3m/s | -51.6°C | 0.6% | 68.9hPa | 2.6V | 18:12:15 | 01:48:19 | 00:00:00 | |
| DF8AY | 2026-09-02 05:51:28 | 52.16003 | 14.82313 | 64° | 38km/h | 18913m | 5.2m/s | -51.6°C | 0.6% | 68.9hPa | 2.6V | 18:12:15 | 01:48:18 | 00:00:00 | |
| DB0DAN | 2026-09-02 05:51:25 | 52.15990 | 14.82268 | 64° | 38km/h | 18897m | 3.2m/s | -51.6°C | 1.2% | 69.06hPa | 2.6V | 00:00:00 | 00:00:00 | 00:00:00 | |
| AA1-15 | 2026-09-02 05:51:24 | 52.15985 | 14.82253 | 64° | 40km/h | 18893m | 6.4m/s | -51.6°C | 0.6% | 69.1hPa | 2.6V | 18:12:15 | 01:48:14 | 00:00:00 | |
| DL1XH-west | 2026-09-02 05:51:18 | 52.15958 | 14.82171 | 58° | 37km/h | 18861m | 4.9m/s | -51.5°C | 0.6% | 69.5hPa | 2.6V | 18:12:15 | 01:48:08 | 00:00:00 | |
| AA1-15 | 2026-09-02 05:51:14 | 52.15938 | 14.82118 | 59° | 35km/h | 18838m | 5.4m/s | -51.5°C | 0.6% | 69.7hPa | 2.7V | 18:12:15 | 01:48:04 | 00:00:00 | |
| DO2SHX-10 | 2026-09-02 05:51:13 | 52.15934 | 14.82105 | 61° | 35km/h | 18834m | 4.5m/s | -51.4°C | 3.8% | 69.7hPa | 2.6V | 00:00:00 | 01:48:03 | 00:00:00 | |
| DL1XH1-15 | 2026-09-02 05:51:12 | 52.15908 | 14.82030 | 59° | 35km/h | 18804m | 6.1m/s | -51.4°C | 3.9% | 70hPa | 2.6V | 08:30:00 | 01:47:57 | 00:00:00 | |
| DO3MHA-11 | 2026-09-02 05:51:12 | 52.15930 | 14.82092 | 63° | 35km/h | 18829m | 5.6m/s | -51.4°C | 3.8% | 69.8hPa | 2.6V | 00:00:00 | 01:48:02 | 08:30:00 | |
| DB0DAN | 2026-09-02 05:51:10 | 52.15921 | 14.82065 | 62° | 33km/h | 18819m | 5m/s | -51.5°C | 1.2% | 69.89hPa | 2.7V | 00:00:00 | 00:00:00 | 00:00:00 | |
| DL1XH-west | 2026-09-02 05:51:07 | 52.15908 | 14.82029 | 60° | 35km/h | 18804m | 6.1m/s | -51.4°C | 0.7% | 70hPa | 2.6V | 18:12:15 | 01:47:57 | 00:00:00 | |
| DM0DOS-11 | 2026-09-02 05:51:06 | 52.15889 | 14.81985 | 48° | 31km/h | 18785m | 3.8m/s | -51.1°C | 3.8% | 70.3hPa | 2.6V | 08:30:00 | 01:47:53 | 00:00:00 | |
| AA1-15 | 2026-09-02 05:51:03 | 52.15889 | 14.81985 | 49° | 31km/h | 18785m | 3.8m/s | -51.1°C | 0.6% | 70.3hPa | 2.6V | 18:12:15 | 01:47:53 | 00:00:00 | |
| DL1XH-west | 2026-09-02 05:50:57 | 52.15857 | 14.81925 | 51° | 35km/h | 18753m | 4.9m/s | -50.9°C | 0.5% | 70.6hPa | 2.6V | 18:12:15 | 01:47:47 | 00:00:00 | |
| DO2SHX-10 | 2026-09-02 05:50:57 | 52.15857 | 14.81925 | 51° | 33km/h | 18753m | 4.8m/s | -50.9°C | 3.7% | 70.5hPa | 2.6V | 00:00:00 | 01:47:47 | 00:00:00 | |
| DM0DOS-11 | 2026-09-02 05:50:55 | 52.15823 | 14.81861 | 46° | 26km/h | 18717m | 4.6m/s | -50.7°C | 3.7% | 71hPa | 2.6V | 08:30:00 | 01:47:40 | 00:00:00 | |
| DJ2DS-15 | 2026-09-02 05:50:55 | 52.15841 | 14.81895 | 47° | 29km/h | 18738m | 4.4m/s | -50.8°C | 1.1% | 70.8hPa | 2.6V | 00:00:00 | 00:00:00 | 00:00:00 | |
| EDDB2-12 | 2026-09-02 05:50:53 | 52.15832 | 14.81877 | 53° | 26km/h | 18728m | 4.1m/s | -50.7°C | 1.2% | 70.9hPa | 2.6V | 00:00:00 | 00:00:00 | 00:00:00 | |
| DL1XH1-15 | 2026-09-02 05:50:52 | 52.15811 | 14.81837 | 50° | 26km/h | 18702m | 3.6m/s | -50.6°C | 3.7% | 71.2hPa | 2.6V | 08:30:00 | 01:47:37 | 00:00:00 | |
| AA1-15 | 2026-09-02 05:50:52 | 52.15832 | 14.81877 | 54° | 27km/h | 18728m | 4.1m/s | -50.7°C | 0.5% | 70.9hPa | 2.6V | 18:12:15 | 01:47:42 | 00:00:00 | |
| DL1XH-west | 2026-09-02 05:50:46 | 52.15807 | 14.81829 | 46° | 26km/h | 18698m | 5.7m/s | -50.6°C | 0.6% | 71.2hPa | 2.6V | 18:12:15 | 01:47:36 | 00:00:00 | |
| DF8AY | 2026-09-02 05:50:41 | 52.15783 | 14.81791 | 43° | 26km/h | 18671m | 6m/s | -50.5°C | 0.4% | 71.5hPa | 2.6V | 18:12:15 | 01:47:31 | 00:00:00 | |
| DL1XH1-15 | 2026-09-02 05:50:39 | 52.15767 | 14.81761 | 47° | 22km/h | 18649m | 5.3m/s | -50.4°C | 3.5% | 71.7hPa | 2.6V | 08:30:00 | 01:47:27 | 00:00:00 | |
| DL1XH-west | 2026-09-02 05:50:35 | 52.15759 | 14.81746 | 54° | 24km/h | 18639m | 5.8m/s | -50.4°C | 0.5% | 71.9hPa | 2.6V | 18:12:15 | 01:47:25 | 00:00:00 | |
| OK1SLM-15 | 2026-09-02 05:50:34 | 52.15759 | 14.81746 | 55° | 24km/h | 18639m | 5.8m/s | 0°C | 0% | 0hPa | 2.6V | 00:00:00 | 00:00:00 | 00:00:00 | |
| DO2SHX-10 | 2026-09-02 05:50:32 | 52.15748 | 14.81722 | 48° | 24km/h | 18623m | 4.6m/s | -50.7°C | 3.7% | 72.0hPa | 2.6V | 00:00:00 | 01:47:22 | 00:00:00 | |
| DL1XH1-15 | 2026-09-02 05:50:31 | 52.15726 | 14.81681 | 46° | 18km/h | 18594m | 5.1m/s | -50.8°C | 3.6% | 72.3hPa | 2.6V | 08:30:00 | 01:47:16 | 00:00:00 | |
| AA1-15 | 2026-09-02 05:50:30 | 52.15740 | 14.81707 | 50° | 24km/h | 18613m | 5.6m/s | -50.7°C | 0.5% | 72.2hPa | 2.6V | 18:12:15 | 01:47:20 | 00:00:00 | |
| DF8AY | 2026-09-02 05:50:27 | 52.15729 | 14.81687 | 42° | 20km/h | 18599m | 5.1m/s | -50.8°C | 0.5% | 72.3hPa | 2.7V | 18:12:15 | 01:47:17 | 00:00:00 | |
| DB0DAN | 2026-09-02 05:50:25 | 52.15723 | 14.81676 | 54° | 16km/h | 18588m | 5.4m/s | -50.7°C | 1.2% | 72.41hPa | 2.6V | 00:00:00 | 00:00:00 | 00:00:00 | |
| DM0DOS-11 | 2026-09-02 05:50:25 | 52.15712 | 14.81648 | 61° | 16km/h | 18563m | 4.1m/s | -50.6°C | 3.6% | 72.7hPa | 2.6V | 08:30:00 | 01:47:10 | 00:00:00 | |
| DL1XH-west | 2026-09-02 05:50:24 | 52.15721 | 14.81670 | 59° | 16km/h | 18584m | 4.2m/s | -50.7°C | 0.5% | 72.5hPa | 2.7V | 18:12:15 | 01:47:14 | 00:00:00 | |
| AA1-15 | 2026-09-02 05:50:19 | 52.15710 | 14.81642 | 58° | 16km/h | 18558m | 6.4m/s | -50.6°C | 0.5% | 72.8hPa | 2.7V | 18:12:15 | 01:47:09 | 00:00:00 | |
| DJ2DS-15 | 2026-09-02 05:50:19 | 52.15708 | 14.81636 | 59° | 16km/h | 18553m | 4.4m/s | -50.6°C | 1.2% | 72.8hPa | 2.6V | 00:00:00 | 00:00:00 | 00:00:00 | |
| DM0DOS-11 | 2026-09-02 05:50:15 | 52.15695 | 14.81571 | 74° | 22km/h | 18509m | 6.4m/s | -50.6°C | 3.5% | 73.3hPa | 2.6V | 08:30:00 | 01:47:00 | 00:00:00 | |
| DF8AY | 2026-09-02 05:50:14 | 52.15701 | 14.81605 | 74° | 22km/h | 18531m | 5.4m/s | -50.6°C | 0.5% | 73.1hPa | 2.6V | 18:12:15 | 01:47:04 | 00:00:00 | |
| DL1XH-west | 2026-09-02 05:50:13 | 52.15699 | 14.81596 | 74° | 20km/h | 18526m | 4.6m/s | -50.5°C | 0.4% | 73.1hPa | 2.7V | 18:12:15 | 01:47:03 | 00:00:00 | |
| DB0NH | 2026-09-02 05:50:13 | 52.15699 | 14.81596 | 74° | 27km/h | 18526m | 4.5m/s | -50.5°C | 3.5% | 73.0hPa | 2.7V | 00:00:00 | 01:47:03 | 00:00:00 | |
| DL1XH1-15 | 2026-09-02 05:50:12 | 52.15690 | 14.81546 | 79° | 22km/h | 18493m | 5.3m/s | -50.9°C | 3.6% | 73.5hPa | 2.7V | 08:30:00 | 01:46:57 | 00:00:00 | |
| DB0DAN | 2026-09-02 05:50:10 | 52.15695 | 14.81571 | 74° | 20km/h | 18509m | 6.4m/s | -50.6°C | 1.1% | 73.31hPa | 2.6V | 00:00:00 | 00:00:00 | 00:00:00 | |
| AA1-15 | 2026-09-02 05:50:08 | 52.15692 | 14.81555 | 74° | 20km/h | 18499m | 5.8m/s | -50.8°C | 0.5% | 73.4hPa | 2.6V | 18:12:15 | 01:46:58 | 00:00:00 | |
| DL1XH-west | 2026-09-02 05:50:03 | 52.15688 | 14.81510 | 88° | 26km/h | 18473m | 5.9m/s | -51.1°C | 0.6% | 73.8hPa | 2.7V | 18:12:15 | 01:46:53 | 00:00:00 | |
| AA1-15 | 2026-09-02 05:49:57 | 52.15679 | 14.81436 | 77° | 35km/h | 18443m | 4.4m/s | -50.9°C | 0.6% | 74.1hPa | 2.7V | 18:12:15 | 01:46:47 | 00:00:00 | |
| KRY50SP-1 | 2026-09-02 05:49:56 | 52.15680 | 14.81435 | 78° | 35km/h | 18443m | 4.4m/s | -50.9°C | 1.2% | 74.1hPa | 2.6V | 00:00:00 | 00:00:00 | 00:00:00 | |
| DB0DAN | 2026-09-02 05:49:55 | 52.15675 | 14.81409 | 73° | 29km/h | 18432m | 4.9m/s | -50.9°C | 1.2% | 74.22hPa | 2.6V | 00:00:00 | 00:00:00 | 00:00:00 | |
| DL1XH1-15 | 2026-09-02 05:49:55 | 52.15673 | 14.81397 | 74° | 31km/h | 18426m | 5.8m/s | -51°C | 3.8% | 74.2hPa | 2.6V | 08:30:00 | 01:46:44 | 00:00:00 | |
| DL1XH-west | 2026-09-02 05:49:52 | 52.15669 | 14.81373 | 77° | 29km/h | 18416m | 5.7m/s | -50.9°C | 0.6% | 74.4hPa | 2.7V | 18:12:15 | 01:46:42 | 00:00:00 | |
| EDDB2-12 | 2026-09-02 05:49:51 | 52.15666 | 14.81351 | 73° | 26km/h | 18406m | 3.6m/s | -50.8°C | 1.2% | 74.5hPa | 2.6V | 00:00:00 | 00:00:00 | 00:00:00 | |
| 13BRC | 2026-09-02 05:49:50 | 52.15668 | 14.81361 | 73° | 27km/h | 18411m | 5.8m/s | -50.9°C | 1.2% | 74.4hPa | 2.6V | 00:00:00 | 00:00:00 | 00:00:00 | |
| DO3MHA-11 | 2026-09-02 05:49:49 | 52.15664 | 14.81340 | 77° | 27km/h | 18401m | 6.0m/s | -50.8°C | 3.6% | 74.5hPa | 2.6V | 00:00:00 | 01:46:39 | 00:00:00 | |
| DM0DOS-11 | 2026-09-02 05:49:46 | 52.15659 | 14.81284 | 86° | 29km/h | 18374m | 4.5m/s | -50.8°C | 3.6% | 74.8hPa | 2.6V | 08:30:00 | 01:46:34 | 00:00:00 | |
| AA1-15 | 2026-09-02 05:49:46 | 52.15661 | 14.81307 | 82° | 27km/h | 18385m | 4.8m/s | -50.8°C | 0.4% | 74.7hPa | 2.7V | 18:12:15 | 01:46:36 | 00:00:00 | |
| SP3WXH-11 | 2026-09-02 05:49:44 | 52.15659 | 14.81284 | 86° | 27km/h | 18374m | 4.5m/s | -50.8°C | 1.1% | 74.8hPa | 2.7V | 00:00:00 | 00:00:00 | 00:00:00 | |
| DL1XH-west | 2026-09-02 05:49:42 | 52.15658 | 14.81261 | 84° | 26km/h | 18363m | 5m/s | -50.8°C | 0.5% | 75hPa | 2.7V | 18:12:15 | 01:46:32 | 00:00:00 | |
| DAC517 | 2026-09-02 05:49:41 | 52.15658 | 14.81261 | 85° | 26km/h | 18364m | 5.0m/s | -50.8°C | 1.1% | 75.0hPa | 2.6V | 00:00:00 | 00:00:00 | 00:00:00 | |
| DB0DAN | 2026-09-02 05:49:40 | 52.15657 | 14.81241 | 87° | 24km/h | 18354m | 5.9m/s | -50.7°C | 1.2% | 75.08hPa | 2.6V | 00:00:00 | 00:00:00 | 00:00:00 | |
| DO3MHA-11 | 2026-09-02 05:49:39 | 52.15657 | 14.81231 | 91° | 22km/h | 18349m | 5.2m/s | -50.7°C | 3.6% | 75.1hPa | 2.6V | 00:00:00 | 01:46:29 | 08:30:00 | |
| SONCRA | 2026-09-02 05:49:37 | 52.15657 | 14.81212 | 87° | 20km/h | 18338m | 5.6m/s | -50.6°C | 1.2% | 75.3hPa | 2.7V | 00:00:00 | 00:00:00 | 00:00:00 | |
| DM0DOS-11 | 2026-09-02 05:49:36 | 52.15652 | 14.81162 | 81° | 18km/h | 18308m | 5.8m/s | -51°C | 3.6% | 75.6hPa | 2.7V | 08:30:00 | 01:46:21 | 00:00:00 | |
| AA1-15 | 2026-09-02 05:49:35 | 52.15656 | 14.81195 | 84° | 22km/h | 18328m | 6.1m/s | -50.7°C | 0.5% | 75.4hPa | 2.7V | 18:12:15 | 01:46:25 | 00:00:00 | |
| DF8AY | 2026-09-02 05:49:32 | 52.15653 | 14.81170 | 77° | 18km/h | 18313m | 4.3m/s | -50.9°C | 0.6% | 75.6hPa | 2.6V | 18:12:15 | 01:46:22 | 00:00:00 | |
| DL1XH-west | 2026-09-02 05:49:31 | 52.15652 | 14.81162 | 81° | 18km/h | 18308m | 5.8m/s | -51°C | 0.5% | 75.6hPa | 2.7V | 18:12:15 | 01:46:21 | 00:00:00 | |
| NBG1-10 | 2026-09-02 05:49:31 | 52.15652 | 14.81162 | 82° | 18km/h | 18308m | 5.8m/s | -50.9°C | 3.6% | 75.6hPa | 2.7V | 00:00:00 | 01:46:21 | 00:00:00 | |
| DJ2DS-15 | 2026-09-02 05:49:29 | 52.15652 | 14.81147 | 96° | 20km/h | 18297m | 6.4m/s | -51.0°C | 3.7% | 75.7hPa | 2.7V | 00:00:00 | 01:46:19 | 00:00:00 | |
| KRY50SP-1 | 2026-09-02 05:49:28 | 52.15652 | 14.81147 | 96° | 18km/h | 18297m | 6.4m/s | -51.1°C | 1.2% | 75.7hPa | 2.7V | 00:00:00 | 00:00:00 | 00:00:00 | |
| DM0DOS-11 | 2026-09-02 05:49:26 | 52.15662 | 14.81082 | 93° | 22km/h | 18255m | 5.5m/s | -51.1°C | 3.7% | 76.2hPa | 2.7V | 08:30:00 | 01:46:11 | 00:00:00 | |
| DB0DAN | 2026-09-02 05:49:25 | 52.15657 | 14.81116 | 112° | 20km/h | 18276m | 6.2m/s | -51.2°C | 1.2% | 75.99hPa | 2.7V | 00:00:00 | 00:00:00 | 00:00:00 | |
| DL1XH1-15 | 2026-09-02 05:49:25 | 52.15662 | 14.81091 | 100° | 24km/h | 18260m | 4.5m/s | -51.1°C | 3.8% | 76.2hPa | 2.6V | 08:30:00 | 01:46:12 | 00:00:00 | |
| AA1-15 | 2026-09-02 05:49:24 | 52.15659 | 14.81108 | 107° | 20km/h | 18270m | 4.7m/s | -51.2°C | 0.5% | 76.1hPa | 2.7V | 18:12:15 | 01:46:14 | 00:00:00 | |
| DF8AY | 2026-09-02 05:49:21 | 52.15662 | 14.81082 | 94° | 22km/h | 18255m | 5.5m/s | -51.1°C | 0.6% | 76.2hPa | 2.7V | 18:12:15 | 01:46:11 | 00:00:00 | |
| DL1XH-west | 2026-09-02 05:49:20 | 52.15663 | 14.81073 | 87° | 20km/h | 18250m | 5.2m/s | -51°C | 0.5% | 76.3hPa | 2.7V | 18:12:15 | 01:46:10 | 00:00:00 | |
| EDDB2-12 | 2026-09-02 05:49:20 | 52.15662 | 14.81065 | 79° | 18km/h | 18245m | 4.7m/s | -51.0°C | 1.2% | 76.4hPa | 2.6V | 00:00:00 | 00:00:00 | 00:00:00 | |
| DO3MHA-11 | 2026-09-02 05:49:18 | 52.15661 | 14.81056 | 79° | 20km/h | 18240m | 5.8m/s | -51.1°C | 3.7% | 76.4hPa | 2.6V | 00:00:00 | 01:46:08 | 00:00:00 | |
| DO2SHX-10 | 2026-09-02 05:49:17 | 52.15660 | 14.81048 | 74° | 20km/h | 18234m | 4.7m/s | -51.1°C | 3.8% | 76.4hPa | 2.6V | 00:00:00 | 01:46:07 | 08:30:00 | |
| DM0DOS-11 | 2026-09-02 05:49:16 | 52.15654 | 14.81004 | 85° | 18km/h | 18202m | 5.3m/s | -50.9°C | 3.7% | 76.9hPa | 2.6V | 08:30:00 | 01:46:01 | 00:00:00 | |
| DF8AY | 2026-09-02 05:49:16 | 52.15654 | 14.81004 | 86° | 20km/h | 18202m | 5.3m/s | -50.9°C | 0.6% | 76.9hPa | 2.6V | 18:12:15 | 01:46:01 | 00:00:00 | |
| DL1XH1-15 | 2026-09-02 05:49:15 | 52.15654 | 14.81012 | 85° | 20km/h | 18207m | 4m/s | -50.9°C | 3.7% | 76.8hPa | 2.6V | 08:30:00 | 01:46:02 | 00:00:00 | |
| AA1-15 | 2026-09-02 05:49:13 | 52.15655 | 14.81020 | 83° | 20km/h | 18211m | 5.1m/s | -50.9°C | 0.5% | 76.8hPa | 2.6V | 18:12:15 | 01:46:03 | 00:00:00 | |
| DL1XH-west | 2026-09-02 05:49:09 | 52.15653 | 14.80988 | 85° | 20km/h | 18192m | 5.8m/s | -50.9°C | 0.5% | 77hPa | 2.7V | 18:12:15 | 01:45:59 | 00:00:00 | |
| DJ2DS-15 | 2026-09-02 05:49:09 | 52.15653 | 14.80988 | 85° | 16km/h | 18192m | 5.7m/s | -50.9°C | 3.7% | 76.9hPa | 2.6V | 00:00:00 | 01:45:59 | 00:00:00 | |
| DO2SHX-10 | 2026-09-02 05:49:08 | 52.15653 | 14.80980 | 87° | 20km/h | 18187m | 4.7m/s | -50.9°C | 3.7% | 77.0hPa | 2.6V | 00:00:00 | 01:45:58 | 00:00:00 | |
| DM0DOS-11 | 2026-09-02 05:49:06 | 52.15642 | 14.80928 | 58° | 16km/h | 18151m | 5.2m/s | -50.8°C | 3.7% | 77.5hPa | 2.6V | 08:30:00 | 01:45:51 | 00:00:00 | |
| SONCRA | 2026-09-02 05:49:06 | 52.15650 | 14.80957 | 68° | 16km/h | 18171m | 4.1m/s | -50.8°C | 1.2% | 77.2hPa | 2.6V | 00:00:00 | 00:00:00 | 00:00:00 | |
| DL1XH1-15 | 2026-09-02 05:49:05 | 52.15644 | 14.80935 | 64° | 18km/h | 18156m | 5.5m/s | -50.8°C | 3.6% | 77.4hPa | 2.6V | 08:30:00 | 01:45:52 | 00:00:00 | |
| AA1-15 | 2026-09-02 05:49:03 | 52.15646 | 14.80942 | 68° | 20km/h | 18162m | 4.4m/s | -50.8°C | 0.5% | 77.3hPa | 2.7V | 18:12:15 | 01:45:53 | 00:00:00 | |
| DF8AY | 2026-09-02 05:49:01 | 52.15642 | 14.80928 | 58° | 16km/h | 18151m | 5.2m/s | -50.8°C | 0.5% | 77.5hPa | 2.6V | 18:12:15 | 01:45:51 | 00:00:00 | |
| DL1XH-west | 2026-09-02 05:48:59 | 52.15638 | 14.80916 | 65° | 16km/h | 18141m | 4.9m/s | -50.8°C | 0.5% | 77.6hPa | 2.7V | 18:12:15 | 01:45:49 | 00:00:00 | |
| DO3MHA-11 | 2026-09-02 05:48:58 | 52.15636 | 14.80910 | 66° | 16km/h | 18136m | 5.2m/s | -50.8°C | 3.6% | 77.6hPa | 2.6V | 00:00:00 | 01:45:48 | 00:00:00 | |
| DM0DOS-11 | 2026-09-02 05:48:56 | 52.15623 | 14.80870 | 54° | 18km/h | 18099m | 6m/s | -50.8°C | 3.6% | 78.1hPa | 2.6V | 08:30:00 | 01:45:41 | 00:00:00 | |
| AA1-15 | 2026-09-02 05:48:52 | 52.15626 | 14.80876 | 55° | 18km/h | 18105m | 4.6m/s | -50.8°C | 0.6% | 78hPa | 2.6V | 18:12:15 | 01:45:42 | 00:00:00 | |
| DF8AY | 2026-09-02 05:48:50 | 52.15621 | 14.80863 | 58° | 18km/h | 18094m | 4.8m/s | -50.7°C | 0.5% | 78.1hPa | 2.6V | 18:12:15 | 01:45:40 | 00:00:00 | |
| DL1XH-west | 2026-09-02 05:48:49 | 52.15618 | 14.80858 | 52° | 16km/h | 18089m | 4m/s | -50.8°C | 0.5% | 78.2hPa | 2.7V | 18:12:15 | 01:45:39 | 00:00:00 | |
| EDDB2-12 | 2026-09-02 05:48:49 | 52.15616 | 14.80853 | 44° | 15km/h | 18084m | 6.0m/s | -50.8°C | 1.2% | 78.2hPa | 2.7V | 00:00:00 | 00:00:00 | 00:00:00 | |
| DO3MHA-11 | 2026-09-02 05:48:48 | 52.15616 | 14.80853 | 45° | 13km/h | 18085m | 5.9m/s | -50.8°C | 3.6% | 78.2hPa | 2.7V | 00:00:00 | 01:45:38 | 00:00:00 | |
| DJ2DS-15 | 2026-09-02 05:48:47 | 52.15613 | 14.80849 | 33° | 16km/h | 18080m | 4.0m/s | -50.7°C | 3.7% | 78.3hPa | 2.7V | 00:00:00 | 01:45:37 | 08:30:00 | |
| DM0DOS-11 | 2026-09-02 05:48:46 | 52.15598 | 14.80832 | 40° | 15km/h | 18051m | 6m/s | -51.1°C | 3.7% | 78.7hPa | 2.6V | 08:30:00 | 01:45:31 | 00:00:00 | |
| AA1-15 | 2026-09-02 05:48:41 | 52.15598 | 14.80832 | 41° | 15km/h | 18051m | 6m/s | -51.1°C | 0.5% | 78.7hPa | 2.6V | 18:12:15 | 01:45:31 | 00:00:00 | |
| DB0DAN | 2026-09-02 05:48:40 | 52.15595 | 14.80828 | 37° | 15km/h | 18046m | 4.2m/s | -51.2°C | 1.2% | 78.77hPa | 2.6V | 00:00:00 | 00:00:00 | 00:00:00 | |
| DL1XH-west | 2026-09-02 05:48:38 | 52.15588 | 14.80820 | 27° | 20km/h | 18035m | 5.1m/s | -51.1°C | 0.6% | 78.9hPa | 2.7V | 18:12:15 | 01:45:28 | 00:00:00 | |
| KRY50SP-1 | 2026-09-02 05:48:38 | 52.15588 | 14.80820 | 28° | 20km/h | 18035m | 5.1m/s | -51.1°C | 1.2% | 78.9hPa | 2.6V | 00:00:00 | 00:00:00 | 00:00:00 | |
| DM0DOS-11 | 2026-09-02 05:48:36 | 52.15553 | 14.80795 | 21° | 18km/h | 18001m | 6.1m/s | -50.7°C | 3.7% | 79.3hPa | 2.6V | 08:30:00 | 01:45:21 | 00:00:00 | |
| AA1-15 | 2026-09-02 05:48:30 | 52.15549 | 14.80793 | 15° | 18km/h | 17995m | 5.2m/s | -50.7°C | 0.6% | 79.4hPa | 2.6V | 18:12:15 | 01:45:20 | 00:00:00 | |
| DL1XH-west | 2026-09-02 05:48:28 | 52.15541 | 14.80788 | 26° | 15km/h | 17986m | 5.7m/s | -50.7°C | 0.6% | 79.5hPa | 2.7V | 18:12:15 | 01:45:18 | 00:00:00 | |
| DM0DOS-11 | 2026-09-02 05:48:28 | 52.15517 | 14.80762 | 31° | 15km/h | 17950m | 6.3m/s | -50.4°C | 3.6% | 79.9hPa | 2.7V | 08:30:00 | 01:45:11 | 00:00:00 | |
| DF8AY | 2026-09-02 05:48:28 | 52.15538 | 14.80785 | 33° | 15km/h | 17981m | 3.6m/s | -50.7°C | 0.5% | 79.5hPa | 2.7V | 18:12:15 | 01:45:17 | 00:00:00 | |
| KRY50SP-1 | 2026-09-02 05:48:27 | 52.15538 | 14.80785 | 34° | 15km/h | 17981m | 3.6m/s | -50.7°C | 1.2% | 79.5hPa | 2.6V | 00:00:00 | 00:00:00 | 00:00:00 | |
| DB0DAN | 2026-09-02 05:48:25 | 52.15531 | 14.80778 | 30° | 16km/h | 17971m | 4.1m/s | -50.7°C | 1.2% | 79.66hPa | 2.6V | 00:00:00 | 00:00:00 | 00:00:00 | |
| AA1-15 | 2026-09-02 05:48:19 | 52.15510 | 14.80757 | 21° | 13km/h | 17941m | 3.6m/s | -50.5°C | 0.5% | 80hPa | 2.6V | 18:12:15 | 01:45:09 | 00:00:00 | |
| DL1XH-west | 2026-09-02 05:48:17 | 52.15505 | 14.80753 | 30° | 11km/h | 17930m | 4.3m/s | -50.5°C | 0.4% | 80.2hPa | 2.7V | 18:12:15 | 01:45:07 | 00:00:00 | |
| DO2SHX-10 | 2026-09-02 05:48:16 | 52.15502 | 14.80751 | 35° | 11km/h | 17926m | 6.0m/s | -50.4°C | 3.6% | 80.2hPa | 2.6V | 00:00:00 | 01:45:06 | 00:00:00 | |
| DB0NH | 2026-09-02 05:48:13 | 52.15495 | 14.80740 | 52° | 15km/h | 17910m | 5.3m/s | -50.4°C | 3.6% | 80.4hPa | 2.7V | 00:00:00 | 01:45:03 | 00:00:00 | |
| SP6BVK | 2026-09-02 05:48:11 | 52.15494 | 14.80736 | 52° | 11km/h | 17905m | 4.6m/s | -50.4°C | 1.2% | 80.5hPa | 2.6V | 00:00:00 | 00:00:00 | 00:00:00 | |
| DB0DAN | 2026-09-02 05:48:10 | 52.15490 | 14.80729 | 49° | 11km/h | 17895m | 4.8m/s | -50.3°C | 1.2% | 80.57hPa | 2.6V | 00:00:00 | 00:00:00 | 00:00:00 | |
| AA1-15 | 2026-09-02 05:48:08 | 52.15487 | 14.80722 | 63° | 7km/h | 17885m | 4.8m/s | -50.3°C | 0.5% | 80.7hPa | 2.6V | 18:12:15 | 01:44:58 | 00:00:00 | |
| DF8AY | 2026-09-02 05:48:06 | 52.15485 | 14.80716 | 57° | 9km/h | 17874m | 4.8m/s | -50.2°C | 0.5% | 80.8hPa | 2.7V | 18:12:15 | 01:44:56 | 00:00:00 | |
| AA1-15 | 2026-09-02 05:47:57 | 52.15484 | 14.80668 | 84° | 13km/h | 17826m | 3.5m/s | -50°C | 0.4% | 81.4hPa | 2.7V | 18:12:15 | 01:44:47 | 00:00:00 | |
| DO3MHA-11 | 2026-09-02 05:47:57 | 52.15484 | 14.80668 | 85° | 15km/h | 17826m | 3.5m/s | -50.0°C | 3.5% | 81.4hPa | 2.6V | 00:00:00 | 01:44:47 | 00:00:00 | |
| DB0DAN | 2026-09-02 05:47:55 | 52.15484 | 14.80658 | 96° | 11km/h | 17815m | 4.4m/s | -50.1°C | 1.1% | 81.58hPa | 2.6V | 00:00:00 | 00:00:00 | 00:00:00 | |
| DF8AY | 2026-09-02 05:47:55 | 52.15484 | 14.80658 | 96° | 13km/h | 17815m | 4.4m/s | -50.1°C | 0.4% | 81.6hPa | 2.6V | 18:12:15 | 01:44:45 | 00:00:00 | |
| DM0DOS-11 | 2026-09-02 05:47:54 | 52.15485 | 14.80631 | 106° | 15km/h | 17790m | 4.3m/s | -50°C | 3.4% | 81.9hPa | 2.7V | 08:30:00 | 01:44:40 | 00:00:00 | |
| AA1-15 | 2026-09-02 05:47:47 | 52.15488 | 14.80610 | 103° | 20km/h | 17775m | 5.6m/s | -50°C | 0.4% | 82.1hPa | 2.6V | 18:12:15 | 01:44:37 | 00:00:00 | |
| DL1XH-west | 2026-09-02 05:47:45 | 52.15491 | 14.80593 | 108° | 22km/h | 17764m | 6m/s | -50°C | 0.5% | 82.2hPa | 2.7V | 18:12:15 | 01:44:35 | 00:00:00 | |
| DM0DOS-11 | 2026-09-02 05:47:44 | 52.15500 | 14.80551 | 107° | 20km/h | 17739m | 5.1m/s | -50.2°C | 3.4% | 82.5hPa | 2.7V | 08:30:00 | 01:44:30 | 00:00:00 | |
| DB0DAN | 2026-09-02 05:47:40 | 52.15500 | 14.80551 | 108° | 18km/h | 17739m | 5.1m/s | -50.2°C | 1.1% | 82.52hPa | 2.7V | 00:00:00 | 00:00:00 | 00:00:00 | |
| AA1-15 | 2026-09-02 05:47:36 | 52.15506 | 14.80523 | 106° | 18km/h | 17719m | 5.6m/s | -50.3°C | 0.4% | 82.8hPa | 2.7V | 18:12:15 | 01:44:26 | 00:00:00 | |
| DL1XH-west | 2026-09-02 05:47:32 | 52.15512 | 14.80491 | 111° | 26km/h | 17700m | 4.1m/s | -50.4°C | 0.5% | 83hPa | 2.6V | 18:12:15 | 01:44:22 | 00:00:00 | |
| SP6BVK | 2026-09-02 05:47:30 | 52.15517 | 14.80470 | 106° | 31km/h | 17691m | 4.4m/s | -50.4°C | 1.2% | 83.1hPa | 2.7V | 00:00:00 | 00:00:00 | 00:00:00 | |
| MECKS9 | 2026-09-02 05:47:29 | 52.15517 | 14.80470 | 106° | 31km/h | 17691m | 4.4m/s | -50.4°C | 1.2% | 83.1hPa | 2.7V | 00:00:00 | 00:00:00 | 00:00:00 | |
| SONDE2-11 | 2026-09-02 05:47:28 | 52.15523 | 14.80434 | 105° | 29km/h | 17676m | 4.6m/s | -50.4°C | 1.2% | 83.3hPa | 2.7V | 00:00:00 | 00:00:00 | 00:00:00 | |
| DO3MHA-11 | 2026-09-02 05:47:27 | 52.15523 | 14.80434 | 106° | 33km/h | 17676m | 4.6m/s | -50.4°C | 3.6% | 83.3hPa | 2.7V | 00:00:00 | 01:44:17 | 00:00:00 | |
| DB0DAN | 2026-09-02 05:47:25 | 52.15526 | 14.80409 | 99° | 29km/h | 17666m | 4.7m/s | -50.4°C | 1.2% | 83.45hPa | 2.7V | 00:00:00 | 00:00:00 | 00:00:00 | |
| AA1-15 | 2026-09-02 05:47:25 | 52.15526 | 14.80409 | 99° | 31km/h | 17666m | 4.7m/s | -50.4°C | 0.5% | 83.5hPa | 2.7V | 18:12:15 | 01:44:15 | 00:00:00 | |
| DL1XH-west | 2026-09-02 05:47:22 | 52.15531 | 14.80372 | 100° | 33km/h | 17651m | 6.1m/s | -50.5°C | 0.5% | 83.6hPa | 2.6V | 18:12:15 | 01:44:12 | 00:00:00 | |
| DAC517 | 2026-09-02 05:47:18 | 52.15535 | 14.80332 | 105° | 35km/h | 17636m | 4.6m/s | -50.8°C | 1.2% | 83.9hPa | 2.6V | 00:00:00 | 00:00:00 | 00:00:00 | |
| DO3MHA-11 | 2026-09-02 05:47:17 | 52.15539 | 14.80304 | 100° | 37km/h | 17626m | 4.7m/s | -50.8°C | 3.7% | 83.9hPa | 2.6V | 00:00:00 | 01:44:07 | 00:00:00 | |
| DM0DOS-11 | 2026-09-02 05:47:16 | 52.15546 | 14.80216 | 93° | 37km/h | 17597m | 5m/s | -50.9°C | 3.7% | 84.3hPa | 2.6V | 08:30:00 | 01:44:01 | 00:00:00 | |
| AA1-15 | 2026-09-02 05:47:14 | 52.15544 | 14.80261 | 101° | 37km/h | 17611m | 3.8m/s | -51°C | 0.6% | 84.2hPa | 2.7V | 18:12:15 | 01:44:04 | 00:00:00 | |
| DL1XH-west | 2026-09-02 05:47:11 | 52.15546 | 14.80216 | 93° | 37km/h | 17597m | 5.1m/s | -50.9°C | 0.5% | 84.3hPa | 2.6V | 18:12:15 | 01:44:01 | 00:00:00 | |
| AA1-15 | 2026-09-02 05:47:04 | 52.15550 | 14.80118 | 89° | 33km/h | 17562m | 5.9m/s | -50.7°C | 0.5% | 84.8hPa | 2.7V | 18:12:15 | 01:43:54 | 00:00:00 | |
| DL1XH-west | 2026-09-02 05:47:01 | 52.15547 | 14.80076 | 84° | 37km/h | 17547m | 5m/s | -50.7°C | 0.6% | 85hPa | 2.6V | 18:12:15 | 01:43:51 | 00:00:00 | |
| DF8AY | 2026-09-02 05:47:00 | 52.15546 | 14.80061 | 81° | 37km/h | 17541m | 6.4m/s | -50.7°C | 0.5% | 85.1hPa | 2.6V | 18:12:15 | 01:43:50 | 00:00:00 | |
| S3001 | 2026-09-02 05:46:59 | 52.15545 | 14.80046 | 79° | 38km/h | 17536m | 3.8m/s | -50.8°C | 1.2% | 85.2hPa | 2.6V | 00:00:00 | 00:00:00 | 00:00:00 | |
| DAC517 | 2026-09-02 05:46:58 | 52.15543 | 14.80030 | 83° | 38km/h | 17532m | 4.8m/s | -50.7°C | 1.2% | 85.2hPa | 2.6V | 00:00:00 | 00:00:00 | 00:00:00 | |
| DO3MHA-11 | 2026-09-02 05:46:57 | 52.15542 | 14.80015 | 87° | 35km/h | 17527m | 5.2m/s | -50.7°C | 3.6% | 85.2hPa | 2.6V | 00:00:00 | 01:43:47 | 00:00:00 | |
| DB0DAN | 2026-09-02 05:46:55 | 52.15541 | 14.79986 | 90° | 33km/h | 17517m | 6.1m/s | -50.9°C | 1.2% | 85.41hPa | 2.6V | 00:00:00 | 00:00:00 | 00:00:00 | |
| DL1XH1-15 | 2026-09-02 05:46:55 | 52.15546 | 14.79918 | 99° | 33km/h | 17490m | 5m/s | -50.7°C | 3.6% | 85.7hPa | 2.6V | 08:30:00 | 01:43:40 | 00:00:00 | |
| AA1-15 | 2026-09-02 05:46:53 | 52.15542 | 14.79958 | 95° | 33km/h | 17506m | 5.8m/s | -50.9°C | 0.5% | 85.5hPa | 2.7V | 18:12:15 | 01:43:43 | 00:00:00 | |
| DL1XH-west | 2026-09-02 05:46:50 | 52.15546 | 14.79918 | 99° | 33km/h | 17490m | 5m/s | -50.7°C | 0.6% | 85.7hPa | 2.6V | 18:12:15 | 01:43:40 | 00:00:00 | |
| SP6BVK | 2026-09-02 05:46:48 | 52.15547 | 14.79904 | 99° | 33km/h | 17486m | 4.6m/s | -50.8°C | 1.2% | 85.8hPa | 2.6V | 00:00:00 | 00:00:00 | 00:00:00 | |
| DO3MHA-11 | 2026-09-02 05:46:47 | 52.15550 | 14.79878 | 102° | 35km/h | 17476m | 4.1m/s | -50.6°C | 3.6% | 85.9hPa | 2.6V | 00:00:00 | 01:43:37 | 00:00:00 | |
| KRY50SP-1 | 2026-09-02 05:46:46 | 52.15550 | 14.79878 | 102° | 33km/h | 17476m | 4.2m/s | -50.7°C | 1.2% | 86.0hPa | 2.6V | 00:00:00 | 00:00:00 | 00:00:00 | |
| DL1XH1-15 | 2026-09-02 05:46:45 | 52.15561 | 14.79783 | 99° | 37km/h | 17441m | 5.8m/s | -50.8°C | 3.6% | 86.4hPa | 2.6V | 08:30:00 | 01:43:30 | 00:00:00 | |
| DF8AY | 2026-09-02 05:46:45 | 52.15553 | 14.79851 | 99° | 35km/h | 17465m | 5m/s | -50.7°C | 0.5% | 86.1hPa | 2.6V | 18:12:15 | 01:43:35 | 00:00:00 | |
| EDDB2-12 | 2026-09-02 05:46:44 | 52.15554 | 14.79837 | 102° | 33km/h | 17460m | 5.6m/s | -50.7°C | 1.2% | 86.1hPa | 2.7V | 00:00:00 | 00:00:00 | 00:00:00 | |
| AA1-15 | 2026-09-02 05:46:42 | 52.15558 | 14.79811 | 102° | 33km/h | 17451m | 5.8m/s | -50.7°C | 0.5% | 86.3hPa | 2.7V | 18:12:15 | 01:43:32 | 00:00:00 | |
| DB0NH | 2026-09-02 05:46:42 | 52.15558 | 14.79811 | 103° | 46km/h | 17452m | 5.8m/s | -50.6°C | 3.5% | 86.2hPa | 2.7V | 00:00:00 | 01:43:32 | 08:30:00 | |
| KRY50SP-1 | 2026-09-02 05:46:41 | 52.15558 | 14.79811 | 103° | 33km/h | 17452m | 5.8m/s | -50.7°C | 1.2% | 86.3hPa | 2.6V | 00:00:00 | 00:00:00 | 00:00:00 | |
| DB0DAN | 2026-09-02 05:46:40 | 52.15561 | 14.79783 | 100° | 35km/h | 17441m | 5.8m/s | -50.8°C | 1.2% | 86.43hPa | 2.6V | 00:00:00 | 00:00:00 | 00:00:00 | |
| DL1XH-west | 2026-09-02 05:46:39 | 52.15563 | 14.79768 | 100° | 37km/h | 17435m | 5m/s | -50.8°C | 0.6% | 86.5hPa | 2.6V | 18:12:15 | 01:43:29 | 00:00:00 | |
| SP3WXH-11 | 2026-09-02 05:46:38 | 52.15564 | 14.79753 | 97° | 38km/h | 17431m | 3.9m/s | -50.8°C | 1.2% | 86.5hPa | 2.7V | 00:00:00 | 00:00:00 | 00:00:00 | |
| DO3MHA-11 | 2026-09-02 05:46:37 | 52.15565 | 14.79737 | 95° | 40km/h | 17426m | 5.5m/s | -50.8°C | 3.6% | 86.6hPa | 2.7V | 00:00:00 | 01:43:27 | 08:30:00 | |
| DAC517 | 2026-09-02 05:46:36 | 52.15565 | 14.79737 | 96° | 40km/h | 17426m | 5.6m/s | -50.9°C | 1.2% | 86.6hPa | 2.6V | 00:00:00 | 00:00:00 | 00:00:00 | |
| DL1XH1-15 | 2026-09-02 05:46:35 | 52.15566 | 14.79619 | 96° | 37km/h | 17389m | 4.5m/s | -51.1°C | 3.7% | 87.1hPa | 2.6V | 08:30:00 | 01:43:20 | 00:00:00 | |
| AA1-15 | 2026-09-02 05:46:31 | 52.15566 | 14.79635 | 92° | 38km/h | 17394m | 5.9m/s | -51.1°C | 0.5% | 87.1hPa | 2.6V | 18:12:15 | 01:43:21 | 00:00:00 | |
| DL1XH-west | 2026-09-02 05:46:29 | 52.15567 | 14.79604 | 97° | 38km/h | 17384m | 5.8m/s | -51.1°C | 0.5% | 87.1hPa | 2.6V | 18:12:15 | 01:43:19 | 00:00:00 | |
| DF8AY | 2026-09-02 05:46:28 | 52.15568 | 14.79588 | 96° | 40km/h | 17379m | 4.4m/s | -51.2°C | 0.5% | 87.2hPa | 2.7V | 18:12:15 | 01:43:18 | 00:00:00 | |
| DJ2DS-15 | 2026-09-02 05:46:27 | 52.15569 | 14.79571 | 97° | 46km/h | 17375m | 5.1m/s | -51.2°C | 3.7% | 87.2hPa | 2.7V | 00:00:00 | 01:43:17 | 00:00:00 | |
| DL1XH1-15 | 2026-09-02 05:46:25 | 52.15575 | 14.79446 | 93° | 46km/h | 17340m | 4.8m/s | -51.4°C | 3.7% | 87.8hPa | 2.7V | 08:30:00 | 01:43:10 | 00:00:00 | |
| AA1-15 | 2026-09-02 05:46:20 | 52.15575 | 14.79446 | 93° | 46km/h | 17340m | 4.9m/s | -51.4°C | 0.6% | 87.8hPa | 2.7V | 18:12:15 | 01:43:10 | 00:00:00 | |
| DL1XH-west | 2026-09-02 05:46:19 | 52.15576 | 14.79427 | 91° | 47km/h | 17334m | 6.5m/s | -51.3°C | 0.6% | 87.8hPa | 2.6V | 18:12:15 | 01:43:09 | 00:00:00 | |
| DF8AY | 2026-09-02 05:46:18 | 52.15576 | 14.79407 | 90° | 47km/h | 17328m | 4.5m/s | -51.4°C | 0.6% | 87.9hPa | 2.6V | 18:12:15 | 01:43:08 | 00:00:00 | |
| DL1XH1-15 | 2026-09-02 05:46:15 | 52.15576 | 14.79254 | 87° | 47km/h | 17288m | 6.2m/s | -51°C | 3.7% | 88.4hPa | 2.6V | 08:30:00 | 01:43:00 | 00:00:00 | |
| KRY50SP-1 | 2026-09-02 05:46:13 | 52.15577 | 14.79331 | 92° | 47km/h | 17308m | 5.2m/s | -51.2°C | 1.2% | 88.2hPa | 2.6V | 00:00:00 | 00:00:00 | 00:00:00 | |
| DB0DAN | 2026-09-02 05:46:10 | 52.15576 | 14.79254 | 88° | 46km/h | 17288m | 6.2m/s | -51.1°C | 1.2% | 88.45hPa | 2.6V | 00:00:00 | 00:00:00 | 00:00:00 | |
| AA1-15 | 2026-09-02 05:46:10 | 52.15576 | 14.79254 | 88° | 47km/h | 17288m | 6.2m/s | -51.1°C | 0.6% | 88.5hPa | 2.6V | 18:12:15 | 01:43:00 | 00:00:00 | |
| DL1XH-west | 2026-09-02 05:46:08 | 52.15574 | 14.79215 | 85° | 47km/h | 17277m | 6.2m/s | -50.9°C | 0.5% | 88.6hPa | 2.6V | 18:12:15 | 01:42:58 | 00:00:00 | |
| DF8AY | 2026-09-02 05:46:07 | 52.15573 | 14.79195 | 84° | 46km/h | 17272m | 4.2m/s | -50.9°C | 0.6% | 88.7hPa | 2.7V | 18:12:15 | 01:42:57 | 00:00:00 | |
| AA1-15 | 2026-09-02 05:45:59 | 52.15561 | 14.79049 | 85° | 44km/h | 17231m | 6.3m/s | -50.7°C | 0.6% | 89.3hPa | 2.7V | 18:12:15 | 01:42:49 | 00:00:00 | |
| DL1XH-west | 2026-09-02 05:45:58 | 52.15560 | 14.79031 | 86° | 42km/h | 17225m | 4.9m/s | -50.8°C | 0.6% | 89.3hPa | 2.6V | 18:12:15 | 01:42:48 | 00:00:00 | |
| DF8AY | 2026-09-02 05:45:56 | 52.15557 | 14.78977 | 85° | 44km/h | 17209m | 6.4m/s | -50.9°C | 0.6% | 89.5hPa | 2.7V | 18:12:15 | 01:42:45 | 00:00:00 | |
| DB0DAN | 2026-09-02 05:45:55 | 52.15557 | 14.78977 | 85° | 42km/h | 17209m | 6.4m/s | -50.9°C | 1.3% | 89.53hPa | 2.7V | 00:00:00 | 00:00:00 | 00:00:00 | |
| AA1-15 | 2026-09-02 05:45:49 | 52.15540 | 14.78873 | 66° | 44km/h | 17177m | 5.4m/s | -50.7°C | 0.5% | 90hPa | 2.6V | 18:12:15 | 01:42:39 | 00:00:00 | |
| DL1XH-west | 2026-09-02 05:45:48 | 52.15536 | 14.78857 | 67° | 44km/h | 17172m | 4.8m/s | -50.8°C | 0.6% | 90.1hPa | 2.6V | 18:12:15 | 01:42:38 | 00:00:00 | |
| DF8AY | 2026-09-02 05:45:45 | 52.15525 | 14.78809 | 71° | 38km/h | 17158m | 3.8m/s | -50.9°C | 0.5% | 90.2hPa | 2.7V | 18:12:15 | 01:42:35 | 00:00:00 | |
| DL1XH1-15 | 2026-09-02 05:45:44 | 52.15512 | 14.78728 | 76° | 44km/h | 17132m | 4.5m/s | -50.8°C | 3.6% | 90.6hPa | 2.7V | 08:30:00 | 01:42:30 | 00:00:00 | |
| 13BRC | 2026-09-02 05:45:42 | 52.15520 | 14.78778 | 77° | 40km/h | 17148m | 5.2m/s | -50.9°C | 1.2% | 90.4hPa | 2.7V | 00:00:00 | 00:00:00 | 00:00:00 | |
| DB0DAN | 2026-09-02 05:45:40 | 52.15512 | 14.78728 | 76° | 42km/h | 17132m | 4.5m/s | -50.8°C | 1.2% | 90.61hPa | 2.7V | 00:00:00 | 00:00:00 | 00:00:00 | |
| AA1-15 | 2026-09-02 05:45:38 | 52.15507 | 14.78690 | 80° | 47km/h | 17121m | 4.4m/s | -50.8°C | 0.5% | 90.8hPa | 2.7V | 18:12:15 | 01:42:28 | 00:00:00 | |
| DL1XH-west | 2026-09-02 05:45:37 | 52.15505 | 14.78671 | 79° | 47km/h | 17116m | 5.7m/s | -50.8°C | 0.5% | 90.8hPa | 2.6V | 18:12:15 | 01:42:27 | 00:00:00 | |
| DF8AY | 2026-09-02 05:45:34 | 52.15497 | 14.78614 | 79° | 49km/h | 17100m | 4.8m/s | -50.9°C | 0.5% | 91hPa | 2.7V | 18:12:15 | 01:42:24 | 00:00:00 | |
| KRY50SP-1 | 2026-09-02 05:45:33 | 52.15497 | 14.78614 | 80° | 47km/h | 17100m | 4.8m/s | -50.9°C | 1.2% | 91.0hPa | 2.7V | 00:00:00 | 00:00:00 | 00:00:00 | |
| DL1XH1-15 | 2026-09-02 05:45:30 | 52.15488 | 14.78537 | 79° | 49km/h | 17080m | 5.6m/s | -51.1°C | 3.7% | 91.3hPa | 2.7V | 08:30:00 | 01:42:20 | 00:00:00 | |
| AA1-15 | 2026-09-02 05:45:27 | 52.15482 | 14.78477 | 84° | 47km/h | 17065m | 4.2m/s | -51.1°C | 0.6% | 91.6hPa | 2.6V | 18:12:15 | 01:42:17 | 00:00:00 | |
| DL1XH-west | 2026-09-02 05:45:26 | 52.15481 | 14.78458 | 84° | 47km/h | 17060m | 5.7m/s | -51.1°C | 0.6% | 91.6hPa | 2.6V | 18:12:15 | 01:42:16 | 00:00:00 | |
| DB0DAN | 2026-09-02 05:45:25 | 52.15480 | 14.78438 | 83° | 46km/h | 17054m | 4.9m/s | -51.1°C | 1.2% | 91.67hPa | 2.7V | 00:00:00 | 00:00:00 | 00:00:00 | |
| KRY50SP-1 | 2026-09-02 05:45:24 | 52.15478 | 14.78419 | 81° | 46km/h | 17050m | 3.7m/s | -51.0°C | 1.3% | 91.8hPa | 2.6V | 00:00:00 | 00:00:00 | 00:00:00 | |
| DF8AY | 2026-09-02 05:45:24 | 52.15473 | 14.78368 | 81° | 40km/h | 17035m | 5.3m/s | -51°C | 0.6% | 92hPa | 2.6V | 18:12:15 | 01:42:11 | 00:00:00 | |
| 13BRC | 2026-09-02 05:45:22 | 52.15476 | 14.78401 | 81° | 44km/h | 17046m | 5.2m/s | -51.0°C | 1.3% | 91.8hPa | 2.6V | 00:00:00 | 00:00:00 | 00:00:00 | |
| DL1XH1-15 | 2026-09-02 05:45:20 | 52.15471 | 14.78351 | 81° | 42km/h | 17030m | 5.3m/s | -51°C | 3.7% | 92hPa | 2.6V | 08:30:00 | 01:42:10 | 00:00:00 | |
| AA1-15 | 2026-09-02 05:45:17 | 52.15468 | 14.78301 | 88° | 38km/h | 17016m | 3.5m/s | -50.9°C | 0.5% | 92.3hPa | 2.7V | 18:12:15 | 01:42:07 | 00:00:00 | |
| DL1XH-west | 2026-09-02 05:45:16 | 52.15467 | 14.78285 | 86° | 40km/h | 17011m | 6.1m/s | -50.9°C | 0.5% | 92.3hPa | 2.6V | 18:12:15 | 01:42:06 | 00:00:00 | |
| DO3MHA-11 | 2026-09-02 05:45:14 | 52.15466 | 14.78251 | 88° | 42km/h | 17001m | 4.4m/s | -50.8°C | 3.6% | 92.4hPa | 2.6V | 00:00:00 | 01:42:04 | 00:00:00 | |
| DO2SHX-10 | 2026-09-02 05:45:13 | 52.15465 | 14.78234 | 89° | 40km/h | 16997m | 5.7m/s | -50.8°C | 3.6% | 92.5hPa | 2.6V | 00:00:00 | 01:42:03 | 00:00:00 | |
| KRY50SP-1 | 2026-09-02 05:45:11 | 52.15465 | 14.78218 | 91° | 38km/h | 16991m | 4.1m/s | -50.8°C | 1.2% | 92.6hPa | 2.6V | 00:00:00 | 00:00:00 | 00:00:00 | |
| DB0DAN | 2026-09-02 05:45:10 | 52.15464 | 14.78186 | 87° | 38km/h | 16981m | 4.7m/s | -50.8°C | 1.2% | 92.73hPa | 2.6V | 00:00:00 | 00:00:00 | 00:00:00 | |
| DL1XH1-15 | 2026-09-02 05:45:10 | 52.15464 | 14.78186 | 86° | 40km/h | 16981m | 4.7m/s | -50.8°C | 3.6% | 92.7hPa | 2.6V | 08:30:00 | 01:42:00 | 00:00:00 | |
| AA1-15 | 2026-09-02 05:45:06 | 52.15465 | 14.78122 | 93° | 38km/h | 16961m | 6.3m/s | -50.9°C | 0.6% | 93hPa | 2.6V | 18:12:15 | 01:41:56 | 00:00:00 | |
| DL1XH-west | 2026-09-02 05:45:05 | 52.15465 | 14.78106 | 95° | 38km/h | 16956m | 4.1m/s | -50.9°C | 0.6% | 93.1hPa | 2.6V | 18:12:15 | 01:41:55 | 00:00:00 | |
| DF8AY | 2026-09-02 05:45:02 | 52.15470 | 14.78060 | 102° | 37km/h | 16941m | 4.7m/s | -51°C | 0.6% | 93.3hPa | 2.7V | 18:12:15 | 01:41:52 | 00:00:00 | |
| 13BRC | 2026-09-02 05:45:02 | 52.15470 | 14.78060 | 103° | 37km/h | 16941m | 4.7m/s | -51.0°C | 1.3% | 93.3hPa | 2.6V | 00:00:00 | 00:00:00 | 00:00:00 | |
| DL1XH1-15 | 2026-09-02 05:45:00 | 52.15474 | 14.78015 | 98° | 37km/h | 16926m | 5.3m/s | -51.1°C | 3.7% | 93.5hPa | 2.6V | 08:30:00 | 01:41:49 | 00:00:00 | |
| AA1-15 | 2026-09-02 05:44:56 | 52.15478 | 14.77973 | 97° | 35km/h | 16911m | 5.7m/s | -51.1°C | 0.6% | 93.7hPa | 2.7V | 18:12:15 | 01:41:46 | 00:00:00 | |
| DB0DAN | 2026-09-02 05:44:55 | 52.15479 | 14.77958 | 98° | 35km/h | 16906m | 4m/s | -51.1°C | 1.3% | 93.81hPa | 2.6V | 00:00:00 | 00:00:00 | 00:00:00 | |
| DL1XH-west | 2026-09-02 05:44:55 | 52.15479 | 14.77958 | 98° | 37km/h | 16906m | 4m/s | -51.1°C | 0.6% | 93.8hPa | 2.6V | 18:12:15 | 01:41:45 | 00:00:00 | |
| DO2SHX-10 | 2026-09-02 05:44:55 | 52.15479 | 14.77958 | 98° | 37km/h | 16906m | 4.0m/s | -51.0°C | 3.7% | 93.8hPa | 2.6V | 00:00:00 | 01:41:45 | 08:30:00 | |
| DL1XH1-15 | 2026-09-02 05:44:54 | 52.15492 | 14.77871 | 108° | 33km/h | 16877m | 3.1m/s | -51.2°C | 3.7% | 94.2hPa | 2.6V | 08:30:00 | 01:41:39 | 00:00:00 | |
| SONDE2-11 | 2026-09-02 05:44:53 | 52.15485 | 14.77914 | 103° | 37km/h | 16891m | 4.9m/s | -51.3°C | 1.3% | 94.0hPa | 2.7V | 00:00:00 | 00:00:00 | 00:00:00 | |
| NBG1-10 | 2026-09-02 05:44:52 | 52.15485 | 14.77914 | 104° | 38km/h | 16891m | 4.8m/s | -51.2°C | 3.7% | 94.0hPa | 2.7V | 00:00:00 | 01:41:42 | 00:00:00 | |
| DO3MHA-11 | 2026-09-02 05:44:51 | 52.15487 | 14.77899 | 106° | 37km/h | 16887m | 4.2m/s | -51.2°C | 3.7% | 94.0hPa | 2.7V | 00:00:00 | 01:41:41 | 00:00:00 | |
| DM0DOS-11 | 2026-09-02 05:44:47 | 52.15506 | 14.77803 | 111° | 38km/h | 16854m | 3.5m/s | -51.2°C | 3.7% | 94.6hPa | 2.7V | 08:30:00 | 01:41:34 | 00:00:00 | |
| DF8AY | 2026-09-02 05:44:46 | 52.15500 | 14.77831 | 108° | 37km/h | 16863m | 4.8m/s | -51.3°C | 0.7% | 94.4hPa | 2.6V | 18:12:15 | 01:41:36 | 00:00:00 | |
| DL1XH-west | 2026-09-02 05:44:45 | 52.15503 | 14.77817 | 110° | 37km/h | 16858m | 5.7m/s | -51.3°C | 0.6% | 94.5hPa | 2.6V | 18:12:15 | 01:41:35 | 00:00:00 | |
| DO2SHX-10 | 2026-09-02 05:44:43 | 52.15510 | 14.77788 | 109° | 38km/h | 16849m | 5.5m/s | -51.1°C | 3.7% | 94.6hPa | 2.7V | 00:00:00 | 01:41:33 | 00:00:00 | |
| KRY50SP-1 | 2026-09-02 05:44:42 | 52.15509 | 14.77788 | 109° | 38km/h | 16849m | 5.5m/s | -51.2°C | 1.3% | 94.7hPa | 2.6V | 00:00:00 | 00:00:00 | 00:00:00 | |
| DO3MHA-11 | 2026-09-02 05:44:41 | 52.15515 | 14.77756 | 105° | 38km/h | 16839m | 5.4m/s | -51.2°C | 3.7% | 94.8hPa | 2.6V | 00:00:00 | 01:41:31 | 00:00:00 | |
| EDDB2-12 | 2026-09-02 05:44:40 | 52.15517 | 14.77741 | 104° | 38km/h | 16834m | 5.2m/s | -51.3°C | 1.3% | 94.9hPa | 2.6V | 00:00:00 | 00:00:00 | 00:00:00 | |
| DB0DAN | 2026-09-02 05:44:40 | 52.15517 | 14.77741 | 104° | 38km/h | 16833m | 5.2m/s | -51.3°C | 1.3% | 94.86hPa | 2.6V | 00:00:00 | 00:00:00 | 00:00:00 | |
| DM0DOS-11 | 2026-09-02 05:44:37 | 52.15529 | 14.77649 | 95° | 37km/h | 16804m | 5.6m/s | -51.4°C | 3.8% | 95.3hPa | 2.6V | 08:30:00 | 01:41:24 | 00:00:00 | |
| DL1XH-west | 2026-09-02 05:44:35 | 52.15528 | 14.77663 | 100° | 37km/h | 16809m | 4.3m/s | -51.3°C | 0.7% | 95.3hPa | 2.6V | 18:12:15 | 01:41:25 | 00:00:00 | |
| AA1-15 | 2026-09-02 05:44:34 | 52.15529 | 14.77649 | 96° | 37km/h | 16804m | 5.6m/s | -51.4°C | 0.7% | 95.3hPa | 2.6V | 18:12:15 | 01:41:24 | 00:00:00 | |
| DB0NH | 2026-09-02 05:44:33 | 52.15530 | 14.77634 | 94° | 38km/h | 16798m | 4.7m/s | -51.3°C | 3.7% | 95.3hPa | 2.7V | 00:00:00 | 01:41:23 | 00:00:00 | |
| DAC517 | 2026-09-02 05:44:32 | 52.15530 | 14.77634 | 94° | 37km/h | 16798m | 4.8m/s | -51.4°C | 1.3% | 95.4hPa | 2.7V | 00:00:00 | 00:00:00 | 00:00:00 | |
| DO3MHA-11 | 2026-09-02 05:44:31 | 52.15531 | 14.77604 | 95° | 38km/h | 16788m | 3.7m/s | -51.3°C | 3.8% | 95.5hPa | 2.7V | 00:00:00 | 01:41:21 | 00:00:00 | |
| DM0DOS-11 | 2026-09-02 05:44:27 | 52.15532 | 14.77488 | 86° | 42km/h | 16756m | 4.7m/s | -51.3°C | 3.8% | 96hPa | 2.6V | 08:30:00 | 01:41:14 | 00:00:00 | |
| MECKS9 | 2026-09-02 05:44:26 | 52.15532 | 14.77540 | 93° | 42km/h | 16770m | 5.8m/s | -51.3°C | 1.3% | 95.8hPa | 2.6V | 00:00:00 | 00:00:00 | 00:00:00 | |
| DB0DAN | 2026-09-02 05:44:25 | 52.15533 | 14.77506 | 88° | 40km/h | 16761m | 5.9m/s | -51.3°C | 1.3% | 95.93hPa | 2.6V | 00:00:00 | 00:00:00 | 00:00:00 | |
| DL1XH-west | 2026-09-02 05:44:25 | 52.15533 | 14.77506 | 88° | 42km/h | 16761m | 5.9m/s | -51.3°C | 0.7% | 95.9hPa | 2.6V | 18:12:15 | 01:41:15 | 00:00:00 | |
| AA1-15 | 2026-09-02 05:44:23 | 52.15531 | 14.77471 | 85° | 40km/h | 16751m | 6m/s | -51.3°C | 0.6% | 96.1hPa | 2.7V | 18:12:15 | 01:41:13 | 00:00:00 | |
| KRY50SP-1 | 2026-09-02 05:44:21 | 52.15530 | 14.77440 | 84° | 38km/h | 16742m | 6.0m/s | -51.3°C | 1.3% | 96.3hPa | 2.7V | 00:00:00 | 00:00:00 | 00:00:00 | |
| DJ2DS-15 | 2026-09-02 05:44:18 | 52.15526 | 14.77394 | 82° | 37km/h | 16726m | 4.2m/s | -51.2°C | 1.3% | 96.5hPa | 2.7V | 00:00:00 | 00:00:00 | 00:00:00 | |
| DM0DOS-11 | 2026-09-02 05:44:17 | 52.15520 | 14.77327 | 86° | 40km/h | 16707m | 5.4m/s | -51.2°C | 3.8% | 96.7hPa | 2.7V | 08:30:00 | 01:41:04 | 00:00:00 | |
| DL1XH-west | 2026-09-02 05:44:14 | 52.15520 | 14.77327 | 87° | 40km/h | 16707m | 5.4m/s | -51.2°C | 0.6% | 96.7hPa | 2.7V | 18:12:15 | 01:41:04 | 00:00:00 | |
| AA1-15 | 2026-09-02 05:44:13 | 52.15520 | 14.77310 | 88° | 40km/h | 16702m | 5.7m/s | -51.2°C | 0.6% | 96.8hPa | 2.7V | 18:12:15 | 01:41:03 | 00:00:00 | |
| DF8AY | 2026-09-02 05:44:12 | 52.15519 | 14.77294 | 87° | 40km/h | 16697m | 4.4m/s | -51.2°C | 0.6% | 96.9hPa | 2.7V | 18:12:15 | 01:41:02 | 00:00:00 | |
| DO2SHX-10 | 2026-09-02 05:44:12 | 52.15519 | 14.77293 | 88° | 40km/h | 16697m | 4.3m/s | -51.2°C | 3.7% | 96.9hPa | 2.7V | 00:00:00 | 01:41:02 | 08:30:00 | |
| DB0DAN | 2026-09-02 05:44:10 | 52.15519 | 14.77262 | 93° | 35km/h | 16686m | 5.5m/s | -51.2°C | 1.2% | 97.03hPa | 2.6V | 00:00:00 | 00:00:00 | 00:00:00 | |
| DL1XH-west | 2026-09-02 05:44:03 | 52.15520 | 14.77159 | 93° | 40km/h | 16653m | 4.7m/s | -51°C | 0.6% | 97.5hPa | 2.6V | 18:12:15 | 01:40:53 | 00:00:00 | |
| AA1-15 | 2026-09-02 05:44:02 | 52.15521 | 14.77143 | 96° | 40km/h | 16648m | 4.9m/s | -51°C | 0.6% | 97.6hPa | 2.7V | 18:12:15 | 01:40:52 | 00:00:00 | |
| DL1XH1-15 | 2026-09-02 05:44:01 | 52.15526 | 14.77092 | 98° | 42km/h | 16634m | 5m/s | -51.1°C | 3.8% | 97.8hPa | 2.6V | 08:30:00 | 01:40:49 | 00:00:00 | |
| DF8AY | 2026-09-02 05:44:00 | 52.15524 | 14.77109 | 100° | 42km/h | 16638m | 4.3m/s | -51.2°C | 0.7% | 97.8hPa | 2.6V | 18:12:15 | 01:40:50 | 00:00:00 | |
| 13BRC | 2026-09-02 05:43:59 | 52.15524 | 14.77109 | 101° | 42km/h | 16638m | 4.3m/s | -51.1°C | 1.3% | 97.7hPa | 2.6V | 00:00:00 | 00:00:00 | 00:00:00 | |
| KRY50SP-1 | 2026-09-02 05:43:58 | 52.15527 | 14.77074 | 100° | 42km/h | 16630m | 3.2m/s | -51.1°C | 1.3% | 97.9hPa | 2.6V | 00:00:00 | 00:00:00 | 00:00:00 | |
| DO2SHX-10 | 2026-09-02 05:43:57 | 52.15529 | 14.77057 | 101° | 42km/h | 16625m | 5.6m/s | -51.1°C | 3.8% | 97.9hPa | 2.6V | 00:00:00 | 01:40:47 | 00:00:00 | |
| DB0DAN | 2026-09-02 05:43:55 | 52.15533 | 14.77025 | 100° | 38km/h | 16615m | 6m/s | -51.2°C | 1.3% | 98.12hPa | 2.6V | 00:00:00 | 00:00:00 | 00:00:00 | |
| DL1XH-west | 2026-09-02 05:43:53 | 52.15537 | 14.76991 | 101° | 42km/h | 16605m | 5.4m/s | -51.3°C | 0.7% | 98.2hPa | 2.7V | 18:12:15 | 01:40:43 | 00:00:00 | |
| AA1-15 | 2026-09-02 05:43:51 | 52.15541 | 14.76958 | 102° | 42km/h | 16596m | 4.1m/s | -51.1°C | 0.6% | 98.4hPa | 2.7V | 18:12:15 | 01:40:41 | 00:00:00 | |
| DL1XH1-15 | 2026-09-02 05:43:51 | 52.15546 | 14.76922 | 100° | 47km/h | 16587m | 3.7m/s | -51.1°C | 3.8% | 98.5hPa | 2.6V | 08:30:00 | 01:40:39 | 00:00:00 | |
| DF8AY | 2026-09-02 05:43:47 | 52.15550 | 14.76884 | 101° | 46km/h | 16577m | 3.8m/s | -51°C | 0.6% | 98.7hPa | 2.7V | 18:12:15 | 01:40:37 | 00:00:00 | |
| DO3MHA-11 | 2026-09-02 05:43:47 | 52.15550 | 14.76884 | 102° | 42km/h | 16577m | 3.7m/s | 0°C | 0% | 0hPa | 2.7V | 00:00:00 | 01:40:37 | 00:00:00 | |
| DM0DOS-11 | 2026-09-02 05:43:46 | 52.15560 | 14.76778 | 94° | 40km/h | 16549m | 3.4m/s | -51.1°C | 3.7% | 99.1hPa | 2.7V | 08:30:00 | 01:40:31 | 00:00:00 | |
| DL1XH-west | 2026-09-02 05:43:42 | 52.15559 | 14.76794 | 96° | 42km/h | 16554m | 6.2m/s | -51°C | 0.6% | 99hPa | 2.6V | 18:12:15 | 01:40:32 | 00:00:00 | |
| DL1XH1-15 | 2026-09-02 05:43:41 | 52.15562 | 14.76745 | 95° | 38km/h | 16539m | 3.9m/s | -51°C | 3.8% | 99.3hPa | 2.7V | 08:30:00 | 01:40:29 | 00:00:00 | |
| AA1-15 | 2026-09-02 05:43:41 | 52.15560 | 14.76778 | 94° | 40km/h | 16549m | 3.4m/s | -51.1°C | 0.6% | 99.1hPa | 2.7V | 18:12:15 | 01:40:31 | 00:00:00 | |
| DB0DAN | 2026-09-02 05:43:40 | 52.15561 | 14.76761 | 94° | 38km/h | 16544m | 5.7m/s | -51.1°C | 1.3% | 99.17hPa | 2.7V | 00:00:00 | 00:00:00 | 00:00:00 | |
| DF8AY | 2026-09-02 05:43:37 | 52.15563 | 14.76712 | 93° | 42km/h | 16530m | 3.9m/s | -51.1°C | 0.7% | 99.4hPa | 2.6V | 18:12:15 | 01:40:27 | 00:00:00 | |
| DM0DOS-11 | 2026-09-02 05:43:36 | 52.15565 | 14.76606 | 90° | 42km/h | 16500m | 4.9m/s | -50.9°C | 3.7% | 99.8hPa | 2.7V | 08:30:00 | 01:40:21 | 00:00:00 | |
| DL1XH-west | 2026-09-02 05:43:32 | 52.15565 | 14.76623 | 91° | 44km/h | 16506m | 5.8m/s | -51°C | 0.7% | 99.8hPa | 2.6V | 18:12:15 | 01:40:22 | 00:00:00 | |
| DL1XH1-15 | 2026-09-02 05:43:31 | 52.15565 | 14.76571 | 88° | 44km/h | 16490m | 5.6m/s | -50.9°C | 3.7% | 100hPa | 2.6V | 08:30:00 | 01:40:19 | 00:00:00 | |
| AA1-15 | 2026-09-02 05:43:30 | 52.15565 | 14.76588 | 90° | 42km/h | 16495m | 4.7m/s | -50.9°C | 0.7% | 99.9hPa | 2.7V | 18:12:15 | 01:40:20 | 00:00:00 | |
| DF8AY | 2026-09-02 05:43:27 | 52.15564 | 14.76535 | 87° | 42km/h | 16480m | 4.9m/s | -50.8°C | 0.6% | 100.2hPa | 2.6V | 18:12:15 | 01:40:17 | 00:00:00 | |
| DM0DOS-11 | 2026-09-02 05:43:26 | 52.15558 | 14.76433 | 85° | 40km/h | 16452m | 5.9m/s | -51°C | 3.7% | 100.6hPa | 2.6V | 08:30:00 | 01:40:11 | 00:00:00 | |
| DO3MHA-11 | 2026-09-02 05:43:26 | 52.15563 | 14.76518 | 85° | 42km/h | 16476m | 3.1m/s | 0°C | 0% | 0hPa | 2.7V | 00:00:00 | 01:40:16 | 08:30:00 | |
| DL2RXE-15 | 2026-09-02 05:43:25 | 52.15563 | 14.76518 | 86° | 42km/h | 16476m | 3.2m/s | -50.8°C | 1.3% | 100.2hPa | 2.7V | 00:00:00 | 00:00:00 | 00:00:00 | |
| DB0DAN | 2026-09-02 05:43:25 | 52.15562 | 14.76501 | 84° | 40km/h | 16471m | 5.3m/s | -50.8°C | 1.3% | 100.33hPa | 2.7V | 00:00:00 | 00:00:00 | 00:00:00 | |
| DL1XH1-15 | 2026-09-02 05:43:24 | 52.15556 | 14.76400 | 85° | 40km/h | 16442m | 5.7m/s | -51.1°C | 3.7% | 100.7hPa | 2.7V | 08:30:00 | 01:40:09 | 00:00:00 | |
| DL1XH-west | 2026-09-02 05:43:22 | 52.15559 | 14.76450 | 85° | 40km/h | 16457m | 4m/s | -51°C | 0.6% | 100.5hPa | 2.6V | 18:12:15 | 01:40:12 | 00:00:00 | |
| AA1-15 | 2026-09-02 05:43:19 | 52.15556 | 14.76400 | 85° | 40km/h | 16442m | 5.7m/s | -51.1°C | 0.6% | 100.7hPa | 2.7V | 18:12:15 | 01:40:09 | 00:00:00 | |
| DF8AY | 2026-09-02 05:43:17 | 52.15554 | 14.76367 | 83° | 40km/h | 16432m | 4.4m/s | -51°C | 0.6% | 100.9hPa | 2.6V | 18:12:15 | 01:40:07 | 00:00:00 | |
| DM0DOS-11 | 2026-09-02 05:43:16 | 52.15541 | 14.76267 | 76° | 42km/h | 16405m | 3.6m/s | -51.2°C | 3.8% | 101.3hPa | 2.6V | 08:30:00 | 01:40:01 | 00:00:00 | |
| DO3MHA-11 | 2026-09-02 05:43:16 | 52.15553 | 14.76350 | 81° | 40km/h | 16428m | 4.5m/s | 0°C | 0% | 0hPa | 2.6V | 00:00:00 | 01:40:06 | 00:00:00 | |
| DL1XH1-15 | 2026-09-02 05:43:13 | 52.15536 | 14.76234 | 80° | 40km/h | 16397m | 3.4m/s | -51.2°C | 3.9% | 101.5hPa | 2.6V | 08:30:00 | 01:39:59 | 00:00:00 | |
| DL1XH-west | 2026-09-02 05:43:11 | 52.15541 | 14.76267 | 77° | 42km/h | 16406m | 3.6m/s | -51.3°C | 0.7% | 101.3hPa | 2.6V | 18:12:15 | 01:40:01 | 00:00:00 | |
| DB0DAN | 2026-09-02 05:43:10 | 52.15538 | 14.76250 | 78° | 38km/h | 16401m | 5m/s | -51.3°C | 1.4% | 101.37hPa | 2.6V | 00:00:00 | 00:00:00 | 00:00:00 | |
| AA1-15 | 2026-09-02 05:43:08 | 52.15535 | 14.76217 | 80° | 42km/h | 16392m | 5.7m/s | -51.2°C | 0.7% | 101.5hPa | 2.7V | 18:12:15 | 01:39:58 | 00:00:00 | |
| DF8AY | 2026-09-02 05:43:06 | 52.15531 | 14.76183 | 80° | 40km/h | 16383m | 4m/s | -51.3°C | 0.8% | 101.7hPa | 2.6V | 18:12:15 | 01:39:56 | 00:00:00 | |
| DO2SHX-10 | 2026-09-02 05:43:04 | 52.15528 | 14.76152 | 79° | 35km/h | 16374m | 3.6m/s | -51.2°C | 3.9% | 101.8hPa | 2.7V | 00:00:00 | 01:39:54 | 00:00:00 | |
| DL1XH1-15 | 2026-09-02 05:43:03 | 52.15517 | 14.76081 | 76° | 38km/h | 16350m | 5m/s | -51.1°C | 3.8% | 102.2hPa | 2.7V | 08:30:00 | 01:39:49 | 00:00:00 | |
| DL1XH-west | 2026-09-02 05:43:00 | 52.15519 | 14.76095 | 75° | 35km/h | 16355m | 4.3m/s | -51.1°C | 0.7% | 102.1hPa | 2.6V | 18:12:15 | 01:39:50 | 00:00:00 | |
| AA1-15 | 2026-09-02 05:42:57 | 52.15513 | 14.76051 | 80° | 38km/h | 16341m | 4.8m/s | -51.1°C | 0.8% | 102.3hPa | 2.7V | 18:12:15 | 01:39:47 | 00:00:00 | |
| DF8AY | 2026-09-02 05:42:56 | 52.15511 | 14.76035 | 82° | 38km/h | 16336m | 3.4m/s | -51.1°C | 0.6% | 102.3hPa | 2.6V | 18:12:15 | 01:39:46 | 00:00:00 | |
| DB0DAN | 2026-09-02 05:42:55 | 52.15510 | 14.76019 | 83° | 40km/h | 16332m | 5m/s | -51.1°C | 1.3% | 102.47hPa | 2.6V | 00:00:00 | 00:00:00 | 00:00:00 | |
| DO3MHA-11 | 2026-09-02 05:42:54 | 52.15508 | 14.76002 | 83° | 38km/h | 16328m | 3.8m/s | 0°C | 0% | 0hPa | 2.6V | 00:00:00 | 01:39:44 | 00:00:00 | |
| DL1XH1-15 | 2026-09-02 05:42:53 | 52.15503 | 14.75920 | 83° | 38km/h | 16304m | 5.7m/s | -51°C | 3.8% | 102.9hPa | 2.6V | 08:30:00 | 01:39:39 | 00:00:00 | |
| DL1XH-west | 2026-09-02 05:42:49 | 52.15503 | 14.75920 | 83° | 38km/h | 16304m | 5.7m/s | -51°C | 0.6% | 102.9hPa | 2.6V | 18:12:15 | 01:39:39 | 00:00:00 | |
| AA1-15 | 2026-09-02 05:42:46 | 52.15501 | 14.75876 | 87° | 37km/h | 16290m | 4.5m/s | -50.9°C | 0.7% | 103.2hPa | 2.7V | 18:12:15 | 01:39:36 | 00:00:00 | |
| DF8AY | 2026-09-02 05:42:45 | 52.15500 | 14.75860 | 89° | 37km/h | 16286m | 3.8m/s | -50.9°C | 0.7% | 103.2hPa | 2.7V | 18:12:15 | 01:39:35 | 00:00:00 | |
| KRY50SP-1 | 2026-09-02 05:42:45 | 52.15500 | 14.75860 | 90° | 37km/h | 16286m | 3.8m/s | -50.9°C | 1.3% | 103.2hPa | 2.6V | 00:00:00 | 00:00:00 | 00:00:00 | |
| DL1XH1-15 | 2026-09-02 05:42:44 | 52.15501 | 14.75773 | 88° | 33km/h | 16257m | 3.1m/s | -51°C | 3.8% | 103.7hPa | 2.6V | 08:30:00 | 01:39:29 | 00:00:00 | |
| DL1XH-west | 2026-09-02 05:42:38 | 52.15501 | 14.75759 | 87° | 35km/h | 16253m | 5.5m/s | -51°C | 0.7% | 103.7hPa | 2.6V | 18:12:15 | 01:39:28 | 00:00:00 | |
| AA1-15 | 2026-09-02 05:42:36 | 52.15500 | 14.75729 | 87° | 37km/h | 16244m | 4.9m/s | -51°C | 0.6% | 103.9hPa | 2.7V | 18:12:15 | 01:39:26 | 00:00:00 | |
| DF8AY | 2026-09-02 05:42:35 | 52.15499 | 14.75714 | 84° | 37km/h | 16239m | 5.1m/s | -51.1°C | 0.7% | 104hPa | 2.6V | 18:12:15 | 01:39:25 | 00:00:00 | |
| DL1XH1-15 | 2026-09-02 05:42:33 | 52.15497 | 14.75600 | 93° | 42km/h | 16207m | 3.6m/s | -51°C | 3.8% | 104.5hPa | 2.6V | 08:30:00 | 01:39:18 | 00:00:00 | |
| DL1XH-west | 2026-09-02 05:42:28 | 52.15497 | 14.75600 | 93° | 42km/h | 16207m | 3.6m/s | -51°C | 0.7% | 104.5hPa | 2.6V | 18:12:15 | 01:39:18 | 00:00:00 | |
| DO2SHX-10 | 2026-09-02 05:42:27 | 52.15498 | 14.75582 | 96° | 42km/h | 16203m | 6.0m/s | 0°C | 0% | 0hPa | 2.6V | 00:00:00 | 01:39:17 | 00:00:00 | |
| DM0DOS-11 | 2026-09-02 05:42:26 | 52.15504 | 14.75476 | 93° | 46km/h | 16175m | 5.3m/s | -50.8°C | 3.8% | 105hPa | 2.6V | 08:30:00 | 01:39:11 | 00:00:00 | |
| AA1-15 | 2026-09-02 05:42:25 | 52.15500 | 14.75548 | 95° | 44km/h | 16193m | 5.9m/s | -50.9°C | 0.7% | 104.7hPa | 2.7V | 18:12:15 | 01:39:15 | 00:00:00 | |
| DF8AY | 2026-09-02 05:42:24 | 52.15501 | 14.75531 | 96° | 44km/h | 16188m | 3.2m/s | -50.8°C | 0.7% | 104.8hPa | 2.7V | 18:12:15 | 01:39:14 | 00:00:00 | |
| DL1XH1-15 | 2026-09-02 05:42:23 | 52.15506 | 14.75420 | 95° | 46km/h | 16160m | 4.2m/s | -50.8°C | 3.7% | 105.2hPa | 2.7V | 08:30:00 | 01:39:08 | 00:00:00 | |
| DL1XH-west | 2026-09-02 05:42:17 | 52.15507 | 14.75401 | 96° | 46km/h | 16155m | 5.5m/s | -50.9°C | 0.7% | 105.3hPa | 2.6V | 18:12:15 | 01:39:07 | 00:00:00 | |
| DM0DOS-11 | 2026-09-02 05:42:16 | 52.15519 | 14.75291 | 101° | 46km/h | 16127m | 5.5m/s | -51.2°C | 3.9% | 105.8hPa | 2.6V | 08:30:00 | 01:39:01 | 00:00:00 | |
| AA1-15 | 2026-09-02 05:42:15 | 52.15510 | 14.75364 | 101° | 44km/h | 16146m | 5.4m/s | -51°C | 0.8% | 105.5hPa | 2.6V | 18:12:15 | 01:39:05 | 00:00:00 | |
| DF8AY | 2026-09-02 05:42:14 | 52.15512 | 14.75347 | 103° | 44km/h | 16141m | 4.1m/s | -51.1°C | 0.7% | 105.5hPa | 2.7V | 18:12:15 | 01:39:04 | 00:00:00 | |
| DL1XH1-15 | 2026-09-02 05:42:13 | 52.15525 | 14.75236 | 94° | 47km/h | 16112m | 3.3m/s | -51.1°C | 3.9% | 106hPa | 2.6V | 08:30:00 | 01:38:58 | 00:00:00 | |
| DL1XH-west | 2026-09-02 05:42:07 | 52.15526 | 14.75217 | 95° | 47km/h | 16108m | 5.5m/s | -51.1°C | 0.8% | 106.1hPa | 2.6V | 18:12:15 | 01:38:57 | 00:00:00 | |
| DM0DOS-11 | 2026-09-02 05:42:06 | 52.15533 | 14.75096 | 96° | 47km/h | 16080m | 5.7m/s | -51.1°C | 3.8% | 106.5hPa | 2.6V | 08:30:00 | 01:38:51 | 00:00:00 | |
| AA1-15 | 2026-09-02 05:42:04 | 52.15529 | 14.75156 | 94° | 51km/h | 16095m | 4.9m/s | -51.1°C | 0.8% | 106.3hPa | 2.7V | 18:12:15 | 01:38:54 | 00:00:00 | |
| DF8AY | 2026-09-02 05:42:03 | 52.15530 | 14.75136 | 95° | 49km/h | 16090m | 4.9m/s | -51.2°C | 0.8% | 106.4hPa | 2.7V | 18:12:15 | 01:38:53 | 00:00:00 | |
| DL1XH-west | 2026-09-02 05:41:56 | 52.15543 | 14.74995 | 101° | 53km/h | 16056m | 4.9m/s | -51.2°C | 0.8% | 106.9hPa | 2.6V | 18:12:15 | 01:38:46 | 00:00:00 | |
| DF8AY | 2026-09-02 05:41:53 | 52.15550 | 14.74930 | 99° | 53km/h | 16041m | 5.9m/s | -51.1°C | 0.9% | 107.2hPa | 2.7V | 18:12:15 | 01:38:43 | 00:00:00 | |
| DO2SHX-10 | 2026-09-02 05:41:51 | 52.15553 | 14.74888 | 96° | 49km/h | 16031m | 5.6m/s | 0°C | 0% | 0hPa | 2.7V | 00:00:00 | 01:38:41 | 00:00:00 | |
| KRY50SP-1 | 2026-09-02 05:41:49 | 52.15554 | 14.74867 | 96° | 49km/h | 16026m | 4.0m/s | -51.1°C | 1.5% | 107.4hPa | 2.7V | 00:00:00 | 00:00:00 | 00:00:00 | |
| DO2SHX-10 | 2026-09-02 05:41:48 | 52.15556 | 14.74827 | 94° | 49km/h | 16017m | 3.4m/s | 0°C | 0% | 0hPa | 2.7V | 00:00:00 | 01:38:38 | 00:00:00 | |
| DM0DOS-11 | 2026-09-02 05:41:47 | 52.15559 | 14.74766 | 98° | 51km/h | 16002m | 5.1m/s | -50.9°C | 3.9% | 107.8hPa | 2.7V | 08:30:00 | 01:38:35 | 00:00:00 | |
| DL1XH-west | 2026-09-02 05:41:46 | 52.15558 | 14.74786 | 97° | 47km/h | 16007m | 4.9m/s | -51°C | 0.8% | 107.7hPa | 2.7V | 18:12:15 | 01:38:36 | 00:00:00 | |
| DF8AY | 2026-09-02 05:41:43 | 52.15563 | 14.74723 | 100° | 55km/h | 15993m | 5.6m/s | -50.9°C | 0.8% | 108hPa | 2.6V | 18:12:15 | 01:38:33 | 00:00:00 | |
| AA1-15 | 2026-09-02 05:41:42 | 52.15566 | 14.74701 | 101° | 53km/h | 15987m | 5.1m/s | -50.9°C | 0.9% | 108.1hPa | 2.6V | 18:12:15 | 01:38:32 | 00:00:00 | |
| DO2SHX-10 | 2026-09-02 05:41:42 | 52.15566 | 14.74701 | 101° | 55km/h | 15988m | 5.0m/s | 0°C | 0% | 0hPa | 2.6V | 00:00:00 | 01:38:32 | 08:30:00 | |
| DO3MHA-11 | 2026-09-02 05:41:41 | 52.15568 | 14.74679 | 100° | 55km/h | 15983m | 4.8m/s | 0°C | 0% | 0hPa | 2.6V | 00:00:00 | 01:38:31 | 00:00:00 | |
| DO2SHX-10 | 2026-09-02 05:41:39 | 52.15572 | 14.74634 | 99° | 55km/h | 15972m | 6.0m/s | 0°C | 0% | 0hPa | 2.6V | 00:00:00 | 01:38:29 | 00:00:00 | |
| KRY50SP-1 | 2026-09-02 05:41:38 | 52.15572 | 14.74634 | 99° | 55km/h | 15972m | 6.0m/s | -50.8°C | 1.4% | 108.3hPa | 2.6V | 00:00:00 | 00:00:00 | 00:00:00 | |
| DM0DOS-11 | 2026-09-02 05:41:37 | 52.15580 | 14.74520 | 96° | 53km/h | 15948m | 4.6m/s | -51°C | 3.8% | 108.7hPa | 2.6V | 08:30:00 | 01:38:24 | 00:00:00 | |
| DL1XH-west | 2026-09-02 05:41:35 | 52.15579 | 14.74543 | 96° | 55km/h | 15953m | 4.5m/s | -51°C | 0.9% | 108.6hPa | 2.6V | 18:12:15 | 01:38:25 | 00:00:00 | |
| DF8AY | 2026-09-02 05:41:32 | 52.15583 | 14.74476 | 95° | 55km/h | 15940m | 5.5m/s | -51.1°C | 0.8% | 108.9hPa | 2.7V | 18:12:15 | 01:38:22 | 00:00:00 | |
| AA1-15 | 2026-09-02 05:41:31 | 52.15584 | 14.74454 | 95° | 57km/h | 15935m | 4.7m/s | -51.1°C | 0.9% | 108.9hPa | 2.6V | 18:12:15 | 01:38:21 | 00:00:00 | |
| DO3MHA-11 | 2026-09-02 05:41:31 | 52.15584 | 14.74454 | 95° | 57km/h | 15935m | 4.6m/s | 0°C | 0% | 0hPa | 2.6V | 00:00:00 | 01:38:21 | 00:00:00 | |
| DO2SHX-10 | 2026-09-02 05:41:30 | 52.15586 | 14.74430 | 96° | 57km/h | 15930m | 5.5m/s | 0°C | 0% | 0hPa | 2.6V | 00:00:00 | 01:38:20 | 00:00:00 | |
| SP3WXH-11 | 2026-09-02 05:41:28 | 52.15588 | 14.74385 | 93° | 55km/h | 15920m | 5.4m/s | -51.1°C | 1.4% | 109.2hPa | 2.6V | 00:00:00 | 00:00:00 | 00:00:00 | |
| DM0DOS-11 | 2026-09-02 05:41:27 | 52.15589 | 14.74293 | 88° | 55km/h | 15900m | 5.3m/s | -51°C | 3.8% | 109.5hPa | 2.6V | 08:30:00 | 01:38:14 | 00:00:00 | |
| DO2SHX-10 | 2026-09-02 05:41:27 | 52.15589 | 14.74362 | 92° | 57km/h | 15915m | 5.0m/s | 0°C | 0% | 0hPa | 2.7V | 00:00:00 | 01:38:17 | 00:00:00 | |
| DL1XH1-15 | 2026-09-02 05:41:26 | 52.15586 | 14.74224 | 87° | 57km/h | 15886m | 5.2m/s | -51.1°C | 3.8% | 109.7hPa | 2.7V | 08:30:00 | 01:38:11 | 00:00:00 | |
| DL1XH-west | 2026-09-02 05:41:26 | 52.15589 | 14.74316 | 89° | 55km/h | 15905m | 4.1m/s | -50.9°C | 0.9% | 109.4hPa | 2.6V | 18:12:15 | 01:38:15 | 00:00:00 | |
| DF8AY | 2026-09-02 05:41:22 | 52.15587 | 14.74247 | 87° | 57km/h | 15891m | 4.1m/s | -51°C | 0.8% | 109.7hPa | 2.7V | 18:12:15 | 01:38:12 | 00:00:00 | |
| AA1-15 | 2026-09-02 05:41:20 | 52.15586 | 14.74201 | 87° | 55km/h | 15881m | 3.9m/s | -51.2°C | 0.9% | 109.8hPa | 2.7V | 18:12:15 | 01:38:10 | 00:00:00 | |
| DO2SHX-10 | 2026-09-02 05:41:20 | 52.15586 | 14.74201 | 88° | 57km/h | 15882m | 3.9m/s | 0°C | 0% | 0hPa | 2.6V | 00:00:00 | 01:38:10 | 00:00:00 | |
| DJ2DS-15 | 2026-09-02 05:41:18 | 52.15583 | 14.74131 | 86° | 57km/h | 15867m | 6.0m/s | 0°C | -1.0% | -1.0hPa | 2.6V | 00:00:00 | 00:00:00 | 00:00:00 | |
| DO2SHX-10 | 2026-09-02 05:41:17 | 52.15583 | 14.74131 | 87° | 55km/h | 15867m | 5.9m/s | 0°C | 0% | 0hPa | 2.6V | 00:00:00 | 01:38:07 | 00:00:00 | |
| DL1XH1-15 | 2026-09-02 05:41:15 | 52.15582 | 14.73997 | 89° | 55km/h | 15838m | 5.8m/s | -51.5°C | 3.9% | 110.5hPa | 2.6V | 08:30:00 | 01:38:01 | 00:00:00 | |
| DL1XH-west | 2026-09-02 05:41:15 | 52.15582 | 14.74086 | 88° | 55km/h | 15857m | 5.3m/s | -51.5°C | 0.9% | 110.2hPa | 2.7V | 18:12:15 | 01:38:05 | 00:00:00 | |
| DF8AY | 2026-09-02 05:41:11 | 52.15582 | 14.73997 | 90° | 55km/h | 15838m | 5.9m/s | -51.5°C | 0.9% | 110.5hPa | 2.6V | 18:12:15 | 01:38:01 | 00:00:00 | |
| AA1-15 | 2026-09-02 05:41:09 | 52.15581 | 14.73953 | 85° | 53km/h | 15828m | 5.9m/s | -51.6°C | 0.9% | 110.7hPa | 2.7V | 18:12:15 | 01:37:59 | 00:00:00 | |
| DO2SHX-10 | 2026-09-02 05:41:06 | 52.15576 | 14.73886 | 83° | 55km/h | 15815m | 3.4m/s | 0°C | 0% | 0hPa | 2.7V | 00:00:00 | 01:37:56 | 00:00:00 | |
| DL1XH1-15 | 2026-09-02 05:41:05 | 52.15567 | 14.73782 | 83° | 46km/h | 15791m | 5.7m/s | -51.9°C | 4% | 111.4hPa | 2.7V | 08:30:00 | 01:37:51 | 00:00:00 | |
| DL1XH-west | 2026-09-02 05:41:04 | 52.15572 | 14.73842 | 82° | 51km/h | 15806m | 3.7m/s | -51.8°C | 0.8% | 111.1hPa | 2.6V | 18:12:15 | 01:37:54 | 00:00:00 | |
| DF8AY | 2026-09-02 05:41:00 | 52.15566 | 14.73763 | 86° | 44km/h | 15787m | 3.5m/s | -51.9°C | 0.9% | 111.5hPa | 2.6V | 18:12:15 | 01:37:50 | 00:00:00 | |
| AA1-15 | 2026-09-02 05:40:58 | 52.15565 | 14.73728 | 88° | 44km/h | 15778m | 4.5m/s | -51.9°C | 1% | 111.6hPa | 2.6V | 18:12:15 | 01:37:48 | 00:00:00 | |
| SP3WXH-11 | 2026-09-02 05:40:57 | 52.15565 | 14.73710 | 89° | 42km/h | 15773m | 5.8m/s | -51.9°C | 1.5% | 111.7hPa | 2.7V | 00:00:00 | 00:00:00 | 00:00:00 | |
| DB0DAN | 2026-09-02 05:40:55 | 52.15565 | 14.73674 | 89° | 42km/h | 15763m | 5.8m/s | -52°C | 1.5% | 111.87hPa | 2.7V | 00:00:00 | 00:00:00 | 00:00:00 | |
| DL1XH-west | 2026-09-02 05:40:54 | 52.15564 | 14.73656 | 88° | 47km/h | 15758m | 5.1m/s | -52°C | 1% | 111.9hPa | 2.6V | 18:12:15 | 01:37:44 | 00:00:00 | |
| DF8AY | 2026-09-02 05:40:49 | 52.15563 | 14.73558 | 90° | 51km/h | 15733m | 5m/s | -51.8°C | 0.8% | 112.4hPa | 2.7V | 18:12:15 | 01:37:39 | 00:00:00 | |
| AA1-15 | 2026-09-02 05:40:47 | 52.15563 | 14.73516 | 92° | 51km/h | 15723m | 3.6m/s | -51.8°C | 0.8% | 112.6hPa | 2.6V | 18:12:15 | 01:37:37 | 00:00:00 | |
| S3001 | 2026-09-02 05:40:46 | 52.15564 | 14.73494 | 92° | 53km/h | 15718m | 5.9m/s | -51.8°C | 1.4% | 112.6hPa | 2.7V | 00:00:00 | 00:00:00 | 00:00:00 | |
| SONDE2-11 | 2026-09-02 05:40:44 | 52.15565 | 14.73450 | 92° | 53km/h | 15708m | 5.7m/s | -51.7°C | 1.4% | 112.8hPa | 2.7V | 00:00:00 | 00:00:00 | 00:00:00 | |
| DL1XH-west | 2026-09-02 05:40:43 | 52.15565 | 14.73428 | 92° | 53km/h | 15703m | 4.2m/s | -51.8°C | 0.8% | 112.9hPa | 2.7V | 18:12:15 | 01:37:33 | 00:00:00 | |
| NBG1-10 | 2026-09-02 05:40:42 | 52.15566 | 14.73406 | 92° | 51km/h | 15699m | 4.8m/s | -51.8°C | 3.9% | 112.9hPa | 2.6V | 00:00:00 | 01:37:32 | 00:00:00 | |
| DB0DAN | 2026-09-02 05:40:40 | 52.15566 | 14.73362 | 91° | 51km/h | 15689m | 6.2m/s | -51.9°C | 1.5% | 113.11hPa | 2.6V | 00:00:00 | 00:00:00 | 00:00:00 | |
| DF8AY | 2026-09-02 05:40:39 | 52.15566 | 14.73340 | 90° | 53km/h | 15684m | 4m/s | -51.9°C | 0.9% | 113.2hPa | 2.7V | 18:12:15 | 01:37:29 | 00:00:00 | |
| AA1-15 | 2026-09-02 05:40:36 | 52.15566 | 14.73273 | 89° | 55km/h | 15669m | 5.3m/s | -51.9°C | 0.9% | 113.5hPa | 2.6V | 18:12:15 | 01:37:26 | 00:00:00 | |
| DL1XH-west | 2026-09-02 05:40:32 | 52.15564 | 14.73182 | 89° | 53km/h | 15650m | 5.1m/s | -51.7°C | 0.9% | 113.8hPa | 2.7V | 18:12:15 | 01:37:22 | 00:00:00 | |
| DF8AY | 2026-09-02 05:40:28 | 52.15562 | 14.73096 | 87° | 53km/h | 15631m | 5.3m/s | -51.6°C | 0.9% | 114.2hPa | 2.7V | 18:12:15 | 01:37:18 | 00:00:00 | |
| DO2SHX-10 | 2026-09-02 05:40:27 | 52.15561 | 14.73075 | 88° | 51km/h | 15626m | 5.0m/s | 0°C | 0% | 0hPa | 2.7V | 00:00:00 | 01:37:17 | 00:00:00 | |
| DB0DAN | 2026-09-02 05:40:25 | 52.15560 | 14.73033 | 86° | 49km/h | 15616m | 4.2m/s | -51.6°C | 1.5% | 114.42hPa | 2.7V | 00:00:00 | 00:00:00 | 00:00:00 | |
| AA1-15 | 2026-09-02 05:40:25 | 52.15560 | 14.73033 | 86° | 51km/h | 15616m | 4.2m/s | -51.6°C | 0.8% | 114.4hPa | 2.7V | 18:12:15 | 01:37:15 | 00:00:00 | |
| DL1XH1-15 | 2026-09-02 05:40:25 | 52.15557 | 14.72952 | 87° | 47km/h | 15597m | 5.7m/s | -51.4°C | 4% | 114.8hPa | 2.7V | 08:30:00 | 01:37:11 | 00:00:00 | |
| DL1XH-west | 2026-09-02 05:40:21 | 52.15557 | 14.72952 | 88° | 47km/h | 15597m | 5.7m/s | -51.4°C | 0.9% | 114.8hPa | 2.7V | 18:12:15 | 01:37:11 | 00:00:00 | |
| DF8AY | 2026-09-02 05:40:18 | 52.15556 | 14.72893 | 88° | 47km/h | 15582m | 4m/s | -51.4°C | 0.9% | 115hPa | 2.6V | 18:12:15 | 01:37:08 | 00:00:00 | |
| SONCRA | 2026-09-02 05:40:18 | 52.15556 | 14.72873 | 89° | 47km/h | 15577m | 6.4m/s | -51.3°C | 1.5% | 115.1hPa | 2.6V | 00:00:00 | 00:00:00 | 00:00:00 | |
| DO2SHX-10 | 2026-09-02 05:40:17 | 52.15556 | 14.72873 | 90° | 49km/h | 15577m | 6.3m/s | 0°C | 0% | 0hPa | 2.6V | 00:00:00 | 01:37:07 | 00:00:00 | |
| DL1XH1-15 | 2026-09-02 05:40:16 | 52.15558 | 14.72753 | 92° | 51km/h | 15549m | 4.5m/s | -51.1°C | 3.8% | 115.6hPa | 2.6V | 08:30:00 | 01:37:01 | 00:00:00 | |
| AA1-15 | 2026-09-02 05:40:15 | 52.15556 | 14.72833 | 92° | 49km/h | 15568m | 4.6m/s | -51.3°C | 0.9% | 115.3hPa | 2.7V | 18:12:15 | 01:37:05 | 00:00:00 | |
| DL1XH-west | 2026-09-02 05:40:11 | 52.15558 | 14.72753 | 92° | 51km/h | 15549m | 4.5m/s | -51.1°C | 0.7% | 115.6hPa | 2.6V | 18:12:15 | 01:37:01 | 00:00:00 | |
| DB0DAN | 2026-09-02 05:40:10 | 52.15558 | 14.72732 | 92° | 47km/h | 15544m | 5.6m/s | -51.1°C | 1.4% | 115.68hPa | 2.7V | 00:00:00 | 00:00:00 | 00:00:00 | |
| DF8AY | 2026-09-02 05:40:07 | 52.15560 | 14.72672 | 94° | 49km/h | 15529m | 5m/s | -51°C | 0.7% | 116hPa | 2.6V | 18:12:15 | 01:36:57 | 00:00:00 | |
| SP3BTT-10 | 2026-09-02 05:40:06 | 52.15561 | 14.72651 | 95° | 55km/h | 15524m | 5.6m/s | -51.1°C | 3.8% | 116.0hPa | 2.6V | 00:00:00 | 00:00:00 | 00:00:00 | |
| DL1XH1-15 | 2026-09-02 05:40:05 | 52.15569 | 14.72553 | 98° | 47km/h | 15499m | 6.4m/s | -51.1°C | 3.9% | 116.5hPa | 2.6V | 08:30:00 | 01:36:51 | 00:00:00 | |
| AA1-15 | 2026-09-02 05:40:04 | 52.15563 | 14.72612 | 97° | 47km/h | 15514m | 4.2m/s | -51.1°C | 0.8% | 116.2hPa | 2.7V | 18:12:15 | 01:36:54 | 00:00:00 | |
| DL1XH-west | 2026-09-02 05:40:00 | 52.15570 | 14.72533 | 99° | 49km/h | 15494m | 4.7m/s | -51.1°C | 0.9% | 116.6hPa | 2.6V | 18:12:15 | 01:36:50 | 00:00:00 | |
| DF8AY | 2026-09-02 05:39:57 | 52.15577 | 14.72471 | 101° | 51km/h | 15479m | 6m/s | -51.1°C | 0.8% | 116.8hPa | 2.7V | 18:12:15 | 01:36:47 | 00:00:00 | |
| DO2SHX-10 | 2026-09-02 05:39:57 | 52.15577 | 14.72471 | 101° | 53km/h | 15479m | 6.0m/s | 0°C | 0% | 0hPa | 2.6V | 00:00:00 | 01:36:47 | 00:00:00 | |
| SP6BVK | 2026-09-02 05:39:56 | 52.15577 | 14.72471 | 102° | 51km/h | 15479m | 6.0m/s | -51.1°C | 1.5% | 116.8hPa | 2.6V | 00:00:00 | 00:00:00 | 00:00:00 | |
| DB0DAN | 2026-09-02 05:39:55 | 52.15582 | 14.72429 | 102° | 51km/h | 15469m | 5.8m/s | -51°C | 1.5% | 117.05hPa | 2.6V | 00:00:00 | 00:00:00 | 00:00:00 | |
| AA1-15 | 2026-09-02 05:39:53 | 52.15589 | 14.72385 | 104° | 55km/h | 15458m | 5m/s | -51°C | 0.8% | 117.2hPa | 2.6V | 18:12:15 | 01:36:43 | 00:00:00 | |
| DM0DOS-11 | 2026-09-02 05:39:52 | 52.15596 | 14.72341 | 104° | 57km/h | 15449m | 5.4m/s | -50.9°C | 3.8% | 117.4hPa | 2.7V | 08:30:00 | 01:36:41 | 00:00:00 | |
| DL1XH-west | 2026-09-02 05:39:49 | 52.15602 | 14.72295 | 104° | 57km/h | 15439m | 5.6m/s | -50.9°C | 0.8% | 117.6hPa | 2.6V | 18:12:15 | 01:36:39 | 00:00:00 | |
| DF8AY | 2026-09-02 05:39:46 | 52.15612 | 14.72227 | 101° | 58km/h | 15424m | 4.6m/s | -50.8°C | 0.7% | 0hPa | 2.6V | 18:12:15 | 01:36:36 | 00:00:00 | |
| S3001 | 2026-09-02 05:39:44 | 52.15617 | 14.72181 | 98° | 57km/h | 15414m | 4.5m/s | -50.8°C | 1.4% | 118.0hPa | 2.6V | 00:00:00 | 00:00:00 | 00:00:00 | |
| AA1-15 | 2026-09-02 05:39:42 | 52.15621 | 14.72134 | 98° | 58km/h | 15403m | 5.9m/s | -50.8°C | 0.8% | 118.2hPa | 2.6V | 18:12:15 | 01:36:32 | 00:00:00 | |
| MECKS9 | 2026-09-02 05:39:41 | 52.15621 | 14.72134 | 99° | 58km/h | 15404m | 5.9m/s | -50.8°C | 1.4% | 118.2hPa | 2.7V | 00:00:00 | 00:00:00 | 00:00:00 | |
| DB0DAN | 2026-09-02 05:39:40 | 52.15625 | 14.72088 | 98° | 55km/h | 15393m | 5.6m/s | -50.7°C | 1.4% | 118.37hPa | 2.7V | 00:00:00 | 00:00:00 | 00:00:00 | |
| DL1XH-west | 2026-09-02 05:39:38 | 52.15628 | 14.72040 | 96° | 58km/h | 15383m | 4.3m/s | -50.7°C | 0.7% | 118.6hPa | 2.6V | 18:12:15 | 01:36:28 | 00:00:00 | |
| DF8AY | 2026-09-02 05:39:36 | 52.15631 | 14.71993 | 96° | 57km/h | 15374m | 3.6m/s | -50.6°C | 0.7% | 0hPa | 2.6V | 18:12:15 | 01:36:26 | 00:00:00 | |
| SP6BVK | 2026-09-02 05:39:36 | 52.15631 | 14.71993 | 97° | 57km/h | 15374m | 3.6m/s | -50.6°C | 1.4% | 118.7hPa | 2.6V | 00:00:00 | 00:00:00 | 00:00:00 | |
| KRY50SP-1 | 2026-09-02 05:39:35 | 52.15631 | 14.71993 | 97° | 57km/h | 15374m | 3.6m/s | -50.6°C | 1.4% | 118.7hPa | 2.6V | 00:00:00 | 00:00:00 | 00:00:00 | |
| DM0DOS-11 | 2026-09-02 05:39:32 | 52.15637 | 14.71874 | 93° | 58km/h | 15349m | 3.8m/s | -50.7°C | 3.8% | 119.2hPa | 2.6V | 08:30:00 | 01:36:21 | 00:00:00 | |
| AA1-15 | 2026-09-02 05:39:31 | 52.15637 | 14.71874 | 93° | 58km/h | 15349m | 3.8m/s | -50.7°C | 0.8% | 119.2hPa | 2.6V | 18:12:15 | 01:36:21 | 00:00:00 | |
| DL1XH-west | 2026-09-02 05:39:28 | 52.15640 | 14.71803 | 91° | 57km/h | 15336m | 5.1m/s | -50.8°C | 0.8% | 119.4hPa | 2.7V | 18:12:15 | 01:36:18 | 00:00:00 | |
| DL2RXE-15 | 2026-09-02 05:39:27 | 52.15640 | 14.71803 | 92° | 55km/h | 15337m | 5.1m/s | -50.8°C | 1.4% | 119.4hPa | 2.6V | 00:00:00 | 00:00:00 | 00:00:00 | |
| DB0DAN | 2026-09-02 05:39:25 | 52.15640 | 14.71732 | 90° | 57km/h | 15322m | 4.2m/s | -50.8°C | 1.4% | 119.71hPa | 2.6V | 00:00:00 | 00:00:00 | 00:00:00 | |
| DF8AY | 2026-09-02 05:39:25 | 52.15640 | 14.71732 | 90° | 60km/h | 15322m | 4.2m/s | -50.8°C | 0.8% | 0hPa | 2.6V | 18:12:15 | 01:36:15 | 00:00:00 | |
| SP3WXH-11 | 2026-09-02 05:39:24 | 52.15640 | 14.71708 | 90° | 58km/h | 15317m | 6.2m/s | -50.8°C | 1.4% | 119.8hPa | 2.7V | 00:00:00 | 00:00:00 | 00:00:00 | |
| D01LWL | 2026-09-02 05:39:23 | 52.15640 | 14.71683 | 90° | 58km/h | 15312m | 4.3m/s | -50.8°C | -1.0% | -1.0hPa | 2.7V | 00:00:00 | 00:00:00 | 00:00:00 | |
| DM0DOS-11 | 2026-09-02 05:39:22 | 52.15640 | 14.71632 | 89° | 62km/h | 15302m | 4.4m/s | -50.8°C | 3.7% | 120hPa | 2.7V | 08:30:00 | 01:36:11 | 00:00:00 | |
| AA1-15 | 2026-09-02 05:39:20 | 52.15640 | 14.71607 | 89° | 60km/h | 15297m | 5.5m/s | -50.8°C | 0.8% | 120.2hPa | 2.6V | 18:12:15 | 01:36:10 | 00:00:00 | |
| DL1XH-west | 2026-09-02 05:39:18 | 52.15639 | 14.71557 | 87° | 62km/h | 15287m | 5.2m/s | -50.8°C | 0.8% | 120.3hPa | 2.6V | 18:12:15 | 01:36:08 | 00:00:00 | |
| DF8AY | 2026-09-02 05:39:14 | 52.15633 | 14.71457 | 83° | 58km/h | 15267m | 4.6m/s | 0°C | 0% | 0hPa | 2.6V | 18:12:15 | 01:36:04 | 00:00:00 | |
| S3001 | 2026-09-02 05:39:13 | 52.15631 | 14.71433 | 81° | 60km/h | 15262m | 5.2m/s | -50.7°C | 1.5% | 120.8hPa | 2.7V | 00:00:00 | 00:00:00 | 00:00:00 | |
| DM0DOS-11 | 2026-09-02 05:39:12 | 52.15627 | 14.71385 | 79° | 57km/h | 15253m | 4.7m/s | -50.7°C | 3.9% | 121hPa | 2.7V | 08:30:00 | 01:36:01 | 00:00:00 | |
| DB0DAN | 2026-09-02 05:39:10 | 52.15624 | 14.71362 | 79° | 55km/h | 15248m | 4.4m/s | -50.7°C | 1.5% | 121.1hPa | 2.7V | 00:00:00 | 00:00:00 | 00:00:00 | |
| AA1-15 | 2026-09-02 05:39:09 | 52.15621 | 14.71339 | 79° | 58km/h | 15244m | 5.1m/s | -50.8°C | 0.8% | 121.2hPa | 2.7V | 18:12:15 | 01:35:59 | 00:00:00 | |
| DL1XH-west | 2026-09-02 05:39:07 | 52.15616 | 14.71291 | 81° | 57km/h | 15235m | 5.9m/s | -50.8°C | 0.8% | 121.3hPa | 2.6V | 18:12:15 | 01:35:57 | 00:00:00 | |
| DF8AY | 2026-09-02 05:39:04 | 52.15610 | 14.71224 | 79° | 55km/h | 15220m | 4.1m/s | 0°C | 0% | 0hPa | 2.7V | 18:12:15 | 01:35:54 | 00:00:00 | |
| KRY50SP-1 | 2026-09-02 05:39:03 | 52.15609 | 14.71224 | 80° | 55km/h | 15220m | 4.1m/s | -50.7°C | 1.5% | 121.6hPa | 2.7V | 00:00:00 | 00:00:00 | 00:00:00 | |
| DM0DOS-11 | 2026-09-02 05:39:02 | 52.15600 | 14.71160 | 75° | 53km/h | 15204m | 6.2m/s | -50.8°C | 3.9% | 121.9hPa | 2.7V | 08:30:00 | 01:35:51 | 00:00:00 | |
| AA1-15 | 2026-09-02 05:38:58 | 52.15589 | 14.71098 | 74° | 49km/h | 15190m | 3.9m/s | -50.7°C | 0.8% | 122.1hPa | 2.6V | 18:12:15 | 01:35:48 | 00:00:00 | |
| DL1XH-west | 2026-09-02 05:38:57 | 52.15585 | 14.71079 | 74° | 51km/h | 15185m | 6.1m/s | -50.7°C | 0.8% | 122.2hPa | 2.7V | 18:12:15 | 01:35:47 | 00:00:00 | |
| DB0DAN | 2026-09-02 05:38:55 | 52.15579 | 14.71038 | 77° | 47km/h | 15176m | 4.4m/s | -50.6°C | 1.4% | 122.4hPa | 2.6V | 00:00:00 | 00:00:00 | 00:00:00 | |
| DF8AY | 2026-09-02 05:38:53 | 52.15574 | 14.71000 | 77° | 46km/h | 15166m | 4.8m/s | 0°C | 0% | 0hPa | 2.7V | 18:12:15 | 01:35:43 | 00:00:00 | |
| D01LWL | 2026-09-02 05:38:52 | 52.15547 | 14.70847 | 71° | 49km/h | 15127m | 5.5m/s | 0°C | -1.0% | -1.0hPa | 2.7V | 00:00:00 | 00:00:00 | 00:00:00 | |
| DM0DOS-11 | 2026-09-02 05:38:51 | 52.15551 | 14.70866 | 70° | 49km/h | 15132m | 4.1m/s | -50.5°C | 3.8% | 123.2hPa | 2.7V | 08:30:00 | 01:35:36 | 00:00:00 | |
| AA1-15 | 2026-09-02 05:38:47 | 52.15555 | 14.70886 | 72° | 49km/h | 15137m | 5.6m/s | -50.5°C | 0.8% | 123.1hPa | 2.7V | 18:12:15 | 01:35:37 | 00:00:00 | |
| DL1XH-west | 2026-09-02 05:38:46 | 52.15551 | 14.70866 | 71° | 49km/h | 15132m | 4.1m/s | -50.5°C | 0.8% | 123.2hPa | 2.7V | 18:12:15 | 01:35:36 | 00:00:00 | |
| DL1XH1-15 | 2026-09-02 05:38:45 | 52.15543 | 14.70828 | 70° | 51km/h | 15123m | 3.9m/s | -50.4°C | 3.8% | 123.5hPa | 2.6V | 08:30:00 | 01:35:34 | 00:00:00 | |
| SONCRA | 2026-09-02 05:38:45 | 52.15543 | 14.70828 | 70° | 49km/h | 15123m | 3.9m/s | -50.4°C | 1.4% | 123.5hPa | 2.7V | 00:00:00 | 00:00:00 | 00:00:00 | |
| DF8AY | 2026-09-02 05:38:43 | 52.15539 | 14.70808 | 70° | 51km/h | 15118m | 6m/s | 0°C | 0% | 0hPa | 2.7V | 18:12:15 | 01:35:33 | 00:00:00 | |
| S3001 | 2026-09-02 05:38:42 | 52.15534 | 14.70789 | 67° | 49km/h | 15113m | 3.8m/s | -50.4°C | 1.5% | 123.6hPa | 2.7V | 00:00:00 | 00:00:00 | 00:00:00 | |
| DB0DAN | 2026-09-02 05:38:40 | 52.15525 | 14.70751 | 68° | 47km/h | 15104m | 4m/s | -50.3°C | 1.5% | 123.77hPa | 2.7V | 00:00:00 | 00:00:00 | 00:00:00 | |
| AA1-15 | 2026-09-02 05:38:37 | 52.15510 | 14.70697 | 67° | 47km/h | 15089m | 5.6m/s | -50.2°C | 0.8% | 124.1hPa | 2.7V | 18:12:15 | 01:35:27 | 00:00:00 | |
| DL1XH-west | 2026-09-02 05:38:36 | 52.15505 | 14.70679 | 67° | 47km/h | 15084m | 3.8m/s | -50.2°C | 0.7% | 124.2hPa | 2.7V | 18:12:15 | 01:35:26 | 00:00:00 | |
| SP3BTT-10 | 2026-09-02 05:38:36 | 52.15505 | 14.70679 | 67° | 42km/h | 15084m | 3.7m/s | -50.2°C | 3.8% | 124.1hPa | 2.6V | 00:00:00 | 00:00:00 | 00:00:00 | |
| DL1XH1-15 | 2026-09-02 05:38:35 | 52.15490 | 14.70626 | 63° | 49km/h | 15070m | 5.5m/s | -50.2°C | 3.8% | 124.5hPa | 2.6V | 08:30:00 | 01:35:23 | 00:00:00 | |
| DF8AY | 2026-09-02 05:38:32 | 52.15485 | 14.70607 | 65° | 49km/h | 15065m | 4.5m/s | 0°C | 0% | 0hPa | 2.6V | 18:12:15 | 01:35:22 | 00:00:00 | |
| DL1XH-west | 2026-09-02 05:38:26 | 52.15454 | 14.70499 | 65° | 46km/h | 15036m | 4.7m/s | -50.3°C | 0.9% | 125.1hPa | 2.6V | 18:12:15 | 01:35:16 | 00:00:00 | |
| DB0DAN | 2026-09-02 05:38:25 | 52.15449 | 14.70482 | 65° | 42km/h | 15032m | 3.9m/s | -50.2°C | 1.4% | 125.16hPa | 2.7V | 00:00:00 | 00:00:00 | 00:00:00 | |
| DL1XH1-15 | 2026-09-02 05:38:25 | 52.15440 | 14.70448 | 67° | 46km/h | 15022m | 4.2m/s | -50.1°C | 3.7% | 125.3hPa | 2.7V | 08:30:00 | 01:35:13 | 00:00:00 | |
| NBG1-10 | 2026-09-02 05:38:25 | 52.15444 | 14.70465 | 67° | 44km/h | 15028m | 5.4m/s | -50.1°C | 3.7% | 125.2hPa | 2.6V | 00:00:00 | 01:35:14 | 00:00:00 | |
| KRY50SP-1 | 2026-09-02 05:38:23 | 52.15444 | 14.70465 | 68° | 46km/h | 15028m | 5.4m/s | -50.1°C | 1.4% | 125.3hPa | 2.6V | 00:00:00 | 00:00:00 | 00:00:00 | |
| DM0DOS-11 | 2026-09-02 05:38:22 | 52.15431 | 14.70414 | 66° | 44km/h | 15012m | 5.3m/s | -50.1°C | 3.7% | 125.5hPa | 2.6V | 08:30:00 | 01:35:11 | 00:00:00 | |
| DF8AY | 2026-09-02 05:38:21 | 52.15431 | 14.70414 | 67° | 44km/h | 15012m | 5.3m/s | 0°C | 0% | 0hPa | 2.6V | 18:12:15 | 01:35:11 | 00:00:00 | |
| HSKMA3-T | 2026-09-02 05:38:20 | 52.15427 | 14.70397 | 68° | 44km/h | 15007m | 5.7m/s | 0°C | 0% | 0hPa | 2.6V | 18:12:15 | 01:35:10 | 00:00:00 | |
| KRY50SP-1 | 2026-09-02 05:38:18 | 52.15423 | 14.70381 | 69° | 44km/h | 15002m | 4.8m/s | -50.1°C | 1.4% | 125.7hPa | 2.7V | 00:00:00 | 00:00:00 | 00:00:00 | |
| DAC517 | 2026-09-02 05:38:17 | 52.15419 | 14.70364 | 69° | 42km/h | 14996m | 5.9m/s | -50.1°C | 1.4% | 125.8hPa | 2.7V | 00:00:00 | 00:00:00 | 00:00:00 | |
| DL1XH1-15 | 2026-09-02 05:38:15 | 52.15398 | 14.70282 | 69° | 42km/h | 14972m | 3.6m/s | -50.2°C | 3.8% | 126.3hPa | 2.7V | 08:30:00 | 01:35:03 | 00:00:00 | |
| DL1XH-west | 2026-09-02 05:38:15 | 52.15406 | 14.70316 | 68° | 44km/h | 14982m | 4.1m/s | -50.1°C | 0.8% | 126.1hPa | 2.6V | 18:12:15 | 01:35:05 | 00:00:00 | |
| EDDB2-11 | 2026-09-02 05:38:14 | 52.15398 | 14.70282 | 69° | 42km/h | 14972m | 3.6m/s | -50.2°C | 1.5% | 126.3hPa | 2.7V | 00:00:00 | 00:00:00 | 00:00:00 | |
| SONCRA | 2026-09-02 05:38:13 | 52.15398 | 14.70282 | 69° | 42km/h | 14972m | 3.6m/s | -50.2°C | 1.5% | 126.3hPa | 2.7V | 00:00:00 | 00:00:00 | 00:00:00 | |
| DM0DOS-11 | 2026-09-02 05:38:12 | 52.15391 | 14.70249 | 72° | 42km/h | 14962m | 4.4m/s | -50.2°C | 3.8% | 126.5hPa | 2.7V | 08:30:00 | 01:35:01 | 00:00:00 | |
| AA1-15 | 2026-09-02 05:38:06 | 52.15379 | 14.70172 | 78° | 37km/h | 14939m | 5.5m/s | -50.4°C | 0.8% | 127hPa | 2.7V | 18:12:15 | 01:34:56 | 00:00:00 | |
| DL1XH-west | 2026-09-02 05:38:04 | 52.15375 | 14.70143 | 74° | 38km/h | 14928m | 5.8m/s | -50.3°C | 0.7% | 127.1hPa | 2.6V | 18:12:15 | 01:34:54 | 00:00:00 | |
| DL1XH1-15 | 2026-09-02 05:38:02 | 52.15367 | 14.70096 | 75° | 42km/h | 14914m | 3.8m/s | -50.3°C | 3.7% | 127.4hPa | 2.7V | 08:30:00 | 01:34:51 | 00:00:00 | |
| KRY50SP-1 | 2026-09-02 05:38:01 | 52.15369 | 14.70112 | 75° | 40km/h | 14919m | 5.7m/s | -50.4°C | 1.5% | 127.3hPa | 2.7V | 00:00:00 | 00:00:00 | 00:00:00 | |
| EDDB2-12 | 2026-09-02 05:37:57 | 52.15357 | 14.70024 | 82° | 44km/h | 14895m | 3.9m/s | -50.3°C | 1.5% | 127.8hPa | 2.7V | 00:00:00 | 00:00:00 | 00:00:00 | |
| DB0NH | 2026-09-02 05:37:56 | 52.15356 | 14.70006 | 85° | 44km/h | 14891m | 5.5m/s | -50.2°C | 3.8% | 127.9hPa | 2.7V | 00:00:00 | 01:34:46 | 00:00:00 | |
| DL1XH1-15 | 2026-09-02 05:37:55 | 52.15355 | 14.69918 | 89° | 42km/h | 14866m | 5.3m/s | -50.3°C | 3.8% | 128.4hPa | 2.7V | 08:30:00 | 01:34:41 | 00:00:00 | |
| DL1XH-west | 2026-09-02 05:37:54 | 52.15355 | 14.69969 | 89° | 44km/h | 14881m | 5.5m/s | -50.3°C | 0.8% | 128.1hPa | 2.7V | 18:12:15 | 01:34:44 | 00:00:00 | |
| SP3WXH-11 | 2026-09-02 05:37:51 | 52.15354 | 14.69900 | 86° | 40km/h | 14861m | 4.8m/s | -50.3°C | 1.5% | 128.4hPa | 2.7V | 00:00:00 | 00:00:00 | 00:00:00 | |
| D01LWL | 2026-09-02 05:37:50 | 52.15354 | 14.69900 | 86° | 40km/h | 14861m | 4.8m/s | 0°C | -1.0% | -1.0hPa | 2.7V | 00:00:00 | 00:00:00 | 00:00:00 | |
| 13BRC | 2026-09-02 05:37:46 | 52.15351 | 14.69850 | 84° | 44km/h | 14847m | 4.9m/s | -50.3°C | 1.5% | 128.7hPa | 2.7V | 00:00:00 | 00:00:00 | 00:00:00 | |
| DL1XH1-15 | 2026-09-02 05:37:45 | 52.15347 | 14.69740 | 91° | 46km/h | 14818m | 5.7m/s | -50.3°C | 3.8% | 129.3hPa | 2.7V | 08:30:00 | 01:34:31 | 00:00:00 | |
| DL1XH-west | 2026-09-02 05:37:44 | 52.15348 | 14.69796 | 86° | 44km/h | 14832m | 3.8m/s | -50.3°C | 0.7% | 129hPa | 2.7V | 18:12:15 | 01:34:34 | 00:00:00 | |
| EDDB2-11 | 2026-09-02 05:37:43 | 52.15347 | 14.69758 | 90° | 46km/h | 14822m | 3.7m/s | -50.3°C | 1.5% | 129.2hPa | 2.7V | 00:00:00 | 00:00:00 | 00:00:00 | |
| SONCRA | 2026-09-02 05:37:42 | 52.15347 | 14.69758 | 90° | 46km/h | 14822m | 3.7m/s | -50.3°C | 1.5% | 129.2hPa | 2.7V | 00:00:00 | 00:00:00 | 00:00:00 | |
| S3001 | 2026-09-02 05:37:40 | 52.15348 | 14.69721 | 92° | 42km/h | 14813m | 3.4m/s | -50.2°C | 1.5% | 129.4hPa | 2.7V | 00:00:00 | 00:00:00 | 00:00:00 | |
| SONDE2-11 | 2026-09-02 05:37:38 | 52.15349 | 14.69686 | 94° | 42km/h | 14804m | 4.2m/s | -50.2°C | 1.4% | 129.6hPa | 2.7V | 00:00:00 | 00:00:00 | 00:00:00 | |
| SP3BTT-10 | 2026-09-02 05:37:36 | 52.15351 | 14.69651 | 95° | 51km/h | 14794m | 3.8m/s | -50.2°C | 3.8% | 129.7hPa | 2.7V | 00:00:00 | 00:00:00 | 00:00:00 | |
| DL1XH1-15 | 2026-09-02 05:37:35 | 52.15355 | 14.69566 | 93° | 44km/h | 14771m | 4.9m/s | -50.1°C | 3.8% | 130.2hPa | 2.7V | 08:30:00 | 01:34:21 | 00:00:00 | |
| AA1-15 | 2026-09-02 05:37:34 | 52.15353 | 14.69618 | 95° | 42km/h | 14785m | 4.1m/s | -50.1°C | 0.8% | 129.9hPa | 2.7V | 18:12:15 | 01:34:24 | 00:00:00 | |
| DL1XH-west | 2026-09-02 05:37:33 | 52.15353 | 14.69601 | 95° | 40km/h | 14780m | 5.7m/s | -50.1°C | 0.9% | 130.1hPa | 2.7V | 18:12:15 | 01:34:23 | 00:00:00 | |
| DL2RXE-15 | 2026-09-02 05:37:32 | 52.15353 | 14.69601 | 96° | 40km/h | 14780m | 5.7m/s | -50.1°C | 1.5% | 130.1hPa | 2.7V | 00:00:00 | 00:00:00 | 00:00:00 | |
| KRY50SP-1 | 2026-09-02 05:37:27 | 52.15358 | 14.69510 | 96° | 44km/h | 14757m | 5.1m/s | -50.0°C | 1.5% | 130.5hPa | 2.7V | 00:00:00 | 00:00:00 | 00:00:00 | |
| DB0DAN | 2026-09-02 05:37:25 | 52.15361 | 14.69455 | 97° | 44km/h | 14743m | 3.7m/s | -50.1°C | 1.5% | 130.77hPa | 2.7V | 00:00:00 | 00:00:00 | 00:00:00 | |
| DL1XH1-15 | 2026-09-02 05:37:24 | 52.15368 | 14.69385 | 99° | 42km/h | 14725m | 3.8m/s | -50.2°C | 3.8% | 0hPa | 2.7V | 00:00:00 | 01:34:11 | 00:00:00 | |
| AA1-15 | 2026-09-02 05:37:24 | 52.15364 | 14.69420 | 99° | 42km/h | 14734m | 4.2m/s | -50.2°C | 0.9% | 131hPa | 2.6V | 18:12:15 | 01:34:13 | 00:00:00 | |
| DL1XH-west | 2026-09-02 05:37:22 | 52.15366 | 14.69403 | 99° | 44km/h | 14730m | 4.7m/s | -50.2°C | 0.9% | 131hPa | 2.7V | 18:12:15 | 01:34:12 | 00:00:00 | |
| KRY50SP-1 | 2026-09-02 05:37:21 | 52.15366 | 14.69403 | 100° | 44km/h | 14730m | 4.7m/s | -50.2°C | 1.5% | 131.0hPa | 2.7V | 00:00:00 | 00:00:00 | 00:00:00 | |
| SP3WXH-11 | 2026-09-02 05:37:20 | 52.15371 | 14.69352 | 99° | 40km/h | 14716m | 4.0m/s | -50.2°C | 1.5% | 131.3hPa | 2.7V | 00:00:00 | 00:00:00 | 00:00:00 | |
| D01LWL | 2026-09-02 05:37:19 | 52.15375 | 14.69317 | 98° | 44km/h | 14707m | 3.6m/s | 0°C | -1.0% | -1.0hPa | 2.7V | 00:00:00 | 00:00:00 | 00:00:00 | |
| KRY50SP-1 | 2026-09-02 05:37:16 | 52.15376 | 14.69299 | 99° | 44km/h | 14703m | 5.7m/s | -50.1°C | 1.5% | 131.6hPa | 2.7V | 00:00:00 | 00:00:00 | 00:00:00 | |
| DAC517 | 2026-09-02 05:37:15 | 52.15376 | 14.69299 | 99° | 44km/h | 14703m | 5.7m/s | -50.1°C | 1.5% | 131.6hPa | 2.7V | 00:00:00 | 00:00:00 | 00:00:00 | |
| DL1XH1-15 | 2026-09-02 05:37:14 | 52.15387 | 14.69208 | 103° | 44km/h | 14679m | 3.1m/s | -50.1°C | 3.8% | 0hPa | 2.7V | 00:00:00 | 01:34:01 | 00:00:00 | |
| DL1XH-west | 2026-09-02 05:37:12 | 52.15384 | 14.69226 | 102° | 46km/h | 14684m | 5.2m/s | -50.2°C | 0.9% | 132hPa | 2.7V | 18:12:15 | 01:34:02 | 00:00:00 | |
| DB0DAN | 2026-09-02 05:37:10 | 52.15389 | 14.69190 | 104° | 44km/h | 14676m | 5.4m/s | -50.2°C | 1.5% | 132.18hPa | 2.7V | 00:00:00 | 00:00:00 | 00:00:00 | |
| S3001 | 2026-09-02 05:37:09 | 52.15392 | 14.69171 | 102° | 47km/h | 14671m | 4.3m/s | -50.2°C | 1.6% | 132.3hPa | 2.7V | 00:00:00 | 00:00:00 | 00:00:00 | |
| SONDE2-11 | 2026-09-02 05:37:07 | 52.15397 | 14.69132 | 100° | 47km/h | 14662m | 4.3m/s | -50.2°C | 1.5% | 132.4hPa | 2.7V | 00:00:00 | 00:00:00 | 00:00:00 | |
| KRY50SP-1 | 2026-09-02 05:37:05 | 52.15399 | 14.69112 | 101° | 49km/h | 14658m | 4.0m/s | -50.2°C | 1.5% | 132.5hPa | 2.7V | 00:00:00 | 00:00:00 | 00:00:00 | |
| DL1XH1-15 | 2026-09-02 05:37:04 | 52.15410 | 14.69009 | 101° | 53km/h | 14635m | 5.9m/s | -50.3°C | 3.9% | 0hPa | 2.7V | 00:00:00 | 01:33:51 | 00:00:00 | |
| DL1XH-west | 2026-09-02 05:37:01 | 52.15410 | 14.69009 | 102° | 53km/h | 14636m | 5.9m/s | -50.3°C | 1% | 133hPa | 2.7V | 18:12:15 | 01:33:51 | 00:00:00 | |
| KRY50SP-1 | 2026-09-02 05:36:59 | 52.15413 | 14.68987 | 102° | 53km/h | 14630m | 5.2m/s | -50.3°C | 1.6% | 133.1hPa | 2.7V | 00:00:00 | 00:00:00 | 00:00:00 | |
| DB0NH | 2026-09-02 05:36:56 | 52.15423 | 14.68899 | 100° | 57km/h | 14611m | 3.9m/s | -50.2°C | 3.8% | 133.4hPa | 2.7V | 00:00:00 | 01:33:46 | 00:00:00 | |
| DL1XH1-15 | 2026-09-02 05:36:55 | 52.15433 | 14.68781 | 96° | 57km/h | 14587m | 5.2m/s | -50.4°C | 3.9% | 0hPa | 2.7V | 00:00:00 | 01:33:41 | 00:00:00 | |
| DB0DAN | 2026-09-02 05:36:55 | 52.15426 | 14.68876 | 98° | 55km/h | 14606m | 5m/s | -50.3°C | 1.6% | 133.6hPa | 2.6V | 00:00:00 | 00:00:00 | 00:00:00 | |
| DL1XH-west | 2026-09-02 05:36:51 | 52.15433 | 14.68781 | 97° | 57km/h | 14587m | 5.2m/s | -50.4°C | 1% | 134hPa | 2.7V | 18:12:15 | 01:33:41 | 00:00:00 | |
| AA1-15 | 2026-09-02 05:36:50 | 52.15435 | 14.68758 | 97° | 57km/h | 14583m | 4.2m/s | -50.5°C | 1% | 134hPa | 2.7V | 18:12:15 | 01:33:40 | 00:00:00 | |
| SP3WXH-11 | 2026-09-02 05:36:49 | 52.15437 | 14.68735 | 98° | 57km/h | 14579m | 4.7m/s | -50.5°C | 1.6% | 134.2hPa | 2.7V | 00:00:00 | 00:00:00 | 00:00:00 | |
| KRY50SP-1 | 2026-09-02 05:36:47 | 52.15439 | 14.68712 | 99° | 57km/h | 14574m | 4.9m/s | -50.5°C | 1.6% | 134.2hPa | 2.7V | 00:00:00 | 00:00:00 | 00:00:00 | |
| DL1XH1-15 | 2026-09-02 05:36:46 | 52.15450 | 14.68549 | 93° | 58km/h | 14543m | 5.1m/s | 0°C | 0% | 0hPa | 2.7V | 00:00:00 | 01:33:31 | 00:00:00 | |
| 13BRC | 2026-09-02 05:36:44 | 52.15444 | 14.68644 | 99° | 58km/h | 14561m | 4.5m/s | -50.6°C | 1.6% | 134.5hPa | 2.7V | 00:00:00 | 00:00:00 | 00:00:00 | |
| KRY50SP-1 | 2026-09-02 05:36:42 | 52.15447 | 14.68596 | 97° | 58km/h | 14552m | 5.3m/s | -50.5°C | 1.6% | 134.7hPa | 2.7V | 00:00:00 | 00:00:00 | 00:00:00 | |
| DB0DAN | 2026-09-02 05:36:40 | 52.15450 | 14.68525 | 94° | 55km/h | 14538m | 4.5m/s | -50.5°C | 1.6% | 134.96hPa | 2.7V | 00:00:00 | 00:00:00 | 00:00:00 | |
| DL1XH-west | 2026-09-02 05:36:40 | 52.15450 | 14.68525 | 94° | 58km/h | 14539m | 4.5m/s | -50.5°C | 1% | 135hPa | 2.7V | 18:12:15 | 01:33:30 | 00:00:00 | |
| AA1-15 | 2026-09-02 05:36:39 | 52.15451 | 14.68502 | 92° | 58km/h | 14534m | 4.6m/s | -50.5°C | 1% | 135.1hPa | 2.7V | 18:12:15 | 01:33:29 | 00:00:00 | |
| S3001 | 2026-09-02 05:36:38 | 52.15451 | 14.68478 | 89° | 55km/h | 14529m | 5.4m/s | -50.5°C | 1.6% | 135.2hPa | 2.7V | 00:00:00 | 00:00:00 | 00:00:00 | |
| KRY50SP-1 | 2026-09-02 05:36:37 | 52.15451 | 14.68478 | 90° | 57km/h | 14529m | 5.4m/s | -50.5°C | 1.6% | 135.1hPa | 2.7V | 00:00:00 | 00:00:00 | 00:00:00 | |
| DM0DOS-11 | 2026-09-02 05:36:36 | 52.15449 | 14.68315 | 89° | 57km/h | 14498m | 3m/s | 0°C | 0% | 0hPa | 2.7V | 08:30:00 | 01:33:21 | 00:00:00 | |
| SONDE2-11 | 2026-09-02 05:36:36 | 52.15451 | 14.68409 | 88° | 57km/h | 14515m | 3.5m/s | -50.5°C | 1.6% | 135.4hPa | 2.7V | 00:00:00 | 00:00:00 | 00:00:00 | |
| DAC517 | 2026-09-02 05:36:34 | 52.15451 | 14.68409 | 90° | 57km/h | 14516m | 3.5m/s | -50.5°C | 1.6% | 135.4hPa | 2.7V | 00:00:00 | 00:00:00 | 00:00:00 | |
| SP6BVK | 2026-09-02 05:36:31 | 52.15449 | 14.68339 | 90° | 57km/h | 14502m | 5.0m/s | -50.4°C | 1.6% | 135.7hPa | 2.7V | 00:00:00 | 00:00:00 | 00:00:00 | |
| DL1XH1-15 | 2026-09-02 05:36:30 | 52.15447 | 14.68268 | 85° | 57km/h | 14490m | 3.7m/s | 0°C | 0% | 0hPa | 2.7V | 00:00:00 | 01:33:19 | 00:00:00 | |
| DL1XH-west | 2026-09-02 05:36:30 | 52.15448 | 14.68292 | 87° | 57km/h | 14494m | 4.9m/s | -50.4°C | 1% | 135.9hPa | 2.7V | 18:12:15 | 01:33:20 | 00:00:00 | |
| AA1-15 | 2026-09-02 05:36:28 | 52.15446 | 14.68245 | 86° | 57km/h | 14486m | 5.3m/s | -50.4°C | 1% | 136.1hPa | 2.7V | 18:12:15 | 01:33:18 | 00:00:00 | |
| DM0DOS-11 | 2026-09-02 05:36:26 | 52.15438 | 14.68083 | 84° | 55km/h | 14453m | 4.3m/s | 0°C | 0% | 0hPa | 2.7V | 08:30:00 | 01:33:11 | 00:00:00 | |
| DB0DAN | 2026-09-02 05:36:25 | 52.15443 | 14.68175 | 84° | 55km/h | 14472m | 2.9m/s | -50.3°C | 1.6% | 136.42hPa | 2.7V | 00:00:00 | 00:00:00 | 00:00:00 | |
| 13BRC | 2026-09-02 05:36:23 | 52.15442 | 14.68152 | 87° | 57km/h | 14468m | 5.7m/s | -50.4°C | 1.6% | 136.5hPa | 2.7V | 00:00:00 | 00:00:00 | 00:00:00 | |
| SP3BTT-10 | 2026-09-02 05:36:21 | 52.15438 | 14.68083 | 85° | 53km/h | 14453m | 4.3m/s | -50.2°C | 3.9% | 136.7hPa | 2.7V | 00:00:00 | 00:00:00 | 00:00:00 | |
| DL1XH1-15 | 2026-09-02 05:36:20 | 52.15434 | 14.68016 | 84° | 53km/h | 14439m | 4.7m/s | 0°C | 0% | 0hPa | 2.7V | 00:00:00 | 01:33:08 | 00:00:00 | |
| DL1XH-west | 2026-09-02 05:36:19 | 52.15436 | 14.68038 | 85° | 55km/h | 14444m | 5.1m/s | -50.1°C | 0.9% | 136.9hPa | 2.7V | 18:12:15 | 01:33:09 | 00:00:00 | |
| AA1-15 | 2026-09-02 05:36:17 | 52.15433 | 14.67994 | 85° | 53km/h | 14434m | 5.1m/s | -50.2°C | 0.9% | 137.2hPa | 2.7V | 18:12:15 | 01:33:07 | 00:00:00 | |
| KRY50SP-1 | 2026-09-02 05:36:15 | 52.15431 | 14.67950 | 87° | 55km/h | 14426m | 4.1m/s | -50.4°C | 1.6% | 137.3hPa | 2.7V | 00:00:00 | 00:00:00 | 00:00:00 | |
| DAC517 | 2026-09-02 05:36:14 | 52.15431 | 14.67950 | 87° | 55km/h | 14426m | 4.1m/s | -50.4°C | 1.6% | 137.3hPa | 2.7V | 00:00:00 | 00:00:00 | 00:00:00 | |
| DB0DAN | 2026-09-02 05:36:10 | 52.15424 | 14.67838 | 83° | 53km/h | 14403m | 4.1m/s | -50.2°C | 1.6% | 137.83hPa | 2.7V | 00:00:00 | 00:00:00 | 00:00:00 | |
| DL1XH1-15 | 2026-09-02 05:36:10 | 52.15421 | 14.67794 | 84° | 53km/h | 14394m | 4.6m/s | 0°C | 0% | 0hPa | 2.7V | 00:00:00 | 01:32:58 | 00:00:00 | |
| DL1XH-west | 2026-09-02 05:36:08 | 52.15421 | 14.67794 | 84° | 53km/h | 14394m | 4.6m/s | -50.2°C | 0.8% | 138hPa | 2.7V | 18:12:15 | 01:32:58 | 00:00:00 | |
| AA1-15 | 2026-09-02 05:36:06 | 52.15418 | 14.67751 | 81° | 51km/h | 14384m | 4.2m/s | -50.2°C | 0.9% | 138.3hPa | 2.7V | 18:12:15 | 01:32:56 | 00:00:00 | |
| DM0DOS-11 | 2026-09-02 05:36:06 | 52.15411 | 14.67650 | 85° | 49km/h | 14362m | 3.8m/s | 0°C | 0% | 0hPa | 2.7V | 08:30:00 | 01:32:51 | 00:00:00 | |
| SONDE2-11 | 2026-09-02 05:36:05 | 52.15415 | 14.67710 | 84° | 49km/h | 14375m | 4.9m/s | -50.2°C | 1.6% | 138.4hPa | 2.7V | 00:00:00 | 00:00:00 | 00:00:00 | |
| 13BRC | 2026-09-02 05:36:03 | 52.15415 | 14.67710 | 86° | 49km/h | 14375m | 4.9m/s | -50.2°C | 1.6% | 138.4hPa | 2.7V | 00:00:00 | 00:00:00 | 00:00:00 | |
| KRY50SP-1 | 2026-09-02 05:36:02 | 52.15414 | 14.67690 | 86° | 49km/h | 14371m | 4.3m/s | -50.2°C | 1.6% | 138.5hPa | 2.7V | 00:00:00 | 00:00:00 | 00:00:00 | |
| DL1XH1-15 | 2026-09-02 05:36:00 | 52.15409 | 14.67588 | 85° | 51km/h | 14348m | 4.2m/s | 0°C | 0% | 0hPa | 2.7V | 00:00:00 | 01:32:48 | 00:00:00 | |
| DL1XH-west | 2026-09-02 05:35:58 | 52.15409 | 14.67588 | 85° | 51km/h | 14349m | 4.2m/s | -50.2°C | 0.9% | 139hPa | 2.7V | 18:12:15 | 01:32:48 | 00:00:00 | |
| DB0DAN | 2026-09-02 05:35:55 | 52.15407 | 14.67523 | 87° | 51km/h | 14335m | 3.8m/s | -50.1°C | 1.6% | 139.28hPa | 2.8V | 00:00:00 | 00:00:00 | 00:00:00 | |
| AA1-15 | 2026-09-02 05:35:55 | 52.15407 | 14.67523 | 87° | 55km/h | 14335m | 3.8m/s | -50.1°C | 0.9% | 139.3hPa | 2.8V | 18:12:15 | 01:32:45 | 00:00:00 | |
| DL1XH1-15 | 2026-09-02 05:35:53 | 52.15399 | 14.67370 | 86° | 53km/h | 14301m | 4.5m/s | 0°C | 0% | 0hPa | 2.7V | 00:00:00 | 01:32:38 | 00:00:00 | |
| DL1XH-west | 2026-09-02 05:35:48 | 52.15399 | 14.67370 | 87° | 53km/h | 14301m | 4.5m/s | 0°C | 0% | 140hPa | 2.7V | 18:12:15 | 01:32:38 | 00:00:00 | |
| DM0DOS-11 | 2026-09-02 05:35:47 | 52.15397 | 14.67305 | 87° | 53km/h | 14287m | 4.9m/s | 0°C | 0% | 0hPa | 2.7V | 00:00:00 | 01:32:35 | 00:00:00 | |
| AA1-15 | 2026-09-02 05:35:44 | 52.15397 | 14.67283 | 90° | 53km/h | 14282m | 4.9m/s | -50°C | 0.9% | 140.4hPa | 2.7V | 18:12:15 | 01:32:34 | 00:00:00 | |
| 13BRC | 2026-09-02 05:35:42 | 52.15397 | 14.67260 | 92° | 55km/h | 14278m | 3.9m/s | -50.0°C | 1.6% | 140.4hPa | 2.7V | 00:00:00 | 00:00:00 | 00:00:00 | |
| DB0DAN | 2026-09-02 05:35:40 | 52.15397 | 14.67190 | 93° | 57km/h | 14265m | 6m/s | -49.9°C | 1.5% | 140.77hPa | 2.7V | 00:00:00 | 00:00:00 | 00:00:00 | |
| DL1XH-west | 2026-09-02 05:35:37 | 52.15399 | 14.67115 | 92° | 62km/h | 14248m | 5.6m/s | 0°C | 0% | 0hPa | 2.8V | 18:12:15 | 01:32:27 | 00:00:00 | |
| DM0DOS-11 | 2026-09-02 05:35:36 | 52.15400 | 14.67066 | 89° | 58km/h | 14239m | 5.7m/s | 0°C | 0% | 0hPa | 2.7V | 00:00:00 | 01:32:25 | 00:00:00 | |
| Es werden nur die letzten 3500 von 4351 Frames angezeigt. GPX/KML und Diagramme bleiben verfügbar. | |||||||||||||||